<?xml version='1.0' encoding='UTF-8'?><gpx version="1.1" creator="JPX - https://github.com/jenetics/jpx" xmlns="http://www.topografix.com/GPX/1/1"><trk><trkseg><trkpt lat="45.6155305" lon="9.3603491"><ele>191.0</ele><time>2026-03-29T09:55:08.3Z</time></trkpt><trkpt lat="45.6157111" lon="9.3612308"><ele>191.0</ele><time>2026-03-29T09:55:14.581Z</time></trkpt><trkpt lat="45.6158319" lon="9.3614268"><ele>191.0</ele><time>2026-03-29T09:55:21.124Z</time></trkpt><trkpt lat="45.6157442" lon="9.3623593"><ele>192.0</ele><time>2026-03-29T09:55:27.551Z</time></trkpt><trkpt lat="45.6166325" lon="9.3625111"><ele>192.0</ele><time>2026-03-29T09:55:40.478Z</time></trkpt><trkpt lat="45.6168334" lon="9.3625715"><ele>192.0</ele><time>2026-03-29T09:55:46.93Z</time></trkpt><trkpt lat="45.6171657" lon="9.361653"><ele>197.0</ele><time>2026-03-29T09:56:05.914Z</time></trkpt><trkpt lat="45.6172903" lon="9.3605924"><ele>197.0</ele><time>2026-03-29T09:56:12.441Z</time></trkpt><trkpt lat="45.6175161" lon="9.3600445"><ele>197.0</ele><time>2026-03-29T09:56:18.654Z</time></trkpt><trkpt lat="45.617565" lon="9.3598986"><ele>197.0</ele><time>2026-03-29T09:56:20.538Z</time></trkpt><trkpt lat="45.6175972" lon="9.3598118"><ele>197.0</ele><time>2026-03-29T09:56:22.549Z</time></trkpt><trkpt lat="45.6176123" lon="9.359719"><ele>197.0</ele><time>2026-03-29T09:56:25.551Z</time></trkpt><trkpt lat="45.6176959" lon="9.3597702"><ele>197.0</ele><time>2026-03-29T09:56:29.593Z</time></trkpt><trkpt lat="45.6178592" lon="9.3598522"><ele>197.0</ele><time>2026-03-29T09:56:32.39Z</time></trkpt><trkpt lat="45.6179702" lon="9.3598488"><ele>196.39999999999998</ele><time>2026-03-29T09:56:33.394Z</time></trkpt><trkpt lat="45.6180489" lon="9.3598871"><ele>195.79999999999998</ele><time>2026-03-29T09:56:34.39Z</time></trkpt><trkpt lat="45.6181582" lon="9.3598856"><ele>195.2</ele><time>2026-03-29T09:56:35.39Z</time></trkpt><trkpt lat="45.6182747" lon="9.3598826"><ele>194.6</ele><time>2026-03-29T09:56:36.398Z</time></trkpt><trkpt lat="45.6184087" lon="9.3598884"><ele>194.0</ele><time>2026-03-29T09:56:37.392Z</time></trkpt><trkpt lat="45.6185186" lon="9.3599223"><ele>194.0</ele><time>2026-03-29T09:56:38.387Z</time></trkpt><trkpt lat="45.6186383" lon="9.3599554"><ele>194.0</ele><time>2026-03-29T09:56:39.391Z</time></trkpt><trkpt lat="45.6187283" lon="9.3599996"><ele>194.0</ele><time>2026-03-29T09:56:40.302Z</time></trkpt><trkpt lat="45.6188453" lon="9.3601837"><ele>194.0</ele><time>2026-03-29T09:56:42.096Z</time></trkpt><trkpt lat="45.6189222" lon="9.3602564"><ele>193.5</ele><time>2026-03-29T09:56:43.011Z</time></trkpt><trkpt lat="45.6190796" lon="9.3604061"><ele>193.0</ele><time>2026-03-29T09:56:44.787Z</time></trkpt><trkpt lat="45.6191963" lon="9.3604507"><ele>192.5</ele><time>2026-03-29T09:56:45.771Z</time></trkpt><trkpt lat="45.6193174" lon="9.3604953"><ele>192.0</ele><time>2026-03-29T09:56:46.777Z</time></trkpt><trkpt lat="45.6194468" lon="9.3605185"><ele>191.75</ele><time>2026-03-29T09:56:47.774Z</time></trkpt><trkpt lat="45.6195828" lon="9.3605463"><ele>191.5</ele><time>2026-03-29T09:56:48.773Z</time></trkpt><trkpt lat="45.6197226" lon="9.3605705"><ele>191.25</ele><time>2026-03-29T09:56:49.774Z</time></trkpt><trkpt lat="45.6198661" lon="9.3605967"><ele>191.0</ele><time>2026-03-29T09:56:50.769Z</time></trkpt><trkpt lat="45.6200124" lon="9.3606248"><ele>191.0</ele><time>2026-03-29T09:56:51.773Z</time></trkpt><trkpt lat="45.6201587" lon="9.360653"><ele>191.0</ele><time>2026-03-29T09:56:52.775Z</time></trkpt><trkpt lat="45.6203075" lon="9.3606794"><ele>191.0</ele><time>2026-03-29T09:56:53.773Z</time></trkpt><trkpt lat="45.6204579" lon="9.360703"><ele>191.0</ele><time>2026-03-29T09:56:54.775Z</time></trkpt><trkpt lat="45.620608" lon="9.3607291"><ele>190.66666666666666</ele><time>2026-03-29T09:56:55.776Z</time></trkpt><trkpt lat="45.6207591" lon="9.3607545"><ele>190.33333333333334</ele><time>2026-03-29T09:56:56.776Z</time></trkpt><trkpt lat="45.6209105" lon="9.3607799"><ele>190.0</ele><time>2026-03-29T09:56:57.775Z</time></trkpt><trkpt lat="45.6210618" lon="9.3608056"><ele>191.33333333333334</ele><time>2026-03-29T09:56:58.772Z</time></trkpt><trkpt lat="45.6212127" lon="9.3608316"><ele>192.66666666666669</ele><time>2026-03-29T09:56:59.775Z</time></trkpt><trkpt lat="45.621363" lon="9.3608562"><ele>194.0</ele><time>2026-03-29T09:57:00.774Z</time></trkpt><trkpt lat="45.6215127" lon="9.36088"><ele>194.0</ele><time>2026-03-29T09:57:01.774Z</time></trkpt><trkpt lat="45.6216611" lon="9.3609018"><ele>194.0</ele><time>2026-03-29T09:57:02.772Z</time></trkpt><trkpt lat="45.6218064" lon="9.3609229"><ele>194.0</ele><time>2026-03-29T09:57:03.777Z</time></trkpt><trkpt lat="45.62195" lon="9.3609436"><ele>194.0</ele><time>2026-03-29T09:57:04.774Z</time></trkpt><trkpt lat="45.6220916" lon="9.3609656"><ele>194.5</ele><time>2026-03-29T09:57:05.78Z</time></trkpt><trkpt lat="45.6222341" lon="9.3609869"><ele>195.0</ele><time>2026-03-29T09:57:06.773Z</time></trkpt><trkpt lat="45.622379" lon="9.3610071"><ele>195.5</ele><time>2026-03-29T09:57:07.797Z</time></trkpt><trkpt lat="45.622526" lon="9.361027"><ele>196.0</ele><time>2026-03-29T09:57:08.777Z</time></trkpt><trkpt lat="45.6226735" lon="9.3610472"><ele>197.5</ele><time>2026-03-29T09:57:09.801Z</time></trkpt><trkpt lat="45.622873" lon="9.3610705"><ele>199.0</ele><time>2026-03-29T09:57:10.798Z</time></trkpt><trkpt lat="45.623125" lon="9.3611275"><ele>199.0</ele><time>2026-03-29T09:57:11.799Z</time></trkpt><trkpt lat="45.6233687" lon="9.3611789"><ele>199.0</ele><time>2026-03-29T09:57:12.801Z</time></trkpt><trkpt lat="45.6235952" lon="9.3612177"><ele>199.0</ele><time>2026-03-29T09:57:13.803Z</time></trkpt><trkpt lat="45.6238026" lon="9.3612527"><ele>199.0</ele><time>2026-03-29T09:57:14.796Z</time></trkpt><trkpt lat="45.6240088" lon="9.3612835"><ele>199.0</ele><time>2026-03-29T09:57:15.803Z</time></trkpt><trkpt lat="45.6242145" lon="9.3613199"><ele>199.0</ele><time>2026-03-29T09:57:16.808Z</time></trkpt><trkpt lat="45.6244277" lon="9.3613583"><ele>199.0</ele><time>2026-03-29T09:57:17.796Z</time></trkpt><trkpt lat="45.6246397" lon="9.3613944"><ele>199.0</ele><time>2026-03-29T09:57:18.801Z</time></trkpt><trkpt lat="45.6248391" lon="9.3614362"><ele>200.0</ele><time>2026-03-29T09:57:19.802Z</time></trkpt><trkpt lat="45.6250432" lon="9.3614762"><ele>201.0</ele><time>2026-03-29T09:57:20.805Z</time></trkpt><trkpt lat="45.6252496" lon="9.3615251"><ele>202.0</ele><time>2026-03-29T09:57:21.8Z</time></trkpt><trkpt lat="45.6254571" lon="9.3615748"><ele>202.33333333333331</ele><time>2026-03-29T09:57:22.802Z</time></trkpt><trkpt lat="45.6256584" lon="9.3616326"><ele>202.66666666666669</ele><time>2026-03-29T09:57:23.803Z</time></trkpt><trkpt lat="45.625861" lon="9.3616842"><ele>203.0</ele><time>2026-03-29T09:57:24.805Z</time></trkpt><trkpt lat="45.626057" lon="9.3617244"><ele>203.0</ele><time>2026-03-29T09:57:25.808Z</time></trkpt><trkpt lat="45.6262614" lon="9.3617697"><ele>203.0</ele><time>2026-03-29T09:57:26.806Z</time></trkpt><trkpt lat="45.626475" lon="9.3618184"><ele>203.0</ele><time>2026-03-29T09:57:27.805Z</time></trkpt><trkpt lat="45.6266955" lon="9.3618575"><ele>203.0</ele><time>2026-03-29T09:57:28.811Z</time></trkpt><trkpt lat="45.6269094" lon="9.3618973"><ele>203.0</ele><time>2026-03-29T09:57:29.809Z</time></trkpt><trkpt lat="45.6271226" lon="9.3619369"><ele>203.0</ele><time>2026-03-29T09:57:30.809Z</time></trkpt><trkpt lat="45.627339" lon="9.3619856"><ele>204.5</ele><time>2026-03-29T09:57:31.81Z</time></trkpt><trkpt lat="45.6275606" lon="9.3620267"><ele>206.0</ele><time>2026-03-29T09:57:32.816Z</time></trkpt><trkpt lat="45.6277901" lon="9.3620543"><ele>206.66666666666669</ele><time>2026-03-29T09:57:33.81Z</time></trkpt><trkpt lat="45.6280123" lon="9.3620791"><ele>207.33333333333331</ele><time>2026-03-29T09:57:34.813Z</time></trkpt><trkpt lat="45.6282187" lon="9.3621157"><ele>208.0</ele><time>2026-03-29T09:57:35.809Z</time></trkpt><trkpt lat="45.6284175" lon="9.3621673"><ele>207.66666666666666</ele><time>2026-03-29T09:57:36.81Z</time></trkpt><trkpt lat="45.6286118" lon="9.362208"><ele>207.33333333333331</ele><time>2026-03-29T09:57:37.81Z</time></trkpt><trkpt lat="45.6288088" lon="9.3622582"><ele>207.0</ele><time>2026-03-29T09:57:38.81Z</time></trkpt><trkpt lat="45.6290094" lon="9.3622937"><ele>207.0</ele><time>2026-03-29T09:57:39.837Z</time></trkpt><trkpt lat="45.6292183" lon="9.3623207"><ele>207.0</ele><time>2026-03-29T09:57:40.822Z</time></trkpt><trkpt lat="45.6294299" lon="9.3623524"><ele>207.0</ele><time>2026-03-29T09:57:41.823Z</time></trkpt><trkpt lat="45.629637" lon="9.3623875"><ele>206.66666666666669</ele><time>2026-03-29T09:57:42.821Z</time></trkpt><trkpt lat="45.6298584" lon="9.3624248"><ele>206.33333333333334</ele><time>2026-03-29T09:57:43.821Z</time></trkpt><trkpt lat="45.6300661" lon="9.3624736"><ele>206.0</ele><time>2026-03-29T09:57:44.825Z</time></trkpt><trkpt lat="45.6302705" lon="9.3625191"><ele>207.0</ele><time>2026-03-29T09:57:45.821Z</time></trkpt><trkpt lat="45.6304828" lon="9.3625813"><ele>208.0</ele><time>2026-03-29T09:57:46.824Z</time></trkpt><trkpt lat="45.6306846" lon="9.3626196"><ele>209.0</ele><time>2026-03-29T09:57:47.825Z</time></trkpt><trkpt lat="45.6308957" lon="9.362643"><ele>209.0</ele><time>2026-03-29T09:57:48.825Z</time></trkpt><trkpt lat="45.6311087" lon="9.3626894"><ele>209.0</ele><time>2026-03-29T09:57:49.822Z</time></trkpt><trkpt lat="45.6313193" lon="9.3627303"><ele>209.0</ele><time>2026-03-29T09:57:50.818Z</time></trkpt><trkpt lat="45.6315154" lon="9.3627667"><ele>209.0</ele><time>2026-03-29T09:57:51.815Z</time></trkpt><trkpt lat="45.6317202" lon="9.3628035"><ele>209.0</ele><time>2026-03-29T09:57:52.817Z</time></trkpt><trkpt lat="45.6319381" lon="9.3628422"><ele>209.0</ele><time>2026-03-29T09:57:53.815Z</time></trkpt><trkpt lat="45.6321408" lon="9.3628707"><ele>209.5</ele><time>2026-03-29T09:57:54.816Z</time></trkpt><trkpt lat="45.6323654" lon="9.3629002"><ele>210.0</ele><time>2026-03-29T09:57:55.815Z</time></trkpt><trkpt lat="45.6325916" lon="9.3629486"><ele>210.0</ele><time>2026-03-29T09:57:56.811Z</time></trkpt><trkpt lat="45.6328153" lon="9.3629888"><ele>210.0</ele><time>2026-03-29T09:57:57.812Z</time></trkpt><trkpt lat="45.633015" lon="9.3630333"><ele>210.0</ele><time>2026-03-29T09:57:58.815Z</time></trkpt><trkpt lat="45.633229" lon="9.3630631"><ele>210.33333333333331</ele><time>2026-03-29T09:57:59.812Z</time></trkpt><trkpt lat="45.6334406" lon="9.3631101"><ele>210.66666666666666</ele><time>2026-03-29T09:58:00.814Z</time></trkpt><trkpt lat="45.6336478" lon="9.3631519"><ele>211.0</ele><time>2026-03-29T09:58:01.814Z</time></trkpt><trkpt lat="45.6338589" lon="9.3632031"><ele>211.0</ele><time>2026-03-29T09:58:02.816Z</time></trkpt><trkpt lat="45.6340718" lon="9.3632455"><ele>211.0</ele><time>2026-03-29T09:58:03.814Z</time></trkpt><trkpt lat="45.6342934" lon="9.3632934"><ele>211.0</ele><time>2026-03-29T09:58:04.814Z</time></trkpt><trkpt lat="45.6345011" lon="9.3633466"><ele>211.0</ele><time>2026-03-29T09:58:05.817Z</time></trkpt><trkpt lat="45.6347198" lon="9.3633885"><ele>211.0</ele><time>2026-03-29T09:58:06.812Z</time></trkpt><trkpt lat="45.6349239" lon="9.363432"><ele>211.0</ele><time>2026-03-29T09:58:07.819Z</time></trkpt><trkpt lat="45.6351306" lon="9.3634685"><ele>211.0</ele><time>2026-03-29T09:58:08.822Z</time></trkpt><trkpt lat="45.6353374" lon="9.3635096"><ele>211.0</ele><time>2026-03-29T09:58:09.815Z</time></trkpt><trkpt lat="45.6355481" lon="9.3635672"><ele>211.0</ele><time>2026-03-29T09:58:10.816Z</time></trkpt><trkpt lat="45.6357774" lon="9.3635912"><ele>211.0</ele><time>2026-03-29T09:58:11.815Z</time></trkpt><trkpt lat="45.635994" lon="9.363642"><ele>211.0</ele><time>2026-03-29T09:58:12.818Z</time></trkpt><trkpt lat="45.6362096" lon="9.3636688"><ele>211.0</ele><time>2026-03-29T09:58:13.818Z</time></trkpt><trkpt lat="45.6364297" lon="9.3637058"><ele>211.0</ele><time>2026-03-29T09:58:14.819Z</time></trkpt><trkpt lat="45.636646" lon="9.3637594"><ele>211.0</ele><time>2026-03-29T09:58:15.817Z</time></trkpt><trkpt lat="45.6368613" lon="9.3638211"><ele>211.0</ele><time>2026-03-29T09:58:16.818Z</time></trkpt><trkpt lat="45.6370751" lon="9.3638959"><ele>211.33333333333331</ele><time>2026-03-29T09:58:17.825Z</time></trkpt><trkpt lat="45.6372799" lon="9.3639624"><ele>211.66666666666669</ele><time>2026-03-29T09:58:18.821Z</time></trkpt><trkpt lat="45.6374905" lon="9.3640406"><ele>212.0</ele><time>2026-03-29T09:58:19.825Z</time></trkpt><trkpt lat="45.6377017" lon="9.3640872"><ele>212.0</ele><time>2026-03-29T09:58:20.821Z</time></trkpt><trkpt lat="45.6379075" lon="9.3641502"><ele>212.0</ele><time>2026-03-29T09:58:21.819Z</time></trkpt><trkpt lat="45.638129" lon="9.364229"><ele>212.0</ele><time>2026-03-29T09:58:22.821Z</time></trkpt><trkpt lat="45.6383525" lon="9.3643107"><ele>212.0</ele><time>2026-03-29T09:58:23.823Z</time></trkpt><trkpt lat="45.6385699" lon="9.3643767"><ele>212.0</ele><time>2026-03-29T09:58:24.825Z</time></trkpt><trkpt lat="45.638795" lon="9.3644318"><ele>211.66666666666669</ele><time>2026-03-29T09:58:25.821Z</time></trkpt><trkpt lat="45.6390072" lon="9.3645017"><ele>211.33333333333331</ele><time>2026-03-29T09:58:26.819Z</time></trkpt><trkpt lat="45.639216" lon="9.3645809"><ele>211.0</ele><time>2026-03-29T09:58:27.824Z</time></trkpt><trkpt lat="45.6394258" lon="9.3646529"><ele>211.0</ele><time>2026-03-29T09:58:28.825Z</time></trkpt><trkpt lat="45.6396333" lon="9.3647227"><ele>211.0</ele><time>2026-03-29T09:58:29.819Z</time></trkpt><trkpt lat="45.6398496" lon="9.3647781"><ele>211.0</ele><time>2026-03-29T09:58:30.845Z</time></trkpt><trkpt lat="45.6400539" lon="9.3648677"><ele>211.0</ele><time>2026-03-29T09:58:31.824Z</time></trkpt><trkpt lat="45.640249" lon="9.364937"><ele>211.0</ele><time>2026-03-29T09:58:32.822Z</time></trkpt><trkpt lat="45.6404524" lon="9.3649977"><ele>211.0</ele><time>2026-03-29T09:58:33.843Z</time></trkpt><trkpt lat="45.6406338" lon="9.3650522"><ele>211.33333333333331</ele><time>2026-03-29T09:58:34.818Z</time></trkpt><trkpt lat="45.6408015" lon="9.3651083"><ele>211.66666666666669</ele><time>2026-03-29T09:58:35.822Z</time></trkpt><trkpt lat="45.6409811" lon="9.3651909"><ele>212.0</ele><time>2026-03-29T09:58:36.826Z</time></trkpt><trkpt lat="45.6411464" lon="9.3652617"><ele>213.0</ele><time>2026-03-29T09:58:37.843Z</time></trkpt><trkpt lat="45.6413296" lon="9.3653293"><ele>214.0</ele><time>2026-03-29T09:58:38.817Z</time></trkpt><trkpt lat="45.6414923" lon="9.3654082"><ele>215.0</ele><time>2026-03-29T09:58:39.822Z</time></trkpt><trkpt lat="45.6416344" lon="9.3654734"><ele>214.75</ele><time>2026-03-29T09:58:40.824Z</time></trkpt><trkpt lat="45.6417645" lon="9.3655358"><ele>214.5</ele><time>2026-03-29T09:58:41.824Z</time></trkpt><trkpt lat="45.641903" lon="9.3655935"><ele>214.25</ele><time>2026-03-29T09:58:42.822Z</time></trkpt><trkpt lat="45.6420294" lon="9.365662"><ele>214.0</ele><time>2026-03-29T09:58:43.824Z</time></trkpt><trkpt lat="45.6421894" lon="9.3657076"><ele>214.5</ele><time>2026-03-29T09:58:44.828Z</time></trkpt><trkpt lat="45.6423264" lon="9.3657545"><ele>215.0</ele><time>2026-03-29T09:58:45.811Z</time></trkpt><trkpt lat="45.6424566" lon="9.3658245"><ele>215.5</ele><time>2026-03-29T09:58:46.819Z</time></trkpt><trkpt lat="45.6425898" lon="9.365864"><ele>216.0</ele><time>2026-03-29T09:58:47.817Z</time></trkpt><trkpt lat="45.6427072" lon="9.3659261"><ele>216.0</ele><time>2026-03-29T09:58:48.815Z</time></trkpt><trkpt lat="45.6428252" lon="9.3660014"><ele>216.0</ele><time>2026-03-29T09:58:49.837Z</time></trkpt><trkpt lat="45.6429246" lon="9.3661116"><ele>216.0</ele><time>2026-03-29T09:58:50.81Z</time></trkpt><trkpt lat="45.6429871" lon="9.3662313"><ele>216.0</ele><time>2026-03-29T09:58:51.811Z</time></trkpt><trkpt lat="45.6430284" lon="9.3663922"><ele>214.75</ele><time>2026-03-29T09:58:52.815Z</time></trkpt><trkpt lat="45.6430662" lon="9.3665605"><ele>213.5</ele><time>2026-03-29T09:58:53.813Z</time></trkpt><trkpt lat="45.6430392" lon="9.3667499"><ele>212.25</ele><time>2026-03-29T09:58:54.815Z</time></trkpt><trkpt lat="45.6429837" lon="9.3669234"><ele>211.0</ele><time>2026-03-29T09:58:55.835Z</time></trkpt><trkpt lat="45.6428961" lon="9.3670787"><ele>211.5</ele><time>2026-03-29T09:58:56.81Z</time></trkpt><trkpt lat="45.6427955" lon="9.3671893"><ele>212.0</ele><time>2026-03-29T09:58:57.807Z</time></trkpt><trkpt lat="45.6426744" lon="9.3672373"><ele>212.5</ele><time>2026-03-29T09:58:58.811Z</time></trkpt><trkpt lat="45.6425584" lon="9.3672214"><ele>213.0</ele><time>2026-03-29T09:58:59.805Z</time></trkpt><trkpt lat="45.6424527" lon="9.3671903"><ele>213.66666666666666</ele><time>2026-03-29T09:59:00.802Z</time></trkpt><trkpt lat="45.6423654" lon="9.3671413"><ele>214.33333333333331</ele><time>2026-03-29T09:59:01.808Z</time></trkpt><trkpt lat="45.6423153" lon="9.3670477"><ele>215.0</ele><time>2026-03-29T09:59:02.812Z</time></trkpt><trkpt lat="45.6422914" lon="9.3669443"><ele>215.66666666666666</ele><time>2026-03-29T09:59:03.815Z</time></trkpt><trkpt lat="45.6422767" lon="9.3668443"><ele>216.33333333333331</ele><time>2026-03-29T09:59:04.82Z</time></trkpt><trkpt lat="45.6422607" lon="9.3666923"><ele>217.0</ele><time>2026-03-29T09:59:05.818Z</time></trkpt><trkpt lat="45.6422501" lon="9.3665043"><ele>216.66666666666666</ele><time>2026-03-29T09:59:06.814Z</time></trkpt><trkpt lat="45.6422468" lon="9.3662767"><ele>216.33333333333331</ele><time>2026-03-29T09:59:07.813Z</time></trkpt><trkpt lat="45.6422349" lon="9.366032"><ele>216.0</ele><time>2026-03-29T09:59:08.819Z</time></trkpt><trkpt lat="45.6422482" lon="9.3657251"><ele>216.0</ele><time>2026-03-29T09:59:09.821Z</time></trkpt><trkpt lat="45.6422452" lon="9.3654747"><ele>216.0</ele><time>2026-03-29T09:59:10.821Z</time></trkpt><trkpt lat="45.6422237" lon="9.3652528"><ele>216.0</ele><time>2026-03-29T09:59:11.818Z</time></trkpt><trkpt lat="45.6421979" lon="9.3650295"><ele>216.0</ele><time>2026-03-29T09:59:12.823Z</time></trkpt><trkpt lat="45.642203" lon="9.3648228"><ele>216.0</ele><time>2026-03-29T09:59:13.819Z</time></trkpt><trkpt lat="45.6421941" lon="9.3645856"><ele>216.0</ele><time>2026-03-29T09:59:14.82Z</time></trkpt><trkpt lat="45.6421683" lon="9.364351"><ele>216.66666666666669</ele><time>2026-03-29T09:59:15.826Z</time></trkpt><trkpt lat="45.6421486" lon="9.3641152"><ele>217.33333333333334</ele><time>2026-03-29T09:59:16.828Z</time></trkpt><trkpt lat="45.6421201" lon="9.363872"><ele>218.0</ele><time>2026-03-29T09:59:17.826Z</time></trkpt><trkpt lat="45.6420959" lon="9.3636362"><ele>216.66666666666669</ele><time>2026-03-29T09:59:18.826Z</time></trkpt><trkpt lat="45.6420633" lon="9.3634011"><ele>215.33333333333331</ele><time>2026-03-29T09:59:19.825Z</time></trkpt><trkpt lat="45.6420266" lon="9.3631555"><ele>214.0</ele><time>2026-03-29T09:59:20.826Z</time></trkpt><trkpt lat="45.6419688" lon="9.362919"><ele>214.33333333333331</ele><time>2026-03-29T09:59:21.827Z</time></trkpt><trkpt lat="45.6419109" lon="9.3626868"><ele>214.66666666666669</ele><time>2026-03-29T09:59:22.827Z</time></trkpt><trkpt lat="45.6418402" lon="9.3624435"><ele>215.0</ele><time>2026-03-29T09:59:23.827Z</time></trkpt><trkpt lat="45.6417695" lon="9.3622055"><ele>215.0</ele><time>2026-03-29T09:59:24.821Z</time></trkpt><trkpt lat="45.6416938" lon="9.3619639"><ele>215.0</ele><time>2026-03-29T09:59:25.817Z</time></trkpt><trkpt lat="45.6416117" lon="9.3617221"><ele>215.0</ele><time>2026-03-29T09:59:26.824Z</time></trkpt><trkpt lat="45.6415097" lon="9.3614791"><ele>214.0</ele><time>2026-03-29T09:59:27.819Z</time></trkpt><trkpt lat="45.6413971" lon="9.3612474"><ele>213.0</ele><time>2026-03-29T09:59:28.819Z</time></trkpt><trkpt lat="45.6412831" lon="9.361007"><ele>212.0</ele><time>2026-03-29T09:59:29.823Z</time></trkpt><trkpt lat="45.6411582" lon="9.3607743"><ele>212.0</ele><time>2026-03-29T09:59:30.822Z</time></trkpt><trkpt lat="45.6409983" lon="9.3605322"><ele>212.0</ele><time>2026-03-29T09:59:31.825Z</time></trkpt><trkpt lat="45.6408419" lon="9.3602924"><ele>212.0</ele><time>2026-03-29T09:59:32.821Z</time></trkpt><trkpt lat="45.6407147" lon="9.3600546"><ele>212.0</ele><time>2026-03-29T09:59:33.822Z</time></trkpt><trkpt lat="45.6405939" lon="9.3598172"><ele>212.0</ele><time>2026-03-29T09:59:34.824Z</time></trkpt><trkpt lat="45.640461" lon="9.359553"><ele>212.0</ele><time>2026-03-29T09:59:35.819Z</time></trkpt><trkpt lat="45.6403224" lon="9.3593066"><ele>212.0</ele><time>2026-03-29T09:59:36.819Z</time></trkpt><trkpt lat="45.6401842" lon="9.3590795"><ele>212.0</ele><time>2026-03-29T09:59:37.825Z</time></trkpt><trkpt lat="45.6400384" lon="9.3588489"><ele>212.0</ele><time>2026-03-29T09:59:38.825Z</time></trkpt><trkpt lat="45.6399036" lon="9.3585978"><ele>212.0</ele><time>2026-03-29T09:59:39.825Z</time></trkpt><trkpt lat="45.6397779" lon="9.3583554"><ele>212.0</ele><time>2026-03-29T09:59:40.829Z</time></trkpt><trkpt lat="45.6396614" lon="9.3581121"><ele>211.66666666666669</ele><time>2026-03-29T09:59:41.818Z</time></trkpt><trkpt lat="45.6395286" lon="9.357881"><ele>211.33333333333331</ele><time>2026-03-29T09:59:42.824Z</time></trkpt><trkpt lat="45.6394008" lon="9.3576354"><ele>211.0</ele><time>2026-03-29T09:59:43.814Z</time></trkpt><trkpt lat="45.6392793" lon="9.3573957"><ele>211.0</ele><time>2026-03-29T09:59:44.827Z</time></trkpt><trkpt lat="45.6391549" lon="9.3571388"><ele>211.0</ele><time>2026-03-29T09:59:45.817Z</time></trkpt><trkpt lat="45.6390279" lon="9.356881"><ele>211.0</ele><time>2026-03-29T09:59:46.823Z</time></trkpt><trkpt lat="45.6389213" lon="9.3566747"><ele>211.0</ele><time>2026-03-29T09:59:47.819Z</time></trkpt><trkpt lat="45.638823" lon="9.3564286"><ele>211.0</ele><time>2026-03-29T09:59:48.816Z</time></trkpt><trkpt lat="45.63874" lon="9.3561489"><ele>211.0</ele><time>2026-03-29T09:59:49.812Z</time></trkpt><trkpt lat="45.6386845" lon="9.355871"><ele>211.0</ele><time>2026-03-29T09:59:50.819Z</time></trkpt><trkpt lat="45.6386636" lon="9.3555792"><ele>211.0</ele><time>2026-03-29T09:59:51.811Z</time></trkpt><trkpt lat="45.6386432" lon="9.3552795"><ele>211.0</ele><time>2026-03-29T09:59:52.82Z</time></trkpt><trkpt lat="45.638632" lon="9.3549733"><ele>211.0</ele><time>2026-03-29T09:59:53.809Z</time></trkpt><trkpt lat="45.63863" lon="9.3546868"><ele>211.0</ele><time>2026-03-29T09:59:54.812Z</time></trkpt><trkpt lat="45.6386478" lon="9.3543878"><ele>211.0</ele><time>2026-03-29T09:59:55.813Z</time></trkpt><trkpt lat="45.6386851" lon="9.3540872"><ele>210.66666666666666</ele><time>2026-03-29T09:59:56.821Z</time></trkpt><trkpt lat="45.6387154" lon="9.3538046"><ele>210.33333333333331</ele><time>2026-03-29T09:59:57.82Z</time></trkpt><trkpt lat="45.6387516" lon="9.3535139"><ele>210.0</ele><time>2026-03-29T09:59:58.833Z</time></trkpt><trkpt lat="45.6387546" lon="9.3532152"><ele>209.66666666666669</ele><time>2026-03-29T09:59:59.827Z</time></trkpt><trkpt lat="45.6387749" lon="9.3529165"><ele>209.33333333333334</ele><time>2026-03-29T10:00:00.829Z</time></trkpt><trkpt lat="45.638802" lon="9.3526108"><ele>209.0</ele><time>2026-03-29T10:00:01.826Z</time></trkpt><trkpt lat="45.6388365" lon="9.3522859"><ele>209.0</ele><time>2026-03-29T10:00:02.817Z</time></trkpt><trkpt lat="45.638871" lon="9.3519767"><ele>209.0</ele><time>2026-03-29T10:00:03.815Z</time></trkpt><trkpt lat="45.6389032" lon="9.3516736"><ele>209.0</ele><time>2026-03-29T10:00:04.822Z</time></trkpt><trkpt lat="45.6389303" lon="9.3513847"><ele>208.66666666666669</ele><time>2026-03-29T10:00:05.814Z</time></trkpt><trkpt lat="45.6389582" lon="9.3510669"><ele>208.33333333333331</ele><time>2026-03-29T10:00:06.82Z</time></trkpt><trkpt lat="45.6389744" lon="9.3507512"><ele>208.0</ele><time>2026-03-29T10:00:07.815Z</time></trkpt><trkpt lat="45.6390057" lon="9.3504986"><ele>207.66666666666666</ele><time>2026-03-29T10:00:08.811Z</time></trkpt><trkpt lat="45.6390235" lon="9.3502384"><ele>207.33333333333331</ele><time>2026-03-29T10:00:09.809Z</time></trkpt><trkpt lat="45.6390373" lon="9.3500031"><ele>207.0</ele><time>2026-03-29T10:00:10.805Z</time></trkpt><trkpt lat="45.6390685" lon="9.349769"><ele>206.33333333333331</ele><time>2026-03-29T10:00:11.805Z</time></trkpt><trkpt lat="45.6391055" lon="9.3495639"><ele>205.66666666666666</ele><time>2026-03-29T10:00:12.809Z</time></trkpt><trkpt lat="45.6391329" lon="9.349321"><ele>205.0</ele><time>2026-03-29T10:00:13.811Z</time></trkpt><trkpt lat="45.6391675" lon="9.3491017"><ele>205.0</ele><time>2026-03-29T10:00:14.811Z</time></trkpt><trkpt lat="45.6391927" lon="9.3488935"><ele>205.0</ele><time>2026-03-29T10:00:15.819Z</time></trkpt><trkpt lat="45.6392199" lon="9.3486573"><ele>205.0</ele><time>2026-03-29T10:00:16.819Z</time></trkpt><trkpt lat="45.6392583" lon="9.3484517"><ele>205.0</ele><time>2026-03-29T10:00:17.812Z</time></trkpt><trkpt lat="45.639294" lon="9.3482567"><ele>205.0</ele><time>2026-03-29T10:00:18.812Z</time></trkpt><trkpt lat="45.6393212" lon="9.3480492"><ele>205.0</ele><time>2026-03-29T10:00:19.814Z</time></trkpt><trkpt lat="45.6393404" lon="9.3478354"><ele>205.0</ele><time>2026-03-29T10:00:20.809Z</time></trkpt><trkpt lat="45.6393665" lon="9.3476163"><ele>203.66666666666666</ele><time>2026-03-29T10:00:21.818Z</time></trkpt><trkpt lat="45.6393977" lon="9.3473741"><ele>202.33333333333331</ele><time>2026-03-29T10:00:22.815Z</time></trkpt><trkpt lat="45.6394271" lon="9.34713"><ele>201.0</ele><time>2026-03-29T10:00:23.817Z</time></trkpt><trkpt lat="45.63946" lon="9.346887"><ele>202.33333333333331</ele><time>2026-03-29T10:00:24.822Z</time></trkpt><trkpt lat="45.6394925" lon="9.346636"><ele>203.66666666666666</ele><time>2026-03-29T10:00:25.82Z</time></trkpt><trkpt lat="45.6395218" lon="9.3463878"><ele>205.0</ele><time>2026-03-29T10:00:26.814Z</time></trkpt><trkpt lat="45.6395453" lon="9.3461336"><ele>205.0</ele><time>2026-03-29T10:00:27.816Z</time></trkpt><trkpt lat="45.6395747" lon="9.3458938"><ele>205.0</ele><time>2026-03-29T10:00:28.817Z</time></trkpt><trkpt lat="45.6396051" lon="9.345668"><ele>205.0</ele><time>2026-03-29T10:00:29.814Z</time></trkpt><trkpt lat="45.6396306" lon="9.3454499"><ele>205.0</ele><time>2026-03-29T10:00:30.842Z</time></trkpt><trkpt lat="45.6396498" lon="9.3452275"><ele>205.0</ele><time>2026-03-29T10:00:31.813Z</time></trkpt><trkpt lat="45.6396854" lon="9.3450243"><ele>205.0</ele><time>2026-03-29T10:00:32.811Z</time></trkpt><trkpt lat="45.6397201" lon="9.3448534"><ele>205.0</ele><time>2026-03-29T10:00:33.808Z</time></trkpt><trkpt lat="45.6397444" lon="9.3446884"><ele>204.99999999999997</ele><time>2026-03-29T10:00:34.814Z</time></trkpt><trkpt lat="45.6397695" lon="9.3445305"><ele>205.0</ele><time>2026-03-29T10:00:35.814Z</time></trkpt><trkpt lat="45.6397909" lon="9.3443956"><ele>205.0</ele><time>2026-03-29T10:00:36.816Z</time></trkpt><trkpt lat="45.6398275" lon="9.3442868"><ele>205.0</ele><time>2026-03-29T10:00:37.835Z</time></trkpt><trkpt lat="45.6398752" lon="9.3442067"><ele>204.99999999999997</ele><time>2026-03-29T10:00:38.809Z</time></trkpt><trkpt lat="45.639925" lon="9.3441275"><ele>205.0</ele><time>2026-03-29T10:00:40.816Z</time></trkpt><trkpt lat="45.6399952" lon="9.3440397"><ele>204.99999999999997</ele><time>2026-03-29T10:00:42.814Z</time></trkpt><trkpt lat="45.6400609" lon="9.3440111"><ele>205.0</ele><time>2026-03-29T10:00:43.812Z</time></trkpt><trkpt lat="45.6401336" lon="9.3439976"><ele>205.0</ele><time>2026-03-29T10:00:44.815Z</time></trkpt><trkpt lat="45.640221" lon="9.344028"><ele>205.0</ele><time>2026-03-29T10:00:45.81Z</time></trkpt><trkpt lat="45.6403115" lon="9.3440855"><ele>204.99999999999997</ele><time>2026-03-29T10:00:46.815Z</time></trkpt><trkpt lat="45.6404037" lon="9.3441682"><ele>205.0</ele><time>2026-03-29T10:00:47.82Z</time></trkpt><trkpt lat="45.6404918" lon="9.3442608"><ele>205.4</ele><time>2026-03-29T10:00:48.815Z</time></trkpt><trkpt lat="45.6405744" lon="9.3443578"><ele>205.8</ele><time>2026-03-29T10:00:49.815Z</time></trkpt><trkpt lat="45.6406551" lon="9.3444651"><ele>206.2</ele><time>2026-03-29T10:00:50.814Z</time></trkpt><trkpt lat="45.6407381" lon="9.3445682"><ele>206.6</ele><time>2026-03-29T10:00:51.818Z</time></trkpt><trkpt lat="45.6408263" lon="9.3446712"><ele>207.0</ele><time>2026-03-29T10:00:52.822Z</time></trkpt><trkpt lat="45.6409279" lon="9.3447851"><ele>207.66666666666669</ele><time>2026-03-29T10:00:53.819Z</time></trkpt><trkpt lat="45.641034" lon="9.3449164"><ele>208.33333333333334</ele><time>2026-03-29T10:00:54.812Z</time></trkpt><trkpt lat="45.6411647" lon="9.3450769"><ele>209.0</ele><time>2026-03-29T10:00:55.817Z</time></trkpt><trkpt lat="45.6413021" lon="9.3452931"><ele>209.0</ele><time>2026-03-29T10:00:56.815Z</time></trkpt><trkpt lat="45.6414394" lon="9.3454937"><ele>209.0</ele><time>2026-03-29T10:00:57.818Z</time></trkpt><trkpt lat="45.6415781" lon="9.3456714"><ele>209.0</ele><time>2026-03-29T10:00:58.818Z</time></trkpt><trkpt lat="45.6417032" lon="9.3458438"><ele>208.75</ele><time>2026-03-29T10:00:59.814Z</time></trkpt><trkpt lat="45.6418093" lon="9.3459956"><ele>208.5</ele><time>2026-03-29T10:01:00.811Z</time></trkpt><trkpt lat="45.6419038" lon="9.3461059"><ele>208.25</ele><time>2026-03-29T10:01:01.815Z</time></trkpt><trkpt lat="45.6419934" lon="9.3461812"><ele>208.0</ele><time>2026-03-29T10:01:02.81Z</time></trkpt><trkpt lat="45.6420771" lon="9.3462694"><ele>209.0</ele><time>2026-03-29T10:01:03.807Z</time></trkpt><trkpt lat="45.6421496" lon="9.3463918"><ele>210.0</ele><time>2026-03-29T10:01:04.815Z</time></trkpt><trkpt lat="45.6422446" lon="9.3465102"><ele>211.0</ele><time>2026-03-29T10:01:05.807Z</time></trkpt><trkpt lat="45.642313" lon="9.3466554"><ele>212.0</ele><time>2026-03-29T10:01:06.817Z</time></trkpt><trkpt lat="45.6423906" lon="9.3468112"><ele>212.0</ele><time>2026-03-29T10:01:07.812Z</time></trkpt><trkpt lat="45.642468" lon="9.3469804"><ele>212.0</ele><time>2026-03-29T10:01:08.817Z</time></trkpt><trkpt lat="45.6425424" lon="9.3471744"><ele>212.0</ele><time>2026-03-29T10:01:09.821Z</time></trkpt><trkpt lat="45.6425934" lon="9.3473942"><ele>212.33333333333334</ele><time>2026-03-29T10:01:10.822Z</time></trkpt><trkpt lat="45.6426548" lon="9.3475869"><ele>212.66666666666669</ele><time>2026-03-29T10:01:11.814Z</time></trkpt><trkpt lat="45.6427303" lon="9.3477799"><ele>213.0</ele><time>2026-03-29T10:01:12.817Z</time></trkpt><trkpt lat="45.6428215" lon="9.3479746"><ele>212.33333333333331</ele><time>2026-03-29T10:01:13.81Z</time></trkpt><trkpt lat="45.6428982" lon="9.3481772"><ele>211.66666666666666</ele><time>2026-03-29T10:01:14.82Z</time></trkpt><trkpt lat="45.6429754" lon="9.3483672"><ele>211.0</ele><time>2026-03-29T10:01:15.813Z</time></trkpt><trkpt lat="45.6430528" lon="9.3485606"><ele>211.0</ele><time>2026-03-29T10:01:16.813Z</time></trkpt><trkpt lat="45.6431419" lon="9.3487646"><ele>211.0</ele><time>2026-03-29T10:01:17.813Z</time></trkpt><trkpt lat="45.6432291" lon="9.3489707"><ele>211.0</ele><time>2026-03-29T10:01:18.813Z</time></trkpt><trkpt lat="45.6433077" lon="9.3491804"><ele>210.66666666666666</ele><time>2026-03-29T10:01:19.814Z</time></trkpt><trkpt lat="45.6433877" lon="9.3493808"><ele>210.33333333333331</ele><time>2026-03-29T10:01:20.814Z</time></trkpt><trkpt lat="45.6434844" lon="9.3495672"><ele>210.0</ele><time>2026-03-29T10:01:21.817Z</time></trkpt><trkpt lat="45.643586" lon="9.3497708"><ele>211.0</ele><time>2026-03-29T10:01:22.836Z</time></trkpt><trkpt lat="45.6436944" lon="9.3499671"><ele>212.0</ele><time>2026-03-29T10:01:23.81Z</time></trkpt><trkpt lat="45.6438081" lon="9.3501624"><ele>213.0</ele><time>2026-03-29T10:01:24.841Z</time></trkpt><trkpt lat="45.6439336" lon="9.3503401"><ele>213.0</ele><time>2026-03-29T10:01:25.822Z</time></trkpt><trkpt lat="45.6440455" lon="9.3505312"><ele>213.0</ele><time>2026-03-29T10:01:26.819Z</time></trkpt><trkpt lat="45.6441596" lon="9.3507257"><ele>213.0</ele><time>2026-03-29T10:01:27.816Z</time></trkpt><trkpt lat="45.6442758" lon="9.3509171"><ele>213.33333333333331</ele><time>2026-03-29T10:01:28.833Z</time></trkpt><trkpt lat="45.6444029" lon="9.3510912"><ele>213.66666666666666</ele><time>2026-03-29T10:01:29.814Z</time></trkpt><trkpt lat="45.644524" lon="9.3512691"><ele>214.0</ele><time>2026-03-29T10:01:30.822Z</time></trkpt><trkpt lat="45.6446684" lon="9.3514219"><ele>214.0</ele><time>2026-03-29T10:01:31.817Z</time></trkpt><trkpt lat="45.6447989" lon="9.3515862"><ele>214.0</ele><time>2026-03-29T10:01:32.81Z</time></trkpt><trkpt lat="45.6449386" lon="9.3517498"><ele>214.0</ele><time>2026-03-29T10:01:33.821Z</time></trkpt><trkpt lat="45.645104" lon="9.3519152"><ele>214.0</ele><time>2026-03-29T10:01:34.817Z</time></trkpt><trkpt lat="45.6452678" lon="9.3520429"><ele>214.0</ele><time>2026-03-29T10:01:35.813Z</time></trkpt><trkpt lat="45.6454253" lon="9.3522057"><ele>214.0</ele><time>2026-03-29T10:01:36.817Z</time></trkpt><trkpt lat="45.6455854" lon="9.352342"><ele>214.0</ele><time>2026-03-29T10:01:37.818Z</time></trkpt><trkpt lat="45.6457335" lon="9.3525093"><ele>214.0</ele><time>2026-03-29T10:01:38.817Z</time></trkpt><trkpt lat="45.6458903" lon="9.3526762"><ele>214.0</ele><time>2026-03-29T10:01:39.834Z</time></trkpt><trkpt lat="45.64605" lon="9.3528495"><ele>213.66666666666666</ele><time>2026-03-29T10:01:40.82Z</time></trkpt><trkpt lat="45.6462147" lon="9.3530256"><ele>213.33333333333331</ele><time>2026-03-29T10:01:41.821Z</time></trkpt><trkpt lat="45.6463788" lon="9.3531839"><ele>213.0</ele><time>2026-03-29T10:01:42.825Z</time></trkpt><trkpt lat="45.6465437" lon="9.3533527"><ele>213.66666666666669</ele><time>2026-03-29T10:01:43.819Z</time></trkpt><trkpt lat="45.6466873" lon="9.35355"><ele>214.33333333333334</ele><time>2026-03-29T10:01:44.826Z</time></trkpt><trkpt lat="45.6468378" lon="9.3537079"><ele>215.0</ele><time>2026-03-29T10:01:45.819Z</time></trkpt><trkpt lat="45.6470027" lon="9.353872"><ele>215.66666666666669</ele><time>2026-03-29T10:01:46.824Z</time></trkpt><trkpt lat="45.6471552" lon="9.3540426"><ele>216.33333333333331</ele><time>2026-03-29T10:01:47.826Z</time></trkpt><trkpt lat="45.647309" lon="9.3542138"><ele>217.0</ele><time>2026-03-29T10:01:48.812Z</time></trkpt><trkpt lat="45.6474488" lon="9.3544146"><ele>217.0</ele><time>2026-03-29T10:01:49.821Z</time></trkpt><trkpt lat="45.6475951" lon="9.3546193"><ele>217.0</ele><time>2026-03-29T10:01:50.815Z</time></trkpt><trkpt lat="45.6477541" lon="9.3547718"><ele>217.0</ele><time>2026-03-29T10:01:51.816Z</time></trkpt><trkpt lat="45.6478948" lon="9.3549475"><ele>217.0</ele><time>2026-03-29T10:01:52.816Z</time></trkpt><trkpt lat="45.648046" lon="9.3550999"><ele>217.0</ele><time>2026-03-29T10:01:53.817Z</time></trkpt><trkpt lat="45.6481937" lon="9.3552791"><ele>217.0</ele><time>2026-03-29T10:01:54.839Z</time></trkpt><trkpt lat="45.6483178" lon="9.3554732"><ele>216.66666666666666</ele><time>2026-03-29T10:01:55.819Z</time></trkpt><trkpt lat="45.6484166" lon="9.3556798"><ele>216.33333333333331</ele><time>2026-03-29T10:01:56.817Z</time></trkpt><trkpt lat="45.6485266" lon="9.3558756"><ele>216.0</ele><time>2026-03-29T10:01:57.821Z</time></trkpt><trkpt lat="45.6486263" lon="9.35609"><ele>216.0</ele><time>2026-03-29T10:01:58.831Z</time></trkpt><trkpt lat="45.6487436" lon="9.3563231"><ele>216.0</ele><time>2026-03-29T10:01:59.825Z</time></trkpt><trkpt lat="45.6488444" lon="9.3565561"><ele>216.0</ele><time>2026-03-29T10:02:00.828Z</time></trkpt><trkpt lat="45.6489306" lon="9.3567887"><ele>216.0</ele><time>2026-03-29T10:02:01.82Z</time></trkpt><trkpt lat="45.6490107" lon="9.3569786"><ele>216.0</ele><time>2026-03-29T10:02:02.826Z</time></trkpt><trkpt lat="45.6490871" lon="9.3571162"><ele>216.0</ele><time>2026-03-29T10:02:03.844Z</time></trkpt><trkpt lat="45.6491333" lon="9.357251"><ele>216.0</ele><time>2026-03-29T10:02:04.823Z</time></trkpt><trkpt lat="45.6491659" lon="9.3573563"><ele>216.0</ele><time>2026-03-29T10:02:05.826Z</time></trkpt><trkpt lat="45.6492246" lon="9.3574704"><ele>216.00000000000003</ele><time>2026-03-29T10:02:06.823Z</time></trkpt><trkpt lat="45.6492716" lon="9.3575971"><ele>216.00000000000003</ele><time>2026-03-29T10:02:07.821Z</time></trkpt><trkpt lat="45.6493156" lon="9.3577394"><ele>216.0</ele><time>2026-03-29T10:02:08.82Z</time></trkpt><trkpt lat="45.6493655" lon="9.3578806"><ele>216.0</ele><time>2026-03-29T10:02:09.825Z</time></trkpt><trkpt lat="45.6494157" lon="9.35803"><ele>216.5</ele><time>2026-03-29T10:02:10.823Z</time></trkpt><trkpt lat="45.6494695" lon="9.3581867"><ele>217.0</ele><time>2026-03-29T10:02:11.824Z</time></trkpt><trkpt lat="45.6495201" lon="9.3583461"><ele>217.5</ele><time>2026-03-29T10:02:12.823Z</time></trkpt><trkpt lat="45.6495673" lon="9.3584879"><ele>218.0</ele><time>2026-03-29T10:02:13.826Z</time></trkpt><trkpt lat="45.6496112" lon="9.3586121"><ele>218.00000000000003</ele><time>2026-03-29T10:02:14.83Z</time></trkpt><trkpt lat="45.6496518" lon="9.3587268"><ele>218.0</ele><time>2026-03-29T10:02:15.825Z</time></trkpt><trkpt lat="45.6496837" lon="9.3588254"><ele>218.0</ele><time>2026-03-29T10:02:16.825Z</time></trkpt><trkpt lat="45.6497132" lon="9.3589073"><ele>218.0</ele><time>2026-03-29T10:02:17.833Z</time></trkpt><trkpt lat="45.6497588" lon="9.3590641"><ele>218.00000000000003</ele><time>2026-03-29T10:02:19.82Z</time></trkpt><trkpt lat="45.6497859" lon="9.3591586"><ele>218.0</ele><time>2026-03-29T10:02:20.829Z</time></trkpt><trkpt lat="45.6498154" lon="9.3592529"><ele>218.00000000000003</ele><time>2026-03-29T10:02:21.824Z</time></trkpt><trkpt lat="45.6498481" lon="9.359351"><ele>218.0</ele><time>2026-03-29T10:02:22.839Z</time></trkpt><trkpt lat="45.6498804" lon="9.3594529"><ele>218.0</ele><time>2026-03-29T10:02:23.828Z</time></trkpt><trkpt lat="45.6499108" lon="9.3595456"><ele>218.0</ele><time>2026-03-29T10:02:24.842Z</time></trkpt><trkpt lat="45.6499784" lon="9.3596838"><ele>218.00000000000003</ele><time>2026-03-29T10:02:26.823Z</time></trkpt><trkpt lat="45.650067" lon="9.3597244"><ele>218.0</ele><time>2026-03-29T10:02:28.826Z</time></trkpt><trkpt lat="45.6501746" lon="9.3597194"><ele>218.4</ele><time>2026-03-29T10:02:30.829Z</time></trkpt><trkpt lat="45.6502978" lon="9.3598018"><ele>218.8</ele><time>2026-03-29T10:02:32.82Z</time></trkpt><trkpt lat="45.6503714" lon="9.359865"><ele>219.2</ele><time>2026-03-29T10:02:33.822Z</time></trkpt><trkpt lat="45.6504498" lon="9.359937"><ele>219.6</ele><time>2026-03-29T10:02:34.822Z</time></trkpt><trkpt lat="45.6505387" lon="9.3600149"><ele>220.0</ele><time>2026-03-29T10:02:35.823Z</time></trkpt><trkpt lat="45.6506369" lon="9.3600935"><ele>220.0</ele><time>2026-03-29T10:02:36.821Z</time></trkpt><trkpt lat="45.6507429" lon="9.3601697"><ele>220.0</ele><time>2026-03-29T10:02:37.822Z</time></trkpt><trkpt lat="45.6508439" lon="9.3602464"><ele>220.0</ele><time>2026-03-29T10:02:38.825Z</time></trkpt><trkpt lat="45.6509391" lon="9.3603308"><ele>220.0</ele><time>2026-03-29T10:02:39.822Z</time></trkpt><trkpt lat="45.6510305" lon="9.3604204"><ele>219.99999999999997</ele><time>2026-03-29T10:02:40.831Z</time></trkpt><trkpt lat="45.651111" lon="9.3604957"><ele>220.0</ele><time>2026-03-29T10:02:41.831Z</time></trkpt><trkpt lat="45.651181" lon="9.3605705"><ele>220.0</ele><time>2026-03-29T10:02:42.81Z</time></trkpt><trkpt lat="45.6512469" lon="9.3606631"><ele>220.0</ele><time>2026-03-29T10:02:44.823Z</time></trkpt><trkpt lat="45.651299" lon="9.3607302"><ele>219.99999999999997</ele><time>2026-03-29T10:02:53.825Z</time></trkpt><trkpt lat="45.6513506" lon="9.3608004"><ele>220.0</ele><time>2026-03-29T10:02:54.82Z</time></trkpt><trkpt lat="45.6514086" lon="9.3608822"><ele>220.0</ele><time>2026-03-29T10:02:55.827Z</time></trkpt><trkpt lat="45.6514752" lon="9.3609782"><ele>220.0</ele><time>2026-03-29T10:02:56.816Z</time></trkpt><trkpt lat="45.6515402" lon="9.3610848"><ele>220.0</ele><time>2026-03-29T10:02:57.822Z</time></trkpt><trkpt lat="45.6516113" lon="9.3611966"><ele>220.0</ele><time>2026-03-29T10:02:58.842Z</time></trkpt><trkpt lat="45.6516684" lon="9.3613135"><ele>220.0</ele><time>2026-03-29T10:02:59.822Z</time></trkpt><trkpt lat="45.6517182" lon="9.3614381"><ele>220.2</ele><time>2026-03-29T10:03:00.822Z</time></trkpt><trkpt lat="45.6517661" lon="9.3615566"><ele>220.4</ele><time>2026-03-29T10:03:01.819Z</time></trkpt><trkpt lat="45.6518096" lon="9.3616468"><ele>220.60000000000002</ele><time>2026-03-29T10:03:02.809Z</time></trkpt><trkpt lat="45.6518699" lon="9.3617621"><ele>220.8</ele><time>2026-03-29T10:03:04.815Z</time></trkpt><trkpt lat="45.6518089" lon="9.3618684"><ele>221.0</ele><time>2026-03-29T10:03:07.82Z</time></trkpt><trkpt lat="45.651737" lon="9.3619336"><ele>221.0</ele><time>2026-03-29T10:03:09.824Z</time></trkpt><trkpt lat="45.6516493" lon="9.3620074"><ele>221.00000000000003</ele><time>2026-03-29T10:03:11.819Z</time></trkpt><trkpt lat="45.6515639" lon="9.3620596"><ele>221.00000000000003</ele><time>2026-03-29T10:03:13.831Z</time></trkpt><trkpt lat="45.6514696" lon="9.3621422"><ele>221.0</ele><time>2026-03-29T10:03:15.819Z</time></trkpt><trkpt lat="45.6514143" lon="9.3621991"><ele>221.0</ele><time>2026-03-29T10:03:16.823Z</time></trkpt><trkpt lat="45.6513465" lon="9.3622785"><ele>221.16666666666669</ele><time>2026-03-29T10:03:17.822Z</time></trkpt><trkpt lat="45.6512677" lon="9.3623501"><ele>221.33333333333334</ele><time>2026-03-29T10:03:18.82Z</time></trkpt><trkpt lat="45.6511861" lon="9.3624092"><ele>221.5</ele><time>2026-03-29T10:03:19.823Z</time></trkpt><trkpt lat="45.651113" lon="9.3624559"><ele>221.66666666666669</ele><time>2026-03-29T10:03:20.824Z</time></trkpt><trkpt lat="45.6510462" lon="9.3624954"><ele>221.83333333333334</ele><time>2026-03-29T10:03:21.823Z</time></trkpt><trkpt lat="45.6509481" lon="9.3625398"><ele>222.0</ele><time>2026-03-29T10:03:23.816Z</time></trkpt><trkpt lat="45.6508779" lon="9.3625462"><ele>222.33333333333334</ele><time>2026-03-29T10:03:25.824Z</time></trkpt><trkpt lat="45.6508415" lon="9.36262"><ele>222.66666666666669</ele><time>2026-03-29T10:03:28.857Z</time></trkpt><trkpt lat="45.6508956" lon="9.3626718"><ele>223.0</ele><time>2026-03-29T10:03:30.855Z</time></trkpt><trkpt lat="45.6509563" lon="9.3627323"><ele>223.33333333333334</ele><time>2026-03-29T10:03:32.829Z</time></trkpt><trkpt lat="45.6510127" lon="9.3628245"><ele>223.66666666666669</ele><time>2026-03-29T10:03:34.836Z</time></trkpt><trkpt lat="45.6510775" lon="9.3629384"><ele>224.0</ele><time>2026-03-29T10:03:36.832Z</time></trkpt><trkpt lat="45.6511596" lon="9.3630638"><ele>223.2</ele><time>2026-03-29T10:03:38.826Z</time></trkpt><trkpt lat="45.6512091" lon="9.3631265"><ele>222.39999999999998</ele><time>2026-03-29T10:03:39.825Z</time></trkpt><trkpt lat="45.6512857" lon="9.3632332"><ele>221.6</ele><time>2026-03-29T10:03:41.828Z</time></trkpt><trkpt lat="45.6513493" lon="9.3633383"><ele>220.8</ele><time>2026-03-29T10:03:43.83Z</time></trkpt><trkpt lat="45.6514005" lon="9.3634439"><ele>220.0</ele><time>2026-03-29T10:03:45.84Z</time></trkpt><trkpt lat="45.6514756" lon="9.3635802"><ele>220.0</ele><time>2026-03-29T10:03:47.831Z</time></trkpt><trkpt lat="45.6515555" lon="9.36371"><ele>220.0</ele><time>2026-03-29T10:03:49.842Z</time></trkpt><trkpt lat="45.651643" lon="9.36385"><ele>220.0</ele><time>2026-03-29T10:03:51.822Z</time></trkpt><trkpt lat="45.651697" lon="9.363931"><ele>220.0</ele><time>2026-03-29T10:03:52.822Z</time></trkpt><trkpt lat="45.6517485" lon="9.3640243"><ele>220.0</ele><time>2026-03-29T10:03:53.82Z</time></trkpt><trkpt lat="45.6518001" lon="9.3641164"><ele>219.99999999999997</ele><time>2026-03-29T10:03:54.819Z</time></trkpt><trkpt lat="45.6518533" lon="9.3641942"><ele>220.0</ele><time>2026-03-29T10:03:55.82Z</time></trkpt><trkpt lat="45.6519065" lon="9.3642725"><ele>220.0</ele><time>2026-03-29T10:03:56.821Z</time></trkpt><trkpt lat="45.6519599" lon="9.3643471"><ele>220.0</ele><time>2026-03-29T10:03:57.821Z</time></trkpt><trkpt lat="45.652011" lon="9.3644169"><ele>219.99999999999997</ele><time>2026-03-29T10:03:58.824Z</time></trkpt><trkpt lat="45.6520611" lon="9.3644809"><ele>220.0</ele><time>2026-03-29T10:03:59.837Z</time></trkpt><trkpt lat="45.6521492" lon="9.3645899"><ele>219.49999999999997</ele><time>2026-03-29T10:04:01.834Z</time></trkpt><trkpt lat="45.652229" lon="9.3646894"><ele>219.0</ele><time>2026-03-29T10:04:03.834Z</time></trkpt><trkpt lat="45.6522989" lon="9.3647836"><ele>218.5</ele><time>2026-03-29T10:04:05.84Z</time></trkpt><trkpt lat="45.6523482" lon="9.3648612"><ele>218.0</ele><time>2026-03-29T10:04:38.85Z</time></trkpt><trkpt lat="45.6524249" lon="9.3649376"><ele>217.49999999999997</ele><time>2026-03-29T10:04:41.842Z</time></trkpt><trkpt lat="45.6524826" lon="9.3650084"><ele>217.0</ele><time>2026-03-29T10:04:43.845Z</time></trkpt><trkpt lat="45.6525375" lon="9.3650718"><ele>216.99999999999997</ele><time>2026-03-29T10:04:45.843Z</time></trkpt><trkpt lat="45.6526023" lon="9.3651858"><ele>217.0</ele><time>2026-03-29T10:04:47.836Z</time></trkpt><trkpt lat="45.6526461" lon="9.3652536"><ele>217.0</ele><time>2026-03-29T10:04:48.834Z</time></trkpt><trkpt lat="45.6526985" lon="9.3653243"><ele>217.0</ele><time>2026-03-29T10:04:49.837Z</time></trkpt><trkpt lat="45.6527523" lon="9.3653947"><ele>216.99999999999997</ele><time>2026-03-29T10:04:50.834Z</time></trkpt><trkpt lat="45.6528008" lon="9.3654775"><ele>217.0</ele><time>2026-03-29T10:04:51.829Z</time></trkpt><trkpt lat="45.6528549" lon="9.3655659"><ele>216.83333333333331</ele><time>2026-03-29T10:04:52.836Z</time></trkpt><trkpt lat="45.6529122" lon="9.3656544"><ele>216.66666666666666</ele><time>2026-03-29T10:04:53.835Z</time></trkpt><trkpt lat="45.6529678" lon="9.3657467"><ele>216.5</ele><time>2026-03-29T10:04:54.835Z</time></trkpt><trkpt lat="45.6530244" lon="9.3658368"><ele>216.33333333333331</ele><time>2026-03-29T10:04:55.837Z</time></trkpt><trkpt lat="45.6530818" lon="9.3659209"><ele>216.16666666666666</ele><time>2026-03-29T10:04:56.838Z</time></trkpt><trkpt lat="45.653139" lon="9.3660047"><ele>216.0</ele><time>2026-03-29T10:04:57.838Z</time></trkpt><trkpt lat="45.6531915" lon="9.3660906"><ele>216.0</ele><time>2026-03-29T10:04:58.839Z</time></trkpt><trkpt lat="45.6532455" lon="9.3661659"><ele>216.00000000000003</ele><time>2026-03-29T10:04:59.839Z</time></trkpt><trkpt lat="45.6533262" lon="9.3662834"><ele>216.00000000000003</ele><time>2026-03-29T10:05:01.837Z</time></trkpt><trkpt lat="45.6534008" lon="9.3664133"><ele>216.0</ele><time>2026-03-29T10:05:03.835Z</time></trkpt><trkpt lat="45.6534681" lon="9.3665455"><ele>216.0</ele><time>2026-03-29T10:05:05.837Z</time></trkpt><trkpt lat="45.6535142" lon="9.3666462"><ele>216.5</ele><time>2026-03-29T10:05:07.833Z</time></trkpt><trkpt lat="45.6535557" lon="9.3667428"><ele>217.0</ele><time>2026-03-29T10:05:10.84Z</time></trkpt><trkpt lat="45.6536041" lon="9.3668861"><ele>217.5</ele><time>2026-03-29T10:05:12.837Z</time></trkpt><trkpt lat="45.6536353" lon="9.3669851"><ele>218.0</ele><time>2026-03-29T10:05:13.838Z</time></trkpt><trkpt lat="45.6536672" lon="9.3670936"><ele>218.5</ele><time>2026-03-29T10:05:14.842Z</time></trkpt><trkpt lat="45.6536964" lon="9.3672025"><ele>219.0</ele><time>2026-03-29T10:05:15.839Z</time></trkpt><trkpt lat="45.6537184" lon="9.3673129"><ele>219.33333333333334</ele><time>2026-03-29T10:05:16.838Z</time></trkpt><trkpt lat="45.6537417" lon="9.3674254"><ele>219.66666666666669</ele><time>2026-03-29T10:05:17.841Z</time></trkpt><trkpt lat="45.653766" lon="9.3675411"><ele>220.0</ele><time>2026-03-29T10:05:18.841Z</time></trkpt><trkpt lat="45.6537904" lon="9.3676542"><ele>220.33333333333334</ele><time>2026-03-29T10:05:19.842Z</time></trkpt><trkpt lat="45.6538121" lon="9.3677754"><ele>220.66666666666669</ele><time>2026-03-29T10:05:20.844Z</time></trkpt><trkpt lat="45.6538329" lon="9.3679024"><ele>221.0</ele><time>2026-03-29T10:05:21.843Z</time></trkpt><trkpt lat="45.6538549" lon="9.3680345"><ele>221.16666666666669</ele><time>2026-03-29T10:05:22.849Z</time></trkpt><trkpt lat="45.6538815" lon="9.3681577"><ele>221.33333333333334</ele><time>2026-03-29T10:05:23.846Z</time></trkpt><trkpt lat="45.653908" lon="9.3682688"><ele>221.5</ele><time>2026-03-29T10:05:24.843Z</time></trkpt><trkpt lat="45.6539281" lon="9.3683683"><ele>221.66666666666669</ele><time>2026-03-29T10:05:25.843Z</time></trkpt><trkpt lat="45.6539514" lon="9.3684564"><ele>221.83333333333334</ele><time>2026-03-29T10:05:26.837Z</time></trkpt><trkpt lat="45.6539812" lon="9.3685489"><ele>222.0</ele><time>2026-03-29T10:05:27.84Z</time></trkpt><trkpt lat="45.6540055" lon="9.3686439"><ele>222.0</ele><time>2026-03-29T10:05:28.842Z</time></trkpt><trkpt lat="45.654015" lon="9.3688073"><ele>222.0</ele><time>2026-03-29T10:05:30.834Z</time></trkpt><trkpt lat="45.6539296" lon="9.3689357"><ele>222.0</ele><time>2026-03-29T10:05:32.835Z</time></trkpt><trkpt lat="45.6538582" lon="9.3689735"><ele>222.0</ele><time>2026-03-29T10:05:33.835Z</time></trkpt><trkpt lat="45.6537801" lon="9.3689881"><ele>222.0</ele><time>2026-03-29T10:05:34.838Z</time></trkpt><trkpt lat="45.6537021" lon="9.3689969"><ele>222.33333333333334</ele><time>2026-03-29T10:05:35.831Z</time></trkpt><trkpt lat="45.6536246" lon="9.3689968"><ele>222.66666666666669</ele><time>2026-03-29T10:05:36.837Z</time></trkpt><trkpt lat="45.6535514" lon="9.3690111"><ele>223.0</ele><time>2026-03-29T10:05:37.841Z</time></trkpt><trkpt lat="45.6534867" lon="9.3690782"><ele>223.33333333333334</ele><time>2026-03-29T10:05:38.828Z</time></trkpt><trkpt lat="45.6534513" lon="9.3691675"><ele>223.66666666666669</ele><time>2026-03-29T10:05:39.838Z</time></trkpt><trkpt lat="45.6534412" lon="9.3692753"><ele>224.0</ele><time>2026-03-29T10:05:40.855Z</time></trkpt><trkpt lat="45.6534361" lon="9.369386"><ele>222.79999999999998</ele><time>2026-03-29T10:05:41.838Z</time></trkpt><trkpt lat="45.6534221" lon="9.3694839"><ele>221.59999999999997</ele><time>2026-03-29T10:05:42.835Z</time></trkpt><trkpt lat="45.653372" lon="9.3696297"><ele>220.4</ele><time>2026-03-29T10:05:44.826Z</time></trkpt><trkpt lat="45.6533076" lon="9.3697633"><ele>219.2</ele><time>2026-03-29T10:05:46.823Z</time></trkpt><trkpt lat="45.6532437" lon="9.3698807"><ele>218.0</ele><time>2026-03-29T10:05:48.834Z</time></trkpt><trkpt lat="45.6532033" lon="9.3699773"><ele>217.8</ele><time>2026-03-29T10:05:50.834Z</time></trkpt><trkpt lat="45.6532534" lon="9.3701352"><ele>217.60000000000002</ele><time>2026-03-29T10:05:52.836Z</time></trkpt><trkpt lat="45.6533251" lon="9.3701697"><ele>217.39999999999998</ele><time>2026-03-29T10:05:53.836Z</time></trkpt><trkpt lat="45.6534186" lon="9.3701598"><ele>217.2</ele><time>2026-03-29T10:05:54.839Z</time></trkpt><trkpt lat="45.6535218" lon="9.3701459"><ele>217.0</ele><time>2026-03-29T10:05:55.838Z</time></trkpt><trkpt lat="45.6536414" lon="9.370158"><ele>217.75</ele><time>2026-03-29T10:05:56.83Z</time></trkpt><trkpt lat="45.653769" lon="9.3701894"><ele>218.5</ele><time>2026-03-29T10:05:57.832Z</time></trkpt><trkpt lat="45.6538988" lon="9.37025"><ele>219.25</ele><time>2026-03-29T10:05:58.844Z</time></trkpt><trkpt lat="45.6540269" lon="9.3703188"><ele>220.0</ele><time>2026-03-29T10:05:59.842Z</time></trkpt><trkpt lat="45.6541617" lon="9.370392"><ele>220.0</ele><time>2026-03-29T10:06:00.838Z</time></trkpt><trkpt lat="45.6542951" lon="9.3704526"><ele>220.0</ele><time>2026-03-29T10:06:01.843Z</time></trkpt><trkpt lat="45.6544212" lon="9.3705139"><ele>220.0</ele><time>2026-03-29T10:06:02.837Z</time></trkpt><trkpt lat="45.6545374" lon="9.370584"><ele>220.0</ele><time>2026-03-29T10:06:03.835Z</time></trkpt><trkpt lat="45.6546443" lon="9.3706784"><ele>220.75</ele><time>2026-03-29T10:06:04.84Z</time></trkpt><trkpt lat="45.654738" lon="9.3707971"><ele>221.5</ele><time>2026-03-29T10:06:05.838Z</time></trkpt><trkpt lat="45.6548151" lon="9.3709581"><ele>222.25</ele><time>2026-03-29T10:06:06.834Z</time></trkpt><trkpt lat="45.6548837" lon="9.371141"><ele>223.0</ele><time>2026-03-29T10:06:07.838Z</time></trkpt><trkpt lat="45.6549298" lon="9.3714038"><ele>223.0</ele><time>2026-03-29T10:06:08.827Z</time></trkpt><trkpt lat="45.6550133" lon="9.3716214"><ele>223.0</ele><time>2026-03-29T10:06:09.829Z</time></trkpt><trkpt lat="45.6550996" lon="9.3718189"><ele>223.0</ele><time>2026-03-29T10:06:10.829Z</time></trkpt><trkpt lat="45.6551785" lon="9.3720096"><ele>222.0</ele><time>2026-03-29T10:06:11.814Z</time></trkpt><trkpt lat="45.6552672" lon="9.3722069"><ele>221.0</ele><time>2026-03-29T10:06:12.818Z</time></trkpt><trkpt lat="45.6553237" lon="9.3724103"><ele>220.0</ele><time>2026-03-29T10:06:13.82Z</time></trkpt><trkpt lat="45.6554054" lon="9.3726109"><ele>222.33333333333331</ele><time>2026-03-29T10:06:14.824Z</time></trkpt><trkpt lat="45.6554759" lon="9.3728078"><ele>224.66666666666669</ele><time>2026-03-29T10:06:15.829Z</time></trkpt><trkpt lat="45.6555587" lon="9.3730006"><ele>227.0</ele><time>2026-03-29T10:06:16.844Z</time></trkpt><trkpt lat="45.6556344" lon="9.3732185"><ele>227.0</ele><time>2026-03-29T10:06:17.829Z</time></trkpt><trkpt lat="45.6557144" lon="9.3734517"><ele>227.0</ele><time>2026-03-29T10:06:18.834Z</time></trkpt><trkpt lat="45.6557969" lon="9.3736932"><ele>227.0</ele><time>2026-03-29T10:06:19.832Z</time></trkpt><trkpt lat="45.6558905" lon="9.3739163"><ele>226.0</ele><time>2026-03-29T10:06:20.835Z</time></trkpt><trkpt lat="45.6559694" lon="9.3741198"><ele>225.0</ele><time>2026-03-29T10:06:21.839Z</time></trkpt><trkpt lat="45.6560563" lon="9.3743362"><ele>224.0</ele><time>2026-03-29T10:06:22.839Z</time></trkpt><trkpt lat="45.6561494" lon="9.3745532"><ele>226.33333333333334</ele><time>2026-03-29T10:06:23.833Z</time></trkpt><trkpt lat="45.6562328" lon="9.3747791"><ele>228.66666666666669</ele><time>2026-03-29T10:06:24.831Z</time></trkpt><trkpt lat="45.6563194" lon="9.3749868"><ele>231.0</ele><time>2026-03-29T10:06:25.84Z</time></trkpt><trkpt lat="45.6564106" lon="9.3752057"><ele>231.0</ele><time>2026-03-29T10:06:26.837Z</time></trkpt><trkpt lat="45.6564966" lon="9.3753846"><ele>231.0</ele><time>2026-03-29T10:06:27.835Z</time></trkpt><trkpt lat="45.6565789" lon="9.3755385"><ele>231.0</ele><time>2026-03-29T10:06:28.837Z</time></trkpt><trkpt lat="45.6566471" lon="9.3756668"><ele>231.0</ele><time>2026-03-29T10:06:29.839Z</time></trkpt><trkpt lat="45.6567151" lon="9.3757893"><ele>231.8</ele><time>2026-03-29T10:06:30.837Z</time></trkpt><trkpt lat="45.6567782" lon="9.375906"><ele>232.60000000000002</ele><time>2026-03-29T10:06:31.837Z</time></trkpt><trkpt lat="45.6568316" lon="9.376026"><ele>233.4</ele><time>2026-03-29T10:06:32.829Z</time></trkpt><trkpt lat="45.6568856" lon="9.3761495"><ele>234.2</ele><time>2026-03-29T10:06:33.831Z</time></trkpt><trkpt lat="45.6569586" lon="9.376285"><ele>235.0</ele><time>2026-03-29T10:06:34.837Z</time></trkpt><trkpt lat="45.6570269" lon="9.3764154"><ele>232.75</ele><time>2026-03-29T10:06:35.83Z</time></trkpt><trkpt lat="45.6570945" lon="9.3765525"><ele>230.5</ele><time>2026-03-29T10:06:36.835Z</time></trkpt><trkpt lat="45.6571627" lon="9.3766907"><ele>228.25</ele><time>2026-03-29T10:06:37.834Z</time></trkpt><trkpt lat="45.6572326" lon="9.3768165"><ele>226.0</ele><time>2026-03-29T10:06:38.835Z</time></trkpt><trkpt lat="45.6573134" lon="9.3769354"><ele>226.0</ele><time>2026-03-29T10:06:39.833Z</time></trkpt><trkpt lat="45.6574026" lon="9.3770492"><ele>226.0</ele><time>2026-03-29T10:06:40.833Z</time></trkpt><trkpt lat="45.6574999" lon="9.3771646"><ele>226.0</ele><time>2026-03-29T10:06:41.835Z</time></trkpt><trkpt lat="45.6576002" lon="9.3772812"><ele>226.0</ele><time>2026-03-29T10:06:42.835Z</time></trkpt><trkpt lat="45.6577107" lon="9.3773966"><ele>229.66666666666666</ele><time>2026-03-29T10:06:43.838Z</time></trkpt><trkpt lat="45.6578332" lon="9.3775206"><ele>233.33333333333331</ele><time>2026-03-29T10:06:44.833Z</time></trkpt><trkpt lat="45.6579691" lon="9.3776993"><ele>237.0</ele><time>2026-03-29T10:06:45.833Z</time></trkpt><trkpt lat="45.6580979" lon="9.3779103"><ele>235.33333333333331</ele><time>2026-03-29T10:06:46.832Z</time></trkpt><trkpt lat="45.6582316" lon="9.3781236"><ele>233.66666666666666</ele><time>2026-03-29T10:06:47.839Z</time></trkpt><trkpt lat="45.6583732" lon="9.3783372"><ele>232.0</ele><time>2026-03-29T10:06:48.832Z</time></trkpt><trkpt lat="45.6585145" lon="9.3785746"><ele>233.0</ele><time>2026-03-29T10:06:49.835Z</time></trkpt><trkpt lat="45.6586598" lon="9.3788209"><ele>234.0</ele><time>2026-03-29T10:06:50.844Z</time></trkpt><trkpt lat="45.6588025" lon="9.3790437"><ele>235.0</ele><time>2026-03-29T10:06:51.833Z</time></trkpt><trkpt lat="45.6589475" lon="9.3792788"><ele>235.0</ele><time>2026-03-29T10:06:52.838Z</time></trkpt><trkpt lat="45.6591002" lon="9.379487"><ele>235.0</ele><time>2026-03-29T10:06:53.839Z</time></trkpt><trkpt lat="45.659232" lon="9.3797028"><ele>235.0</ele><time>2026-03-29T10:06:54.837Z</time></trkpt><trkpt lat="45.6593838" lon="9.3799157"><ele>234.33333333333331</ele><time>2026-03-29T10:06:55.842Z</time></trkpt><trkpt lat="45.6595294" lon="9.3801255"><ele>233.66666666666669</ele><time>2026-03-29T10:06:56.836Z</time></trkpt><trkpt lat="45.659677" lon="9.3803272"><ele>233.0</ele><time>2026-03-29T10:06:57.837Z</time></trkpt><trkpt lat="45.6598192" lon="9.3805308"><ele>233.0</ele><time>2026-03-29T10:06:58.838Z</time></trkpt><trkpt lat="45.6599606" lon="9.3807327"><ele>233.0</ele><time>2026-03-29T10:06:59.837Z</time></trkpt><trkpt lat="45.6601067" lon="9.3809339"><ele>233.0</ele><time>2026-03-29T10:07:00.835Z</time></trkpt><trkpt lat="45.6602554" lon="9.3811365"><ele>234.0</ele><time>2026-03-29T10:07:01.838Z</time></trkpt><trkpt lat="45.6604014" lon="9.3813397"><ele>235.0</ele><time>2026-03-29T10:07:02.841Z</time></trkpt><trkpt lat="45.6605367" lon="9.3815388"><ele>236.0</ele><time>2026-03-29T10:07:03.833Z</time></trkpt><trkpt lat="45.6606984" lon="9.3817111"><ele>236.0</ele><time>2026-03-29T10:07:04.84Z</time></trkpt><trkpt lat="45.6608595" lon="9.3818833"><ele>236.0</ele><time>2026-03-29T10:07:05.844Z</time></trkpt><trkpt lat="45.6610191" lon="9.3820524"><ele>236.0</ele><time>2026-03-29T10:07:06.842Z</time></trkpt><trkpt lat="45.6611676" lon="9.3822228"><ele>233.66666666666669</ele><time>2026-03-29T10:07:07.842Z</time></trkpt><trkpt lat="45.6613191" lon="9.3823725"><ele>231.33333333333331</ele><time>2026-03-29T10:07:08.839Z</time></trkpt><trkpt lat="45.6614755" lon="9.3825143"><ele>229.0</ele><time>2026-03-29T10:07:09.838Z</time></trkpt><trkpt lat="45.6616116" lon="9.3826823"><ele>229.0</ele><time>2026-03-29T10:07:10.844Z</time></trkpt><trkpt lat="45.6617492" lon="9.3828431"><ele>229.0</ele><time>2026-03-29T10:07:11.837Z</time></trkpt><trkpt lat="45.6618935" lon="9.3829932"><ele>229.0</ele><time>2026-03-29T10:07:12.844Z</time></trkpt><trkpt lat="45.6620342" lon="9.3831546"><ele>229.0</ele><time>2026-03-29T10:07:13.838Z</time></trkpt><trkpt lat="45.6621582" lon="9.3832929"><ele>229.0</ele><time>2026-03-29T10:07:14.841Z</time></trkpt><trkpt lat="45.6622746" lon="9.3834268"><ele>229.0</ele><time>2026-03-29T10:07:15.832Z</time></trkpt><trkpt lat="45.662415" lon="9.3835486"><ele>229.0</ele><time>2026-03-29T10:07:16.83Z</time></trkpt><trkpt lat="45.6625469" lon="9.3836765"><ele>229.0</ele><time>2026-03-29T10:07:17.83Z</time></trkpt><trkpt lat="45.6626753" lon="9.3838026"><ele>229.0</ele><time>2026-03-29T10:07:18.834Z</time></trkpt><trkpt lat="45.6628003" lon="9.3839281"><ele>229.5</ele><time>2026-03-29T10:07:19.833Z</time></trkpt><trkpt lat="45.6629166" lon="9.3840422"><ele>230.0</ele><time>2026-03-29T10:07:20.833Z</time></trkpt><trkpt lat="45.6630443" lon="9.3841428"><ele>230.5</ele><time>2026-03-29T10:07:21.836Z</time></trkpt><trkpt lat="45.663166" lon="9.3842454"><ele>231.0</ele><time>2026-03-29T10:07:22.831Z</time></trkpt><trkpt lat="45.6632773" lon="9.3843295"><ele>231.0</ele><time>2026-03-29T10:07:23.833Z</time></trkpt><trkpt lat="45.6633769" lon="9.3844196"><ele>231.00000000000003</ele><time>2026-03-29T10:07:24.828Z</time></trkpt><trkpt lat="45.663483" lon="9.3845097"><ele>231.00000000000003</ele><time>2026-03-29T10:07:25.837Z</time></trkpt><trkpt lat="45.6635594" lon="9.3846114"><ele>231.0</ele><time>2026-03-29T10:07:26.83Z</time></trkpt><trkpt lat="45.6636432" lon="9.3846864"><ele>231.0</ele><time>2026-03-29T10:07:27.831Z</time></trkpt><trkpt lat="45.663718" lon="9.3847459"><ele>230.85714285714286</ele><time>2026-03-29T10:07:28.836Z</time></trkpt><trkpt lat="45.663774" lon="9.3847929"><ele>230.71428571428572</ele><time>2026-03-29T10:07:29.839Z</time></trkpt><trkpt lat="45.663827" lon="9.3848436"><ele>230.57142857142856</ele><time>2026-03-29T10:07:30.834Z</time></trkpt><trkpt lat="45.663881" lon="9.3848923"><ele>230.42857142857142</ele><time>2026-03-29T10:07:31.834Z</time></trkpt><trkpt lat="45.6639409" lon="9.384943"><ele>230.28571428571428</ele><time>2026-03-29T10:07:32.829Z</time></trkpt><trkpt lat="45.664016" lon="9.3849974"><ele>230.1428571428571</ele><time>2026-03-29T10:07:33.833Z</time></trkpt><trkpt lat="45.6641052" lon="9.3850605"><ele>229.99999999999997</ele><time>2026-03-29T10:07:34.823Z</time></trkpt><trkpt lat="45.6642041" lon="9.385137"><ele>230.0</ele><time>2026-03-29T10:07:35.83Z</time></trkpt><trkpt lat="45.6643177" lon="9.3852338"><ele>230.0</ele><time>2026-03-29T10:07:36.832Z</time></trkpt><trkpt lat="45.6644416" lon="9.3853408"><ele>230.0</ele><time>2026-03-29T10:07:37.836Z</time></trkpt><trkpt lat="45.664568" lon="9.3854708"><ele>230.0</ele><time>2026-03-29T10:07:38.83Z</time></trkpt><trkpt lat="45.6646981" lon="9.3855751"><ele>230.33333333333334</ele><time>2026-03-29T10:07:39.828Z</time></trkpt><trkpt lat="45.6648401" lon="9.3857014"><ele>230.66666666666669</ele><time>2026-03-29T10:07:40.839Z</time></trkpt><trkpt lat="45.665001" lon="9.3858187"><ele>231.0</ele><time>2026-03-29T10:07:41.835Z</time></trkpt><trkpt lat="45.6651618" lon="9.3859456"><ele>232.0</ele><time>2026-03-29T10:07:42.833Z</time></trkpt><trkpt lat="45.6653257" lon="9.3860718"><ele>233.0</ele><time>2026-03-29T10:07:43.833Z</time></trkpt><trkpt lat="45.6655117" lon="9.3861952"><ele>234.0</ele><time>2026-03-29T10:07:44.838Z</time></trkpt><trkpt lat="45.6656913" lon="9.3863255"><ele>233.33333333333331</ele><time>2026-03-29T10:07:45.834Z</time></trkpt><trkpt lat="45.665861" lon="9.3864608"><ele>232.66666666666666</ele><time>2026-03-29T10:07:46.839Z</time></trkpt><trkpt lat="45.6660317" lon="9.3865857"><ele>232.0</ele><time>2026-03-29T10:07:47.838Z</time></trkpt><trkpt lat="45.6661908" lon="9.3867311"><ele>232.0</ele><time>2026-03-29T10:07:48.831Z</time></trkpt><trkpt lat="45.6663578" lon="9.386863"><ele>232.0</ele><time>2026-03-29T10:07:49.839Z</time></trkpt><trkpt lat="45.6665193" lon="9.3869852"><ele>232.0</ele><time>2026-03-29T10:07:50.836Z</time></trkpt><trkpt lat="45.6666812" lon="9.387118"><ele>232.66666666666666</ele><time>2026-03-29T10:07:51.839Z</time></trkpt><trkpt lat="45.6668468" lon="9.3872642"><ele>233.33333333333331</ele><time>2026-03-29T10:07:52.835Z</time></trkpt><trkpt lat="45.6670054" lon="9.3874039"><ele>234.0</ele><time>2026-03-29T10:07:53.837Z</time></trkpt><trkpt lat="45.6671604" lon="9.387539"><ele>234.0</ele><time>2026-03-29T10:07:54.834Z</time></trkpt><trkpt lat="45.6673111" lon="9.3876672"><ele>234.0</ele><time>2026-03-29T10:07:55.846Z</time></trkpt><trkpt lat="45.6674539" lon="9.3877915"><ele>234.0</ele><time>2026-03-29T10:07:56.835Z</time></trkpt><trkpt lat="45.6676051" lon="9.3878932"><ele>234.0</ele><time>2026-03-29T10:07:57.842Z</time></trkpt><trkpt lat="45.6677544" lon="9.3879882"><ele>234.0</ele><time>2026-03-29T10:07:58.839Z</time></trkpt><trkpt lat="45.6679114" lon="9.3881285"><ele>234.0</ele><time>2026-03-29T10:07:59.837Z</time></trkpt><trkpt lat="45.6680885" lon="9.3882385"><ele>234.66666666666669</ele><time>2026-03-29T10:08:00.838Z</time></trkpt><trkpt lat="45.6682693" lon="9.3883336"><ele>235.33333333333334</ele><time>2026-03-29T10:08:01.839Z</time></trkpt><trkpt lat="45.6684192" lon="9.3884436"><ele>236.0</ele><time>2026-03-29T10:08:02.837Z</time></trkpt><trkpt lat="45.6685706" lon="9.3885502"><ele>235.75</ele><time>2026-03-29T10:08:03.835Z</time></trkpt><trkpt lat="45.6687034" lon="9.3886696"><ele>235.5</ele><time>2026-03-29T10:08:04.843Z</time></trkpt><trkpt lat="45.6688178" lon="9.3887795"><ele>235.25</ele><time>2026-03-29T10:08:05.828Z</time></trkpt><trkpt lat="45.6689428" lon="9.3888664"><ele>235.0</ele><time>2026-03-29T10:08:06.835Z</time></trkpt><trkpt lat="45.6690621" lon="9.388978"><ele>235.75</ele><time>2026-03-29T10:08:07.834Z</time></trkpt><trkpt lat="45.6691813" lon="9.3890905"><ele>236.5</ele><time>2026-03-29T10:08:08.835Z</time></trkpt><trkpt lat="45.6693083" lon="9.3891963"><ele>237.25</ele><time>2026-03-29T10:08:09.834Z</time></trkpt><trkpt lat="45.6694392" lon="9.3893199"><ele>238.0</ele><time>2026-03-29T10:08:10.836Z</time></trkpt><trkpt lat="45.6695637" lon="9.3894196"><ele>238.33333333333331</ele><time>2026-03-29T10:08:11.836Z</time></trkpt><trkpt lat="45.6697187" lon="9.389512"><ele>238.66666666666669</ele><time>2026-03-29T10:08:12.839Z</time></trkpt><trkpt lat="45.669881" lon="9.3896114"><ele>239.0</ele><time>2026-03-29T10:08:13.838Z</time></trkpt><trkpt lat="45.6700447" lon="9.3896995"><ele>239.33333333333334</ele><time>2026-03-29T10:08:14.836Z</time></trkpt><trkpt lat="45.6702112" lon="9.3898047"><ele>239.66666666666669</ele><time>2026-03-29T10:08:15.834Z</time></trkpt><trkpt lat="45.6703735" lon="9.3898934"><ele>240.0</ele><time>2026-03-29T10:08:16.833Z</time></trkpt><trkpt lat="45.6705141" lon="9.3899561"><ele>240.0</ele><time>2026-03-29T10:08:17.832Z</time></trkpt><trkpt lat="45.6706414" lon="9.3900471"><ele>240.0</ele><time>2026-03-29T10:08:18.827Z</time></trkpt><trkpt lat="45.6707549" lon="9.3901329"><ele>240.0</ele><time>2026-03-29T10:08:19.835Z</time></trkpt><trkpt lat="45.6708667" lon="9.3902097"><ele>240.0</ele><time>2026-03-29T10:08:20.836Z</time></trkpt><trkpt lat="45.671013" lon="9.3902698"><ele>240.0</ele><time>2026-03-29T10:08:21.839Z</time></trkpt><trkpt lat="45.6711349" lon="9.3903337"><ele>240.0</ele><time>2026-03-29T10:08:22.834Z</time></trkpt><trkpt lat="45.6712497" lon="9.3904166"><ele>240.0</ele><time>2026-03-29T10:08:23.831Z</time></trkpt><trkpt lat="45.671335" lon="9.3905242"><ele>240.0</ele><time>2026-03-29T10:08:24.828Z</time></trkpt><trkpt lat="45.671422" lon="9.3906505"><ele>240.25</ele><time>2026-03-29T10:08:25.839Z</time></trkpt><trkpt lat="45.6715178" lon="9.3907718"><ele>240.5</ele><time>2026-03-29T10:08:26.838Z</time></trkpt><trkpt lat="45.6716186" lon="9.3909042"><ele>240.75</ele><time>2026-03-29T10:08:27.832Z</time></trkpt><trkpt lat="45.6717511" lon="9.3910329"><ele>241.0</ele><time>2026-03-29T10:08:28.837Z</time></trkpt><trkpt lat="45.6718815" lon="9.3911552"><ele>241.0</ele><time>2026-03-29T10:08:29.833Z</time></trkpt><trkpt lat="45.6719849" lon="9.3913113"><ele>241.0</ele><time>2026-03-29T10:08:30.838Z</time></trkpt><trkpt lat="45.6720945" lon="9.3914476"><ele>241.0</ele><time>2026-03-29T10:08:31.842Z</time></trkpt><trkpt lat="45.67221" lon="9.3915589"><ele>241.0</ele><time>2026-03-29T10:08:32.859Z</time></trkpt><trkpt lat="45.6723105" lon="9.3916855"><ele>241.0</ele><time>2026-03-29T10:08:33.833Z</time></trkpt><trkpt lat="45.6724258" lon="9.3918043"><ele>241.0</ele><time>2026-03-29T10:08:34.831Z</time></trkpt><trkpt lat="45.6725358" lon="9.3919308"><ele>241.0</ele><time>2026-03-29T10:08:35.835Z</time></trkpt><trkpt lat="45.6726455" lon="9.3920548"><ele>241.0</ele><time>2026-03-29T10:08:36.838Z</time></trkpt><trkpt lat="45.6727627" lon="9.3921743"><ele>241.75</ele><time>2026-03-29T10:08:37.835Z</time></trkpt><trkpt lat="45.6728552" lon="9.3923022"><ele>242.5</ele><time>2026-03-29T10:08:38.833Z</time></trkpt><trkpt lat="45.6729515" lon="9.3924393"><ele>243.25</ele><time>2026-03-29T10:08:39.84Z</time></trkpt><trkpt lat="45.6730437" lon="9.3925786"><ele>244.0</ele><time>2026-03-29T10:08:40.834Z</time></trkpt><trkpt lat="45.6731418" lon="9.3927382"><ele>244.0</ele><time>2026-03-29T10:08:41.839Z</time></trkpt><trkpt lat="45.6732482" lon="9.3929064"><ele>244.0</ele><time>2026-03-29T10:08:42.837Z</time></trkpt><trkpt lat="45.6733441" lon="9.3930804"><ele>244.0</ele><time>2026-03-29T10:08:43.833Z</time></trkpt><trkpt lat="45.6734504" lon="9.3932536"><ele>244.33333333333331</ele><time>2026-03-29T10:08:44.841Z</time></trkpt><trkpt lat="45.6735608" lon="9.39341"><ele>244.66666666666669</ele><time>2026-03-29T10:08:45.837Z</time></trkpt><trkpt lat="45.6736732" lon="9.3935527"><ele>245.0</ele><time>2026-03-29T10:08:46.864Z</time></trkpt><trkpt lat="45.6737847" lon="9.3936975"><ele>245.0</ele><time>2026-03-29T10:08:47.835Z</time></trkpt><trkpt lat="45.6738935" lon="9.3938567"><ele>245.0</ele><time>2026-03-29T10:08:48.829Z</time></trkpt><trkpt lat="45.673994" lon="9.3939937"><ele>245.0</ele><time>2026-03-29T10:08:49.836Z</time></trkpt><trkpt lat="45.6741212" lon="9.3941463"><ele>245.0</ele><time>2026-03-29T10:08:50.838Z</time></trkpt><trkpt lat="45.6742672" lon="9.3943094"><ele>245.0</ele><time>2026-03-29T10:08:51.832Z</time></trkpt><trkpt lat="45.6744203" lon="9.3944878"><ele>245.0</ele><time>2026-03-29T10:08:52.837Z</time></trkpt><trkpt lat="45.6745909" lon="9.3946746"><ele>244.66666666666669</ele><time>2026-03-29T10:08:53.837Z</time></trkpt><trkpt lat="45.6747521" lon="9.394842"><ele>244.33333333333331</ele><time>2026-03-29T10:08:54.834Z</time></trkpt><trkpt lat="45.6749012" lon="9.3949794"><ele>244.0</ele><time>2026-03-29T10:08:55.839Z</time></trkpt><trkpt lat="45.6750578" lon="9.3950909"><ele>244.0</ele><time>2026-03-29T10:08:56.835Z</time></trkpt><trkpt lat="45.6752016" lon="9.3951813"><ele>244.0</ele><time>2026-03-29T10:08:57.833Z</time></trkpt><trkpt lat="45.6753438" lon="9.3952738"><ele>244.0</ele><time>2026-03-29T10:08:58.837Z</time></trkpt><trkpt lat="45.6754737" lon="9.3953583"><ele>244.6</ele><time>2026-03-29T10:08:59.841Z</time></trkpt><trkpt lat="45.6755801" lon="9.3954257"><ele>245.2</ele><time>2026-03-29T10:09:00.835Z</time></trkpt><trkpt lat="45.6756731" lon="9.3955137"><ele>245.79999999999998</ele><time>2026-03-29T10:09:01.84Z</time></trkpt><trkpt lat="45.6757537" lon="9.3955985"><ele>246.39999999999998</ele><time>2026-03-29T10:09:02.835Z</time></trkpt><trkpt lat="45.6758401" lon="9.3956621"><ele>247.0</ele><time>2026-03-29T10:09:03.834Z</time></trkpt><trkpt lat="45.6759446" lon="9.3957108"><ele>247.0</ele><time>2026-03-29T10:09:04.84Z</time></trkpt><trkpt lat="45.6760473" lon="9.3957606"><ele>247.0</ele><time>2026-03-29T10:09:05.836Z</time></trkpt><trkpt lat="45.6761552" lon="9.3957993"><ele>247.0</ele><time>2026-03-29T10:09:06.833Z</time></trkpt><trkpt lat="45.6762586" lon="9.3958402"><ele>247.0</ele><time>2026-03-29T10:09:07.838Z</time></trkpt><trkpt lat="45.6763677" lon="9.3958803"><ele>247.0</ele><time>2026-03-29T10:09:08.834Z</time></trkpt><trkpt lat="45.6764789" lon="9.3959219"><ele>247.5</ele><time>2026-03-29T10:09:09.842Z</time></trkpt><trkpt lat="45.6765917" lon="9.395967"><ele>248.0</ele><time>2026-03-29T10:09:10.844Z</time></trkpt><trkpt lat="45.6767102" lon="9.3960112"><ele>248.5</ele><time>2026-03-29T10:09:11.84Z</time></trkpt><trkpt lat="45.6768259" lon="9.3960586"><ele>249.0</ele><time>2026-03-29T10:09:12.843Z</time></trkpt><trkpt lat="45.676947" lon="9.3961021"><ele>249.0</ele><time>2026-03-29T10:09:13.843Z</time></trkpt><trkpt lat="45.6770694" lon="9.3961418"><ele>249.0</ele><time>2026-03-29T10:09:14.837Z</time></trkpt><trkpt lat="45.6771906" lon="9.396181"><ele>249.0</ele><time>2026-03-29T10:09:15.841Z</time></trkpt><trkpt lat="45.6773028" lon="9.3962216"><ele>249.0</ele><time>2026-03-29T10:09:16.85Z</time></trkpt><trkpt lat="45.6774089" lon="9.3962529"><ele>249.0</ele><time>2026-03-29T10:09:17.84Z</time></trkpt><trkpt lat="45.6775092" lon="9.3962797"><ele>248.99999999999997</ele><time>2026-03-29T10:09:18.843Z</time></trkpt><trkpt lat="45.6776045" lon="9.3963164"><ele>248.99999999999997</ele><time>2026-03-29T10:09:19.837Z</time></trkpt><trkpt lat="45.6777007" lon="9.3963517"><ele>249.0</ele><time>2026-03-29T10:09:20.838Z</time></trkpt><trkpt lat="45.6777981" lon="9.3963853"><ele>249.0</ele><time>2026-03-29T10:09:21.836Z</time></trkpt><trkpt lat="45.6778993" lon="9.396426"><ele>249.0</ele><time>2026-03-29T10:09:22.832Z</time></trkpt><trkpt lat="45.6780077" lon="9.3964689"><ele>249.0</ele><time>2026-03-29T10:09:23.835Z</time></trkpt><trkpt lat="45.6781152" lon="9.3965124"><ele>249.0</ele><time>2026-03-29T10:09:24.837Z</time></trkpt><trkpt lat="45.6782298" lon="9.3965542"><ele>249.0</ele><time>2026-03-29T10:09:25.837Z</time></trkpt><trkpt lat="45.6783563" lon="9.3965937"><ele>249.0</ele><time>2026-03-29T10:09:26.835Z</time></trkpt><trkpt lat="45.6784839" lon="9.3966401"><ele>249.0</ele><time>2026-03-29T10:09:27.835Z</time></trkpt><trkpt lat="45.6786101" lon="9.3966898"><ele>249.0</ele><time>2026-03-29T10:09:28.839Z</time></trkpt><trkpt lat="45.6787354" lon="9.3967351"><ele>249.0</ele><time>2026-03-29T10:09:29.842Z</time></trkpt><trkpt lat="45.6788515" lon="9.3967738"><ele>249.16666666666666</ele><time>2026-03-29T10:09:30.835Z</time></trkpt><trkpt lat="45.6789544" lon="9.3968038"><ele>249.33333333333331</ele><time>2026-03-29T10:09:31.835Z</time></trkpt><trkpt lat="45.6790422" lon="9.3968316"><ele>249.5</ele><time>2026-03-29T10:09:32.833Z</time></trkpt><trkpt lat="45.6791238" lon="9.3968663"><ele>249.66666666666666</ele><time>2026-03-29T10:09:33.841Z</time></trkpt><trkpt lat="45.679194" lon="9.3969065"><ele>249.83333333333331</ele><time>2026-03-29T10:09:34.843Z</time></trkpt><trkpt lat="45.6792605" lon="9.396948"><ele>250.0</ele><time>2026-03-29T10:09:35.837Z</time></trkpt><trkpt lat="45.6793228" lon="9.3970088"><ele>250.0</ele><time>2026-03-29T10:09:36.829Z</time></trkpt><trkpt lat="45.6793929" lon="9.3970884"><ele>250.0</ele><time>2026-03-29T10:09:37.835Z</time></trkpt><trkpt lat="45.6794688" lon="9.3971658"><ele>250.0</ele><time>2026-03-29T10:09:38.831Z</time></trkpt><trkpt lat="45.6795545" lon="9.3972105"><ele>250.0</ele><time>2026-03-29T10:09:39.831Z</time></trkpt><trkpt lat="45.6796503" lon="9.3972085"><ele>250.0</ele><time>2026-03-29T10:09:40.833Z</time></trkpt><trkpt lat="45.6797589" lon="9.397159"><ele>250.0</ele><time>2026-03-29T10:09:41.833Z</time></trkpt><trkpt lat="45.679866" lon="9.3971301"><ele>250.0</ele><time>2026-03-29T10:09:42.834Z</time></trkpt><trkpt lat="45.6799866" lon="9.3971341"><ele>250.0</ele><time>2026-03-29T10:09:43.833Z</time></trkpt><trkpt lat="45.680109" lon="9.397171"><ele>250.0</ele><time>2026-03-29T10:09:44.836Z</time></trkpt><trkpt lat="45.6802248" lon="9.3972293"><ele>251.0</ele><time>2026-03-29T10:09:45.832Z</time></trkpt><trkpt lat="45.6803486" lon="9.3972871"><ele>252.0</ele><time>2026-03-29T10:09:46.84Z</time></trkpt><trkpt lat="45.6804754" lon="9.3973414"><ele>253.0</ele><time>2026-03-29T10:09:47.839Z</time></trkpt><trkpt lat="45.6805997" lon="9.3973907"><ele>254.0</ele><time>2026-03-29T10:09:48.841Z</time></trkpt><trkpt lat="45.6807144" lon="9.3974377"><ele>254.0</ele><time>2026-03-29T10:09:49.837Z</time></trkpt><trkpt lat="45.6808414" lon="9.3974872"><ele>254.0</ele><time>2026-03-29T10:09:50.842Z</time></trkpt><trkpt lat="45.6809819" lon="9.397539"><ele>254.0</ele><time>2026-03-29T10:09:51.837Z</time></trkpt><trkpt lat="45.6811403" lon="9.3976229"><ele>254.0</ele><time>2026-03-29T10:09:52.846Z</time></trkpt><trkpt lat="45.6812808" lon="9.3976751"><ele>254.25</ele><time>2026-03-29T10:09:53.84Z</time></trkpt><trkpt lat="45.6814253" lon="9.3976965"><ele>254.5</ele><time>2026-03-29T10:09:54.839Z</time></trkpt><trkpt lat="45.6815494" lon="9.3977446"><ele>254.75</ele><time>2026-03-29T10:09:55.841Z</time></trkpt><trkpt lat="45.6816609" lon="9.3977866"><ele>255.0</ele><time>2026-03-29T10:09:56.837Z</time></trkpt><trkpt lat="45.6817684" lon="9.3978211"><ele>255.0</ele><time>2026-03-29T10:09:57.837Z</time></trkpt><trkpt lat="45.6818893" lon="9.3978712"><ele>255.0</ele><time>2026-03-29T10:09:58.84Z</time></trkpt><trkpt lat="45.6820193" lon="9.3979198"><ele>255.0</ele><time>2026-03-29T10:09:59.835Z</time></trkpt><trkpt lat="45.6821404" lon="9.397967"><ele>255.0</ele><time>2026-03-29T10:10:00.863Z</time></trkpt><trkpt lat="45.6822606" lon="9.3979991"><ele>255.16666666666666</ele><time>2026-03-29T10:10:01.855Z</time></trkpt><trkpt lat="45.6823616" lon="9.3980217"><ele>255.33333333333331</ele><time>2026-03-29T10:10:02.837Z</time></trkpt><trkpt lat="45.6824426" lon="9.3980521"><ele>255.5</ele><time>2026-03-29T10:10:03.834Z</time></trkpt><trkpt lat="45.6825113" lon="9.3980949"><ele>255.66666666666666</ele><time>2026-03-29T10:10:04.836Z</time></trkpt><trkpt lat="45.6825733" lon="9.3981513"><ele>255.83333333333331</ele><time>2026-03-29T10:10:05.839Z</time></trkpt><trkpt lat="45.6826309" lon="9.3982105"><ele>256.0</ele><time>2026-03-29T10:10:06.835Z</time></trkpt><trkpt lat="45.6827168" lon="9.3983448"><ele>255.4</ele><time>2026-03-29T10:10:08.844Z</time></trkpt><trkpt lat="45.6828077" lon="9.3984587"><ele>254.8</ele><time>2026-03-29T10:10:10.84Z</time></trkpt><trkpt lat="45.6829459" lon="9.3984353"><ele>254.20000000000002</ele><time>2026-03-29T10:10:12.833Z</time></trkpt><trkpt lat="45.6830251" lon="9.3983861"><ele>253.60000000000002</ele><time>2026-03-29T10:10:13.833Z</time></trkpt><trkpt lat="45.683117" lon="9.3983519"><ele>253.0</ele><time>2026-03-29T10:10:14.887Z</time></trkpt><trkpt lat="45.6832206" lon="9.3983483"><ele>253.0</ele><time>2026-03-29T10:10:15.842Z</time></trkpt><trkpt lat="45.6833377" lon="9.3983669"><ele>253.0</ele><time>2026-03-29T10:10:16.856Z</time></trkpt><trkpt lat="45.683463" lon="9.3984051"><ele>253.0</ele><time>2026-03-29T10:10:17.834Z</time></trkpt><trkpt lat="45.6836007" lon="9.398449"><ele>253.0</ele><time>2026-03-29T10:10:18.857Z</time></trkpt><trkpt lat="45.683745" lon="9.3984957"><ele>253.0</ele><time>2026-03-29T10:10:19.835Z</time></trkpt><trkpt lat="45.6839184" lon="9.3985547"><ele>253.0</ele><time>2026-03-29T10:10:20.839Z</time></trkpt><trkpt lat="45.6840788" lon="9.3986204"><ele>253.0</ele><time>2026-03-29T10:10:21.831Z</time></trkpt><trkpt lat="45.6842394" lon="9.3986741"><ele>253.0</ele><time>2026-03-29T10:10:22.838Z</time></trkpt><trkpt lat="45.6843943" lon="9.3987272"><ele>253.0</ele><time>2026-03-29T10:10:23.845Z</time></trkpt><trkpt lat="45.6845544" lon="9.3987709"><ele>253.0</ele><time>2026-03-29T10:10:24.839Z</time></trkpt><trkpt lat="45.6847125" lon="9.3988337"><ele>254.0</ele><time>2026-03-29T10:10:25.84Z</time></trkpt><trkpt lat="45.6848663" lon="9.3988937"><ele>255.0</ele><time>2026-03-29T10:10:26.839Z</time></trkpt><trkpt lat="45.6850343" lon="9.3989466"><ele>256.0</ele><time>2026-03-29T10:10:27.84Z</time></trkpt><trkpt lat="45.685204" lon="9.3990101"><ele>255.0</ele><time>2026-03-29T10:10:28.852Z</time></trkpt><trkpt lat="45.68538" lon="9.3990837"><ele>254.0</ele><time>2026-03-29T10:10:29.836Z</time></trkpt><trkpt lat="45.6855565" lon="9.3991527"><ele>253.0</ele><time>2026-03-29T10:10:30.835Z</time></trkpt><trkpt lat="45.6857334" lon="9.3992088"><ele>253.0</ele><time>2026-03-29T10:10:31.834Z</time></trkpt><trkpt lat="45.6859039" lon="9.3992804"><ele>253.0</ele><time>2026-03-29T10:10:32.836Z</time></trkpt><trkpt lat="45.6860826" lon="9.3993478"><ele>253.0</ele><time>2026-03-29T10:10:33.833Z</time></trkpt><trkpt lat="45.6862803" lon="9.3993997"><ele>254.33333333333331</ele><time>2026-03-29T10:10:34.837Z</time></trkpt><trkpt lat="45.6864546" lon="9.3994643"><ele>255.66666666666669</ele><time>2026-03-29T10:10:35.833Z</time></trkpt><trkpt lat="45.6866227" lon="9.3995105"><ele>257.0</ele><time>2026-03-29T10:10:36.841Z</time></trkpt><trkpt lat="45.6867657" lon="9.3995693"><ele>257.0</ele><time>2026-03-29T10:10:37.837Z</time></trkpt><trkpt lat="45.6869203" lon="9.3996128"><ele>257.0</ele><time>2026-03-29T10:10:38.837Z</time></trkpt><trkpt lat="45.6870692" lon="9.3996677"><ele>257.0</ele><time>2026-03-29T10:10:39.839Z</time></trkpt><trkpt lat="45.6872064" lon="9.3997051"><ele>257.2</ele><time>2026-03-29T10:10:40.839Z</time></trkpt><trkpt lat="45.6873109" lon="9.3997446"><ele>257.4</ele><time>2026-03-29T10:10:41.837Z</time></trkpt><trkpt lat="45.6874179" lon="9.399779"><ele>257.6</ele><time>2026-03-29T10:10:42.836Z</time></trkpt><trkpt lat="45.6875207" lon="9.3998177"><ele>257.8</ele><time>2026-03-29T10:10:43.836Z</time></trkpt><trkpt lat="45.6876067" lon="9.3998483"><ele>258.0</ele><time>2026-03-29T10:10:44.835Z</time></trkpt><trkpt lat="45.6876995" lon="9.3998801"><ele>259.0</ele><time>2026-03-29T10:10:45.834Z</time></trkpt><trkpt lat="45.6878138" lon="9.3999282"><ele>260.0</ele><time>2026-03-29T10:10:46.833Z</time></trkpt><trkpt lat="45.6879215" lon="9.3999753"><ele>261.0</ele><time>2026-03-29T10:10:47.829Z</time></trkpt><trkpt lat="45.6880363" lon="9.4000318"><ele>262.0</ele><time>2026-03-29T10:10:48.836Z</time></trkpt><trkpt lat="45.6881433" lon="9.4000962"><ele>262.0</ele><time>2026-03-29T10:10:49.835Z</time></trkpt><trkpt lat="45.6882396" lon="9.4001467"><ele>262.0</ele><time>2026-03-29T10:10:50.835Z</time></trkpt><trkpt lat="45.6883257" lon="9.4001979"><ele>262.0</ele><time>2026-03-29T10:10:51.836Z</time></trkpt><trkpt lat="45.6883954" lon="9.4002438"><ele>262.0</ele><time>2026-03-29T10:10:52.833Z</time></trkpt><trkpt lat="45.6884509" lon="9.4002882"><ele>262.0</ele><time>2026-03-29T10:10:53.834Z</time></trkpt><trkpt lat="45.6885444" lon="9.4004167"><ele>262.0</ele><time>2026-03-29T10:10:55.842Z</time></trkpt><trkpt lat="45.6885785" lon="9.4004998"><ele>262.0</ele><time>2026-03-29T10:10:56.838Z</time></trkpt><trkpt lat="45.6886124" lon="9.4005771"><ele>262.0</ele><time>2026-03-29T10:10:57.83Z</time></trkpt><trkpt lat="45.6887051" lon="9.4006414"><ele>262.0</ele><time>2026-03-29T10:10:59.859Z</time></trkpt><trkpt lat="45.6887651" lon="9.4006104"><ele>262.0</ele><time>2026-03-29T10:11:00.836Z</time></trkpt><trkpt lat="45.6888409" lon="9.4005647"><ele>262.0</ele><time>2026-03-29T10:11:01.836Z</time></trkpt><trkpt lat="45.6889319" lon="9.40053"><ele>262.0</ele><time>2026-03-29T10:11:02.826Z</time></trkpt><trkpt lat="45.6890409" lon="9.4005317"><ele>262.0</ele><time>2026-03-29T10:11:03.832Z</time></trkpt><trkpt lat="45.6891627" lon="9.4005545"><ele>262.0</ele><time>2026-03-29T10:11:04.837Z</time></trkpt><trkpt lat="45.6892964" lon="9.4005904"><ele>262.0</ele><time>2026-03-29T10:11:05.838Z</time></trkpt><trkpt lat="45.6894415" lon="9.4006387"><ele>262.0</ele><time>2026-03-29T10:11:06.832Z</time></trkpt><trkpt lat="45.6896309" lon="9.4007056"><ele>262.0</ele><time>2026-03-29T10:11:07.833Z</time></trkpt><trkpt lat="45.6898079" lon="9.4007612"><ele>262.0</ele><time>2026-03-29T10:11:08.834Z</time></trkpt><trkpt lat="45.6899778" lon="9.4008344"><ele>262.0</ele><time>2026-03-29T10:11:09.836Z</time></trkpt><trkpt lat="45.6901513" lon="9.4009184"><ele>262.0</ele><time>2026-03-29T10:11:10.83Z</time></trkpt><trkpt lat="45.6903232" lon="9.4010021"><ele>262.0</ele><time>2026-03-29T10:11:11.839Z</time></trkpt><trkpt lat="45.6905057" lon="9.4010696"><ele>263.0</ele><time>2026-03-29T10:11:12.835Z</time></trkpt><trkpt lat="45.6906761" lon="9.4011482"><ele>264.0</ele><time>2026-03-29T10:11:13.835Z</time></trkpt><trkpt lat="45.6908417" lon="9.4012399"><ele>265.0</ele><time>2026-03-29T10:11:14.836Z</time></trkpt><trkpt lat="45.6910282" lon="9.4013292"><ele>266.0</ele><time>2026-03-29T10:11:15.833Z</time></trkpt><trkpt lat="45.6912123" lon="9.4014214"><ele>267.0</ele><time>2026-03-29T10:11:16.839Z</time></trkpt><trkpt lat="45.6913885" lon="9.4015197"><ele>268.0</ele><time>2026-03-29T10:11:17.84Z</time></trkpt><trkpt lat="45.6915518" lon="9.4016229"><ele>268.0</ele><time>2026-03-29T10:11:18.835Z</time></trkpt><trkpt lat="45.691732" lon="9.4017028"><ele>268.0</ele><time>2026-03-29T10:11:19.836Z</time></trkpt><trkpt lat="45.6918967" lon="9.4017892"><ele>268.0</ele><time>2026-03-29T10:11:20.835Z</time></trkpt><trkpt lat="45.6920457" lon="9.4018502"><ele>268.2</ele><time>2026-03-29T10:11:21.83Z</time></trkpt><trkpt lat="45.6921491" lon="9.4019348"><ele>268.4</ele><time>2026-03-29T10:11:22.844Z</time></trkpt><trkpt lat="45.6922537" lon="9.401976"><ele>268.59999999999997</ele><time>2026-03-29T10:11:23.832Z</time></trkpt><trkpt lat="45.6923377" lon="9.4019997"><ele>268.8</ele><time>2026-03-29T10:11:24.835Z</time></trkpt><trkpt lat="45.6924101" lon="9.4020497"><ele>269.0</ele><time>2026-03-29T10:11:26.837Z</time></trkpt><trkpt lat="45.6925538" lon="9.4021267"><ele>269.0</ele><time>2026-03-29T10:12:39.854Z</time></trkpt><trkpt lat="45.6926512" lon="9.402182"><ele>269.0</ele><time>2026-03-29T10:12:42.849Z</time></trkpt><trkpt lat="45.6927197" lon="9.4022237"><ele>269.0</ele><time>2026-03-29T10:12:43.831Z</time></trkpt><trkpt lat="45.6927907" lon="9.4022676"><ele>269.0</ele><time>2026-03-29T10:12:44.831Z</time></trkpt><trkpt lat="45.6928796" lon="9.4023079"><ele>269.0</ele><time>2026-03-29T10:12:45.857Z</time></trkpt><trkpt lat="45.6929872" lon="9.4023403"><ele>269.0</ele><time>2026-03-29T10:12:46.831Z</time></trkpt><trkpt lat="45.6930948" lon="9.4023599"><ele>269.0</ele><time>2026-03-29T10:12:47.86Z</time></trkpt><trkpt lat="45.6932078" lon="9.4023684"><ele>269.0</ele><time>2026-03-29T10:12:48.833Z</time></trkpt><trkpt lat="45.693317" lon="9.4023634"><ele>269.0</ele><time>2026-03-29T10:12:49.841Z</time></trkpt><trkpt lat="45.6934203" lon="9.4023558"><ele>269.0</ele><time>2026-03-29T10:12:50.834Z</time></trkpt><trkpt lat="45.6935179" lon="9.4023584"><ele>269.1666666666667</ele><time>2026-03-29T10:12:51.843Z</time></trkpt><trkpt lat="45.6936011" lon="9.4023583"><ele>269.33333333333337</ele><time>2026-03-29T10:12:52.85Z</time></trkpt><trkpt lat="45.6936693" lon="9.4023586"><ele>269.5</ele><time>2026-03-29T10:12:53.841Z</time></trkpt><trkpt lat="45.6937545" lon="9.4023653"><ele>269.6666666666667</ele><time>2026-03-29T10:12:55.841Z</time></trkpt><trkpt lat="45.6938242" lon="9.4023644"><ele>269.8333333333333</ele><time>2026-03-29T10:12:58.847Z</time></trkpt><trkpt lat="45.6938878" lon="9.4023685"><ele>270.0</ele><time>2026-03-29T10:12:59.844Z</time></trkpt><trkpt lat="45.6939759" lon="9.4023794"><ele>270.0</ele><time>2026-03-29T10:13:00.839Z</time></trkpt><trkpt lat="45.6940836" lon="9.4024013"><ele>270.0</ele><time>2026-03-29T10:13:01.833Z</time></trkpt><trkpt lat="45.6942066" lon="9.4024473"><ele>270.0</ele><time>2026-03-29T10:13:02.829Z</time></trkpt><trkpt lat="45.6943334" lon="9.4025188"><ele>270.0</ele><time>2026-03-29T10:13:03.842Z</time></trkpt><trkpt lat="45.6944507" lon="9.4026077"><ele>270.75</ele><time>2026-03-29T10:13:04.837Z</time></trkpt><trkpt lat="45.6945684" lon="9.4027074"><ele>271.5</ele><time>2026-03-29T10:13:05.837Z</time></trkpt><trkpt lat="45.6946858" lon="9.4028277"><ele>272.25</ele><time>2026-03-29T10:13:06.84Z</time></trkpt><trkpt lat="45.6948065" lon="9.4029856"><ele>273.0</ele><time>2026-03-29T10:13:07.842Z</time></trkpt><trkpt lat="45.6949335" lon="9.403114"><ele>273.0</ele><time>2026-03-29T10:13:08.837Z</time></trkpt><trkpt lat="45.6950572" lon="9.4032442"><ele>273.0</ele><time>2026-03-29T10:13:09.836Z</time></trkpt><trkpt lat="45.6951859" lon="9.4033714"><ele>273.0</ele><time>2026-03-29T10:13:10.847Z</time></trkpt><trkpt lat="45.695309" lon="9.4035025"><ele>273.3333333333333</ele><time>2026-03-29T10:13:11.834Z</time></trkpt><trkpt lat="45.6954396" lon="9.4036204"><ele>273.66666666666663</ele><time>2026-03-29T10:13:12.835Z</time></trkpt><trkpt lat="45.6955716" lon="9.4037598"><ele>274.0</ele><time>2026-03-29T10:13:13.838Z</time></trkpt><trkpt lat="45.6957103" lon="9.4038973"><ele>274.0</ele><time>2026-03-29T10:13:14.836Z</time></trkpt><trkpt lat="45.6958517" lon="9.4040239"><ele>274.0</ele><time>2026-03-29T10:13:15.846Z</time></trkpt><trkpt lat="45.6959792" lon="9.4041536"><ele>274.0</ele><time>2026-03-29T10:13:16.842Z</time></trkpt><trkpt lat="45.6961162" lon="9.4042702"><ele>274.66666666666663</ele><time>2026-03-29T10:13:17.848Z</time></trkpt><trkpt lat="45.6962321" lon="9.4044063"><ele>275.3333333333333</ele><time>2026-03-29T10:13:18.845Z</time></trkpt><trkpt lat="45.6963605" lon="9.4045476"><ele>276.0</ele><time>2026-03-29T10:13:19.843Z</time></trkpt><trkpt lat="45.6964885" lon="9.4046844"><ele>276.3333333333333</ele><time>2026-03-29T10:13:20.842Z</time></trkpt><trkpt lat="45.6966265" lon="9.4048092"><ele>276.66666666666663</ele><time>2026-03-29T10:13:21.843Z</time></trkpt><trkpt lat="45.6967541" lon="9.4049525"><ele>277.0</ele><time>2026-03-29T10:13:22.842Z</time></trkpt><trkpt lat="45.6968812" lon="9.4050851"><ele>277.0</ele><time>2026-03-29T10:13:23.842Z</time></trkpt><trkpt lat="45.6970113" lon="9.4052188"><ele>277.0</ele><time>2026-03-29T10:13:24.841Z</time></trkpt><trkpt lat="45.6971486" lon="9.4053545"><ele>277.0</ele><time>2026-03-29T10:13:25.84Z</time></trkpt><trkpt lat="45.697276" lon="9.4055052"><ele>277.0</ele><time>2026-03-29T10:13:26.841Z</time></trkpt><trkpt lat="45.6973925" lon="9.4056193"><ele>277.0</ele><time>2026-03-29T10:13:27.845Z</time></trkpt><trkpt lat="45.6975084" lon="9.4057164"><ele>277.0</ele><time>2026-03-29T10:13:28.85Z</time></trkpt><trkpt lat="45.6976127" lon="9.4058132"><ele>277.0</ele><time>2026-03-29T10:13:29.841Z</time></trkpt><trkpt lat="45.6977111" lon="9.4059065"><ele>277.16666666666663</ele><time>2026-03-29T10:13:30.843Z</time></trkpt><trkpt lat="45.6977996" lon="9.4059937"><ele>277.3333333333333</ele><time>2026-03-29T10:13:31.859Z</time></trkpt><trkpt lat="45.6978693" lon="9.4060757"><ele>277.5</ele><time>2026-03-29T10:13:32.838Z</time></trkpt><trkpt lat="45.6979178" lon="9.4061553"><ele>277.6666666666667</ele><time>2026-03-29T10:13:33.836Z</time></trkpt><trkpt lat="45.6979795" lon="9.4062196"><ele>277.83333333333337</ele><time>2026-03-29T10:13:34.836Z</time></trkpt><trkpt lat="45.6980357" lon="9.4062868"><ele>278.0</ele><time>2026-03-29T10:13:35.837Z</time></trkpt><trkpt lat="45.6980878" lon="9.4063427"><ele>278.33333333333337</ele><time>2026-03-29T10:13:36.841Z</time></trkpt><trkpt lat="45.6981694" lon="9.4064386"><ele>278.6666666666667</ele><time>2026-03-29T10:13:38.831Z</time></trkpt><trkpt lat="45.6982208" lon="9.4065216"><ele>279.0</ele><time>2026-03-29T10:13:40.84Z</time></trkpt><trkpt lat="45.6982685" lon="9.4066157"><ele>279.3333333333333</ele><time>2026-03-29T10:13:42.841Z</time></trkpt><trkpt lat="45.6983233" lon="9.4067314"><ele>279.66666666666663</ele><time>2026-03-29T10:13:45.838Z</time></trkpt><trkpt lat="45.6983759" lon="9.4068054"><ele>280.0</ele><time>2026-03-29T10:13:46.846Z</time></trkpt><trkpt lat="45.6984393" lon="9.4068759"><ele>280.0</ele><time>2026-03-29T10:13:47.84Z</time></trkpt><trkpt lat="45.698523" lon="9.4069461"><ele>280.0</ele><time>2026-03-29T10:13:48.858Z</time></trkpt><trkpt lat="45.6986228" lon="9.4070153"><ele>280.0</ele><time>2026-03-29T10:13:49.835Z</time></trkpt><trkpt lat="45.6987277" lon="9.4070852"><ele>280.0</ele><time>2026-03-29T10:13:50.832Z</time></trkpt><trkpt lat="45.6988322" lon="9.4071705"><ele>280.0</ele><time>2026-03-29T10:13:51.833Z</time></trkpt><trkpt lat="45.6989311" lon="9.4072672"><ele>281.0</ele><time>2026-03-29T10:13:52.836Z</time></trkpt><trkpt lat="45.6990251" lon="9.4073772"><ele>282.0</ele><time>2026-03-29T10:13:53.826Z</time></trkpt><trkpt lat="45.6991217" lon="9.4074932"><ele>283.0</ele><time>2026-03-29T10:13:54.835Z</time></trkpt><trkpt lat="45.6992243" lon="9.407618"><ele>284.0</ele><time>2026-03-29T10:13:55.837Z</time></trkpt><trkpt lat="45.6993207" lon="9.4077549"><ele>284.0</ele><time>2026-03-29T10:13:56.829Z</time></trkpt><trkpt lat="45.6994235" lon="9.4079076"><ele>284.0</ele><time>2026-03-29T10:13:57.826Z</time></trkpt><trkpt lat="45.6995186" lon="9.408043"><ele>284.0</ele><time>2026-03-29T10:13:58.838Z</time></trkpt><trkpt lat="45.6996375" lon="9.4081926"><ele>284.0</ele><time>2026-03-29T10:13:59.833Z</time></trkpt><trkpt lat="45.6997374" lon="9.4083377"><ele>284.75</ele><time>2026-03-29T10:14:00.836Z</time></trkpt><trkpt lat="45.6998379" lon="9.4084689"><ele>285.5</ele><time>2026-03-29T10:14:01.839Z</time></trkpt><trkpt lat="45.6999229" lon="9.4085905"><ele>286.25</ele><time>2026-03-29T10:14:02.835Z</time></trkpt><trkpt lat="45.7000111" lon="9.408688"><ele>287.0</ele><time>2026-03-29T10:14:03.842Z</time></trkpt><trkpt lat="45.700101" lon="9.4088072"><ele>286.5</ele><time>2026-03-29T10:14:04.835Z</time></trkpt><trkpt lat="45.7001928" lon="9.4089359"><ele>286.0</ele><time>2026-03-29T10:14:05.827Z</time></trkpt><trkpt lat="45.7002841" lon="9.409079"><ele>285.5</ele><time>2026-03-29T10:14:06.831Z</time></trkpt><trkpt lat="45.7004038" lon="9.409212"><ele>285.0</ele><time>2026-03-29T10:14:07.84Z</time></trkpt><trkpt lat="45.7005279" lon="9.4093529"><ele>285.0</ele><time>2026-03-29T10:14:08.825Z</time></trkpt><trkpt lat="45.7006656" lon="9.4095057"><ele>285.0</ele><time>2026-03-29T10:14:09.859Z</time></trkpt><trkpt lat="45.7008141" lon="9.4096513"><ele>285.0</ele><time>2026-03-29T10:14:10.862Z</time></trkpt><trkpt lat="45.7009575" lon="9.4097976"><ele>284.3333333333333</ele><time>2026-03-29T10:14:11.825Z</time></trkpt><trkpt lat="45.7011044" lon="9.4099397"><ele>283.66666666666663</ele><time>2026-03-29T10:14:12.835Z</time></trkpt><trkpt lat="45.7012471" lon="9.4100697"><ele>283.0</ele><time>2026-03-29T10:14:13.831Z</time></trkpt><trkpt lat="45.7013433" lon="9.4102178"><ele>283.0</ele><time>2026-03-29T10:14:14.845Z</time></trkpt><trkpt lat="45.7014354" lon="9.4103467"><ele>283.0</ele><time>2026-03-29T10:14:15.881Z</time></trkpt><trkpt lat="45.7015185" lon="9.4104694"><ele>283.0</ele><time>2026-03-29T10:14:16.838Z</time></trkpt><trkpt lat="45.7015888" lon="9.4105936"><ele>283.0</ele><time>2026-03-29T10:14:17.835Z</time></trkpt><trkpt lat="45.7016996" lon="9.4106953"><ele>284.25</ele><time>2026-03-29T10:14:18.838Z</time></trkpt><trkpt lat="45.7018096" lon="9.4107781"><ele>285.5</ele><time>2026-03-29T10:14:19.843Z</time></trkpt><trkpt lat="45.7019269" lon="9.4108607"><ele>286.75</ele><time>2026-03-29T10:14:20.84Z</time></trkpt><trkpt lat="45.7020552" lon="9.410935"><ele>288.0</ele><time>2026-03-29T10:14:21.84Z</time></trkpt><trkpt lat="45.702186" lon="9.4109711"><ele>288.0</ele><time>2026-03-29T10:14:22.846Z</time></trkpt><trkpt lat="45.7023213" lon="9.4110348"><ele>288.0</ele><time>2026-03-29T10:14:23.835Z</time></trkpt><trkpt lat="45.7024494" lon="9.4111168"><ele>288.0</ele><time>2026-03-29T10:14:24.851Z</time></trkpt><trkpt lat="45.7025876" lon="9.4111592"><ele>288.0</ele><time>2026-03-29T10:14:25.836Z</time></trkpt><trkpt lat="45.7027408" lon="9.4112181"><ele>288.5</ele><time>2026-03-29T10:14:26.844Z</time></trkpt><trkpt lat="45.7028807" lon="9.4112863"><ele>289.0</ele><time>2026-03-29T10:14:27.838Z</time></trkpt><trkpt lat="45.7030285" lon="9.411348"><ele>289.5</ele><time>2026-03-29T10:14:28.841Z</time></trkpt><trkpt lat="45.7031548" lon="9.4114067"><ele>290.0</ele><time>2026-03-29T10:14:29.838Z</time></trkpt><trkpt lat="45.7032689" lon="9.4114691"><ele>290.0</ele><time>2026-03-29T10:14:30.84Z</time></trkpt><trkpt lat="45.7033995" lon="9.4115216"><ele>290.0</ele><time>2026-03-29T10:14:31.859Z</time></trkpt><trkpt lat="45.7035394" lon="9.4115584"><ele>290.0</ele><time>2026-03-29T10:14:32.841Z</time></trkpt><trkpt lat="45.7036782" lon="9.4115803"><ele>290.0</ele><time>2026-03-29T10:14:33.841Z</time></trkpt><trkpt lat="45.7038113" lon="9.4116054"><ele>289.0</ele><time>2026-03-29T10:14:34.847Z</time></trkpt><trkpt lat="45.7039542" lon="9.4116166"><ele>288.0</ele><time>2026-03-29T10:14:35.837Z</time></trkpt><trkpt lat="45.7041073" lon="9.4115835"><ele>287.0</ele><time>2026-03-29T10:14:36.848Z</time></trkpt><trkpt lat="45.7042618" lon="9.4115633"><ele>287.0</ele><time>2026-03-29T10:14:37.846Z</time></trkpt><trkpt lat="45.7044009" lon="9.4115311"><ele>287.0</ele><time>2026-03-29T10:14:38.842Z</time></trkpt><trkpt lat="45.7045285" lon="9.4114823"><ele>287.0</ele><time>2026-03-29T10:14:39.843Z</time></trkpt><trkpt lat="45.7046631" lon="9.4114066"><ele>287.0</ele><time>2026-03-29T10:14:40.843Z</time></trkpt><trkpt lat="45.7047643" lon="9.4113345"><ele>287.6</ele><time>2026-03-29T10:14:41.839Z</time></trkpt><trkpt lat="45.7048518" lon="9.4112544"><ele>288.2</ele><time>2026-03-29T10:14:42.839Z</time></trkpt><trkpt lat="45.7049371" lon="9.4111901"><ele>288.8</ele><time>2026-03-29T10:14:43.863Z</time></trkpt><trkpt lat="45.7050348" lon="9.4111232"><ele>289.4</ele><time>2026-03-29T10:14:44.839Z</time></trkpt><trkpt lat="45.7051115" lon="9.4110776"><ele>290.0</ele><time>2026-03-29T10:14:45.865Z</time></trkpt><trkpt lat="45.7051956" lon="9.4110017"><ele>291.25</ele><time>2026-03-29T10:14:46.836Z</time></trkpt><trkpt lat="45.705279" lon="9.4109147"><ele>292.5</ele><time>2026-03-29T10:14:47.842Z</time></trkpt><trkpt lat="45.7053768" lon="9.4108142"><ele>293.75</ele><time>2026-03-29T10:14:48.842Z</time></trkpt><trkpt lat="45.7054904" lon="9.410725"><ele>295.0</ele><time>2026-03-29T10:14:49.832Z</time></trkpt><trkpt lat="45.7055957" lon="9.4106447"><ele>295.0</ele><time>2026-03-29T10:14:50.838Z</time></trkpt><trkpt lat="45.7056919" lon="9.4105899"><ele>295.0</ele><time>2026-03-29T10:14:51.831Z</time></trkpt><trkpt lat="45.7057688" lon="9.4105424"><ele>295.0</ele><time>2026-03-29T10:14:52.833Z</time></trkpt><trkpt lat="45.7058461" lon="9.4105007"><ele>295.0</ele><time>2026-03-29T10:14:54.839Z</time></trkpt><trkpt lat="45.7059453" lon="9.4104238"><ele>295.0</ele><time>2026-03-29T10:14:56.837Z</time></trkpt><trkpt lat="45.7060172" lon="9.4103707"><ele>295.66666666666663</ele><time>2026-03-29T10:14:57.84Z</time></trkpt><trkpt lat="45.7060966" lon="9.4103156"><ele>296.3333333333333</ele><time>2026-03-29T10:14:58.844Z</time></trkpt><trkpt lat="45.7061696" lon="9.4102565"><ele>297.0</ele><time>2026-03-29T10:14:59.838Z</time></trkpt><trkpt lat="45.7062321" lon="9.4102059"><ele>297.6666666666667</ele><time>2026-03-29T10:15:00.836Z</time></trkpt><trkpt lat="45.7062927" lon="9.4101635"><ele>298.33333333333337</ele><time>2026-03-29T10:15:01.842Z</time></trkpt><trkpt lat="45.7063628" lon="9.4101364"><ele>299.0</ele><time>2026-03-29T10:15:02.86Z</time></trkpt><trkpt lat="45.7064357" lon="9.4101388"><ele>299.0</ele><time>2026-03-29T10:15:03.835Z</time></trkpt><trkpt lat="45.7065017" lon="9.4101494"><ele>299.0</ele><time>2026-03-29T10:15:04.863Z</time></trkpt><trkpt lat="45.7065917" lon="9.4100387"><ele>299.0</ele><time>2026-03-29T10:15:06.857Z</time></trkpt><trkpt lat="45.7066204" lon="9.4099272"><ele>299.0</ele><time>2026-03-29T10:15:07.856Z</time></trkpt><trkpt lat="45.7066689" lon="9.4098162"><ele>299.0</ele><time>2026-03-29T10:15:08.836Z</time></trkpt><trkpt lat="45.7067464" lon="9.4097135"><ele>299.5</ele><time>2026-03-29T10:15:09.833Z</time></trkpt><trkpt lat="45.7068414" lon="9.4096187"><ele>300.0</ele><time>2026-03-29T10:15:10.833Z</time></trkpt><trkpt lat="45.706967" lon="9.4095182"><ele>300.5</ele><time>2026-03-29T10:15:11.837Z</time></trkpt><trkpt lat="45.7071167" lon="9.409405"><ele>301.0</ele><time>2026-03-29T10:15:12.839Z</time></trkpt><trkpt lat="45.7073171" lon="9.409294"><ele>301.0</ele><time>2026-03-29T10:15:13.858Z</time></trkpt><trkpt lat="45.7075011" lon="9.4091715"><ele>301.0</ele><time>2026-03-29T10:15:14.836Z</time></trkpt><trkpt lat="45.7076666" lon="9.4090288"><ele>301.0</ele><time>2026-03-29T10:15:15.841Z</time></trkpt><trkpt lat="45.7078158" lon="9.4088993"><ele>302.0</ele><time>2026-03-29T10:15:16.83Z</time></trkpt><trkpt lat="45.7079493" lon="9.4088092"><ele>303.0</ele><time>2026-03-29T10:15:17.841Z</time></trkpt><trkpt lat="45.7080583" lon="9.4087187"><ele>304.0</ele><time>2026-03-29T10:15:18.846Z</time></trkpt><trkpt lat="45.7081688" lon="9.408619"><ele>305.0</ele><time>2026-03-29T10:15:19.859Z</time></trkpt><trkpt lat="45.70828" lon="9.4085217"><ele>305.0</ele><time>2026-03-29T10:15:20.863Z</time></trkpt><trkpt lat="45.708418" lon="9.4084096"><ele>305.0</ele><time>2026-03-29T10:15:21.84Z</time></trkpt><trkpt lat="45.7085671" lon="9.4083087"><ele>305.0</ele><time>2026-03-29T10:15:22.853Z</time></trkpt><trkpt lat="45.7087039" lon="9.4082107"><ele>305.25</ele><time>2026-03-29T10:15:23.84Z</time></trkpt><trkpt lat="45.7088399" lon="9.4081038"><ele>305.5</ele><time>2026-03-29T10:15:24.845Z</time></trkpt><trkpt lat="45.7089502" lon="9.4079967"><ele>305.75</ele><time>2026-03-29T10:15:25.835Z</time></trkpt><trkpt lat="45.7090654" lon="9.4079107"><ele>306.0</ele><time>2026-03-29T10:15:26.84Z</time></trkpt><trkpt lat="45.7091732" lon="9.4078113"><ele>306.3333333333333</ele><time>2026-03-29T10:15:27.839Z</time></trkpt><trkpt lat="45.7093129" lon="9.4077186"><ele>306.66666666666663</ele><time>2026-03-29T10:15:28.835Z</time></trkpt><trkpt lat="45.7094488" lon="9.4076191"><ele>307.0</ele><time>2026-03-29T10:15:29.829Z</time></trkpt><trkpt lat="45.7095941" lon="9.4075108"><ele>307.75</ele><time>2026-03-29T10:15:30.842Z</time></trkpt><trkpt lat="45.7097155" lon="9.4074019"><ele>308.5</ele><time>2026-03-29T10:15:31.838Z</time></trkpt><trkpt lat="45.7098308" lon="9.407296"><ele>309.25</ele><time>2026-03-29T10:15:32.838Z</time></trkpt><trkpt lat="45.7099425" lon="9.4072045"><ele>310.0</ele><time>2026-03-29T10:15:33.835Z</time></trkpt><trkpt lat="45.7100613" lon="9.4071064"><ele>310.25</ele><time>2026-03-29T10:15:34.841Z</time></trkpt><trkpt lat="45.7101691" lon="9.4070181"><ele>310.5</ele><time>2026-03-29T10:15:35.84Z</time></trkpt><trkpt lat="45.7102905" lon="9.4069321"><ele>310.75</ele><time>2026-03-29T10:15:36.865Z</time></trkpt><trkpt lat="45.7103954" lon="9.4068413"><ele>311.0</ele><time>2026-03-29T10:15:37.835Z</time></trkpt><trkpt lat="45.7104825" lon="9.4067339"><ele>310.6</ele><time>2026-03-29T10:15:38.841Z</time></trkpt><trkpt lat="45.7105816" lon="9.4066266"><ele>310.20000000000005</ele><time>2026-03-29T10:15:39.834Z</time></trkpt><trkpt lat="45.7106709" lon="9.4065382"><ele>309.79999999999995</ele><time>2026-03-29T10:15:40.839Z</time></trkpt><trkpt lat="45.7107753" lon="9.4064818"><ele>309.4</ele><time>2026-03-29T10:15:41.835Z</time></trkpt><trkpt lat="45.710873" lon="9.4064412"><ele>309.0</ele><time>2026-03-29T10:15:42.843Z</time></trkpt><trkpt lat="45.7109748" lon="9.4064197"><ele>308.8</ele><time>2026-03-29T10:15:43.833Z</time></trkpt><trkpt lat="45.7110744" lon="9.4064247"><ele>308.59999999999997</ele><time>2026-03-29T10:15:44.839Z</time></trkpt><trkpt lat="45.7111752" lon="9.4064425"><ele>308.4</ele><time>2026-03-29T10:15:45.839Z</time></trkpt><trkpt lat="45.7112666" lon="9.4064553"><ele>308.2</ele><time>2026-03-29T10:15:46.839Z</time></trkpt><trkpt lat="45.7113604" lon="9.4064505"><ele>308.0</ele><time>2026-03-29T10:15:47.844Z</time></trkpt><trkpt lat="45.711432" lon="9.4063988"><ele>307.33333333333337</ele><time>2026-03-29T10:15:48.837Z</time></trkpt><trkpt lat="45.7114745" lon="9.406315"><ele>306.6666666666667</ele><time>2026-03-29T10:15:49.87Z</time></trkpt><trkpt lat="45.7114702" lon="9.4062133"><ele>306.0</ele><time>2026-03-29T10:15:50.837Z</time></trkpt><trkpt lat="45.7114412" lon="9.4061257"><ele>305.3333333333333</ele><time>2026-03-29T10:15:51.845Z</time></trkpt><trkpt lat="45.7113903" lon="9.4060529"><ele>304.66666666666663</ele><time>2026-03-29T10:15:52.851Z</time></trkpt><trkpt lat="45.7113326" lon="9.4059794"><ele>304.0</ele><time>2026-03-29T10:15:53.833Z</time></trkpt><trkpt lat="45.7112737" lon="9.4058757"><ele>304.0</ele><time>2026-03-29T10:15:54.846Z</time></trkpt><trkpt lat="45.7112259" lon="9.4057334"><ele>304.0</ele><time>2026-03-29T10:15:55.839Z</time></trkpt><trkpt lat="45.7111869" lon="9.4055592"><ele>304.0</ele><time>2026-03-29T10:15:56.841Z</time></trkpt><trkpt lat="45.7111496" lon="9.4053834"><ele>304.0</ele><time>2026-03-29T10:15:57.839Z</time></trkpt><trkpt lat="45.7111107" lon="9.4052203"><ele>303.0</ele><time>2026-03-29T10:15:58.838Z</time></trkpt><trkpt lat="45.7110892" lon="9.4050635"><ele>302.0</ele><time>2026-03-29T10:15:59.834Z</time></trkpt><trkpt lat="45.7110978" lon="9.4049096"><ele>301.0</ele><time>2026-03-29T10:16:00.823Z</time></trkpt><trkpt lat="45.7111186" lon="9.4047676"><ele>300.0</ele><time>2026-03-29T10:16:01.844Z</time></trkpt><trkpt lat="45.7111412" lon="9.404624"><ele>299.0</ele><time>2026-03-29T10:16:02.845Z</time></trkpt><trkpt lat="45.7111684" lon="9.4044787"><ele>298.0</ele><time>2026-03-29T10:16:03.834Z</time></trkpt><trkpt lat="45.7111905" lon="9.4043385"><ele>297.0</ele><time>2026-03-29T10:16:04.843Z</time></trkpt><trkpt lat="45.7112264" lon="9.4042191"><ele>296.0</ele><time>2026-03-29T10:16:05.839Z</time></trkpt><trkpt lat="45.7112829" lon="9.4041198"><ele>295.0</ele><time>2026-03-29T10:16:06.842Z</time></trkpt><trkpt lat="45.7113755" lon="9.4040506"><ele>294.0</ele><time>2026-03-29T10:16:07.845Z</time></trkpt><trkpt lat="45.7114819" lon="9.4039593"><ele>293.5</ele><time>2026-03-29T10:16:08.841Z</time></trkpt><trkpt lat="45.7115709" lon="9.4038211"><ele>293.0</ele><time>2026-03-29T10:16:09.837Z</time></trkpt><trkpt lat="45.7116511" lon="9.4036585"><ele>292.5</ele><time>2026-03-29T10:16:10.842Z</time></trkpt><trkpt lat="45.7117335" lon="9.4034933"><ele>292.0</ele><time>2026-03-29T10:16:11.838Z</time></trkpt><trkpt lat="45.7118523" lon="9.4033429"><ele>291.75</ele><time>2026-03-29T10:16:12.84Z</time></trkpt><trkpt lat="45.711959" lon="9.4032511"><ele>291.5</ele><time>2026-03-29T10:16:13.839Z</time></trkpt><trkpt lat="45.712078" lon="9.403142"><ele>291.25</ele><time>2026-03-29T10:16:14.84Z</time></trkpt><trkpt lat="45.7121627" lon="9.4029958"><ele>291.0</ele><time>2026-03-29T10:16:15.834Z</time></trkpt><trkpt lat="45.7122412" lon="9.402821"><ele>291.0</ele><time>2026-03-29T10:16:16.837Z</time></trkpt><trkpt lat="45.7123164" lon="9.4026481"><ele>291.0</ele><time>2026-03-29T10:16:17.839Z</time></trkpt><trkpt lat="45.7123935" lon="9.4024533"><ele>291.0</ele><time>2026-03-29T10:16:18.84Z</time></trkpt><trkpt lat="45.7124713" lon="9.4022548"><ele>290.0</ele><time>2026-03-29T10:16:19.836Z</time></trkpt><trkpt lat="45.7125572" lon="9.4020419"><ele>289.0</ele><time>2026-03-29T10:16:20.836Z</time></trkpt><trkpt lat="45.7126313" lon="9.4018023"><ele>288.0</ele><time>2026-03-29T10:16:21.833Z</time></trkpt><trkpt lat="45.7126963" lon="9.4015732"><ele>287.6666666666667</ele><time>2026-03-29T10:16:22.849Z</time></trkpt><trkpt lat="45.7127558" lon="9.4013531"><ele>287.33333333333337</ele><time>2026-03-29T10:16:23.842Z</time></trkpt><trkpt lat="45.7128064" lon="9.4011237"><ele>287.0</ele><time>2026-03-29T10:16:24.836Z</time></trkpt><trkpt lat="45.7128634" lon="9.4008865"><ele>286.0</ele><time>2026-03-29T10:16:25.849Z</time></trkpt><trkpt lat="45.7129239" lon="9.4006608"><ele>285.0</ele><time>2026-03-29T10:16:26.837Z</time></trkpt><trkpt lat="45.7129893" lon="9.4004868"><ele>284.0</ele><time>2026-03-29T10:16:27.839Z</time></trkpt><trkpt lat="45.7130697" lon="9.4003671"><ele>283.0</ele><time>2026-03-29T10:16:28.841Z</time></trkpt><trkpt lat="45.7131453" lon="9.4002628"><ele>282.8</ele><time>2026-03-29T10:16:29.841Z</time></trkpt><trkpt lat="45.7132446" lon="9.4001773"><ele>282.6</ele><time>2026-03-29T10:16:30.837Z</time></trkpt><trkpt lat="45.7133359" lon="9.4001383"><ele>282.4</ele><time>2026-03-29T10:16:31.843Z</time></trkpt><trkpt lat="45.7134383" lon="9.400116"><ele>282.2</ele><time>2026-03-29T10:16:32.879Z</time></trkpt><trkpt lat="45.7135473" lon="9.4001301"><ele>282.0</ele><time>2026-03-29T10:16:33.867Z</time></trkpt><trkpt lat="45.7136604" lon="9.4001616"><ele>281.75</ele><time>2026-03-29T10:16:34.842Z</time></trkpt><trkpt lat="45.713775" lon="9.4002296"><ele>281.5</ele><time>2026-03-29T10:16:35.85Z</time></trkpt><trkpt lat="45.7138891" lon="9.4003167"><ele>281.25</ele><time>2026-03-29T10:16:36.847Z</time></trkpt><trkpt lat="45.7140029" lon="9.4004244"><ele>281.0</ele><time>2026-03-29T10:16:37.847Z</time></trkpt><trkpt lat="45.7141113" lon="9.400539"><ele>281.0</ele><time>2026-03-29T10:16:38.848Z</time></trkpt><trkpt lat="45.7142117" lon="9.400644"><ele>281.0</ele><time>2026-03-29T10:16:39.835Z</time></trkpt><trkpt lat="45.7143092" lon="9.4007168"><ele>281.0</ele><time>2026-03-29T10:16:40.84Z</time></trkpt><trkpt lat="45.7144102" lon="9.4007439"><ele>281.0</ele><time>2026-03-29T10:16:41.847Z</time></trkpt><trkpt lat="45.714525" lon="9.400724"><ele>281.0</ele><time>2026-03-29T10:16:42.843Z</time></trkpt><trkpt lat="45.7146586" lon="9.4006745"><ele>281.0</ele><time>2026-03-29T10:16:43.843Z</time></trkpt><trkpt lat="45.714806" lon="9.4006317"><ele>281.0</ele><time>2026-03-29T10:16:44.842Z</time></trkpt><trkpt lat="45.7149766" lon="9.400569"><ele>281.0</ele><time>2026-03-29T10:16:45.838Z</time></trkpt><trkpt lat="45.715136" lon="9.4005139"><ele>281.0</ele><time>2026-03-29T10:16:46.846Z</time></trkpt><trkpt lat="45.7152902" lon="9.4004906"><ele>281.0</ele><time>2026-03-29T10:16:47.837Z</time></trkpt><trkpt lat="45.7154279" lon="9.4004585"><ele>280.75</ele><time>2026-03-29T10:16:48.843Z</time></trkpt><trkpt lat="45.715547" lon="9.4004274"><ele>280.5</ele><time>2026-03-29T10:16:49.833Z</time></trkpt><trkpt lat="45.7156489" lon="9.4003805"><ele>280.25</ele><time>2026-03-29T10:16:50.837Z</time></trkpt><trkpt lat="45.7157658" lon="9.4002834"><ele>280.0</ele><time>2026-03-29T10:16:51.838Z</time></trkpt><trkpt lat="45.7158793" lon="9.4001796"><ele>280.0</ele><time>2026-03-29T10:16:52.843Z</time></trkpt><trkpt lat="45.7159912" lon="9.4000817"><ele>280.0</ele><time>2026-03-29T10:16:53.836Z</time></trkpt><trkpt lat="45.7161085" lon="9.3999734"><ele>280.0</ele><time>2026-03-29T10:16:54.841Z</time></trkpt><trkpt lat="45.7162025" lon="9.3998733"><ele>280.0</ele><time>2026-03-29T10:16:55.841Z</time></trkpt><trkpt lat="45.7162908" lon="9.399782"><ele>280.25</ele><time>2026-03-29T10:16:56.837Z</time></trkpt><trkpt lat="45.7163834" lon="9.3996943"><ele>280.5</ele><time>2026-03-29T10:16:57.838Z</time></trkpt><trkpt lat="45.7164883" lon="9.3995993"><ele>280.75</ele><time>2026-03-29T10:16:58.84Z</time></trkpt><trkpt lat="45.7166063" lon="9.3995019"><ele>281.0</ele><time>2026-03-29T10:16:59.84Z</time></trkpt><trkpt lat="45.7167488" lon="9.3994131"><ele>281.25</ele><time>2026-03-29T10:17:00.839Z</time></trkpt><trkpt lat="45.7168796" lon="9.3993518"><ele>281.5</ele><time>2026-03-29T10:17:01.839Z</time></trkpt><trkpt lat="45.7170099" lon="9.3993046"><ele>281.75</ele><time>2026-03-29T10:17:02.842Z</time></trkpt><trkpt lat="45.7171483" lon="9.3992442"><ele>282.0</ele><time>2026-03-29T10:17:03.839Z</time></trkpt><trkpt lat="45.7172818" lon="9.3992365"><ele>282.75</ele><time>2026-03-29T10:17:04.841Z</time></trkpt><trkpt lat="45.717421" lon="9.399248"><ele>283.5</ele><time>2026-03-29T10:17:05.835Z</time></trkpt><trkpt lat="45.7175558" lon="9.3992712"><ele>284.25</ele><time>2026-03-29T10:17:06.839Z</time></trkpt><trkpt lat="45.7176721" lon="9.3992999"><ele>285.0</ele><time>2026-03-29T10:17:07.838Z</time></trkpt><trkpt lat="45.7178129" lon="9.399332"><ele>286.0</ele><time>2026-03-29T10:17:08.834Z</time></trkpt><trkpt lat="45.7179638" lon="9.3993321"><ele>287.0</ele><time>2026-03-29T10:17:09.836Z</time></trkpt><trkpt lat="45.7181042" lon="9.3993028"><ele>288.0</ele><time>2026-03-29T10:17:10.833Z</time></trkpt><trkpt lat="45.7182479" lon="9.3992593"><ele>289.0</ele><time>2026-03-29T10:17:11.829Z</time></trkpt><trkpt lat="45.7183574" lon="9.3992273"><ele>289.0</ele><time>2026-03-29T10:17:12.835Z</time></trkpt><trkpt lat="45.7184667" lon="9.3991559"><ele>289.0</ele><time>2026-03-29T10:17:13.833Z</time></trkpt><trkpt lat="45.7185775" lon="9.3990648"><ele>289.0</ele><time>2026-03-29T10:17:14.843Z</time></trkpt><trkpt lat="45.7186553" lon="9.3989847"><ele>289.0</ele><time>2026-03-29T10:17:15.839Z</time></trkpt><trkpt lat="45.7187288" lon="9.3988913"><ele>289.0</ele><time>2026-03-29T10:17:16.847Z</time></trkpt><trkpt lat="45.7188005" lon="9.3988001"><ele>288.8</ele><time>2026-03-29T10:17:17.853Z</time></trkpt><trkpt lat="45.7188718" lon="9.3986967"><ele>288.59999999999997</ele><time>2026-03-29T10:17:18.85Z</time></trkpt><trkpt lat="45.7189464" lon="9.3985908"><ele>288.4</ele><time>2026-03-29T10:17:19.846Z</time></trkpt><trkpt lat="45.7190258" lon="9.398476"><ele>288.2</ele><time>2026-03-29T10:17:20.86Z</time></trkpt><trkpt lat="45.7191095" lon="9.3983498"><ele>288.0</ele><time>2026-03-29T10:17:21.85Z</time></trkpt><trkpt lat="45.7191978" lon="9.3982186"><ele>288.0</ele><time>2026-03-29T10:17:22.854Z</time></trkpt><trkpt lat="45.7192887" lon="9.3980842"><ele>288.0</ele><time>2026-03-29T10:17:23.852Z</time></trkpt><trkpt lat="45.7193782" lon="9.397949"><ele>288.0</ele><time>2026-03-29T10:17:24.857Z</time></trkpt><trkpt lat="45.7194593" lon="9.3978202"><ele>288.0</ele><time>2026-03-29T10:17:25.854Z</time></trkpt><trkpt lat="45.7195299" lon="9.3977023"><ele>287.8333333333333</ele><time>2026-03-29T10:17:26.847Z</time></trkpt><trkpt lat="45.7195955" lon="9.3975936"><ele>287.6666666666667</ele><time>2026-03-29T10:17:27.843Z</time></trkpt><trkpt lat="45.7196544" lon="9.3974915"><ele>287.5</ele><time>2026-03-29T10:17:28.836Z</time></trkpt><trkpt lat="45.7197005" lon="9.3974161"><ele>287.33333333333337</ele><time>2026-03-29T10:17:29.838Z</time></trkpt><trkpt lat="45.7197459" lon="9.3973479"><ele>287.1666666666667</ele><time>2026-03-29T10:17:30.843Z</time></trkpt><trkpt lat="45.7197989" lon="9.3972665"><ele>287.0</ele><time>2026-03-29T10:17:31.866Z</time></trkpt><trkpt lat="45.7198553" lon="9.397171"><ele>287.2</ele><time>2026-03-29T10:17:32.844Z</time></trkpt><trkpt lat="45.7199132" lon="9.397062"><ele>287.4</ele><time>2026-03-29T10:17:33.845Z</time></trkpt><trkpt lat="45.7199778" lon="9.396953"><ele>287.6</ele><time>2026-03-29T10:17:34.845Z</time></trkpt><trkpt lat="45.7200442" lon="9.3968424"><ele>287.8</ele><time>2026-03-29T10:17:35.834Z</time></trkpt><trkpt lat="45.7201154" lon="9.3967346"><ele>288.0</ele><time>2026-03-29T10:17:36.843Z</time></trkpt><trkpt lat="45.7201798" lon="9.3966439"><ele>288.0</ele><time>2026-03-29T10:17:37.838Z</time></trkpt><trkpt lat="45.7202312" lon="9.3965676"><ele>288.0</ele><time>2026-03-29T10:17:38.836Z</time></trkpt><trkpt lat="45.7203156" lon="9.3964525"><ele>288.0</ele><time>2026-03-29T10:17:40.842Z</time></trkpt><trkpt lat="45.7204004" lon="9.3963633"><ele>288.0</ele><time>2026-03-29T10:17:42.841Z</time></trkpt><trkpt lat="45.7204557" lon="9.3962933"><ele>288.0</ele><time>2026-03-29T10:17:43.834Z</time></trkpt><trkpt lat="45.7204998" lon="9.3961971"><ele>288.5</ele><time>2026-03-29T10:17:44.834Z</time></trkpt><trkpt lat="45.720543" lon="9.396093"><ele>289.0</ele><time>2026-03-29T10:17:45.844Z</time></trkpt><trkpt lat="45.7205956" lon="9.3959999"><ele>289.5</ele><time>2026-03-29T10:17:46.841Z</time></trkpt><trkpt lat="45.720651" lon="9.3959263"><ele>290.0</ele><time>2026-03-29T10:17:47.841Z</time></trkpt><trkpt lat="45.7207006" lon="9.3958701"><ele>290.5</ele><time>2026-03-29T10:17:48.835Z</time></trkpt><trkpt lat="45.7207852" lon="9.395782"><ele>291.0</ele><time>2026-03-29T10:17:50.844Z</time></trkpt><trkpt lat="45.7208781" lon="9.395675"><ele>291.0</ele><time>2026-03-29T10:17:52.842Z</time></trkpt><trkpt lat="45.7209337" lon="9.3956099"><ele>291.0</ele><time>2026-03-29T10:17:53.838Z</time></trkpt><trkpt lat="45.720986" lon="9.3955417"><ele>291.0</ele><time>2026-03-29T10:17:54.844Z</time></trkpt><trkpt lat="45.7210361" lon="9.3954731"><ele>291.0</ele><time>2026-03-29T10:17:55.843Z</time></trkpt><trkpt lat="45.7210813" lon="9.3954038"><ele>291.0</ele><time>2026-03-29T10:17:56.843Z</time></trkpt><trkpt lat="45.7211491" lon="9.3953039"><ele>291.0</ele><time>2026-03-29T10:17:58.842Z</time></trkpt><trkpt lat="45.7212037" lon="9.3952213"><ele>291.2</ele><time>2026-03-29T10:18:00.84Z</time></trkpt><trkpt lat="45.7212652" lon="9.3951346"><ele>291.40000000000003</ele><time>2026-03-29T10:18:02.842Z</time></trkpt><trkpt lat="45.7213271" lon="9.3950538"><ele>291.6</ele><time>2026-03-29T10:18:05.847Z</time></trkpt><trkpt lat="45.7214027" lon="9.3949778"><ele>291.8</ele><time>2026-03-29T10:18:24.848Z</time></trkpt><trkpt lat="45.7214762" lon="9.394912"><ele>292.0</ele><time>2026-03-29T10:18:25.841Z</time></trkpt><trkpt lat="45.721583" lon="9.3948332"><ele>292.0</ele><time>2026-03-29T10:18:26.836Z</time></trkpt><trkpt lat="45.7216944" lon="9.3947412"><ele>292.0</ele><time>2026-03-29T10:18:27.831Z</time></trkpt><trkpt lat="45.72181" lon="9.3946534"><ele>292.0</ele><time>2026-03-29T10:18:28.837Z</time></trkpt><trkpt lat="45.7219261" lon="9.3945828"><ele>292.0</ele><time>2026-03-29T10:18:29.834Z</time></trkpt><trkpt lat="45.7220276" lon="9.3945224"><ele>293.3333333333333</ele><time>2026-03-29T10:18:30.831Z</time></trkpt><trkpt lat="45.7221157" lon="9.3944745"><ele>294.66666666666663</ele><time>2026-03-29T10:18:31.834Z</time></trkpt><trkpt lat="45.7221932" lon="9.3944304"><ele>296.0</ele><time>2026-03-29T10:18:32.829Z</time></trkpt><trkpt lat="45.7222691" lon="9.3943856"><ele>297.3333333333333</ele><time>2026-03-29T10:18:33.83Z</time></trkpt><trkpt lat="45.7223477" lon="9.3943376"><ele>298.6666666666667</ele><time>2026-03-29T10:18:34.84Z</time></trkpt><trkpt lat="45.7224344" lon="9.3942883"><ele>300.0</ele><time>2026-03-29T10:18:35.833Z</time></trkpt><trkpt lat="45.7225415" lon="9.394228"><ele>300.0</ele><time>2026-03-29T10:18:36.836Z</time></trkpt><trkpt lat="45.7226365" lon="9.3941443"><ele>300.0</ele><time>2026-03-29T10:18:37.836Z</time></trkpt><trkpt lat="45.722714" lon="9.3940544"><ele>300.0</ele><time>2026-03-29T10:18:38.827Z</time></trkpt><trkpt lat="45.7227786" lon="9.3939691"><ele>300.0</ele><time>2026-03-29T10:18:39.839Z</time></trkpt><trkpt lat="45.7228362" lon="9.3938903"><ele>300.0</ele><time>2026-03-29T10:18:40.831Z</time></trkpt><trkpt lat="45.722883" lon="9.393815"><ele>300.0</ele><time>2026-03-29T10:18:41.862Z</time></trkpt><trkpt lat="45.7229381" lon="9.3937387"><ele>300.8</ele><time>2026-03-29T10:18:42.832Z</time></trkpt><trkpt lat="45.723004" lon="9.3936392"><ele>301.6</ele><time>2026-03-29T10:18:43.834Z</time></trkpt><trkpt lat="45.7230826" lon="9.3935353"><ele>302.4</ele><time>2026-03-29T10:18:44.83Z</time></trkpt><trkpt lat="45.7231694" lon="9.3934212"><ele>303.2</ele><time>2026-03-29T10:18:45.832Z</time></trkpt><trkpt lat="45.7232599" lon="9.3932956"><ele>304.0</ele><time>2026-03-29T10:18:46.829Z</time></trkpt><trkpt lat="45.7233514" lon="9.3931636"><ele>304.0</ele><time>2026-03-29T10:18:47.83Z</time></trkpt><trkpt lat="45.7234472" lon="9.3930343"><ele>304.0</ele><time>2026-03-29T10:18:48.836Z</time></trkpt><trkpt lat="45.7235458" lon="9.3929147"><ele>304.0</ele><time>2026-03-29T10:18:49.826Z</time></trkpt><trkpt lat="45.7236606" lon="9.3928169"><ele>304.0</ele><time>2026-03-29T10:18:50.823Z</time></trkpt><trkpt lat="45.7237754" lon="9.3927293"><ele>302.0</ele><time>2026-03-29T10:18:51.817Z</time></trkpt><trkpt lat="45.7239172" lon="9.3926981"><ele>300.0</ele><time>2026-03-29T10:18:52.835Z</time></trkpt><trkpt lat="45.7240647" lon="9.3926774"><ele>298.0</ele><time>2026-03-29T10:18:53.98Z</time></trkpt><trkpt lat="45.7242338" lon="9.3926928"><ele>300.5</ele><time>2026-03-29T10:18:54.985Z</time></trkpt><trkpt lat="45.724563" lon="9.3927137"><ele>303.0</ele><time>2026-03-29T10:18:56.847Z</time></trkpt><trkpt lat="45.7247246" lon="9.3926513"><ele>303.0</ele><time>2026-03-29T10:18:57.823Z</time></trkpt><trkpt lat="45.7249007" lon="9.3926295"><ele>303.0</ele><time>2026-03-29T10:18:58.852Z</time></trkpt><trkpt lat="45.7250611" lon="9.3926076"><ele>303.0</ele><time>2026-03-29T10:18:59.85Z</time></trkpt><trkpt lat="45.725202" lon="9.3925679"><ele>308.0</ele><time>2026-03-29T10:19:00.821Z</time></trkpt><trkpt lat="45.7253284" lon="9.3925447"><ele>313.0</ele><time>2026-03-29T10:19:01.823Z</time></trkpt><trkpt lat="45.7254777" lon="9.3924763"><ele>318.0</ele><time>2026-03-29T10:19:02.846Z</time></trkpt><trkpt lat="45.7256252" lon="9.3923684"><ele>318.0</ele><time>2026-03-29T10:19:03.827Z</time></trkpt><trkpt lat="45.7257757" lon="9.3922766"><ele>318.0</ele><time>2026-03-29T10:19:04.855Z</time></trkpt><trkpt lat="45.725911" lon="9.392164"><ele>318.0</ele><time>2026-03-29T10:19:05.822Z</time></trkpt><trkpt lat="45.7260569" lon="9.3920963"><ele>315.75</ele><time>2026-03-29T10:19:06.827Z</time></trkpt><trkpt lat="45.7261994" lon="9.3920217"><ele>313.5</ele><time>2026-03-29T10:19:07.831Z</time></trkpt><trkpt lat="45.7263211" lon="9.3919488"><ele>311.25</ele><time>2026-03-29T10:19:08.828Z</time></trkpt><trkpt lat="45.72641" lon="9.391851"><ele>309.0</ele><time>2026-03-29T10:19:09.824Z</time></trkpt><trkpt lat="45.7265356" lon="9.3917969"><ele>309.0</ele><time>2026-03-29T10:19:10.832Z</time></trkpt><trkpt lat="45.726673" lon="9.3917453"><ele>309.0</ele><time>2026-03-29T10:19:11.823Z</time></trkpt><trkpt lat="45.7267764" lon="9.3917252"><ele>309.0</ele><time>2026-03-29T10:19:12.821Z</time></trkpt><trkpt lat="45.7269029" lon="9.3917536"><ele>309.0</ele><time>2026-03-29T10:19:13.818Z</time></trkpt><trkpt lat="45.7270234" lon="9.3918131"><ele>308.25</ele><time>2026-03-29T10:19:14.835Z</time></trkpt><trkpt lat="45.727153" lon="9.3918824"><ele>307.5</ele><time>2026-03-29T10:19:15.827Z</time></trkpt><trkpt lat="45.7272874" lon="9.3919457"><ele>306.75</ele><time>2026-03-29T10:19:16.82Z</time></trkpt><trkpt lat="45.7274084" lon="9.3919824"><ele>306.0</ele><time>2026-03-29T10:19:17.836Z</time></trkpt><trkpt lat="45.7275203" lon="9.3920107"><ele>306.0</ele><time>2026-03-29T10:19:18.82Z</time></trkpt><trkpt lat="45.7276242" lon="9.3920062"><ele>306.0</ele><time>2026-03-29T10:19:19.825Z</time></trkpt><trkpt lat="45.7277156" lon="9.3919662"><ele>306.0</ele><time>2026-03-29T10:19:20.817Z</time></trkpt><trkpt lat="45.7277803" lon="9.3918663"><ele>306.0</ele><time>2026-03-29T10:19:21.851Z</time></trkpt><trkpt lat="45.7278229" lon="9.3917277"><ele>306.0</ele><time>2026-03-29T10:19:22.826Z</time></trkpt><trkpt lat="45.7278534" lon="9.3915627"><ele>305.8</ele><time>2026-03-29T10:19:23.857Z</time></trkpt><trkpt lat="45.7278831" lon="9.3913923"><ele>305.6</ele><time>2026-03-29T10:19:24.835Z</time></trkpt><trkpt lat="45.7279377" lon="9.3912743"><ele>305.4</ele><time>2026-03-29T10:19:25.829Z</time></trkpt><trkpt lat="45.7280049" lon="9.3911598"><ele>305.2</ele><time>2026-03-29T10:19:26.829Z</time></trkpt><trkpt lat="45.728078" lon="9.3910602"><ele>305.0</ele><time>2026-03-29T10:19:27.834Z</time></trkpt><trkpt lat="45.7281732" lon="9.3909837"><ele>305.0</ele><time>2026-03-29T10:19:28.836Z</time></trkpt><trkpt lat="45.7282806" lon="9.3909276"><ele>305.0</ele><time>2026-03-29T10:19:29.836Z</time></trkpt><trkpt lat="45.7284108" lon="9.3908904"><ele>305.0</ele><time>2026-03-29T10:19:30.837Z</time></trkpt><trkpt lat="45.7285639" lon="9.3908606"><ele>305.0</ele><time>2026-03-29T10:19:31.85Z</time></trkpt><trkpt lat="45.7287291" lon="9.3908366"><ele>305.0</ele><time>2026-03-29T10:19:32.865Z</time></trkpt><trkpt lat="45.7288813" lon="9.3908256"><ele>305.0</ele><time>2026-03-29T10:19:33.841Z</time></trkpt><trkpt lat="45.7290171" lon="9.3907967"><ele>305.0</ele><time>2026-03-29T10:19:34.846Z</time></trkpt><trkpt lat="45.7291332" lon="9.3907807"><ele>305.0</ele><time>2026-03-29T10:19:35.861Z</time></trkpt><trkpt lat="45.7292455" lon="9.3907862"><ele>305.25</ele><time>2026-03-29T10:19:36.843Z</time></trkpt><trkpt lat="45.7293943" lon="9.3908392"><ele>305.5</ele><time>2026-03-29T10:19:37.839Z</time></trkpt><trkpt lat="45.7295397" lon="9.3908882"><ele>305.75</ele><time>2026-03-29T10:19:38.836Z</time></trkpt><trkpt lat="45.7296761" lon="9.3909405"><ele>306.0</ele><time>2026-03-29T10:19:39.836Z</time></trkpt><trkpt lat="45.7298107" lon="9.3910053"><ele>306.0</ele><time>2026-03-29T10:19:40.834Z</time></trkpt><trkpt lat="45.7299241" lon="9.3910694"><ele>306.0</ele><time>2026-03-29T10:19:41.837Z</time></trkpt><trkpt lat="45.7300556" lon="9.3911044"><ele>306.0</ele><time>2026-03-29T10:19:42.829Z</time></trkpt><trkpt lat="45.7301885" lon="9.3911248"><ele>306.0</ele><time>2026-03-29T10:19:43.829Z</time></trkpt><trkpt lat="45.7303133" lon="9.3911199"><ele>306.5</ele><time>2026-03-29T10:19:44.829Z</time></trkpt><trkpt lat="45.7304634" lon="9.391096"><ele>307.0</ele><time>2026-03-29T10:19:45.837Z</time></trkpt><trkpt lat="45.7305987" lon="9.3910457"><ele>307.5</ele><time>2026-03-29T10:19:46.842Z</time></trkpt><trkpt lat="45.7307155" lon="9.391014"><ele>308.0</ele><time>2026-03-29T10:19:47.84Z</time></trkpt><trkpt lat="45.7308263" lon="9.3909905"><ele>308.0</ele><time>2026-03-29T10:19:48.841Z</time></trkpt><trkpt lat="45.730926" lon="9.3909614"><ele>308.0</ele><time>2026-03-29T10:19:49.839Z</time></trkpt><trkpt lat="45.7310154" lon="9.3909329"><ele>308.0</ele><time>2026-03-29T10:19:50.842Z</time></trkpt><trkpt lat="45.7310947" lon="9.3908994"><ele>308.0</ele><time>2026-03-29T10:19:51.836Z</time></trkpt><trkpt lat="45.7311537" lon="9.3908619"><ele>308.0</ele><time>2026-03-29T10:19:52.839Z</time></trkpt><trkpt lat="45.7312378" lon="9.3908271"><ele>308.0</ele><time>2026-03-29T10:19:54.86Z</time></trkpt><trkpt lat="45.7313247" lon="9.3908597"><ele>309.0</ele><time>2026-03-29T10:19:56.832Z</time></trkpt><trkpt lat="45.7314318" lon="9.3908394"><ele>310.0</ele><time>2026-03-29T10:19:58.836Z</time></trkpt><trkpt lat="45.7314622" lon="9.3907551"><ele>311.0</ele><time>2026-03-29T10:19:59.832Z</time></trkpt><trkpt lat="45.7314761" lon="9.3906501"><ele>312.0</ele><time>2026-03-29T10:20:00.846Z</time></trkpt><trkpt lat="45.7314788" lon="9.3905228"><ele>313.0</ele><time>2026-03-29T10:20:01.836Z</time></trkpt><trkpt lat="45.7314712" lon="9.3903672"><ele>314.0</ele><time>2026-03-29T10:20:02.836Z</time></trkpt><trkpt lat="45.7314824" lon="9.3902094"><ele>314.25</ele><time>2026-03-29T10:20:03.83Z</time></trkpt><trkpt lat="45.7315018" lon="9.3900369"><ele>314.5</ele><time>2026-03-29T10:20:04.836Z</time></trkpt><trkpt lat="45.7315121" lon="9.3898527"><ele>314.75</ele><time>2026-03-29T10:20:05.834Z</time></trkpt><trkpt lat="45.7315206" lon="9.3896583"><ele>315.0</ele><time>2026-03-29T10:20:06.832Z</time></trkpt><trkpt lat="45.7315315" lon="9.3894558"><ele>315.0</ele><time>2026-03-29T10:20:07.832Z</time></trkpt><trkpt lat="45.7315483" lon="9.3892609"><ele>315.0</ele><time>2026-03-29T10:20:08.834Z</time></trkpt><trkpt lat="45.7315718" lon="9.3890633"><ele>315.0</ele><time>2026-03-29T10:20:09.84Z</time></trkpt><trkpt lat="45.7316039" lon="9.3888678"><ele>315.0</ele><time>2026-03-29T10:20:10.837Z</time></trkpt><trkpt lat="45.7316348" lon="9.3886494"><ele>315.5</ele><time>2026-03-29T10:20:11.843Z</time></trkpt><trkpt lat="45.7316874" lon="9.3884539"><ele>316.0</ele><time>2026-03-29T10:20:12.837Z</time></trkpt><trkpt lat="45.7317609" lon="9.388276"><ele>316.5</ele><time>2026-03-29T10:20:13.832Z</time></trkpt><trkpt lat="45.7318305" lon="9.3881175"><ele>317.0</ele><time>2026-03-29T10:20:14.832Z</time></trkpt><trkpt lat="45.7319234" lon="9.3879613"><ele>318.6666666666667</ele><time>2026-03-29T10:20:15.838Z</time></trkpt><trkpt lat="45.732033" lon="9.3878338"><ele>320.3333333333333</ele><time>2026-03-29T10:20:16.837Z</time></trkpt><trkpt lat="45.7321599" lon="9.3876892"><ele>322.0</ele><time>2026-03-29T10:20:17.842Z</time></trkpt><trkpt lat="45.7322821" lon="9.3875527"><ele>322.0</ele><time>2026-03-29T10:20:18.84Z</time></trkpt><trkpt lat="45.7324401" lon="9.3874335"><ele>322.0</ele><time>2026-03-29T10:20:19.841Z</time></trkpt><trkpt lat="45.7325965" lon="9.3873302"><ele>322.0</ele><time>2026-03-29T10:20:20.844Z</time></trkpt><trkpt lat="45.7327561" lon="9.3872261"><ele>325.3333333333333</ele><time>2026-03-29T10:20:21.845Z</time></trkpt><trkpt lat="45.7328988" lon="9.3870957"><ele>328.6666666666667</ele><time>2026-03-29T10:20:22.843Z</time></trkpt><trkpt lat="45.7330615" lon="9.3869856"><ele>332.0</ele><time>2026-03-29T10:20:23.841Z</time></trkpt><trkpt lat="45.7332187" lon="9.3868816"><ele>332.0</ele><time>2026-03-29T10:20:24.842Z</time></trkpt><trkpt lat="45.7333864" lon="9.3867691"><ele>332.0</ele><time>2026-03-29T10:20:25.846Z</time></trkpt><trkpt lat="45.7335484" lon="9.3866501"><ele>332.0</ele><time>2026-03-29T10:20:26.841Z</time></trkpt><trkpt lat="45.7337106" lon="9.3864794"><ele>335.33333333333337</ele><time>2026-03-29T10:20:27.837Z</time></trkpt><trkpt lat="45.7338535" lon="9.3862882"><ele>338.6666666666667</ele><time>2026-03-29T10:20:28.832Z</time></trkpt><trkpt lat="45.7339793" lon="9.3860792"><ele>342.0</ele><time>2026-03-29T10:20:29.833Z</time></trkpt><trkpt lat="45.7340771" lon="9.3858617"><ele>342.0</ele><time>2026-03-29T10:20:30.833Z</time></trkpt><trkpt lat="45.7341588" lon="9.3856156"><ele>342.0</ele><time>2026-03-29T10:20:31.831Z</time></trkpt><trkpt lat="45.7342257" lon="9.3853806"><ele>342.0</ele><time>2026-03-29T10:20:32.839Z</time></trkpt><trkpt lat="45.7342942" lon="9.3851412"><ele>342.0</ele><time>2026-03-29T10:20:33.838Z</time></trkpt><trkpt lat="45.7343521" lon="9.384886"><ele>342.0</ele><time>2026-03-29T10:20:34.839Z</time></trkpt><trkpt lat="45.7343969" lon="9.3846154"><ele>342.0</ele><time>2026-03-29T10:20:35.841Z</time></trkpt><trkpt lat="45.7344443" lon="9.3843447"><ele>341.6666666666667</ele><time>2026-03-29T10:20:36.84Z</time></trkpt><trkpt lat="45.7344855" lon="9.3840601"><ele>341.33333333333337</ele><time>2026-03-29T10:20:37.839Z</time></trkpt><trkpt lat="45.734529" lon="9.3837818"><ele>341.0</ele><time>2026-03-29T10:20:38.834Z</time></trkpt><trkpt lat="45.7345582" lon="9.3835035"><ele>341.0</ele><time>2026-03-29T10:20:39.837Z</time></trkpt><trkpt lat="45.7346074" lon="9.383252"><ele>341.0</ele><time>2026-03-29T10:20:40.839Z</time></trkpt><trkpt lat="45.7346701" lon="9.3830132"><ele>341.0</ele><time>2026-03-29T10:20:41.83Z</time></trkpt><trkpt lat="45.7347541" lon="9.3827903"><ele>341.0</ele><time>2026-03-29T10:20:42.83Z</time></trkpt><trkpt lat="45.7348412" lon="9.3825836"><ele>341.0</ele><time>2026-03-29T10:20:43.828Z</time></trkpt><trkpt lat="45.7349518" lon="9.3823877"><ele>341.0</ele><time>2026-03-29T10:20:44.833Z</time></trkpt><trkpt lat="45.7350596" lon="9.3821901"><ele>340.33333333333337</ele><time>2026-03-29T10:20:45.831Z</time></trkpt><trkpt lat="45.7351652" lon="9.3819941"><ele>339.6666666666667</ele><time>2026-03-29T10:20:46.831Z</time></trkpt><trkpt lat="45.7352764" lon="9.3817836"><ele>339.0</ele><time>2026-03-29T10:20:47.835Z</time></trkpt><trkpt lat="45.7353655" lon="9.3815419"><ele>342.3333333333333</ele><time>2026-03-29T10:20:48.826Z</time></trkpt><trkpt lat="45.7354452" lon="9.3813171"><ele>345.66666666666663</ele><time>2026-03-29T10:20:49.83Z</time></trkpt><trkpt lat="45.7355365" lon="9.3810843"><ele>349.0</ele><time>2026-03-29T10:20:50.829Z</time></trkpt><trkpt lat="45.7356106" lon="9.3808493"><ele>349.0</ele><time>2026-03-29T10:20:51.832Z</time></trkpt><trkpt lat="45.7356738" lon="9.3806253"><ele>349.0</ele><time>2026-03-29T10:20:52.829Z</time></trkpt><trkpt lat="45.7357341" lon="9.3804047"><ele>349.0</ele><time>2026-03-29T10:20:53.838Z</time></trkpt><trkpt lat="45.7358222" lon="9.3801781"><ele>347.0</ele><time>2026-03-29T10:20:54.833Z</time></trkpt><trkpt lat="45.7358934" lon="9.3799377"><ele>345.0</ele><time>2026-03-29T10:20:55.833Z</time></trkpt><trkpt lat="45.7359583" lon="9.3796925"><ele>343.0</ele><time>2026-03-29T10:20:56.834Z</time></trkpt><trkpt lat="45.7360257" lon="9.3794736"><ele>347.66666666666663</ele><time>2026-03-29T10:20:57.83Z</time></trkpt><trkpt lat="45.7360873" lon="9.3792772"><ele>352.3333333333333</ele><time>2026-03-29T10:20:58.835Z</time></trkpt><trkpt lat="45.7361506" lon="9.3790764"><ele>357.0</ele><time>2026-03-29T10:20:59.831Z</time></trkpt><trkpt lat="45.7362189" lon="9.3788732"><ele>355.6666666666667</ele><time>2026-03-29T10:21:00.858Z</time></trkpt><trkpt lat="45.736281" lon="9.3786678"><ele>354.33333333333337</ele><time>2026-03-29T10:21:01.833Z</time></trkpt><trkpt lat="45.736338" lon="9.3784543"><ele>353.0</ele><time>2026-03-29T10:21:02.831Z</time></trkpt><trkpt lat="45.7364049" lon="9.3782424"><ele>353.0</ele><time>2026-03-29T10:21:03.838Z</time></trkpt><trkpt lat="45.7364687" lon="9.3780211"><ele>353.0</ele><time>2026-03-29T10:21:04.833Z</time></trkpt><trkpt lat="45.7365121" lon="9.3778212"><ele>353.0</ele><time>2026-03-29T10:21:05.83Z</time></trkpt><trkpt lat="45.7365661" lon="9.3776518"><ele>353.0</ele><time>2026-03-29T10:21:06.828Z</time></trkpt><trkpt lat="45.7366167" lon="9.3774944"><ele>352.75</ele><time>2026-03-29T10:21:07.83Z</time></trkpt><trkpt lat="45.7366544" lon="9.3773466"><ele>352.5</ele><time>2026-03-29T10:21:08.836Z</time></trkpt><trkpt lat="45.7366883" lon="9.3771999"><ele>352.25</ele><time>2026-03-29T10:21:09.835Z</time></trkpt><trkpt lat="45.7367337" lon="9.3770304"><ele>352.0</ele><time>2026-03-29T10:21:10.835Z</time></trkpt><trkpt lat="45.7367907" lon="9.3768517"><ele>352.0</ele><time>2026-03-29T10:21:11.831Z</time></trkpt><trkpt lat="45.7368549" lon="9.3766742"><ele>352.0</ele><time>2026-03-29T10:21:12.829Z</time></trkpt><trkpt lat="45.7369166" lon="9.3764817"><ele>352.0</ele><time>2026-03-29T10:21:13.823Z</time></trkpt><trkpt lat="45.7369682" lon="9.3762833"><ele>352.0</ele><time>2026-03-29T10:21:14.824Z</time></trkpt><trkpt lat="45.7370013" lon="9.3760816"><ele>352.25</ele><time>2026-03-29T10:21:15.828Z</time></trkpt><trkpt lat="45.7370449" lon="9.3758932"><ele>352.5</ele><time>2026-03-29T10:21:16.826Z</time></trkpt><trkpt lat="45.7370721" lon="9.3757145"><ele>352.75</ele><time>2026-03-29T10:21:17.834Z</time></trkpt><trkpt lat="45.7371114" lon="9.3755545"><ele>353.0</ele><time>2026-03-29T10:21:18.827Z</time></trkpt><trkpt lat="45.7371468" lon="9.3753977"><ele>353.0</ele><time>2026-03-29T10:21:19.833Z</time></trkpt><trkpt lat="45.7371906" lon="9.3752662"><ele>353.0</ele><time>2026-03-29T10:21:20.828Z</time></trkpt><trkpt lat="45.737247" lon="9.3751537"><ele>353.0</ele><time>2026-03-29T10:21:21.826Z</time></trkpt><trkpt lat="45.7373149" lon="9.3750639"><ele>353.0</ele><time>2026-03-29T10:21:22.831Z</time></trkpt><trkpt lat="45.7373843" lon="9.3749956"><ele>353.0</ele><time>2026-03-29T10:21:23.836Z</time></trkpt><trkpt lat="45.7374418" lon="9.3749232"><ele>353.0</ele><time>2026-03-29T10:21:24.828Z</time></trkpt><trkpt lat="45.7374538" lon="9.3748212"><ele>353.0</ele><time>2026-03-29T10:21:25.835Z</time></trkpt><trkpt lat="45.7374181" lon="9.3747114"><ele>353.0</ele><time>2026-03-29T10:21:26.83Z</time></trkpt><trkpt lat="45.7373623" lon="9.374614"><ele>353.0</ele><time>2026-03-29T10:21:27.826Z</time></trkpt><trkpt lat="45.7373071" lon="9.3745144"><ele>353.0</ele><time>2026-03-29T10:21:28.832Z</time></trkpt><trkpt lat="45.7372583" lon="9.3743991"><ele>353.0</ele><time>2026-03-29T10:21:29.826Z</time></trkpt><trkpt lat="45.7372481" lon="9.3742471"><ele>351.79999999999995</ele><time>2026-03-29T10:21:30.833Z</time></trkpt><trkpt lat="45.7372452" lon="9.3740958"><ele>350.6</ele><time>2026-03-29T10:21:31.826Z</time></trkpt><trkpt lat="45.7372438" lon="9.3739651"><ele>349.4</ele><time>2026-03-29T10:21:32.835Z</time></trkpt><trkpt lat="45.7372347" lon="9.3738367"><ele>348.20000000000005</ele><time>2026-03-29T10:21:33.832Z</time></trkpt><trkpt lat="45.7372214" lon="9.3737079"><ele>347.0</ele><time>2026-03-29T10:21:34.837Z</time></trkpt><trkpt lat="45.7372156" lon="9.373552"><ele>345.6666666666667</ele><time>2026-03-29T10:21:35.832Z</time></trkpt><trkpt lat="45.7372126" lon="9.3733658"><ele>344.3333333333333</ele><time>2026-03-29T10:21:36.826Z</time></trkpt><trkpt lat="45.7372177" lon="9.3731408"><ele>343.0</ele><time>2026-03-29T10:21:37.851Z</time></trkpt><trkpt lat="45.7371683" lon="9.3727867"><ele>342.0</ele><time>2026-03-29T10:21:38.853Z</time></trkpt><trkpt lat="45.7371612" lon="9.3724995"><ele>341.0</ele><time>2026-03-29T10:21:39.832Z</time></trkpt><trkpt lat="45.737168" lon="9.3722519"><ele>340.0</ele><time>2026-03-29T10:21:40.831Z</time></trkpt><trkpt lat="45.7371667" lon="9.3720296"><ele>340.0</ele><time>2026-03-29T10:21:41.834Z</time></trkpt><trkpt lat="45.7371783" lon="9.3718196"><ele>340.0</ele><time>2026-03-29T10:21:42.858Z</time></trkpt><trkpt lat="45.737189" lon="9.3716218"><ele>340.0</ele><time>2026-03-29T10:21:43.854Z</time></trkpt><trkpt lat="45.7371914" lon="9.3714248"><ele>340.0</ele><time>2026-03-29T10:21:44.835Z</time></trkpt><trkpt lat="45.7371952" lon="9.3712362"><ele>339.75</ele><time>2026-03-29T10:21:45.83Z</time></trkpt><trkpt lat="45.7372093" lon="9.3710392"><ele>339.5</ele><time>2026-03-29T10:21:46.825Z</time></trkpt><trkpt lat="45.7372269" lon="9.3708572"><ele>339.25</ele><time>2026-03-29T10:21:47.828Z</time></trkpt><trkpt lat="45.737234" lon="9.3706766"><ele>339.0</ele><time>2026-03-29T10:21:48.831Z</time></trkpt><trkpt lat="45.7372513" lon="9.3705474"><ele>338.79999999999995</ele><time>2026-03-29T10:21:49.829Z</time></trkpt><trkpt lat="45.7372623" lon="9.3704438"><ele>338.59999999999997</ele><time>2026-03-29T10:21:51.824Z</time></trkpt><trkpt lat="45.7372491" lon="9.3702953"><ele>338.4</ele><time>2026-03-29T10:22:18.841Z</time></trkpt><trkpt lat="45.7372547" lon="9.3701945"><ele>338.2</ele><time>2026-03-29T10:22:19.836Z</time></trkpt><trkpt lat="45.7372441" lon="9.3700583"><ele>338.0</ele><time>2026-03-29T10:22:20.829Z</time></trkpt><trkpt lat="45.737225" lon="9.3698921"><ele>338.0</ele><time>2026-03-29T10:22:21.835Z</time></trkpt><trkpt lat="45.7372153" lon="9.3697306"><ele>338.0</ele><time>2026-03-29T10:22:22.837Z</time></trkpt><trkpt lat="45.7372068" lon="9.3695664"><ele>338.0</ele><time>2026-03-29T10:22:23.838Z</time></trkpt><trkpt lat="45.7371981" lon="9.3693943"><ele>338.0</ele><time>2026-03-29T10:22:24.836Z</time></trkpt><trkpt lat="45.7371855" lon="9.3692103"><ele>337.75</ele><time>2026-03-29T10:22:25.831Z</time></trkpt><trkpt lat="45.7371746" lon="9.3690155"><ele>337.5</ele><time>2026-03-29T10:22:26.834Z</time></trkpt><trkpt lat="45.7371703" lon="9.3688143"><ele>337.25</ele><time>2026-03-29T10:22:27.827Z</time></trkpt><trkpt lat="45.7371713" lon="9.368618"><ele>337.0</ele><time>2026-03-29T10:22:28.837Z</time></trkpt><trkpt lat="45.7371744" lon="9.368421"><ele>336.5</ele><time>2026-03-29T10:22:29.853Z</time></trkpt><trkpt lat="45.7371842" lon="9.3682235"><ele>336.0</ele><time>2026-03-29T10:22:30.832Z</time></trkpt><trkpt lat="45.737201" lon="9.368026"><ele>335.5</ele><time>2026-03-29T10:22:31.856Z</time></trkpt><trkpt lat="45.7372387" lon="9.3678282"><ele>335.0</ele><time>2026-03-29T10:22:32.838Z</time></trkpt><trkpt lat="45.737265" lon="9.3676391"><ele>335.0</ele><time>2026-03-29T10:22:33.836Z</time></trkpt><trkpt lat="45.7373003" lon="9.3674426"><ele>335.0</ele><time>2026-03-29T10:22:34.837Z</time></trkpt><trkpt lat="45.7373468" lon="9.3672573"><ele>335.0</ele><time>2026-03-29T10:22:35.839Z</time></trkpt><trkpt lat="45.7373885" lon="9.3670412"><ele>335.0</ele><time>2026-03-29T10:22:36.839Z</time></trkpt><trkpt lat="45.7374349" lon="9.3668408"><ele>335.0</ele><time>2026-03-29T10:22:37.836Z</time></trkpt><trkpt lat="45.7374973" lon="9.366628"><ele>335.0</ele><time>2026-03-29T10:22:38.834Z</time></trkpt><trkpt lat="45.7375664" lon="9.3664205"><ele>335.0</ele><time>2026-03-29T10:22:39.836Z</time></trkpt><trkpt lat="45.7376354" lon="9.3662121"><ele>335.0</ele><time>2026-03-29T10:22:40.835Z</time></trkpt><trkpt lat="45.7376991" lon="9.3659925"><ele>335.0</ele><time>2026-03-29T10:22:41.838Z</time></trkpt><trkpt lat="45.7377629" lon="9.3657852"><ele>335.0</ele><time>2026-03-29T10:22:42.834Z</time></trkpt><trkpt lat="45.7378179" lon="9.3655837"><ele>334.75</ele><time>2026-03-29T10:22:43.829Z</time></trkpt><trkpt lat="45.7378732" lon="9.3653905"><ele>334.5</ele><time>2026-03-29T10:22:44.837Z</time></trkpt><trkpt lat="45.7379219" lon="9.3652091"><ele>334.25</ele><time>2026-03-29T10:22:45.837Z</time></trkpt><trkpt lat="45.737978" lon="9.3650295"><ele>334.0</ele><time>2026-03-29T10:22:46.849Z</time></trkpt><trkpt lat="45.7380194" lon="9.3648556"><ele>333.75</ele><time>2026-03-29T10:22:47.836Z</time></trkpt><trkpt lat="45.7380614" lon="9.3646858"><ele>333.5</ele><time>2026-03-29T10:22:48.838Z</time></trkpt><trkpt lat="45.7381045" lon="9.3645226"><ele>333.25</ele><time>2026-03-29T10:22:49.834Z</time></trkpt><trkpt lat="45.7381555" lon="9.364353"><ele>333.0</ele><time>2026-03-29T10:22:50.839Z</time></trkpt><trkpt lat="45.7382042" lon="9.3641865"><ele>333.0</ele><time>2026-03-29T10:22:51.84Z</time></trkpt><trkpt lat="45.7382527" lon="9.3640246"><ele>333.0</ele><time>2026-03-29T10:22:52.858Z</time></trkpt><trkpt lat="45.7382806" lon="9.3638582"><ele>333.0</ele><time>2026-03-29T10:22:53.834Z</time></trkpt><trkpt lat="45.7383289" lon="9.3636844"><ele>333.0</ele><time>2026-03-29T10:22:54.836Z</time></trkpt><trkpt lat="45.7383696" lon="9.3635293"><ele>333.1666666666667</ele><time>2026-03-29T10:22:55.837Z</time></trkpt><trkpt lat="45.73841" lon="9.3633983"><ele>333.3333333333333</ele><time>2026-03-29T10:22:56.834Z</time></trkpt><trkpt lat="45.7384439" lon="9.3632806"><ele>333.5</ele><time>2026-03-29T10:22:57.857Z</time></trkpt><trkpt lat="45.7384752" lon="9.363171"><ele>333.66666666666663</ele><time>2026-03-29T10:22:58.86Z</time></trkpt><trkpt lat="45.7385017" lon="9.3630767"><ele>333.8333333333333</ele><time>2026-03-29T10:22:59.842Z</time></trkpt><trkpt lat="45.738522" lon="9.36299"><ele>334.0</ele><time>2026-03-29T10:23:00.847Z</time></trkpt><trkpt lat="45.7385423" lon="9.362894"><ele>334.16666666666663</ele><time>2026-03-29T10:23:01.84Z</time></trkpt><trkpt lat="45.7385707" lon="9.3627804"><ele>334.3333333333333</ele><time>2026-03-29T10:23:02.837Z</time></trkpt><trkpt lat="45.7386051" lon="9.3626657"><ele>334.5</ele><time>2026-03-29T10:23:03.843Z</time></trkpt><trkpt lat="45.7386398" lon="9.3625736"><ele>334.6666666666667</ele><time>2026-03-29T10:23:04.838Z</time></trkpt><trkpt lat="45.7386693" lon="9.3624802"><ele>334.83333333333337</ele><time>2026-03-29T10:23:05.842Z</time></trkpt><trkpt lat="45.7387039" lon="9.362369"><ele>335.0</ele><time>2026-03-29T10:23:06.843Z</time></trkpt><trkpt lat="45.7387358" lon="9.3622445"><ele>335.75</ele><time>2026-03-29T10:23:07.837Z</time></trkpt><trkpt lat="45.7387743" lon="9.3621053"><ele>336.5</ele><time>2026-03-29T10:23:08.84Z</time></trkpt><trkpt lat="45.7388133" lon="9.3619449"><ele>337.25</ele><time>2026-03-29T10:23:09.834Z</time></trkpt><trkpt lat="45.7388593" lon="9.3617564"><ele>338.0</ele><time>2026-03-29T10:23:10.835Z</time></trkpt><trkpt lat="45.7389159" lon="9.3615459"><ele>337.33333333333337</ele><time>2026-03-29T10:23:11.84Z</time></trkpt><trkpt lat="45.738986" lon="9.3613396"><ele>336.6666666666667</ele><time>2026-03-29T10:23:12.836Z</time></trkpt><trkpt lat="45.7390424" lon="9.3611531"><ele>336.0</ele><time>2026-03-29T10:23:13.84Z</time></trkpt><trkpt lat="45.7391009" lon="9.3609422"><ele>336.0</ele><time>2026-03-29T10:23:14.839Z</time></trkpt><trkpt lat="45.7391522" lon="9.3607359"><ele>336.0</ele><time>2026-03-29T10:23:15.836Z</time></trkpt><trkpt lat="45.7392155" lon="9.3605293"><ele>336.0</ele><time>2026-03-29T10:23:16.837Z</time></trkpt><trkpt lat="45.7392668" lon="9.3603251"><ele>336.6666666666667</ele><time>2026-03-29T10:23:17.841Z</time></trkpt><trkpt lat="45.7393124" lon="9.3601132"><ele>337.33333333333337</ele><time>2026-03-29T10:23:18.834Z</time></trkpt><trkpt lat="45.7393641" lon="9.3598894"><ele>338.0</ele><time>2026-03-29T10:23:19.836Z</time></trkpt><trkpt lat="45.7394083" lon="9.359671"><ele>339.33333333333337</ele><time>2026-03-29T10:23:20.84Z</time></trkpt><trkpt lat="45.7394648" lon="9.3594559"><ele>340.6666666666667</ele><time>2026-03-29T10:23:21.836Z</time></trkpt><trkpt lat="45.7395199" lon="9.3592403"><ele>342.0</ele><time>2026-03-29T10:23:22.844Z</time></trkpt><trkpt lat="45.7395782" lon="9.3590208"><ele>341.6666666666667</ele><time>2026-03-29T10:23:23.837Z</time></trkpt><trkpt lat="45.739642" lon="9.3587945"><ele>341.33333333333337</ele><time>2026-03-29T10:23:24.841Z</time></trkpt><trkpt lat="45.7397043" lon="9.3585725"><ele>341.0</ele><time>2026-03-29T10:23:25.839Z</time></trkpt><trkpt lat="45.7397712" lon="9.3583371"><ele>341.0</ele><time>2026-03-29T10:23:26.835Z</time></trkpt><trkpt lat="45.7398248" lon="9.3581329"><ele>341.0</ele><time>2026-03-29T10:23:27.836Z</time></trkpt><trkpt lat="45.7398765" lon="9.3579111"><ele>341.0</ele><time>2026-03-29T10:23:28.839Z</time></trkpt><trkpt lat="45.7399385" lon="9.357691"><ele>342.33333333333337</ele><time>2026-03-29T10:23:29.839Z</time></trkpt><trkpt lat="45.7399962" lon="9.357478"><ele>343.6666666666667</ele><time>2026-03-29T10:23:30.833Z</time></trkpt><trkpt lat="45.7400559" lon="9.3572803"><ele>345.0</ele><time>2026-03-29T10:23:31.842Z</time></trkpt><trkpt lat="45.7401259" lon="9.3570634"><ele>346.0</ele><time>2026-03-29T10:23:32.84Z</time></trkpt><trkpt lat="45.7401895" lon="9.3568435"><ele>347.0</ele><time>2026-03-29T10:23:33.841Z</time></trkpt><trkpt lat="45.7402319" lon="9.3566277"><ele>348.0</ele><time>2026-03-29T10:23:34.84Z</time></trkpt><trkpt lat="45.740289" lon="9.356404"><ele>346.0</ele><time>2026-03-29T10:23:35.837Z</time></trkpt><trkpt lat="45.7403561" lon="9.3561969"><ele>344.0</ele><time>2026-03-29T10:23:36.839Z</time></trkpt><trkpt lat="45.7404396" lon="9.3559852"><ele>342.0</ele><time>2026-03-29T10:23:37.836Z</time></trkpt><trkpt lat="45.7405286" lon="9.3557857"><ele>342.0</ele><time>2026-03-29T10:23:38.834Z</time></trkpt><trkpt lat="45.7406348" lon="9.3555646"><ele>342.0</ele><time>2026-03-29T10:23:39.835Z</time></trkpt><trkpt lat="45.7407315" lon="9.3553434"><ele>342.0</ele><time>2026-03-29T10:23:40.838Z</time></trkpt><trkpt lat="45.7408354" lon="9.3551306"><ele>341.3333333333333</ele><time>2026-03-29T10:23:41.836Z</time></trkpt><trkpt lat="45.7409372" lon="9.35493"><ele>340.66666666666663</ele><time>2026-03-29T10:23:42.834Z</time></trkpt><trkpt lat="45.7410594" lon="9.3547203"><ele>340.0</ele><time>2026-03-29T10:23:43.832Z</time></trkpt><trkpt lat="45.741183" lon="9.3545119"><ele>340.0</ele><time>2026-03-29T10:23:44.832Z</time></trkpt><trkpt lat="45.741296" lon="9.3542944"><ele>340.0</ele><time>2026-03-29T10:23:45.832Z</time></trkpt><trkpt lat="45.7414071" lon="9.3540802"><ele>340.0</ele><time>2026-03-29T10:23:46.835Z</time></trkpt><trkpt lat="45.7415102" lon="9.353874"><ele>341.3333333333333</ele><time>2026-03-29T10:23:47.834Z</time></trkpt><trkpt lat="45.7416012" lon="9.353672"><ele>342.6666666666667</ele><time>2026-03-29T10:23:48.831Z</time></trkpt><trkpt lat="45.7417086" lon="9.3534637"><ele>344.0</ele><time>2026-03-29T10:23:49.834Z</time></trkpt><trkpt lat="45.741804" lon="9.3532516"><ele>342.0</ele><time>2026-03-29T10:23:50.833Z</time></trkpt><trkpt lat="45.741923" lon="9.3530116"><ele>340.0</ele><time>2026-03-29T10:23:51.834Z</time></trkpt><trkpt lat="45.7420187" lon="9.3527814"><ele>338.0</ele><time>2026-03-29T10:23:52.827Z</time></trkpt><trkpt lat="45.7421544" lon="9.3525447"><ele>338.0</ele><time>2026-03-29T10:23:53.828Z</time></trkpt><trkpt lat="45.7422878" lon="9.3523"><ele>338.0</ele><time>2026-03-29T10:23:54.837Z</time></trkpt><trkpt lat="45.7424247" lon="9.3520506"><ele>338.0</ele><time>2026-03-29T10:23:55.824Z</time></trkpt><trkpt lat="45.7425501" lon="9.3518017"><ele>339.6666666666667</ele><time>2026-03-29T10:23:56.822Z</time></trkpt><trkpt lat="45.7426301" lon="9.3515223"><ele>341.3333333333333</ele><time>2026-03-29T10:23:57.839Z</time></trkpt><trkpt lat="45.7426941" lon="9.3512523"><ele>343.0</ele><time>2026-03-29T10:23:58.828Z</time></trkpt><trkpt lat="45.7427607" lon="9.350971"><ele>341.3333333333333</ele><time>2026-03-29T10:23:59.846Z</time></trkpt><trkpt lat="45.7428275" lon="9.350688"><ele>339.6666666666667</ele><time>2026-03-29T10:24:00.851Z</time></trkpt><trkpt lat="45.7429034" lon="9.3503791"><ele>338.0</ele><time>2026-03-29T10:24:01.847Z</time></trkpt><trkpt lat="45.7430067" lon="9.3500942"><ele>338.0</ele><time>2026-03-29T10:24:02.853Z</time></trkpt><trkpt lat="45.7431274" lon="9.3498241"><ele>338.0</ele><time>2026-03-29T10:24:03.828Z</time></trkpt><trkpt lat="45.7432772" lon="9.3495748"><ele>336.0</ele><time>2026-03-29T10:24:04.821Z</time></trkpt><trkpt lat="45.7434388" lon="9.3493525"><ele>334.0</ele><time>2026-03-29T10:24:05.829Z</time></trkpt><trkpt lat="45.7435893" lon="9.349135"><ele>332.0</ele><time>2026-03-29T10:24:06.821Z</time></trkpt><trkpt lat="45.7437707" lon="9.3489526"><ele>338.5</ele><time>2026-03-29T10:24:07.828Z</time></trkpt><trkpt lat="45.7439725" lon="9.3487884"><ele>345.0</ele><time>2026-03-29T10:24:08.835Z</time></trkpt><trkpt lat="45.7441515" lon="9.3485893"><ele>345.0</ele><time>2026-03-29T10:24:09.822Z</time></trkpt><trkpt lat="45.7443427" lon="9.3484084"><ele>345.0</ele><time>2026-03-29T10:24:10.834Z</time></trkpt><trkpt lat="45.7445009" lon="9.3482013"><ele>345.0</ele><time>2026-03-29T10:24:11.826Z</time></trkpt><trkpt lat="45.7446423" lon="9.347989"><ele>342.0</ele><time>2026-03-29T10:24:12.823Z</time></trkpt><trkpt lat="45.7447754" lon="9.3477428"><ele>339.0</ele><time>2026-03-29T10:24:13.85Z</time></trkpt><trkpt lat="45.7449009" lon="9.3474927"><ele>336.0</ele><time>2026-03-29T10:24:14.825Z</time></trkpt><trkpt lat="45.7449919" lon="9.3472327"><ele>338.6666666666667</ele><time>2026-03-29T10:24:15.832Z</time></trkpt><trkpt lat="45.7450621" lon="9.3469658"><ele>341.33333333333337</ele><time>2026-03-29T10:24:16.849Z</time></trkpt><trkpt lat="45.7451408" lon="9.3466817"><ele>344.0</ele><time>2026-03-29T10:24:17.83Z</time></trkpt><trkpt lat="45.7452294" lon="9.3464166"><ele>340.6666666666667</ele><time>2026-03-29T10:24:18.833Z</time></trkpt><trkpt lat="45.7453019" lon="9.3461524"><ele>337.3333333333333</ele><time>2026-03-29T10:24:19.829Z</time></trkpt><trkpt lat="45.745386" lon="9.3458918"><ele>334.0</ele><time>2026-03-29T10:24:20.828Z</time></trkpt><trkpt lat="45.7454787" lon="9.3456244"><ele>339.0</ele><time>2026-03-29T10:24:21.827Z</time></trkpt><trkpt lat="45.7455705" lon="9.3453637"><ele>344.0</ele><time>2026-03-29T10:24:22.829Z</time></trkpt><trkpt lat="45.7456716" lon="9.3451132"><ele>349.0</ele><time>2026-03-29T10:24:23.837Z</time></trkpt><trkpt lat="45.7457846" lon="9.3448896"><ele>345.0</ele><time>2026-03-29T10:24:24.827Z</time></trkpt><trkpt lat="45.7459158" lon="9.344667"><ele>341.0</ele><time>2026-03-29T10:24:25.828Z</time></trkpt><trkpt lat="45.7460507" lon="9.3444332"><ele>337.0</ele><time>2026-03-29T10:24:26.83Z</time></trkpt><trkpt lat="45.7461819" lon="9.3442015"><ele>337.0</ele><time>2026-03-29T10:24:27.83Z</time></trkpt><trkpt lat="45.7463167" lon="9.3439564"><ele>337.0</ele><time>2026-03-29T10:24:28.83Z</time></trkpt><trkpt lat="45.7464505" lon="9.3437153"><ele>337.0</ele><time>2026-03-29T10:24:29.831Z</time></trkpt><trkpt lat="45.7465842" lon="9.3434786"><ele>340.0</ele><time>2026-03-29T10:24:30.831Z</time></trkpt><trkpt lat="45.7467168" lon="9.3432301"><ele>343.0</ele><time>2026-03-29T10:24:31.829Z</time></trkpt><trkpt lat="45.7468524" lon="9.342985"><ele>346.0</ele><time>2026-03-29T10:24:32.85Z</time></trkpt><trkpt lat="45.7469889" lon="9.3427255"><ele>346.0</ele><time>2026-03-29T10:24:33.828Z</time></trkpt><trkpt lat="45.7471121" lon="9.3424491"><ele>346.0</ele><time>2026-03-29T10:24:34.834Z</time></trkpt><trkpt lat="45.7472286" lon="9.3421766"><ele>348.66666666666663</ele><time>2026-03-29T10:24:35.829Z</time></trkpt><trkpt lat="45.7473303" lon="9.3419086"><ele>351.3333333333333</ele><time>2026-03-29T10:24:36.832Z</time></trkpt><trkpt lat="45.7474125" lon="9.3416143"><ele>354.0</ele><time>2026-03-29T10:24:37.825Z</time></trkpt><trkpt lat="45.7474762" lon="9.341324"><ele>354.3333333333333</ele><time>2026-03-29T10:24:38.835Z</time></trkpt><trkpt lat="45.7475439" lon="9.3410396"><ele>354.66666666666663</ele><time>2026-03-29T10:24:39.839Z</time></trkpt><trkpt lat="45.7475834" lon="9.3407484"><ele>355.0</ele><time>2026-03-29T10:24:40.827Z</time></trkpt><trkpt lat="45.7476545" lon="9.3404603"><ele>355.0</ele><time>2026-03-29T10:24:41.875Z</time></trkpt><trkpt lat="45.7477001" lon="9.3401657"><ele>355.0</ele><time>2026-03-29T10:24:42.833Z</time></trkpt><trkpt lat="45.7477631" lon="9.339892"><ele>355.0</ele><time>2026-03-29T10:24:43.834Z</time></trkpt><trkpt lat="45.7478329" lon="9.339594"><ele>352.0</ele><time>2026-03-29T10:24:44.831Z</time></trkpt><trkpt lat="45.7479016" lon="9.3392916"><ele>349.0</ele><time>2026-03-29T10:24:45.834Z</time></trkpt><trkpt lat="45.7479687" lon="9.3389727"><ele>351.5</ele><time>2026-03-29T10:24:46.833Z</time></trkpt><trkpt lat="45.7480764" lon="9.3386699"><ele>354.0</ele><time>2026-03-29T10:24:47.836Z</time></trkpt><trkpt lat="45.7481849" lon="9.3383884"><ele>354.0</ele><time>2026-03-29T10:24:48.839Z</time></trkpt><trkpt lat="45.748307" lon="9.3381297"><ele>354.0</ele><time>2026-03-29T10:24:49.833Z</time></trkpt><trkpt lat="45.748429" lon="9.3378638"><ele>354.0</ele><time>2026-03-29T10:24:50.857Z</time></trkpt><trkpt lat="45.7485436" lon="9.3375995"><ele>352.0</ele><time>2026-03-29T10:24:51.834Z</time></trkpt><trkpt lat="45.7486803" lon="9.3373172"><ele>350.0</ele><time>2026-03-29T10:24:52.84Z</time></trkpt><trkpt lat="45.7487991" lon="9.3370593"><ele>350.0</ele><time>2026-03-29T10:24:53.836Z</time></trkpt><trkpt lat="45.7489075" lon="9.3367813"><ele>350.0</ele><time>2026-03-29T10:24:54.831Z</time></trkpt><trkpt lat="45.7490099" lon="9.3365121"><ele>350.0</ele><time>2026-03-29T10:24:55.84Z</time></trkpt><trkpt lat="45.7490832" lon="9.3362441"><ele>352.0</ele><time>2026-03-29T10:24:56.835Z</time></trkpt><trkpt lat="45.7491411" lon="9.3359853"><ele>354.0</ele><time>2026-03-29T10:24:57.843Z</time></trkpt><trkpt lat="45.7492013" lon="9.3357324"><ele>356.0</ele><time>2026-03-29T10:24:58.834Z</time></trkpt><trkpt lat="45.7492343" lon="9.3354609"><ele>357.33333333333337</ele><time>2026-03-29T10:24:59.839Z</time></trkpt><trkpt lat="45.7492786" lon="9.3352229"><ele>358.6666666666667</ele><time>2026-03-29T10:25:00.835Z</time></trkpt><trkpt lat="45.7493183" lon="9.3349777"><ele>360.0</ele><time>2026-03-29T10:25:01.838Z</time></trkpt><trkpt lat="45.7493591" lon="9.3347484"><ele>357.3333333333333</ele><time>2026-03-29T10:25:02.828Z</time></trkpt><trkpt lat="45.749376" lon="9.3345054"><ele>354.66666666666663</ele><time>2026-03-29T10:25:03.829Z</time></trkpt><trkpt lat="45.7494174" lon="9.3342759"><ele>352.0</ele><time>2026-03-29T10:25:04.857Z</time></trkpt><trkpt lat="45.7494494" lon="9.3340978"><ele>352.0</ele><time>2026-03-29T10:25:05.838Z</time></trkpt><trkpt lat="45.7494924" lon="9.3339403"><ele>352.0</ele><time>2026-03-29T10:25:06.835Z</time></trkpt><trkpt lat="45.7495427" lon="9.3338145"><ele>352.0</ele><time>2026-03-29T10:25:07.839Z</time></trkpt><trkpt lat="45.7495832" lon="9.3337154"><ele>352.0</ele><time>2026-03-29T10:25:08.829Z</time></trkpt><trkpt lat="45.7496109" lon="9.3336251"><ele>352.0</ele><time>2026-03-29T10:25:09.838Z</time></trkpt><trkpt lat="45.7496474" lon="9.333519"><ele>352.3333333333333</ele><time>2026-03-29T10:25:13.868Z</time></trkpt><trkpt lat="45.7496914" lon="9.3334002"><ele>352.66666666666663</ele><time>2026-03-29T10:25:15.836Z</time></trkpt><trkpt lat="45.7497285" lon="9.3333231"><ele>353.0</ele><time>2026-03-29T10:25:16.833Z</time></trkpt><trkpt lat="45.7497709" lon="9.3332187"><ele>353.3333333333333</ele><time>2026-03-29T10:25:17.834Z</time></trkpt><trkpt lat="45.7498134" lon="9.3331044"><ele>353.6666666666667</ele><time>2026-03-29T10:25:18.834Z</time></trkpt><trkpt lat="45.7498329" lon="9.3329967"><ele>354.0</ele><time>2026-03-29T10:25:19.833Z</time></trkpt><trkpt lat="45.7498237" lon="9.3328907"><ele>354.0</ele><time>2026-03-29T10:25:20.839Z</time></trkpt><trkpt lat="45.7497847" lon="9.332781"><ele>354.0</ele><time>2026-03-29T10:25:21.834Z</time></trkpt><trkpt lat="45.7497294" lon="9.3326539"><ele>354.0</ele><time>2026-03-29T10:25:22.836Z</time></trkpt><trkpt lat="45.7496708" lon="9.3325102"><ele>354.0</ele><time>2026-03-29T10:25:23.838Z</time></trkpt><trkpt lat="45.7496275" lon="9.3323404"><ele>354.0</ele><time>2026-03-29T10:25:24.841Z</time></trkpt><trkpt lat="45.7496072" lon="9.3321549"><ele>354.0</ele><time>2026-03-29T10:25:25.836Z</time></trkpt><trkpt lat="45.7496011" lon="9.3319595"><ele>354.0</ele><time>2026-03-29T10:25:26.826Z</time></trkpt><trkpt lat="45.7496223" lon="9.3317455"><ele>354.0</ele><time>2026-03-29T10:25:27.834Z</time></trkpt><trkpt lat="45.7496677" lon="9.3315037"><ele>354.3333333333333</ele><time>2026-03-29T10:25:28.835Z</time></trkpt><trkpt lat="45.749696" lon="9.3312863"><ele>354.66666666666663</ele><time>2026-03-29T10:25:29.834Z</time></trkpt><trkpt lat="45.7497122" lon="9.3310634"><ele>355.0</ele><time>2026-03-29T10:25:30.853Z</time></trkpt><trkpt lat="45.749727" lon="9.3308284"><ele>355.0</ele><time>2026-03-29T10:25:31.828Z</time></trkpt><trkpt lat="45.749741" lon="9.3305823"><ele>355.0</ele><time>2026-03-29T10:25:32.833Z</time></trkpt><trkpt lat="45.7497449" lon="9.3303388"><ele>355.0</ele><time>2026-03-29T10:25:33.827Z</time></trkpt><trkpt lat="45.7497587" lon="9.330101"><ele>355.0</ele><time>2026-03-29T10:25:34.831Z</time></trkpt><trkpt lat="45.7497911" lon="9.3298752"><ele>355.0</ele><time>2026-03-29T10:25:35.829Z</time></trkpt><trkpt lat="45.749809" lon="9.3296472"><ele>355.0</ele><time>2026-03-29T10:25:36.832Z</time></trkpt><trkpt lat="45.749846" lon="9.3294275"><ele>355.0</ele><time>2026-03-29T10:25:37.835Z</time></trkpt><trkpt lat="45.7498962" lon="9.3292069"><ele>355.0</ele><time>2026-03-29T10:25:38.836Z</time></trkpt><trkpt lat="45.7499566" lon="9.3289684"><ele>355.0</ele><time>2026-03-29T10:25:39.834Z</time></trkpt><trkpt lat="45.7500122" lon="9.3287528"><ele>355.0</ele><time>2026-03-29T10:25:40.835Z</time></trkpt><trkpt lat="45.750078" lon="9.3285179"><ele>355.0</ele><time>2026-03-29T10:25:41.837Z</time></trkpt><trkpt lat="45.7501498" lon="9.3282647"><ele>355.0</ele><time>2026-03-29T10:25:42.831Z</time></trkpt><trkpt lat="45.7502278" lon="9.3280224"><ele>354.0</ele><time>2026-03-29T10:25:43.837Z</time></trkpt><trkpt lat="45.7503033" lon="9.3277814"><ele>353.0</ele><time>2026-03-29T10:25:44.833Z</time></trkpt><trkpt lat="45.7503667" lon="9.3275469"><ele>352.0</ele><time>2026-03-29T10:25:45.832Z</time></trkpt><trkpt lat="45.750431" lon="9.3272739"><ele>351.0</ele><time>2026-03-29T10:25:46.833Z</time></trkpt><trkpt lat="45.7505031" lon="9.3270171"><ele>350.0</ele><time>2026-03-29T10:25:47.835Z</time></trkpt><trkpt lat="45.7505701" lon="9.3267794"><ele>349.0</ele><time>2026-03-29T10:25:48.831Z</time></trkpt><trkpt lat="45.7506402" lon="9.3265558"><ele>349.0</ele><time>2026-03-29T10:25:49.836Z</time></trkpt><trkpt lat="45.7506983" lon="9.326343"><ele>349.0</ele><time>2026-03-29T10:25:50.841Z</time></trkpt><trkpt lat="45.7507558" lon="9.3261483"><ele>349.0</ele><time>2026-03-29T10:25:51.839Z</time></trkpt><trkpt lat="45.7508212" lon="9.325959"><ele>349.0</ele><time>2026-03-29T10:25:52.845Z</time></trkpt><trkpt lat="45.750872" lon="9.3257682"><ele>349.0</ele><time>2026-03-29T10:25:53.836Z</time></trkpt><trkpt lat="45.7509106" lon="9.3255809"><ele>349.0</ele><time>2026-03-29T10:25:54.838Z</time></trkpt><trkpt lat="45.7509627" lon="9.3253927"><ele>349.0</ele><time>2026-03-29T10:25:55.842Z</time></trkpt><trkpt lat="45.7510237" lon="9.3252011"><ele>349.0</ele><time>2026-03-29T10:25:56.841Z</time></trkpt><trkpt lat="45.7510685" lon="9.3249967"><ele>349.0</ele><time>2026-03-29T10:25:57.835Z</time></trkpt><trkpt lat="45.7511135" lon="9.3248009"><ele>349.0</ele><time>2026-03-29T10:25:58.847Z</time></trkpt><trkpt lat="45.7511507" lon="9.3246179"><ele>349.0</ele><time>2026-03-29T10:25:59.843Z</time></trkpt><trkpt lat="45.7511992" lon="9.3244404"><ele>348.5</ele><time>2026-03-29T10:26:00.84Z</time></trkpt><trkpt lat="45.7512442" lon="9.3242606"><ele>348.0</ele><time>2026-03-29T10:26:01.838Z</time></trkpt><trkpt lat="45.7513013" lon="9.324089"><ele>347.5</ele><time>2026-03-29T10:26:02.838Z</time></trkpt><trkpt lat="45.751353" lon="9.3239232"><ele>347.0</ele><time>2026-03-29T10:26:03.838Z</time></trkpt><trkpt lat="45.7514079" lon="9.3237575"><ele>347.0</ele><time>2026-03-29T10:26:04.846Z</time></trkpt><trkpt lat="45.7514487" lon="9.3235964"><ele>347.0</ele><time>2026-03-29T10:26:05.838Z</time></trkpt><trkpt lat="45.7514857" lon="9.323418"><ele>347.0</ele><time>2026-03-29T10:26:06.84Z</time></trkpt><trkpt lat="45.7515306" lon="9.323233"><ele>347.0</ele><time>2026-03-29T10:26:07.844Z</time></trkpt><trkpt lat="45.7515779" lon="9.3230497"><ele>346.75</ele><time>2026-03-29T10:26:08.841Z</time></trkpt><trkpt lat="45.7516261" lon="9.3228634"><ele>346.5</ele><time>2026-03-29T10:26:09.842Z</time></trkpt><trkpt lat="45.7516715" lon="9.3226741"><ele>346.25</ele><time>2026-03-29T10:26:10.841Z</time></trkpt><trkpt lat="45.7517089" lon="9.3225039"><ele>346.0</ele><time>2026-03-29T10:26:11.843Z</time></trkpt><trkpt lat="45.7517435" lon="9.322325"><ele>346.3333333333333</ele><time>2026-03-29T10:26:12.841Z</time></trkpt><trkpt lat="45.7517879" lon="9.3221344"><ele>346.6666666666667</ele><time>2026-03-29T10:26:13.835Z</time></trkpt><trkpt lat="45.7518303" lon="9.3219136"><ele>347.0</ele><time>2026-03-29T10:26:14.837Z</time></trkpt><trkpt lat="45.7518977" lon="9.3216865"><ele>347.33333333333337</ele><time>2026-03-29T10:26:15.84Z</time></trkpt><trkpt lat="45.7519733" lon="9.3214512"><ele>347.6666666666667</ele><time>2026-03-29T10:26:16.838Z</time></trkpt><trkpt lat="45.7520481" lon="9.3212245"><ele>348.0</ele><time>2026-03-29T10:26:17.841Z</time></trkpt><trkpt lat="45.7521052" lon="9.3210021"><ele>348.25</ele><time>2026-03-29T10:26:18.836Z</time></trkpt><trkpt lat="45.7521447" lon="9.3208011"><ele>348.5</ele><time>2026-03-29T10:26:19.834Z</time></trkpt><trkpt lat="45.7521943" lon="9.3206329"><ele>348.75</ele><time>2026-03-29T10:26:20.833Z</time></trkpt><trkpt lat="45.7522336" lon="9.320477"><ele>349.0</ele><time>2026-03-29T10:26:21.833Z</time></trkpt><trkpt lat="45.7522816" lon="9.3203169"><ele>348.6</ele><time>2026-03-29T10:26:22.84Z</time></trkpt><trkpt lat="45.7523053" lon="9.3201797"><ele>348.2</ele><time>2026-03-29T10:26:23.831Z</time></trkpt><trkpt lat="45.7523385" lon="9.3200342"><ele>347.8</ele><time>2026-03-29T10:26:24.832Z</time></trkpt><trkpt lat="45.7523851" lon="9.319898"><ele>347.40000000000003</ele><time>2026-03-29T10:26:25.827Z</time></trkpt><trkpt lat="45.7524451" lon="9.3197769"><ele>347.0</ele><time>2026-03-29T10:26:26.829Z</time></trkpt><trkpt lat="45.7525096" lon="9.3196491"><ele>347.0</ele><time>2026-03-29T10:26:27.823Z</time></trkpt><trkpt lat="45.7525588" lon="9.3195318"><ele>347.0</ele><time>2026-03-29T10:26:28.831Z</time></trkpt><trkpt lat="45.7525904" lon="9.3194003"><ele>347.0</ele><time>2026-03-29T10:26:29.837Z</time></trkpt><trkpt lat="45.7526074" lon="9.3192406"><ele>347.0</ele><time>2026-03-29T10:26:30.83Z</time></trkpt><trkpt lat="45.7526262" lon="9.3190692"><ele>347.0</ele><time>2026-03-29T10:26:31.834Z</time></trkpt><trkpt lat="45.7526712" lon="9.3188867"><ele>346.33333333333337</ele><time>2026-03-29T10:26:32.833Z</time></trkpt><trkpt lat="45.7527248" lon="9.3186938"><ele>345.6666666666667</ele><time>2026-03-29T10:26:33.833Z</time></trkpt><trkpt lat="45.752771" lon="9.3184647"><ele>345.0</ele><time>2026-03-29T10:26:34.838Z</time></trkpt><trkpt lat="45.7528194" lon="9.3182343"><ele>345.3333333333333</ele><time>2026-03-29T10:26:35.83Z</time></trkpt><trkpt lat="45.7528754" lon="9.318"><ele>345.66666666666663</ele><time>2026-03-29T10:26:36.831Z</time></trkpt><trkpt lat="45.7529378" lon="9.3177619"><ele>346.0</ele><time>2026-03-29T10:26:37.835Z</time></trkpt><trkpt lat="45.7529938" lon="9.317528"><ele>346.0</ele><time>2026-03-29T10:26:38.834Z</time></trkpt><trkpt lat="45.753049" lon="9.3173125"><ele>346.0</ele><time>2026-03-29T10:26:39.835Z</time></trkpt><trkpt lat="45.7531278" lon="9.3170875"><ele>346.0</ele><time>2026-03-29T10:26:40.836Z</time></trkpt><trkpt lat="45.7532066" lon="9.3168571"><ele>346.0</ele><time>2026-03-29T10:26:41.832Z</time></trkpt><trkpt lat="45.7532766" lon="9.3166298"><ele>346.0</ele><time>2026-03-29T10:26:42.841Z</time></trkpt><trkpt lat="45.7533458" lon="9.3163957"><ele>346.0</ele><time>2026-03-29T10:26:43.838Z</time></trkpt><trkpt lat="45.7534149" lon="9.3161591"><ele>345.66666666666663</ele><time>2026-03-29T10:26:44.839Z</time></trkpt><trkpt lat="45.7534718" lon="9.3159084"><ele>345.3333333333333</ele><time>2026-03-29T10:26:45.834Z</time></trkpt><trkpt lat="45.7535282" lon="9.3156737"><ele>345.0</ele><time>2026-03-29T10:26:46.836Z</time></trkpt><trkpt lat="45.7535896" lon="9.3154398"><ele>345.0</ele><time>2026-03-29T10:26:47.836Z</time></trkpt><trkpt lat="45.7536574" lon="9.3151957"><ele>345.0</ele><time>2026-03-29T10:26:48.841Z</time></trkpt><trkpt lat="45.7537174" lon="9.314958"><ele>345.0</ele><time>2026-03-29T10:26:49.839Z</time></trkpt><trkpt lat="45.7537823" lon="9.3146955"><ele>345.0</ele><time>2026-03-29T10:26:50.835Z</time></trkpt><trkpt lat="45.7538439" lon="9.3144406"><ele>345.0</ele><time>2026-03-29T10:26:51.832Z</time></trkpt><trkpt lat="45.7539119" lon="9.3141851"><ele>345.0</ele><time>2026-03-29T10:26:52.829Z</time></trkpt><trkpt lat="45.7539856" lon="9.3139169"><ele>345.3333333333333</ele><time>2026-03-29T10:26:53.837Z</time></trkpt><trkpt lat="45.7540299" lon="9.3136424"><ele>345.66666666666663</ele><time>2026-03-29T10:26:54.829Z</time></trkpt><trkpt lat="45.754086" lon="9.3133876"><ele>346.0</ele><time>2026-03-29T10:26:55.832Z</time></trkpt><trkpt lat="45.7541525" lon="9.3131252"><ele>346.0</ele><time>2026-03-29T10:26:56.837Z</time></trkpt><trkpt lat="45.7542248" lon="9.3128725"><ele>346.0</ele><time>2026-03-29T10:26:57.834Z</time></trkpt><trkpt lat="45.7543055" lon="9.3126076"><ele>346.0</ele><time>2026-03-29T10:26:58.846Z</time></trkpt><trkpt lat="45.7543831" lon="9.3123498"><ele>346.66666666666663</ele><time>2026-03-29T10:26:59.839Z</time></trkpt><trkpt lat="45.7544393" lon="9.3120846"><ele>347.3333333333333</ele><time>2026-03-29T10:27:00.835Z</time></trkpt><trkpt lat="45.7545062" lon="9.3118147"><ele>348.0</ele><time>2026-03-29T10:27:01.839Z</time></trkpt><trkpt lat="45.7545748" lon="9.3115177"><ele>348.3333333333333</ele><time>2026-03-29T10:27:02.836Z</time></trkpt><trkpt lat="45.7546511" lon="9.3112193"><ele>348.66666666666663</ele><time>2026-03-29T10:27:03.836Z</time></trkpt><trkpt lat="45.7547357" lon="9.3109225"><ele>349.0</ele><time>2026-03-29T10:27:04.834Z</time></trkpt><trkpt lat="45.754827" lon="9.3106304"><ele>349.0</ele><time>2026-03-29T10:27:05.838Z</time></trkpt><trkpt lat="45.7549048" lon="9.3103576"><ele>349.0</ele><time>2026-03-29T10:27:06.834Z</time></trkpt><trkpt lat="45.7549747" lon="9.3100844"><ele>349.0</ele><time>2026-03-29T10:27:07.833Z</time></trkpt><trkpt lat="45.75505" lon="9.3098348"><ele>349.0</ele><time>2026-03-29T10:27:08.83Z</time></trkpt><trkpt lat="45.7551218" lon="9.3095931"><ele>349.0</ele><time>2026-03-29T10:27:09.835Z</time></trkpt><trkpt lat="45.7551808" lon="9.3093684"><ele>349.0</ele><time>2026-03-29T10:27:10.833Z</time></trkpt><trkpt lat="45.7552466" lon="9.3091551"><ele>349.0</ele><time>2026-03-29T10:27:11.832Z</time></trkpt><trkpt lat="45.7553108" lon="9.3089313"><ele>349.0</ele><time>2026-03-29T10:27:12.842Z</time></trkpt><trkpt lat="45.7553565" lon="9.3087288"><ele>349.0</ele><time>2026-03-29T10:27:13.836Z</time></trkpt><trkpt lat="45.7553925" lon="9.308529"><ele>347.5</ele><time>2026-03-29T10:27:14.84Z</time></trkpt><trkpt lat="45.7554046" lon="9.308333"><ele>346.0</ele><time>2026-03-29T10:27:15.84Z</time></trkpt><trkpt lat="45.7554153" lon="9.3081197"><ele>344.5</ele><time>2026-03-29T10:27:16.842Z</time></trkpt><trkpt lat="45.7554052" lon="9.307893"><ele>343.0</ele><time>2026-03-29T10:27:17.84Z</time></trkpt><trkpt lat="45.7553819" lon="9.3076665"><ele>342.3333333333333</ele><time>2026-03-29T10:27:18.843Z</time></trkpt><trkpt lat="45.7553417" lon="9.3074397"><ele>341.6666666666667</ele><time>2026-03-29T10:27:19.838Z</time></trkpt><trkpt lat="45.7553108" lon="9.3072356"><ele>341.0</ele><time>2026-03-29T10:27:20.844Z</time></trkpt><trkpt lat="45.7552613" lon="9.3070332"><ele>340.0</ele><time>2026-03-29T10:27:21.833Z</time></trkpt><trkpt lat="45.7551916" lon="9.3068319"><ele>339.0</ele><time>2026-03-29T10:27:22.838Z</time></trkpt><trkpt lat="45.7551061" lon="9.3066357"><ele>338.0</ele><time>2026-03-29T10:27:23.835Z</time></trkpt><trkpt lat="45.7550034" lon="9.3064506"><ele>337.0</ele><time>2026-03-29T10:27:24.831Z</time></trkpt><trkpt lat="45.7548983" lon="9.3062836"><ele>336.0</ele><time>2026-03-29T10:27:25.843Z</time></trkpt><trkpt lat="45.7547821" lon="9.3061251"><ele>335.0</ele><time>2026-03-29T10:27:26.833Z</time></trkpt><trkpt lat="45.7546727" lon="9.3059993"><ele>335.0</ele><time>2026-03-29T10:27:27.833Z</time></trkpt><trkpt lat="45.7545525" lon="9.3058639"><ele>335.0</ele><time>2026-03-29T10:27:28.851Z</time></trkpt><trkpt lat="45.7544271" lon="9.3057527"><ele>335.0</ele><time>2026-03-29T10:27:29.845Z</time></trkpt><trkpt lat="45.754293" lon="9.3056254"><ele>334.6666666666667</ele><time>2026-03-29T10:27:30.844Z</time></trkpt><trkpt lat="45.7541523" lon="9.3054838"><ele>334.3333333333333</ele><time>2026-03-29T10:27:31.837Z</time></trkpt><trkpt lat="45.7540216" lon="9.3053563"><ele>334.0</ele><time>2026-03-29T10:27:32.841Z</time></trkpt><trkpt lat="45.7538914" lon="9.3052344"><ele>334.0</ele><time>2026-03-29T10:27:33.842Z</time></trkpt><trkpt lat="45.7537498" lon="9.3051106"><ele>334.0</ele><time>2026-03-29T10:27:34.839Z</time></trkpt><trkpt lat="45.7536284" lon="9.3049606"><ele>334.0</ele><time>2026-03-29T10:27:35.84Z</time></trkpt><trkpt lat="45.7534972" lon="9.3048393"><ele>334.66666666666663</ele><time>2026-03-29T10:27:36.844Z</time></trkpt><trkpt lat="45.753374" lon="9.3047072"><ele>335.3333333333333</ele><time>2026-03-29T10:27:37.845Z</time></trkpt><trkpt lat="45.7532441" lon="9.3045766"><ele>336.0</ele><time>2026-03-29T10:27:38.847Z</time></trkpt><trkpt lat="45.7531247" lon="9.3044472"><ele>336.0</ele><time>2026-03-29T10:27:39.853Z</time></trkpt><trkpt lat="45.7530007" lon="9.3043364"><ele>336.0</ele><time>2026-03-29T10:27:40.846Z</time></trkpt><trkpt lat="45.7528725" lon="9.3042096"><ele>336.0</ele><time>2026-03-29T10:27:41.843Z</time></trkpt><trkpt lat="45.752762" lon="9.3041005"><ele>336.0</ele><time>2026-03-29T10:27:42.849Z</time></trkpt><trkpt lat="45.7526395" lon="9.3039732"><ele>334.25</ele><time>2026-03-29T10:27:43.837Z</time></trkpt><trkpt lat="45.7525299" lon="9.3038303"><ele>332.5</ele><time>2026-03-29T10:27:44.844Z</time></trkpt><trkpt lat="45.752454" lon="9.3037205"><ele>330.75</ele><time>2026-03-29T10:27:45.841Z</time></trkpt><trkpt lat="45.7523727" lon="9.3035782"><ele>329.0</ele><time>2026-03-29T10:27:46.833Z</time></trkpt><trkpt lat="45.7523034" lon="9.3034168"><ele>329.0</ele><time>2026-03-29T10:27:47.841Z</time></trkpt><trkpt lat="45.7522686" lon="9.3032229"><ele>329.0</ele><time>2026-03-29T10:27:48.835Z</time></trkpt><trkpt lat="45.7522737" lon="9.3029878"><ele>329.0</ele><time>2026-03-29T10:27:49.831Z</time></trkpt><trkpt lat="45.7523165" lon="9.3027307"><ele>327.6666666666667</ele><time>2026-03-29T10:27:50.841Z</time></trkpt><trkpt lat="45.7523744" lon="9.3024972"><ele>326.3333333333333</ele><time>2026-03-29T10:27:51.831Z</time></trkpt><trkpt lat="45.7524629" lon="9.3022814"><ele>325.0</ele><time>2026-03-29T10:27:52.842Z</time></trkpt><trkpt lat="45.7525628" lon="9.3021301"><ele>325.0</ele><time>2026-03-29T10:27:53.837Z</time></trkpt><trkpt lat="45.7526377" lon="9.3019357"><ele>325.0</ele><time>2026-03-29T10:27:54.829Z</time></trkpt><trkpt lat="45.7527192" lon="9.3017692"><ele>325.0</ele><time>2026-03-29T10:27:55.839Z</time></trkpt><trkpt lat="45.7527741" lon="9.3015781"><ele>325.0</ele><time>2026-03-29T10:27:56.88Z</time></trkpt><trkpt lat="45.7528227" lon="9.3013676"><ele>321.66666666666663</ele><time>2026-03-29T10:27:57.84Z</time></trkpt><trkpt lat="45.7528529" lon="9.3011441"><ele>318.3333333333333</ele><time>2026-03-29T10:27:58.833Z</time></trkpt><trkpt lat="45.7528731" lon="9.3009195"><ele>315.0</ele><time>2026-03-29T10:27:59.834Z</time></trkpt><trkpt lat="45.7528827" lon="9.300698"><ele>313.3333333333333</ele><time>2026-03-29T10:28:00.835Z</time></trkpt><trkpt lat="45.7528767" lon="9.3004671"><ele>311.66666666666663</ele><time>2026-03-29T10:28:01.862Z</time></trkpt><trkpt lat="45.7528525" lon="9.3002205"><ele>310.0</ele><time>2026-03-29T10:28:02.833Z</time></trkpt><trkpt lat="45.7528404" lon="9.2999579"><ele>308.3333333333333</ele><time>2026-03-29T10:28:03.833Z</time></trkpt><trkpt lat="45.7528144" lon="9.299704"><ele>306.6666666666667</ele><time>2026-03-29T10:28:04.835Z</time></trkpt><trkpt lat="45.7528091" lon="9.2994716"><ele>305.0</ele><time>2026-03-29T10:28:05.835Z</time></trkpt><trkpt lat="45.7527947" lon="9.2992344"><ele>305.0</ele><time>2026-03-29T10:28:06.836Z</time></trkpt><trkpt lat="45.7527914" lon="9.2990219"><ele>305.0</ele><time>2026-03-29T10:28:07.839Z</time></trkpt><trkpt lat="45.752759" lon="9.2988017"><ele>305.0</ele><time>2026-03-29T10:28:08.819Z</time></trkpt><trkpt lat="45.752745" lon="9.2985905"><ele>305.25</ele><time>2026-03-29T10:28:09.835Z</time></trkpt><trkpt lat="45.7527398" lon="9.298406"><ele>305.5</ele><time>2026-03-29T10:28:10.835Z</time></trkpt><trkpt lat="45.7527257" lon="9.2982117"><ele>305.75</ele><time>2026-03-29T10:28:11.852Z</time></trkpt><trkpt lat="45.7527258" lon="9.298063"><ele>306.0</ele><time>2026-03-29T10:28:12.858Z</time></trkpt><trkpt lat="45.7527256" lon="9.2979315"><ele>306.0</ele><time>2026-03-29T10:28:13.854Z</time></trkpt><trkpt lat="45.7527302" lon="9.2978152"><ele>306.0</ele><time>2026-03-29T10:28:14.837Z</time></trkpt><trkpt lat="45.7527315" lon="9.2976819"><ele>306.0</ele><time>2026-03-29T10:28:16.831Z</time></trkpt><trkpt lat="45.7527322" lon="9.2975518"><ele>306.0</ele><time>2026-03-29T10:28:18.832Z</time></trkpt><trkpt lat="45.752728" lon="9.2974553"><ele>306.0</ele><time>2026-03-29T10:28:19.831Z</time></trkpt><trkpt lat="45.7527226" lon="9.2973439"><ele>306.0</ele><time>2026-03-29T10:28:20.836Z</time></trkpt><trkpt lat="45.7527167" lon="9.297207"><ele>308.0</ele><time>2026-03-29T10:28:21.834Z</time></trkpt><trkpt lat="45.7527108" lon="9.2970485"><ele>310.0</ele><time>2026-03-29T10:28:22.836Z</time></trkpt><trkpt lat="45.7527012" lon="9.2968805"><ele>312.0</ele><time>2026-03-29T10:28:23.836Z</time></trkpt><trkpt lat="45.7526915" lon="9.2967061"><ele>314.0</ele><time>2026-03-29T10:28:24.833Z</time></trkpt><trkpt lat="45.7526823" lon="9.2965326"><ele>309.0</ele><time>2026-03-29T10:28:25.838Z</time></trkpt><trkpt lat="45.7526703" lon="9.29635"><ele>304.0</ele><time>2026-03-29T10:28:26.832Z</time></trkpt><trkpt lat="45.7526628" lon="9.2961536"><ele>299.0</ele><time>2026-03-29T10:28:27.834Z</time></trkpt><trkpt lat="45.7526567" lon="9.2959506"><ele>294.0</ele><time>2026-03-29T10:28:28.84Z</time></trkpt><trkpt lat="45.752655" lon="9.2957329"><ele>294.25</ele><time>2026-03-29T10:28:29.83Z</time></trkpt><trkpt lat="45.7526653" lon="9.2955474"><ele>294.5</ele><time>2026-03-29T10:28:30.858Z</time></trkpt><trkpt lat="45.7526581" lon="9.2953767"><ele>294.75</ele><time>2026-03-29T10:28:31.836Z</time></trkpt><trkpt lat="45.7526555" lon="9.2952107"><ele>295.0</ele><time>2026-03-29T10:28:32.836Z</time></trkpt><trkpt lat="45.7526756" lon="9.2950364"><ele>295.0</ele><time>2026-03-29T10:28:33.854Z</time></trkpt><trkpt lat="45.7526969" lon="9.294902"><ele>295.0</ele><time>2026-03-29T10:28:34.833Z</time></trkpt><trkpt lat="45.7527012" lon="9.2947513"><ele>295.0</ele><time>2026-03-29T10:28:35.833Z</time></trkpt><trkpt lat="45.7526775" lon="9.2945853"><ele>295.0</ele><time>2026-03-29T10:28:36.832Z</time></trkpt><trkpt lat="45.7526414" lon="9.2944026"><ele>294.75</ele><time>2026-03-29T10:28:37.834Z</time></trkpt><trkpt lat="45.7526151" lon="9.2942148"><ele>294.5</ele><time>2026-03-29T10:28:38.828Z</time></trkpt><trkpt lat="45.7526014" lon="9.2940081"><ele>294.25</ele><time>2026-03-29T10:28:39.832Z</time></trkpt><trkpt lat="45.7526006" lon="9.2937858"><ele>294.0</ele><time>2026-03-29T10:28:40.84Z</time></trkpt><trkpt lat="45.752611" lon="9.2935478"><ele>294.0</ele><time>2026-03-29T10:28:41.855Z</time></trkpt><trkpt lat="45.7526025" lon="9.2933066"><ele>294.0</ele><time>2026-03-29T10:28:42.838Z</time></trkpt><trkpt lat="45.7525713" lon="9.2931027"><ele>294.0</ele><time>2026-03-29T10:28:43.832Z</time></trkpt><trkpt lat="45.7525385" lon="9.2928986"><ele>294.25</ele><time>2026-03-29T10:28:44.837Z</time></trkpt><trkpt lat="45.7525162" lon="9.2927124"><ele>294.5</ele><time>2026-03-29T10:28:45.833Z</time></trkpt><trkpt lat="45.7525032" lon="9.2925259"><ele>294.75</ele><time>2026-03-29T10:28:46.84Z</time></trkpt><trkpt lat="45.7525041" lon="9.292325"><ele>295.0</ele><time>2026-03-29T10:28:47.833Z</time></trkpt><trkpt lat="45.7524986" lon="9.2921397"><ele>295.25</ele><time>2026-03-29T10:28:48.83Z</time></trkpt><trkpt lat="45.7524991" lon="9.2919618"><ele>295.5</ele><time>2026-03-29T10:28:49.834Z</time></trkpt><trkpt lat="45.752486" lon="9.2917561"><ele>295.75</ele><time>2026-03-29T10:28:50.83Z</time></trkpt><trkpt lat="45.7524799" lon="9.2915632"><ele>296.0</ele><time>2026-03-29T10:28:51.833Z</time></trkpt><trkpt lat="45.7524817" lon="9.291378"><ele>295.25</ele><time>2026-03-29T10:28:52.833Z</time></trkpt><trkpt lat="45.7524547" lon="9.2911864"><ele>294.5</ele><time>2026-03-29T10:28:53.829Z</time></trkpt><trkpt lat="45.7524463" lon="9.2909888"><ele>293.75</ele><time>2026-03-29T10:28:54.831Z</time></trkpt><trkpt lat="45.7524666" lon="9.2907988"><ele>293.0</ele><time>2026-03-29T10:28:55.832Z</time></trkpt><trkpt lat="45.7524965" lon="9.2906047"><ele>293.33333333333337</ele><time>2026-03-29T10:28:56.827Z</time></trkpt><trkpt lat="45.7525089" lon="9.2903903"><ele>293.6666666666667</ele><time>2026-03-29T10:28:57.827Z</time></trkpt><trkpt lat="45.7524858" lon="9.2901487"><ele>294.0</ele><time>2026-03-29T10:28:58.826Z</time></trkpt><trkpt lat="45.7524566" lon="9.2899198"><ele>295.0</ele><time>2026-03-29T10:28:59.834Z</time></trkpt><trkpt lat="45.7524074" lon="9.2896789"><ele>296.0</ele><time>2026-03-29T10:29:00.833Z</time></trkpt><trkpt lat="45.7523168" lon="9.2894548"><ele>297.0</ele><time>2026-03-29T10:29:01.834Z</time></trkpt><trkpt lat="45.7522278" lon="9.2892091"><ele>297.0</ele><time>2026-03-29T10:29:02.833Z</time></trkpt><trkpt lat="45.7521186" lon="9.2889976"><ele>297.0</ele><time>2026-03-29T10:29:03.835Z</time></trkpt><trkpt lat="45.752006" lon="9.2887735"><ele>297.0</ele><time>2026-03-29T10:29:04.831Z</time></trkpt><trkpt lat="45.7518558" lon="9.2885918"><ele>297.6666666666667</ele><time>2026-03-29T10:29:05.834Z</time></trkpt><trkpt lat="45.7516952" lon="9.2884012"><ele>298.33333333333337</ele><time>2026-03-29T10:29:06.825Z</time></trkpt><trkpt lat="45.7515653" lon="9.2881689"><ele>299.0</ele><time>2026-03-29T10:29:07.83Z</time></trkpt><trkpt lat="45.751433" lon="9.2879399"><ele>299.0</ele><time>2026-03-29T10:29:08.828Z</time></trkpt><trkpt lat="45.7512824" lon="9.2877046"><ele>299.0</ele><time>2026-03-29T10:29:09.839Z</time></trkpt><trkpt lat="45.7511298" lon="9.2874472"><ele>295.6666666666667</ele><time>2026-03-29T10:29:10.829Z</time></trkpt><trkpt lat="45.7509843" lon="9.2872128"><ele>292.3333333333333</ele><time>2026-03-29T10:29:11.841Z</time></trkpt><trkpt lat="45.7508519" lon="9.2869896"><ele>289.0</ele><time>2026-03-29T10:29:12.829Z</time></trkpt><trkpt lat="45.7507289" lon="9.286777"><ele>289.0</ele><time>2026-03-29T10:29:13.833Z</time></trkpt><trkpt lat="45.7506027" lon="9.2865737"><ele>289.0</ele><time>2026-03-29T10:29:14.835Z</time></trkpt><trkpt lat="45.7504693" lon="9.2863747"><ele>289.0</ele><time>2026-03-29T10:29:15.832Z</time></trkpt><trkpt lat="45.7503598" lon="9.2861679"><ele>289.0</ele><time>2026-03-29T10:29:16.855Z</time></trkpt><trkpt lat="45.7502318" lon="9.2859909"><ele>289.0</ele><time>2026-03-29T10:29:17.831Z</time></trkpt><trkpt lat="45.7501139" lon="9.2858127"><ele>289.0</ele><time>2026-03-29T10:29:18.837Z</time></trkpt><trkpt lat="45.749995" lon="9.2856174"><ele>287.3333333333333</ele><time>2026-03-29T10:29:19.837Z</time></trkpt><trkpt lat="45.7498704" lon="9.2854422"><ele>285.6666666666667</ele><time>2026-03-29T10:29:20.838Z</time></trkpt><trkpt lat="45.749757" lon="9.2852355"><ele>284.0</ele><time>2026-03-29T10:29:21.856Z</time></trkpt><trkpt lat="45.7496413" lon="9.2850227"><ele>284.0</ele><time>2026-03-29T10:29:22.838Z</time></trkpt><trkpt lat="45.7495413" lon="9.2847753"><ele>284.0</ele><time>2026-03-29T10:29:23.829Z</time></trkpt><trkpt lat="45.7494423" lon="9.2845355"><ele>284.0</ele><time>2026-03-29T10:29:24.844Z</time></trkpt><trkpt lat="45.749357" lon="9.2842827"><ele>283.33333333333337</ele><time>2026-03-29T10:29:25.844Z</time></trkpt><trkpt lat="45.7492853" lon="9.2840223"><ele>282.6666666666667</ele><time>2026-03-29T10:29:26.835Z</time></trkpt><trkpt lat="45.7491937" lon="9.2837604"><ele>282.0</ele><time>2026-03-29T10:29:27.836Z</time></trkpt><trkpt lat="45.7491235" lon="9.2834791"><ele>282.0</ele><time>2026-03-29T10:29:28.839Z</time></trkpt><trkpt lat="45.7490662" lon="9.2831916"><ele>282.0</ele><time>2026-03-29T10:29:29.842Z</time></trkpt><trkpt lat="45.7490264" lon="9.2828993"><ele>282.0</ele><time>2026-03-29T10:29:30.84Z</time></trkpt><trkpt lat="45.7489836" lon="9.2825989"><ele>281.6666666666667</ele><time>2026-03-29T10:29:31.834Z</time></trkpt><trkpt lat="45.748924" lon="9.2823469"><ele>281.33333333333337</ele><time>2026-03-29T10:29:32.839Z</time></trkpt><trkpt lat="45.7488577" lon="9.2820962"><ele>281.0</ele><time>2026-03-29T10:29:33.837Z</time></trkpt><trkpt lat="45.748782" lon="9.2818229"><ele>281.0</ele><time>2026-03-29T10:29:34.837Z</time></trkpt><trkpt lat="45.7487142" lon="9.281609"><ele>281.0</ele><time>2026-03-29T10:29:35.837Z</time></trkpt><trkpt lat="45.7486754" lon="9.2813848"><ele>281.0</ele><time>2026-03-29T10:29:36.837Z</time></trkpt><trkpt lat="45.7486305" lon="9.2811541"><ele>280.6666666666667</ele><time>2026-03-29T10:29:37.833Z</time></trkpt><trkpt lat="45.748582" lon="9.2809211"><ele>280.3333333333333</ele><time>2026-03-29T10:29:38.837Z</time></trkpt><trkpt lat="45.7485452" lon="9.2806556"><ele>280.0</ele><time>2026-03-29T10:29:39.834Z</time></trkpt><trkpt lat="45.7485097" lon="9.2804067"><ele>280.3333333333333</ele><time>2026-03-29T10:29:40.84Z</time></trkpt><trkpt lat="45.7484642" lon="9.2801336"><ele>280.6666666666667</ele><time>2026-03-29T10:29:41.833Z</time></trkpt><trkpt lat="45.7484163" lon="9.2798469"><ele>281.0</ele><time>2026-03-29T10:29:42.838Z</time></trkpt><trkpt lat="45.7483629" lon="9.2795519"><ele>281.0</ele><time>2026-03-29T10:29:43.845Z</time></trkpt><trkpt lat="45.748302" lon="9.2792544"><ele>281.0</ele><time>2026-03-29T10:29:44.84Z</time></trkpt><trkpt lat="45.7482459" lon="9.2789646"><ele>281.0</ele><time>2026-03-29T10:29:45.846Z</time></trkpt><trkpt lat="45.748195" lon="9.2786796"><ele>280.33333333333337</ele><time>2026-03-29T10:29:46.837Z</time></trkpt><trkpt lat="45.7481518" lon="9.278403"><ele>279.6666666666667</ele><time>2026-03-29T10:29:47.84Z</time></trkpt><trkpt lat="45.7481001" lon="9.2781262"><ele>279.0</ele><time>2026-03-29T10:29:48.834Z</time></trkpt><trkpt lat="45.7480584" lon="9.2778531"><ele>279.0</ele><time>2026-03-29T10:29:49.836Z</time></trkpt><trkpt lat="45.748023" lon="9.2775867"><ele>279.0</ele><time>2026-03-29T10:29:50.835Z</time></trkpt><trkpt lat="45.7479883" lon="9.2773197"><ele>279.0</ele><time>2026-03-29T10:29:51.837Z</time></trkpt><trkpt lat="45.7479697" lon="9.277048"><ele>278.3333333333333</ele><time>2026-03-29T10:29:52.832Z</time></trkpt><trkpt lat="45.7479643" lon="9.2767713"><ele>277.66666666666663</ele><time>2026-03-29T10:29:53.838Z</time></trkpt><trkpt lat="45.7479764" lon="9.2764932"><ele>277.0</ele><time>2026-03-29T10:29:54.837Z</time></trkpt><trkpt lat="45.7479855" lon="9.2762059"><ele>277.0</ele><time>2026-03-29T10:29:55.838Z</time></trkpt><trkpt lat="45.7479922" lon="9.2759408"><ele>277.0</ele><time>2026-03-29T10:29:56.834Z</time></trkpt><trkpt lat="45.7480139" lon="9.2756641"><ele>277.0</ele><time>2026-03-29T10:29:57.838Z</time></trkpt><trkpt lat="45.748043" lon="9.2753909"><ele>277.0</ele><time>2026-03-29T10:29:58.847Z</time></trkpt><trkpt lat="45.7480709" lon="9.2751154"><ele>277.0</ele><time>2026-03-29T10:29:59.835Z</time></trkpt><trkpt lat="45.7480857" lon="9.2748447"><ele>277.0</ele><time>2026-03-29T10:30:00.833Z</time></trkpt><trkpt lat="45.7480966" lon="9.2745802"><ele>277.3333333333333</ele><time>2026-03-29T10:30:01.854Z</time></trkpt><trkpt lat="45.7481186" lon="9.2743254"><ele>277.6666666666667</ele><time>2026-03-29T10:30:02.827Z</time></trkpt><trkpt lat="45.7481475" lon="9.2741034"><ele>278.0</ele><time>2026-03-29T10:30:03.835Z</time></trkpt><trkpt lat="45.7481834" lon="9.2738869"><ele>278.5</ele><time>2026-03-29T10:30:04.835Z</time></trkpt><trkpt lat="45.7482155" lon="9.2736795"><ele>279.0</ele><time>2026-03-29T10:30:05.835Z</time></trkpt><trkpt lat="45.7482463" lon="9.2735021"><ele>279.5</ele><time>2026-03-29T10:30:06.828Z</time></trkpt><trkpt lat="45.7482661" lon="9.2733514"><ele>280.0</ele><time>2026-03-29T10:30:07.832Z</time></trkpt><trkpt lat="45.7482775" lon="9.2731894"><ele>279.8</ele><time>2026-03-29T10:30:08.835Z</time></trkpt><trkpt lat="45.748283" lon="9.273026"><ele>279.6</ele><time>2026-03-29T10:30:09.839Z</time></trkpt><trkpt lat="45.7482929" lon="9.272899"><ele>279.4</ele><time>2026-03-29T10:30:10.832Z</time></trkpt><trkpt lat="45.7483142" lon="9.2727886"><ele>279.2</ele><time>2026-03-29T10:30:11.832Z</time></trkpt><trkpt lat="45.7483407" lon="9.2726643"><ele>279.0</ele><time>2026-03-29T10:30:12.834Z</time></trkpt><trkpt lat="45.7483465" lon="9.2725316"><ele>279.0</ele><time>2026-03-29T10:30:13.832Z</time></trkpt><trkpt lat="45.7483356" lon="9.2723974"><ele>279.0</ele><time>2026-03-29T10:30:14.833Z</time></trkpt><trkpt lat="45.7483284" lon="9.2722617"><ele>279.0</ele><time>2026-03-29T10:30:15.834Z</time></trkpt><trkpt lat="45.7483365" lon="9.272117"><ele>279.0</ele><time>2026-03-29T10:30:16.833Z</time></trkpt><trkpt lat="45.7483524" lon="9.2719623"><ele>279.0</ele><time>2026-03-29T10:30:17.835Z</time></trkpt><trkpt lat="45.748378" lon="9.2717907"><ele>279.3333333333333</ele><time>2026-03-29T10:30:18.842Z</time></trkpt><trkpt lat="45.7484153" lon="9.2716061"><ele>279.66666666666663</ele><time>2026-03-29T10:30:19.837Z</time></trkpt><trkpt lat="45.7484633" lon="9.2713986"><ele>280.0</ele><time>2026-03-29T10:30:20.834Z</time></trkpt><trkpt lat="45.7485208" lon="9.2711595"><ele>280.5</ele><time>2026-03-29T10:30:21.829Z</time></trkpt><trkpt lat="45.7485695" lon="9.2709558"><ele>281.0</ele><time>2026-03-29T10:30:22.836Z</time></trkpt><trkpt lat="45.7486109" lon="9.2707538"><ele>281.5</ele><time>2026-03-29T10:30:23.832Z</time></trkpt><trkpt lat="45.7486564" lon="9.2705756"><ele>282.0</ele><time>2026-03-29T10:30:24.842Z</time></trkpt><trkpt lat="45.748693" lon="9.2703938"><ele>281.0</ele><time>2026-03-29T10:30:25.838Z</time></trkpt><trkpt lat="45.7487386" lon="9.2702105"><ele>280.0</ele><time>2026-03-29T10:30:26.837Z</time></trkpt><trkpt lat="45.7487794" lon="9.2700329"><ele>279.0</ele><time>2026-03-29T10:30:27.834Z</time></trkpt><trkpt lat="45.7488176" lon="9.269817"><ele>278.0</ele><time>2026-03-29T10:30:28.83Z</time></trkpt><trkpt lat="45.7488731" lon="9.2696218"><ele>277.0</ele><time>2026-03-29T10:30:29.835Z</time></trkpt><trkpt lat="45.7489223" lon="9.2694291"><ele>276.0</ele><time>2026-03-29T10:30:30.831Z</time></trkpt><trkpt lat="45.7489676" lon="9.2692148"><ele>275.0</ele><time>2026-03-29T10:30:31.832Z</time></trkpt><trkpt lat="45.7490009" lon="9.2689812"><ele>274.5</ele><time>2026-03-29T10:30:32.829Z</time></trkpt><trkpt lat="45.7490386" lon="9.2687679"><ele>274.0</ele><time>2026-03-29T10:30:33.824Z</time></trkpt><trkpt lat="45.7490782" lon="9.2685597"><ele>273.5</ele><time>2026-03-29T10:30:34.822Z</time></trkpt><trkpt lat="45.7491348" lon="9.2683695"><ele>273.0</ele><time>2026-03-29T10:30:35.825Z</time></trkpt><trkpt lat="45.7491964" lon="9.2681686"><ele>272.75</ele><time>2026-03-29T10:30:36.814Z</time></trkpt><trkpt lat="45.7492429" lon="9.2679664"><ele>272.5</ele><time>2026-03-29T10:30:37.826Z</time></trkpt><trkpt lat="45.7492935" lon="9.2677655"><ele>272.25</ele><time>2026-03-29T10:30:38.818Z</time></trkpt><trkpt lat="45.7493412" lon="9.2675716"><ele>272.0</ele><time>2026-03-29T10:30:39.819Z</time></trkpt><trkpt lat="45.7493819" lon="9.2673824"><ele>272.0</ele><time>2026-03-29T10:30:40.819Z</time></trkpt><trkpt lat="45.7494247" lon="9.2671879"><ele>272.0</ele><time>2026-03-29T10:30:41.822Z</time></trkpt><trkpt lat="45.7494665" lon="9.2670209"><ele>272.0</ele><time>2026-03-29T10:30:42.822Z</time></trkpt><trkpt lat="45.7494913" lon="9.2668613"><ele>272.0</ele><time>2026-03-29T10:30:43.828Z</time></trkpt><trkpt lat="45.7495077" lon="9.2667101"><ele>272.0</ele><time>2026-03-29T10:30:44.821Z</time></trkpt><trkpt lat="45.7495258" lon="9.2665847"><ele>272.0</ele><time>2026-03-29T10:30:45.816Z</time></trkpt><trkpt lat="45.7495537" lon="9.266472"><ele>272.0</ele><time>2026-03-29T10:30:46.822Z</time></trkpt><trkpt lat="45.7495795" lon="9.2663866"><ele>272.0</ele><time>2026-03-29T10:30:47.818Z</time></trkpt><trkpt lat="45.7496102" lon="9.2662643"><ele>272.0</ele><time>2026-03-29T10:30:49.829Z</time></trkpt><trkpt lat="45.7496506" lon="9.266142"><ele>272.0</ele><time>2026-03-29T10:30:51.84Z</time></trkpt><trkpt lat="45.7496666" lon="9.2660522"><ele>271.0</ele><time>2026-03-29T10:30:52.849Z</time></trkpt><trkpt lat="45.7496693" lon="9.2659474"><ele>270.0</ele><time>2026-03-29T10:30:53.832Z</time></trkpt><trkpt lat="45.7496553" lon="9.2658312"><ele>269.0</ele><time>2026-03-29T10:30:54.83Z</time></trkpt><trkpt lat="45.7496354" lon="9.2656881"><ele>268.0</ele><time>2026-03-29T10:30:55.836Z</time></trkpt><trkpt lat="45.749623" lon="9.2655288"><ele>267.0</ele><time>2026-03-29T10:30:56.855Z</time></trkpt><trkpt lat="45.74959" lon="9.2653812"><ele>266.5</ele><time>2026-03-29T10:30:57.852Z</time></trkpt><trkpt lat="45.7495508" lon="9.2652495"><ele>266.0</ele><time>2026-03-29T10:30:58.845Z</time></trkpt><trkpt lat="45.7495121" lon="9.265135"><ele>265.5</ele><time>2026-03-29T10:30:59.847Z</time></trkpt><trkpt lat="45.7494789" lon="9.2650308"><ele>265.0</ele><time>2026-03-29T10:31:00.843Z</time></trkpt><trkpt lat="45.7494583" lon="9.2649287"><ele>264.5</ele><time>2026-03-29T10:31:01.841Z</time></trkpt><trkpt lat="45.7494545" lon="9.2648224"><ele>264.0</ele><time>2026-03-29T10:31:02.834Z</time></trkpt><trkpt lat="45.7494677" lon="9.2647062"><ele>264.0</ele><time>2026-03-29T10:31:03.832Z</time></trkpt><trkpt lat="45.7494669" lon="9.264576"><ele>264.0</ele><time>2026-03-29T10:31:04.839Z</time></trkpt><trkpt lat="45.7494175" lon="9.2644513"><ele>264.0</ele><time>2026-03-29T10:31:05.842Z</time></trkpt><trkpt lat="45.7493386" lon="9.2643358"><ele>264.0</ele><time>2026-03-29T10:31:06.84Z</time></trkpt><trkpt lat="45.7492557" lon="9.2642164"><ele>264.0</ele><time>2026-03-29T10:31:07.842Z</time></trkpt><trkpt lat="45.7491915" lon="9.2640687"><ele>263.25</ele><time>2026-03-29T10:31:08.838Z</time></trkpt><trkpt lat="45.7491429" lon="9.2639026"><ele>262.5</ele><time>2026-03-29T10:31:09.836Z</time></trkpt><trkpt lat="45.7490931" lon="9.263737"><ele>261.75</ele><time>2026-03-29T10:31:10.836Z</time></trkpt><trkpt lat="45.7490415" lon="9.2635655"><ele>261.0</ele><time>2026-03-29T10:31:11.833Z</time></trkpt><trkpt lat="45.7489905" lon="9.2633857"><ele>261.0</ele><time>2026-03-29T10:31:12.825Z</time></trkpt><trkpt lat="45.7489501" lon="9.2632172"><ele>261.0</ele><time>2026-03-29T10:31:13.826Z</time></trkpt><trkpt lat="45.7489236" lon="9.2630426"><ele>261.0</ele><time>2026-03-29T10:31:14.822Z</time></trkpt><trkpt lat="45.7488898" lon="9.2628635"><ele>261.0</ele><time>2026-03-29T10:31:15.831Z</time></trkpt><trkpt lat="45.7488401" lon="9.2627107"><ele>261.5</ele><time>2026-03-29T10:31:16.827Z</time></trkpt><trkpt lat="45.7487874" lon="9.2625849"><ele>262.0</ele><time>2026-03-29T10:31:17.834Z</time></trkpt><trkpt lat="45.7487298" lon="9.2624862"><ele>262.5</ele><time>2026-03-29T10:31:18.83Z</time></trkpt><trkpt lat="45.7486796" lon="9.2623991"><ele>263.0</ele><time>2026-03-29T10:31:19.832Z</time></trkpt><trkpt lat="45.7486391" lon="9.2622962"><ele>263.5</ele><time>2026-03-29T10:31:20.832Z</time></trkpt><trkpt lat="45.7486193" lon="9.2621708"><ele>264.0</ele><time>2026-03-29T10:31:21.829Z</time></trkpt><trkpt lat="45.7486219" lon="9.2620191"><ele>264.0</ele><time>2026-03-29T10:31:22.832Z</time></trkpt><trkpt lat="45.7486177" lon="9.2618437"><ele>264.0</ele><time>2026-03-29T10:31:23.825Z</time></trkpt><trkpt lat="45.7485945" lon="9.2616576"><ele>264.0</ele><time>2026-03-29T10:31:24.829Z</time></trkpt><trkpt lat="45.7485833" lon="9.2614466"><ele>264.0</ele><time>2026-03-29T10:31:25.83Z</time></trkpt><trkpt lat="45.7485862" lon="9.2612287"><ele>261.6666666666667</ele><time>2026-03-29T10:31:26.832Z</time></trkpt><trkpt lat="45.748663" lon="9.2610212"><ele>259.33333333333337</ele><time>2026-03-29T10:31:27.834Z</time></trkpt><trkpt lat="45.748766" lon="9.2608077"><ele>257.0</ele><time>2026-03-29T10:31:28.845Z</time></trkpt><trkpt lat="45.7488858" lon="9.2606474"><ele>253.33333333333334</ele><time>2026-03-29T10:31:29.831Z</time></trkpt><trkpt lat="45.7490126" lon="9.2605386"><ele>249.66666666666669</ele><time>2026-03-29T10:31:30.835Z</time></trkpt><trkpt lat="45.7491447" lon="9.2604345"><ele>246.0</ele><time>2026-03-29T10:31:31.839Z</time></trkpt><trkpt lat="45.7492792" lon="9.2603187"><ele>250.0</ele><time>2026-03-29T10:31:32.836Z</time></trkpt><trkpt lat="45.7494029" lon="9.2601737"><ele>254.0</ele><time>2026-03-29T10:31:33.831Z</time></trkpt><trkpt lat="45.7495437" lon="9.260042"><ele>258.0</ele><time>2026-03-29T10:31:34.826Z</time></trkpt><trkpt lat="45.7496441" lon="9.2598708"><ele>255.5</ele><time>2026-03-29T10:31:35.854Z</time></trkpt><trkpt lat="45.7497499" lon="9.2597159"><ele>253.0</ele><time>2026-03-29T10:31:36.832Z</time></trkpt><trkpt lat="45.7498444" lon="9.2595575"><ele>250.5</ele><time>2026-03-29T10:31:37.828Z</time></trkpt><trkpt lat="45.7499254" lon="9.2593803"><ele>248.0</ele><time>2026-03-29T10:31:38.833Z</time></trkpt><trkpt lat="45.7499902" lon="9.259221"><ele>248.0</ele><time>2026-03-29T10:31:39.836Z</time></trkpt><trkpt lat="45.7500505" lon="9.2590562"><ele>248.0</ele><time>2026-03-29T10:31:40.831Z</time></trkpt><trkpt lat="45.7501017" lon="9.2589009"><ele>248.0</ele><time>2026-03-29T10:31:41.835Z</time></trkpt><trkpt lat="45.7501419" lon="9.2587639"><ele>248.0</ele><time>2026-03-29T10:31:42.834Z</time></trkpt><trkpt lat="45.7501678" lon="9.2586498"><ele>248.0</ele><time>2026-03-29T10:31:43.835Z</time></trkpt><trkpt lat="45.7501844" lon="9.2585597"><ele>247.60000000000002</ele><time>2026-03-29T10:31:44.84Z</time></trkpt><trkpt lat="45.7502125" lon="9.2584447"><ele>247.20000000000002</ele><time>2026-03-29T10:31:46.83Z</time></trkpt><trkpt lat="45.7502566" lon="9.2583429"><ele>246.8</ele><time>2026-03-29T10:31:49.837Z</time></trkpt><trkpt lat="45.7503458" lon="9.2581932"><ele>246.4</ele><time>2026-03-29T10:31:51.84Z</time></trkpt><trkpt lat="45.7504166" lon="9.2580766"><ele>246.0</ele><time>2026-03-29T10:31:52.831Z</time></trkpt><trkpt lat="45.7504867" lon="9.2579387"><ele>245.5</ele><time>2026-03-29T10:31:53.858Z</time></trkpt><trkpt lat="45.7505557" lon="9.2577743"><ele>245.0</ele><time>2026-03-29T10:31:54.84Z</time></trkpt><trkpt lat="45.7506306" lon="9.2576079"><ele>244.5</ele><time>2026-03-29T10:31:55.838Z</time></trkpt><trkpt lat="45.7507126" lon="9.2574381"><ele>244.0</ele><time>2026-03-29T10:31:56.829Z</time></trkpt><trkpt lat="45.7508164" lon="9.2572501"><ele>243.66666666666666</ele><time>2026-03-29T10:31:57.83Z</time></trkpt><trkpt lat="45.7509115" lon="9.2570525"><ele>243.33333333333331</ele><time>2026-03-29T10:31:58.842Z</time></trkpt><trkpt lat="45.7510044" lon="9.2568783"><ele>243.0</ele><time>2026-03-29T10:31:59.836Z</time></trkpt><trkpt lat="45.751092" lon="9.2567034"><ele>242.33333333333331</ele><time>2026-03-29T10:32:00.837Z</time></trkpt><trkpt lat="45.7511685" lon="9.2565095"><ele>241.66666666666666</ele><time>2026-03-29T10:32:01.836Z</time></trkpt><trkpt lat="45.7512237" lon="9.2563151"><ele>241.0</ele><time>2026-03-29T10:32:02.855Z</time></trkpt><trkpt lat="45.7512636" lon="9.2560983"><ele>240.66666666666666</ele><time>2026-03-29T10:32:03.838Z</time></trkpt><trkpt lat="45.7512912" lon="9.255872"><ele>240.33333333333331</ele><time>2026-03-29T10:32:04.835Z</time></trkpt><trkpt lat="45.7512832" lon="9.2556315"><ele>240.0</ele><time>2026-03-29T10:32:05.846Z</time></trkpt><trkpt lat="45.7512837" lon="9.2554105"><ele>240.0</ele><time>2026-03-29T10:32:06.864Z</time></trkpt><trkpt lat="45.7512683" lon="9.2551764"><ele>240.0</ele><time>2026-03-29T10:32:07.847Z</time></trkpt><trkpt lat="45.751263" lon="9.2548904"><ele>240.0</ele><time>2026-03-29T10:32:08.838Z</time></trkpt><trkpt lat="45.751246" lon="9.254605"><ele>240.33333333333331</ele><time>2026-03-29T10:32:09.834Z</time></trkpt><trkpt lat="45.7512404" lon="9.2543081"><ele>240.66666666666666</ele><time>2026-03-29T10:32:10.84Z</time></trkpt><trkpt lat="45.751248" lon="9.253996"><ele>241.0</ele><time>2026-03-29T10:32:11.838Z</time></trkpt><trkpt lat="45.7512521" lon="9.2537017"><ele>241.33333333333331</ele><time>2026-03-29T10:32:12.837Z</time></trkpt><trkpt lat="45.7512531" lon="9.2534254"><ele>241.66666666666669</ele><time>2026-03-29T10:32:13.838Z</time></trkpt><trkpt lat="45.7512486" lon="9.2531676"><ele>242.0</ele><time>2026-03-29T10:32:14.844Z</time></trkpt><trkpt lat="45.7512346" lon="9.2528878"><ele>242.0</ele><time>2026-03-29T10:32:15.842Z</time></trkpt><trkpt lat="45.7512288" lon="9.2526016"><ele>242.0</ele><time>2026-03-29T10:32:16.832Z</time></trkpt><trkpt lat="45.751243" lon="9.2523173"><ele>242.0</ele><time>2026-03-29T10:32:17.846Z</time></trkpt><trkpt lat="45.7512469" lon="9.2519952"><ele>242.0</ele><time>2026-03-29T10:32:18.84Z</time></trkpt><trkpt lat="45.7512588" lon="9.2516671"><ele>242.0</ele><time>2026-03-29T10:32:19.833Z</time></trkpt><trkpt lat="45.7512744" lon="9.2513533"><ele>242.0</ele><time>2026-03-29T10:32:20.838Z</time></trkpt><trkpt lat="45.7512931" lon="9.2510649"><ele>243.0</ele><time>2026-03-29T10:32:21.843Z</time></trkpt><trkpt lat="45.7512988" lon="9.2507783"><ele>244.0</ele><time>2026-03-29T10:32:22.843Z</time></trkpt><trkpt lat="45.7512862" lon="9.2504903"><ele>245.0</ele><time>2026-03-29T10:32:23.846Z</time></trkpt><trkpt lat="45.7512642" lon="9.2502055"><ele>247.33333333333334</ele><time>2026-03-29T10:32:24.842Z</time></trkpt><trkpt lat="45.7512255" lon="9.2499064"><ele>249.66666666666669</ele><time>2026-03-29T10:32:25.845Z</time></trkpt><trkpt lat="45.751191" lon="9.2496187"><ele>252.0</ele><time>2026-03-29T10:32:26.857Z</time></trkpt><trkpt lat="45.751157" lon="9.249342"><ele>254.33333333333331</ele><time>2026-03-29T10:32:27.838Z</time></trkpt><trkpt lat="45.7511228" lon="9.2490606"><ele>256.66666666666663</ele><time>2026-03-29T10:32:28.834Z</time></trkpt><trkpt lat="45.7511058" lon="9.2487866"><ele>259.0</ele><time>2026-03-29T10:32:29.85Z</time></trkpt><trkpt lat="45.7510909" lon="9.2485171"><ele>258.3333333333333</ele><time>2026-03-29T10:32:30.839Z</time></trkpt><trkpt lat="45.7510518" lon="9.2482419"><ele>257.6666666666667</ele><time>2026-03-29T10:32:31.84Z</time></trkpt><trkpt lat="45.7510251" lon="9.2479709"><ele>257.0</ele><time>2026-03-29T10:32:32.84Z</time></trkpt><trkpt lat="45.7509937" lon="9.2477366"><ele>257.0</ele><time>2026-03-29T10:32:33.831Z</time></trkpt><trkpt lat="45.7509719" lon="9.2475029"><ele>257.0</ele><time>2026-03-29T10:32:34.831Z</time></trkpt><trkpt lat="45.7509537" lon="9.2472811"><ele>257.0</ele><time>2026-03-29T10:32:35.836Z</time></trkpt><trkpt lat="45.7509411" lon="9.2470471"><ele>259.6666666666667</ele><time>2026-03-29T10:32:36.831Z</time></trkpt><trkpt lat="45.7509119" lon="9.2468221"><ele>262.3333333333333</ele><time>2026-03-29T10:32:37.848Z</time></trkpt><trkpt lat="45.7508972" lon="9.246595"><ele>265.0</ele><time>2026-03-29T10:32:38.839Z</time></trkpt><trkpt lat="45.7509013" lon="9.246387"><ele>265.66666666666663</ele><time>2026-03-29T10:32:39.837Z</time></trkpt><trkpt lat="45.7509216" lon="9.246169"><ele>266.3333333333333</ele><time>2026-03-29T10:32:40.837Z</time></trkpt><trkpt lat="45.7509725" lon="9.2459405"><ele>267.0</ele><time>2026-03-29T10:32:41.831Z</time></trkpt><trkpt lat="45.7510231" lon="9.2457243"><ele>267.0</ele><time>2026-03-29T10:32:42.835Z</time></trkpt><trkpt lat="45.7511029" lon="9.2455069"><ele>267.0</ele><time>2026-03-29T10:32:43.834Z</time></trkpt><trkpt lat="45.7511823" lon="9.245291"><ele>267.0</ele><time>2026-03-29T10:32:44.838Z</time></trkpt><trkpt lat="45.7512799" lon="9.2451064"><ele>267.0</ele><time>2026-03-29T10:32:45.827Z</time></trkpt><trkpt lat="45.7514006" lon="9.2449468"><ele>267.0</ele><time>2026-03-29T10:32:46.828Z</time></trkpt><trkpt lat="45.7515471" lon="9.2447965"><ele>267.0</ele><time>2026-03-29T10:32:47.835Z</time></trkpt><trkpt lat="45.7517101" lon="9.2446028"><ele>267.0</ele><time>2026-03-29T10:32:48.852Z</time></trkpt><trkpt lat="45.7518668" lon="9.2444083"><ele>267.0</ele><time>2026-03-29T10:32:49.834Z</time></trkpt><trkpt lat="45.7520178" lon="9.2442281"><ele>267.0</ele><time>2026-03-29T10:32:50.837Z</time></trkpt><trkpt lat="45.7522003" lon="9.2440567"><ele>267.3333333333333</ele><time>2026-03-29T10:32:51.84Z</time></trkpt><trkpt lat="45.7523746" lon="9.2438828"><ele>267.66666666666663</ele><time>2026-03-29T10:32:52.854Z</time></trkpt><trkpt lat="45.752549" lon="9.2436963"><ele>268.0</ele><time>2026-03-29T10:32:53.845Z</time></trkpt><trkpt lat="45.7527102" lon="9.2435048"><ele>268.0</ele><time>2026-03-29T10:32:54.841Z</time></trkpt><trkpt lat="45.7528676" lon="9.2433351"><ele>268.0</ele><time>2026-03-29T10:32:55.842Z</time></trkpt><trkpt lat="45.7530086" lon="9.2431708"><ele>268.0</ele><time>2026-03-29T10:32:56.843Z</time></trkpt><trkpt lat="45.7531428" lon="9.2430189"><ele>270.0</ele><time>2026-03-29T10:32:57.837Z</time></trkpt><trkpt lat="45.7532643" lon="9.2428792"><ele>272.0</ele><time>2026-03-29T10:32:58.844Z</time></trkpt><trkpt lat="45.7533891" lon="9.2427526"><ele>274.0</ele><time>2026-03-29T10:32:59.842Z</time></trkpt><trkpt lat="45.7535006" lon="9.2426182"><ele>273.5</ele><time>2026-03-29T10:33:00.868Z</time></trkpt><trkpt lat="45.753609" lon="9.2424683"><ele>273.0</ele><time>2026-03-29T10:33:01.841Z</time></trkpt><trkpt lat="45.7537131" lon="9.2423493"><ele>272.5</ele><time>2026-03-29T10:33:02.843Z</time></trkpt><trkpt lat="45.7538218" lon="9.2422502"><ele>272.0</ele><time>2026-03-29T10:33:03.843Z</time></trkpt><trkpt lat="45.7539193" lon="9.2421404"><ele>275.0</ele><time>2026-03-29T10:33:04.839Z</time></trkpt><trkpt lat="45.7540197" lon="9.2420079"><ele>278.0</ele><time>2026-03-29T10:33:05.841Z</time></trkpt><trkpt lat="45.7541114" lon="9.2418929"><ele>281.0</ele><time>2026-03-29T10:33:06.845Z</time></trkpt><trkpt lat="45.7542131" lon="9.2417844"><ele>284.0</ele><time>2026-03-29T10:33:07.84Z</time></trkpt><trkpt lat="45.7543076" lon="9.2416676"><ele>285.0</ele><time>2026-03-29T10:33:08.842Z</time></trkpt><trkpt lat="45.7543969" lon="9.2415525"><ele>286.0</ele><time>2026-03-29T10:33:09.838Z</time></trkpt><trkpt lat="45.7544857" lon="9.2414456"><ele>287.0</ele><time>2026-03-29T10:33:10.837Z</time></trkpt><trkpt lat="45.754563" lon="9.2413535"><ele>288.0</ele><time>2026-03-29T10:33:11.84Z</time></trkpt><trkpt lat="45.7546239" lon="9.2412734"><ele>289.0</ele><time>2026-03-29T10:33:12.834Z</time></trkpt><trkpt lat="45.7546704" lon="9.2412118"><ele>289.0</ele><time>2026-03-29T10:33:13.842Z</time></trkpt><trkpt lat="45.7547118" lon="9.2411369"><ele>289.0</ele><time>2026-03-29T10:33:22.834Z</time></trkpt><trkpt lat="45.75479" lon="9.2410151"><ele>289.0</ele><time>2026-03-29T10:33:25.874Z</time></trkpt><trkpt lat="45.7548671" lon="9.2409195"><ele>289.0</ele><time>2026-03-29T10:33:26.855Z</time></trkpt><trkpt lat="45.7549804" lon="9.2407869"><ele>289.0</ele><time>2026-03-29T10:33:27.858Z</time></trkpt><trkpt lat="45.7550972" lon="9.2406504"><ele>290.3333333333333</ele><time>2026-03-29T10:33:28.838Z</time></trkpt><trkpt lat="45.7552427" lon="9.2404874"><ele>291.6666666666667</ele><time>2026-03-29T10:33:29.836Z</time></trkpt><trkpt lat="45.7553665" lon="9.2403309"><ele>293.0</ele><time>2026-03-29T10:33:30.837Z</time></trkpt><trkpt lat="45.7554558" lon="9.240245"><ele>293.0</ele><time>2026-03-29T10:33:31.836Z</time></trkpt><trkpt lat="45.7555472" lon="9.2401542"><ele>293.0</ele><time>2026-03-29T10:33:32.829Z</time></trkpt><trkpt lat="45.7556242" lon="9.2400655"><ele>293.0</ele><time>2026-03-29T10:33:33.829Z</time></trkpt><trkpt lat="45.7556973" lon="9.2399744"><ele>293.0</ele><time>2026-03-29T10:33:34.839Z</time></trkpt><trkpt lat="45.7557779" lon="9.2398825"><ele>293.0</ele><time>2026-03-29T10:33:35.833Z</time></trkpt><trkpt lat="45.7558599" lon="9.2397942"><ele>293.75</ele><time>2026-03-29T10:33:36.829Z</time></trkpt><trkpt lat="45.755945" lon="9.2396979"><ele>294.5</ele><time>2026-03-29T10:33:37.834Z</time></trkpt><trkpt lat="45.756036" lon="9.239593"><ele>295.25</ele><time>2026-03-29T10:33:38.83Z</time></trkpt><trkpt lat="45.756129" lon="9.2394906"><ele>296.0</ele><time>2026-03-29T10:33:39.831Z</time></trkpt><trkpt lat="45.756226" lon="9.2393874"><ele>296.0</ele><time>2026-03-29T10:33:40.833Z</time></trkpt><trkpt lat="45.7563282" lon="9.2392925"><ele>296.0</ele><time>2026-03-29T10:33:41.834Z</time></trkpt><trkpt lat="45.7564275" lon="9.2391961"><ele>296.0</ele><time>2026-03-29T10:33:42.834Z</time></trkpt><trkpt lat="45.756532" lon="9.239094"><ele>296.0</ele><time>2026-03-29T10:33:43.837Z</time></trkpt><trkpt lat="45.7566467" lon="9.2389826"><ele>298.6666666666667</ele><time>2026-03-29T10:33:44.828Z</time></trkpt><trkpt lat="45.7567752" lon="9.2388532"><ele>301.3333333333333</ele><time>2026-03-29T10:33:45.83Z</time></trkpt><trkpt lat="45.7569225" lon="9.2387297"><ele>304.0</ele><time>2026-03-29T10:33:46.833Z</time></trkpt><trkpt lat="45.7570514" lon="9.2386345"><ele>304.0</ele><time>2026-03-29T10:33:47.836Z</time></trkpt><trkpt lat="45.757171" lon="9.2385312"><ele>304.0</ele><time>2026-03-29T10:33:48.837Z</time></trkpt><trkpt lat="45.7572865" lon="9.2384144"><ele>304.0</ele><time>2026-03-29T10:33:49.834Z</time></trkpt><trkpt lat="45.7574127" lon="9.2382917"><ele>304.0</ele><time>2026-03-29T10:33:50.836Z</time></trkpt><trkpt lat="45.7575215" lon="9.238182"><ele>305.0</ele><time>2026-03-29T10:33:51.85Z</time></trkpt><trkpt lat="45.7576353" lon="9.2380817"><ele>306.0</ele><time>2026-03-29T10:33:52.841Z</time></trkpt><trkpt lat="45.7577442" lon="9.2379713"><ele>307.0</ele><time>2026-03-29T10:33:53.839Z</time></trkpt><trkpt lat="45.7578791" lon="9.2378585"><ele>308.0</ele><time>2026-03-29T10:33:54.844Z</time></trkpt><trkpt lat="45.7580037" lon="9.2377161"><ele>308.0</ele><time>2026-03-29T10:33:55.837Z</time></trkpt><trkpt lat="45.7580871" lon="9.2375483"><ele>308.0</ele><time>2026-03-29T10:33:56.831Z</time></trkpt><trkpt lat="45.7581748" lon="9.2373823"><ele>308.0</ele><time>2026-03-29T10:33:57.837Z</time></trkpt><trkpt lat="45.7582249" lon="9.2371748"><ele>308.0</ele><time>2026-03-29T10:33:58.84Z</time></trkpt><trkpt lat="45.7582289" lon="9.2369504"><ele>308.5</ele><time>2026-03-29T10:33:59.843Z</time></trkpt><trkpt lat="45.7582153" lon="9.2367349"><ele>309.0</ele><time>2026-03-29T10:34:00.844Z</time></trkpt><trkpt lat="45.7581808" lon="9.2365462"><ele>309.5</ele><time>2026-03-29T10:34:01.841Z</time></trkpt><trkpt lat="45.7581368" lon="9.2363595"><ele>310.0</ele><time>2026-03-29T10:34:02.836Z</time></trkpt><trkpt lat="45.7580626" lon="9.2361535"><ele>310.66666666666663</ele><time>2026-03-29T10:34:03.839Z</time></trkpt><trkpt lat="45.7579523" lon="9.2359431"><ele>311.3333333333333</ele><time>2026-03-29T10:34:04.866Z</time></trkpt><trkpt lat="45.757835" lon="9.2356838"><ele>312.0</ele><time>2026-03-29T10:34:05.834Z</time></trkpt><trkpt lat="45.7577195" lon="9.2354242"><ele>311.6666666666667</ele><time>2026-03-29T10:34:06.842Z</time></trkpt><trkpt lat="45.7575978" lon="9.2351609"><ele>311.33333333333337</ele><time>2026-03-29T10:34:07.842Z</time></trkpt><trkpt lat="45.7574699" lon="9.2349175"><ele>311.0</ele><time>2026-03-29T10:34:08.838Z</time></trkpt><trkpt lat="45.7573481" lon="9.23471"><ele>312.6666666666667</ele><time>2026-03-29T10:34:09.836Z</time></trkpt><trkpt lat="45.757228" lon="9.2345224"><ele>314.3333333333333</ele><time>2026-03-29T10:34:10.841Z</time></trkpt><trkpt lat="45.7571217" lon="9.2342922"><ele>316.0</ele><time>2026-03-29T10:34:11.839Z</time></trkpt><trkpt lat="45.7570199" lon="9.2340832"><ele>316.25</ele><time>2026-03-29T10:34:12.855Z</time></trkpt><trkpt lat="45.7569487" lon="9.2339318"><ele>316.5</ele><time>2026-03-29T10:34:13.837Z</time></trkpt><trkpt lat="45.7569006" lon="9.2337554"><ele>316.75</ele><time>2026-03-29T10:34:14.839Z</time></trkpt><trkpt lat="45.7568954" lon="9.2335312"><ele>317.0</ele><time>2026-03-29T10:34:15.864Z</time></trkpt><trkpt lat="45.7568928" lon="9.233316"><ele>317.33333333333337</ele><time>2026-03-29T10:34:16.847Z</time></trkpt><trkpt lat="45.7568855" lon="9.2331099"><ele>317.6666666666667</ele><time>2026-03-29T10:34:17.856Z</time></trkpt><trkpt lat="45.7568792" lon="9.2329006"><ele>318.0</ele><time>2026-03-29T10:34:18.843Z</time></trkpt><trkpt lat="45.7568628" lon="9.2326713"><ele>318.6666666666667</ele><time>2026-03-29T10:34:19.846Z</time></trkpt><trkpt lat="45.7568549" lon="9.232431"><ele>319.33333333333337</ele><time>2026-03-29T10:34:20.843Z</time></trkpt><trkpt lat="45.7568336" lon="9.2321719"><ele>320.0</ele><time>2026-03-29T10:34:21.843Z</time></trkpt><trkpt lat="45.7568206" lon="9.231908"><ele>321.0</ele><time>2026-03-29T10:34:22.842Z</time></trkpt><trkpt lat="45.7568133" lon="9.2316239"><ele>322.0</ele><time>2026-03-29T10:34:23.845Z</time></trkpt><trkpt lat="45.7568056" lon="9.2313243"><ele>323.0</ele><time>2026-03-29T10:34:24.853Z</time></trkpt><trkpt lat="45.7567923" lon="9.2310239"><ele>323.6666666666667</ele><time>2026-03-29T10:34:25.85Z</time></trkpt><trkpt lat="45.7567844" lon="9.2307328"><ele>324.3333333333333</ele><time>2026-03-29T10:34:26.842Z</time></trkpt><trkpt lat="45.7567758" lon="9.2304364"><ele>325.0</ele><time>2026-03-29T10:34:27.844Z</time></trkpt><trkpt lat="45.7567656" lon="9.2301494"><ele>325.3333333333333</ele><time>2026-03-29T10:34:28.862Z</time></trkpt><trkpt lat="45.7567624" lon="9.2298804"><ele>325.6666666666667</ele><time>2026-03-29T10:34:29.843Z</time></trkpt><trkpt lat="45.7567457" lon="9.2296174"><ele>326.0</ele><time>2026-03-29T10:34:30.845Z</time></trkpt><trkpt lat="45.7567406" lon="9.2293707"><ele>326.0</ele><time>2026-03-29T10:34:31.836Z</time></trkpt><trkpt lat="45.7567323" lon="9.2291556"><ele>326.0</ele><time>2026-03-29T10:34:32.836Z</time></trkpt><trkpt lat="45.7567374" lon="9.2289408"><ele>326.0</ele><time>2026-03-29T10:34:33.841Z</time></trkpt><trkpt lat="45.7567373" lon="9.228741"><ele>326.0</ele><time>2026-03-29T10:34:34.84Z</time></trkpt><trkpt lat="45.7567386" lon="9.2285252"><ele>327.0</ele><time>2026-03-29T10:34:35.839Z</time></trkpt><trkpt lat="45.7567528" lon="9.2282977"><ele>328.0</ele><time>2026-03-29T10:34:36.838Z</time></trkpt><trkpt lat="45.7567609" lon="9.2280385"><ele>329.0</ele><time>2026-03-29T10:34:37.838Z</time></trkpt><trkpt lat="45.7567894" lon="9.2277676"><ele>329.33333333333337</ele><time>2026-03-29T10:34:38.834Z</time></trkpt><trkpt lat="45.7568203" lon="9.2274955"><ele>329.6666666666667</ele><time>2026-03-29T10:34:39.839Z</time></trkpt><trkpt lat="45.7568751" lon="9.2272579"><ele>330.0</ele><time>2026-03-29T10:34:40.835Z</time></trkpt><trkpt lat="45.7569524" lon="9.2270227"><ele>329.0</ele><time>2026-03-29T10:34:41.841Z</time></trkpt><trkpt lat="45.7570373" lon="9.2267763"><ele>328.0</ele><time>2026-03-29T10:34:42.835Z</time></trkpt><trkpt lat="45.7571518" lon="9.2265688"><ele>327.0</ele><time>2026-03-29T10:34:43.836Z</time></trkpt><trkpt lat="45.7572677" lon="9.2263852"><ele>327.0</ele><time>2026-03-29T10:34:44.839Z</time></trkpt><trkpt lat="45.757363" lon="9.2262157"><ele>327.0</ele><time>2026-03-29T10:34:45.839Z</time></trkpt><trkpt lat="45.7574683" lon="9.2260379"><ele>327.0</ele><time>2026-03-29T10:34:46.843Z</time></trkpt><trkpt lat="45.7576079" lon="9.2258889"><ele>327.0</ele><time>2026-03-29T10:34:47.833Z</time></trkpt><trkpt lat="45.7576989" lon="9.2257014"><ele>327.0</ele><time>2026-03-29T10:34:48.834Z</time></trkpt><trkpt lat="45.7577863" lon="9.2255045"><ele>327.0</ele><time>2026-03-29T10:34:49.829Z</time></trkpt><trkpt lat="45.7578716" lon="9.2253351"><ele>325.6666666666667</ele><time>2026-03-29T10:34:50.83Z</time></trkpt><trkpt lat="45.7579271" lon="9.2250625"><ele>324.33333333333337</ele><time>2026-03-29T10:34:51.817Z</time></trkpt><trkpt lat="45.7579241" lon="9.2247776"><ele>323.0</ele><time>2026-03-29T10:34:52.837Z</time></trkpt><trkpt lat="45.757923" lon="9.2245879"><ele>323.0</ele><time>2026-03-29T10:34:53.833Z</time></trkpt><trkpt lat="45.7579207" lon="9.2243578"><ele>323.0</ele><time>2026-03-29T10:34:54.832Z</time></trkpt><trkpt lat="45.7578874" lon="9.2241153"><ele>323.0</ele><time>2026-03-29T10:34:55.838Z</time></trkpt><trkpt lat="45.757855" lon="9.2238627"><ele>324.0</ele><time>2026-03-29T10:34:56.837Z</time></trkpt><trkpt lat="45.7578554" lon="9.2236083"><ele>325.0</ele><time>2026-03-29T10:34:57.829Z</time></trkpt><trkpt lat="45.7578947" lon="9.2233443"><ele>326.0</ele><time>2026-03-29T10:34:58.844Z</time></trkpt><trkpt lat="45.7579462" lon="9.223126"><ele>328.0</ele><time>2026-03-29T10:34:59.846Z</time></trkpt><trkpt lat="45.7579979" lon="9.2229246"><ele>330.0</ele><time>2026-03-29T10:35:00.836Z</time></trkpt><trkpt lat="45.7580535" lon="9.222729"><ele>332.0</ele><time>2026-03-29T10:35:01.836Z</time></trkpt><trkpt lat="45.7581119" lon="9.2225149"><ele>333.0</ele><time>2026-03-29T10:35:02.84Z</time></trkpt><trkpt lat="45.7581925" lon="9.2222796"><ele>334.0</ele><time>2026-03-29T10:35:03.838Z</time></trkpt><trkpt lat="45.7582729" lon="9.2220438"><ele>335.0</ele><time>2026-03-29T10:35:04.838Z</time></trkpt><trkpt lat="45.7583573" lon="9.2218128"><ele>335.0</ele><time>2026-03-29T10:35:05.835Z</time></trkpt><trkpt lat="45.7584428" lon="9.2216088"><ele>335.0</ele><time>2026-03-29T10:35:06.841Z</time></trkpt><trkpt lat="45.7585256" lon="9.2214093"><ele>335.0</ele><time>2026-03-29T10:35:07.836Z</time></trkpt><trkpt lat="45.7586352" lon="9.2212061"><ele>335.33333333333337</ele><time>2026-03-29T10:35:08.834Z</time></trkpt><trkpt lat="45.7587286" lon="9.2210201"><ele>335.6666666666667</ele><time>2026-03-29T10:35:09.838Z</time></trkpt><trkpt lat="45.7588142" lon="9.2208456"><ele>336.0</ele><time>2026-03-29T10:35:10.841Z</time></trkpt><trkpt lat="45.7589015" lon="9.2206599"><ele>336.5</ele><time>2026-03-29T10:35:11.834Z</time></trkpt><trkpt lat="45.7589868" lon="9.2205021"><ele>337.0</ele><time>2026-03-29T10:35:12.85Z</time></trkpt><trkpt lat="45.7590674" lon="9.2203491"><ele>337.5</ele><time>2026-03-29T10:35:13.843Z</time></trkpt><trkpt lat="45.7591365" lon="9.2201881"><ele>338.0</ele><time>2026-03-29T10:35:14.841Z</time></trkpt><trkpt lat="45.7591848" lon="9.2200065"><ele>338.6666666666667</ele><time>2026-03-29T10:35:15.837Z</time></trkpt><trkpt lat="45.7592101" lon="9.2197928"><ele>339.3333333333333</ele><time>2026-03-29T10:35:16.837Z</time></trkpt><trkpt lat="45.7592299" lon="9.2195578"><ele>340.0</ele><time>2026-03-29T10:35:17.843Z</time></trkpt><trkpt lat="45.7592528" lon="9.219254"><ele>339.0</ele><time>2026-03-29T10:35:18.832Z</time></trkpt><trkpt lat="45.7592573" lon="9.2189526"><ele>338.0</ele><time>2026-03-29T10:35:19.842Z</time></trkpt><trkpt lat="45.7592842" lon="9.2186641"><ele>337.0</ele><time>2026-03-29T10:35:20.831Z</time></trkpt><trkpt lat="45.759296" lon="9.2183752"><ele>336.0</ele><time>2026-03-29T10:35:21.837Z</time></trkpt><trkpt lat="45.7593046" lon="9.2181174"><ele>335.0</ele><time>2026-03-29T10:35:22.838Z</time></trkpt><trkpt lat="45.7593207" lon="9.2178579"><ele>334.0</ele><time>2026-03-29T10:35:23.84Z</time></trkpt><trkpt lat="45.7593335" lon="9.2176238"><ele>334.0</ele><time>2026-03-29T10:35:24.849Z</time></trkpt><trkpt lat="45.7593486" lon="9.2173947"><ele>334.0</ele><time>2026-03-29T10:35:25.832Z</time></trkpt><trkpt lat="45.7593674" lon="9.2171704"><ele>334.0</ele><time>2026-03-29T10:35:26.834Z</time></trkpt><trkpt lat="45.7593823" lon="9.2169544"><ele>330.66666666666663</ele><time>2026-03-29T10:35:27.842Z</time></trkpt><trkpt lat="45.7593981" lon="9.2167286"><ele>327.3333333333333</ele><time>2026-03-29T10:35:28.839Z</time></trkpt><trkpt lat="45.7593853" lon="9.2164958"><ele>324.0</ele><time>2026-03-29T10:35:29.868Z</time></trkpt><trkpt lat="45.7593256" lon="9.216254"><ele>324.0</ele><time>2026-03-29T10:35:30.836Z</time></trkpt><trkpt lat="45.7592467" lon="9.2160067"><ele>324.0</ele><time>2026-03-29T10:35:31.842Z</time></trkpt><trkpt lat="45.7591455" lon="9.2157255"><ele>324.0</ele><time>2026-03-29T10:35:32.863Z</time></trkpt><trkpt lat="45.7590463" lon="9.2154179"><ele>319.0</ele><time>2026-03-29T10:35:33.825Z</time></trkpt><trkpt lat="45.7589636" lon="9.2151124"><ele>314.0</ele><time>2026-03-29T10:35:34.866Z</time></trkpt><trkpt lat="45.7588854" lon="9.2148026"><ele>311.0</ele><time>2026-03-29T10:35:35.859Z</time></trkpt><trkpt lat="45.7587877" lon="9.2144807"><ele>308.0</ele><time>2026-03-29T10:35:36.835Z</time></trkpt><trkpt lat="45.7587064" lon="9.214202"><ele>307.0</ele><time>2026-03-29T10:35:37.834Z</time></trkpt><trkpt lat="45.7586303" lon="9.2139264"><ele>306.0</ele><time>2026-03-29T10:35:38.842Z</time></trkpt><trkpt lat="45.7585567" lon="9.2136644"><ele>305.0</ele><time>2026-03-29T10:35:39.845Z</time></trkpt><trkpt lat="45.7584906" lon="9.2134208"><ele>307.6666666666667</ele><time>2026-03-29T10:35:40.84Z</time></trkpt><trkpt lat="45.758433" lon="9.2131797"><ele>310.3333333333333</ele><time>2026-03-29T10:35:41.844Z</time></trkpt><trkpt lat="45.7583714" lon="9.2129519"><ele>313.0</ele><time>2026-03-29T10:35:42.842Z</time></trkpt><trkpt lat="45.7583176" lon="9.2127239"><ele>313.0</ele><time>2026-03-29T10:35:43.838Z</time></trkpt><trkpt lat="45.758271" lon="9.2125126"><ele>313.0</ele><time>2026-03-29T10:35:44.839Z</time></trkpt><trkpt lat="45.7582038" lon="9.2122869"><ele>313.0</ele><time>2026-03-29T10:35:45.834Z</time></trkpt><trkpt lat="45.758143" lon="9.2120645"><ele>311.3333333333333</ele><time>2026-03-29T10:35:46.833Z</time></trkpt><trkpt lat="45.7581054" lon="9.211833"><ele>309.6666666666667</ele><time>2026-03-29T10:35:47.832Z</time></trkpt><trkpt lat="45.7580806" lon="9.2115964"><ele>308.0</ele><time>2026-03-29T10:35:48.83Z</time></trkpt><trkpt lat="45.7580672" lon="9.2113519"><ele>307.6666666666667</ele><time>2026-03-29T10:35:49.835Z</time></trkpt><trkpt lat="45.7580707" lon="9.211136"><ele>307.3333333333333</ele><time>2026-03-29T10:35:50.835Z</time></trkpt><trkpt lat="45.7581095" lon="9.210929"><ele>307.0</ele><time>2026-03-29T10:35:51.835Z</time></trkpt><trkpt lat="45.7581608" lon="9.210727"><ele>307.0</ele><time>2026-03-29T10:35:52.837Z</time></trkpt><trkpt lat="45.7582195" lon="9.2105696"><ele>307.0</ele><time>2026-03-29T10:35:53.834Z</time></trkpt><trkpt lat="45.75829" lon="9.2104277"><ele>307.0</ele><time>2026-03-29T10:35:54.836Z</time></trkpt><trkpt lat="45.7583702" lon="9.2103031"><ele>307.0</ele><time>2026-03-29T10:35:55.847Z</time></trkpt><trkpt lat="45.7584822" lon="9.2101939"><ele>306.5</ele><time>2026-03-29T10:35:56.84Z</time></trkpt><trkpt lat="45.7585992" lon="9.2100798"><ele>306.0</ele><time>2026-03-29T10:35:57.839Z</time></trkpt><trkpt lat="45.7586858" lon="9.2099131"><ele>305.5</ele><time>2026-03-29T10:35:58.845Z</time></trkpt><trkpt lat="45.7587326" lon="9.2097094"><ele>305.0</ele><time>2026-03-29T10:35:59.84Z</time></trkpt><trkpt lat="45.758818" lon="9.2094983"><ele>305.0</ele><time>2026-03-29T10:36:00.839Z</time></trkpt><trkpt lat="45.7589245" lon="9.2093056"><ele>305.0</ele><time>2026-03-29T10:36:01.839Z</time></trkpt><trkpt lat="45.7590838" lon="9.2091547"><ele>305.0</ele><time>2026-03-29T10:36:02.827Z</time></trkpt><trkpt lat="45.7592372" lon="9.2090278"><ele>305.6666666666667</ele><time>2026-03-29T10:36:03.841Z</time></trkpt><trkpt lat="45.7594002" lon="9.2088889"><ele>306.3333333333333</ele><time>2026-03-29T10:36:04.836Z</time></trkpt><trkpt lat="45.759534" lon="9.2087344"><ele>307.0</ele><time>2026-03-29T10:36:05.837Z</time></trkpt><trkpt lat="45.7596756" lon="9.2085849"><ele>307.0</ele><time>2026-03-29T10:36:06.835Z</time></trkpt><trkpt lat="45.7598313" lon="9.2084401"><ele>307.0</ele><time>2026-03-29T10:36:07.837Z</time></trkpt><trkpt lat="45.7599729" lon="9.2083079"><ele>307.0</ele><time>2026-03-29T10:36:08.838Z</time></trkpt><trkpt lat="45.7601201" lon="9.2081719"><ele>308.3333333333333</ele><time>2026-03-29T10:36:09.838Z</time></trkpt><trkpt lat="45.7602595" lon="9.2080334"><ele>309.6666666666667</ele><time>2026-03-29T10:36:10.847Z</time></trkpt><trkpt lat="45.7603868" lon="9.2078791"><ele>311.0</ele><time>2026-03-29T10:36:11.832Z</time></trkpt><trkpt lat="45.7605185" lon="9.2077273"><ele>311.0</ele><time>2026-03-29T10:36:12.829Z</time></trkpt><trkpt lat="45.7606364" lon="9.2075951"><ele>311.0</ele><time>2026-03-29T10:36:13.83Z</time></trkpt><trkpt lat="45.7607555" lon="9.2074548"><ele>311.0</ele><time>2026-03-29T10:36:14.839Z</time></trkpt><trkpt lat="45.7608911" lon="9.2072721"><ele>311.33333333333337</ele><time>2026-03-29T10:36:15.839Z</time></trkpt><trkpt lat="45.7610063" lon="9.2070724"><ele>311.6666666666667</ele><time>2026-03-29T10:36:16.838Z</time></trkpt><trkpt lat="45.7610971" lon="9.2068642"><ele>312.0</ele><time>2026-03-29T10:36:17.836Z</time></trkpt><trkpt lat="45.7611934" lon="9.2066178"><ele>311.6666666666667</ele><time>2026-03-29T10:36:18.841Z</time></trkpt><trkpt lat="45.7612955" lon="9.2063758"><ele>311.33333333333337</ele><time>2026-03-29T10:36:19.841Z</time></trkpt><trkpt lat="45.7614131" lon="9.2061232"><ele>311.0</ele><time>2026-03-29T10:36:20.846Z</time></trkpt><trkpt lat="45.7615391" lon="9.205856"><ele>311.0</ele><time>2026-03-29T10:36:21.844Z</time></trkpt><trkpt lat="45.7616626" lon="9.2056081"><ele>311.0</ele><time>2026-03-29T10:36:22.841Z</time></trkpt><trkpt lat="45.7617768" lon="9.2053681"><ele>311.0</ele><time>2026-03-29T10:36:23.845Z</time></trkpt><trkpt lat="45.761888" lon="9.2051584"><ele>311.33333333333337</ele><time>2026-03-29T10:36:24.844Z</time></trkpt><trkpt lat="45.7619907" lon="9.204951"><ele>311.6666666666667</ele><time>2026-03-29T10:36:25.845Z</time></trkpt><trkpt lat="45.7620941" lon="9.204756"><ele>312.0</ele><time>2026-03-29T10:36:26.841Z</time></trkpt><trkpt lat="45.7621926" lon="9.2045661"><ele>312.0</ele><time>2026-03-29T10:36:27.847Z</time></trkpt><trkpt lat="45.7622985" lon="9.2043953"><ele>312.0</ele><time>2026-03-29T10:36:28.843Z</time></trkpt><trkpt lat="45.7623947" lon="9.2042366"><ele>312.0</ele><time>2026-03-29T10:36:29.846Z</time></trkpt><trkpt lat="45.7624845" lon="9.2040787"><ele>312.0</ele><time>2026-03-29T10:36:30.843Z</time></trkpt><trkpt lat="45.7625539" lon="9.2039509"><ele>312.0</ele><time>2026-03-29T10:36:31.841Z</time></trkpt><trkpt lat="45.7626344" lon="9.203838"><ele>312.0</ele><time>2026-03-29T10:36:32.84Z</time></trkpt><trkpt lat="45.7627271" lon="9.2037379"><ele>312.0</ele><time>2026-03-29T10:36:33.845Z</time></trkpt><trkpt lat="45.7628394" lon="9.2036589"><ele>312.0</ele><time>2026-03-29T10:36:34.836Z</time></trkpt><trkpt lat="45.7629632" lon="9.2036181"><ele>312.0</ele><time>2026-03-29T10:36:35.845Z</time></trkpt><trkpt lat="45.763099" lon="9.2035815"><ele>312.0</ele><time>2026-03-29T10:36:36.838Z</time></trkpt><trkpt lat="45.7632276" lon="9.2035092"><ele>312.0</ele><time>2026-03-29T10:36:37.836Z</time></trkpt><trkpt lat="45.7633615" lon="9.2034146"><ele>312.0</ele><time>2026-03-29T10:36:38.839Z</time></trkpt><trkpt lat="45.7635253" lon="9.203302"><ele>311.75</ele><time>2026-03-29T10:36:39.848Z</time></trkpt><trkpt lat="45.7636506" lon="9.2031996"><ele>311.5</ele><time>2026-03-29T10:36:40.869Z</time></trkpt><trkpt lat="45.7637773" lon="9.2030717"><ele>311.25</ele><time>2026-03-29T10:36:41.841Z</time></trkpt><trkpt lat="45.7638741" lon="9.2029304"><ele>311.0</ele><time>2026-03-29T10:36:42.839Z</time></trkpt><trkpt lat="45.7639784" lon="9.2027556"><ele>312.6666666666667</ele><time>2026-03-29T10:36:43.84Z</time></trkpt><trkpt lat="45.7640827" lon="9.2025453"><ele>314.3333333333333</ele><time>2026-03-29T10:36:44.845Z</time></trkpt><trkpt lat="45.7641897" lon="9.2022969"><ele>316.0</ele><time>2026-03-29T10:36:45.833Z</time></trkpt><trkpt lat="45.7642623" lon="9.2020409"><ele>316.0</ele><time>2026-03-29T10:36:46.838Z</time></trkpt><trkpt lat="45.7643178" lon="9.2017962"><ele>316.0</ele><time>2026-03-29T10:36:47.841Z</time></trkpt><trkpt lat="45.7643735" lon="9.2015655"><ele>316.0</ele><time>2026-03-29T10:36:48.83Z</time></trkpt><trkpt lat="45.7644263" lon="9.2013561"><ele>316.5</ele><time>2026-03-29T10:36:49.836Z</time></trkpt><trkpt lat="45.7644811" lon="9.2011621"><ele>317.0</ele><time>2026-03-29T10:36:50.843Z</time></trkpt><trkpt lat="45.764523" lon="9.2009822"><ele>317.5</ele><time>2026-03-29T10:36:51.832Z</time></trkpt><trkpt lat="45.7645588" lon="9.2008054"><ele>318.0</ele><time>2026-03-29T10:36:52.837Z</time></trkpt><trkpt lat="45.7646213" lon="9.2006259"><ele>319.0</ele><time>2026-03-29T10:36:53.835Z</time></trkpt><trkpt lat="45.7647229" lon="9.2004707"><ele>320.0</ele><time>2026-03-29T10:36:54.834Z</time></trkpt><trkpt lat="45.7648022" lon="9.200351"><ele>321.0</ele><time>2026-03-29T10:36:55.849Z</time></trkpt><trkpt lat="45.7649211" lon="9.2002943"><ele>322.0</ele><time>2026-03-29T10:36:56.839Z</time></trkpt><trkpt lat="45.7650427" lon="9.2002684"><ele>321.0</ele><time>2026-03-29T10:36:57.837Z</time></trkpt><trkpt lat="45.7652004" lon="9.2002547"><ele>320.0</ele><time>2026-03-29T10:36:58.835Z</time></trkpt><trkpt lat="45.7654166" lon="9.2002179"><ele>319.0</ele><time>2026-03-29T10:36:59.835Z</time></trkpt><trkpt lat="45.7656458" lon="9.2001894"><ele>319.0</ele><time>2026-03-29T10:37:00.833Z</time></trkpt><trkpt lat="45.7658622" lon="9.2001667"><ele>319.0</ele><time>2026-03-29T10:37:01.84Z</time></trkpt><trkpt lat="45.7660805" lon="9.2001452"><ele>319.0</ele><time>2026-03-29T10:37:02.836Z</time></trkpt><trkpt lat="45.7662804" lon="9.2000982"><ele>317.3333333333333</ele><time>2026-03-29T10:37:03.851Z</time></trkpt><trkpt lat="45.7664546" lon="9.2000494"><ele>315.6666666666667</ele><time>2026-03-29T10:37:04.838Z</time></trkpt><trkpt lat="45.7666227" lon="9.1999727"><ele>314.0</ele><time>2026-03-29T10:37:05.835Z</time></trkpt><trkpt lat="45.7667816" lon="9.1998719"><ele>314.6666666666667</ele><time>2026-03-29T10:37:06.842Z</time></trkpt><trkpt lat="45.7669414" lon="9.1997606"><ele>315.3333333333333</ele><time>2026-03-29T10:37:07.839Z</time></trkpt><trkpt lat="45.7670797" lon="9.1996576"><ele>316.0</ele><time>2026-03-29T10:37:08.834Z</time></trkpt><trkpt lat="45.7672032" lon="9.1995712"><ele>316.0</ele><time>2026-03-29T10:37:09.86Z</time></trkpt><trkpt lat="45.7673199" lon="9.1994816"><ele>316.0</ele><time>2026-03-29T10:37:10.845Z</time></trkpt><trkpt lat="45.767418" lon="9.1994011"><ele>316.0</ele><time>2026-03-29T10:37:11.843Z</time></trkpt><trkpt lat="45.7675194" lon="9.1993232"><ele>316.0</ele><time>2026-03-29T10:37:12.839Z</time></trkpt><trkpt lat="45.7676137" lon="9.1992702"><ele>316.0</ele><time>2026-03-29T10:37:13.841Z</time></trkpt><trkpt lat="45.767712" lon="9.1992054"><ele>316.0</ele><time>2026-03-29T10:37:14.842Z</time></trkpt><trkpt lat="45.7678327" lon="9.199144"><ele>316.0</ele><time>2026-03-29T10:37:15.841Z</time></trkpt><trkpt lat="45.7679414" lon="9.1990718"><ele>316.0</ele><time>2026-03-29T10:37:16.84Z</time></trkpt><trkpt lat="45.7680425" lon="9.1989861"><ele>316.25</ele><time>2026-03-29T10:37:17.845Z</time></trkpt><trkpt lat="45.7681096" lon="9.1988692"><ele>316.5</ele><time>2026-03-29T10:37:18.832Z</time></trkpt><trkpt lat="45.7681891" lon="9.1987563"><ele>316.75</ele><time>2026-03-29T10:37:19.842Z</time></trkpt><trkpt lat="45.7682963" lon="9.1986597"><ele>317.0</ele><time>2026-03-29T10:37:20.84Z</time></trkpt><trkpt lat="45.7684165" lon="9.1985928"><ele>318.5</ele><time>2026-03-29T10:37:21.835Z</time></trkpt><trkpt lat="45.7685432" lon="9.1985251"><ele>320.0</ele><time>2026-03-29T10:37:22.847Z</time></trkpt><trkpt lat="45.7686613" lon="9.1984259"><ele>321.5</ele><time>2026-03-29T10:37:23.847Z</time></trkpt><trkpt lat="45.7687459" lon="9.1982648"><ele>323.0</ele><time>2026-03-29T10:37:24.844Z</time></trkpt><trkpt lat="45.7688112" lon="9.1980705"><ele>323.0</ele><time>2026-03-29T10:37:25.843Z</time></trkpt><trkpt lat="45.7688724" lon="9.1978688"><ele>323.0</ele><time>2026-03-29T10:37:26.836Z</time></trkpt><trkpt lat="45.7689407" lon="9.1976615"><ele>323.0</ele><time>2026-03-29T10:37:27.842Z</time></trkpt><trkpt lat="45.7690077" lon="9.1974609"><ele>323.0</ele><time>2026-03-29T10:37:28.845Z</time></trkpt><trkpt lat="45.7690451" lon="9.197231"><ele>323.0</ele><time>2026-03-29T10:37:29.867Z</time></trkpt><trkpt lat="45.7690807" lon="9.1969915"><ele>323.0</ele><time>2026-03-29T10:37:30.846Z</time></trkpt><trkpt lat="45.7691166" lon="9.19675"><ele>323.0</ele><time>2026-03-29T10:37:31.844Z</time></trkpt><trkpt lat="45.7691358" lon="9.196517"><ele>323.0</ele><time>2026-03-29T10:37:32.843Z</time></trkpt><trkpt lat="45.7691478" lon="9.1963047"><ele>323.0</ele><time>2026-03-29T10:37:33.845Z</time></trkpt><trkpt lat="45.7691428" lon="9.1960841"><ele>324.0</ele><time>2026-03-29T10:37:34.844Z</time></trkpt><trkpt lat="45.7691325" lon="9.1958599"><ele>325.0</ele><time>2026-03-29T10:37:35.841Z</time></trkpt><trkpt lat="45.7691045" lon="9.1956521"><ele>326.0</ele><time>2026-03-29T10:37:36.84Z</time></trkpt><trkpt lat="45.769069" lon="9.1954501"><ele>326.5</ele><time>2026-03-29T10:37:37.841Z</time></trkpt><trkpt lat="45.7690443" lon="9.1952475"><ele>327.0</ele><time>2026-03-29T10:37:38.843Z</time></trkpt><trkpt lat="45.7690105" lon="9.1950443"><ele>327.5</ele><time>2026-03-29T10:37:39.845Z</time></trkpt><trkpt lat="45.7689297" lon="9.1948703"><ele>328.0</ele><time>2026-03-29T10:37:40.842Z</time></trkpt><trkpt lat="45.7688419" lon="9.1946573"><ele>328.0</ele><time>2026-03-29T10:37:41.841Z</time></trkpt><trkpt lat="45.768764" lon="9.1944463"><ele>328.0</ele><time>2026-03-29T10:37:42.842Z</time></trkpt><trkpt lat="45.7686527" lon="9.1941813"><ele>328.0</ele><time>2026-03-29T10:37:43.841Z</time></trkpt><trkpt lat="45.768554" lon="9.1939085"><ele>330.3333333333333</ele><time>2026-03-29T10:37:44.853Z</time></trkpt><trkpt lat="45.768447" lon="9.1936336"><ele>332.6666666666667</ele><time>2026-03-29T10:37:45.839Z</time></trkpt><trkpt lat="45.7683495" lon="9.1933483"><ele>335.0</ele><time>2026-03-29T10:37:46.844Z</time></trkpt><trkpt lat="45.7682345" lon="9.1930746"><ele>337.0</ele><time>2026-03-29T10:37:47.846Z</time></trkpt><trkpt lat="45.7681146" lon="9.1927927"><ele>339.0</ele><time>2026-03-29T10:37:48.847Z</time></trkpt><trkpt lat="45.7680007" lon="9.1924949"><ele>341.6666666666667</ele><time>2026-03-29T10:37:49.838Z</time></trkpt><trkpt lat="45.767912" lon="9.1922283"><ele>344.33333333333337</ele><time>2026-03-29T10:37:50.839Z</time></trkpt><trkpt lat="45.7678337" lon="9.1920135"><ele>347.0</ele><time>2026-03-29T10:37:51.834Z</time></trkpt><trkpt lat="45.7677561" lon="9.1918243"><ele>347.25</ele><time>2026-03-29T10:37:52.832Z</time></trkpt><trkpt lat="45.7676705" lon="9.1916583"><ele>347.5</ele><time>2026-03-29T10:37:53.832Z</time></trkpt><trkpt lat="45.7676132" lon="9.1914867"><ele>347.75</ele><time>2026-03-29T10:37:54.831Z</time></trkpt><trkpt lat="45.7675651" lon="9.1913411"><ele>348.0</ele><time>2026-03-29T10:37:55.834Z</time></trkpt><trkpt lat="45.7675081" lon="9.19117"><ele>348.0</ele><time>2026-03-29T10:37:56.831Z</time></trkpt><trkpt lat="45.7674607" lon="9.1910041"><ele>348.0</ele><time>2026-03-29T10:37:57.835Z</time></trkpt><trkpt lat="45.7674143" lon="9.1908565"><ele>348.0</ele><time>2026-03-29T10:37:58.833Z</time></trkpt><trkpt lat="45.7673621" lon="9.1906954"><ele>348.0</ele><time>2026-03-29T10:37:59.846Z</time></trkpt><trkpt lat="45.7673222" lon="9.1905402"><ele>348.6666666666667</ele><time>2026-03-29T10:38:00.855Z</time></trkpt><trkpt lat="45.7673032" lon="9.1903486"><ele>349.33333333333337</ele><time>2026-03-29T10:38:01.841Z</time></trkpt><trkpt lat="45.7672979" lon="9.1901241"><ele>350.0</ele><time>2026-03-29T10:38:02.853Z</time></trkpt><trkpt lat="45.7672709" lon="9.1898807"><ele>350.6666666666667</ele><time>2026-03-29T10:38:03.847Z</time></trkpt><trkpt lat="45.7672647" lon="9.1896072"><ele>351.3333333333333</ele><time>2026-03-29T10:38:04.849Z</time></trkpt><trkpt lat="45.7672485" lon="9.1893433"><ele>352.0</ele><time>2026-03-29T10:38:05.858Z</time></trkpt><trkpt lat="45.7672203" lon="9.1890943"><ele>353.3333333333333</ele><time>2026-03-29T10:38:06.876Z</time></trkpt><trkpt lat="45.7672006" lon="9.1888346"><ele>354.6666666666667</ele><time>2026-03-29T10:38:07.848Z</time></trkpt><trkpt lat="45.7671711" lon="9.188601"><ele>356.0</ele><time>2026-03-29T10:38:08.852Z</time></trkpt><trkpt lat="45.7671506" lon="9.1883921"><ele>356.0</ele><time>2026-03-29T10:38:09.853Z</time></trkpt><trkpt lat="45.7671298" lon="9.1882061"><ele>356.0</ele><time>2026-03-29T10:38:10.837Z</time></trkpt><trkpt lat="45.7671143" lon="9.1880164"><ele>356.0</ele><time>2026-03-29T10:38:11.847Z</time></trkpt><trkpt lat="45.767127" lon="9.1878061"><ele>356.0</ele><time>2026-03-29T10:38:12.839Z</time></trkpt><trkpt lat="45.7671569" lon="9.1875865"><ele>356.0</ele><time>2026-03-29T10:38:13.841Z</time></trkpt><trkpt lat="45.7671948" lon="9.1873656"><ele>356.0</ele><time>2026-03-29T10:38:14.839Z</time></trkpt><trkpt lat="45.7672535" lon="9.1871768"><ele>356.0</ele><time>2026-03-29T10:38:15.827Z</time></trkpt><trkpt lat="45.7673156" lon="9.1869978"><ele>356.0</ele><time>2026-03-29T10:38:16.838Z</time></trkpt><trkpt lat="45.7673831" lon="9.1868298"><ele>356.0</ele><time>2026-03-29T10:38:17.83Z</time></trkpt><trkpt lat="45.7674875" lon="9.1866867"><ele>356.0</ele><time>2026-03-29T10:38:18.836Z</time></trkpt><trkpt lat="45.7676062" lon="9.1865188"><ele>356.0</ele><time>2026-03-29T10:38:19.834Z</time></trkpt><trkpt lat="45.7677276" lon="9.1863385"><ele>356.6666666666667</ele><time>2026-03-29T10:38:20.837Z</time></trkpt><trkpt lat="45.767842" lon="9.186187"><ele>357.3333333333333</ele><time>2026-03-29T10:38:21.838Z</time></trkpt><trkpt lat="45.767956" lon="9.1860205"><ele>358.0</ele><time>2026-03-29T10:38:22.835Z</time></trkpt><trkpt lat="45.7680653" lon="9.1858743"><ele>358.0</ele><time>2026-03-29T10:38:23.84Z</time></trkpt><trkpt lat="45.7681598" lon="9.1857345"><ele>358.0</ele><time>2026-03-29T10:38:24.842Z</time></trkpt><trkpt lat="45.7682455" lon="9.1856201"><ele>358.0</ele><time>2026-03-29T10:38:25.848Z</time></trkpt><trkpt lat="45.7683291" lon="9.1854984"><ele>358.0</ele><time>2026-03-29T10:38:26.837Z</time></trkpt><trkpt lat="45.7684214" lon="9.18538"><ele>358.5</ele><time>2026-03-29T10:38:27.837Z</time></trkpt><trkpt lat="45.7684968" lon="9.1852394"><ele>359.0</ele><time>2026-03-29T10:38:28.839Z</time></trkpt><trkpt lat="45.7685966" lon="9.1851318"><ele>359.5</ele><time>2026-03-29T10:38:29.84Z</time></trkpt><trkpt lat="45.7687041" lon="9.1850239"><ele>360.0</ele><time>2026-03-29T10:38:30.834Z</time></trkpt><trkpt lat="45.7687944" lon="9.1848881"><ele>359.3333333333333</ele><time>2026-03-29T10:38:31.832Z</time></trkpt><trkpt lat="45.7688584" lon="9.1846962"><ele>358.66666666666663</ele><time>2026-03-29T10:38:32.83Z</time></trkpt><trkpt lat="45.7689282" lon="9.1845042"><ele>358.0</ele><time>2026-03-29T10:38:33.83Z</time></trkpt><trkpt lat="45.7690092" lon="9.18432"><ele>358.0</ele><time>2026-03-29T10:38:34.838Z</time></trkpt><trkpt lat="45.7690788" lon="9.1841309"><ele>358.0</ele><time>2026-03-29T10:38:35.833Z</time></trkpt><trkpt lat="45.7691495" lon="9.1839431"><ele>358.0</ele><time>2026-03-29T10:38:36.831Z</time></trkpt><trkpt lat="45.7692172" lon="9.1837846"><ele>358.0</ele><time>2026-03-29T10:38:37.834Z</time></trkpt><trkpt lat="45.76927" lon="9.1836216"><ele>357.59999999999997</ele><time>2026-03-29T10:38:38.829Z</time></trkpt><trkpt lat="45.7693028" lon="9.1834756"><ele>357.2</ele><time>2026-03-29T10:38:39.843Z</time></trkpt><trkpt lat="45.7693364" lon="9.183324"><ele>356.8</ele><time>2026-03-29T10:38:40.839Z</time></trkpt><trkpt lat="45.7693625" lon="9.183185"><ele>356.4</ele><time>2026-03-29T10:38:41.836Z</time></trkpt><trkpt lat="45.7693917" lon="9.1830815"><ele>356.0</ele><time>2026-03-29T10:38:42.834Z</time></trkpt><trkpt lat="45.7694193" lon="9.182989"><ele>356.0</ele><time>2026-03-29T10:38:43.857Z</time></trkpt><trkpt lat="45.7694494" lon="9.1829075"><ele>356.0</ele><time>2026-03-29T10:38:44.845Z</time></trkpt><trkpt lat="45.7695264" lon="9.1827732"><ele>356.0</ele><time>2026-03-29T10:38:46.834Z</time></trkpt><trkpt lat="45.7695883" lon="9.1827082"><ele>356.0</ele><time>2026-03-29T10:38:47.832Z</time></trkpt><trkpt lat="45.7696343" lon="9.1826281"><ele>356.0</ele><time>2026-03-29T10:38:48.831Z</time></trkpt><trkpt lat="45.7696701" lon="9.1825325"><ele>356.0</ele><time>2026-03-29T10:38:49.842Z</time></trkpt><trkpt lat="45.7696932" lon="9.1824089"><ele>356.0</ele><time>2026-03-29T10:38:50.831Z</time></trkpt><trkpt lat="45.769734" lon="9.1822773"><ele>356.0</ele><time>2026-03-29T10:38:51.832Z</time></trkpt><trkpt lat="45.7698002" lon="9.1821466"><ele>356.0</ele><time>2026-03-29T10:38:52.857Z</time></trkpt><trkpt lat="45.7698857" lon="9.1820186"><ele>356.0</ele><time>2026-03-29T10:38:53.836Z</time></trkpt><trkpt lat="45.7699843" lon="9.1818837"><ele>356.0</ele><time>2026-03-29T10:38:54.83Z</time></trkpt><trkpt lat="45.7700973" lon="9.1817353"><ele>356.0</ele><time>2026-03-29T10:38:55.838Z</time></trkpt><trkpt lat="45.7702413" lon="9.1815458"><ele>356.0</ele><time>2026-03-29T10:38:56.828Z</time></trkpt><trkpt lat="45.7704021" lon="9.1813662"><ele>356.33333333333337</ele><time>2026-03-29T10:38:57.84Z</time></trkpt><trkpt lat="45.7705681" lon="9.1811938"><ele>356.6666666666667</ele><time>2026-03-29T10:38:58.842Z</time></trkpt><trkpt lat="45.7707278" lon="9.1810254"><ele>357.0</ele><time>2026-03-29T10:38:59.836Z</time></trkpt><trkpt lat="45.7708916" lon="9.1808539"><ele>357.0</ele><time>2026-03-29T10:39:00.841Z</time></trkpt><trkpt lat="45.7710381" lon="9.180663"><ele>357.0</ele><time>2026-03-29T10:39:01.835Z</time></trkpt><trkpt lat="45.7711685" lon="9.180458"><ele>357.0</ele><time>2026-03-29T10:39:02.862Z</time></trkpt><trkpt lat="45.7713059" lon="9.1802389"><ele>357.0</ele><time>2026-03-29T10:39:03.834Z</time></trkpt><trkpt lat="45.7714578" lon="9.180017"><ele>357.0</ele><time>2026-03-29T10:39:04.837Z</time></trkpt><trkpt lat="45.7716207" lon="9.1798039"><ele>357.0</ele><time>2026-03-29T10:39:05.836Z</time></trkpt><trkpt lat="45.7717767" lon="9.1795757"><ele>357.5</ele><time>2026-03-29T10:39:06.835Z</time></trkpt><trkpt lat="45.7719284" lon="9.179343"><ele>358.0</ele><time>2026-03-29T10:39:07.839Z</time></trkpt><trkpt lat="45.7720821" lon="9.1791028"><ele>358.0</ele><time>2026-03-29T10:39:08.842Z</time></trkpt><trkpt lat="45.772237" lon="9.1788623"><ele>358.0</ele><time>2026-03-29T10:39:09.843Z</time></trkpt><trkpt lat="45.7723931" lon="9.1786313"><ele>358.0</ele><time>2026-03-29T10:39:10.843Z</time></trkpt><trkpt lat="45.7725547" lon="9.1784072"><ele>358.0</ele><time>2026-03-29T10:39:11.841Z</time></trkpt><trkpt lat="45.7727064" lon="9.1781786"><ele>358.0</ele><time>2026-03-29T10:39:12.846Z</time></trkpt><trkpt lat="45.7728473" lon="9.177941"><ele>358.0</ele><time>2026-03-29T10:39:13.844Z</time></trkpt><trkpt lat="45.7729926" lon="9.177711"><ele>358.0</ele><time>2026-03-29T10:39:14.842Z</time></trkpt><trkpt lat="45.7731403" lon="9.1774616"><ele>358.0</ele><time>2026-03-29T10:39:15.841Z</time></trkpt><trkpt lat="45.7732869" lon="9.1772333"><ele>357.66666666666663</ele><time>2026-03-29T10:39:16.842Z</time></trkpt><trkpt lat="45.7734235" lon="9.1770003"><ele>357.3333333333333</ele><time>2026-03-29T10:39:17.845Z</time></trkpt><trkpt lat="45.7735705" lon="9.1768111"><ele>357.0</ele><time>2026-03-29T10:39:18.839Z</time></trkpt><trkpt lat="45.7737137" lon="9.1766223"><ele>357.0</ele><time>2026-03-29T10:39:19.842Z</time></trkpt><trkpt lat="45.7738445" lon="9.1764337"><ele>357.0</ele><time>2026-03-29T10:39:20.845Z</time></trkpt><trkpt lat="45.7739638" lon="9.1762571"><ele>357.0</ele><time>2026-03-29T10:39:21.84Z</time></trkpt><trkpt lat="45.7740834" lon="9.1760859"><ele>357.0</ele><time>2026-03-29T10:39:22.848Z</time></trkpt><trkpt lat="45.7742066" lon="9.1759216"><ele>357.0</ele><time>2026-03-29T10:39:23.845Z</time></trkpt><trkpt lat="45.7743194" lon="9.1757419"><ele>357.0</ele><time>2026-03-29T10:39:24.846Z</time></trkpt><trkpt lat="45.7744375" lon="9.1755657"><ele>357.6666666666667</ele><time>2026-03-29T10:39:25.842Z</time></trkpt><trkpt lat="45.7745578" lon="9.1753916"><ele>358.33333333333337</ele><time>2026-03-29T10:39:26.845Z</time></trkpt><trkpt lat="45.7746748" lon="9.175226"><ele>359.0</ele><time>2026-03-29T10:39:27.841Z</time></trkpt><trkpt lat="45.7747868" lon="9.1750535"><ele>359.0</ele><time>2026-03-29T10:39:28.855Z</time></trkpt><trkpt lat="45.77491" lon="9.1748697"><ele>359.0</ele><time>2026-03-29T10:39:29.847Z</time></trkpt><trkpt lat="45.7750333" lon="9.1746785"><ele>359.0</ele><time>2026-03-29T10:39:30.844Z</time></trkpt><trkpt lat="45.775161" lon="9.1744998"><ele>359.33333333333337</ele><time>2026-03-29T10:39:31.847Z</time></trkpt><trkpt lat="45.77529" lon="9.1743286"><ele>359.6666666666667</ele><time>2026-03-29T10:39:32.842Z</time></trkpt><trkpt lat="45.7754243" lon="9.1741768"><ele>360.0</ele><time>2026-03-29T10:39:33.846Z</time></trkpt><trkpt lat="45.7755426" lon="9.1740482"><ele>360.5</ele><time>2026-03-29T10:39:34.843Z</time></trkpt><trkpt lat="45.775647" lon="9.1739371"><ele>361.0</ele><time>2026-03-29T10:39:35.84Z</time></trkpt><trkpt lat="45.7757427" lon="9.1738394"><ele>361.5</ele><time>2026-03-29T10:39:36.845Z</time></trkpt><trkpt lat="45.77583" lon="9.1737588"><ele>362.0</ele><time>2026-03-29T10:39:37.843Z</time></trkpt><trkpt lat="45.7759299" lon="9.1736813"><ele>362.0</ele><time>2026-03-29T10:39:38.845Z</time></trkpt><trkpt lat="45.7760198" lon="9.1736246"><ele>362.0</ele><time>2026-03-29T10:39:39.844Z</time></trkpt><trkpt lat="45.7761082" lon="9.1735947"><ele>362.0</ele><time>2026-03-29T10:39:40.842Z</time></trkpt><trkpt lat="45.7762084" lon="9.1735756"><ele>362.0</ele><time>2026-03-29T10:39:41.847Z</time></trkpt><trkpt lat="45.7762927" lon="9.1735671"><ele>362.0</ele><time>2026-03-29T10:39:42.841Z</time></trkpt><trkpt lat="45.7763892" lon="9.1735194"><ele>362.25</ele><time>2026-03-29T10:39:43.835Z</time></trkpt><trkpt lat="45.7764886" lon="9.1734443"><ele>362.5</ele><time>2026-03-29T10:39:44.863Z</time></trkpt><trkpt lat="45.7765477" lon="9.173317"><ele>362.75</ele><time>2026-03-29T10:39:45.834Z</time></trkpt><trkpt lat="45.7766059" lon="9.1731784"><ele>363.0</ele><time>2026-03-29T10:39:46.836Z</time></trkpt><trkpt lat="45.7766845" lon="9.1730356"><ele>363.0</ele><time>2026-03-29T10:39:47.837Z</time></trkpt><trkpt lat="45.7767811" lon="9.1728912"><ele>363.0</ele><time>2026-03-29T10:39:48.835Z</time></trkpt><trkpt lat="45.7769023" lon="9.1727158"><ele>363.0</ele><time>2026-03-29T10:39:49.838Z</time></trkpt><trkpt lat="45.7770452" lon="9.1725545"><ele>363.6666666666667</ele><time>2026-03-29T10:39:50.836Z</time></trkpt><trkpt lat="45.777198" lon="9.1723851"><ele>364.33333333333337</ele><time>2026-03-29T10:39:51.835Z</time></trkpt><trkpt lat="45.7773711" lon="9.1722289"><ele>365.0</ele><time>2026-03-29T10:39:52.84Z</time></trkpt><trkpt lat="45.7775544" lon="9.1720512"><ele>366.33333333333337</ele><time>2026-03-29T10:39:53.837Z</time></trkpt><trkpt lat="45.7777413" lon="9.1718825"><ele>367.6666666666667</ele><time>2026-03-29T10:39:54.833Z</time></trkpt><trkpt lat="45.7779182" lon="9.171712"><ele>369.0</ele><time>2026-03-29T10:39:55.839Z</time></trkpt><trkpt lat="45.7780853" lon="9.1715438"><ele>367.6666666666667</ele><time>2026-03-29T10:39:56.836Z</time></trkpt><trkpt lat="45.7782412" lon="9.1713834"><ele>366.33333333333337</ele><time>2026-03-29T10:39:57.833Z</time></trkpt><trkpt lat="45.7783763" lon="9.171235"><ele>365.0</ele><time>2026-03-29T10:39:58.833Z</time></trkpt><trkpt lat="45.7785145" lon="9.1711149"><ele>365.8</ele><time>2026-03-29T10:39:59.841Z</time></trkpt><trkpt lat="45.7786277" lon="9.1710133"><ele>366.6</ele><time>2026-03-29T10:40:00.837Z</time></trkpt><trkpt lat="45.7787117" lon="9.1709394"><ele>367.4</ele><time>2026-03-29T10:40:01.842Z</time></trkpt><trkpt lat="45.7787859" lon="9.1708858"><ele>368.2</ele><time>2026-03-29T10:40:02.836Z</time></trkpt><trkpt lat="45.7788606" lon="9.1708824"><ele>369.0</ele><time>2026-03-29T10:40:03.838Z</time></trkpt><trkpt lat="45.7789447" lon="9.1708766"><ele>369.0</ele><time>2026-03-29T10:40:04.838Z</time></trkpt><trkpt lat="45.7790363" lon="9.1708854"><ele>369.0</ele><time>2026-03-29T10:40:05.831Z</time></trkpt><trkpt lat="45.77914" lon="9.1708513"><ele>369.0</ele><time>2026-03-29T10:40:06.839Z</time></trkpt><trkpt lat="45.7791951" lon="9.1707451"><ele>369.0</ele><time>2026-03-29T10:40:07.831Z</time></trkpt><trkpt lat="45.7792496" lon="9.1706344"><ele>369.0</ele><time>2026-03-29T10:40:08.834Z</time></trkpt><trkpt lat="45.7792913" lon="9.1705025"><ele>369.0</ele><time>2026-03-29T10:40:09.839Z</time></trkpt><trkpt lat="45.7793448" lon="9.1703697"><ele>369.0</ele><time>2026-03-29T10:40:10.834Z</time></trkpt><trkpt lat="45.7794015" lon="9.1702502"><ele>369.0</ele><time>2026-03-29T10:40:11.829Z</time></trkpt><trkpt lat="45.7794639" lon="9.170135"><ele>369.0</ele><time>2026-03-29T10:40:12.854Z</time></trkpt><trkpt lat="45.7795292" lon="9.1700092"><ele>369.0</ele><time>2026-03-29T10:40:13.834Z</time></trkpt><trkpt lat="45.7796103" lon="9.1698855"><ele>368.25</ele><time>2026-03-29T10:40:14.831Z</time></trkpt><trkpt lat="45.7797049" lon="9.1697751"><ele>367.5</ele><time>2026-03-29T10:40:15.834Z</time></trkpt><trkpt lat="45.7798024" lon="9.1696775"><ele>366.75</ele><time>2026-03-29T10:40:16.828Z</time></trkpt><trkpt lat="45.7798973" lon="9.1695728"><ele>366.0</ele><time>2026-03-29T10:40:17.832Z</time></trkpt><trkpt lat="45.7799937" lon="9.1694516"><ele>366.0</ele><time>2026-03-29T10:40:18.832Z</time></trkpt><trkpt lat="45.7800894" lon="9.1693223"><ele>366.0</ele><time>2026-03-29T10:40:19.836Z</time></trkpt><trkpt lat="45.7801821" lon="9.169198"><ele>366.0</ele><time>2026-03-29T10:40:20.83Z</time></trkpt><trkpt lat="45.780273" lon="9.1690701"><ele>366.0</ele><time>2026-03-29T10:40:21.833Z</time></trkpt><trkpt lat="45.7803675" lon="9.1689359"><ele>366.75</ele><time>2026-03-29T10:40:22.834Z</time></trkpt><trkpt lat="45.7804654" lon="9.1688018"><ele>367.5</ele><time>2026-03-29T10:40:23.836Z</time></trkpt><trkpt lat="45.7805632" lon="9.1686647"><ele>368.25</ele><time>2026-03-29T10:40:24.831Z</time></trkpt><trkpt lat="45.7806682" lon="9.1685178"><ele>369.0</ele><time>2026-03-29T10:40:25.84Z</time></trkpt><trkpt lat="45.7807937" lon="9.1683345"><ele>369.3333333333333</ele><time>2026-03-29T10:40:26.834Z</time></trkpt><trkpt lat="45.7809219" lon="9.1681715"><ele>369.66666666666663</ele><time>2026-03-29T10:40:27.839Z</time></trkpt><trkpt lat="45.781059" lon="9.1680095"><ele>370.0</ele><time>2026-03-29T10:40:28.847Z</time></trkpt><trkpt lat="45.7811938" lon="9.1678416"><ele>370.0</ele><time>2026-03-29T10:40:29.843Z</time></trkpt><trkpt lat="45.7813362" lon="9.1676683"><ele>370.0</ele><time>2026-03-29T10:40:30.839Z</time></trkpt><trkpt lat="45.7814725" lon="9.1674926"><ele>370.0</ele><time>2026-03-29T10:40:31.843Z</time></trkpt><trkpt lat="45.7816093" lon="9.1673179"><ele>370.0</ele><time>2026-03-29T10:40:32.842Z</time></trkpt><trkpt lat="45.7817422" lon="9.1671398"><ele>370.0</ele><time>2026-03-29T10:40:33.837Z</time></trkpt><trkpt lat="45.7818838" lon="9.1669569"><ele>370.0</ele><time>2026-03-29T10:40:34.834Z</time></trkpt><trkpt lat="45.7820312" lon="9.1667713"><ele>371.3333333333333</ele><time>2026-03-29T10:40:35.836Z</time></trkpt><trkpt lat="45.7821761" lon="9.1665859"><ele>372.6666666666667</ele><time>2026-03-29T10:40:36.83Z</time></trkpt><trkpt lat="45.782319" lon="9.1664131"><ele>374.0</ele><time>2026-03-29T10:40:37.837Z</time></trkpt><trkpt lat="45.7824484" lon="9.1662443"><ele>374.0</ele><time>2026-03-29T10:40:38.842Z</time></trkpt><trkpt lat="45.782572" lon="9.1660694"><ele>374.0</ele><time>2026-03-29T10:40:39.841Z</time></trkpt><trkpt lat="45.7827022" lon="9.1658899"><ele>374.0</ele><time>2026-03-29T10:40:40.836Z</time></trkpt><trkpt lat="45.782836" lon="9.1657191"><ele>374.33333333333337</ele><time>2026-03-29T10:40:41.845Z</time></trkpt><trkpt lat="45.7829765" lon="9.1655355"><ele>374.6666666666667</ele><time>2026-03-29T10:40:42.842Z</time></trkpt><trkpt lat="45.7831223" lon="9.1653529"><ele>375.0</ele><time>2026-03-29T10:40:43.843Z</time></trkpt><trkpt lat="45.7832709" lon="9.1651663"><ele>375.0</ele><time>2026-03-29T10:40:44.848Z</time></trkpt><trkpt lat="45.7834188" lon="9.1649859"><ele>375.0</ele><time>2026-03-29T10:40:45.84Z</time></trkpt><trkpt lat="45.7835662" lon="9.164794"><ele>375.0</ele><time>2026-03-29T10:40:46.841Z</time></trkpt><trkpt lat="45.7837062" lon="9.1645918"><ele>375.0</ele><time>2026-03-29T10:40:47.836Z</time></trkpt><trkpt lat="45.7838474" lon="9.164403"><ele>375.0</ele><time>2026-03-29T10:40:48.835Z</time></trkpt><trkpt lat="45.7839963" lon="9.1642018"><ele>375.0</ele><time>2026-03-29T10:40:49.838Z</time></trkpt><trkpt lat="45.7841481" lon="9.1640066"><ele>375.6666666666667</ele><time>2026-03-29T10:40:50.844Z</time></trkpt><trkpt lat="45.7842961" lon="9.1638291"><ele>376.33333333333337</ele><time>2026-03-29T10:40:51.832Z</time></trkpt><trkpt lat="45.784433" lon="9.1636435"><ele>377.0</ele><time>2026-03-29T10:40:52.842Z</time></trkpt><trkpt lat="45.7845728" lon="9.1634708"><ele>377.0</ele><time>2026-03-29T10:40:53.836Z</time></trkpt><trkpt lat="45.784699" lon="9.1632952"><ele>377.0</ele><time>2026-03-29T10:40:54.837Z</time></trkpt><trkpt lat="45.7848096" lon="9.1631271"><ele>377.0</ele><time>2026-03-29T10:40:55.841Z</time></trkpt><trkpt lat="45.7849384" lon="9.1629826"><ele>377.0</ele><time>2026-03-29T10:40:56.834Z</time></trkpt><trkpt lat="45.7850674" lon="9.1628057"><ele>377.0</ele><time>2026-03-29T10:40:57.83Z</time></trkpt><trkpt lat="45.7851903" lon="9.1626282"><ele>377.0</ele><time>2026-03-29T10:40:58.841Z</time></trkpt><trkpt lat="45.785318" lon="9.1624602"><ele>378.0</ele><time>2026-03-29T10:40:59.843Z</time></trkpt><trkpt lat="45.7854469" lon="9.1622807"><ele>379.0</ele><time>2026-03-29T10:41:00.836Z</time></trkpt><trkpt lat="45.785574" lon="9.1621073"><ele>380.0</ele><time>2026-03-29T10:41:01.834Z</time></trkpt><trkpt lat="45.7857025" lon="9.1619444"><ele>380.0</ele><time>2026-03-29T10:41:02.838Z</time></trkpt><trkpt lat="45.7858276" lon="9.1617868"><ele>380.0</ele><time>2026-03-29T10:41:03.837Z</time></trkpt><trkpt lat="45.7859518" lon="9.1616234"><ele>380.0</ele><time>2026-03-29T10:41:04.837Z</time></trkpt><trkpt lat="45.7860751" lon="9.1614748"><ele>381.33333333333337</ele><time>2026-03-29T10:41:05.84Z</time></trkpt><trkpt lat="45.7862012" lon="9.1613321"><ele>382.6666666666667</ele><time>2026-03-29T10:41:06.833Z</time></trkpt><trkpt lat="45.7863454" lon="9.1611975"><ele>384.0</ele><time>2026-03-29T10:41:07.838Z</time></trkpt><trkpt lat="45.7864694" lon="9.1610486"><ele>384.0</ele><time>2026-03-29T10:41:08.832Z</time></trkpt><trkpt lat="45.7865873" lon="9.1608975"><ele>384.0</ele><time>2026-03-29T10:41:09.834Z</time></trkpt><trkpt lat="45.7867012" lon="9.1607297"><ele>384.0</ele><time>2026-03-29T10:41:10.832Z</time></trkpt><trkpt lat="45.7868071" lon="9.1605641"><ele>384.5</ele><time>2026-03-29T10:41:11.835Z</time></trkpt><trkpt lat="45.7869169" lon="9.1604155"><ele>385.0</ele><time>2026-03-29T10:41:12.83Z</time></trkpt><trkpt lat="45.7870109" lon="9.1602882"><ele>385.5</ele><time>2026-03-29T10:41:13.834Z</time></trkpt><trkpt lat="45.7871064" lon="9.1601629"><ele>386.0</ele><time>2026-03-29T10:41:14.835Z</time></trkpt><trkpt lat="45.7872018" lon="9.1600381"><ele>386.0</ele><time>2026-03-29T10:41:15.834Z</time></trkpt><trkpt lat="45.7872983" lon="9.1599189"><ele>386.0</ele><time>2026-03-29T10:41:16.832Z</time></trkpt><trkpt lat="45.7873859" lon="9.1598004"><ele>386.0</ele><time>2026-03-29T10:41:17.833Z</time></trkpt><trkpt lat="45.787463" lon="9.1596866"><ele>386.0</ele><time>2026-03-29T10:41:18.833Z</time></trkpt><trkpt lat="45.7875456" lon="9.1595724"><ele>386.5</ele><time>2026-03-29T10:41:19.835Z</time></trkpt><trkpt lat="45.7876174" lon="9.1594502"><ele>387.0</ele><time>2026-03-29T10:41:20.84Z</time></trkpt><trkpt lat="45.7876974" lon="9.1593358"><ele>387.5</ele><time>2026-03-29T10:41:21.834Z</time></trkpt><trkpt lat="45.7877824" lon="9.1592177"><ele>388.0</ele><time>2026-03-29T10:41:22.833Z</time></trkpt><trkpt lat="45.7878711" lon="9.1590967"><ele>388.25</ele><time>2026-03-29T10:41:23.833Z</time></trkpt><trkpt lat="45.7879622" lon="9.158978"><ele>388.5</ele><time>2026-03-29T10:41:24.829Z</time></trkpt><trkpt lat="45.7880482" lon="9.1588652"><ele>388.75</ele><time>2026-03-29T10:41:25.835Z</time></trkpt><trkpt lat="45.7881332" lon="9.1587566"><ele>389.0</ele><time>2026-03-29T10:41:26.834Z</time></trkpt><trkpt lat="45.788215" lon="9.1586513"><ele>388.99999999999994</ele><time>2026-03-29T10:41:27.835Z</time></trkpt><trkpt lat="45.7882882" lon="9.1585566"><ele>389.0</ele><time>2026-03-29T10:41:28.826Z</time></trkpt><trkpt lat="45.788353" lon="9.1584678"><ele>389.0</ele><time>2026-03-29T10:41:29.83Z</time></trkpt><trkpt lat="45.7884203" lon="9.1583906"><ele>389.0</ele><time>2026-03-29T10:41:30.832Z</time></trkpt><trkpt lat="45.7884885" lon="9.1583187"><ele>388.99999999999994</ele><time>2026-03-29T10:41:31.827Z</time></trkpt><trkpt lat="45.7885515" lon="9.1582545"><ele>389.0</ele><time>2026-03-29T10:41:32.829Z</time></trkpt><trkpt lat="45.7886082" lon="9.1581997"><ele>389.0</ele><time>2026-03-29T10:41:33.832Z</time></trkpt><trkpt lat="45.7886689" lon="9.1581476"><ele>389.0</ele><time>2026-03-29T10:41:34.835Z</time></trkpt><trkpt lat="45.7887397" lon="9.1580941"><ele>389.0</ele><time>2026-03-29T10:41:35.835Z</time></trkpt><trkpt lat="45.7888184" lon="9.158021"><ele>389.0</ele><time>2026-03-29T10:41:36.835Z</time></trkpt><trkpt lat="45.7888918" lon="9.1579152"><ele>389.0</ele><time>2026-03-29T10:41:37.832Z</time></trkpt><trkpt lat="45.7889602" lon="9.1577862"><ele>389.0</ele><time>2026-03-29T10:41:38.837Z</time></trkpt><trkpt lat="45.7890274" lon="9.1576485"><ele>389.0</ele><time>2026-03-29T10:41:39.833Z</time></trkpt><trkpt lat="45.7890987" lon="9.1575016"><ele>389.0</ele><time>2026-03-29T10:41:40.832Z</time></trkpt><trkpt lat="45.7891792" lon="9.1573442"><ele>389.0</ele><time>2026-03-29T10:41:41.834Z</time></trkpt><trkpt lat="45.7892529" lon="9.1571765"><ele>389.0</ele><time>2026-03-29T10:41:42.834Z</time></trkpt><trkpt lat="45.7893522" lon="9.1570145"><ele>389.0</ele><time>2026-03-29T10:41:43.837Z</time></trkpt><trkpt lat="45.7894763" lon="9.1568582"><ele>389.0</ele><time>2026-03-29T10:41:44.836Z</time></trkpt><trkpt lat="45.7895928" lon="9.1567012"><ele>389.0</ele><time>2026-03-29T10:41:45.835Z</time></trkpt><trkpt lat="45.7897113" lon="9.1565524"><ele>389.0</ele><time>2026-03-29T10:41:46.834Z</time></trkpt><trkpt lat="45.7898437" lon="9.1563986"><ele>389.0</ele><time>2026-03-29T10:41:47.836Z</time></trkpt><trkpt lat="45.7899667" lon="9.1562428"><ele>389.66666666666663</ele><time>2026-03-29T10:41:48.834Z</time></trkpt><trkpt lat="45.7900856" lon="9.1560775"><ele>390.33333333333337</ele><time>2026-03-29T10:41:49.835Z</time></trkpt><trkpt lat="45.7902035" lon="9.1559263"><ele>391.0</ele><time>2026-03-29T10:41:50.841Z</time></trkpt><trkpt lat="45.7903276" lon="9.1557707"><ele>391.6666666666667</ele><time>2026-03-29T10:41:51.837Z</time></trkpt><trkpt lat="45.7904374" lon="9.1556258"><ele>392.33333333333337</ele><time>2026-03-29T10:41:52.838Z</time></trkpt><trkpt lat="45.7905526" lon="9.155472"><ele>393.0</ele><time>2026-03-29T10:41:53.84Z</time></trkpt><trkpt lat="45.7906627" lon="9.1553268"><ele>393.0</ele><time>2026-03-29T10:41:54.835Z</time></trkpt><trkpt lat="45.7907787" lon="9.155189"><ele>393.0</ele><time>2026-03-29T10:41:55.845Z</time></trkpt><trkpt lat="45.7908861" lon="9.1550444"><ele>393.0</ele><time>2026-03-29T10:41:56.832Z</time></trkpt><trkpt lat="45.7909976" lon="9.154913"><ele>393.0</ele><time>2026-03-29T10:41:57.837Z</time></trkpt><trkpt lat="45.791109" lon="9.1547687"><ele>393.75</ele><time>2026-03-29T10:41:58.839Z</time></trkpt><trkpt lat="45.7912179" lon="9.1546281"><ele>394.5</ele><time>2026-03-29T10:41:59.843Z</time></trkpt><trkpt lat="45.7913284" lon="9.15449"><ele>395.25</ele><time>2026-03-29T10:42:00.84Z</time></trkpt><trkpt lat="45.7914454" lon="9.154348"><ele>396.0</ele><time>2026-03-29T10:42:01.838Z</time></trkpt><trkpt lat="45.7915536" lon="9.1542173"><ele>396.0</ele><time>2026-03-29T10:42:02.83Z</time></trkpt><trkpt lat="45.7916663" lon="9.1540876"><ele>396.0</ele><time>2026-03-29T10:42:03.838Z</time></trkpt><trkpt lat="45.791781" lon="9.1539502"><ele>396.0</ele><time>2026-03-29T10:42:04.835Z</time></trkpt><trkpt lat="45.7919027" lon="9.153792"><ele>398.0</ele><time>2026-03-29T10:42:05.842Z</time></trkpt><trkpt lat="45.792042" lon="9.1536053"><ele>400.0</ele><time>2026-03-29T10:42:06.831Z</time></trkpt><trkpt lat="45.7921974" lon="9.1534175"><ele>402.0</ele><time>2026-03-29T10:42:07.831Z</time></trkpt><trkpt lat="45.7923571" lon="9.1532068"><ele>404.5</ele><time>2026-03-29T10:42:08.834Z</time></trkpt><trkpt lat="45.792533" lon="9.1530055"><ele>407.0</ele><time>2026-03-29T10:42:09.831Z</time></trkpt><trkpt lat="45.7927154" lon="9.1527992"><ele>407.0</ele><time>2026-03-29T10:42:10.833Z</time></trkpt><trkpt lat="45.7928933" lon="9.1525886"><ele>407.0</ele><time>2026-03-29T10:42:11.833Z</time></trkpt><trkpt lat="45.7930258" lon="9.1523686"><ele>407.0</ele><time>2026-03-29T10:42:12.831Z</time></trkpt><trkpt lat="45.7931537" lon="9.1521689"><ele>408.0</ele><time>2026-03-29T10:42:13.83Z</time></trkpt><trkpt lat="45.7933029" lon="9.1519957"><ele>409.0</ele><time>2026-03-29T10:42:14.826Z</time></trkpt><trkpt lat="45.7934194" lon="9.1518113"><ele>410.0</ele><time>2026-03-29T10:42:15.834Z</time></trkpt><trkpt lat="45.7935369" lon="9.1516242"><ele>408.25</ele><time>2026-03-29T10:42:16.831Z</time></trkpt><trkpt lat="45.7936379" lon="9.1514489"><ele>406.5</ele><time>2026-03-29T10:42:17.831Z</time></trkpt><trkpt lat="45.7937135" lon="9.1513254"><ele>404.75</ele><time>2026-03-29T10:42:18.836Z</time></trkpt><trkpt lat="45.7937811" lon="9.1512054"><ele>403.0</ele><time>2026-03-29T10:42:19.839Z</time></trkpt><trkpt lat="45.793841" lon="9.1510904"><ele>403.00000000000006</ele><time>2026-03-29T10:42:20.834Z</time></trkpt><trkpt lat="45.7938853" lon="9.1510034"><ele>403.0</ele><time>2026-03-29T10:42:21.832Z</time></trkpt><trkpt lat="45.7939722" lon="9.1509345"><ele>403.0</ele><time>2026-03-29T10:42:23.837Z</time></trkpt><trkpt lat="45.7940901" lon="9.15092"><ele>403.0</ele><time>2026-03-29T10:42:25.837Z</time></trkpt><trkpt lat="45.7941609" lon="9.1509333"><ele>403.00000000000006</ele><time>2026-03-29T10:42:26.837Z</time></trkpt><trkpt lat="45.7942334" lon="9.1509654"><ele>403.0</ele><time>2026-03-29T10:42:27.833Z</time></trkpt><trkpt lat="45.7943116" lon="9.1509813"><ele>403.59999999999997</ele><time>2026-03-29T10:42:28.833Z</time></trkpt><trkpt lat="45.7943985" lon="9.1509514"><ele>404.2</ele><time>2026-03-29T10:42:29.84Z</time></trkpt><trkpt lat="45.7944628" lon="9.1508726"><ele>404.8</ele><time>2026-03-29T10:42:30.831Z</time></trkpt><trkpt lat="45.7945002" lon="9.150767"><ele>405.4</ele><time>2026-03-29T10:42:31.833Z</time></trkpt><trkpt lat="45.7945072" lon="9.1506231"><ele>406.0</ele><time>2026-03-29T10:42:32.835Z</time></trkpt><trkpt lat="45.7945258" lon="9.1504748"><ele>406.0</ele><time>2026-03-29T10:42:33.838Z</time></trkpt><trkpt lat="45.7945429" lon="9.1503492"><ele>406.0</ele><time>2026-03-29T10:42:34.841Z</time></trkpt><trkpt lat="45.7945663" lon="9.1502478"><ele>406.0</ele><time>2026-03-29T10:42:35.837Z</time></trkpt><trkpt lat="45.794591" lon="9.1501498"><ele>406.0</ele><time>2026-03-29T10:42:36.838Z</time></trkpt><trkpt lat="45.7945947" lon="9.1500538"><ele>406.0</ele><time>2026-03-29T10:42:37.857Z</time></trkpt><trkpt lat="45.7945853" lon="9.149963"><ele>406.0</ele><time>2026-03-29T10:42:38.833Z</time></trkpt><trkpt lat="45.7945607" lon="9.1498587"><ele>406.0</ele><time>2026-03-29T10:42:39.863Z</time></trkpt><trkpt lat="45.7945231" lon="9.1497296"><ele>406.0</ele><time>2026-03-29T10:42:40.854Z</time></trkpt><trkpt lat="45.794498" lon="9.1495745"><ele>406.0</ele><time>2026-03-29T10:42:41.831Z</time></trkpt><trkpt lat="45.7944883" lon="9.1493841"><ele>406.0</ele><time>2026-03-29T10:42:42.842Z</time></trkpt><trkpt lat="45.7944986" lon="9.1491571"><ele>406.0</ele><time>2026-03-29T10:42:43.836Z</time></trkpt><trkpt lat="45.7945273" lon="9.1488875"><ele>406.0</ele><time>2026-03-29T10:42:44.846Z</time></trkpt><trkpt lat="45.7945379" lon="9.1486507"><ele>406.0</ele><time>2026-03-29T10:42:45.84Z</time></trkpt><trkpt lat="45.7945463" lon="9.1483947"><ele>406.0</ele><time>2026-03-29T10:42:46.833Z</time></trkpt><trkpt lat="45.7945513" lon="9.1481422"><ele>406.33333333333337</ele><time>2026-03-29T10:42:47.841Z</time></trkpt><trkpt lat="45.7945555" lon="9.1478876"><ele>406.66666666666663</ele><time>2026-03-29T10:42:48.841Z</time></trkpt><trkpt lat="45.7945695" lon="9.1476393"><ele>407.0</ele><time>2026-03-29T10:42:49.841Z</time></trkpt><trkpt lat="45.7945799" lon="9.1474022"><ele>406.66666666666663</ele><time>2026-03-29T10:42:50.849Z</time></trkpt><trkpt lat="45.7945938" lon="9.1471585"><ele>406.33333333333337</ele><time>2026-03-29T10:42:51.842Z</time></trkpt><trkpt lat="45.7946034" lon="9.1469274"><ele>406.0</ele><time>2026-03-29T10:42:52.842Z</time></trkpt><trkpt lat="45.7945975" lon="9.1467081"><ele>406.0</ele><time>2026-03-29T10:42:53.843Z</time></trkpt><trkpt lat="45.7946019" lon="9.1464742"><ele>406.0</ele><time>2026-03-29T10:42:54.842Z</time></trkpt><trkpt lat="45.794611" lon="9.1462421"><ele>406.0</ele><time>2026-03-29T10:42:55.845Z</time></trkpt><trkpt lat="45.7946205" lon="9.1460068"><ele>406.0</ele><time>2026-03-29T10:42:56.839Z</time></trkpt><trkpt lat="45.794634" lon="9.1457766"><ele>406.0</ele><time>2026-03-29T10:42:57.838Z</time></trkpt><trkpt lat="45.7946447" lon="9.1455394"><ele>406.0</ele><time>2026-03-29T10:42:58.841Z</time></trkpt><trkpt lat="45.7946682" lon="9.1453109"><ele>406.33333333333337</ele><time>2026-03-29T10:42:59.842Z</time></trkpt><trkpt lat="45.7946885" lon="9.1450694"><ele>406.66666666666663</ele><time>2026-03-29T10:43:00.848Z</time></trkpt><trkpt lat="45.7947012" lon="9.1448201"><ele>407.0</ele><time>2026-03-29T10:43:01.843Z</time></trkpt><trkpt lat="45.7947265" lon="9.1445574"><ele>408.0</ele><time>2026-03-29T10:43:02.841Z</time></trkpt><trkpt lat="45.7947511" lon="9.1443116"><ele>409.0</ele><time>2026-03-29T10:43:03.842Z</time></trkpt><trkpt lat="45.7947619" lon="9.1440399"><ele>410.0</ele><time>2026-03-29T10:43:04.841Z</time></trkpt><trkpt lat="45.7947881" lon="9.1437668"><ele>410.3333333333333</ele><time>2026-03-29T10:43:05.841Z</time></trkpt><trkpt lat="45.7948237" lon="9.1434802"><ele>410.66666666666663</ele><time>2026-03-29T10:43:06.842Z</time></trkpt><trkpt lat="45.7948486" lon="9.1431963"><ele>411.0</ele><time>2026-03-29T10:43:07.84Z</time></trkpt><trkpt lat="45.7948674" lon="9.1429359"><ele>412.0</ele><time>2026-03-29T10:43:08.839Z</time></trkpt><trkpt lat="45.7948696" lon="9.142694"><ele>413.0</ele><time>2026-03-29T10:43:09.839Z</time></trkpt><trkpt lat="45.7948741" lon="9.1424418"><ele>414.0</ele><time>2026-03-29T10:43:10.839Z</time></trkpt><trkpt lat="45.7948737" lon="9.1422108"><ele>414.0</ele><time>2026-03-29T10:43:11.833Z</time></trkpt><trkpt lat="45.7948777" lon="9.1419937"><ele>414.0</ele><time>2026-03-29T10:43:12.839Z</time></trkpt><trkpt lat="45.7948857" lon="9.1418151"><ele>414.0</ele><time>2026-03-29T10:43:13.839Z</time></trkpt><trkpt lat="45.7949006" lon="9.1416499"><ele>414.0</ele><time>2026-03-29T10:43:14.854Z</time></trkpt><trkpt lat="45.7949238" lon="9.1414961"><ele>413.0</ele><time>2026-03-29T10:43:15.837Z</time></trkpt><trkpt lat="45.7949581" lon="9.141396"><ele>412.0</ele><time>2026-03-29T10:43:16.834Z</time></trkpt><trkpt lat="45.7949958" lon="9.1412932"><ele>411.0</ele><time>2026-03-29T10:43:17.837Z</time></trkpt><trkpt lat="45.795032" lon="9.1411707"><ele>410.0</ele><time>2026-03-29T10:43:18.832Z</time></trkpt><trkpt lat="45.7950323" lon="9.1410318"><ele>409.0</ele><time>2026-03-29T10:43:19.832Z</time></trkpt><trkpt lat="45.7950036" lon="9.1408756"><ele>409.0</ele><time>2026-03-29T10:43:20.832Z</time></trkpt><trkpt lat="45.7949607" lon="9.1407077"><ele>409.0</ele><time>2026-03-29T10:43:21.837Z</time></trkpt><trkpt lat="45.7949297" lon="9.1405256"><ele>409.0</ele><time>2026-03-29T10:43:22.834Z</time></trkpt><trkpt lat="45.7949015" lon="9.1403271"><ele>409.0</ele><time>2026-03-29T10:43:23.834Z</time></trkpt><trkpt lat="45.7948932" lon="9.1400966"><ele>409.6666666666667</ele><time>2026-03-29T10:43:24.839Z</time></trkpt><trkpt lat="45.7948721" lon="9.1398592"><ele>410.33333333333337</ele><time>2026-03-29T10:43:25.833Z</time></trkpt><trkpt lat="45.7948599" lon="9.1396068"><ele>411.0</ele><time>2026-03-29T10:43:26.835Z</time></trkpt><trkpt lat="45.7948427" lon="9.139371"><ele>411.0</ele><time>2026-03-29T10:43:27.843Z</time></trkpt><trkpt lat="45.7948452" lon="9.1391473"><ele>411.0</ele><time>2026-03-29T10:43:28.831Z</time></trkpt><trkpt lat="45.7948535" lon="9.1389082"><ele>411.0</ele><time>2026-03-29T10:43:29.841Z</time></trkpt><trkpt lat="45.7948565" lon="9.1386617"><ele>411.0</ele><time>2026-03-29T10:43:30.833Z</time></trkpt><trkpt lat="45.7948574" lon="9.1384095"><ele>411.0</ele><time>2026-03-29T10:43:31.832Z</time></trkpt><trkpt lat="45.7948494" lon="9.1381501"><ele>411.0</ele><time>2026-03-29T10:43:32.84Z</time></trkpt><trkpt lat="45.7948481" lon="9.1378893"><ele>411.0</ele><time>2026-03-29T10:43:33.834Z</time></trkpt><trkpt lat="45.7948504" lon="9.1376313"><ele>411.0</ele><time>2026-03-29T10:43:34.836Z</time></trkpt><trkpt lat="45.7948478" lon="9.1373907"><ele>411.0</ele><time>2026-03-29T10:43:35.836Z</time></trkpt><trkpt lat="45.7948506" lon="9.1371309"><ele>411.0</ele><time>2026-03-29T10:43:36.842Z</time></trkpt><trkpt lat="45.7948528" lon="9.136865"><ele>411.0</ele><time>2026-03-29T10:43:37.835Z</time></trkpt><trkpt lat="45.7948578" lon="9.1366125"><ele>411.0</ele><time>2026-03-29T10:43:38.837Z</time></trkpt><trkpt lat="45.7948496" lon="9.1363609"><ele>411.0</ele><time>2026-03-29T10:43:39.835Z</time></trkpt><trkpt lat="45.7948364" lon="9.1361147"><ele>411.0</ele><time>2026-03-29T10:43:40.845Z</time></trkpt><trkpt lat="45.7948329" lon="9.1358755"><ele>411.0</ele><time>2026-03-29T10:43:41.836Z</time></trkpt><trkpt lat="45.794833" lon="9.1356433"><ele>411.75</ele><time>2026-03-29T10:43:42.843Z</time></trkpt><trkpt lat="45.7948416" lon="9.1354357"><ele>412.5</ele><time>2026-03-29T10:43:43.835Z</time></trkpt><trkpt lat="45.7948321" lon="9.1352329"><ele>413.25</ele><time>2026-03-29T10:43:44.84Z</time></trkpt><trkpt lat="45.7948161" lon="9.1350168"><ele>414.0</ele><time>2026-03-29T10:43:45.835Z</time></trkpt><trkpt lat="45.7948146" lon="9.1347981"><ele>414.0</ele><time>2026-03-29T10:43:46.844Z</time></trkpt><trkpt lat="45.7948313" lon="9.1345881"><ele>414.0</ele><time>2026-03-29T10:43:47.828Z</time></trkpt><trkpt lat="45.7948507" lon="9.1343887"><ele>414.0</ele><time>2026-03-29T10:43:48.832Z</time></trkpt><trkpt lat="45.7948939" lon="9.1342005"><ele>414.0</ele><time>2026-03-29T10:43:49.832Z</time></trkpt><trkpt lat="45.7949552" lon="9.1340229"><ele>414.0</ele><time>2026-03-29T10:43:50.834Z</time></trkpt><trkpt lat="45.795039" lon="9.1338453"><ele>414.0</ele><time>2026-03-29T10:43:51.829Z</time></trkpt><trkpt lat="45.7950923" lon="9.1336643"><ele>414.0</ele><time>2026-03-29T10:43:52.84Z</time></trkpt><trkpt lat="45.7951504" lon="9.1334858"><ele>414.0</ele><time>2026-03-29T10:43:53.827Z</time></trkpt><trkpt lat="45.7952056" lon="9.1333002"><ele>411.0</ele><time>2026-03-29T10:43:54.836Z</time></trkpt><trkpt lat="45.7952689" lon="9.1331437"><ele>408.0</ele><time>2026-03-29T10:43:55.831Z</time></trkpt><trkpt lat="45.7953351" lon="9.1329738"><ele>405.0</ele><time>2026-03-29T10:43:56.837Z</time></trkpt><trkpt lat="45.7954172" lon="9.1328177"><ele>402.0</ele><time>2026-03-29T10:43:57.832Z</time></trkpt><trkpt lat="45.795528" lon="9.1326185"><ele>402.0</ele><time>2026-03-29T10:43:58.835Z</time></trkpt><trkpt lat="45.7956327" lon="9.1323945"><ele>402.0</ele><time>2026-03-29T10:43:59.83Z</time></trkpt><trkpt lat="45.7957464" lon="9.1321834"><ele>402.0</ele><time>2026-03-29T10:44:00.835Z</time></trkpt><trkpt lat="45.7958662" lon="9.1319819"><ele>403.33333333333337</ele><time>2026-03-29T10:44:01.828Z</time></trkpt><trkpt lat="45.7959545" lon="9.1317692"><ele>404.6666666666667</ele><time>2026-03-29T10:44:02.83Z</time></trkpt><trkpt lat="45.7960127" lon="9.1315689"><ele>406.0</ele><time>2026-03-29T10:44:03.829Z</time></trkpt><trkpt lat="45.7960611" lon="9.131385"><ele>402.25</ele><time>2026-03-29T10:44:04.836Z</time></trkpt><trkpt lat="45.7961126" lon="9.1311993"><ele>398.5</ele><time>2026-03-29T10:44:05.832Z</time></trkpt><trkpt lat="45.7961468" lon="9.1309968"><ele>394.75</ele><time>2026-03-29T10:44:06.825Z</time></trkpt><trkpt lat="45.7961626" lon="9.1307767"><ele>391.0</ele><time>2026-03-29T10:44:07.825Z</time></trkpt><trkpt lat="45.7961749" lon="9.1305725"><ele>391.0</ele><time>2026-03-29T10:44:08.831Z</time></trkpt><trkpt lat="45.7961866" lon="9.1303563"><ele>391.0</ele><time>2026-03-29T10:44:09.832Z</time></trkpt><trkpt lat="45.7961576" lon="9.1301441"><ele>391.0</ele><time>2026-03-29T10:44:10.833Z</time></trkpt><trkpt lat="45.7961094" lon="9.1299406"><ele>392.0</ele><time>2026-03-29T10:44:11.832Z</time></trkpt><trkpt lat="45.7960417" lon="9.1297219"><ele>393.0</ele><time>2026-03-29T10:44:12.84Z</time></trkpt><trkpt lat="45.7959523" lon="9.1295011"><ele>394.0</ele><time>2026-03-29T10:44:13.831Z</time></trkpt><trkpt lat="45.795872" lon="9.1292787"><ele>394.0</ele><time>2026-03-29T10:44:14.842Z</time></trkpt><trkpt lat="45.7958049" lon="9.1290604"><ele>394.0</ele><time>2026-03-29T10:44:15.835Z</time></trkpt><trkpt lat="45.7957507" lon="9.1288567"><ele>394.0</ele><time>2026-03-29T10:44:16.833Z</time></trkpt><trkpt lat="45.7956825" lon="9.1286655"><ele>391.75</ele><time>2026-03-29T10:44:17.837Z</time></trkpt><trkpt lat="45.7956279" lon="9.1284878"><ele>389.5</ele><time>2026-03-29T10:44:18.834Z</time></trkpt><trkpt lat="45.7955669" lon="9.128293"><ele>387.25</ele><time>2026-03-29T10:44:19.843Z</time></trkpt><trkpt lat="45.7955089" lon="9.1281119"><ele>385.0</ele><time>2026-03-29T10:44:20.841Z</time></trkpt><trkpt lat="45.7954741" lon="9.1279383"><ele>382.5</ele><time>2026-03-29T10:44:21.838Z</time></trkpt><trkpt lat="45.7954354" lon="9.1277761"><ele>380.0</ele><time>2026-03-29T10:44:22.841Z</time></trkpt><trkpt lat="45.7953976" lon="9.1276165"><ele>377.5</ele><time>2026-03-29T10:44:23.839Z</time></trkpt><trkpt lat="45.7953531" lon="9.1274664"><ele>375.0</ele><time>2026-03-29T10:44:24.856Z</time></trkpt><trkpt lat="45.7952979" lon="9.127329"><ele>375.3333333333333</ele><time>2026-03-29T10:44:25.838Z</time></trkpt><trkpt lat="45.7952416" lon="9.1272017"><ele>375.6666666666667</ele><time>2026-03-29T10:44:26.841Z</time></trkpt><trkpt lat="45.7952017" lon="9.1270821"><ele>376.0</ele><time>2026-03-29T10:44:27.838Z</time></trkpt><trkpt lat="45.7951804" lon="9.1269732"><ele>376.33333333333337</ele><time>2026-03-29T10:44:28.839Z</time></trkpt><trkpt lat="45.7951637" lon="9.1268771"><ele>376.6666666666667</ele><time>2026-03-29T10:44:29.834Z</time></trkpt><trkpt lat="45.7951599" lon="9.1267322"><ele>377.0</ele><time>2026-03-29T10:44:31.834Z</time></trkpt><trkpt lat="45.7951789" lon="9.1266239"><ele>374.25</ele><time>2026-03-29T10:44:32.835Z</time></trkpt><trkpt lat="45.7952026" lon="9.1264649"><ele>371.5</ele><time>2026-03-29T10:44:33.832Z</time></trkpt><trkpt lat="45.795227" lon="9.1262901"><ele>368.75</ele><time>2026-03-29T10:44:34.84Z</time></trkpt><trkpt lat="45.7952497" lon="9.1261203"><ele>366.0</ele><time>2026-03-29T10:44:35.833Z</time></trkpt><trkpt lat="45.7952809" lon="9.1259725"><ele>366.0</ele><time>2026-03-29T10:44:36.829Z</time></trkpt><trkpt lat="45.7953204" lon="9.1258598"><ele>366.0</ele><time>2026-03-29T10:44:37.828Z</time></trkpt><trkpt lat="45.795368" lon="9.125776"><ele>366.0</ele><time>2026-03-29T10:44:38.83Z</time></trkpt><trkpt lat="45.7954207" lon="9.1256996"><ele>366.0</ele><time>2026-03-29T10:44:39.83Z</time></trkpt><trkpt lat="45.7954827" lon="9.1256064"><ele>366.0</ele><time>2026-03-29T10:44:40.836Z</time></trkpt><trkpt lat="45.7955405" lon="9.1254839"><ele>366.0</ele><time>2026-03-29T10:44:41.831Z</time></trkpt><trkpt lat="45.7956006" lon="9.1253306"><ele>366.25</ele><time>2026-03-29T10:44:42.835Z</time></trkpt><trkpt lat="45.7956645" lon="9.1251644"><ele>366.5</ele><time>2026-03-29T10:44:43.839Z</time></trkpt><trkpt lat="45.7957448" lon="9.1249904"><ele>366.75</ele><time>2026-03-29T10:44:44.837Z</time></trkpt><trkpt lat="45.7958509" lon="9.1248185"><ele>367.0</ele><time>2026-03-29T10:44:45.838Z</time></trkpt><trkpt lat="45.7959555" lon="9.124652"><ele>365.75</ele><time>2026-03-29T10:44:46.838Z</time></trkpt><trkpt lat="45.7960489" lon="9.1244853"><ele>364.5</ele><time>2026-03-29T10:44:47.839Z</time></trkpt><trkpt lat="45.7961296" lon="9.124338"><ele>363.25</ele><time>2026-03-29T10:44:48.839Z</time></trkpt><trkpt lat="45.7961923" lon="9.1242078"><ele>362.0</ele><time>2026-03-29T10:44:49.834Z</time></trkpt><trkpt lat="45.7962459" lon="9.1240952"><ele>363.0</ele><time>2026-03-29T10:44:50.84Z</time></trkpt><trkpt lat="45.7962785" lon="9.1239824"><ele>364.0</ele><time>2026-03-29T10:44:51.833Z</time></trkpt><trkpt lat="45.7963232" lon="9.1238907"><ele>365.0</ele><time>2026-03-29T10:44:52.855Z</time></trkpt><trkpt lat="45.796374" lon="9.1238054"><ele>366.0</ele><time>2026-03-29T10:44:53.838Z</time></trkpt><trkpt lat="45.7964275" lon="9.1236983"><ele>367.0</ele><time>2026-03-29T10:44:54.853Z</time></trkpt><trkpt lat="45.7964872" lon="9.1235755"><ele>368.0</ele><time>2026-03-29T10:44:55.837Z</time></trkpt><trkpt lat="45.7965527" lon="9.1234213"><ele>368.0</ele><time>2026-03-29T10:44:56.841Z</time></trkpt><trkpt lat="45.7966308" lon="9.1232566"><ele>368.0</ele><time>2026-03-29T10:44:57.838Z</time></trkpt><trkpt lat="45.796715" lon="9.1230775"><ele>368.0</ele><time>2026-03-29T10:44:58.834Z</time></trkpt><trkpt lat="45.7968105" lon="9.1228797"><ele>367.0</ele><time>2026-03-29T10:44:59.834Z</time></trkpt><trkpt lat="45.7968977" lon="9.1226632"><ele>366.0</ele><time>2026-03-29T10:45:00.835Z</time></trkpt><trkpt lat="45.7969909" lon="9.1224772"><ele>365.0</ele><time>2026-03-29T10:45:01.836Z</time></trkpt><trkpt lat="45.7970639" lon="9.1222615"><ele>364.33333333333337</ele><time>2026-03-29T10:45:02.838Z</time></trkpt><trkpt lat="45.7971293" lon="9.1220474"><ele>363.6666666666667</ele><time>2026-03-29T10:45:03.838Z</time></trkpt><trkpt lat="45.7971649" lon="9.1217994"><ele>363.0</ele><time>2026-03-29T10:45:04.832Z</time></trkpt><trkpt lat="45.797191" lon="9.1215913"><ele>361.3333333333333</ele><time>2026-03-29T10:45:05.836Z</time></trkpt><trkpt lat="45.7972064" lon="9.1213693"><ele>359.66666666666663</ele><time>2026-03-29T10:45:06.832Z</time></trkpt><trkpt lat="45.7971802" lon="9.1211205"><ele>358.0</ele><time>2026-03-29T10:45:07.832Z</time></trkpt><trkpt lat="45.7971374" lon="9.1209039"><ele>356.0</ele><time>2026-03-29T10:45:08.836Z</time></trkpt><trkpt lat="45.7971406" lon="9.1206806"><ele>354.0</ele><time>2026-03-29T10:45:09.837Z</time></trkpt><trkpt lat="45.7971554" lon="9.1204529"><ele>352.0</ele><time>2026-03-29T10:45:10.861Z</time></trkpt><trkpt lat="45.79714" lon="9.1202076"><ele>352.0</ele><time>2026-03-29T10:45:11.863Z</time></trkpt><trkpt lat="45.797109" lon="9.1199348"><ele>352.0</ele><time>2026-03-29T10:45:12.857Z</time></trkpt><trkpt lat="45.7970731" lon="9.1196731"><ele>352.0</ele><time>2026-03-29T10:45:13.846Z</time></trkpt><trkpt lat="45.7970427" lon="9.1194056"><ele>349.3333333333333</ele><time>2026-03-29T10:45:14.843Z</time></trkpt><trkpt lat="45.7970178" lon="9.1191451"><ele>346.6666666666667</ele><time>2026-03-29T10:45:15.839Z</time></trkpt><trkpt lat="45.7970071" lon="9.1189015"><ele>344.0</ele><time>2026-03-29T10:45:16.842Z</time></trkpt><trkpt lat="45.7970162" lon="9.1186585"><ele>343.0</ele><time>2026-03-29T10:45:17.837Z</time></trkpt><trkpt lat="45.797014" lon="9.1183886"><ele>342.0</ele><time>2026-03-29T10:45:18.841Z</time></trkpt><trkpt lat="45.7970071" lon="9.1181273"><ele>341.0</ele><time>2026-03-29T10:45:19.843Z</time></trkpt><trkpt lat="45.7970038" lon="9.1178451"><ele>340.33333333333337</ele><time>2026-03-29T10:45:20.84Z</time></trkpt><trkpt lat="45.7969914" lon="9.1175744"><ele>339.6666666666667</ele><time>2026-03-29T10:45:21.838Z</time></trkpt><trkpt lat="45.7969729" lon="9.117295"><ele>339.0</ele><time>2026-03-29T10:45:22.844Z</time></trkpt><trkpt lat="45.7969641" lon="9.1170328"><ele>339.0</ele><time>2026-03-29T10:45:23.839Z</time></trkpt><trkpt lat="45.7969659" lon="9.1167673"><ele>339.0</ele><time>2026-03-29T10:45:24.836Z</time></trkpt><trkpt lat="45.7969857" lon="9.1165188"><ele>339.0</ele><time>2026-03-29T10:45:25.838Z</time></trkpt><trkpt lat="45.7969994" lon="9.1162741"><ele>339.0</ele><time>2026-03-29T10:45:26.841Z</time></trkpt><trkpt lat="45.7970234" lon="9.1160559"><ele>339.0</ele><time>2026-03-29T10:45:27.856Z</time></trkpt><trkpt lat="45.7970598" lon="9.1158554"><ele>339.0</ele><time>2026-03-29T10:45:28.836Z</time></trkpt><trkpt lat="45.797104" lon="9.1156668"><ele>339.0</ele><time>2026-03-29T10:45:29.832Z</time></trkpt><trkpt lat="45.797143" lon="9.1155034"><ele>339.0</ele><time>2026-03-29T10:45:30.834Z</time></trkpt><trkpt lat="45.7971813" lon="9.1153547"><ele>339.0</ele><time>2026-03-29T10:45:31.833Z</time></trkpt><trkpt lat="45.7972196" lon="9.1152225"><ele>339.0</ele><time>2026-03-29T10:45:32.826Z</time></trkpt><trkpt lat="45.797284" lon="9.1150701"><ele>339.0</ele><time>2026-03-29T10:45:33.83Z</time></trkpt><trkpt lat="45.7973401" lon="9.1149276"><ele>339.0</ele><time>2026-03-29T10:45:34.838Z</time></trkpt><trkpt lat="45.7973809" lon="9.1147828"><ele>339.0</ele><time>2026-03-29T10:45:35.837Z</time></trkpt><trkpt lat="45.7974112" lon="9.1146403"><ele>339.0</ele><time>2026-03-29T10:45:36.85Z</time></trkpt><trkpt lat="45.7974348" lon="9.1145052"><ele>339.0</ele><time>2026-03-29T10:45:37.877Z</time></trkpt><trkpt lat="45.7974696" lon="9.1143951"><ele>339.0</ele><time>2026-03-29T10:45:38.849Z</time></trkpt><trkpt lat="45.7975283" lon="9.1143188"><ele>339.0</ele><time>2026-03-29T10:45:39.856Z</time></trkpt><trkpt lat="45.7976059" lon="9.1142766"><ele>339.0</ele><time>2026-03-29T10:45:40.833Z</time></trkpt><trkpt lat="45.7976846" lon="9.1142456"><ele>338.8333333333333</ele><time>2026-03-29T10:45:41.83Z</time></trkpt><trkpt lat="45.7977497" lon="9.1141945"><ele>338.6666666666667</ele><time>2026-03-29T10:45:42.826Z</time></trkpt><trkpt lat="45.7977829" lon="9.114112"><ele>338.5</ele><time>2026-03-29T10:45:43.834Z</time></trkpt><trkpt lat="45.7977811" lon="9.1140133"><ele>338.33333333333337</ele><time>2026-03-29T10:45:44.83Z</time></trkpt><trkpt lat="45.7977487" lon="9.1139038"><ele>338.1666666666667</ele><time>2026-03-29T10:45:45.834Z</time></trkpt><trkpt lat="45.7977413" lon="9.1137873"><ele>338.0</ele><time>2026-03-29T10:45:46.836Z</time></trkpt><trkpt lat="45.7977533" lon="9.1136742"><ele>338.0</ele><time>2026-03-29T10:45:47.835Z</time></trkpt><trkpt lat="45.7977844" lon="9.1135515"><ele>338.0</ele><time>2026-03-29T10:45:48.833Z</time></trkpt><trkpt lat="45.7978385" lon="9.1134137"><ele>338.0</ele><time>2026-03-29T10:45:49.837Z</time></trkpt><trkpt lat="45.7979118" lon="9.1132563"><ele>338.0</ele><time>2026-03-29T10:45:50.836Z</time></trkpt><trkpt lat="45.7979914" lon="9.1130724"><ele>338.33333333333337</ele><time>2026-03-29T10:45:51.83Z</time></trkpt><trkpt lat="45.7980963" lon="9.1128541"><ele>338.6666666666667</ele><time>2026-03-29T10:45:52.838Z</time></trkpt><trkpt lat="45.7982055" lon="9.1126414"><ele>339.0</ele><time>2026-03-29T10:45:53.836Z</time></trkpt><trkpt lat="45.7983157" lon="9.1124499"><ele>338.3333333333333</ele><time>2026-03-29T10:45:54.836Z</time></trkpt><trkpt lat="45.7984091" lon="9.1122495"><ele>337.66666666666663</ele><time>2026-03-29T10:45:55.841Z</time></trkpt><trkpt lat="45.7985064" lon="9.1120448"><ele>337.0</ele><time>2026-03-29T10:45:56.834Z</time></trkpt><trkpt lat="45.7986039" lon="9.1118568"><ele>337.0</ele><time>2026-03-29T10:45:57.836Z</time></trkpt><trkpt lat="45.7986958" lon="9.1116737"><ele>337.0</ele><time>2026-03-29T10:45:58.842Z</time></trkpt><trkpt lat="45.7987925" lon="9.111503"><ele>337.0</ele><time>2026-03-29T10:45:59.839Z</time></trkpt><trkpt lat="45.7988867" lon="9.1113145"><ele>336.0</ele><time>2026-03-29T10:46:00.833Z</time></trkpt><trkpt lat="45.7989772" lon="9.1111393"><ele>335.0</ele><time>2026-03-29T10:46:01.835Z</time></trkpt><trkpt lat="45.7990737" lon="9.1109687"><ele>334.0</ele><time>2026-03-29T10:46:02.838Z</time></trkpt><trkpt lat="45.7991563" lon="9.110794"><ele>333.0</ele><time>2026-03-29T10:46:03.835Z</time></trkpt><trkpt lat="45.799211" lon="9.1106063"><ele>332.0</ele><time>2026-03-29T10:46:04.827Z</time></trkpt><trkpt lat="45.7992291" lon="9.110395"><ele>331.0</ele><time>2026-03-29T10:46:05.833Z</time></trkpt><trkpt lat="45.7992279" lon="9.1101416"><ele>330.3333333333333</ele><time>2026-03-29T10:46:06.836Z</time></trkpt><trkpt lat="45.7992102" lon="9.1098748"><ele>329.6666666666667</ele><time>2026-03-29T10:46:07.834Z</time></trkpt><trkpt lat="45.7991998" lon="9.1096194"><ele>329.0</ele><time>2026-03-29T10:46:08.836Z</time></trkpt><trkpt lat="45.7991843" lon="9.1093132"><ele>328.33333333333337</ele><time>2026-03-29T10:46:09.837Z</time></trkpt><trkpt lat="45.7991719" lon="9.108972"><ele>327.6666666666667</ele><time>2026-03-29T10:46:10.836Z</time></trkpt><trkpt lat="45.7991907" lon="9.1087048"><ele>327.0</ele><time>2026-03-29T10:46:11.828Z</time></trkpt><trkpt lat="45.799188" lon="9.1084437"><ele>326.0</ele><time>2026-03-29T10:46:12.834Z</time></trkpt><trkpt lat="45.7991921" lon="9.1082274"><ele>325.0</ele><time>2026-03-29T10:46:13.828Z</time></trkpt><trkpt lat="45.7992024" lon="9.1080291"><ele>324.0</ele><time>2026-03-29T10:46:14.824Z</time></trkpt><trkpt lat="45.7992096" lon="9.1078627"><ele>323.0</ele><time>2026-03-29T10:46:15.83Z</time></trkpt><trkpt lat="45.7992177" lon="9.1077006"><ele>323.0</ele><time>2026-03-29T10:46:16.836Z</time></trkpt><trkpt lat="45.7992223" lon="9.1075444"><ele>323.0</ele><time>2026-03-29T10:46:17.827Z</time></trkpt><trkpt lat="45.7992294" lon="9.1074088"><ele>323.0</ele><time>2026-03-29T10:46:18.838Z</time></trkpt><trkpt lat="45.7992285" lon="9.1072685"><ele>323.0</ele><time>2026-03-29T10:46:19.826Z</time></trkpt><trkpt lat="45.7992295" lon="9.1071402"><ele>323.0</ele><time>2026-03-29T10:46:20.829Z</time></trkpt><trkpt lat="45.79923" lon="9.1070177"><ele>322.4</ele><time>2026-03-29T10:46:21.853Z</time></trkpt><trkpt lat="45.7992304" lon="9.1068892"><ele>321.79999999999995</ele><time>2026-03-29T10:46:22.831Z</time></trkpt><trkpt lat="45.7992392" lon="9.1067538"><ele>321.2</ele><time>2026-03-29T10:46:23.834Z</time></trkpt><trkpt lat="45.7992556" lon="9.1066095"><ele>320.6</ele><time>2026-03-29T10:46:24.834Z</time></trkpt><trkpt lat="45.7992878" lon="9.1064678"><ele>320.0</ele><time>2026-03-29T10:46:25.834Z</time></trkpt><trkpt lat="45.799334" lon="9.1063369"><ele>318.2</ele><time>2026-03-29T10:46:26.853Z</time></trkpt><trkpt lat="45.7993893" lon="9.1062142"><ele>316.4</ele><time>2026-03-29T10:46:27.819Z</time></trkpt><trkpt lat="45.7994519" lon="9.1061067"><ele>314.6</ele><time>2026-03-29T10:46:28.831Z</time></trkpt><trkpt lat="45.7995243" lon="9.1060157"><ele>312.8</ele><time>2026-03-29T10:46:29.829Z</time></trkpt><trkpt lat="45.7996102" lon="9.1059556"><ele>311.0</ele><time>2026-03-29T10:46:30.829Z</time></trkpt><trkpt lat="45.7996992" lon="9.1059026"><ele>311.0</ele><time>2026-03-29T10:46:31.829Z</time></trkpt><trkpt lat="45.7997988" lon="9.1058443"><ele>311.0</ele><time>2026-03-29T10:46:32.855Z</time></trkpt><trkpt lat="45.7999149" lon="9.1057793"><ele>311.0</ele><time>2026-03-29T10:46:33.836Z</time></trkpt><trkpt lat="45.8000317" lon="9.1057018"><ele>311.0</ele><time>2026-03-29T10:46:34.855Z</time></trkpt><trkpt lat="45.8001561" lon="9.1056246"><ele>308.33333333333337</ele><time>2026-03-29T10:46:35.835Z</time></trkpt><trkpt lat="45.8002923" lon="9.1055392"><ele>305.6666666666667</ele><time>2026-03-29T10:46:36.822Z</time></trkpt><trkpt lat="45.8004351" lon="9.1054448"><ele>303.0</ele><time>2026-03-29T10:46:37.824Z</time></trkpt><trkpt lat="45.8005695" lon="9.1053684"><ele>303.0</ele><time>2026-03-29T10:46:38.828Z</time></trkpt><trkpt lat="45.8006921" lon="9.1052774"><ele>303.0</ele><time>2026-03-29T10:46:39.826Z</time></trkpt><trkpt lat="45.8008129" lon="9.105199"><ele>303.0</ele><time>2026-03-29T10:46:40.83Z</time></trkpt><trkpt lat="45.8009465" lon="9.1051261"><ele>303.0</ele><time>2026-03-29T10:46:41.83Z</time></trkpt><trkpt lat="45.8010729" lon="9.1050829"><ele>300.5</ele><time>2026-03-29T10:46:42.827Z</time></trkpt><trkpt lat="45.8011903" lon="9.1049927"><ele>298.0</ele><time>2026-03-29T10:46:43.832Z</time></trkpt><trkpt lat="45.8012924" lon="9.1049223"><ele>295.5</ele><time>2026-03-29T10:46:44.828Z</time></trkpt><trkpt lat="45.8014015" lon="9.1048657"><ele>293.0</ele><time>2026-03-29T10:46:45.822Z</time></trkpt><trkpt lat="45.8014986" lon="9.1048192"><ele>292.75</ele><time>2026-03-29T10:46:46.819Z</time></trkpt><trkpt lat="45.8016034" lon="9.1048076"><ele>292.5</ele><time>2026-03-29T10:46:47.833Z</time></trkpt><trkpt lat="45.8017232" lon="9.1048189"><ele>292.25</ele><time>2026-03-29T10:46:48.831Z</time></trkpt><trkpt lat="45.801849" lon="9.10481"><ele>292.0</ele><time>2026-03-29T10:46:49.82Z</time></trkpt><trkpt lat="45.8019828" lon="9.1047919"><ele>292.0</ele><time>2026-03-29T10:46:50.826Z</time></trkpt><trkpt lat="45.8021207" lon="9.1047596"><ele>292.0</ele><time>2026-03-29T10:46:51.828Z</time></trkpt><trkpt lat="45.8022495" lon="9.1047221"><ele>292.0</ele><time>2026-03-29T10:46:52.822Z</time></trkpt><trkpt lat="45.8023791" lon="9.1046715"><ele>292.0</ele><time>2026-03-29T10:46:53.824Z</time></trkpt><trkpt lat="45.8025018" lon="9.1046148"><ele>292.0</ele><time>2026-03-29T10:46:54.82Z</time></trkpt><trkpt lat="45.8026149" lon="9.1045634"><ele>292.0</ele><time>2026-03-29T10:46:55.821Z</time></trkpt><trkpt lat="45.8027213" lon="9.1045131"><ele>292.0</ele><time>2026-03-29T10:46:56.87Z</time></trkpt><trkpt lat="45.8028183" lon="9.1044575"><ele>292.0</ele><time>2026-03-29T10:46:57.822Z</time></trkpt><trkpt lat="45.8029058" lon="9.1043948"><ele>292.0</ele><time>2026-03-29T10:46:58.821Z</time></trkpt><trkpt lat="45.8029917" lon="9.1043222"><ele>291.4</ele><time>2026-03-29T10:46:59.827Z</time></trkpt><trkpt lat="45.8030393" lon="9.1042322"><ele>290.79999999999995</ele><time>2026-03-29T10:47:00.829Z</time></trkpt><trkpt lat="45.8030626" lon="9.1041116"><ele>290.2</ele><time>2026-03-29T10:47:01.832Z</time></trkpt><trkpt lat="45.8030501" lon="9.103977"><ele>289.59999999999997</ele><time>2026-03-29T10:47:02.856Z</time></trkpt><trkpt lat="45.8030034" lon="9.1038408"><ele>289.0</ele><time>2026-03-29T10:47:03.841Z</time></trkpt><trkpt lat="45.8029191" lon="9.1037267"><ele>286.25</ele><time>2026-03-29T10:47:04.836Z</time></trkpt><trkpt lat="45.8028055" lon="9.103648"><ele>283.5</ele><time>2026-03-29T10:47:05.832Z</time></trkpt><trkpt lat="45.8026722" lon="9.1036175"><ele>280.75</ele><time>2026-03-29T10:47:06.835Z</time></trkpt><trkpt lat="45.8025386" lon="9.1036265"><ele>278.0</ele><time>2026-03-29T10:47:07.828Z</time></trkpt><trkpt lat="45.8024007" lon="9.103656"><ele>277.0</ele><time>2026-03-29T10:47:08.827Z</time></trkpt><trkpt lat="45.8022627" lon="9.1036738"><ele>276.0</ele><time>2026-03-29T10:47:09.835Z</time></trkpt><trkpt lat="45.8021337" lon="9.1036804"><ele>275.0</ele><time>2026-03-29T10:47:10.829Z</time></trkpt><trkpt lat="45.8020086" lon="9.1036878"><ele>274.0</ele><time>2026-03-29T10:47:11.84Z</time></trkpt><trkpt lat="45.8018895" lon="9.1036971"><ele>273.4</ele><time>2026-03-29T10:47:12.83Z</time></trkpt><trkpt lat="45.8017776" lon="9.1037133"><ele>272.79999999999995</ele><time>2026-03-29T10:47:13.833Z</time></trkpt><trkpt lat="45.8016693" lon="9.1037165"><ele>272.20000000000005</ele><time>2026-03-29T10:47:14.833Z</time></trkpt><trkpt lat="45.8015781" lon="9.1037145"><ele>271.6</ele><time>2026-03-29T10:47:15.831Z</time></trkpt><trkpt lat="45.8014903" lon="9.1037088"><ele>271.0</ele><time>2026-03-29T10:47:16.828Z</time></trkpt><trkpt lat="45.801407" lon="9.1036878"><ele>271.0</ele><time>2026-03-29T10:47:17.826Z</time></trkpt><trkpt lat="45.8013296" lon="9.1036437"><ele>271.0</ele><time>2026-03-29T10:47:18.831Z</time></trkpt><trkpt lat="45.8012772" lon="9.1035704"><ele>271.0</ele><time>2026-03-29T10:47:19.835Z</time></trkpt><trkpt lat="45.8012492" lon="9.1034547"><ele>271.0</ele><time>2026-03-29T10:47:20.824Z</time></trkpt><trkpt lat="45.8012527" lon="9.1033499"><ele>271.0</ele><time>2026-03-29T10:47:21.827Z</time></trkpt><trkpt lat="45.801288" lon="9.1032486"><ele>271.0</ele><time>2026-03-29T10:47:22.82Z</time></trkpt><trkpt lat="45.8014031" lon="9.1031471"><ele>267.25</ele><time>2026-03-29T10:47:24.831Z</time></trkpt><trkpt lat="45.8015024" lon="9.1031106"><ele>263.5</ele><time>2026-03-29T10:47:25.825Z</time></trkpt><trkpt lat="45.8016309" lon="9.1030968"><ele>259.75</ele><time>2026-03-29T10:47:26.832Z</time></trkpt><trkpt lat="45.8017924" lon="9.1030837"><ele>256.0</ele><time>2026-03-29T10:47:27.83Z</time></trkpt><trkpt lat="45.8019668" lon="9.103063"><ele>256.0</ele><time>2026-03-29T10:47:28.847Z</time></trkpt><trkpt lat="45.8021951" lon="9.1030626"><ele>256.0</ele><time>2026-03-29T10:47:29.83Z</time></trkpt><trkpt lat="45.8023888" lon="9.1030552"><ele>256.0</ele><time>2026-03-29T10:47:30.834Z</time></trkpt><trkpt lat="45.8025886" lon="9.1030067"><ele>257.3333333333333</ele><time>2026-03-29T10:47:31.832Z</time></trkpt><trkpt lat="45.8027911" lon="9.1030054"><ele>258.6666666666667</ele><time>2026-03-29T10:47:32.83Z</time></trkpt><trkpt lat="45.8029672" lon="9.103005"><ele>260.0</ele><time>2026-03-29T10:47:33.832Z</time></trkpt><trkpt lat="45.8031117" lon="9.1029487"><ele>260.0</ele><time>2026-03-29T10:47:34.83Z</time></trkpt><trkpt lat="45.8032341" lon="9.10286"><ele>260.0</ele><time>2026-03-29T10:47:35.829Z</time></trkpt><trkpt lat="45.8033604" lon="9.1027632"><ele>260.0</ele><time>2026-03-29T10:47:36.824Z</time></trkpt><trkpt lat="45.8034839" lon="9.1026393"><ele>260.0</ele><time>2026-03-29T10:47:37.827Z</time></trkpt><trkpt lat="45.803594" lon="9.1024377"><ele>258.0</ele><time>2026-03-29T10:47:38.823Z</time></trkpt><trkpt lat="45.8037331" lon="9.1022198"><ele>256.0</ele><time>2026-03-29T10:47:39.829Z</time></trkpt><trkpt lat="45.8038769" lon="9.10205"><ele>254.0</ele><time>2026-03-29T10:47:40.818Z</time></trkpt><trkpt lat="45.8039982" lon="9.1019062"><ele>254.0</ele><time>2026-03-29T10:47:42.06Z</time></trkpt><trkpt lat="45.8041315" lon="9.1017448"><ele>254.0</ele><time>2026-03-29T10:47:43.142Z</time></trkpt><trkpt lat="45.8043455" lon="9.1014854"><ele>251.39999999999998</ele><time>2026-03-29T10:47:44.855Z</time></trkpt><trkpt lat="45.8044231" lon="9.1013781"><ele>248.79999999999998</ele><time>2026-03-29T10:47:45.846Z</time></trkpt><trkpt lat="45.8044733" lon="9.1012742"><ele>246.20000000000002</ele><time>2026-03-29T10:47:46.84Z</time></trkpt><trkpt lat="45.8044911" lon="9.1011399"><ele>243.60000000000002</ele><time>2026-03-29T10:47:47.824Z</time></trkpt><trkpt lat="45.8044467" lon="9.1009858"><ele>241.0</ele><time>2026-03-29T10:47:48.824Z</time></trkpt><trkpt lat="45.80437" lon="9.1008448"><ele>240.0</ele><time>2026-03-29T10:47:49.829Z</time></trkpt><trkpt lat="45.8042803" lon="9.100695"><ele>239.0</ele><time>2026-03-29T10:47:50.829Z</time></trkpt><trkpt lat="45.804183" lon="9.1005387"><ele>238.0</ele><time>2026-03-29T10:47:51.827Z</time></trkpt><trkpt lat="45.8040816" lon="9.1003476"><ele>238.0</ele><time>2026-03-29T10:47:52.829Z</time></trkpt><trkpt lat="45.8040209" lon="9.1001771"><ele>238.0</ele><time>2026-03-29T10:47:53.821Z</time></trkpt><trkpt lat="45.803943" lon="9.1000243"><ele>238.0</ele><time>2026-03-29T10:47:54.829Z</time></trkpt><trkpt lat="45.8038796" lon="9.0998769"><ele>238.0</ele><time>2026-03-29T10:47:55.839Z</time></trkpt><trkpt lat="45.8038532" lon="9.0997135"><ele>238.2</ele><time>2026-03-29T10:47:56.831Z</time></trkpt><trkpt lat="45.8038548" lon="9.0995714"><ele>238.4</ele><time>2026-03-29T10:47:57.834Z</time></trkpt><trkpt lat="45.8038963" lon="9.0994582"><ele>238.59999999999997</ele><time>2026-03-29T10:47:58.837Z</time></trkpt><trkpt lat="45.8039581" lon="9.0993493"><ele>238.79999999999998</ele><time>2026-03-29T10:47:59.83Z</time></trkpt><trkpt lat="45.8040162" lon="9.0992631"><ele>239.0</ele><time>2026-03-29T10:48:00.827Z</time></trkpt><trkpt lat="45.8040826" lon="9.0991977"><ele>239.00000000000003</ele><time>2026-03-29T10:48:01.852Z</time></trkpt><trkpt lat="45.8041736" lon="9.0991467"><ele>239.0</ele><time>2026-03-29T10:48:02.847Z</time></trkpt><trkpt lat="45.8042542" lon="9.0991015"><ele>239.0</ele><time>2026-03-29T10:48:03.831Z</time></trkpt><trkpt lat="45.80434" lon="9.0990705"><ele>239.0</ele><time>2026-03-29T10:48:04.83Z</time></trkpt><trkpt lat="45.8044152" lon="9.0990405"><ele>239.00000000000003</ele><time>2026-03-29T10:48:05.825Z</time></trkpt><trkpt lat="45.8044814" lon="9.0990163"><ele>239.0</ele><time>2026-03-29T10:48:06.829Z</time></trkpt><trkpt lat="45.8045797" lon="9.0989668"><ele>237.0</ele><time>2026-03-29T10:48:08.821Z</time></trkpt><trkpt lat="45.8046881" lon="9.0988689"><ele>234.99999999999997</ele><time>2026-03-29T10:48:54.845Z</time></trkpt><trkpt lat="45.8047502" lon="9.0988228"><ele>232.99999999999997</ele><time>2026-03-29T10:48:55.824Z</time></trkpt><trkpt lat="45.8048347" lon="9.0987607"><ele>231.0</ele><time>2026-03-29T10:48:56.818Z</time></trkpt><trkpt lat="45.8049301" lon="9.0986858"><ele>229.0</ele><time>2026-03-29T10:48:57.829Z</time></trkpt><trkpt lat="45.805025" lon="9.0986031"><ele>229.0</ele><time>2026-03-29T10:48:58.834Z</time></trkpt><trkpt lat="45.8051196" lon="9.0985181"><ele>228.99999999999997</ele><time>2026-03-29T10:48:59.825Z</time></trkpt><trkpt lat="45.8052119" lon="9.0984403"><ele>228.99999999999997</ele><time>2026-03-29T10:49:00.823Z</time></trkpt><trkpt lat="45.8053088" lon="9.0983627"><ele>229.0</ele><time>2026-03-29T10:49:01.826Z</time></trkpt><trkpt lat="45.805398" lon="9.0982774"><ele>229.0</ele><time>2026-03-29T10:49:02.829Z</time></trkpt><trkpt lat="45.8054667" lon="9.098172"><ele>228.75</ele><time>2026-03-29T10:49:03.823Z</time></trkpt><trkpt lat="45.8055319" lon="9.0980486"><ele>228.5</ele><time>2026-03-29T10:49:04.823Z</time></trkpt><trkpt lat="45.8055968" lon="9.0979076"><ele>228.25</ele><time>2026-03-29T10:49:05.822Z</time></trkpt><trkpt lat="45.8056465" lon="9.0977341"><ele>228.0</ele><time>2026-03-29T10:49:06.826Z</time></trkpt><trkpt lat="45.8056765" lon="9.0975508"><ele>226.5</ele><time>2026-03-29T10:49:07.828Z</time></trkpt><trkpt lat="45.805713" lon="9.0973724"><ele>225.0</ele><time>2026-03-29T10:49:08.851Z</time></trkpt><trkpt lat="45.8057574" lon="9.097197"><ele>223.5</ele><time>2026-03-29T10:49:09.845Z</time></trkpt><trkpt lat="45.8058043" lon="9.0970142"><ele>222.0</ele><time>2026-03-29T10:49:10.835Z</time></trkpt><trkpt lat="45.8058463" lon="9.0968215"><ele>222.0</ele><time>2026-03-29T10:49:11.904Z</time></trkpt><trkpt lat="45.8059191" lon="9.0966257"><ele>222.0</ele><time>2026-03-29T10:49:12.823Z</time></trkpt><trkpt lat="45.805973" lon="9.0964555"><ele>222.0</ele><time>2026-03-29T10:49:13.853Z</time></trkpt><trkpt lat="45.8060048" lon="9.0962632"><ele>222.0</ele><time>2026-03-29T10:49:14.834Z</time></trkpt><trkpt lat="45.8060398" lon="9.0960842"><ele>222.0</ele><time>2026-03-29T10:49:15.831Z</time></trkpt><trkpt lat="45.8060794" lon="9.0959072"><ele>222.0</ele><time>2026-03-29T10:49:16.823Z</time></trkpt><trkpt lat="45.8061242" lon="9.0957386"><ele>222.0</ele><time>2026-03-29T10:49:17.83Z</time></trkpt><trkpt lat="45.8061706" lon="9.0955922"><ele>222.0</ele><time>2026-03-29T10:49:18.825Z</time></trkpt><trkpt lat="45.8062131" lon="9.0954245"><ele>222.0</ele><time>2026-03-29T10:49:19.832Z</time></trkpt><trkpt lat="45.8062665" lon="9.0952951"><ele>222.0</ele><time>2026-03-29T10:49:20.828Z</time></trkpt><trkpt lat="45.8063333" lon="9.0952143"><ele>222.0</ele><time>2026-03-29T10:49:21.818Z</time></trkpt><trkpt lat="45.8063945" lon="9.0951634"><ele>222.0</ele><time>2026-03-29T10:49:22.82Z</time></trkpt><trkpt lat="45.8064947" lon="9.095096"><ele>222.0</ele><time>2026-03-29T10:49:24.826Z</time></trkpt><trkpt lat="45.8065573" lon="9.0950618"><ele>222.0</ele><time>2026-03-29T10:49:48.834Z</time></trkpt><trkpt lat="45.8066413" lon="9.0949638"><ele>222.0</ele><time>2026-03-29T10:49:51.836Z</time></trkpt><trkpt lat="45.8067015" lon="9.0948971"><ele>222.0</ele><time>2026-03-29T10:49:52.83Z</time></trkpt><trkpt lat="45.8067831" lon="9.0948123"><ele>222.0</ele><time>2026-03-29T10:49:53.83Z</time></trkpt><trkpt lat="45.8068793" lon="9.094709"><ele>222.0</ele><time>2026-03-29T10:49:54.833Z</time></trkpt><trkpt lat="45.8069741" lon="9.0945995"><ele>222.0</ele><time>2026-03-29T10:49:55.829Z</time></trkpt><trkpt lat="45.8070725" lon="9.0944926"><ele>223.0</ele><time>2026-03-29T10:49:56.83Z</time></trkpt><trkpt lat="45.8071764" lon="9.0943793"><ele>224.0</ele><time>2026-03-29T10:49:57.825Z</time></trkpt><trkpt lat="45.8072733" lon="9.0942616"><ele>225.0</ele><time>2026-03-29T10:49:58.842Z</time></trkpt><trkpt lat="45.8073736" lon="9.0941634"><ele>226.0</ele><time>2026-03-29T10:49:59.825Z</time></trkpt><trkpt lat="45.8074661" lon="9.0940654"><ele>226.0</ele><time>2026-03-29T10:50:00.827Z</time></trkpt><trkpt lat="45.8075541" lon="9.0939555"><ele>226.0</ele><time>2026-03-29T10:50:01.825Z</time></trkpt><trkpt lat="45.8076238" lon="9.0938208"><ele>226.0</ele><time>2026-03-29T10:50:02.828Z</time></trkpt><trkpt lat="45.8076609" lon="9.0936633"><ele>226.0</ele><time>2026-03-29T10:50:03.828Z</time></trkpt><trkpt lat="45.8076822" lon="9.093497"><ele>225.75</ele><time>2026-03-29T10:50:04.849Z</time></trkpt><trkpt lat="45.8076817" lon="9.0933118"><ele>225.5</ele><time>2026-03-29T10:50:05.825Z</time></trkpt><trkpt lat="45.8076792" lon="9.0931231"><ele>225.25</ele><time>2026-03-29T10:50:06.827Z</time></trkpt><trkpt lat="45.8076748" lon="9.0929418"><ele>225.0</ele><time>2026-03-29T10:50:07.827Z</time></trkpt><trkpt lat="45.807667" lon="9.0927709"><ele>225.0</ele><time>2026-03-29T10:50:08.808Z</time></trkpt><trkpt lat="45.8076553" lon="9.0926139"><ele>225.0</ele><time>2026-03-29T10:50:09.821Z</time></trkpt><trkpt lat="45.8076275" lon="9.0924661"><ele>225.0</ele><time>2026-03-29T10:50:10.821Z</time></trkpt><trkpt lat="45.8075661" lon="9.0923225"><ele>225.0</ele><time>2026-03-29T10:50:11.818Z</time></trkpt><trkpt lat="45.8074702" lon="9.0921696"><ele>225.0</ele><time>2026-03-29T10:50:12.829Z</time></trkpt><trkpt lat="45.8073763" lon="9.0920209"><ele>225.0</ele><time>2026-03-29T10:50:13.828Z</time></trkpt><trkpt lat="45.8072827" lon="9.0918726"><ele>225.0</ele><time>2026-03-29T10:50:14.833Z</time></trkpt><trkpt lat="45.8071987" lon="9.0917248"><ele>225.0</ele><time>2026-03-29T10:50:15.817Z</time></trkpt><trkpt lat="45.807126" lon="9.0915801"><ele>223.6</ele><time>2026-03-29T10:50:16.829Z</time></trkpt><trkpt lat="45.8070666" lon="9.0914512"><ele>222.2</ele><time>2026-03-29T10:50:17.831Z</time></trkpt><trkpt lat="45.8070324" lon="9.0913237"><ele>220.8</ele><time>2026-03-29T10:50:18.831Z</time></trkpt><trkpt lat="45.8070343" lon="9.0912095"><ele>219.4</ele><time>2026-03-29T10:50:19.83Z</time></trkpt><trkpt lat="45.8070577" lon="9.091082"><ele>218.0</ele><time>2026-03-29T10:50:20.828Z</time></trkpt><trkpt lat="45.8071119" lon="9.0909527"><ele>218.0</ele><time>2026-03-29T10:50:21.822Z</time></trkpt><trkpt lat="45.8072017" lon="9.090823"><ele>218.0</ele><time>2026-03-29T10:50:22.821Z</time></trkpt><trkpt lat="45.8072905" lon="9.0906874"><ele>218.0</ele><time>2026-03-29T10:50:23.823Z</time></trkpt><trkpt lat="45.8073909" lon="9.0905756"><ele>218.0</ele><time>2026-03-29T10:50:24.855Z</time></trkpt><trkpt lat="45.8074973" lon="9.0904833"><ele>218.2</ele><time>2026-03-29T10:50:25.85Z</time></trkpt><trkpt lat="45.8075945" lon="9.0903952"><ele>218.4</ele><time>2026-03-29T10:50:26.831Z</time></trkpt><trkpt lat="45.8076845" lon="9.0902908"><ele>218.59999999999997</ele><time>2026-03-29T10:50:27.852Z</time></trkpt><trkpt lat="45.8077725" lon="9.0902021"><ele>218.79999999999998</ele><time>2026-03-29T10:50:28.824Z</time></trkpt><trkpt lat="45.807858" lon="9.0901099"><ele>219.0</ele><time>2026-03-29T10:50:29.833Z</time></trkpt><trkpt lat="45.807939" lon="9.0900296"><ele>219.0</ele><time>2026-03-29T10:50:30.828Z</time></trkpt><trkpt lat="45.8080137" lon="9.0899575"><ele>219.0</ele><time>2026-03-29T10:50:31.823Z</time></trkpt><trkpt lat="45.8080795" lon="9.0898954"><ele>219.0</ele><time>2026-03-29T10:50:32.826Z</time></trkpt><trkpt lat="45.8081404" lon="9.0898379"><ele>219.0</ele><time>2026-03-29T10:50:33.822Z</time></trkpt><trkpt lat="45.8082006" lon="9.089789"><ele>219.0</ele><time>2026-03-29T10:50:34.846Z</time></trkpt><trkpt lat="45.8082933" lon="9.0896862"><ele>219.0</ele><time>2026-03-29T10:50:36.824Z</time></trkpt><trkpt lat="45.8083746" lon="9.0896272"><ele>218.85714285714286</ele><time>2026-03-29T10:50:38.835Z</time></trkpt><trkpt lat="45.8084352" lon="9.0895886"><ele>218.7142857142857</ele><time>2026-03-29T10:50:41.827Z</time></trkpt><trkpt lat="45.8084895" lon="9.0895414"><ele>218.57142857142856</ele><time>2026-03-29T10:50:44.829Z</time></trkpt><trkpt lat="45.8085435" lon="9.0894945"><ele>218.42857142857144</ele><time>2026-03-29T10:50:45.818Z</time></trkpt><trkpt lat="45.8085984" lon="9.0894497"><ele>218.28571428571428</ele><time>2026-03-29T10:50:46.823Z</time></trkpt><trkpt lat="45.8086718" lon="9.0893748"><ele>218.14285714285714</ele><time>2026-03-29T10:50:47.818Z</time></trkpt><trkpt lat="45.8087559" lon="9.0892906"><ele>218.0</ele><time>2026-03-29T10:50:48.819Z</time></trkpt><trkpt lat="45.808835" lon="9.089193"><ele>218.0</ele><time>2026-03-29T10:50:49.824Z</time></trkpt><trkpt lat="45.8089125" lon="9.0890962"><ele>218.0</ele><time>2026-03-29T10:50:50.822Z</time></trkpt><trkpt lat="45.8090088" lon="9.089008"><ele>218.0</ele><time>2026-03-29T10:50:51.824Z</time></trkpt><trkpt lat="45.8091017" lon="9.0889077"><ele>218.0</ele><time>2026-03-29T10:50:52.828Z</time></trkpt><trkpt lat="45.8091933" lon="9.0888023"><ele>217.25</ele><time>2026-03-29T10:50:53.829Z</time></trkpt><trkpt lat="45.8092905" lon="9.0886994"><ele>216.5</ele><time>2026-03-29T10:50:54.823Z</time></trkpt><trkpt lat="45.8093854" lon="9.0885841"><ele>215.75</ele><time>2026-03-29T10:50:55.829Z</time></trkpt><trkpt lat="45.809481" lon="9.0884687"><ele>215.0</ele><time>2026-03-29T10:50:56.828Z</time></trkpt><trkpt lat="45.8095801" lon="9.0883533"><ele>214.0</ele><time>2026-03-29T10:50:57.825Z</time></trkpt><trkpt lat="45.8096728" lon="9.0882288"><ele>213.0</ele><time>2026-03-29T10:50:58.826Z</time></trkpt><trkpt lat="45.8097751" lon="9.0881095"><ele>212.0</ele><time>2026-03-29T10:50:59.831Z</time></trkpt><trkpt lat="45.8098732" lon="9.0879641"><ele>211.0</ele><time>2026-03-29T10:51:00.846Z</time></trkpt><trkpt lat="45.8099862" lon="9.0878247"><ele>211.0</ele><time>2026-03-29T10:51:01.831Z</time></trkpt><trkpt lat="45.810127" lon="9.0877141"><ele>211.0</ele><time>2026-03-29T10:51:02.823Z</time></trkpt><trkpt lat="45.810245" lon="9.0875858"><ele>211.0</ele><time>2026-03-29T10:51:03.825Z</time></trkpt><trkpt lat="45.8103711" lon="9.0874777"><ele>209.75</ele><time>2026-03-29T10:51:04.823Z</time></trkpt><trkpt lat="45.8104618" lon="9.0873534"><ele>208.5</ele><time>2026-03-29T10:51:05.827Z</time></trkpt><trkpt lat="45.8105453" lon="9.0872181"><ele>207.25</ele><time>2026-03-29T10:51:06.829Z</time></trkpt><trkpt lat="45.8106486" lon="9.0870777"><ele>206.0</ele><time>2026-03-29T10:51:07.825Z</time></trkpt><trkpt lat="45.8107406" lon="9.0869884"><ele>206.0</ele><time>2026-03-29T10:51:08.831Z</time></trkpt><trkpt lat="45.8108307" lon="9.0869203"><ele>206.0</ele><time>2026-03-29T10:51:09.826Z</time></trkpt><trkpt lat="45.8109047" lon="9.0868271"><ele>206.0</ele><time>2026-03-29T10:51:10.826Z</time></trkpt><trkpt lat="45.8109647" lon="9.0867467"><ele>206.0</ele><time>2026-03-29T10:51:11.827Z</time></trkpt><trkpt lat="45.811042" lon="9.0866685"><ele>206.0</ele><time>2026-03-29T10:51:12.827Z</time></trkpt><trkpt lat="45.8111387" lon="9.0866044"><ele>205.5</ele><time>2026-03-29T10:51:13.823Z</time></trkpt><trkpt lat="45.8112294" lon="9.0865314"><ele>205.0</ele><time>2026-03-29T10:51:14.836Z</time></trkpt><trkpt lat="45.811335" lon="9.0864492"><ele>204.5</ele><time>2026-03-29T10:51:15.831Z</time></trkpt><trkpt lat="45.8114339" lon="9.0863472"><ele>204.0</ele><time>2026-03-29T10:51:16.827Z</time></trkpt><trkpt lat="45.8115097" lon="9.0862385"><ele>204.0</ele><time>2026-03-29T10:51:17.833Z</time></trkpt><trkpt lat="45.8115744" lon="9.0861401"><ele>204.0</ele><time>2026-03-29T10:51:18.84Z</time></trkpt><trkpt lat="45.8116319" lon="9.0860498"><ele>204.0</ele><time>2026-03-29T10:51:20.839Z</time></trkpt><trkpt lat="45.811716" lon="9.0859295"><ele>204.0</ele><time>2026-03-29T10:51:22.832Z</time></trkpt><trkpt lat="45.8117777" lon="9.0857833"><ele>204.0</ele><time>2026-03-29T10:51:24.86Z</time></trkpt><trkpt lat="45.8118147" lon="9.085704"><ele>204.28571428571428</ele><time>2026-03-29T10:51:25.838Z</time></trkpt><trkpt lat="45.8118554" lon="9.0856217"><ele>204.57142857142858</ele><time>2026-03-29T10:51:26.851Z</time></trkpt><trkpt lat="45.8119047" lon="9.0855463"><ele>204.85714285714283</ele><time>2026-03-29T10:51:27.833Z</time></trkpt><trkpt lat="45.8119679" lon="9.08548"><ele>205.14285714285714</ele><time>2026-03-29T10:51:28.833Z</time></trkpt><trkpt lat="45.8120353" lon="9.0854263"><ele>205.42857142857142</ele><time>2026-03-29T10:51:29.828Z</time></trkpt><trkpt lat="45.8121076" lon="9.0853915"><ele>205.7142857142857</ele><time>2026-03-29T10:51:30.832Z</time></trkpt><trkpt lat="45.8121782" lon="9.0853543"><ele>206.0</ele><time>2026-03-29T10:51:31.831Z</time></trkpt><trkpt lat="45.8122838" lon="9.0853053"><ele>206.0</ele><time>2026-03-29T10:51:33.832Z</time></trkpt><trkpt lat="45.8123657" lon="9.0852972"><ele>206.0</ele><time>2026-03-29T10:51:35.833Z</time></trkpt><trkpt lat="45.8124302" lon="9.0852797"><ele>206.0</ele><time>2026-03-29T10:51:41.849Z</time></trkpt><trkpt lat="45.8125043" lon="9.0852476"><ele>206.0</ele><time>2026-03-29T10:51:52.841Z</time></trkpt><trkpt lat="45.8126141" lon="9.0851937"><ele>206.0</ele><time>2026-03-29T10:51:54.906Z</time></trkpt><trkpt lat="45.8127202" lon="9.0851293"><ele>206.25</ele><time>2026-03-29T10:51:55.856Z</time></trkpt><trkpt lat="45.8128339" lon="9.0850715"><ele>206.5</ele><time>2026-03-29T10:51:56.846Z</time></trkpt><trkpt lat="45.8129546" lon="9.0850174"><ele>206.75</ele><time>2026-03-29T10:51:57.845Z</time></trkpt><trkpt lat="45.8130766" lon="9.0849724"><ele>207.0</ele><time>2026-03-29T10:51:58.82Z</time></trkpt><trkpt lat="45.8131858" lon="9.08493"><ele>206.8</ele><time>2026-03-29T10:51:59.823Z</time></trkpt><trkpt lat="45.8132845" lon="9.084892"><ele>206.6</ele><time>2026-03-29T10:52:00.821Z</time></trkpt><trkpt lat="45.813371" lon="9.0848605"><ele>206.4</ele><time>2026-03-29T10:52:01.85Z</time></trkpt><trkpt lat="45.8134597" lon="9.0848173"><ele>206.20000000000002</ele><time>2026-03-29T10:52:02.84Z</time></trkpt><trkpt lat="45.81355" lon="9.0847782"><ele>206.0</ele><time>2026-03-29T10:52:03.974Z</time></trkpt><trkpt lat="45.8137119" lon="9.0847079"><ele>205.66666666666669</ele><time>2026-03-29T10:52:05.834Z</time></trkpt><trkpt lat="45.8137832" lon="9.0846774"><ele>205.33333333333334</ele><time>2026-03-29T10:52:06.819Z</time></trkpt><trkpt lat="45.8138496" lon="9.08465"><ele>205.0</ele><time>2026-03-29T10:52:07.811Z</time></trkpt><trkpt lat="45.8139654" lon="9.084615"><ele>204.66666666666669</ele><time>2026-03-29T10:52:09.818Z</time></trkpt><trkpt lat="45.8140327" lon="9.0846012"><ele>204.33333333333334</ele><time>2026-03-29T10:52:15.837Z</time></trkpt><trkpt lat="45.8141103" lon="9.0846162"><ele>204.0</ele><time>2026-03-29T10:52:19.83Z</time></trkpt><trkpt lat="45.8141791" lon="9.0846734"><ele>204.0</ele><time>2026-03-29T10:52:23.835Z</time></trkpt><trkpt lat="45.8142578" lon="9.0846996"><ele>204.0</ele><time>2026-03-29T10:52:27.833Z</time></trkpt><trkpt lat="45.8143364" lon="9.08472"><ele>204.0</ele><time>2026-03-29T10:52:30.831Z</time></trkpt><trkpt lat="45.8144018" lon="9.0847317"><ele>204.0</ele><time>2026-03-29T10:52:33.823Z</time></trkpt><trkpt lat="45.8144811" lon="9.0847282"><ele>204.0</ele><time>2026-03-29T10:52:35.831Z</time></trkpt><trkpt lat="45.814568" lon="9.0846767"><ele>204.0</ele><time>2026-03-29T10:52:37.829Z</time></trkpt><trkpt lat="45.8146064" lon="9.0845256"><ele>203.79999999999998</ele><time>2026-03-29T10:52:40.838Z</time></trkpt><trkpt lat="45.8146061" lon="9.0844315"><ele>203.6</ele><time>2026-03-29T10:52:41.825Z</time></trkpt><trkpt lat="45.8146268" lon="9.084268"><ele>203.4</ele><time>2026-03-29T10:52:43.821Z</time></trkpt><trkpt lat="45.8146572" lon="9.084138"><ele>203.2</ele><time>2026-03-29T10:52:45.822Z</time></trkpt><trkpt lat="45.8146746" lon="9.0839953"><ele>203.0</ele><time>2026-03-29T10:52:47.837Z</time></trkpt><trkpt lat="45.8146863" lon="9.0838906"><ele>203.00000000000003</ele><time>2026-03-29T10:52:49.827Z</time></trkpt><trkpt lat="45.8147008" lon="9.0837832"><ele>203.0</ele><time>2026-03-29T10:52:52.835Z</time></trkpt><trkpt lat="45.8147268" lon="9.0836683"><ele>203.0</ele><time>2026-03-29T10:52:55.835Z</time></trkpt><trkpt lat="45.8147853" lon="9.0835782"><ele>203.0</ele><time>2026-03-29T10:52:57.84Z</time></trkpt><trkpt lat="45.8148465" lon="9.083517"><ele>203.00000000000003</ele><time>2026-03-29T10:52:59.846Z</time></trkpt><trkpt lat="45.8148795" lon="9.0834316"><ele>203.0</ele><time>2026-03-29T10:53:01.852Z</time></trkpt><trkpt lat="45.8148822" lon="9.0833312"><ele>202.33333333333334</ele><time>2026-03-29T10:53:08.838Z</time></trkpt><trkpt lat="45.8148394" lon="9.0832292"><ele>201.66666666666669</ele><time>2026-03-29T10:53:10.841Z</time></trkpt><trkpt lat="45.8147857" lon="9.0830882"><ele>201.0</ele><time>2026-03-29T10:53:12.829Z</time></trkpt><trkpt lat="45.8147493" lon="9.0830029"><ele>200.33333333333331</ele><time>2026-03-29T10:53:14.839Z</time></trkpt><trkpt lat="45.8147101" lon="9.0829274"><ele>199.66666666666666</ele><time>2026-03-29T10:53:22.844Z</time></trkpt><trkpt lat="45.8146574" lon="9.0828108"><ele>199.0</ele><time>2026-03-29T10:53:28.835Z</time></trkpt><trkpt lat="45.8145891" lon="9.0826565"><ele>199.0</ele><time>2026-03-29T10:53:30.826Z</time></trkpt><trkpt lat="45.8145392" lon="9.0825432"><ele>199.0</ele><time>2026-03-29T10:53:31.823Z</time></trkpt><trkpt lat="45.8144762" lon="9.0824199"><ele>199.0</ele><time>2026-03-29T10:53:32.83Z</time></trkpt><trkpt lat="45.8144043" lon="9.0822973"><ele>199.0</ele><time>2026-03-29T10:53:33.836Z</time></trkpt><trkpt lat="45.814327" lon="9.0821818"><ele>199.0</ele><time>2026-03-29T10:53:34.825Z</time></trkpt><trkpt lat="45.8142468" lon="9.0820663"><ele>198.75</ele><time>2026-03-29T10:53:35.838Z</time></trkpt><trkpt lat="45.8141662" lon="9.0819479"><ele>198.5</ele><time>2026-03-29T10:53:36.839Z</time></trkpt><trkpt lat="45.814088" lon="9.0818285"><ele>198.25</ele><time>2026-03-29T10:53:37.832Z</time></trkpt><trkpt lat="45.8140106" lon="9.081714"><ele>198.0</ele><time>2026-03-29T10:53:38.831Z</time></trkpt><trkpt lat="45.8139324" lon="9.0815946"><ele>198.0</ele><time>2026-03-29T10:53:39.833Z</time></trkpt><trkpt lat="45.8138582" lon="9.081472"><ele>198.0</ele><time>2026-03-29T10:53:40.836Z</time></trkpt><trkpt lat="45.8137864" lon="9.0813567"><ele>198.0</ele><time>2026-03-29T10:53:41.829Z</time></trkpt><trkpt lat="45.8137178" lon="9.0812443"><ele>198.0</ele><time>2026-03-29T10:53:42.832Z</time></trkpt><trkpt lat="45.8136489" lon="9.0811358"><ele>198.0</ele><time>2026-03-29T10:53:43.826Z</time></trkpt><trkpt lat="45.8135795" lon="9.0810279"><ele>198.0</ele><time>2026-03-29T10:53:44.838Z</time></trkpt><trkpt lat="45.8135097" lon="9.0809187"><ele>198.0</ele><time>2026-03-29T10:53:45.832Z</time></trkpt><trkpt lat="45.8134393" lon="9.0808099"><ele>198.0</ele><time>2026-03-29T10:53:46.833Z</time></trkpt><trkpt lat="45.8133752" lon="9.0807064"><ele>198.0</ele><time>2026-03-29T10:53:47.836Z</time></trkpt><trkpt lat="45.8133236" lon="9.0805992"><ele>198.0</ele><time>2026-03-29T10:53:48.832Z</time></trkpt><trkpt lat="45.8132801" lon="9.0804963"><ele>198.0</ele><time>2026-03-29T10:53:49.834Z</time></trkpt><trkpt lat="45.8132417" lon="9.0803952"><ele>198.0</ele><time>2026-03-29T10:53:50.827Z</time></trkpt><trkpt lat="45.8132161" lon="9.0803112"><ele>198.0</ele><time>2026-03-29T10:53:51.824Z</time></trkpt><trkpt lat="45.8131935" lon="9.0802232"><ele>198.0</ele><time>2026-03-29T10:53:53.829Z</time></trkpt><trkpt lat="45.8131925" lon="9.0801234"><ele>198.0</ele><time>2026-03-29T10:54:13.836Z</time></trkpt><trkpt lat="45.8131538" lon="9.079956"><ele>198.0</ele><time>2026-03-29T10:54:15.832Z</time></trkpt><trkpt lat="45.8131338" lon="9.0798562"><ele>197.0</ele><time>2026-03-29T10:54:16.832Z</time></trkpt><trkpt lat="45.8131133" lon="9.0797515"><ele>196.0</ele><time>2026-03-29T10:54:17.835Z</time></trkpt><trkpt lat="45.8130786" lon="9.0796383"><ele>195.0</ele><time>2026-03-29T10:54:18.831Z</time></trkpt><trkpt lat="45.8130486" lon="9.0795174"><ele>194.0</ele><time>2026-03-29T10:54:19.836Z</time></trkpt><trkpt lat="45.8130343" lon="9.0793818"><ele>193.0</ele><time>2026-03-29T10:54:20.832Z</time></trkpt><trkpt lat="45.8130279" lon="9.0792233"><ele>193.8</ele><time>2026-03-29T10:54:21.827Z</time></trkpt><trkpt lat="45.8130203" lon="9.0790963"><ele>194.60000000000002</ele><time>2026-03-29T10:54:22.831Z</time></trkpt><trkpt lat="45.8130061" lon="9.0789794"><ele>195.39999999999998</ele><time>2026-03-29T10:54:24.828Z</time></trkpt><trkpt lat="45.8130074" lon="9.0788086"><ele>196.2</ele><time>2026-03-29T10:54:26.823Z</time></trkpt><trkpt lat="45.8130063" lon="9.0786863"><ele>197.0</ele><time>2026-03-29T10:54:27.824Z</time></trkpt><trkpt lat="45.8130001" lon="9.0785503"><ele>197.0</ele><time>2026-03-29T10:54:28.83Z</time></trkpt><trkpt lat="45.8129911" lon="9.0784011"><ele>197.0</ele><time>2026-03-29T10:54:29.827Z</time></trkpt><trkpt lat="45.8129803" lon="9.0782401"><ele>197.0</ele><time>2026-03-29T10:54:30.833Z</time></trkpt><trkpt lat="45.8129706" lon="9.0780819"><ele>197.0</ele><time>2026-03-29T10:54:31.823Z</time></trkpt><trkpt lat="45.8129564" lon="9.0779239"><ele>197.0</ele><time>2026-03-29T10:54:32.835Z</time></trkpt><trkpt lat="45.8129457" lon="9.0777613"><ele>197.33333333333334</ele><time>2026-03-29T10:54:33.837Z</time></trkpt><trkpt lat="45.812933" lon="9.0776118"><ele>197.66666666666669</ele><time>2026-03-29T10:54:34.833Z</time></trkpt><trkpt lat="45.8129201" lon="9.0774731"><ele>198.0</ele><time>2026-03-29T10:54:35.827Z</time></trkpt><trkpt lat="45.8129084" lon="9.0773501"><ele>198.33333333333331</ele><time>2026-03-29T10:54:36.83Z</time></trkpt><trkpt lat="45.8128952" lon="9.0772404"><ele>198.66666666666666</ele><time>2026-03-29T10:54:37.833Z</time></trkpt><trkpt lat="45.8128809" lon="9.0771372"><ele>199.0</ele><time>2026-03-29T10:54:38.83Z</time></trkpt><trkpt lat="45.8128722" lon="9.077038"><ele>199.2</ele><time>2026-03-29T10:54:39.83Z</time></trkpt><trkpt lat="45.8128547" lon="9.0768718"><ele>199.39999999999998</ele><time>2026-03-29T10:54:41.821Z</time></trkpt><trkpt lat="45.8128278" lon="9.0767434"><ele>199.6</ele><time>2026-03-29T10:54:43.826Z</time></trkpt><trkpt lat="45.8128264" lon="9.076624"><ele>199.8</ele><time>2026-03-29T10:54:56.844Z</time></trkpt><trkpt lat="45.8128182" lon="9.0765058"><ele>200.0</ele><time>2026-03-29T10:54:58.846Z</time></trkpt><trkpt lat="45.8127907" lon="9.076319"><ele>201.25</ele><time>2026-03-29T10:55:00.84Z</time></trkpt><trkpt lat="45.8127771" lon="9.0761655"><ele>202.5</ele><time>2026-03-29T10:55:01.841Z</time></trkpt><trkpt lat="45.8127653" lon="9.0759875"><ele>203.75</ele><time>2026-03-29T10:55:02.839Z</time></trkpt><trkpt lat="45.812754" lon="9.075804"><ele>205.0</ele><time>2026-03-29T10:55:03.828Z</time></trkpt><trkpt lat="45.8127452" lon="9.0756167"><ele>205.0</ele><time>2026-03-29T10:55:04.835Z</time></trkpt><trkpt lat="45.8127325" lon="9.0754326"><ele>205.0</ele><time>2026-03-29T10:55:05.836Z</time></trkpt><trkpt lat="45.8127099" lon="9.0752622"><ele>205.0</ele><time>2026-03-29T10:55:06.825Z</time></trkpt><trkpt lat="45.8126914" lon="9.0751062"><ele>205.0</ele><time>2026-03-29T10:55:07.829Z</time></trkpt><trkpt lat="45.8126807" lon="9.0749649"><ele>204.83333333333331</ele><time>2026-03-29T10:55:08.833Z</time></trkpt><trkpt lat="45.8126659" lon="9.0748594"><ele>204.66666666666666</ele><time>2026-03-29T10:55:09.829Z</time></trkpt><trkpt lat="45.8126588" lon="9.0747566"><ele>204.5</ele><time>2026-03-29T10:55:10.831Z</time></trkpt><trkpt lat="45.8126562" lon="9.0746639"><ele>204.33333333333331</ele><time>2026-03-29T10:55:11.83Z</time></trkpt><trkpt lat="45.812657" lon="9.0745205"><ele>204.16666666666666</ele><time>2026-03-29T10:55:13.829Z</time></trkpt><trkpt lat="45.8126545" lon="9.0743875"><ele>204.0</ele><time>2026-03-29T10:55:20.842Z</time></trkpt><trkpt lat="45.8126634" lon="9.074251"><ele>204.0</ele><time>2026-03-29T10:55:22.828Z</time></trkpt><trkpt lat="45.8126753" lon="9.0741151"><ele>204.0</ele><time>2026-03-29T10:55:23.83Z</time></trkpt><trkpt lat="45.8126742" lon="9.073951"><ele>204.0</ele><time>2026-03-29T10:55:24.826Z</time></trkpt><trkpt lat="45.8126569" lon="9.0737681"><ele>204.0</ele><time>2026-03-29T10:55:25.825Z</time></trkpt><trkpt lat="45.8126329" lon="9.0735753"><ele>205.25</ele><time>2026-03-29T10:55:26.824Z</time></trkpt><trkpt lat="45.8126118" lon="9.0733738"><ele>206.5</ele><time>2026-03-29T10:55:27.824Z</time></trkpt><trkpt lat="45.8125857" lon="9.0731712"><ele>207.75</ele><time>2026-03-29T10:55:28.829Z</time></trkpt><trkpt lat="45.81256" lon="9.0729585"><ele>209.0</ele><time>2026-03-29T10:55:29.824Z</time></trkpt><trkpt lat="45.8125239" lon="9.0726531"><ele>208.33333333333334</ele><time>2026-03-29T10:55:30.827Z</time></trkpt><trkpt lat="45.8125137" lon="9.0724084"><ele>207.66666666666669</ele><time>2026-03-29T10:55:31.827Z</time></trkpt><trkpt lat="45.8124945" lon="9.0721944"><ele>207.0</ele><time>2026-03-29T10:55:32.824Z</time></trkpt><trkpt lat="45.812485" lon="9.0719821"><ele>207.0</ele><time>2026-03-29T10:55:33.833Z</time></trkpt><trkpt lat="45.8124574" lon="9.0718031"><ele>207.0</ele><time>2026-03-29T10:55:34.819Z</time></trkpt><trkpt lat="45.8124501" lon="9.0716249"><ele>207.0</ele><time>2026-03-29T10:55:35.834Z</time></trkpt><trkpt lat="45.8124273" lon="9.071425"><ele>207.0</ele><time>2026-03-29T10:55:36.828Z</time></trkpt><trkpt lat="45.812406" lon="9.0712725"><ele>207.0</ele><time>2026-03-29T10:55:37.825Z</time></trkpt><trkpt lat="45.8123981" lon="9.0711481"><ele>207.0</ele><time>2026-03-29T10:55:38.823Z</time></trkpt><trkpt lat="45.8123927" lon="9.071009"><ele>207.0</ele><time>2026-03-29T10:55:39.829Z</time></trkpt><trkpt lat="45.8123895" lon="9.070812"><ele>207.0</ele><time>2026-03-29T10:55:40.831Z</time></trkpt><trkpt lat="45.8123889" lon="9.0706988"><ele>207.0</ele><time>2026-03-29T10:55:41.824Z</time></trkpt><trkpt lat="45.8123773" lon="9.0706033"><ele>207.0</ele><time>2026-03-29T10:55:42.83Z</time></trkpt><trkpt lat="45.8123589" lon="9.0705089"><ele>207.0</ele><time>2026-03-29T10:55:43.826Z</time></trkpt><trkpt lat="45.8123377" lon="9.0704015"><ele>207.0</ele><time>2026-03-29T10:55:44.826Z</time></trkpt><trkpt lat="45.8123252" lon="9.0702917"><ele>207.0</ele><time>2026-03-29T10:55:45.83Z</time></trkpt><trkpt lat="45.8123107" lon="9.070146"><ele>207.0</ele><time>2026-03-29T10:55:47.823Z</time></trkpt><trkpt lat="45.8123012" lon="9.0700461"><ele>207.0</ele><time>2026-03-29T10:55:51.838Z</time></trkpt><trkpt lat="45.8123328" lon="9.0699219"><ele>207.0</ele><time>2026-03-29T10:55:53.831Z</time></trkpt><trkpt lat="45.8124122" lon="9.0698114"><ele>207.0</ele><time>2026-03-29T10:55:55.828Z</time></trkpt><trkpt lat="45.8124685" lon="9.0697694"><ele>207.0</ele><time>2026-03-29T10:55:56.818Z</time></trkpt><trkpt lat="45.8125314" lon="9.0697107"><ele>207.0</ele><time>2026-03-29T10:55:57.821Z</time></trkpt><trkpt lat="45.8126042" lon="9.0696687"><ele>207.0</ele><time>2026-03-29T10:55:58.821Z</time></trkpt><trkpt lat="45.812684" lon="9.0696316"><ele>207.0</ele><time>2026-03-29T10:55:59.827Z</time></trkpt><trkpt lat="45.8127678" lon="9.0695907"><ele>207.00000000000003</ele><time>2026-03-29T10:56:00.822Z</time></trkpt><trkpt lat="45.8128331" lon="9.069554"><ele>207.0</ele><time>2026-03-29T10:56:01.821Z</time></trkpt><trkpt lat="45.8128953" lon="9.0695092"><ele>207.0</ele><time>2026-03-29T10:56:02.828Z</time></trkpt><trkpt lat="45.8129512" lon="9.0694452"><ele>207.0</ele><time>2026-03-29T10:56:03.824Z</time></trkpt><trkpt lat="45.813007" lon="9.069377"><ele>207.0</ele><time>2026-03-29T10:56:04.821Z</time></trkpt><trkpt lat="45.8130699" lon="9.0693253"><ele>207.00000000000003</ele><time>2026-03-29T10:56:05.818Z</time></trkpt><trkpt lat="45.81313" lon="9.0692799"><ele>207.0</ele><time>2026-03-29T10:56:06.82Z</time></trkpt><trkpt lat="45.8131991" lon="9.0692506"><ele>207.0</ele><time>2026-03-29T10:56:07.822Z</time></trkpt><trkpt lat="45.8133149" lon="9.0691846"><ele>207.0</ele><time>2026-03-29T10:56:09.818Z</time></trkpt><trkpt lat="45.8133847" lon="9.0691453"><ele>207.0</ele><time>2026-03-29T10:56:10.814Z</time></trkpt><trkpt lat="45.8134635" lon="9.0691051"><ele>207.0</ele><time>2026-03-29T10:56:11.824Z</time></trkpt><trkpt lat="45.8135515" lon="9.0690495"><ele>207.0</ele><time>2026-03-29T10:56:12.858Z</time></trkpt><trkpt lat="45.8136327" lon="9.0689858"><ele>207.2</ele><time>2026-03-29T10:56:13.822Z</time></trkpt><trkpt lat="45.8137173" lon="9.0689152"><ele>207.39999999999998</ele><time>2026-03-29T10:56:14.823Z</time></trkpt><trkpt lat="45.8138053" lon="9.0688527"><ele>207.60000000000002</ele><time>2026-03-29T10:56:15.819Z</time></trkpt><trkpt lat="45.8138921" lon="9.06879"><ele>207.8</ele><time>2026-03-29T10:56:16.822Z</time></trkpt><trkpt lat="45.8139778" lon="9.0687206"><ele>208.0</ele><time>2026-03-29T10:56:17.829Z</time></trkpt><trkpt lat="45.8140588" lon="9.0686501"><ele>208.0</ele><time>2026-03-29T10:56:18.832Z</time></trkpt><trkpt lat="45.8141294" lon="9.0685621"><ele>208.0</ele><time>2026-03-29T10:56:19.833Z</time></trkpt><trkpt lat="45.8141948" lon="9.0684563"><ele>208.0</ele><time>2026-03-29T10:56:20.826Z</time></trkpt><trkpt lat="45.8142616" lon="9.0683383"><ele>208.0</ele><time>2026-03-29T10:56:21.829Z</time></trkpt><trkpt lat="45.8143263" lon="9.0682157"><ele>208.0</ele><time>2026-03-29T10:56:22.828Z</time></trkpt><trkpt lat="45.8144011" lon="9.0681163"><ele>207.83333333333331</ele><time>2026-03-29T10:56:23.829Z</time></trkpt><trkpt lat="45.8144606" lon="9.0680152"><ele>207.66666666666666</ele><time>2026-03-29T10:56:24.834Z</time></trkpt><trkpt lat="45.814521" lon="9.0679164"><ele>207.5</ele><time>2026-03-29T10:56:25.831Z</time></trkpt><trkpt lat="45.8145742" lon="9.0678192"><ele>207.33333333333331</ele><time>2026-03-29T10:56:26.838Z</time></trkpt><trkpt lat="45.814624" lon="9.06772"><ele>207.16666666666666</ele><time>2026-03-29T10:56:27.834Z</time></trkpt><trkpt lat="45.8146702" lon="9.0676296"><ele>207.0</ele><time>2026-03-29T10:56:28.84Z</time></trkpt><trkpt lat="45.8147179" lon="9.0675328"><ele>207.2</ele><time>2026-03-29T10:56:29.833Z</time></trkpt><trkpt lat="45.8147622" lon="9.0674272"><ele>207.39999999999998</ele><time>2026-03-29T10:56:30.854Z</time></trkpt><trkpt lat="45.8148055" lon="9.0673147"><ele>207.60000000000002</ele><time>2026-03-29T10:56:31.832Z</time></trkpt><trkpt lat="45.8148526" lon="9.0671894"><ele>207.8</ele><time>2026-03-29T10:56:32.835Z</time></trkpt><trkpt lat="45.8148991" lon="9.0670624"><ele>208.0</ele><time>2026-03-29T10:56:33.834Z</time></trkpt><trkpt lat="45.8149455" lon="9.0669413"><ele>207.99999999999997</ele><time>2026-03-29T10:56:34.83Z</time></trkpt><trkpt lat="45.8149899" lon="9.0668204"><ele>208.0</ele><time>2026-03-29T10:56:35.861Z</time></trkpt><trkpt lat="45.8150284" lon="9.066713"><ele>208.0</ele><time>2026-03-29T10:56:36.825Z</time></trkpt><trkpt lat="45.8150762" lon="9.066629"><ele>208.0</ele><time>2026-03-29T10:56:37.849Z</time></trkpt><trkpt lat="45.8151294" lon="9.0665782"><ele>207.99999999999997</ele><time>2026-03-29T10:56:38.826Z</time></trkpt><trkpt lat="45.8152244" lon="9.066507"><ele>208.0</ele><time>2026-03-29T10:56:40.83Z</time></trkpt><trkpt lat="45.8152835" lon="9.0664622"><ele>207.60000000000002</ele><time>2026-03-29T10:56:43.84Z</time></trkpt><trkpt lat="45.8153449" lon="9.0663848"><ele>207.20000000000002</ele><time>2026-03-29T10:56:46.836Z</time></trkpt><trkpt lat="45.8154196" lon="9.066319"><ele>206.8</ele><time>2026-03-29T10:56:48.832Z</time></trkpt><trkpt lat="45.8154969" lon="9.0662646"><ele>206.4</ele><time>2026-03-29T10:56:50.829Z</time></trkpt><trkpt lat="45.8155974" lon="9.0661912"><ele>206.0</ele><time>2026-03-29T10:56:52.837Z</time></trkpt><trkpt lat="45.8156959" lon="9.0661355"><ele>206.0</ele><time>2026-03-29T10:56:54.831Z</time></trkpt><trkpt lat="45.8157566" lon="9.066077"><ele>206.0</ele><time>2026-03-29T10:56:56.849Z</time></trkpt><trkpt lat="45.8158299" lon="9.066042"><ele>206.0</ele><time>2026-03-29T10:56:58.853Z</time></trkpt><trkpt lat="45.815941" lon="9.0659893"><ele>206.0</ele><time>2026-03-29T10:57:00.832Z</time></trkpt><trkpt lat="45.8160052" lon="9.0659652"><ele>206.0</ele><time>2026-03-29T10:57:01.831Z</time></trkpt><trkpt lat="45.8161241" lon="9.0659046"><ele>205.99999999999997</ele><time>2026-03-29T10:57:03.829Z</time></trkpt><trkpt lat="45.8161825" lon="9.0658622"><ele>206.0</ele><time>2026-03-29T10:57:04.836Z</time></trkpt><trkpt lat="45.8162457" lon="9.0658158"><ele>206.0</ele><time>2026-03-29T10:57:05.831Z</time></trkpt><trkpt lat="45.8163062" lon="9.0657717"><ele>206.0</ele><time>2026-03-29T10:57:06.825Z</time></trkpt><trkpt lat="45.8163746" lon="9.0657328"><ele>206.0</ele><time>2026-03-29T10:57:07.83Z</time></trkpt><trkpt lat="45.8164428" lon="9.0657076"><ele>205.99999999999997</ele><time>2026-03-29T10:57:08.823Z</time></trkpt><trkpt lat="45.8165098" lon="9.06568"><ele>206.0</ele><time>2026-03-29T10:57:09.822Z</time></trkpt><trkpt lat="45.8165801" lon="9.0656428"><ele>206.0</ele><time>2026-03-29T10:57:10.825Z</time></trkpt><trkpt lat="45.81666" lon="9.0655778"><ele>206.0</ele><time>2026-03-29T10:57:11.826Z</time></trkpt><trkpt lat="45.8167393" lon="9.0654801"><ele>206.0</ele><time>2026-03-29T10:57:12.833Z</time></trkpt><trkpt lat="45.8168322" lon="9.0654073"><ele>206.0</ele><time>2026-03-29T10:57:13.824Z</time></trkpt><trkpt lat="45.8169227" lon="9.0653351"><ele>206.0</ele><time>2026-03-29T10:57:14.829Z</time></trkpt><trkpt lat="45.8170136" lon="9.0652516"><ele>206.4</ele><time>2026-03-29T10:57:15.833Z</time></trkpt><trkpt lat="45.8171027" lon="9.0651701"><ele>206.8</ele><time>2026-03-29T10:57:16.837Z</time></trkpt><trkpt lat="45.8171879" lon="9.0650909"><ele>207.20000000000002</ele><time>2026-03-29T10:57:17.841Z</time></trkpt><trkpt lat="45.8172685" lon="9.0650121"><ele>207.60000000000002</ele><time>2026-03-29T10:57:18.839Z</time></trkpt><trkpt lat="45.8173429" lon="9.0649442"><ele>208.0</ele><time>2026-03-29T10:57:19.839Z</time></trkpt><trkpt lat="45.8174093" lon="9.064895"><ele>207.99999999999997</ele><time>2026-03-29T10:57:20.843Z</time></trkpt><trkpt lat="45.8175289" lon="9.0649198"><ele>208.0</ele><time>2026-03-29T10:57:22.844Z</time></trkpt><trkpt lat="45.8175833" lon="9.0649769"><ele>208.0</ele><time>2026-03-29T10:57:23.827Z</time></trkpt><trkpt lat="45.8176283" lon="9.065053"><ele>208.0</ele><time>2026-03-29T10:57:24.835Z</time></trkpt><trkpt lat="45.8176587" lon="9.0651461"><ele>207.99999999999997</ele><time>2026-03-29T10:57:25.837Z</time></trkpt><trkpt lat="45.8176929" lon="9.0652468"><ele>208.0</ele><time>2026-03-29T10:57:26.835Z</time></trkpt><trkpt lat="45.8177313" lon="9.0653415"><ele>208.57142857142856</ele><time>2026-03-29T10:57:27.835Z</time></trkpt><trkpt lat="45.8177724" lon="9.0654253"><ele>209.14285714285717</ele><time>2026-03-29T10:57:28.843Z</time></trkpt><trkpt lat="45.817809" lon="9.0655139"><ele>209.71428571428572</ele><time>2026-03-29T10:57:29.838Z</time></trkpt><trkpt lat="45.8178488" lon="9.0655982"><ele>210.28571428571428</ele><time>2026-03-29T10:57:30.842Z</time></trkpt><trkpt lat="45.8178902" lon="9.0656791"><ele>210.85714285714283</ele><time>2026-03-29T10:57:31.84Z</time></trkpt><trkpt lat="45.8179337" lon="9.0657557"><ele>211.42857142857144</ele><time>2026-03-29T10:57:32.845Z</time></trkpt><trkpt lat="45.8179766" lon="9.0658282"><ele>212.0</ele><time>2026-03-29T10:57:33.843Z</time></trkpt><trkpt lat="45.8180188" lon="9.0658971"><ele>210.0</ele><time>2026-03-29T10:57:34.843Z</time></trkpt><trkpt lat="45.8180926" lon="9.066033"><ele>208.0</ele><time>2026-03-29T10:57:36.835Z</time></trkpt><trkpt lat="45.8181364" lon="9.0661611"><ele>206.0</ele><time>2026-03-29T10:57:38.838Z</time></trkpt><trkpt lat="45.8181376" lon="9.0663018"><ele>204.0</ele><time>2026-03-29T10:57:40.843Z</time></trkpt><trkpt lat="45.8181507" lon="9.0664305"><ele>202.0</ele><time>2026-03-29T10:57:42.837Z</time></trkpt><trkpt lat="45.8181638" lon="9.0665292"><ele>201.99999999999997</ele><time>2026-03-29T10:57:44.839Z</time></trkpt><trkpt lat="45.8182487" lon="9.0665498"><ele>202.0</ele><time>2026-03-29T10:57:47.844Z</time></trkpt><trkpt lat="45.8182935" lon="9.066477"><ele>202.0</ele><time>2026-03-29T10:57:49.847Z</time></trkpt><trkpt lat="45.8183079" lon="9.0663514"><ele>202.0</ele><time>2026-03-29T10:57:51.849Z</time></trkpt><trkpt lat="45.8182896" lon="9.0662351"><ele>201.99999999999997</ele><time>2026-03-29T10:57:53.845Z</time></trkpt><trkpt lat="45.818206" lon="9.066199"><ele>202.0</ele><time>2026-03-29T11:01:17.85Z</time></trkpt><trkpt lat="45.8181396" lon="9.0661024"><ele>201.99999999999997</ele><time>2026-03-29T11:01:19.848Z</time></trkpt><trkpt lat="45.8180983" lon="9.0660042"><ele>202.0</ele><time>2026-03-29T11:01:20.842Z</time></trkpt><trkpt lat="45.8180478" lon="9.0659054"><ele>202.0</ele><time>2026-03-29T11:01:21.841Z</time></trkpt><trkpt lat="45.8179969" lon="9.0658113"><ele>202.0</ele><time>2026-03-29T11:01:22.847Z</time></trkpt><trkpt lat="45.8179446" lon="9.0657119"><ele>201.99999999999997</ele><time>2026-03-29T11:01:23.844Z</time></trkpt><trkpt lat="45.8178879" lon="9.0656108"><ele>202.0</ele><time>2026-03-29T11:01:24.84Z</time></trkpt><trkpt lat="45.8178346" lon="9.0655125"><ele>202.99999999999997</ele><time>2026-03-29T11:01:25.85Z</time></trkpt><trkpt lat="45.8177838" lon="9.0654147"><ele>204.0</ele><time>2026-03-29T11:01:26.848Z</time></trkpt><trkpt lat="45.8177326" lon="9.0653182"><ele>205.0</ele><time>2026-03-29T11:01:27.843Z</time></trkpt><trkpt lat="45.8176844" lon="9.0652213"><ele>206.0</ele><time>2026-03-29T11:01:28.847Z</time></trkpt><trkpt lat="45.8176336" lon="9.0651314"><ele>206.99999999999997</ele><time>2026-03-29T11:01:29.845Z</time></trkpt><trkpt lat="45.8175842" lon="9.0650485"><ele>208.0</ele><time>2026-03-29T11:01:30.844Z</time></trkpt><trkpt lat="45.8175443" lon="9.0649667"><ele>208.83333333333331</ele><time>2026-03-29T11:01:31.846Z</time></trkpt><trkpt lat="45.8175014" lon="9.0648339"><ele>209.66666666666666</ele><time>2026-03-29T11:01:33.836Z</time></trkpt><trkpt lat="45.8175056" lon="9.064717"><ele>210.5</ele><time>2026-03-29T11:01:36.835Z</time></trkpt><trkpt lat="45.8175563" lon="9.0645952"><ele>211.33333333333331</ele><time>2026-03-29T11:01:39.834Z</time></trkpt><trkpt lat="45.8176003" lon="9.0645265"><ele>212.16666666666666</ele><time>2026-03-29T11:01:40.837Z</time></trkpt><trkpt lat="45.8176669" lon="9.0644498"><ele>213.0</ele><time>2026-03-29T11:01:41.836Z</time></trkpt><trkpt lat="45.8177506" lon="9.064359"><ele>213.5</ele><time>2026-03-29T11:01:42.835Z</time></trkpt><trkpt lat="45.8178472" lon="9.0642579"><ele>214.0</ele><time>2026-03-29T11:01:43.839Z</time></trkpt><trkpt lat="45.8179441" lon="9.0641503"><ele>214.5</ele><time>2026-03-29T11:01:44.835Z</time></trkpt><trkpt lat="45.818046" lon="9.0640497"><ele>215.0</ele><time>2026-03-29T11:01:45.83Z</time></trkpt><trkpt lat="45.8181408" lon="9.0639432"><ele>215.75</ele><time>2026-03-29T11:01:46.83Z</time></trkpt><trkpt lat="45.818237" lon="9.0638359"><ele>216.5</ele><time>2026-03-29T11:01:47.838Z</time></trkpt><trkpt lat="45.8183337" lon="9.0637457"><ele>217.25</ele><time>2026-03-29T11:01:48.829Z</time></trkpt><trkpt lat="45.8184282" lon="9.0636575"><ele>218.0</ele><time>2026-03-29T11:01:49.828Z</time></trkpt><trkpt lat="45.8185188" lon="9.0635727"><ele>218.60000000000002</ele><time>2026-03-29T11:01:50.825Z</time></trkpt><trkpt lat="45.8186086" lon="9.0634909"><ele>219.20000000000002</ele><time>2026-03-29T11:01:51.823Z</time></trkpt><trkpt lat="45.8186881" lon="9.0634102"><ele>219.8</ele><time>2026-03-29T11:01:52.83Z</time></trkpt><trkpt lat="45.8187621" lon="9.0633433"><ele>220.4</ele><time>2026-03-29T11:01:53.828Z</time></trkpt><trkpt lat="45.8188386" lon="9.0632987"><ele>221.0</ele><time>2026-03-29T11:01:54.852Z</time></trkpt><trkpt lat="45.8189218" lon="9.0632675"><ele>220.8</ele><time>2026-03-29T11:01:55.835Z</time></trkpt><trkpt lat="45.8190103" lon="9.063258"><ele>220.60000000000002</ele><time>2026-03-29T11:01:56.837Z</time></trkpt><trkpt lat="45.8191046" lon="9.0632581"><ele>220.4</ele><time>2026-03-29T11:01:57.835Z</time></trkpt><trkpt lat="45.8192025" lon="9.0632624"><ele>220.2</ele><time>2026-03-29T11:01:58.839Z</time></trkpt><trkpt lat="45.8193031" lon="9.0632722"><ele>220.0</ele><time>2026-03-29T11:01:59.834Z</time></trkpt><trkpt lat="45.8194107" lon="9.0633058"><ele>220.0</ele><time>2026-03-29T11:02:00.832Z</time></trkpt><trkpt lat="45.8195213" lon="9.0633558"><ele>220.0</ele><time>2026-03-29T11:02:01.84Z</time></trkpt><trkpt lat="45.8196309" lon="9.0634376"><ele>220.0</ele><time>2026-03-29T11:02:02.83Z</time></trkpt><trkpt lat="45.8197394" lon="9.0635415"><ele>220.0</ele><time>2026-03-29T11:02:03.826Z</time></trkpt><trkpt lat="45.8198318" lon="9.0636806"><ele>220.0</ele><time>2026-03-29T11:02:04.834Z</time></trkpt><trkpt lat="45.8199104" lon="9.0638297"><ele>220.0</ele><time>2026-03-29T11:02:05.835Z</time></trkpt><trkpt lat="45.8199729" lon="9.0639961"><ele>220.0</ele><time>2026-03-29T11:02:06.831Z</time></trkpt><trkpt lat="45.8200226" lon="9.0641803"><ele>220.0</ele><time>2026-03-29T11:02:07.835Z</time></trkpt><trkpt lat="45.82007" lon="9.0643716"><ele>220.0</ele><time>2026-03-29T11:02:08.836Z</time></trkpt><trkpt lat="45.8201167" lon="9.0645658"><ele>220.0</ele><time>2026-03-29T11:02:09.828Z</time></trkpt><trkpt lat="45.820149" lon="9.0648144"><ele>220.0</ele><time>2026-03-29T11:02:10.838Z</time></trkpt><trkpt lat="45.8202055" lon="9.0650253"><ele>222.0</ele><time>2026-03-29T11:02:11.83Z</time></trkpt><trkpt lat="45.8202626" lon="9.0651877"><ele>224.0</ele><time>2026-03-29T11:02:12.827Z</time></trkpt><trkpt lat="45.8203242" lon="9.0653705"><ele>226.0</ele><time>2026-03-29T11:02:13.838Z</time></trkpt><trkpt lat="45.8203798" lon="9.0655404"><ele>228.0</ele><time>2026-03-29T11:02:14.84Z</time></trkpt><trkpt lat="45.8204396" lon="9.0657238"><ele>226.0</ele><time>2026-03-29T11:02:15.839Z</time></trkpt><trkpt lat="45.8204799" lon="9.065931"><ele>224.0</ele><time>2026-03-29T11:02:16.834Z</time></trkpt><trkpt lat="45.8205577" lon="9.0660889"><ele>222.0</ele><time>2026-03-29T11:02:17.837Z</time></trkpt><trkpt lat="45.8206228" lon="9.0662316"><ele>220.0</ele><time>2026-03-29T11:02:18.829Z</time></trkpt><trkpt lat="45.8206869" lon="9.0663727"><ele>220.0</ele><time>2026-03-29T11:02:19.833Z</time></trkpt><trkpt lat="45.820764" lon="9.0665256"><ele>220.0</ele><time>2026-03-29T11:02:20.834Z</time></trkpt><trkpt lat="45.8208543" lon="9.0666522"><ele>220.0</ele><time>2026-03-29T11:02:21.857Z</time></trkpt><trkpt lat="45.820958" lon="9.0667659"><ele>220.0</ele><time>2026-03-29T11:02:22.835Z</time></trkpt><trkpt lat="45.8210667" lon="9.066858"><ele>219.75</ele><time>2026-03-29T11:02:23.834Z</time></trkpt><trkpt lat="45.8211823" lon="9.0669409"><ele>219.5</ele><time>2026-03-29T11:02:24.838Z</time></trkpt><trkpt lat="45.8213172" lon="9.0670228"><ele>219.25</ele><time>2026-03-29T11:02:25.832Z</time></trkpt><trkpt lat="45.8214395" lon="9.0670954"><ele>219.0</ele><time>2026-03-29T11:02:26.833Z</time></trkpt><trkpt lat="45.8215782" lon="9.0671432"><ele>219.0</ele><time>2026-03-29T11:02:27.841Z</time></trkpt><trkpt lat="45.82173" lon="9.0672004"><ele>219.0</ele><time>2026-03-29T11:02:28.832Z</time></trkpt><trkpt lat="45.8218795" lon="9.0672791"><ele>219.0</ele><time>2026-03-29T11:02:29.839Z</time></trkpt><trkpt lat="45.8220262" lon="9.06737"><ele>217.75</ele><time>2026-03-29T11:02:30.844Z</time></trkpt><trkpt lat="45.8221677" lon="9.0674685"><ele>216.5</ele><time>2026-03-29T11:02:31.835Z</time></trkpt><trkpt lat="45.8222982" lon="9.0675508"><ele>215.25</ele><time>2026-03-29T11:02:32.833Z</time></trkpt><trkpt lat="45.8224215" lon="9.0676166"><ele>214.0</ele><time>2026-03-29T11:02:33.833Z</time></trkpt><trkpt lat="45.8225364" lon="9.0677098"><ele>214.0</ele><time>2026-03-29T11:02:34.828Z</time></trkpt><trkpt lat="45.8226472" lon="9.0677902"><ele>214.0</ele><time>2026-03-29T11:02:35.832Z</time></trkpt><trkpt lat="45.8227749" lon="9.0678177"><ele>214.0</ele><time>2026-03-29T11:02:36.829Z</time></trkpt><trkpt lat="45.8229227" lon="9.0678354"><ele>214.0</ele><time>2026-03-29T11:02:37.831Z</time></trkpt><trkpt lat="45.8230743" lon="9.0678247"><ele>216.25</ele><time>2026-03-29T11:02:38.826Z</time></trkpt><trkpt lat="45.8232144" lon="9.0678162"><ele>218.5</ele><time>2026-03-29T11:02:39.842Z</time></trkpt><trkpt lat="45.8233421" lon="9.0678169"><ele>220.75</ele><time>2026-03-29T11:02:40.826Z</time></trkpt><trkpt lat="45.8234715" lon="9.0678307"><ele>223.0</ele><time>2026-03-29T11:02:41.839Z</time></trkpt><trkpt lat="45.8236099" lon="9.0678778"><ele>227.75</ele><time>2026-03-29T11:02:42.832Z</time></trkpt><trkpt lat="45.8237321" lon="9.0679331"><ele>232.5</ele><time>2026-03-29T11:02:43.835Z</time></trkpt><trkpt lat="45.8238892" lon="9.0679741"><ele>237.25</ele><time>2026-03-29T11:02:44.833Z</time></trkpt><trkpt lat="45.8240316" lon="9.0680351"><ele>242.0</ele><time>2026-03-29T11:02:45.832Z</time></trkpt><trkpt lat="45.8241588" lon="9.0680956"><ele>242.0</ele><time>2026-03-29T11:02:46.839Z</time></trkpt><trkpt lat="45.8242827" lon="9.0681606"><ele>242.0</ele><time>2026-03-29T11:02:47.835Z</time></trkpt><trkpt lat="45.8244082" lon="9.0682225"><ele>242.0</ele><time>2026-03-29T11:02:48.834Z</time></trkpt><trkpt lat="45.8245312" lon="9.0682817"><ele>242.0</ele><time>2026-03-29T11:02:49.833Z</time></trkpt><trkpt lat="45.8246502" lon="9.0683355"><ele>234.5</ele><time>2026-03-29T11:02:50.83Z</time></trkpt><trkpt lat="45.8247769" lon="9.0683708"><ele>227.0</ele><time>2026-03-29T11:02:51.832Z</time></trkpt><trkpt lat="45.8248989" lon="9.0683938"><ele>219.5</ele><time>2026-03-29T11:02:52.83Z</time></trkpt><trkpt lat="45.8250159" lon="9.068413"><ele>212.0</ele><time>2026-03-29T11:02:53.825Z</time></trkpt><trkpt lat="45.8251405" lon="9.068419"><ele>213.5</ele><time>2026-03-29T11:02:54.826Z</time></trkpt><trkpt lat="45.8252756" lon="9.0684209"><ele>215.0</ele><time>2026-03-29T11:02:55.823Z</time></trkpt><trkpt lat="45.8254206" lon="9.0684166"><ele>216.5</ele><time>2026-03-29T11:02:56.827Z</time></trkpt><trkpt lat="45.8255548" lon="9.0684195"><ele>218.0</ele><time>2026-03-29T11:02:57.823Z</time></trkpt><trkpt lat="45.8256838" lon="9.0684225"><ele>218.0</ele><time>2026-03-29T11:02:58.848Z</time></trkpt><trkpt lat="45.8258032" lon="9.0684367"><ele>218.0</ele><time>2026-03-29T11:02:59.817Z</time></trkpt><trkpt lat="45.8259243" lon="9.0684738"><ele>218.0</ele><time>2026-03-29T11:03:00.828Z</time></trkpt><trkpt lat="45.8260435" lon="9.0685274"><ele>218.0</ele><time>2026-03-29T11:03:01.818Z</time></trkpt><trkpt lat="45.826159" lon="9.0685958"><ele>225.0</ele><time>2026-03-29T11:03:02.82Z</time></trkpt><trkpt lat="45.8262733" lon="9.0686814"><ele>232.0</ele><time>2026-03-29T11:03:03.828Z</time></trkpt><trkpt lat="45.8263799" lon="9.0687833"><ele>239.0</ele><time>2026-03-29T11:03:04.823Z</time></trkpt><trkpt lat="45.8264783" lon="9.068899"><ele>246.0</ele><time>2026-03-29T11:03:05.83Z</time></trkpt><trkpt lat="45.8265783" lon="9.0690096"><ele>244.75</ele><time>2026-03-29T11:03:06.828Z</time></trkpt><trkpt lat="45.8266806" lon="9.0691132"><ele>243.5</ele><time>2026-03-29T11:03:07.825Z</time></trkpt><trkpt lat="45.8267797" lon="9.0692125"><ele>242.25</ele><time>2026-03-29T11:03:08.827Z</time></trkpt><trkpt lat="45.8268759" lon="9.0693086"><ele>241.0</ele><time>2026-03-29T11:03:09.824Z</time></trkpt><trkpt lat="45.8269767" lon="9.0694023"><ele>241.0</ele><time>2026-03-29T11:03:10.825Z</time></trkpt><trkpt lat="45.8270796" lon="9.0694975"><ele>241.0</ele><time>2026-03-29T11:03:11.827Z</time></trkpt><trkpt lat="45.8271835" lon="9.0695879"><ele>241.0</ele><time>2026-03-29T11:03:12.822Z</time></trkpt><trkpt lat="45.8272799" lon="9.0696772"><ele>241.0</ele><time>2026-03-29T11:03:13.826Z</time></trkpt><trkpt lat="45.8273782" lon="9.0697609"><ele>241.0</ele><time>2026-03-29T11:03:14.832Z</time></trkpt><trkpt lat="45.8274885" lon="9.0698502"><ele>241.0</ele><time>2026-03-29T11:03:15.829Z</time></trkpt><trkpt lat="45.8275973" lon="9.0699394"><ele>241.0</ele><time>2026-03-29T11:03:16.839Z</time></trkpt><trkpt lat="45.8277163" lon="9.0700094"><ele>241.0</ele><time>2026-03-29T11:03:17.859Z</time></trkpt><trkpt lat="45.8278455" lon="9.0700643"><ele>236.75</ele><time>2026-03-29T11:03:18.828Z</time></trkpt><trkpt lat="45.8279803" lon="9.0701026"><ele>232.5</ele><time>2026-03-29T11:03:19.833Z</time></trkpt><trkpt lat="45.8281219" lon="9.0701093"><ele>228.25</ele><time>2026-03-29T11:03:20.837Z</time></trkpt><trkpt lat="45.8282738" lon="9.0700633"><ele>224.0</ele><time>2026-03-29T11:03:21.828Z</time></trkpt><trkpt lat="45.828402" lon="9.0700417"><ele>229.5</ele><time>2026-03-29T11:03:22.842Z</time></trkpt><trkpt lat="45.8285522" lon="9.0700346"><ele>235.0</ele><time>2026-03-29T11:03:23.828Z</time></trkpt><trkpt lat="45.8286808" lon="9.07008"><ele>240.5</ele><time>2026-03-29T11:03:24.815Z</time></trkpt><trkpt lat="45.8287942" lon="9.0701951"><ele>246.0</ele><time>2026-03-29T11:03:25.826Z</time></trkpt><trkpt lat="45.8288603" lon="9.0702992"><ele>246.0</ele><time>2026-03-29T11:03:26.827Z</time></trkpt><trkpt lat="45.8288927" lon="9.0704941"><ele>246.0</ele><time>2026-03-29T11:03:27.828Z</time></trkpt><trkpt lat="45.8289865" lon="9.0706321"><ele>246.0</ele><time>2026-03-29T11:03:28.829Z</time></trkpt><trkpt lat="45.829079" lon="9.0708032"><ele>246.0</ele><time>2026-03-29T11:03:29.825Z</time></trkpt><trkpt lat="45.829178" lon="9.07095"><ele>243.75</ele><time>2026-03-29T11:03:30.822Z</time></trkpt><trkpt lat="45.8292979" lon="9.0710714"><ele>241.5</ele><time>2026-03-29T11:03:31.826Z</time></trkpt><trkpt lat="45.8294156" lon="9.0712005"><ele>239.25</ele><time>2026-03-29T11:03:32.823Z</time></trkpt><trkpt lat="45.8295124" lon="9.0713308"><ele>237.0</ele><time>2026-03-29T11:03:33.824Z</time></trkpt><trkpt lat="45.8296107" lon="9.0714771"><ele>237.0</ele><time>2026-03-29T11:03:34.832Z</time></trkpt><trkpt lat="45.8297641" lon="9.0715531"><ele>237.0</ele><time>2026-03-29T11:03:35.823Z</time></trkpt><trkpt lat="45.8299281" lon="9.071617"><ele>237.0</ele><time>2026-03-29T11:03:36.823Z</time></trkpt><trkpt lat="45.8300767" lon="9.0716602"><ele>230.75</ele><time>2026-03-29T11:03:37.828Z</time></trkpt><trkpt lat="45.8302046" lon="9.0717173"><ele>224.5</ele><time>2026-03-29T11:03:38.836Z</time></trkpt><trkpt lat="45.8303215" lon="9.0717881"><ele>218.25</ele><time>2026-03-29T11:03:39.834Z</time></trkpt><trkpt lat="45.8304434" lon="9.0718623"><ele>212.0</ele><time>2026-03-29T11:03:40.834Z</time></trkpt><trkpt lat="45.8305405" lon="9.0719174"><ele>212.00000000000003</ele><time>2026-03-29T11:03:41.83Z</time></trkpt><trkpt lat="45.8306251" lon="9.0719502"><ele>212.0</ele><time>2026-03-29T11:03:42.836Z</time></trkpt><trkpt lat="45.8307109" lon="9.0719888"><ele>212.0</ele><time>2026-03-29T11:03:43.826Z</time></trkpt><trkpt lat="45.830782" lon="9.0720013"><ele>212.0</ele><time>2026-03-29T11:03:44.834Z</time></trkpt><trkpt lat="45.8308467" lon="9.0720051"><ele>212.00000000000003</ele><time>2026-03-29T11:03:45.823Z</time></trkpt><trkpt lat="45.8309647" lon="9.0720059"><ele>212.0</ele><time>2026-03-29T11:03:47.845Z</time></trkpt><trkpt lat="45.8310807" lon="9.0719966"><ele>210.0</ele><time>2026-03-29T11:03:49.831Z</time></trkpt><trkpt lat="45.8311831" lon="9.0719839"><ele>208.0</ele><time>2026-03-29T11:03:51.831Z</time></trkpt><trkpt lat="45.8312591" lon="9.0719785"><ele>206.0</ele><time>2026-03-29T11:03:53.84Z</time></trkpt><trkpt lat="45.8313536" lon="9.0719681"><ele>204.0</ele><time>2026-03-29T11:03:56.839Z</time></trkpt><trkpt lat="45.8314913" lon="9.0719489"><ele>202.0</ele><time>2026-03-29T11:03:58.83Z</time></trkpt><trkpt lat="45.8315711" lon="9.0719342"><ele>202.0</ele><time>2026-03-29T11:03:59.828Z</time></trkpt><trkpt lat="45.8316632" lon="9.071915"><ele>202.0</ele><time>2026-03-29T11:04:00.832Z</time></trkpt><trkpt lat="45.8317703" lon="9.0718982"><ele>202.0</ele><time>2026-03-29T11:04:01.841Z</time></trkpt><trkpt lat="45.8318791" lon="9.071872"><ele>202.0</ele><time>2026-03-29T11:04:02.832Z</time></trkpt><trkpt lat="45.831995" lon="9.0718541"><ele>202.0</ele><time>2026-03-29T11:04:03.861Z</time></trkpt><trkpt lat="45.8321168" lon="9.0718498"><ele>202.75</ele><time>2026-03-29T11:04:04.839Z</time></trkpt><trkpt lat="45.8322456" lon="9.0718591"><ele>203.5</ele><time>2026-03-29T11:04:05.842Z</time></trkpt><trkpt lat="45.8323817" lon="9.071885"><ele>204.25</ele><time>2026-03-29T11:04:06.839Z</time></trkpt><trkpt lat="45.8325207" lon="9.0719348"><ele>205.0</ele><time>2026-03-29T11:04:07.844Z</time></trkpt><trkpt lat="45.8326754" lon="9.0720167"><ele>205.0</ele><time>2026-03-29T11:04:08.836Z</time></trkpt><trkpt lat="45.8328217" lon="9.0720828"><ele>205.0</ele><time>2026-03-29T11:04:09.844Z</time></trkpt><trkpt lat="45.83297" lon="9.0721697"><ele>205.0</ele><time>2026-03-29T11:04:10.844Z</time></trkpt><trkpt lat="45.8331217" lon="9.0722231"><ele>205.0</ele><time>2026-03-29T11:04:11.846Z</time></trkpt><trkpt lat="45.8332748" lon="9.0722706"><ele>205.0</ele><time>2026-03-29T11:04:12.842Z</time></trkpt><trkpt lat="45.833447" lon="9.0723407"><ele>205.0</ele><time>2026-03-29T11:04:13.84Z</time></trkpt><trkpt lat="45.8336072" lon="9.0723993"><ele>205.0</ele><time>2026-03-29T11:04:14.848Z</time></trkpt><trkpt lat="45.833756" lon="9.072454"><ele>205.0</ele><time>2026-03-29T11:04:15.848Z</time></trkpt><trkpt lat="45.8338928" lon="9.072493"><ele>205.0</ele><time>2026-03-29T11:04:16.845Z</time></trkpt><trkpt lat="45.8340247" lon="9.0725274"><ele>205.0</ele><time>2026-03-29T11:04:17.853Z</time></trkpt><trkpt lat="45.8341495" lon="9.0725677"><ele>205.0</ele><time>2026-03-29T11:04:18.842Z</time></trkpt><trkpt lat="45.834293" lon="9.0726178"><ele>205.0</ele><time>2026-03-29T11:04:19.845Z</time></trkpt><trkpt lat="45.8344266" lon="9.0726549"><ele>205.0</ele><time>2026-03-29T11:04:20.847Z</time></trkpt><trkpt lat="45.8345653" lon="9.0726895"><ele>205.0</ele><time>2026-03-29T11:04:21.844Z</time></trkpt><trkpt lat="45.8346891" lon="9.072764"><ele>204.5</ele><time>2026-03-29T11:04:22.842Z</time></trkpt><trkpt lat="45.8348081" lon="9.0728341"><ele>204.0</ele><time>2026-03-29T11:04:23.845Z</time></trkpt><trkpt lat="45.8349304" lon="9.0729073"><ele>203.5</ele><time>2026-03-29T11:04:24.839Z</time></trkpt><trkpt lat="45.8350489" lon="9.072983"><ele>203.0</ele><time>2026-03-29T11:04:25.845Z</time></trkpt><trkpt lat="45.8351766" lon="9.0730457"><ele>202.75</ele><time>2026-03-29T11:04:26.84Z</time></trkpt><trkpt lat="45.8353283" lon="9.0730857"><ele>202.5</ele><time>2026-03-29T11:04:27.847Z</time></trkpt><trkpt lat="45.8354738" lon="9.0731308"><ele>202.25</ele><time>2026-03-29T11:04:28.842Z</time></trkpt><trkpt lat="45.8355961" lon="9.0731924"><ele>202.0</ele><time>2026-03-29T11:04:29.841Z</time></trkpt><trkpt lat="45.8357315" lon="9.0732368"><ele>203.0</ele><time>2026-03-29T11:04:30.846Z</time></trkpt><trkpt lat="45.8358639" lon="9.0732743"><ele>204.0</ele><time>2026-03-29T11:04:31.839Z</time></trkpt><trkpt lat="45.8359893" lon="9.0733238"><ele>205.0</ele><time>2026-03-29T11:04:32.844Z</time></trkpt><trkpt lat="45.8361152" lon="9.0733579"><ele>206.0</ele><time>2026-03-29T11:04:33.843Z</time></trkpt><trkpt lat="45.8362496" lon="9.0733942"><ele>206.75</ele><time>2026-03-29T11:04:34.85Z</time></trkpt><trkpt lat="45.8363708" lon="9.0734219"><ele>207.5</ele><time>2026-03-29T11:04:35.843Z</time></trkpt><trkpt lat="45.836484" lon="9.0734677"><ele>208.25</ele><time>2026-03-29T11:04:36.833Z</time></trkpt><trkpt lat="45.8365997" lon="9.0735107"><ele>209.0</ele><time>2026-03-29T11:04:37.834Z</time></trkpt><trkpt lat="45.8367153" lon="9.0735552"><ele>208.75</ele><time>2026-03-29T11:04:38.835Z</time></trkpt><trkpt lat="45.8368312" lon="9.0735965"><ele>208.5</ele><time>2026-03-29T11:04:39.832Z</time></trkpt><trkpt lat="45.8369478" lon="9.0736363"><ele>208.25</ele><time>2026-03-29T11:04:40.836Z</time></trkpt><trkpt lat="45.8370627" lon="9.0736712"><ele>208.0</ele><time>2026-03-29T11:04:41.829Z</time></trkpt><trkpt lat="45.8371758" lon="9.0737074"><ele>208.0</ele><time>2026-03-29T11:04:42.837Z</time></trkpt><trkpt lat="45.8372903" lon="9.0737397"><ele>208.0</ele><time>2026-03-29T11:04:43.834Z</time></trkpt><trkpt lat="45.8374055" lon="9.0737737"><ele>208.0</ele><time>2026-03-29T11:04:44.845Z</time></trkpt><trkpt lat="45.8375259" lon="9.073807"><ele>208.0</ele><time>2026-03-29T11:04:45.835Z</time></trkpt><trkpt lat="45.837647" lon="9.0738495"><ele>207.25</ele><time>2026-03-29T11:04:46.849Z</time></trkpt><trkpt lat="45.8377644" lon="9.0738916"><ele>206.5</ele><time>2026-03-29T11:04:47.843Z</time></trkpt><trkpt lat="45.8378719" lon="9.0739378"><ele>205.75</ele><time>2026-03-29T11:04:48.835Z</time></trkpt><trkpt lat="45.8379821" lon="9.0739822"><ele>205.0</ele><time>2026-03-29T11:04:49.838Z</time></trkpt><trkpt lat="45.838092" lon="9.0740239"><ele>205.0</ele><time>2026-03-29T11:04:50.839Z</time></trkpt><trkpt lat="45.8381991" lon="9.0740651"><ele>205.0</ele><time>2026-03-29T11:04:51.856Z</time></trkpt><trkpt lat="45.8383016" lon="9.0741036"><ele>205.0</ele><time>2026-03-29T11:04:52.846Z</time></trkpt><trkpt lat="45.8383998" lon="9.0741442"><ele>205.0</ele><time>2026-03-29T11:04:53.839Z</time></trkpt><trkpt lat="45.8384962" lon="9.0741817"><ele>205.0</ele><time>2026-03-29T11:04:54.833Z</time></trkpt><trkpt lat="45.8385883" lon="9.0742194"><ele>205.49999999999997</ele><time>2026-03-29T11:04:55.841Z</time></trkpt><trkpt lat="45.8386639" lon="9.0742543"><ele>206.0</ele><time>2026-03-29T11:04:56.838Z</time></trkpt><trkpt lat="45.8387241" lon="9.0742812"><ele>206.5</ele><time>2026-03-29T11:04:57.832Z</time></trkpt><trkpt lat="45.8388162" lon="9.0743211"><ele>207.0</ele><time>2026-03-29T11:04:59.833Z</time></trkpt><trkpt lat="45.8388763" lon="9.0743566"><ele>207.49999999999997</ele><time>2026-03-29T11:05:01.842Z</time></trkpt><trkpt lat="45.8389675" lon="9.07439"><ele>208.0</ele><time>2026-03-29T11:05:03.846Z</time></trkpt><trkpt lat="45.8390573" lon="9.0744377"><ele>207.99999999999997</ele><time>2026-03-29T11:05:05.835Z</time></trkpt><trkpt lat="45.8391522" lon="9.0745028"><ele>208.0</ele><time>2026-03-29T11:05:07.836Z</time></trkpt><trkpt lat="45.8392131" lon="9.0745511"><ele>208.0</ele><time>2026-03-29T11:05:10.846Z</time></trkpt><trkpt lat="45.8392781" lon="9.0745614"><ele>208.0</ele><time>2026-03-29T11:05:17.849Z</time></trkpt><trkpt lat="45.8393912" lon="9.0745356"><ele>207.99999999999997</ele><time>2026-03-29T11:05:19.846Z</time></trkpt><trkpt lat="45.8394676" lon="9.0745337"><ele>208.0</ele><time>2026-03-29T11:05:20.839Z</time></trkpt><trkpt lat="45.8395512" lon="9.0745604"><ele>208.16666666666666</ele><time>2026-03-29T11:05:21.834Z</time></trkpt><trkpt lat="45.839644" lon="9.0746033"><ele>208.33333333333331</ele><time>2026-03-29T11:05:22.844Z</time></trkpt><trkpt lat="45.839736" lon="9.0746351"><ele>208.5</ele><time>2026-03-29T11:05:23.832Z</time></trkpt><trkpt lat="45.8398161" lon="9.0746684"><ele>208.66666666666669</ele><time>2026-03-29T11:05:24.836Z</time></trkpt><trkpt lat="45.8398902" lon="9.0747092"><ele>208.83333333333334</ele><time>2026-03-29T11:05:25.83Z</time></trkpt><trkpt lat="45.839964" lon="9.0747503"><ele>209.0</ele><time>2026-03-29T11:05:26.83Z</time></trkpt><trkpt lat="45.8400582" lon="9.0748344"><ele>209.83333333333334</ele><time>2026-03-29T11:05:28.839Z</time></trkpt><trkpt lat="45.8401504" lon="9.0749226"><ele>210.66666666666669</ele><time>2026-03-29T11:05:30.828Z</time></trkpt><trkpt lat="45.840202" lon="9.0750095"><ele>211.5</ele><time>2026-03-29T11:05:32.845Z</time></trkpt><trkpt lat="45.840257" lon="9.0750934"><ele>212.33333333333331</ele><time>2026-03-29T11:05:36.84Z</time></trkpt><trkpt lat="45.8402969" lon="9.0751637"><ele>213.16666666666666</ele><time>2026-03-29T11:05:38.841Z</time></trkpt><trkpt lat="45.840349" lon="9.0752839"><ele>214.0</ele><time>2026-03-29T11:05:40.835Z</time></trkpt><trkpt lat="45.8404142" lon="9.0754241"><ele>214.0</ele><time>2026-03-29T11:05:42.839Z</time></trkpt><trkpt lat="45.8404538" lon="9.0754979"><ele>213.99999999999997</ele><time>2026-03-29T11:05:43.828Z</time></trkpt><trkpt lat="45.8405304" lon="9.0756134"><ele>213.99999999999997</ele><time>2026-03-29T11:05:45.833Z</time></trkpt><trkpt lat="45.8406078" lon="9.0757228"><ele>214.0</ele><time>2026-03-29T11:05:47.83Z</time></trkpt><trkpt lat="45.8406838" lon="9.0758199"><ele>214.0</ele><time>2026-03-29T11:05:49.841Z</time></trkpt><trkpt lat="45.8407524" lon="9.0759213"><ele>213.83333333333331</ele><time>2026-03-29T11:05:51.831Z</time></trkpt><trkpt lat="45.8408259" lon="9.0760257"><ele>213.66666666666666</ele><time>2026-03-29T11:05:53.83Z</time></trkpt><trkpt lat="45.8408992" lon="9.0761354"><ele>213.5</ele><time>2026-03-29T11:05:55.831Z</time></trkpt><trkpt lat="45.8409423" lon="9.0762019"><ele>213.33333333333331</ele><time>2026-03-29T11:05:57.844Z</time></trkpt><trkpt lat="45.8409698" lon="9.0762917"><ele>213.16666666666666</ele><time>2026-03-29T11:06:28.836Z</time></trkpt><trkpt lat="45.8410212" lon="9.076371"><ele>213.0</ele><time>2026-03-29T11:06:29.825Z</time></trkpt><trkpt lat="45.8410887" lon="9.0764624"><ele>213.0</ele><time>2026-03-29T11:06:30.824Z</time></trkpt><trkpt lat="45.8411561" lon="9.0765459"><ele>213.0</ele><time>2026-03-29T11:06:31.824Z</time></trkpt><trkpt lat="45.8412233" lon="9.0766141"><ele>213.0</ele><time>2026-03-29T11:06:32.827Z</time></trkpt><trkpt lat="45.8412888" lon="9.0766877"><ele>213.0</ele><time>2026-03-29T11:06:33.821Z</time></trkpt><trkpt lat="45.8413502" lon="9.0767741"><ele>213.0</ele><time>2026-03-29T11:06:34.829Z</time></trkpt><trkpt lat="45.8414157" lon="9.0768476"><ele>213.0</ele><time>2026-03-29T11:06:35.822Z</time></trkpt><trkpt lat="45.8414762" lon="9.0769407"><ele>213.0</ele><time>2026-03-29T11:06:36.825Z</time></trkpt><trkpt lat="45.8415426" lon="9.0770132"><ele>213.0</ele><time>2026-03-29T11:06:37.828Z</time></trkpt><trkpt lat="45.8416128" lon="9.0770819"><ele>213.0</ele><time>2026-03-29T11:06:38.819Z</time></trkpt><trkpt lat="45.8416817" lon="9.0771575"><ele>213.0</ele><time>2026-03-29T11:06:39.82Z</time></trkpt><trkpt lat="45.841749" lon="9.0772326"><ele>213.0</ele><time>2026-03-29T11:06:40.815Z</time></trkpt><trkpt lat="45.8418214" lon="9.0773036"><ele>213.0</ele><time>2026-03-29T11:06:41.814Z</time></trkpt><trkpt lat="45.8418989" lon="9.0773756"><ele>213.0</ele><time>2026-03-29T11:06:42.823Z</time></trkpt><trkpt lat="45.841962" lon="9.0774462"><ele>213.0</ele><time>2026-03-29T11:06:43.82Z</time></trkpt><trkpt lat="45.8420234" lon="9.077506"><ele>213.0</ele><time>2026-03-29T11:06:44.827Z</time></trkpt><trkpt lat="45.8420864" lon="9.0775716"><ele>213.0</ele><time>2026-03-29T11:06:45.826Z</time></trkpt><trkpt lat="45.8421745" lon="9.0776185"><ele>213.0</ele><time>2026-03-29T11:06:46.831Z</time></trkpt><trkpt lat="45.842268" lon="9.0776527"><ele>213.0</ele><time>2026-03-29T11:06:47.835Z</time></trkpt><trkpt lat="45.8423625" lon="9.0776836"><ele>213.0</ele><time>2026-03-29T11:06:48.83Z</time></trkpt><trkpt lat="45.8424543" lon="9.0777227"><ele>213.0</ele><time>2026-03-29T11:06:49.838Z</time></trkpt><trkpt lat="45.8425508" lon="9.0777536"><ele>213.0</ele><time>2026-03-29T11:06:50.836Z</time></trkpt><trkpt lat="45.8426535" lon="9.0777751"><ele>213.0</ele><time>2026-03-29T11:06:51.83Z</time></trkpt><trkpt lat="45.8427763" lon="9.0777994"><ele>213.0</ele><time>2026-03-29T11:06:52.847Z</time></trkpt><trkpt lat="45.842901" lon="9.0778211"><ele>213.75</ele><time>2026-03-29T11:06:53.842Z</time></trkpt><trkpt lat="45.8430331" lon="9.0778528"><ele>214.5</ele><time>2026-03-29T11:06:54.846Z</time></trkpt><trkpt lat="45.8431675" lon="9.0778807"><ele>215.25</ele><time>2026-03-29T11:06:55.838Z</time></trkpt><trkpt lat="45.8433196" lon="9.0779015"><ele>216.0</ele><time>2026-03-29T11:06:56.838Z</time></trkpt><trkpt lat="45.8434806" lon="9.0778778"><ele>218.0</ele><time>2026-03-29T11:06:57.832Z</time></trkpt><trkpt lat="45.8436648" lon="9.0779442"><ele>220.0</ele><time>2026-03-29T11:06:58.837Z</time></trkpt><trkpt lat="45.8438267" lon="9.0779993"><ele>222.0</ele><time>2026-03-29T11:06:59.84Z</time></trkpt><trkpt lat="45.8439839" lon="9.0780684"><ele>222.0</ele><time>2026-03-29T11:07:00.835Z</time></trkpt><trkpt lat="45.8441267" lon="9.0781289"><ele>222.0</ele><time>2026-03-29T11:07:01.836Z</time></trkpt><trkpt lat="45.8442411" lon="9.0781866"><ele>222.0</ele><time>2026-03-29T11:07:02.834Z</time></trkpt><trkpt lat="45.8443752" lon="9.0782843"><ele>222.0</ele><time>2026-03-29T11:07:03.828Z</time></trkpt><trkpt lat="45.8444914" lon="9.0783542"><ele>220.0</ele><time>2026-03-29T11:07:04.855Z</time></trkpt><trkpt lat="45.8446325" lon="9.0784657"><ele>218.0</ele><time>2026-03-29T11:07:05.835Z</time></trkpt><trkpt lat="45.8448002" lon="9.0785477"><ele>216.0</ele><time>2026-03-29T11:07:06.835Z</time></trkpt><trkpt lat="45.8449819" lon="9.0786066"><ele>218.66666666666669</ele><time>2026-03-29T11:07:07.824Z</time></trkpt><trkpt lat="45.8451772" lon="9.0786567"><ele>221.33333333333334</ele><time>2026-03-29T11:07:08.835Z</time></trkpt><trkpt lat="45.8453572" lon="9.0787051"><ele>224.0</ele><time>2026-03-29T11:07:09.83Z</time></trkpt><trkpt lat="45.8455167" lon="9.0787522"><ele>224.0</ele><time>2026-03-29T11:07:10.835Z</time></trkpt><trkpt lat="45.8456487" lon="9.0788166"><ele>224.0</ele><time>2026-03-29T11:07:11.837Z</time></trkpt><trkpt lat="45.8457892" lon="9.0788609"><ele>224.0</ele><time>2026-03-29T11:07:12.83Z</time></trkpt><trkpt lat="45.8459361" lon="9.0789444"><ele>224.0</ele><time>2026-03-29T11:07:13.832Z</time></trkpt><trkpt lat="45.8460702" lon="9.0791149"><ele>232.33333333333334</ele><time>2026-03-29T11:07:14.834Z</time></trkpt><trkpt lat="45.8461784" lon="9.0793071"><ele>240.66666666666669</ele><time>2026-03-29T11:07:15.826Z</time></trkpt><trkpt lat="45.8462399" lon="9.0795325"><ele>249.0</ele><time>2026-03-29T11:07:16.817Z</time></trkpt><trkpt lat="45.8462992" lon="9.0797656"><ele>248.33333333333331</ele><time>2026-03-29T11:07:17.824Z</time></trkpt><trkpt lat="45.8463145" lon="9.0800267"><ele>247.66666666666666</ele><time>2026-03-29T11:07:18.83Z</time></trkpt><trkpt lat="45.8463359" lon="9.0802792"><ele>247.0</ele><time>2026-03-29T11:07:19.818Z</time></trkpt><trkpt lat="45.84633" lon="9.0805922"><ele>246.0</ele><time>2026-03-29T11:07:20.824Z</time></trkpt><trkpt lat="45.8463532" lon="9.0809077"><ele>245.0</ele><time>2026-03-29T11:07:21.819Z</time></trkpt><trkpt lat="45.8463602" lon="9.0812034"><ele>244.0</ele><time>2026-03-29T11:07:22.815Z</time></trkpt><trkpt lat="45.8463801" lon="9.0814982"><ele>240.0</ele><time>2026-03-29T11:07:23.816Z</time></trkpt><trkpt lat="45.8464079" lon="9.0817941"><ele>236.0</ele><time>2026-03-29T11:07:24.811Z</time></trkpt><trkpt lat="45.8464218" lon="9.0821023"><ele>232.0</ele><time>2026-03-29T11:07:25.816Z</time></trkpt><trkpt lat="45.8464404" lon="9.0823623"><ele>234.33333333333331</ele><time>2026-03-29T11:07:26.82Z</time></trkpt><trkpt lat="45.8464713" lon="9.0826147"><ele>236.66666666666669</ele><time>2026-03-29T11:07:27.817Z</time></trkpt><trkpt lat="45.8465071" lon="9.0828676"><ele>239.0</ele><time>2026-03-29T11:07:28.817Z</time></trkpt><trkpt lat="45.8465215" lon="9.0831188"><ele>232.33333333333334</ele><time>2026-03-29T11:07:29.827Z</time></trkpt><trkpt lat="45.8465421" lon="9.0833664"><ele>225.66666666666669</ele><time>2026-03-29T11:07:30.829Z</time></trkpt><trkpt lat="45.8465559" lon="9.0835892"><ele>219.0</ele><time>2026-03-29T11:07:31.825Z</time></trkpt><trkpt lat="45.8465487" lon="9.0838518"><ele>219.0</ele><time>2026-03-29T11:07:32.815Z</time></trkpt><trkpt lat="45.8465247" lon="9.0840844"><ele>219.0</ele><time>2026-03-29T11:07:33.825Z</time></trkpt><trkpt lat="45.8464726" lon="9.0843071"><ele>219.0</ele><time>2026-03-29T11:07:34.849Z</time></trkpt><trkpt lat="45.846413" lon="9.084544"><ele>223.66666666666669</ele><time>2026-03-29T11:07:35.839Z</time></trkpt><trkpt lat="45.8463741" lon="9.0847929"><ele>228.33333333333334</ele><time>2026-03-29T11:07:36.83Z</time></trkpt><trkpt lat="45.8463315" lon="9.0850334"><ele>233.0</ele><time>2026-03-29T11:07:37.831Z</time></trkpt><trkpt lat="45.8462896" lon="9.0852768"><ele>235.66666666666669</ele><time>2026-03-29T11:07:38.83Z</time></trkpt><trkpt lat="45.8462284" lon="9.0854991"><ele>238.33333333333331</ele><time>2026-03-29T11:07:39.833Z</time></trkpt><trkpt lat="45.8461402" lon="9.0857347"><ele>241.0</ele><time>2026-03-29T11:07:40.832Z</time></trkpt><trkpt lat="45.8460394" lon="9.0859519"><ele>229.33333333333331</ele><time>2026-03-29T11:07:41.836Z</time></trkpt><trkpt lat="45.8459478" lon="9.0861725"><ele>217.66666666666669</ele><time>2026-03-29T11:07:42.828Z</time></trkpt><trkpt lat="45.8458808" lon="9.0863682"><ele>206.0</ele><time>2026-03-29T11:07:43.829Z</time></trkpt><trkpt lat="45.8458534" lon="9.0865471"><ele>209.0</ele><time>2026-03-29T11:07:44.838Z</time></trkpt><trkpt lat="45.8458635" lon="9.0867449"><ele>212.0</ele><time>2026-03-29T11:07:45.843Z</time></trkpt><trkpt lat="45.8459135" lon="9.0869527"><ele>215.0</ele><time>2026-03-29T11:07:46.853Z</time></trkpt><trkpt lat="45.846012" lon="9.0871733"><ele>227.0</ele><time>2026-03-29T11:07:47.838Z</time></trkpt><trkpt lat="45.8461246" lon="9.0874126"><ele>239.0</ele><time>2026-03-29T11:07:48.845Z</time></trkpt><trkpt lat="45.8462326" lon="9.0876575"><ele>251.0</ele><time>2026-03-29T11:07:49.842Z</time></trkpt><trkpt lat="45.8463243" lon="9.087861"><ele>251.0</ele><time>2026-03-29T11:07:50.829Z</time></trkpt><trkpt lat="45.8464156" lon="9.0880712"><ele>251.0</ele><time>2026-03-29T11:07:51.842Z</time></trkpt><trkpt lat="45.8464873" lon="9.0882761"><ele>251.0</ele><time>2026-03-29T11:07:52.836Z</time></trkpt><trkpt lat="45.8465699" lon="9.0884671"><ele>248.75</ele><time>2026-03-29T11:07:53.838Z</time></trkpt><trkpt lat="45.8466696" lon="9.0886338"><ele>246.5</ele><time>2026-03-29T11:07:54.838Z</time></trkpt><trkpt lat="45.8467946" lon="9.0887675"><ele>244.25</ele><time>2026-03-29T11:07:55.835Z</time></trkpt><trkpt lat="45.8469111" lon="9.0888758"><ele>242.0</ele><time>2026-03-29T11:07:56.829Z</time></trkpt><trkpt lat="45.8470595" lon="9.0889508"><ele>249.33333333333334</ele><time>2026-03-29T11:07:57.832Z</time></trkpt><trkpt lat="45.8472215" lon="9.0890046"><ele>256.6666666666667</ele><time>2026-03-29T11:07:58.832Z</time></trkpt><trkpt lat="45.8473847" lon="9.0889969"><ele>264.0</ele><time>2026-03-29T11:07:59.834Z</time></trkpt><trkpt lat="45.8475617" lon="9.0889807"><ele>267.0</ele><time>2026-03-29T11:08:00.83Z</time></trkpt><trkpt lat="45.8477249" lon="9.0889644"><ele>270.0</ele><time>2026-03-29T11:08:01.831Z</time></trkpt><trkpt lat="45.8478948" lon="9.0889474"><ele>273.0</ele><time>2026-03-29T11:08:02.825Z</time></trkpt><trkpt lat="45.8480587" lon="9.0889372"><ele>273.0</ele><time>2026-03-29T11:08:03.823Z</time></trkpt><trkpt lat="45.8482491" lon="9.0889695"><ele>273.0</ele><time>2026-03-29T11:08:04.83Z</time></trkpt><trkpt lat="45.8484385" lon="9.0889697"><ele>273.0</ele><time>2026-03-29T11:08:05.899Z</time></trkpt><trkpt lat="45.8486111" lon="9.0889727"><ele>276.0</ele><time>2026-03-29T11:08:06.829Z</time></trkpt><trkpt lat="45.8487927" lon="9.0889532"><ele>279.0</ele><time>2026-03-29T11:08:07.829Z</time></trkpt><trkpt lat="45.8489623" lon="9.0889677"><ele>282.0</ele><time>2026-03-29T11:08:08.822Z</time></trkpt><trkpt lat="45.8491137" lon="9.08895"><ele>282.0</ele><time>2026-03-29T11:08:09.828Z</time></trkpt><trkpt lat="45.8492495" lon="9.0889439"><ele>282.0</ele><time>2026-03-29T11:08:10.832Z</time></trkpt><trkpt lat="45.8493807" lon="9.0889389"><ele>282.0</ele><time>2026-03-29T11:08:11.83Z</time></trkpt><trkpt lat="45.8495081" lon="9.088984"><ele>282.0</ele><time>2026-03-29T11:08:12.818Z</time></trkpt><trkpt lat="45.8496339" lon="9.0889844"><ele>284.0</ele><time>2026-03-29T11:08:13.825Z</time></trkpt><trkpt lat="45.8497463" lon="9.0890368"><ele>286.0</ele><time>2026-03-29T11:08:14.827Z</time></trkpt><trkpt lat="45.8498977" lon="9.0890964"><ele>288.0</ele><time>2026-03-29T11:08:15.818Z</time></trkpt><trkpt lat="45.8500499" lon="9.0891222"><ele>290.0</ele><time>2026-03-29T11:08:16.82Z</time></trkpt><trkpt lat="45.8501879" lon="9.0891684"><ele>279.75</ele><time>2026-03-29T11:08:17.824Z</time></trkpt><trkpt lat="45.8503414" lon="9.0892198"><ele>269.5</ele><time>2026-03-29T11:08:18.829Z</time></trkpt><trkpt lat="45.8504738" lon="9.0892587"><ele>259.25</ele><time>2026-03-29T11:08:19.823Z</time></trkpt><trkpt lat="45.8505953" lon="9.0892372"><ele>249.0</ele><time>2026-03-29T11:08:20.822Z</time></trkpt><trkpt lat="45.8507539" lon="9.0892528"><ele>249.0</ele><time>2026-03-29T11:08:21.823Z</time></trkpt><trkpt lat="45.8508966" lon="9.0892132"><ele>249.0</ele><time>2026-03-29T11:08:22.837Z</time></trkpt><trkpt lat="45.851028" lon="9.0891651"><ele>249.0</ele><time>2026-03-29T11:08:23.829Z</time></trkpt><trkpt lat="45.8511444" lon="9.0891254"><ele>249.0</ele><time>2026-03-29T11:08:24.835Z</time></trkpt><trkpt lat="45.8512481" lon="9.0891046"><ele>248.39999999999998</ele><time>2026-03-29T11:08:25.83Z</time></trkpt><trkpt lat="45.8513407" lon="9.0890878"><ele>247.79999999999998</ele><time>2026-03-29T11:08:26.829Z</time></trkpt><trkpt lat="45.8514261" lon="9.089078"><ele>247.20000000000002</ele><time>2026-03-29T11:08:27.83Z</time></trkpt><trkpt lat="45.8515174" lon="9.0891009"><ele>246.60000000000002</ele><time>2026-03-29T11:08:28.827Z</time></trkpt><trkpt lat="45.8516157" lon="9.0891551"><ele>246.0</ele><time>2026-03-29T11:08:29.825Z</time></trkpt><trkpt lat="45.851713" lon="9.089222"><ele>249.8</ele><time>2026-03-29T11:08:30.824Z</time></trkpt><trkpt lat="45.8518104" lon="9.0892727"><ele>253.60000000000002</ele><time>2026-03-29T11:08:31.83Z</time></trkpt><trkpt lat="45.8519145" lon="9.0892858"><ele>257.4</ele><time>2026-03-29T11:08:32.829Z</time></trkpt><trkpt lat="45.8520219" lon="9.0892523"><ele>261.2</ele><time>2026-03-29T11:08:33.816Z</time></trkpt><trkpt lat="45.8521395" lon="9.0892115"><ele>265.0</ele><time>2026-03-29T11:08:34.833Z</time></trkpt><trkpt lat="45.8522603" lon="9.0892065"><ele>265.0</ele><time>2026-03-29T11:08:35.815Z</time></trkpt><trkpt lat="45.8523872" lon="9.0892422"><ele>265.0</ele><time>2026-03-29T11:08:36.821Z</time></trkpt><trkpt lat="45.8525108" lon="9.0893097"><ele>265.0</ele><time>2026-03-29T11:08:37.817Z</time></trkpt><trkpt lat="45.8526364" lon="9.0894174"><ele>265.0</ele><time>2026-03-29T11:08:38.82Z</time></trkpt><trkpt lat="45.8527536" lon="9.0895238"><ele>261.25</ele><time>2026-03-29T11:08:39.82Z</time></trkpt><trkpt lat="45.8528853" lon="9.0896129"><ele>257.5</ele><time>2026-03-29T11:08:40.822Z</time></trkpt><trkpt lat="45.8529997" lon="9.0897092"><ele>253.75</ele><time>2026-03-29T11:08:41.818Z</time></trkpt><trkpt lat="45.8531187" lon="9.0898217"><ele>250.0</ele><time>2026-03-29T11:08:42.821Z</time></trkpt><trkpt lat="45.8532456" lon="9.0899569"><ele>250.0</ele><time>2026-03-29T11:08:43.816Z</time></trkpt><trkpt lat="45.8533256" lon="9.0901658"><ele>250.0</ele><time>2026-03-29T11:08:44.844Z</time></trkpt><trkpt lat="45.853381" lon="9.0903698"><ele>250.0</ele><time>2026-03-29T11:08:45.815Z</time></trkpt><trkpt lat="45.853421" lon="9.0905655"><ele>249.25</ele><time>2026-03-29T11:08:46.82Z</time></trkpt><trkpt lat="45.8534752" lon="9.0907394"><ele>248.5</ele><time>2026-03-29T11:08:47.821Z</time></trkpt><trkpt lat="45.8535122" lon="9.0908794"><ele>247.75</ele><time>2026-03-29T11:08:48.829Z</time></trkpt><trkpt lat="45.8535708" lon="9.0909957"><ele>247.0</ele><time>2026-03-29T11:08:49.816Z</time></trkpt><trkpt lat="45.8536959" lon="9.0910767"><ele>247.0</ele><time>2026-03-29T11:08:50.829Z</time></trkpt><trkpt lat="45.8538391" lon="9.0911116"><ele>247.0</ele><time>2026-03-29T11:08:51.819Z</time></trkpt><trkpt lat="45.8539914" lon="9.091174"><ele>247.0</ele><time>2026-03-29T11:08:52.831Z</time></trkpt><trkpt lat="45.8541042" lon="9.091247"><ele>247.0</ele><time>2026-03-29T11:08:53.83Z</time></trkpt><trkpt lat="45.8542162" lon="9.0913197"><ele>244.75</ele><time>2026-03-29T11:08:54.835Z</time></trkpt><trkpt lat="45.8543302" lon="9.0913922"><ele>242.5</ele><time>2026-03-29T11:08:55.826Z</time></trkpt><trkpt lat="45.8544353" lon="9.0914633"><ele>240.25</ele><time>2026-03-29T11:08:56.835Z</time></trkpt><trkpt lat="45.8545413" lon="9.0915497"><ele>238.0</ele><time>2026-03-29T11:08:57.824Z</time></trkpt><trkpt lat="45.8546376" lon="9.0916501"><ele>238.0</ele><time>2026-03-29T11:08:58.832Z</time></trkpt><trkpt lat="45.8547177" lon="9.0917762"><ele>238.0</ele><time>2026-03-29T11:08:59.829Z</time></trkpt><trkpt lat="45.8547954" lon="9.0919191"><ele>238.0</ele><time>2026-03-29T11:09:00.821Z</time></trkpt><trkpt lat="45.8548554" lon="9.0920706"><ele>238.0</ele><time>2026-03-29T11:09:01.83Z</time></trkpt><trkpt lat="45.854926" lon="9.092199"><ele>238.0</ele><time>2026-03-29T11:09:02.828Z</time></trkpt><trkpt lat="45.8549917" lon="9.0923185"><ele>238.0</ele><time>2026-03-29T11:09:03.836Z</time></trkpt><trkpt lat="45.8550606" lon="9.0924114"><ele>238.0</ele><time>2026-03-29T11:09:04.832Z</time></trkpt><trkpt lat="45.8551452" lon="9.092461"><ele>238.0</ele><time>2026-03-29T11:09:05.826Z</time></trkpt><trkpt lat="45.8552495" lon="9.0924743"><ele>238.0</ele><time>2026-03-29T11:09:06.824Z</time></trkpt><trkpt lat="45.8553637" lon="9.0924572"><ele>235.5</ele><time>2026-03-29T11:09:07.83Z</time></trkpt><trkpt lat="45.8554797" lon="9.0924288"><ele>233.0</ele><time>2026-03-29T11:09:08.823Z</time></trkpt><trkpt lat="45.8555952" lon="9.0924083"><ele>230.5</ele><time>2026-03-29T11:09:09.83Z</time></trkpt><trkpt lat="45.8557091" lon="9.0924236"><ele>228.0</ele><time>2026-03-29T11:09:10.824Z</time></trkpt><trkpt lat="45.8558156" lon="9.0924833"><ele>228.0</ele><time>2026-03-29T11:09:11.822Z</time></trkpt><trkpt lat="45.8559206" lon="9.0925661"><ele>228.0</ele><time>2026-03-29T11:09:12.816Z</time></trkpt><trkpt lat="45.8560141" lon="9.092669"><ele>228.0</ele><time>2026-03-29T11:09:13.821Z</time></trkpt><trkpt lat="45.8560914" lon="9.0927939"><ele>228.0</ele><time>2026-03-29T11:09:14.819Z</time></trkpt><trkpt lat="45.8561496" lon="9.092934"><ele>228.60000000000002</ele><time>2026-03-29T11:09:15.814Z</time></trkpt><trkpt lat="45.8561965" lon="9.0930864"><ele>229.20000000000002</ele><time>2026-03-29T11:09:16.819Z</time></trkpt><trkpt lat="45.8562492" lon="9.0932353"><ele>229.8</ele><time>2026-03-29T11:09:17.819Z</time></trkpt><trkpt lat="45.8562847" lon="9.0933718"><ele>230.4</ele><time>2026-03-29T11:09:18.82Z</time></trkpt><trkpt lat="45.8563054" lon="9.0934925"><ele>231.0</ele><time>2026-03-29T11:09:19.846Z</time></trkpt><trkpt lat="45.8563379" lon="9.0935956"><ele>231.0</ele><time>2026-03-29T11:09:20.841Z</time></trkpt><trkpt lat="45.8563744" lon="9.0937057"><ele>231.00000000000003</ele><time>2026-03-29T11:09:21.828Z</time></trkpt><trkpt lat="45.856419" lon="9.0938289"><ele>231.00000000000003</ele><time>2026-03-29T11:09:22.846Z</time></trkpt><trkpt lat="45.8564803" lon="9.093945"><ele>231.0</ele><time>2026-03-29T11:09:23.821Z</time></trkpt><trkpt lat="45.8565435" lon="9.0940429"><ele>231.0</ele><time>2026-03-29T11:09:24.826Z</time></trkpt><trkpt lat="45.8566134" lon="9.0941204"><ele>229.8</ele><time>2026-03-29T11:09:25.823Z</time></trkpt><trkpt lat="45.8566743" lon="9.0941859"><ele>228.60000000000002</ele><time>2026-03-29T11:09:26.815Z</time></trkpt><trkpt lat="45.8567508" lon="9.0942417"><ele>227.4</ele><time>2026-03-29T11:09:27.818Z</time></trkpt><trkpt lat="45.8568511" lon="9.0942771"><ele>226.2</ele><time>2026-03-29T11:09:28.813Z</time></trkpt><trkpt lat="45.8569577" lon="9.0943129"><ele>225.0</ele><time>2026-03-29T11:09:29.826Z</time></trkpt><trkpt lat="45.8570842" lon="9.0943585"><ele>225.0</ele><time>2026-03-29T11:09:30.81Z</time></trkpt><trkpt lat="45.8572236" lon="9.0944035"><ele>225.0</ele><time>2026-03-29T11:09:31.82Z</time></trkpt><trkpt lat="45.8573453" lon="9.0944468"><ele>225.0</ele><time>2026-03-29T11:09:32.82Z</time></trkpt><trkpt lat="45.8574659" lon="9.0944857"><ele>225.0</ele><time>2026-03-29T11:09:33.817Z</time></trkpt><trkpt lat="45.8575811" lon="9.0945323"><ele>227.75</ele><time>2026-03-29T11:09:34.82Z</time></trkpt><trkpt lat="45.8576964" lon="9.0946091"><ele>230.5</ele><time>2026-03-29T11:09:35.825Z</time></trkpt><trkpt lat="45.8577983" lon="9.0947228"><ele>233.25</ele><time>2026-03-29T11:09:36.815Z</time></trkpt><trkpt lat="45.8579032" lon="9.0948527"><ele>236.0</ele><time>2026-03-29T11:09:37.822Z</time></trkpt><trkpt lat="45.8579969" lon="9.094986"><ele>236.0</ele><time>2026-03-29T11:09:38.821Z</time></trkpt><trkpt lat="45.8580781" lon="9.0951212"><ele>236.0</ele><time>2026-03-29T11:09:39.815Z</time></trkpt><trkpt lat="45.8581526" lon="9.0952619"><ele>236.0</ele><time>2026-03-29T11:09:40.814Z</time></trkpt><trkpt lat="45.8582246" lon="9.0953979"><ele>236.0</ele><time>2026-03-29T11:09:41.819Z</time></trkpt><trkpt lat="45.8582868" lon="9.0955415"><ele>236.0</ele><time>2026-03-29T11:09:42.823Z</time></trkpt><trkpt lat="45.8583541" lon="9.0956754"><ele>236.0</ele><time>2026-03-29T11:09:43.823Z</time></trkpt><trkpt lat="45.8584146" lon="9.0958214"><ele>236.0</ele><time>2026-03-29T11:09:44.823Z</time></trkpt><trkpt lat="45.8584681" lon="9.095968"><ele>236.0</ele><time>2026-03-29T11:09:45.829Z</time></trkpt><trkpt lat="45.8585337" lon="9.0960891"><ele>238.20000000000002</ele><time>2026-03-29T11:09:46.823Z</time></trkpt><trkpt lat="45.8586071" lon="9.096199"><ele>240.40000000000003</ele><time>2026-03-29T11:09:47.833Z</time></trkpt><trkpt lat="45.8586887" lon="9.096302"><ele>242.6</ele><time>2026-03-29T11:09:48.83Z</time></trkpt><trkpt lat="45.8587829" lon="9.0963991"><ele>244.8</ele><time>2026-03-29T11:09:49.831Z</time></trkpt><trkpt lat="45.8588787" lon="9.0964992"><ele>247.0</ele><time>2026-03-29T11:09:50.831Z</time></trkpt><trkpt lat="45.858963" lon="9.0966044"><ele>241.39999999999998</ele><time>2026-03-29T11:09:51.823Z</time></trkpt><trkpt lat="45.8590397" lon="9.0967055"><ele>235.79999999999998</ele><time>2026-03-29T11:09:52.83Z</time></trkpt><trkpt lat="45.8591047" lon="9.0968061"><ele>230.2</ele><time>2026-03-29T11:09:53.826Z</time></trkpt><trkpt lat="45.8591637" lon="9.0969062"><ele>224.6</ele><time>2026-03-29T11:09:54.825Z</time></trkpt><trkpt lat="45.8592176" lon="9.0970082"><ele>219.0</ele><time>2026-03-29T11:09:55.829Z</time></trkpt><trkpt lat="45.8592686" lon="9.0970946"><ele>222.16666666666666</ele><time>2026-03-29T11:09:56.826Z</time></trkpt><trkpt lat="45.85932" lon="9.0971677"><ele>225.33333333333331</ele><time>2026-03-29T11:09:57.826Z</time></trkpt><trkpt lat="45.8593523" lon="9.0972593"><ele>228.5</ele><time>2026-03-29T11:09:58.82Z</time></trkpt><trkpt lat="45.8593819" lon="9.0974247"><ele>231.66666666666666</ele><time>2026-03-29T11:10:00.822Z</time></trkpt><trkpt lat="45.8593772" lon="9.0975201"><ele>234.83333333333331</ele><time>2026-03-29T11:10:01.844Z</time></trkpt><trkpt lat="45.8593675" lon="9.0976243"><ele>238.0</ele><time>2026-03-29T11:10:02.837Z</time></trkpt><trkpt lat="45.859359" lon="9.0977196"><ele>238.0</ele><time>2026-03-29T11:10:03.835Z</time></trkpt><trkpt lat="45.8593478" lon="9.0978099"><ele>238.0</ele><time>2026-03-29T11:10:04.842Z</time></trkpt><trkpt lat="45.8593333" lon="9.0979553"><ele>238.0</ele><time>2026-03-29T11:10:06.837Z</time></trkpt><trkpt lat="45.8593225" lon="9.0981124"><ele>238.0</ele><time>2026-03-29T11:10:08.831Z</time></trkpt><trkpt lat="45.8593164" lon="9.0982951"><ele>238.0</ele><time>2026-03-29T11:10:10.835Z</time></trkpt><trkpt lat="45.8593271" lon="9.0984099"><ele>236.25</ele><time>2026-03-29T11:10:11.838Z</time></trkpt><trkpt lat="45.8593445" lon="9.0985434"><ele>234.5</ele><time>2026-03-29T11:10:12.834Z</time></trkpt><trkpt lat="45.8593668" lon="9.0986974"><ele>232.75</ele><time>2026-03-29T11:10:13.825Z</time></trkpt><trkpt lat="45.8594004" lon="9.0988743"><ele>231.0</ele><time>2026-03-29T11:10:14.837Z</time></trkpt><trkpt lat="45.859428" lon="9.0990642"><ele>229.0</ele><time>2026-03-29T11:10:15.83Z</time></trkpt><trkpt lat="45.8594485" lon="9.0992731"><ele>227.0</ele><time>2026-03-29T11:10:16.83Z</time></trkpt><trkpt lat="45.8594679" lon="9.0995287"><ele>225.0</ele><time>2026-03-29T11:10:17.837Z</time></trkpt><trkpt lat="45.8594923" lon="9.0997718"><ele>223.0</ele><time>2026-03-29T11:10:18.831Z</time></trkpt><trkpt lat="45.8595301" lon="9.099987"><ele>221.0</ele><time>2026-03-29T11:10:19.834Z</time></trkpt><trkpt lat="45.8595594" lon="9.1001806"><ele>219.0</ele><time>2026-03-29T11:10:20.829Z</time></trkpt><trkpt lat="45.8595772" lon="9.1003583"><ele>217.0</ele><time>2026-03-29T11:10:21.833Z</time></trkpt><trkpt lat="45.8596106" lon="9.100514"><ele>216.99999999999997</ele><time>2026-03-29T11:10:22.831Z</time></trkpt><trkpt lat="45.8596276" lon="9.1006512"><ele>217.0</ele><time>2026-03-29T11:10:23.833Z</time></trkpt><trkpt lat="45.8596665" lon="9.1007545"><ele>217.0</ele><time>2026-03-29T11:10:24.831Z</time></trkpt><trkpt lat="45.8596948" lon="9.1008497"><ele>217.0</ele><time>2026-03-29T11:10:25.826Z</time></trkpt><trkpt lat="45.8597367" lon="9.1009531"><ele>216.99999999999997</ele><time>2026-03-29T11:10:26.845Z</time></trkpt><trkpt lat="45.8597961" lon="9.1010281"><ele>217.0</ele><time>2026-03-29T11:10:27.836Z</time></trkpt><trkpt lat="45.8598369" lon="9.1011204"><ele>216.66666666666666</ele><time>2026-03-29T11:10:28.843Z</time></trkpt><trkpt lat="45.859875" lon="9.1012032"><ele>216.33333333333331</ele><time>2026-03-29T11:10:29.84Z</time></trkpt><trkpt lat="45.8599658" lon="9.1013487"><ele>216.0</ele><time>2026-03-29T11:10:31.839Z</time></trkpt><trkpt lat="45.8600161" lon="9.1014461"><ele>215.66666666666669</ele><time>2026-03-29T11:10:32.838Z</time></trkpt><trkpt lat="45.8600614" lon="9.1015347"><ele>215.33333333333334</ele><time>2026-03-29T11:10:33.831Z</time></trkpt><trkpt lat="45.8601055" lon="9.101615"><ele>215.0</ele><time>2026-03-29T11:10:34.834Z</time></trkpt><trkpt lat="45.8601594" lon="9.1017031"><ele>215.00000000000003</ele><time>2026-03-29T11:10:35.835Z</time></trkpt><trkpt lat="45.8602088" lon="9.101803"><ele>215.0</ele><time>2026-03-29T11:10:36.835Z</time></trkpt><trkpt lat="45.8602551" lon="9.1019"><ele>215.0</ele><time>2026-03-29T11:10:37.833Z</time></trkpt><trkpt lat="45.8602973" lon="9.1019828"><ele>215.0</ele><time>2026-03-29T11:10:38.835Z</time></trkpt><trkpt lat="45.8603421" lon="9.1020492"><ele>215.00000000000003</ele><time>2026-03-29T11:10:39.834Z</time></trkpt><trkpt lat="45.8604417" lon="9.1021453"><ele>215.0</ele><time>2026-03-29T11:10:41.833Z</time></trkpt><trkpt lat="45.8605097" lon="9.102202"><ele>215.0</ele><time>2026-03-29T11:10:42.83Z</time></trkpt><trkpt lat="45.8605975" lon="9.1022494"><ele>215.0</ele><time>2026-03-29T11:10:43.831Z</time></trkpt><trkpt lat="45.8606981" lon="9.1022974"><ele>215.0</ele><time>2026-03-29T11:10:44.818Z</time></trkpt><trkpt lat="45.8608083" lon="9.1023533"><ele>215.0</ele><time>2026-03-29T11:10:45.833Z</time></trkpt><trkpt lat="45.860925" lon="9.1024206"><ele>215.0</ele><time>2026-03-29T11:10:46.82Z</time></trkpt><trkpt lat="45.8610525" lon="9.1025085"><ele>216.33333333333334</ele><time>2026-03-29T11:10:47.835Z</time></trkpt><trkpt lat="45.861224" lon="9.1025703"><ele>217.66666666666669</ele><time>2026-03-29T11:10:48.822Z</time></trkpt><trkpt lat="45.8613883" lon="9.1026605"><ele>219.0</ele><time>2026-03-29T11:10:49.827Z</time></trkpt><trkpt lat="45.8615428" lon="9.1027425"><ele>219.0</ele><time>2026-03-29T11:10:50.826Z</time></trkpt><trkpt lat="45.8616658" lon="9.1028288"><ele>219.0</ele><time>2026-03-29T11:10:51.832Z</time></trkpt><trkpt lat="45.8617651" lon="9.1029486"><ele>219.0</ele><time>2026-03-29T11:10:52.834Z</time></trkpt><trkpt lat="45.8618488" lon="9.103071"><ele>219.0</ele><time>2026-03-29T11:10:53.836Z</time></trkpt><trkpt lat="45.8618889" lon="9.1031719"><ele>224.2</ele><time>2026-03-29T11:10:54.831Z</time></trkpt><trkpt lat="45.8618966" lon="9.1033096"><ele>229.39999999999998</ele><time>2026-03-29T11:10:56.832Z</time></trkpt><trkpt lat="45.8619209" lon="9.1034236"><ele>234.6</ele><time>2026-03-29T11:10:57.837Z</time></trkpt><trkpt lat="45.8619384" lon="9.1035735"><ele>239.8</ele><time>2026-03-29T11:10:58.832Z</time></trkpt><trkpt lat="45.8619923" lon="9.1037014"><ele>245.0</ele><time>2026-03-29T11:10:59.837Z</time></trkpt><trkpt lat="45.8620547" lon="9.1038282"><ele>245.0</ele><time>2026-03-29T11:11:00.835Z</time></trkpt><trkpt lat="45.8621221" lon="9.1039802"><ele>245.0</ele><time>2026-03-29T11:11:01.838Z</time></trkpt><trkpt lat="45.8621839" lon="9.1041458"><ele>245.0</ele><time>2026-03-29T11:11:02.824Z</time></trkpt><trkpt lat="45.8622387" lon="9.1043213"><ele>245.0</ele><time>2026-03-29T11:11:03.823Z</time></trkpt><trkpt lat="45.8622856" lon="9.1045023"><ele>241.75</ele><time>2026-03-29T11:11:04.824Z</time></trkpt><trkpt lat="45.8623185" lon="9.1046971"><ele>238.5</ele><time>2026-03-29T11:11:05.836Z</time></trkpt><trkpt lat="45.8623442" lon="9.1048939"><ele>235.25</ele><time>2026-03-29T11:11:06.83Z</time></trkpt><trkpt lat="45.8623424" lon="9.1051256"><ele>232.0</ele><time>2026-03-29T11:11:07.832Z</time></trkpt><trkpt lat="45.8623571" lon="9.1053181"><ele>231.0</ele><time>2026-03-29T11:11:08.831Z</time></trkpt><trkpt lat="45.8623767" lon="9.1054651"><ele>230.0</ele><time>2026-03-29T11:11:09.833Z</time></trkpt><trkpt lat="45.8624211" lon="9.1056032"><ele>229.0</ele><time>2026-03-29T11:11:10.826Z</time></trkpt><trkpt lat="45.862488" lon="9.1057092"><ele>228.0</ele><time>2026-03-29T11:11:11.833Z</time></trkpt><trkpt lat="45.8625579" lon="9.1058097"><ele>227.0</ele><time>2026-03-29T11:11:12.832Z</time></trkpt><trkpt lat="45.8626529" lon="9.1058763"><ele>229.0</ele><time>2026-03-29T11:11:13.832Z</time></trkpt><trkpt lat="45.8627562" lon="9.1059266"><ele>231.0</ele><time>2026-03-29T11:11:14.838Z</time></trkpt><trkpt lat="45.8628558" lon="9.1059493"><ele>233.0</ele><time>2026-03-29T11:11:15.828Z</time></trkpt><trkpt lat="45.8629565" lon="9.1059694"><ele>235.0</ele><time>2026-03-29T11:11:16.826Z</time></trkpt><trkpt lat="45.8630492" lon="9.1060012"><ele>237.0</ele><time>2026-03-29T11:11:17.821Z</time></trkpt><trkpt lat="45.8631359" lon="9.1060359"><ele>237.0</ele><time>2026-03-29T11:11:18.818Z</time></trkpt><trkpt lat="45.8632249" lon="9.1060672"><ele>237.0</ele><time>2026-03-29T11:11:19.816Z</time></trkpt><trkpt lat="45.8633138" lon="9.1061031"><ele>237.0</ele><time>2026-03-29T11:11:20.82Z</time></trkpt><trkpt lat="45.8634054" lon="9.1061249"><ele>237.0</ele><time>2026-03-29T11:11:21.814Z</time></trkpt><trkpt lat="45.8634958" lon="9.1061431"><ele>237.0</ele><time>2026-03-29T11:11:22.82Z</time></trkpt><trkpt lat="45.8635823" lon="9.1061661"><ele>243.0</ele><time>2026-03-29T11:11:23.825Z</time></trkpt><trkpt lat="45.8636606" lon="9.106207"><ele>249.0</ele><time>2026-03-29T11:11:24.822Z</time></trkpt><trkpt lat="45.8637366" lon="9.1062513"><ele>255.0</ele><time>2026-03-29T11:11:25.822Z</time></trkpt><trkpt lat="45.8638092" lon="9.1062866"><ele>261.0</ele><time>2026-03-29T11:11:26.817Z</time></trkpt><trkpt lat="45.8638837" lon="9.1063233"><ele>267.0</ele><time>2026-03-29T11:11:27.819Z</time></trkpt><trkpt lat="45.8639584" lon="9.1063816"><ele>273.0</ele><time>2026-03-29T11:11:28.829Z</time></trkpt><trkpt lat="45.864036" lon="9.1064684"><ele>274.25</ele><time>2026-03-29T11:11:29.823Z</time></trkpt><trkpt lat="45.8641148" lon="9.1065831"><ele>275.5</ele><time>2026-03-29T11:11:30.827Z</time></trkpt><trkpt lat="45.8642075" lon="9.1067094"><ele>276.75</ele><time>2026-03-29T11:11:31.828Z</time></trkpt><trkpt lat="45.8643078" lon="9.1068603"><ele>278.0</ele><time>2026-03-29T11:11:32.823Z</time></trkpt><trkpt lat="45.8644154" lon="9.1070883"><ele>278.0</ele><time>2026-03-29T11:11:33.822Z</time></trkpt><trkpt lat="45.8645183" lon="9.1072527"><ele>278.0</ele><time>2026-03-29T11:11:34.821Z</time></trkpt><trkpt lat="45.8646035" lon="9.1073914"><ele>278.0</ele><time>2026-03-29T11:11:35.817Z</time></trkpt><trkpt lat="45.8647053" lon="9.1075077"><ele>278.0</ele><time>2026-03-29T11:11:36.822Z</time></trkpt><trkpt lat="45.8647994" lon="9.1076384"><ele>268.25</ele><time>2026-03-29T11:11:37.819Z</time></trkpt><trkpt lat="45.8648781" lon="9.1077925"><ele>258.5</ele><time>2026-03-29T11:11:38.821Z</time></trkpt><trkpt lat="45.8649383" lon="9.1079343"><ele>248.75</ele><time>2026-03-29T11:11:39.82Z</time></trkpt><trkpt lat="45.8650054" lon="9.1080784"><ele>239.0</ele><time>2026-03-29T11:11:40.812Z</time></trkpt><trkpt lat="45.8650698" lon="9.1082095"><ele>243.2</ele><time>2026-03-29T11:11:41.815Z</time></trkpt><trkpt lat="45.8651224" lon="9.1083233"><ele>247.39999999999998</ele><time>2026-03-29T11:11:42.823Z</time></trkpt><trkpt lat="45.8651829" lon="9.1084392"><ele>251.6</ele><time>2026-03-29T11:11:43.824Z</time></trkpt><trkpt lat="45.8652464" lon="9.1085637"><ele>255.8</ele><time>2026-03-29T11:11:44.831Z</time></trkpt><trkpt lat="45.8652999" lon="9.1087072"><ele>260.0</ele><time>2026-03-29T11:11:45.83Z</time></trkpt><trkpt lat="45.8653502" lon="9.1088549"><ele>260.0</ele><time>2026-03-29T11:11:46.825Z</time></trkpt><trkpt lat="45.8654022" lon="9.1090034"><ele>260.0</ele><time>2026-03-29T11:11:47.825Z</time></trkpt><trkpt lat="45.8654508" lon="9.1091467"><ele>260.0</ele><time>2026-03-29T11:11:48.821Z</time></trkpt><trkpt lat="45.8654976" lon="9.10928"><ele>260.0</ele><time>2026-03-29T11:11:49.831Z</time></trkpt><trkpt lat="45.8655552" lon="9.1094065"><ele>260.0</ele><time>2026-03-29T11:11:50.815Z</time></trkpt><trkpt lat="45.8656115" lon="9.1095257"><ele>255.0</ele><time>2026-03-29T11:11:51.816Z</time></trkpt><trkpt lat="45.865662" lon="9.1096429"><ele>250.0</ele><time>2026-03-29T11:11:52.815Z</time></trkpt><trkpt lat="45.865716" lon="9.1097524"><ele>245.0</ele><time>2026-03-29T11:11:53.828Z</time></trkpt><trkpt lat="45.8657619" lon="9.109877"><ele>240.0</ele><time>2026-03-29T11:11:54.826Z</time></trkpt><trkpt lat="45.86581" lon="9.110001"><ele>235.0</ele><time>2026-03-29T11:11:55.831Z</time></trkpt><trkpt lat="45.8658608" lon="9.1101191"><ele>232.4</ele><time>2026-03-29T11:11:56.837Z</time></trkpt><trkpt lat="45.8659201" lon="9.1102295"><ele>229.8</ele><time>2026-03-29T11:11:57.835Z</time></trkpt><trkpt lat="45.8659804" lon="9.1103463"><ele>227.2</ele><time>2026-03-29T11:11:58.836Z</time></trkpt><trkpt lat="45.8660463" lon="9.1104592"><ele>224.6</ele><time>2026-03-29T11:11:59.839Z</time></trkpt><trkpt lat="45.866106" lon="9.1105806"><ele>222.0</ele><time>2026-03-29T11:12:00.833Z</time></trkpt><trkpt lat="45.8661473" lon="9.110717"><ele>226.0</ele><time>2026-03-29T11:12:01.838Z</time></trkpt><trkpt lat="45.8661797" lon="9.110871"><ele>230.0</ele><time>2026-03-29T11:12:02.836Z</time></trkpt><trkpt lat="45.8662082" lon="9.1110264"><ele>234.0</ele><time>2026-03-29T11:12:03.842Z</time></trkpt><trkpt lat="45.8662521" lon="9.1111771"><ele>238.0</ele><time>2026-03-29T11:12:04.839Z</time></trkpt><trkpt lat="45.8663002" lon="9.1113165"><ele>242.0</ele><time>2026-03-29T11:12:05.84Z</time></trkpt><trkpt lat="45.8663624" lon="9.1114439"><ele>242.0</ele><time>2026-03-29T11:12:06.834Z</time></trkpt><trkpt lat="45.8664335" lon="9.1115664"><ele>242.0</ele><time>2026-03-29T11:12:07.841Z</time></trkpt><trkpt lat="45.8665225" lon="9.1116719"><ele>242.0</ele><time>2026-03-29T11:12:08.841Z</time></trkpt><trkpt lat="45.8666179" lon="9.1117727"><ele>242.0</ele><time>2026-03-29T11:12:09.832Z</time></trkpt><trkpt lat="45.8667062" lon="9.1118761"><ele>242.0</ele><time>2026-03-29T11:12:10.833Z</time></trkpt><trkpt lat="45.8667936" lon="9.1119773"><ele>242.0</ele><time>2026-03-29T11:12:11.834Z</time></trkpt><trkpt lat="45.8668788" lon="9.1120804"><ele>242.0</ele><time>2026-03-29T11:12:12.833Z</time></trkpt><trkpt lat="45.8669641" lon="9.1121842"><ele>242.0</ele><time>2026-03-29T11:12:13.835Z</time></trkpt><trkpt lat="45.8670441" lon="9.1122943"><ele>242.0</ele><time>2026-03-29T11:12:14.829Z</time></trkpt><trkpt lat="45.867119" lon="9.1124192"><ele>242.0</ele><time>2026-03-29T11:12:15.831Z</time></trkpt><trkpt lat="45.8671861" lon="9.1125597"><ele>242.0</ele><time>2026-03-29T11:12:16.835Z</time></trkpt><trkpt lat="45.8672519" lon="9.1127036"><ele>242.0</ele><time>2026-03-29T11:12:17.831Z</time></trkpt><trkpt lat="45.8673202" lon="9.1128413"><ele>242.0</ele><time>2026-03-29T11:12:18.831Z</time></trkpt><trkpt lat="45.8673832" lon="9.1129673"><ele>242.0</ele><time>2026-03-29T11:12:19.832Z</time></trkpt><trkpt lat="45.8674219" lon="9.1130905"><ele>242.0</ele><time>2026-03-29T11:12:20.83Z</time></trkpt><trkpt lat="45.867452" lon="9.1132365"><ele>242.0</ele><time>2026-03-29T11:12:21.826Z</time></trkpt><trkpt lat="45.8674748" lon="9.1133995"><ele>242.0</ele><time>2026-03-29T11:12:22.828Z</time></trkpt><trkpt lat="45.8674944" lon="9.1135625"><ele>242.0</ele><time>2026-03-29T11:12:23.829Z</time></trkpt><trkpt lat="45.8675206" lon="9.1137178"><ele>244.5</ele><time>2026-03-29T11:12:24.825Z</time></trkpt><trkpt lat="45.8675446" lon="9.1138833"><ele>247.0</ele><time>2026-03-29T11:12:25.826Z</time></trkpt><trkpt lat="45.8675776" lon="9.1140377"><ele>249.5</ele><time>2026-03-29T11:12:26.83Z</time></trkpt><trkpt lat="45.8676182" lon="9.1141923"><ele>252.0</ele><time>2026-03-29T11:12:27.827Z</time></trkpt><trkpt lat="45.8676603" lon="9.1143473"><ele>252.0</ele><time>2026-03-29T11:12:28.833Z</time></trkpt><trkpt lat="45.8677029" lon="9.1145061"><ele>252.0</ele><time>2026-03-29T11:12:29.83Z</time></trkpt><trkpt lat="45.8677434" lon="9.1146595"><ele>252.0</ele><time>2026-03-29T11:12:30.831Z</time></trkpt><trkpt lat="45.867782" lon="9.1148102"><ele>252.0</ele><time>2026-03-29T11:12:31.837Z</time></trkpt><trkpt lat="45.8678231" lon="9.1149451"><ele>252.0</ele><time>2026-03-29T11:12:32.836Z</time></trkpt><trkpt lat="45.8678549" lon="9.1150705"><ele>248.5</ele><time>2026-03-29T11:12:33.838Z</time></trkpt><trkpt lat="45.8678836" lon="9.1151807"><ele>245.0</ele><time>2026-03-29T11:12:34.841Z</time></trkpt><trkpt lat="45.8679247" lon="9.1152847"><ele>241.5</ele><time>2026-03-29T11:12:35.834Z</time></trkpt><trkpt lat="45.867982" lon="9.1153832"><ele>238.0</ele><time>2026-03-29T11:12:36.834Z</time></trkpt><trkpt lat="45.8680613" lon="9.1154556"><ele>234.5</ele><time>2026-03-29T11:12:37.841Z</time></trkpt><trkpt lat="45.8681345" lon="9.1155272"><ele>231.0</ele><time>2026-03-29T11:12:38.83Z</time></trkpt><trkpt lat="45.8681916" lon="9.115606"><ele>231.0</ele><time>2026-03-29T11:12:39.833Z</time></trkpt><trkpt lat="45.8682388" lon="9.115706"><ele>231.00000000000003</ele><time>2026-03-29T11:12:40.832Z</time></trkpt><trkpt lat="45.8682675" lon="9.1158276"><ele>231.00000000000003</ele><time>2026-03-29T11:12:41.833Z</time></trkpt><trkpt lat="45.868273" lon="9.1159657"><ele>231.0</ele><time>2026-03-29T11:12:42.831Z</time></trkpt><trkpt lat="45.8682788" lon="9.1161222"><ele>231.0</ele><time>2026-03-29T11:12:43.833Z</time></trkpt><trkpt lat="45.8682949" lon="9.1162795"><ele>230.0</ele><time>2026-03-29T11:12:44.827Z</time></trkpt><trkpt lat="45.8683285" lon="9.1164341"><ele>229.00000000000003</ele><time>2026-03-29T11:12:45.827Z</time></trkpt><trkpt lat="45.8683769" lon="9.1165837"><ele>228.00000000000003</ele><time>2026-03-29T11:12:46.831Z</time></trkpt><trkpt lat="45.8684348" lon="9.1167077"><ele>227.0</ele><time>2026-03-29T11:12:47.835Z</time></trkpt><trkpt lat="45.8684947" lon="9.1167977"><ele>226.0</ele><time>2026-03-29T11:12:48.828Z</time></trkpt><trkpt lat="45.8685474" lon="9.1168675"><ele>225.99999999999997</ele><time>2026-03-29T11:12:49.838Z</time></trkpt><trkpt lat="45.8686044" lon="9.1169465"><ele>226.0</ele><time>2026-03-29T11:12:51.844Z</time></trkpt><trkpt lat="45.8686744" lon="9.1169962"><ele>226.0</ele><time>2026-03-29T11:13:12.854Z</time></trkpt><trkpt lat="45.8687482" lon="9.1170675"><ele>226.0</ele><time>2026-03-29T11:13:14.842Z</time></trkpt><trkpt lat="45.8687991" lon="9.1171503"><ele>225.99999999999997</ele><time>2026-03-29T11:13:15.853Z</time></trkpt><trkpt lat="45.8688549" lon="9.1172721"><ele>226.0</ele><time>2026-03-29T11:13:16.835Z</time></trkpt><trkpt lat="45.8689075" lon="9.1174031"><ele>224.33333333333331</ele><time>2026-03-29T11:13:17.84Z</time></trkpt><trkpt lat="45.8689628" lon="9.1175334"><ele>222.66666666666666</ele><time>2026-03-29T11:13:18.843Z</time></trkpt><trkpt lat="45.8690152" lon="9.1176545"><ele>221.0</ele><time>2026-03-29T11:13:19.843Z</time></trkpt><trkpt lat="45.8690582" lon="9.1177612"><ele>219.33333333333331</ele><time>2026-03-29T11:13:20.836Z</time></trkpt><trkpt lat="45.8690978" lon="9.1178532"><ele>217.66666666666666</ele><time>2026-03-29T11:13:21.828Z</time></trkpt><trkpt lat="45.8691377" lon="9.1179312"><ele>216.0</ele><time>2026-03-29T11:13:22.832Z</time></trkpt><trkpt lat="45.8691756" lon="9.118022"><ele>216.0</ele><time>2026-03-29T11:13:23.824Z</time></trkpt><trkpt lat="45.8692085" lon="9.1181249"><ele>216.0</ele><time>2026-03-29T11:13:24.829Z</time></trkpt><trkpt lat="45.8692482" lon="9.1182223"><ele>216.0</ele><time>2026-03-29T11:13:25.822Z</time></trkpt><trkpt lat="45.8692883" lon="9.1183174"><ele>216.0</ele><time>2026-03-29T11:13:26.824Z</time></trkpt><trkpt lat="45.8693264" lon="9.1184268"><ele>216.0</ele><time>2026-03-29T11:13:27.828Z</time></trkpt><trkpt lat="45.8693713" lon="9.1185254"><ele>216.0</ele><time>2026-03-29T11:13:28.83Z</time></trkpt><trkpt lat="45.8694044" lon="9.1186247"><ele>218.66666666666666</ele><time>2026-03-29T11:13:29.823Z</time></trkpt><trkpt lat="45.8694254" lon="9.1187202"><ele>221.33333333333331</ele><time>2026-03-29T11:13:30.823Z</time></trkpt><trkpt lat="45.8694356" lon="9.1188336"><ele>224.0</ele><time>2026-03-29T11:13:31.829Z</time></trkpt><trkpt lat="45.869451" lon="9.118929"><ele>226.66666666666666</ele><time>2026-03-29T11:13:32.822Z</time></trkpt><trkpt lat="45.8694789" lon="9.1190225"><ele>229.33333333333331</ele><time>2026-03-29T11:13:33.823Z</time></trkpt><trkpt lat="45.8695181" lon="9.1191194"><ele>232.0</ele><time>2026-03-29T11:13:34.821Z</time></trkpt><trkpt lat="45.8695639" lon="9.1192247"><ele>231.99999999999997</ele><time>2026-03-29T11:13:35.82Z</time></trkpt><trkpt lat="45.8696048" lon="9.1193301"><ele>232.0</ele><time>2026-03-29T11:13:36.816Z</time></trkpt><trkpt lat="45.869648" lon="9.1194355"><ele>232.0</ele><time>2026-03-29T11:13:37.825Z</time></trkpt><trkpt lat="45.8696889" lon="9.1195406"><ele>232.0</ele><time>2026-03-29T11:13:38.817Z</time></trkpt><trkpt lat="45.8697229" lon="9.1196463"><ele>231.99999999999997</ele><time>2026-03-29T11:13:39.825Z</time></trkpt><trkpt lat="45.869765" lon="9.1197403"><ele>232.0</ele><time>2026-03-29T11:13:40.845Z</time></trkpt><trkpt lat="45.8698215" lon="9.1198253"><ele>229.16666666666666</ele><time>2026-03-29T11:13:41.817Z</time></trkpt><trkpt lat="45.869884" lon="9.1199043"><ele>226.33333333333331</ele><time>2026-03-29T11:13:42.824Z</time></trkpt><trkpt lat="45.8699519" lon="9.1199799"><ele>223.5</ele><time>2026-03-29T11:13:43.815Z</time></trkpt><trkpt lat="45.8700254" lon="9.120057"><ele>220.66666666666669</ele><time>2026-03-29T11:13:44.817Z</time></trkpt><trkpt lat="45.8700883" lon="9.1201504"><ele>217.83333333333334</ele><time>2026-03-29T11:13:45.819Z</time></trkpt><trkpt lat="45.8701422" lon="9.1202632"><ele>215.0</ele><time>2026-03-29T11:13:46.823Z</time></trkpt><trkpt lat="45.8701872" lon="9.1203895"><ele>219.6</ele><time>2026-03-29T11:13:47.827Z</time></trkpt><trkpt lat="45.8702222" lon="9.1205257"><ele>224.2</ele><time>2026-03-29T11:13:48.821Z</time></trkpt><trkpt lat="45.8702697" lon="9.1206486"><ele>228.8</ele><time>2026-03-29T11:13:49.823Z</time></trkpt><trkpt lat="45.8702982" lon="9.1207963"><ele>233.4</ele><time>2026-03-29T11:13:50.824Z</time></trkpt><trkpt lat="45.8703311" lon="9.1209373"><ele>238.0</ele><time>2026-03-29T11:13:51.821Z</time></trkpt><trkpt lat="45.8703568" lon="9.1210706"><ele>238.0</ele><time>2026-03-29T11:13:52.823Z</time></trkpt><trkpt lat="45.8703803" lon="9.1212027"><ele>238.0</ele><time>2026-03-29T11:13:53.821Z</time></trkpt><trkpt lat="45.8704013" lon="9.1213386"><ele>238.0</ele><time>2026-03-29T11:13:54.833Z</time></trkpt><trkpt lat="45.8704172" lon="9.1214754"><ele>238.0</ele><time>2026-03-29T11:13:55.83Z</time></trkpt><trkpt lat="45.8704425" lon="9.1216113"><ele>238.0</ele><time>2026-03-29T11:13:56.829Z</time></trkpt><trkpt lat="45.8704765" lon="9.1217491"><ele>235.4</ele><time>2026-03-29T11:13:57.83Z</time></trkpt><trkpt lat="45.8705131" lon="9.1218782"><ele>232.8</ele><time>2026-03-29T11:13:58.835Z</time></trkpt><trkpt lat="45.8705445" lon="9.1220142"><ele>230.2</ele><time>2026-03-29T11:13:59.821Z</time></trkpt><trkpt lat="45.870578" lon="9.1221559"><ele>227.6</ele><time>2026-03-29T11:14:00.812Z</time></trkpt><trkpt lat="45.8706161" lon="9.1222999"><ele>225.0</ele><time>2026-03-29T11:14:01.814Z</time></trkpt><trkpt lat="45.8706539" lon="9.1224287"><ele>223.0</ele><time>2026-03-29T11:14:02.82Z</time></trkpt><trkpt lat="45.8707052" lon="9.1225682"><ele>221.0</ele><time>2026-03-29T11:14:03.817Z</time></trkpt><trkpt lat="45.8707669" lon="9.1227084"><ele>219.0</ele><time>2026-03-29T11:14:04.819Z</time></trkpt><trkpt lat="45.8708345" lon="9.1228427"><ele>217.0</ele><time>2026-03-29T11:14:05.824Z</time></trkpt><trkpt lat="45.8709064" lon="9.122964"><ele>220.2</ele><time>2026-03-29T11:14:06.824Z</time></trkpt><trkpt lat="45.8709685" lon="9.1230876"><ele>223.39999999999998</ele><time>2026-03-29T11:14:07.817Z</time></trkpt><trkpt lat="45.8710278" lon="9.1232104"><ele>226.60000000000002</ele><time>2026-03-29T11:14:08.815Z</time></trkpt><trkpt lat="45.8710976" lon="9.1233231"><ele>229.8</ele><time>2026-03-29T11:14:09.813Z</time></trkpt><trkpt lat="45.8711568" lon="9.1234351"><ele>233.0</ele><time>2026-03-29T11:14:10.817Z</time></trkpt><trkpt lat="45.8711911" lon="9.1235645"><ele>233.00000000000003</ele><time>2026-03-29T11:14:11.822Z</time></trkpt><trkpt lat="45.8712182" lon="9.1237"><ele>233.0</ele><time>2026-03-29T11:14:12.818Z</time></trkpt><trkpt lat="45.8712484" lon="9.12383"><ele>233.0</ele><time>2026-03-29T11:14:13.821Z</time></trkpt><trkpt lat="45.8712847" lon="9.1239424"><ele>233.0</ele><time>2026-03-29T11:14:14.836Z</time></trkpt><trkpt lat="45.8713211" lon="9.1240276"><ele>233.00000000000003</ele><time>2026-03-29T11:14:15.819Z</time></trkpt><trkpt lat="45.871364" lon="9.1241036"><ele>233.0</ele><time>2026-03-29T11:14:16.825Z</time></trkpt><trkpt lat="45.8714123" lon="9.1241791"><ele>230.0</ele><time>2026-03-29T11:14:17.832Z</time></trkpt><trkpt lat="45.8714667" lon="9.12426"><ele>227.0</ele><time>2026-03-29T11:14:18.829Z</time></trkpt><trkpt lat="45.8715335" lon="9.1243516"><ele>224.0</ele><time>2026-03-29T11:14:19.832Z</time></trkpt><trkpt lat="45.8716054" lon="9.1244558"><ele>221.0</ele><time>2026-03-29T11:14:20.828Z</time></trkpt><trkpt lat="45.871683" lon="9.1245776"><ele>218.0</ele><time>2026-03-29T11:14:21.829Z</time></trkpt><trkpt lat="45.8717588" lon="9.1247154"><ele>220.25</ele><time>2026-03-29T11:14:22.838Z</time></trkpt><trkpt lat="45.8718245" lon="9.1248638"><ele>222.5</ele><time>2026-03-29T11:14:23.836Z</time></trkpt><trkpt lat="45.8718939" lon="9.1249991"><ele>224.75</ele><time>2026-03-29T11:14:24.826Z</time></trkpt><trkpt lat="45.8719673" lon="9.1251341"><ele>227.0</ele><time>2026-03-29T11:14:25.833Z</time></trkpt><trkpt lat="45.8720401" lon="9.1252498"><ele>227.00000000000003</ele><time>2026-03-29T11:14:26.834Z</time></trkpt><trkpt lat="45.8721044" lon="9.1253521"><ele>227.0</ele><time>2026-03-29T11:14:27.822Z</time></trkpt><trkpt lat="45.8721682" lon="9.1254451"><ele>227.0</ele><time>2026-03-29T11:14:28.828Z</time></trkpt><trkpt lat="45.8722191" lon="9.1255467"><ele>227.0</ele><time>2026-03-29T11:14:29.824Z</time></trkpt><trkpt lat="45.8722703" lon="9.1256357"><ele>227.00000000000003</ele><time>2026-03-29T11:14:30.819Z</time></trkpt><trkpt lat="45.8723157" lon="9.1257301"><ele>227.0</ele><time>2026-03-29T11:14:31.82Z</time></trkpt><trkpt lat="45.872361" lon="9.1258277"><ele>229.16666666666669</ele><time>2026-03-29T11:14:32.822Z</time></trkpt><trkpt lat="45.8724065" lon="9.1259413"><ele>231.33333333333334</ele><time>2026-03-29T11:14:33.811Z</time></trkpt><trkpt lat="45.872454" lon="9.1260345"><ele>233.5</ele><time>2026-03-29T11:14:34.815Z</time></trkpt><trkpt lat="45.8725116" lon="9.1261237"><ele>235.66666666666669</ele><time>2026-03-29T11:14:35.822Z</time></trkpt><trkpt lat="45.8725687" lon="9.1262301"><ele>237.83333333333334</ele><time>2026-03-29T11:14:36.838Z</time></trkpt><trkpt lat="45.872613" lon="9.1263454"><ele>240.0</ele><time>2026-03-29T11:14:37.835Z</time></trkpt><trkpt lat="45.8726558" lon="9.1264577"><ele>236.6</ele><time>2026-03-29T11:14:38.829Z</time></trkpt><trkpt lat="45.8726872" lon="9.1265685"><ele>233.2</ele><time>2026-03-29T11:14:39.829Z</time></trkpt><trkpt lat="45.8727167" lon="9.1266665"><ele>229.8</ele><time>2026-03-29T11:14:40.828Z</time></trkpt><trkpt lat="45.8727489" lon="9.1268142"><ele>226.4</ele><time>2026-03-29T11:14:42.831Z</time></trkpt><trkpt lat="45.8728327" lon="9.1269638"><ele>223.0</ele><time>2026-03-29T11:14:44.826Z</time></trkpt><trkpt lat="45.8728706" lon="9.1270398"><ele>222.99999999999997</ele><time>2026-03-29T11:14:45.829Z</time></trkpt><trkpt lat="45.8729076" lon="9.1271215"><ele>223.0</ele><time>2026-03-29T11:14:46.832Z</time></trkpt><trkpt lat="45.8729943" lon="9.1272413"><ele>223.0</ele><time>2026-03-29T11:14:48.83Z</time></trkpt><trkpt lat="45.8730582" lon="9.1272757"><ele>223.0</ele><time>2026-03-29T11:14:49.827Z</time></trkpt><trkpt lat="45.8731214" lon="9.1273277"><ele>222.99999999999997</ele><time>2026-03-29T11:14:50.825Z</time></trkpt><trkpt lat="45.8731797" lon="9.127406"><ele>223.0</ele><time>2026-03-29T11:14:51.826Z</time></trkpt><trkpt lat="45.8732329" lon="9.1274875"><ele>220.49999999999997</ele><time>2026-03-29T11:14:52.825Z</time></trkpt><trkpt lat="45.8732894" lon="9.12757"><ele>218.0</ele><time>2026-03-29T11:14:53.833Z</time></trkpt><trkpt lat="45.8733443" lon="9.1276458"><ele>215.5</ele><time>2026-03-29T11:14:54.824Z</time></trkpt><trkpt lat="45.8733913" lon="9.1277385"><ele>213.0</ele><time>2026-03-29T11:14:55.829Z</time></trkpt><trkpt lat="45.8734372" lon="9.1278243"><ele>210.49999999999997</ele><time>2026-03-29T11:14:56.836Z</time></trkpt><trkpt lat="45.8734871" lon="9.1279056"><ele>208.0</ele><time>2026-03-29T11:14:57.83Z</time></trkpt><trkpt lat="45.8735426" lon="9.127994"><ele>211.33333333333331</ele><time>2026-03-29T11:14:58.834Z</time></trkpt><trkpt lat="45.8735949" lon="9.1280988"><ele>214.66666666666666</ele><time>2026-03-29T11:14:59.836Z</time></trkpt><trkpt lat="45.873644" lon="9.1282073"><ele>218.0</ele><time>2026-03-29T11:15:00.846Z</time></trkpt><trkpt lat="45.8736947" lon="9.1282962"><ele>221.33333333333331</ele><time>2026-03-29T11:15:01.835Z</time></trkpt><trkpt lat="45.873757" lon="9.1283846"><ele>224.66666666666666</ele><time>2026-03-29T11:15:02.832Z</time></trkpt><trkpt lat="45.8738114" lon="9.1284817"><ele>228.0</ele><time>2026-03-29T11:15:03.834Z</time></trkpt><trkpt lat="45.8738713" lon="9.128576"><ele>228.0</ele><time>2026-03-29T11:15:04.831Z</time></trkpt><trkpt lat="45.8739283" lon="9.1286756"><ele>228.0</ele><time>2026-03-29T11:15:05.832Z</time></trkpt><trkpt lat="45.8739715" lon="9.128791"><ele>228.0</ele><time>2026-03-29T11:15:06.839Z</time></trkpt><trkpt lat="45.8740089" lon="9.1289031"><ele>228.0</ele><time>2026-03-29T11:15:07.835Z</time></trkpt><trkpt lat="45.8740397" lon="9.1290324"><ele>228.0</ele><time>2026-03-29T11:15:08.833Z</time></trkpt><trkpt lat="45.8740743" lon="9.1291559"><ele>224.8</ele><time>2026-03-29T11:15:09.84Z</time></trkpt><trkpt lat="45.874116" lon="9.1292848"><ele>221.60000000000002</ele><time>2026-03-29T11:15:10.83Z</time></trkpt><trkpt lat="45.874158" lon="9.1294204"><ele>218.39999999999998</ele><time>2026-03-29T11:15:11.839Z</time></trkpt><trkpt lat="45.8742111" lon="9.129555"><ele>215.2</ele><time>2026-03-29T11:15:12.83Z</time></trkpt><trkpt lat="45.8742664" lon="9.1296839"><ele>212.0</ele><time>2026-03-29T11:15:13.853Z</time></trkpt><trkpt lat="45.8743209" lon="9.1298104"><ele>215.6</ele><time>2026-03-29T11:15:14.829Z</time></trkpt><trkpt lat="45.8743711" lon="9.1299477"><ele>219.2</ele><time>2026-03-29T11:15:15.828Z</time></trkpt><trkpt lat="45.8744084" lon="9.1300948"><ele>222.8</ele><time>2026-03-29T11:15:16.841Z</time></trkpt><trkpt lat="45.8744482" lon="9.1302229"><ele>226.4</ele><time>2026-03-29T11:15:17.83Z</time></trkpt><trkpt lat="45.8744829" lon="9.1303477"><ele>230.0</ele><time>2026-03-29T11:15:18.833Z</time></trkpt><trkpt lat="45.8745205" lon="9.1304654"><ele>230.0</ele><time>2026-03-29T11:15:19.835Z</time></trkpt><trkpt lat="45.8745696" lon="9.1305719"><ele>230.0</ele><time>2026-03-29T11:15:20.832Z</time></trkpt><trkpt lat="45.8746334" lon="9.1306692"><ele>230.0</ele><time>2026-03-29T11:15:21.834Z</time></trkpt><trkpt lat="45.8747077" lon="9.130765"><ele>230.0</ele><time>2026-03-29T11:15:22.834Z</time></trkpt><trkpt lat="45.874787" lon="9.130858"><ele>230.0</ele><time>2026-03-29T11:15:23.835Z</time></trkpt><trkpt lat="45.8748654" lon="9.1309647"><ele>233.0</ele><time>2026-03-29T11:15:24.828Z</time></trkpt><trkpt lat="45.8749235" lon="9.1310812"><ele>236.0</ele><time>2026-03-29T11:15:25.843Z</time></trkpt><trkpt lat="45.8749928" lon="9.1311839"><ele>239.0</ele><time>2026-03-29T11:15:26.832Z</time></trkpt><trkpt lat="45.8750547" lon="9.1312881"><ele>242.0</ele><time>2026-03-29T11:15:27.842Z</time></trkpt><trkpt lat="45.8751089" lon="9.1313956"><ele>245.0</ele><time>2026-03-29T11:15:28.836Z</time></trkpt><trkpt lat="45.8751646" lon="9.131497"><ele>242.33333333333334</ele><time>2026-03-29T11:15:29.836Z</time></trkpt><trkpt lat="45.8752117" lon="9.131587"><ele>239.66666666666669</ele><time>2026-03-29T11:15:30.84Z</time></trkpt><trkpt lat="45.8752904" lon="9.1317204"><ele>237.0</ele><time>2026-03-29T11:15:32.842Z</time></trkpt><trkpt lat="45.8753346" lon="9.131795"><ele>234.33333333333331</ele><time>2026-03-29T11:15:33.837Z</time></trkpt><trkpt lat="45.8753796" lon="9.1318767"><ele>231.66666666666666</ele><time>2026-03-29T11:15:34.834Z</time></trkpt><trkpt lat="45.8754259" lon="9.1319698"><ele>229.0</ele><time>2026-03-29T11:15:35.837Z</time></trkpt><trkpt lat="45.8754702" lon="9.1320703"><ele>228.99999999999997</ele><time>2026-03-29T11:15:36.835Z</time></trkpt><trkpt lat="45.8755148" lon="9.1321759"><ele>229.0</ele><time>2026-03-29T11:15:37.841Z</time></trkpt><trkpt lat="45.8755532" lon="9.1322836"><ele>229.0</ele><time>2026-03-29T11:15:38.836Z</time></trkpt><trkpt lat="45.8755973" lon="9.1323793"><ele>229.0</ele><time>2026-03-29T11:15:39.835Z</time></trkpt><trkpt lat="45.8756509" lon="9.13248"><ele>228.99999999999997</ele><time>2026-03-29T11:15:40.837Z</time></trkpt><trkpt lat="45.8757149" lon="9.1326076"><ele>229.0</ele><time>2026-03-29T11:15:41.83Z</time></trkpt><trkpt lat="45.8757797" lon="9.1327559"><ele>227.0</ele><time>2026-03-29T11:15:42.841Z</time></trkpt><trkpt lat="45.8758331" lon="9.132909"><ele>225.0</ele><time>2026-03-29T11:15:43.835Z</time></trkpt><trkpt lat="45.875891" lon="9.1330521"><ele>223.0</ele><time>2026-03-29T11:15:44.834Z</time></trkpt><trkpt lat="45.8759624" lon="9.1331859"><ele>221.0</ele><time>2026-03-29T11:15:45.833Z</time></trkpt><trkpt lat="45.8760409" lon="9.1333032"><ele>221.0</ele><time>2026-03-29T11:15:46.832Z</time></trkpt><trkpt lat="45.8761268" lon="9.133403"><ele>221.0</ele><time>2026-03-29T11:15:47.842Z</time></trkpt><trkpt lat="45.8762224" lon="9.1334911"><ele>221.0</ele><time>2026-03-29T11:15:48.828Z</time></trkpt><trkpt lat="45.8763227" lon="9.1335767"><ele>221.0</ele><time>2026-03-29T11:15:49.836Z</time></trkpt><trkpt lat="45.8764195" lon="9.1336659"><ele>221.0</ele><time>2026-03-29T11:15:50.83Z</time></trkpt><trkpt lat="45.8765133" lon="9.133759"><ele>221.00000000000003</ele><time>2026-03-29T11:15:51.846Z</time></trkpt><trkpt lat="45.8766024" lon="9.1338541"><ele>221.00000000000003</ele><time>2026-03-29T11:15:52.839Z</time></trkpt><trkpt lat="45.8766886" lon="9.1339477"><ele>221.0</ele><time>2026-03-29T11:15:53.842Z</time></trkpt><trkpt lat="45.8767693" lon="9.1340424"><ele>221.0</ele><time>2026-03-29T11:15:54.834Z</time></trkpt><trkpt lat="45.8768486" lon="9.1341464"><ele>222.0</ele><time>2026-03-29T11:15:55.835Z</time></trkpt><trkpt lat="45.8769393" lon="9.1342498"><ele>223.0</ele><time>2026-03-29T11:15:56.834Z</time></trkpt><trkpt lat="45.8770386" lon="9.1343627"><ele>224.0</ele><time>2026-03-29T11:15:57.835Z</time></trkpt><trkpt lat="45.8771378" lon="9.1344791"><ele>225.0</ele><time>2026-03-29T11:15:58.835Z</time></trkpt><trkpt lat="45.877231" lon="9.1346068"><ele>225.0</ele><time>2026-03-29T11:15:59.833Z</time></trkpt><trkpt lat="45.8773096" lon="9.1347288"><ele>225.0</ele><time>2026-03-29T11:16:00.837Z</time></trkpt><trkpt lat="45.8773838" lon="9.1348479"><ele>225.0</ele><time>2026-03-29T11:16:01.834Z</time></trkpt><trkpt lat="45.8774563" lon="9.1349694"><ele>225.0</ele><time>2026-03-29T11:16:02.826Z</time></trkpt><trkpt lat="45.8775221" lon="9.1350963"><ele>225.0</ele><time>2026-03-29T11:16:03.835Z</time></trkpt><trkpt lat="45.8775912" lon="9.1352192"><ele>225.4</ele><time>2026-03-29T11:16:04.831Z</time></trkpt><trkpt lat="45.8776544" lon="9.1353524"><ele>225.8</ele><time>2026-03-29T11:16:05.831Z</time></trkpt><trkpt lat="45.8777108" lon="9.135472"><ele>226.2</ele><time>2026-03-29T11:16:06.835Z</time></trkpt><trkpt lat="45.8777594" lon="9.135567"><ele>226.6</ele><time>2026-03-29T11:16:07.838Z</time></trkpt><trkpt lat="45.8778068" lon="9.1356571"><ele>227.0</ele><time>2026-03-29T11:16:08.837Z</time></trkpt><trkpt lat="45.8778382" lon="9.1357573"><ele>227.0</ele><time>2026-03-29T11:16:09.834Z</time></trkpt><trkpt lat="45.8778664" lon="9.1358842"><ele>227.0</ele><time>2026-03-29T11:16:10.839Z</time></trkpt><trkpt lat="45.8778852" lon="9.1360246"><ele>227.0</ele><time>2026-03-29T11:16:11.831Z</time></trkpt><trkpt lat="45.8779127" lon="9.1361555"><ele>227.0</ele><time>2026-03-29T11:16:12.837Z</time></trkpt><trkpt lat="45.8779386" lon="9.1362835"><ele>227.0</ele><time>2026-03-29T11:16:13.828Z</time></trkpt><trkpt lat="45.8779711" lon="9.136406"><ele>227.0</ele><time>2026-03-29T11:16:14.835Z</time></trkpt><trkpt lat="45.8780243" lon="9.136525"><ele>227.0</ele><time>2026-03-29T11:16:15.827Z</time></trkpt><trkpt lat="45.8780954" lon="9.136636"><ele>227.0</ele><time>2026-03-29T11:16:16.832Z</time></trkpt><trkpt lat="45.8781685" lon="9.1367455"><ele>227.0</ele><time>2026-03-29T11:16:17.827Z</time></trkpt><trkpt lat="45.8782349" lon="9.1368587"><ele>227.0</ele><time>2026-03-29T11:16:18.827Z</time></trkpt><trkpt lat="45.8783025" lon="9.1369763"><ele>227.39999999999998</ele><time>2026-03-29T11:16:19.822Z</time></trkpt><trkpt lat="45.8783672" lon="9.13709"><ele>227.79999999999998</ele><time>2026-03-29T11:16:20.83Z</time></trkpt><trkpt lat="45.8784262" lon="9.1372051"><ele>228.2</ele><time>2026-03-29T11:16:21.829Z</time></trkpt><trkpt lat="45.8784845" lon="9.137314"><ele>228.6</ele><time>2026-03-29T11:16:22.83Z</time></trkpt><trkpt lat="45.8785354" lon="9.137433"><ele>229.0</ele><time>2026-03-29T11:16:23.833Z</time></trkpt><trkpt lat="45.8785863" lon="9.1375523"><ele>226.2</ele><time>2026-03-29T11:16:24.831Z</time></trkpt><trkpt lat="45.8786432" lon="9.137668"><ele>223.39999999999998</ele><time>2026-03-29T11:16:25.834Z</time></trkpt><trkpt lat="45.8787048" lon="9.1377798"><ele>220.6</ele><time>2026-03-29T11:16:26.829Z</time></trkpt><trkpt lat="45.8787695" lon="9.1378849"><ele>217.8</ele><time>2026-03-29T11:16:27.835Z</time></trkpt><trkpt lat="45.8788428" lon="9.1379788"><ele>215.0</ele><time>2026-03-29T11:16:28.83Z</time></trkpt><trkpt lat="45.8789193" lon="9.1380639"><ele>215.00000000000003</ele><time>2026-03-29T11:16:29.831Z</time></trkpt><trkpt lat="45.8789985" lon="9.1381352"><ele>215.0</ele><time>2026-03-29T11:16:30.842Z</time></trkpt><trkpt lat="45.8790743" lon="9.1382001"><ele>215.0</ele><time>2026-03-29T11:16:31.833Z</time></trkpt><trkpt lat="45.8791435" lon="9.1382489"><ele>215.0</ele><time>2026-03-29T11:16:32.825Z</time></trkpt><trkpt lat="45.8792216" lon="9.1382869"><ele>215.00000000000003</ele><time>2026-03-29T11:16:33.824Z</time></trkpt><trkpt lat="45.8793128" lon="9.1382982"><ele>215.0</ele><time>2026-03-29T11:16:34.834Z</time></trkpt><trkpt lat="45.879411" lon="9.1382856"><ele>213.4</ele><time>2026-03-29T11:16:35.83Z</time></trkpt><trkpt lat="45.8795181" lon="9.1382614"><ele>211.8</ele><time>2026-03-29T11:16:36.834Z</time></trkpt><trkpt lat="45.8796213" lon="9.1382335"><ele>210.2</ele><time>2026-03-29T11:16:37.84Z</time></trkpt><trkpt lat="45.8797239" lon="9.1382288"><ele>208.6</ele><time>2026-03-29T11:16:38.842Z</time></trkpt><trkpt lat="45.8798136" lon="9.138236"><ele>207.0</ele><time>2026-03-29T11:16:39.858Z</time></trkpt><trkpt lat="45.8798984" lon="9.1382487"><ele>207.0</ele><time>2026-03-29T11:16:40.832Z</time></trkpt><trkpt lat="45.8799823" lon="9.1382287"><ele>207.0</ele><time>2026-03-29T11:16:41.831Z</time></trkpt><trkpt lat="45.8800702" lon="9.138183"><ele>207.0</ele><time>2026-03-29T11:16:42.831Z</time></trkpt><trkpt lat="45.8801573" lon="9.1381302"><ele>207.0</ele><time>2026-03-29T11:16:43.83Z</time></trkpt><trkpt lat="45.880245" lon="9.1380785"><ele>207.0</ele><time>2026-03-29T11:16:44.855Z</time></trkpt><trkpt lat="45.8803303" lon="9.1380429"><ele>209.33333333333334</ele><time>2026-03-29T11:16:45.83Z</time></trkpt><trkpt lat="45.8804095" lon="9.1380153"><ele>211.66666666666669</ele><time>2026-03-29T11:16:46.834Z</time></trkpt><trkpt lat="45.8804855" lon="9.1379904"><ele>214.0</ele><time>2026-03-29T11:16:47.834Z</time></trkpt><trkpt lat="45.8805656" lon="9.1379871"><ele>216.33333333333334</ele><time>2026-03-29T11:16:48.854Z</time></trkpt><trkpt lat="45.8806485" lon="9.1379833"><ele>218.66666666666669</ele><time>2026-03-29T11:16:49.857Z</time></trkpt><trkpt lat="45.8807377" lon="9.1379994"><ele>221.0</ele><time>2026-03-29T11:16:50.828Z</time></trkpt><trkpt lat="45.8808141" lon="9.1380396"><ele>221.0</ele><time>2026-03-29T11:16:51.82Z</time></trkpt><trkpt lat="45.8808974" lon="9.1380964"><ele>221.00000000000003</ele><time>2026-03-29T11:16:52.833Z</time></trkpt><trkpt lat="45.8809709" lon="9.1381616"><ele>221.00000000000003</ele><time>2026-03-29T11:16:53.979Z</time></trkpt><trkpt lat="45.8810324" lon="9.1382491"><ele>221.0</ele><time>2026-03-29T11:16:54.975Z</time></trkpt><trkpt lat="45.8811355" lon="9.1383946"><ele>221.0</ele><time>2026-03-29T11:16:56.825Z</time></trkpt><trkpt lat="45.8811804" lon="9.1384774"><ele>220.00000000000003</ele><time>2026-03-29T11:16:57.821Z</time></trkpt><trkpt lat="45.8812253" lon="9.1385617"><ele>219.0</ele><time>2026-03-29T11:16:58.858Z</time></trkpt><trkpt lat="45.8812776" lon="9.1386538"><ele>218.0</ele><time>2026-03-29T11:16:59.831Z</time></trkpt><trkpt lat="45.8813279" lon="9.1387583"><ele>217.0</ele><time>2026-03-29T11:17:00.847Z</time></trkpt><trkpt lat="45.881394" lon="9.1388566"><ele>216.00000000000003</ele><time>2026-03-29T11:17:01.826Z</time></trkpt><trkpt lat="45.881465" lon="9.1389486"><ele>215.0</ele><time>2026-03-29T11:17:02.833Z</time></trkpt><trkpt lat="45.8815424" lon="9.1390309"><ele>215.83333333333334</ele><time>2026-03-29T11:17:03.831Z</time></trkpt><trkpt lat="45.8816335" lon="9.139092"><ele>216.66666666666669</ele><time>2026-03-29T11:17:04.827Z</time></trkpt><trkpt lat="45.881705" lon="9.1391655"><ele>217.5</ele><time>2026-03-29T11:17:05.909Z</time></trkpt><trkpt lat="45.8817755" lon="9.1392286"><ele>218.33333333333331</ele><time>2026-03-29T11:17:06.979Z</time></trkpt><trkpt lat="45.88184" lon="9.1392812"><ele>219.16666666666666</ele><time>2026-03-29T11:17:07.992Z</time></trkpt><trkpt lat="45.8819146" lon="9.1393223"><ele>220.0</ele><time>2026-03-29T11:17:08.991Z</time></trkpt><trkpt lat="45.8819972" lon="9.1393608"><ele>220.0</ele><time>2026-03-29T11:17:09.995Z</time></trkpt><trkpt lat="45.8821844" lon="9.139404"><ele>220.0</ele><time>2026-03-29T11:17:11.842Z</time></trkpt><trkpt lat="45.8822861" lon="9.139434"><ele>220.0</ele><time>2026-03-29T11:17:12.838Z</time></trkpt><trkpt lat="45.8823872" lon="9.1394747"><ele>220.0</ele><time>2026-03-29T11:17:13.837Z</time></trkpt><trkpt lat="45.8824802" lon="9.1395487"><ele>220.0</ele><time>2026-03-29T11:17:14.838Z</time></trkpt><trkpt lat="45.8825764" lon="9.1396322"><ele>220.0</ele><time>2026-03-29T11:17:15.842Z</time></trkpt><trkpt lat="45.8826694" lon="9.1397171"><ele>220.0</ele><time>2026-03-29T11:17:16.836Z</time></trkpt><trkpt lat="45.8827656" lon="9.13979"><ele>220.0</ele><time>2026-03-29T11:17:17.847Z</time></trkpt><trkpt lat="45.8828528" lon="9.1398534"><ele>220.0</ele><time>2026-03-29T11:17:18.847Z</time></trkpt><trkpt lat="45.8829365" lon="9.1398956"><ele>217.8</ele><time>2026-03-29T11:17:19.839Z</time></trkpt><trkpt lat="45.8830208" lon="9.1399147"><ele>215.6</ele><time>2026-03-29T11:17:20.841Z</time></trkpt><trkpt lat="45.8831092" lon="9.1399164"><ele>213.39999999999998</ele><time>2026-03-29T11:17:21.838Z</time></trkpt><trkpt lat="45.8832056" lon="9.1399082"><ele>211.2</ele><time>2026-03-29T11:17:22.842Z</time></trkpt><trkpt lat="45.8833015" lon="9.1399288"><ele>209.0</ele><time>2026-03-29T11:17:23.857Z</time></trkpt><trkpt lat="45.8833936" lon="9.1399778"><ele>213.0</ele><time>2026-03-29T11:17:24.83Z</time></trkpt><trkpt lat="45.883475" lon="9.1400464"><ele>217.0</ele><time>2026-03-29T11:17:25.832Z</time></trkpt><trkpt lat="45.8835668" lon="9.140115"><ele>220.99999999999997</ele><time>2026-03-29T11:17:26.835Z</time></trkpt><trkpt lat="45.8836411" lon="9.1402216"><ele>225.0</ele><time>2026-03-29T11:17:27.837Z</time></trkpt><trkpt lat="45.8837106" lon="9.1403318"><ele>229.0</ele><time>2026-03-29T11:17:28.831Z</time></trkpt><trkpt lat="45.8837901" lon="9.1404354"><ele>229.0</ele><time>2026-03-29T11:17:29.834Z</time></trkpt><trkpt lat="45.8838683" lon="9.1405402"><ele>228.99999999999997</ele><time>2026-03-29T11:17:30.834Z</time></trkpt><trkpt lat="45.8839448" lon="9.1406533"><ele>228.99999999999997</ele><time>2026-03-29T11:17:31.841Z</time></trkpt><trkpt lat="45.884025" lon="9.1407674"><ele>229.0</ele><time>2026-03-29T11:17:32.834Z</time></trkpt><trkpt lat="45.8841143" lon="9.1408763"><ele>229.0</ele><time>2026-03-29T11:17:33.838Z</time></trkpt><trkpt lat="45.8842032" lon="9.1409748"><ele>229.2</ele><time>2026-03-29T11:17:34.833Z</time></trkpt><trkpt lat="45.8842924" lon="9.1410624"><ele>229.39999999999998</ele><time>2026-03-29T11:17:35.839Z</time></trkpt><trkpt lat="45.8843814" lon="9.1411424"><ele>229.6</ele><time>2026-03-29T11:17:36.833Z</time></trkpt><trkpt lat="45.8844706" lon="9.1412239"><ele>229.8</ele><time>2026-03-29T11:17:37.828Z</time></trkpt><trkpt lat="45.8845589" lon="9.1413072"><ele>230.0</ele><time>2026-03-29T11:17:38.827Z</time></trkpt><trkpt lat="45.8846516" lon="9.141382"><ele>230.00000000000003</ele><time>2026-03-29T11:17:39.835Z</time></trkpt><trkpt lat="45.8847351" lon="9.1414526"><ele>230.0</ele><time>2026-03-29T11:17:40.845Z</time></trkpt><trkpt lat="45.8848093" lon="9.1415243"><ele>230.0</ele><time>2026-03-29T11:17:41.842Z</time></trkpt><trkpt lat="45.8848805" lon="9.1415947"><ele>230.0</ele><time>2026-03-29T11:17:42.839Z</time></trkpt><trkpt lat="45.8849517" lon="9.1416669"><ele>230.00000000000003</ele><time>2026-03-29T11:17:43.845Z</time></trkpt><trkpt lat="45.8850259" lon="9.141739"><ele>230.0</ele><time>2026-03-29T11:17:44.843Z</time></trkpt><trkpt lat="45.8850975" lon="9.1418113"><ele>228.8</ele><time>2026-03-29T11:17:45.839Z</time></trkpt><trkpt lat="45.8851745" lon="9.1418812"><ele>227.6</ele><time>2026-03-29T11:17:46.833Z</time></trkpt><trkpt lat="45.8852499" lon="9.1419475"><ele>226.39999999999998</ele><time>2026-03-29T11:17:47.845Z</time></trkpt><trkpt lat="45.8853299" lon="9.1420125"><ele>225.2</ele><time>2026-03-29T11:17:48.846Z</time></trkpt><trkpt lat="45.8854111" lon="9.1420654"><ele>224.0</ele><time>2026-03-29T11:17:49.839Z</time></trkpt><trkpt lat="45.8855065" lon="9.1420854"><ele>224.0</ele><time>2026-03-29T11:17:50.838Z</time></trkpt><trkpt lat="45.8856058" lon="9.1420913"><ele>223.99999999999997</ele><time>2026-03-29T11:17:51.844Z</time></trkpt><trkpt lat="45.885707" lon="9.1421014"><ele>223.99999999999997</ele><time>2026-03-29T11:17:52.837Z</time></trkpt><trkpt lat="45.8858154" lon="9.1421068"><ele>224.0</ele><time>2026-03-29T11:17:53.837Z</time></trkpt><trkpt lat="45.8859258" lon="9.1421221"><ele>224.0</ele><time>2026-03-29T11:17:54.838Z</time></trkpt><trkpt lat="45.8860408" lon="9.1421452"><ele>222.75</ele><time>2026-03-29T11:17:55.841Z</time></trkpt><trkpt lat="45.8861559" lon="9.1421697"><ele>221.5</ele><time>2026-03-29T11:17:56.837Z</time></trkpt><trkpt lat="45.8862751" lon="9.1421896"><ele>220.25</ele><time>2026-03-29T11:17:57.843Z</time></trkpt><trkpt lat="45.8864001" lon="9.1422106"><ele>219.0</ele><time>2026-03-29T11:17:58.837Z</time></trkpt><trkpt lat="45.8865241" lon="9.142227"><ele>219.0</ele><time>2026-03-29T11:17:59.833Z</time></trkpt><trkpt lat="45.8866454" lon="9.1422391"><ele>219.0</ele><time>2026-03-29T11:18:00.837Z</time></trkpt><trkpt lat="45.8867707" lon="9.1422511"><ele>219.0</ele><time>2026-03-29T11:18:01.831Z</time></trkpt><trkpt lat="45.8868828" lon="9.1422537"><ele>219.0</ele><time>2026-03-29T11:18:02.829Z</time></trkpt><trkpt lat="45.8869873" lon="9.1422659"><ele>217.39999999999998</ele><time>2026-03-29T11:18:03.822Z</time></trkpt><trkpt lat="45.8870873" lon="9.1423103"><ele>215.79999999999998</ele><time>2026-03-29T11:18:04.826Z</time></trkpt><trkpt lat="45.8871713" lon="9.1423735"><ele>214.2</ele><time>2026-03-29T11:18:05.837Z</time></trkpt><trkpt lat="45.8872477" lon="9.1424428"><ele>212.60000000000002</ele><time>2026-03-29T11:18:06.83Z</time></trkpt><trkpt lat="45.887328" lon="9.1425258"><ele>211.0</ele><time>2026-03-29T11:18:07.833Z</time></trkpt><trkpt lat="45.8874154" lon="9.1426111"><ele>211.0</ele><time>2026-03-29T11:18:08.838Z</time></trkpt><trkpt lat="45.8875022" lon="9.1426991"><ele>211.0</ele><time>2026-03-29T11:18:09.829Z</time></trkpt><trkpt lat="45.8875937" lon="9.1427796"><ele>211.0</ele><time>2026-03-29T11:18:10.841Z</time></trkpt><trkpt lat="45.8876906" lon="9.1428278"><ele>211.0</ele><time>2026-03-29T11:18:11.83Z</time></trkpt><trkpt lat="45.8877922" lon="9.1428533"><ele>211.0</ele><time>2026-03-29T11:18:12.833Z</time></trkpt><trkpt lat="45.8878992" lon="9.1428732"><ele>213.4</ele><time>2026-03-29T11:18:13.833Z</time></trkpt><trkpt lat="45.8879961" lon="9.1428993"><ele>215.8</ele><time>2026-03-29T11:18:14.832Z</time></trkpt><trkpt lat="45.8880922" lon="9.1429477"><ele>218.20000000000002</ele><time>2026-03-29T11:18:15.842Z</time></trkpt><trkpt lat="45.8881816" lon="9.1430133"><ele>220.60000000000002</ele><time>2026-03-29T11:18:16.841Z</time></trkpt><trkpt lat="45.8882687" lon="9.1430827"><ele>223.0</ele><time>2026-03-29T11:18:17.849Z</time></trkpt><trkpt lat="45.8883572" lon="9.1431514"><ele>219.60000000000002</ele><time>2026-03-29T11:18:18.838Z</time></trkpt><trkpt lat="45.8884464" lon="9.1432125"><ele>216.20000000000002</ele><time>2026-03-29T11:18:19.834Z</time></trkpt><trkpt lat="45.8885369" lon="9.1432689"><ele>212.8</ele><time>2026-03-29T11:18:20.837Z</time></trkpt><trkpt lat="45.8886226" lon="9.1433165"><ele>209.4</ele><time>2026-03-29T11:18:21.831Z</time></trkpt><trkpt lat="45.8887066" lon="9.1433523"><ele>206.0</ele><time>2026-03-29T11:18:22.843Z</time></trkpt><trkpt lat="45.8887918" lon="9.1433623"><ele>206.0</ele><time>2026-03-29T11:18:23.835Z</time></trkpt><trkpt lat="45.8888866" lon="9.1433622"><ele>206.0</ele><time>2026-03-29T11:18:24.832Z</time></trkpt><trkpt lat="45.8889828" lon="9.1433635"><ele>206.0</ele><time>2026-03-29T11:18:25.834Z</time></trkpt><trkpt lat="45.8890812" lon="9.1433595"><ele>206.0</ele><time>2026-03-29T11:18:26.833Z</time></trkpt><trkpt lat="45.8891849" lon="9.1433527"><ele>206.0</ele><time>2026-03-29T11:18:27.833Z</time></trkpt><trkpt lat="45.8892928" lon="9.1433522"><ele>208.5</ele><time>2026-03-29T11:18:28.838Z</time></trkpt><trkpt lat="45.8894048" lon="9.1433555"><ele>211.0</ele><time>2026-03-29T11:18:29.84Z</time></trkpt><trkpt lat="45.8895186" lon="9.1433747"><ele>213.5</ele><time>2026-03-29T11:18:30.836Z</time></trkpt><trkpt lat="45.8896331" lon="9.1433887"><ele>216.0</ele><time>2026-03-29T11:18:31.829Z</time></trkpt><trkpt lat="45.88975" lon="9.1433937"><ele>216.0</ele><time>2026-03-29T11:18:32.832Z</time></trkpt><trkpt lat="45.8898606" lon="9.143394"><ele>216.00000000000003</ele><time>2026-03-29T11:18:33.831Z</time></trkpt><trkpt lat="45.8899609" lon="9.1434038"><ele>216.00000000000003</ele><time>2026-03-29T11:18:34.829Z</time></trkpt><trkpt lat="45.890059" lon="9.1434404"><ele>216.0</ele><time>2026-03-29T11:18:35.838Z</time></trkpt><trkpt lat="45.8901589" lon="9.1434864"><ele>216.0</ele><time>2026-03-29T11:18:36.831Z</time></trkpt><trkpt lat="45.890258" lon="9.1435537"><ele>221.0</ele><time>2026-03-29T11:18:37.845Z</time></trkpt><trkpt lat="45.8903619" lon="9.1436314"><ele>226.0</ele><time>2026-03-29T11:18:38.83Z</time></trkpt><trkpt lat="45.8904643" lon="9.1437087"><ele>231.0</ele><time>2026-03-29T11:18:39.836Z</time></trkpt><trkpt lat="45.8905695" lon="9.1437844"><ele>236.0</ele><time>2026-03-29T11:18:40.834Z</time></trkpt><trkpt lat="45.8906741" lon="9.1438575"><ele>236.0</ele><time>2026-03-29T11:18:41.828Z</time></trkpt><trkpt lat="45.8907711" lon="9.1439322"><ele>236.00000000000003</ele><time>2026-03-29T11:18:42.863Z</time></trkpt><trkpt lat="45.8908609" lon="9.1440067"><ele>236.00000000000003</ele><time>2026-03-29T11:18:43.834Z</time></trkpt><trkpt lat="45.890957" lon="9.1440628"><ele>236.0</ele><time>2026-03-29T11:18:44.841Z</time></trkpt><trkpt lat="45.8910555" lon="9.144105"><ele>236.0</ele><time>2026-03-29T11:18:45.827Z</time></trkpt><trkpt lat="45.891151" lon="9.1441417"><ele>232.0</ele><time>2026-03-29T11:18:46.838Z</time></trkpt><trkpt lat="45.8912515" lon="9.1441746"><ele>228.00000000000003</ele><time>2026-03-29T11:18:47.825Z</time></trkpt><trkpt lat="45.8913538" lon="9.1441997"><ele>224.00000000000003</ele><time>2026-03-29T11:18:48.839Z</time></trkpt><trkpt lat="45.8914587" lon="9.144213"><ele>220.0</ele><time>2026-03-29T11:18:49.851Z</time></trkpt><trkpt lat="45.891562" lon="9.1442198"><ele>216.0</ele><time>2026-03-29T11:18:50.834Z</time></trkpt><trkpt lat="45.8916697" lon="9.1442223"><ele>215.8</ele><time>2026-03-29T11:18:51.833Z</time></trkpt><trkpt lat="45.8917763" lon="9.1442274"><ele>215.60000000000002</ele><time>2026-03-29T11:18:52.836Z</time></trkpt><trkpt lat="45.891882" lon="9.1442329"><ele>215.4</ele><time>2026-03-29T11:18:53.838Z</time></trkpt><trkpt lat="45.8919892" lon="9.1442393"><ele>215.2</ele><time>2026-03-29T11:18:54.843Z</time></trkpt><trkpt lat="45.8921024" lon="9.1442405"><ele>215.0</ele><time>2026-03-29T11:18:55.843Z</time></trkpt><trkpt lat="45.8922187" lon="9.1442091"><ele>215.0</ele><time>2026-03-29T11:18:56.852Z</time></trkpt><trkpt lat="45.8923279" lon="9.1441569"><ele>215.0</ele><time>2026-03-29T11:18:57.841Z</time></trkpt><trkpt lat="45.8924377" lon="9.1440875"><ele>215.0</ele><time>2026-03-29T11:18:58.83Z</time></trkpt><trkpt lat="45.8925405" lon="9.1440005"><ele>215.0</ele><time>2026-03-29T11:18:59.835Z</time></trkpt><trkpt lat="45.892638" lon="9.1439022"><ele>216.0</ele><time>2026-03-29T11:19:00.842Z</time></trkpt><trkpt lat="45.8927323" lon="9.1437977"><ele>217.0</ele><time>2026-03-29T11:19:01.83Z</time></trkpt><trkpt lat="45.8928271" lon="9.1436962"><ele>218.0</ele><time>2026-03-29T11:19:02.833Z</time></trkpt><trkpt lat="45.8929241" lon="9.1436008"><ele>219.0</ele><time>2026-03-29T11:19:03.824Z</time></trkpt><trkpt lat="45.8930209" lon="9.143507"><ele>219.0</ele><time>2026-03-29T11:19:04.833Z</time></trkpt><trkpt lat="45.8931225" lon="9.1434179"><ele>219.0</ele><time>2026-03-29T11:19:05.822Z</time></trkpt><trkpt lat="45.8932235" lon="9.1433267"><ele>219.0</ele><time>2026-03-29T11:19:06.825Z</time></trkpt><trkpt lat="45.8933268" lon="9.1432323"><ele>219.0</ele><time>2026-03-29T11:19:07.821Z</time></trkpt><trkpt lat="45.8934332" lon="9.1431358"><ele>220.75</ele><time>2026-03-29T11:19:08.824Z</time></trkpt><trkpt lat="45.8935348" lon="9.1430449"><ele>222.5</ele><time>2026-03-29T11:19:09.827Z</time></trkpt><trkpt lat="45.8936347" lon="9.1429632"><ele>224.25</ele><time>2026-03-29T11:19:10.829Z</time></trkpt><trkpt lat="45.8937482" lon="9.1428905"><ele>226.0</ele><time>2026-03-29T11:19:11.826Z</time></trkpt><trkpt lat="45.8938798" lon="9.1428153"><ele>226.0</ele><time>2026-03-29T11:19:12.842Z</time></trkpt><trkpt lat="45.8940621" lon="9.1427233"><ele>226.0</ele><time>2026-03-29T11:19:13.827Z</time></trkpt><trkpt lat="45.8942267" lon="9.1426529"><ele>226.0</ele><time>2026-03-29T11:19:14.851Z</time></trkpt><trkpt lat="45.8943454" lon="9.1426653"><ele>227.16666666666666</ele><time>2026-03-29T11:19:15.856Z</time></trkpt><trkpt lat="45.8944255" lon="9.1426202"><ele>228.33333333333331</ele><time>2026-03-29T11:19:16.825Z</time></trkpt><trkpt lat="45.8944636" lon="9.1425452"><ele>229.5</ele><time>2026-03-29T11:19:17.824Z</time></trkpt><trkpt lat="45.8944947" lon="9.1424615"><ele>230.66666666666669</ele><time>2026-03-29T11:19:19.831Z</time></trkpt><trkpt lat="45.8945531" lon="9.1423994"><ele>231.83333333333334</ele><time>2026-03-29T11:19:21.834Z</time></trkpt><trkpt lat="45.8946383" lon="9.1422561"><ele>233.0</ele><time>2026-03-29T11:19:23.828Z</time></trkpt><trkpt lat="45.8947096" lon="9.1421801"><ele>233.0</ele><time>2026-03-29T11:19:24.824Z</time></trkpt><trkpt lat="45.8948066" lon="9.1421058"><ele>233.0</ele><time>2026-03-29T11:19:25.826Z</time></trkpt><trkpt lat="45.8949306" lon="9.1420152"><ele>233.0</ele><time>2026-03-29T11:19:26.831Z</time></trkpt><trkpt lat="45.8950578" lon="9.1419063"><ele>233.0</ele><time>2026-03-29T11:19:27.82Z</time></trkpt><trkpt lat="45.8951849" lon="9.1417761"><ele>230.5</ele><time>2026-03-29T11:19:28.836Z</time></trkpt><trkpt lat="45.8952816" lon="9.1416571"><ele>228.0</ele><time>2026-03-29T11:19:29.827Z</time></trkpt><trkpt lat="45.8953721" lon="9.1415417"><ele>225.5</ele><time>2026-03-29T11:19:30.825Z</time></trkpt><trkpt lat="45.8954725" lon="9.1413954"><ele>223.0</ele><time>2026-03-29T11:19:31.822Z</time></trkpt><trkpt lat="45.8955853" lon="9.1412307"><ele>223.0</ele><time>2026-03-29T11:19:32.833Z</time></trkpt><trkpt lat="45.8956923" lon="9.1410434"><ele>223.0</ele><time>2026-03-29T11:19:33.814Z</time></trkpt><trkpt lat="45.8958072" lon="9.1408282"><ele>223.0</ele><time>2026-03-29T11:19:34.83Z</time></trkpt><trkpt lat="45.8959051" lon="9.140627"><ele>218.66666666666666</ele><time>2026-03-29T11:19:35.825Z</time></trkpt><trkpt lat="45.8960216" lon="9.1404511"><ele>214.33333333333331</ele><time>2026-03-29T11:19:36.822Z</time></trkpt><trkpt lat="45.8961207" lon="9.140272"><ele>210.0</ele><time>2026-03-29T11:19:37.822Z</time></trkpt><trkpt lat="45.8962021" lon="9.1400879"><ele>210.0</ele><time>2026-03-29T11:19:38.816Z</time></trkpt><trkpt lat="45.8963115" lon="9.1399239"><ele>210.0</ele><time>2026-03-29T11:19:39.825Z</time></trkpt><trkpt lat="45.8964253" lon="9.1397829"><ele>210.0</ele><time>2026-03-29T11:19:40.826Z</time></trkpt><trkpt lat="45.8965193" lon="9.1396005"><ele>210.25</ele><time>2026-03-29T11:19:41.821Z</time></trkpt><trkpt lat="45.8966105" lon="9.1394469"><ele>210.5</ele><time>2026-03-29T11:19:42.83Z</time></trkpt><trkpt lat="45.8966984" lon="9.1392991"><ele>210.75</ele><time>2026-03-29T11:19:43.822Z</time></trkpt><trkpt lat="45.8967955" lon="9.1391735"><ele>211.0</ele><time>2026-03-29T11:19:44.826Z</time></trkpt><trkpt lat="45.8969068" lon="9.1390476"><ele>217.0</ele><time>2026-03-29T11:19:45.833Z</time></trkpt><trkpt lat="45.8970333" lon="9.1389196"><ele>223.0</ele><time>2026-03-29T11:19:46.824Z</time></trkpt><trkpt lat="45.8971475" lon="9.1388397"><ele>229.0</ele><time>2026-03-29T11:19:47.831Z</time></trkpt><trkpt lat="45.8972686" lon="9.1387422"><ele>235.0</ele><time>2026-03-29T11:19:48.838Z</time></trkpt><trkpt lat="45.8973768" lon="9.1386682"><ele>235.0</ele><time>2026-03-29T11:19:49.831Z</time></trkpt><trkpt lat="45.8974813" lon="9.1385852"><ele>235.0</ele><time>2026-03-29T11:19:50.833Z</time></trkpt><trkpt lat="45.8975858" lon="9.1385045"><ele>235.0</ele><time>2026-03-29T11:19:51.832Z</time></trkpt><trkpt lat="45.8976933" lon="9.1384122"><ele>235.0</ele><time>2026-03-29T11:19:52.827Z</time></trkpt><trkpt lat="45.8978019" lon="9.1382978"><ele>233.0</ele><time>2026-03-29T11:19:53.834Z</time></trkpt><trkpt lat="45.8979168" lon="9.1381562"><ele>231.0</ele><time>2026-03-29T11:19:54.829Z</time></trkpt><trkpt lat="45.8980828" lon="9.1379474"><ele>229.0</ele><time>2026-03-29T11:19:55.839Z</time></trkpt><trkpt lat="45.8982392" lon="9.1377779"><ele>229.0</ele><time>2026-03-29T11:19:56.833Z</time></trkpt><trkpt lat="45.8983652" lon="9.1376506"><ele>229.0</ele><time>2026-03-29T11:19:57.83Z</time></trkpt><trkpt lat="45.8984957" lon="9.1375229"><ele>229.0</ele><time>2026-03-29T11:19:58.827Z</time></trkpt><trkpt lat="45.898629" lon="9.1374005"><ele>230.25</ele><time>2026-03-29T11:19:59.833Z</time></trkpt><trkpt lat="45.8987577" lon="9.1373058"><ele>231.5</ele><time>2026-03-29T11:20:00.83Z</time></trkpt><trkpt lat="45.8988874" lon="9.1372026"><ele>232.75</ele><time>2026-03-29T11:20:01.837Z</time></trkpt><trkpt lat="45.8990045" lon="9.1371206"><ele>234.0</ele><time>2026-03-29T11:20:02.822Z</time></trkpt><trkpt lat="45.8991138" lon="9.1370714"><ele>234.0</ele><time>2026-03-29T11:20:03.86Z</time></trkpt><trkpt lat="45.8992433" lon="9.1370328"><ele>234.0</ele><time>2026-03-29T11:20:04.834Z</time></trkpt><trkpt lat="45.8993685" lon="9.1369751"><ele>234.0</ele><time>2026-03-29T11:20:05.84Z</time></trkpt><trkpt lat="45.8994998" lon="9.136927"><ele>234.0</ele><time>2026-03-29T11:20:06.834Z</time></trkpt><trkpt lat="45.8996502" lon="9.1368769"><ele>230.33333333333331</ele><time>2026-03-29T11:20:07.834Z</time></trkpt><trkpt lat="45.8997905" lon="9.1368406"><ele>226.66666666666666</ele><time>2026-03-29T11:20:08.831Z</time></trkpt><trkpt lat="45.8999518" lon="9.1368093"><ele>223.0</ele><time>2026-03-29T11:20:09.834Z</time></trkpt><trkpt lat="45.9001125" lon="9.1367056"><ele>225.5</ele><time>2026-03-29T11:20:10.838Z</time></trkpt><trkpt lat="45.9002154" lon="9.1366127"><ele>228.0</ele><time>2026-03-29T11:20:11.833Z</time></trkpt><trkpt lat="45.9003299" lon="9.136486"><ele>230.5</ele><time>2026-03-29T11:20:12.838Z</time></trkpt><trkpt lat="45.9004556" lon="9.1363681"><ele>233.0</ele><time>2026-03-29T11:20:13.834Z</time></trkpt><trkpt lat="45.9006055" lon="9.1362625"><ele>233.0</ele><time>2026-03-29T11:20:14.835Z</time></trkpt><trkpt lat="45.9007483" lon="9.1361729"><ele>233.0</ele><time>2026-03-29T11:20:15.831Z</time></trkpt><trkpt lat="45.9008846" lon="9.136063"><ele>233.0</ele><time>2026-03-29T11:20:16.833Z</time></trkpt><trkpt lat="45.9010351" lon="9.1359636"><ele>234.66666666666669</ele><time>2026-03-29T11:20:17.833Z</time></trkpt><trkpt lat="45.9011986" lon="9.1358698"><ele>236.33333333333331</ele><time>2026-03-29T11:20:18.833Z</time></trkpt><trkpt lat="45.9013427" lon="9.1357624"><ele>238.0</ele><time>2026-03-29T11:20:19.834Z</time></trkpt><trkpt lat="45.9014837" lon="9.1356437"><ele>238.0</ele><time>2026-03-29T11:20:20.837Z</time></trkpt><trkpt lat="45.9016451" lon="9.135503"><ele>238.0</ele><time>2026-03-29T11:20:21.832Z</time></trkpt><trkpt lat="45.9018072" lon="9.1353483"><ele>238.0</ele><time>2026-03-29T11:20:22.836Z</time></trkpt><trkpt lat="45.9019701" lon="9.1352189"><ele>241.0</ele><time>2026-03-29T11:20:23.839Z</time></trkpt><trkpt lat="45.9021286" lon="9.1350915"><ele>244.0</ele><time>2026-03-29T11:20:24.849Z</time></trkpt><trkpt lat="45.9022685" lon="9.134965"><ele>247.0</ele><time>2026-03-29T11:20:25.838Z</time></trkpt><trkpt lat="45.9024166" lon="9.1348532"><ele>247.0</ele><time>2026-03-29T11:20:26.831Z</time></trkpt><trkpt lat="45.9025614" lon="9.1347477"><ele>247.0</ele><time>2026-03-29T11:20:27.854Z</time></trkpt><trkpt lat="45.9026928" lon="9.1346611"><ele>247.0</ele><time>2026-03-29T11:20:28.831Z</time></trkpt><trkpt lat="45.9028229" lon="9.1345629"><ele>239.0</ele><time>2026-03-29T11:20:29.831Z</time></trkpt><trkpt lat="45.9029569" lon="9.1344481"><ele>231.0</ele><time>2026-03-29T11:20:30.83Z</time></trkpt><trkpt lat="45.9030912" lon="9.1343387"><ele>223.0</ele><time>2026-03-29T11:20:31.843Z</time></trkpt><trkpt lat="45.9032183" lon="9.1342445"><ele>223.0</ele><time>2026-03-29T11:20:32.832Z</time></trkpt><trkpt lat="45.9033348" lon="9.1342017"><ele>223.0</ele><time>2026-03-29T11:20:33.829Z</time></trkpt><trkpt lat="45.9034632" lon="9.1341407"><ele>223.0</ele><time>2026-03-29T11:20:34.829Z</time></trkpt><trkpt lat="45.9036017" lon="9.1340651"><ele>223.0</ele><time>2026-03-29T11:20:35.826Z</time></trkpt><trkpt lat="45.9037191" lon="9.1339388"><ele>226.66666666666666</ele><time>2026-03-29T11:20:36.837Z</time></trkpt><trkpt lat="45.9038478" lon="9.1338102"><ele>230.33333333333331</ele><time>2026-03-29T11:20:37.832Z</time></trkpt><trkpt lat="45.9039707" lon="9.1336853"><ele>234.0</ele><time>2026-03-29T11:20:38.84Z</time></trkpt><trkpt lat="45.904106" lon="9.1335453"><ele>234.0</ele><time>2026-03-29T11:20:39.829Z</time></trkpt><trkpt lat="45.9042417" lon="9.1334115"><ele>234.0</ele><time>2026-03-29T11:20:40.831Z</time></trkpt><trkpt lat="45.9043808" lon="9.1332765"><ele>234.0</ele><time>2026-03-29T11:20:41.833Z</time></trkpt><trkpt lat="45.9045211" lon="9.1331539"><ele>235.33333333333331</ele><time>2026-03-29T11:20:42.835Z</time></trkpt><trkpt lat="45.9046755" lon="9.1330623"><ele>236.66666666666666</ele><time>2026-03-29T11:20:43.832Z</time></trkpt><trkpt lat="45.9048395" lon="9.13299"><ele>238.0</ele><time>2026-03-29T11:20:44.835Z</time></trkpt><trkpt lat="45.9049952" lon="9.1328931"><ele>228.0</ele><time>2026-03-29T11:20:45.831Z</time></trkpt><trkpt lat="45.9051473" lon="9.1327142"><ele>218.0</ele><time>2026-03-29T11:20:46.832Z</time></trkpt><trkpt lat="45.9053004" lon="9.1325777"><ele>208.0</ele><time>2026-03-29T11:20:47.838Z</time></trkpt><trkpt lat="45.9054311" lon="9.1324188"><ele>214.66666666666666</ele><time>2026-03-29T11:20:48.837Z</time></trkpt><trkpt lat="45.9055605" lon="9.1322449"><ele>221.33333333333331</ele><time>2026-03-29T11:20:49.836Z</time></trkpt><trkpt lat="45.9056591" lon="9.1320892"><ele>228.0</ele><time>2026-03-29T11:20:50.86Z</time></trkpt><trkpt lat="45.9057861" lon="9.1319456"><ele>224.0</ele><time>2026-03-29T11:20:51.838Z</time></trkpt><trkpt lat="45.9059149" lon="9.1318379"><ele>220.0</ele><time>2026-03-29T11:20:52.834Z</time></trkpt><trkpt lat="45.9060734" lon="9.1317727"><ele>216.0</ele><time>2026-03-29T11:20:53.832Z</time></trkpt><trkpt lat="45.9062324" lon="9.1317356"><ele>216.0</ele><time>2026-03-29T11:20:54.831Z</time></trkpt><trkpt lat="45.9063853" lon="9.1316737"><ele>216.0</ele><time>2026-03-29T11:20:55.835Z</time></trkpt><trkpt lat="45.9065124" lon="9.1316085"><ele>216.0</ele><time>2026-03-29T11:20:56.831Z</time></trkpt><trkpt lat="45.9066736" lon="9.1315466"><ele>227.66666666666669</ele><time>2026-03-29T11:20:57.844Z</time></trkpt><trkpt lat="45.906838" lon="9.1315048"><ele>239.33333333333334</ele><time>2026-03-29T11:20:58.833Z</time></trkpt><trkpt lat="45.9069855" lon="9.1314622"><ele>251.0</ele><time>2026-03-29T11:20:59.843Z</time></trkpt><trkpt lat="45.9071171" lon="9.1314248"><ele>251.0</ele><time>2026-03-29T11:21:00.84Z</time></trkpt><trkpt lat="45.9072435" lon="9.1313939"><ele>251.0</ele><time>2026-03-29T11:21:01.861Z</time></trkpt><trkpt lat="45.9073915" lon="9.1313357"><ele>251.0</ele><time>2026-03-29T11:21:02.833Z</time></trkpt><trkpt lat="45.9075316" lon="9.1313058"><ele>251.0</ele><time>2026-03-29T11:21:03.843Z</time></trkpt><trkpt lat="45.9076742" lon="9.1312751"><ele>249.66666666666669</ele><time>2026-03-29T11:21:04.835Z</time></trkpt><trkpt lat="45.9078191" lon="9.1312376"><ele>248.33333333333331</ele><time>2026-03-29T11:21:05.836Z</time></trkpt><trkpt lat="45.9079707" lon="9.1312059"><ele>247.0</ele><time>2026-03-29T11:21:06.842Z</time></trkpt><trkpt lat="45.9081201" lon="9.1311633"><ele>247.0</ele><time>2026-03-29T11:21:07.833Z</time></trkpt><trkpt lat="45.9082795" lon="9.1311365"><ele>247.0</ele><time>2026-03-29T11:21:08.845Z</time></trkpt><trkpt lat="45.9084283" lon="9.131116"><ele>247.0</ele><time>2026-03-29T11:21:09.839Z</time></trkpt><trkpt lat="45.9085676" lon="9.1310906"><ele>244.5</ele><time>2026-03-29T11:21:10.844Z</time></trkpt><trkpt lat="45.9086921" lon="9.1310521"><ele>242.0</ele><time>2026-03-29T11:21:11.837Z</time></trkpt><trkpt lat="45.9088239" lon="9.1310117"><ele>239.5</ele><time>2026-03-29T11:21:12.847Z</time></trkpt><trkpt lat="45.9089414" lon="9.1309581"><ele>237.0</ele><time>2026-03-29T11:21:13.844Z</time></trkpt><trkpt lat="45.9090456" lon="9.1309096"><ele>237.0</ele><time>2026-03-29T11:21:14.845Z</time></trkpt><trkpt lat="45.9091414" lon="9.1309005"><ele>237.0</ele><time>2026-03-29T11:21:15.841Z</time></trkpt><trkpt lat="45.9092507" lon="9.1308944"><ele>237.0</ele><time>2026-03-29T11:21:16.845Z</time></trkpt><trkpt lat="45.9093595" lon="9.1309084"><ele>237.0</ele><time>2026-03-29T11:21:17.843Z</time></trkpt><trkpt lat="45.9094774" lon="9.1309158"><ele>237.0</ele><time>2026-03-29T11:21:18.857Z</time></trkpt><trkpt lat="45.909591" lon="9.1309294"><ele>237.0</ele><time>2026-03-29T11:21:19.84Z</time></trkpt><trkpt lat="45.9097009" lon="9.1309541"><ele>237.0</ele><time>2026-03-29T11:21:20.834Z</time></trkpt><trkpt lat="45.9098001" lon="9.1309878"><ele>237.0</ele><time>2026-03-29T11:21:21.835Z</time></trkpt><trkpt lat="45.9099006" lon="9.1310199"><ele>237.0</ele><time>2026-03-29T11:21:22.835Z</time></trkpt><trkpt lat="45.909994" lon="9.1310653"><ele>237.0</ele><time>2026-03-29T11:21:23.839Z</time></trkpt><trkpt lat="45.9100803" lon="9.1311181"><ele>238.33333333333334</ele><time>2026-03-29T11:21:24.837Z</time></trkpt><trkpt lat="45.9101637" lon="9.1311787"><ele>239.66666666666669</ele><time>2026-03-29T11:21:25.852Z</time></trkpt><trkpt lat="45.9102561" lon="9.1312403"><ele>241.0</ele><time>2026-03-29T11:21:26.832Z</time></trkpt><trkpt lat="45.9103424" lon="9.1312957"><ele>242.33333333333334</ele><time>2026-03-29T11:21:27.83Z</time></trkpt><trkpt lat="45.9104138" lon="9.1313367"><ele>243.66666666666669</ele><time>2026-03-29T11:21:28.833Z</time></trkpt><trkpt lat="45.9104863" lon="9.1313752"><ele>245.0</ele><time>2026-03-29T11:21:29.823Z</time></trkpt><trkpt lat="45.9105576" lon="9.1314029"><ele>245.00000000000003</ele><time>2026-03-29T11:21:30.831Z</time></trkpt><trkpt lat="45.9106445" lon="9.1314109"><ele>245.0</ele><time>2026-03-29T11:21:31.822Z</time></trkpt><trkpt lat="45.9107318" lon="9.1313922"><ele>245.0</ele><time>2026-03-29T11:21:32.829Z</time></trkpt><trkpt lat="45.9108082" lon="9.1313713"><ele>245.0</ele><time>2026-03-29T11:21:33.829Z</time></trkpt><trkpt lat="45.910881" lon="9.1313471"><ele>245.00000000000003</ele><time>2026-03-29T11:21:34.823Z</time></trkpt><trkpt lat="45.9109464" lon="9.1313176"><ele>245.0</ele><time>2026-03-29T11:21:35.823Z</time></trkpt><trkpt lat="45.9110462" lon="9.1313289"><ele>245.6</ele><time>2026-03-29T11:21:37.861Z</time></trkpt><trkpt lat="45.9111507" lon="9.1313814"><ele>246.2</ele><time>2026-03-29T11:21:39.832Z</time></trkpt><trkpt lat="45.911263" lon="9.1314312"><ele>246.8</ele><time>2026-03-29T11:21:41.834Z</time></trkpt><trkpt lat="45.9113786" lon="9.1314529"><ele>247.4</ele><time>2026-03-29T11:21:43.845Z</time></trkpt><trkpt lat="45.9114426" lon="9.1314436"><ele>248.0</ele><time>2026-03-29T11:21:44.832Z</time></trkpt><trkpt lat="45.9115065" lon="9.1314145"><ele>248.00000000000003</ele><time>2026-03-29T11:21:45.837Z</time></trkpt><trkpt lat="45.9115674" lon="9.1313759"><ele>248.0</ele><time>2026-03-29T11:21:46.832Z</time></trkpt><trkpt lat="45.9116752" lon="9.1313321"><ele>248.0</ele><time>2026-03-29T11:21:48.833Z</time></trkpt><trkpt lat="45.9117977" lon="9.131367"><ele>248.0</ele><time>2026-03-29T11:21:50.835Z</time></trkpt><trkpt lat="45.9118617" lon="9.1314137"><ele>248.00000000000003</ele><time>2026-03-29T11:21:51.83Z</time></trkpt><trkpt lat="45.9119272" lon="9.1314567"><ele>248.0</ele><time>2026-03-29T11:21:52.837Z</time></trkpt><trkpt lat="45.9120029" lon="9.1314785"><ele>248.50000000000003</ele><time>2026-03-29T11:21:53.825Z</time></trkpt><trkpt lat="45.9120755" lon="9.1314901"><ele>249.0</ele><time>2026-03-29T11:21:54.83Z</time></trkpt><trkpt lat="45.9121536" lon="9.131492"><ele>249.5</ele><time>2026-03-29T11:21:55.904Z</time></trkpt><trkpt lat="45.9122289" lon="9.1314812"><ele>250.0</ele><time>2026-03-29T11:21:56.828Z</time></trkpt><trkpt lat="45.9123052" lon="9.1314818"><ele>250.50000000000003</ele><time>2026-03-29T11:21:57.832Z</time></trkpt><trkpt lat="45.9123901" lon="9.1314794"><ele>251.0</ele><time>2026-03-29T11:21:58.984Z</time></trkpt><trkpt lat="45.912555" lon="9.1314891"><ele>252.75</ele><time>2026-03-29T11:22:00.991Z</time></trkpt><trkpt lat="45.9126361" lon="9.1314992"><ele>254.5</ele><time>2026-03-29T11:22:01.987Z</time></trkpt><trkpt lat="45.9127825" lon="9.1315286"><ele>256.25</ele><time>2026-03-29T11:22:03.983Z</time></trkpt><trkpt lat="45.9129537" lon="9.1315079"><ele>258.0</ele><time>2026-03-29T11:22:05.826Z</time></trkpt><trkpt lat="45.9130355" lon="9.1315005"><ele>258.0</ele><time>2026-03-29T11:22:06.988Z</time></trkpt><trkpt lat="45.9132075" lon="9.1314841"><ele>258.0</ele><time>2026-03-29T11:22:08.982Z</time></trkpt><trkpt lat="45.9132964" lon="9.1314987"><ele>258.0</ele><time>2026-03-29T11:22:09.985Z</time></trkpt><trkpt lat="45.9133789" lon="9.1314873"><ele>258.0</ele><time>2026-03-29T11:22:10.984Z</time></trkpt><trkpt lat="45.9135659" lon="9.131491"><ele>251.75</ele><time>2026-03-29T11:22:12.978Z</time></trkpt><trkpt lat="45.9137632" lon="9.1316065"><ele>245.5</ele><time>2026-03-29T11:22:14.823Z</time></trkpt><trkpt lat="45.9138569" lon="9.1316949"><ele>239.25</ele><time>2026-03-29T11:22:15.833Z</time></trkpt><trkpt lat="45.913953" lon="9.1317874"><ele>233.0</ele><time>2026-03-29T11:22:16.833Z</time></trkpt><trkpt lat="45.9140479" lon="9.1318918"><ele>233.0</ele><time>2026-03-29T11:22:17.839Z</time></trkpt><trkpt lat="45.9141454" lon="9.1319849"><ele>233.0</ele><time>2026-03-29T11:22:18.835Z</time></trkpt><trkpt lat="45.9142481" lon="9.1320555"><ele>233.0</ele><time>2026-03-29T11:22:19.837Z</time></trkpt><trkpt lat="45.9143436" lon="9.1321062"><ele>233.0</ele><time>2026-03-29T11:22:20.839Z</time></trkpt><trkpt lat="45.9144389" lon="9.1321256"><ele>233.0</ele><time>2026-03-29T11:22:21.84Z</time></trkpt><trkpt lat="45.9145274" lon="9.1321215"><ele>234.83333333333334</ele><time>2026-03-29T11:22:22.845Z</time></trkpt><trkpt lat="45.9146125" lon="9.1320928"><ele>236.66666666666669</ele><time>2026-03-29T11:22:23.833Z</time></trkpt><trkpt lat="45.9146934" lon="9.132057"><ele>238.5</ele><time>2026-03-29T11:22:24.829Z</time></trkpt><trkpt lat="45.9147768" lon="9.1320148"><ele>240.33333333333331</ele><time>2026-03-29T11:22:25.832Z</time></trkpt><trkpt lat="45.91486" lon="9.1319737"><ele>242.16666666666666</ele><time>2026-03-29T11:22:26.817Z</time></trkpt><trkpt lat="45.9149432" lon="9.1319316"><ele>244.0</ele><time>2026-03-29T11:22:27.819Z</time></trkpt><trkpt lat="45.9150276" lon="9.131894"><ele>244.5</ele><time>2026-03-29T11:22:28.811Z</time></trkpt><trkpt lat="45.9151123" lon="9.1318564"><ele>245.0</ele><time>2026-03-29T11:22:29.798Z</time></trkpt><trkpt lat="45.9153118" lon="9.1317576"><ele>245.5</ele><time>2026-03-29T11:22:31.815Z</time></trkpt><trkpt lat="45.9154566" lon="9.1317166"><ele>246.0</ele><time>2026-03-29T11:22:33.853Z</time></trkpt><trkpt lat="45.9155281" lon="9.1317579"><ele>246.0</ele><time>2026-03-29T11:22:34.824Z</time></trkpt><trkpt lat="45.9156091" lon="9.131843"><ele>246.00000000000003</ele><time>2026-03-29T11:22:35.819Z</time></trkpt><trkpt lat="45.9156856" lon="9.131933"><ele>246.00000000000003</ele><time>2026-03-29T11:22:36.827Z</time></trkpt><trkpt lat="45.9157678" lon="9.1320066"><ele>246.0</ele><time>2026-03-29T11:22:37.82Z</time></trkpt><trkpt lat="45.9158601" lon="9.1320416"><ele>246.0</ele><time>2026-03-29T11:22:38.832Z</time></trkpt><trkpt lat="45.9159633" lon="9.1320447"><ele>249.5</ele><time>2026-03-29T11:22:39.834Z</time></trkpt><trkpt lat="45.9160708" lon="9.1320401"><ele>253.0</ele><time>2026-03-29T11:22:40.845Z</time></trkpt><trkpt lat="45.9161819" lon="9.1320458"><ele>256.5</ele><time>2026-03-29T11:22:41.837Z</time></trkpt><trkpt lat="45.9162965" lon="9.1320591"><ele>260.0</ele><time>2026-03-29T11:22:42.837Z</time></trkpt><trkpt lat="45.9164209" lon="9.132062"><ele>260.0</ele><time>2026-03-29T11:22:43.836Z</time></trkpt><trkpt lat="45.916549" lon="9.1320657"><ele>260.0</ele><time>2026-03-29T11:22:44.839Z</time></trkpt><trkpt lat="45.9166771" lon="9.1320713"><ele>260.0</ele><time>2026-03-29T11:22:45.834Z</time></trkpt><trkpt lat="45.9168071" lon="9.1320748"><ele>260.0</ele><time>2026-03-29T11:22:46.845Z</time></trkpt><trkpt lat="45.9169338" lon="9.1320736"><ele>262.5</ele><time>2026-03-29T11:22:47.838Z</time></trkpt><trkpt lat="45.9170634" lon="9.1320788"><ele>265.0</ele><time>2026-03-29T11:22:48.84Z</time></trkpt><trkpt lat="45.9172004" lon="9.1320807"><ele>267.5</ele><time>2026-03-29T11:22:49.84Z</time></trkpt><trkpt lat="45.917344" lon="9.1320686"><ele>270.0</ele><time>2026-03-29T11:22:50.832Z</time></trkpt><trkpt lat="45.917506" lon="9.1321034"><ele>267.25</ele><time>2026-03-29T11:22:51.837Z</time></trkpt><trkpt lat="45.9176366" lon="9.1321304"><ele>264.5</ele><time>2026-03-29T11:22:52.84Z</time></trkpt><trkpt lat="45.9177598" lon="9.1321795"><ele>261.75</ele><time>2026-03-29T11:22:53.838Z</time></trkpt><trkpt lat="45.9178827" lon="9.1322244"><ele>259.0</ele><time>2026-03-29T11:22:54.837Z</time></trkpt><trkpt lat="45.9179974" lon="9.1322627"><ele>259.0</ele><time>2026-03-29T11:22:55.837Z</time></trkpt><trkpt lat="45.9181082" lon="9.1322797"><ele>259.0</ele><time>2026-03-29T11:22:56.839Z</time></trkpt><trkpt lat="45.9182229" lon="9.132271"><ele>259.0</ele><time>2026-03-29T11:22:57.835Z</time></trkpt><trkpt lat="45.918337" lon="9.1322488"><ele>259.0</ele><time>2026-03-29T11:22:58.837Z</time></trkpt><trkpt lat="45.9184556" lon="9.1322321"><ele>253.25</ele><time>2026-03-29T11:22:59.842Z</time></trkpt><trkpt lat="45.9185803" lon="9.1322129"><ele>247.5</ele><time>2026-03-29T11:23:00.844Z</time></trkpt><trkpt lat="45.918711" lon="9.1321884"><ele>241.75</ele><time>2026-03-29T11:23:01.836Z</time></trkpt><trkpt lat="45.918844" lon="9.1321659"><ele>236.0</ele><time>2026-03-29T11:23:02.841Z</time></trkpt><trkpt lat="45.9189718" lon="9.1321441"><ele>236.0</ele><time>2026-03-29T11:23:03.845Z</time></trkpt><trkpt lat="45.919091" lon="9.1321159"><ele>236.00000000000003</ele><time>2026-03-29T11:23:04.848Z</time></trkpt><trkpt lat="45.9192058" lon="9.1320767"><ele>236.00000000000003</ele><time>2026-03-29T11:23:05.842Z</time></trkpt><trkpt lat="45.9193076" lon="9.1320301"><ele>236.0</ele><time>2026-03-29T11:23:06.862Z</time></trkpt><trkpt lat="45.9193951" lon="9.131978"><ele>236.0</ele><time>2026-03-29T11:23:07.843Z</time></trkpt><trkpt lat="45.9194755" lon="9.1319298"><ele>233.20000000000002</ele><time>2026-03-29T11:23:08.836Z</time></trkpt><trkpt lat="45.9195433" lon="9.1318889"><ele>230.40000000000003</ele><time>2026-03-29T11:23:09.856Z</time></trkpt><trkpt lat="45.9196165" lon="9.1318416"><ele>227.6</ele><time>2026-03-29T11:23:10.84Z</time></trkpt><trkpt lat="45.9196983" lon="9.1317876"><ele>224.8</ele><time>2026-03-29T11:23:11.834Z</time></trkpt><trkpt lat="45.9197984" lon="9.1317332"><ele>222.0</ele><time>2026-03-29T11:23:12.843Z</time></trkpt><trkpt lat="45.9199143" lon="9.1316811"><ele>222.0</ele><time>2026-03-29T11:23:13.84Z</time></trkpt><trkpt lat="45.9200378" lon="9.1316321"><ele>222.0</ele><time>2026-03-29T11:23:14.843Z</time></trkpt><trkpt lat="45.9201658" lon="9.1315934"><ele>222.0</ele><time>2026-03-29T11:23:15.837Z</time></trkpt><trkpt lat="45.9202919" lon="9.1315548"><ele>222.0</ele><time>2026-03-29T11:23:16.84Z</time></trkpt><trkpt lat="45.9204285" lon="9.1315239"><ele>220.0</ele><time>2026-03-29T11:23:17.838Z</time></trkpt><trkpt lat="45.9205704" lon="9.131548"><ele>218.0</ele><time>2026-03-29T11:23:18.842Z</time></trkpt><trkpt lat="45.9207198" lon="9.1315934"><ele>216.0</ele><time>2026-03-29T11:23:19.843Z</time></trkpt><trkpt lat="45.9208791" lon="9.1316056"><ele>216.5</ele><time>2026-03-29T11:23:20.849Z</time></trkpt><trkpt lat="45.9210193" lon="9.1315853"><ele>217.0</ele><time>2026-03-29T11:23:21.834Z</time></trkpt><trkpt lat="45.9211632" lon="9.1315415"><ele>217.5</ele><time>2026-03-29T11:23:22.856Z</time></trkpt><trkpt lat="45.9213053" lon="9.1314948"><ele>218.0</ele><time>2026-03-29T11:23:23.833Z</time></trkpt><trkpt lat="45.9214461" lon="9.1314316"><ele>226.5</ele><time>2026-03-29T11:23:24.869Z</time></trkpt><trkpt lat="45.9215822" lon="9.1313727"><ele>235.0</ele><time>2026-03-29T11:23:25.837Z</time></trkpt><trkpt lat="45.9217028" lon="9.1313163"><ele>243.5</ele><time>2026-03-29T11:23:26.84Z</time></trkpt><trkpt lat="45.9218235" lon="9.1312696"><ele>252.0</ele><time>2026-03-29T11:23:27.839Z</time></trkpt><trkpt lat="45.9219578" lon="9.1312551"><ele>254.66666666666669</ele><time>2026-03-29T11:23:28.829Z</time></trkpt><trkpt lat="45.9221035" lon="9.1312958"><ele>257.33333333333337</ele><time>2026-03-29T11:23:29.826Z</time></trkpt><trkpt lat="45.9222724" lon="9.1313757"><ele>260.0</ele><time>2026-03-29T11:23:30.832Z</time></trkpt><trkpt lat="45.9224424" lon="9.1314058"><ele>259.0</ele><time>2026-03-29T11:23:31.837Z</time></trkpt><trkpt lat="45.9226032" lon="9.13144"><ele>258.0</ele><time>2026-03-29T11:23:32.837Z</time></trkpt><trkpt lat="45.9227416" lon="9.1314896"><ele>257.0</ele><time>2026-03-29T11:23:33.841Z</time></trkpt><trkpt lat="45.9228647" lon="9.1315137"><ele>256.0</ele><time>2026-03-29T11:23:34.834Z</time></trkpt><trkpt lat="45.9229793" lon="9.1315262"><ele>256.0</ele><time>2026-03-29T11:23:35.844Z</time></trkpt><trkpt lat="45.923104" lon="9.1315447"><ele>256.0</ele><time>2026-03-29T11:23:36.837Z</time></trkpt><trkpt lat="45.9232486" lon="9.1315441"><ele>256.0</ele><time>2026-03-29T11:23:37.842Z</time></trkpt><trkpt lat="45.9233941" lon="9.1315068"><ele>256.0</ele><time>2026-03-29T11:23:38.843Z</time></trkpt><trkpt lat="45.923543" lon="9.1314658"><ele>254.75</ele><time>2026-03-29T11:23:39.843Z</time></trkpt><trkpt lat="45.9236668" lon="9.1314425"><ele>253.5</ele><time>2026-03-29T11:23:40.854Z</time></trkpt><trkpt lat="45.9238011" lon="9.1313866"><ele>252.25</ele><time>2026-03-29T11:23:41.843Z</time></trkpt><trkpt lat="45.9239249" lon="9.1313334"><ele>251.0</ele><time>2026-03-29T11:23:42.845Z</time></trkpt><trkpt lat="45.9240373" lon="9.1312794"><ele>251.0</ele><time>2026-03-29T11:23:43.868Z</time></trkpt><trkpt lat="45.9241488" lon="9.1312292"><ele>251.0</ele><time>2026-03-29T11:23:44.84Z</time></trkpt><trkpt lat="45.9242654" lon="9.1311777"><ele>251.0</ele><time>2026-03-29T11:23:45.843Z</time></trkpt><trkpt lat="45.9243883" lon="9.1311318"><ele>251.0</ele><time>2026-03-29T11:23:46.834Z</time></trkpt><trkpt lat="45.924502" lon="9.1310663"><ele>247.0</ele><time>2026-03-29T11:23:47.842Z</time></trkpt><trkpt lat="45.9246113" lon="9.131009"><ele>243.0</ele><time>2026-03-29T11:23:48.837Z</time></trkpt><trkpt lat="45.9247252" lon="9.1309626"><ele>239.0</ele><time>2026-03-29T11:23:49.837Z</time></trkpt><trkpt lat="45.9248431" lon="9.1309247"><ele>235.0</ele><time>2026-03-29T11:23:50.859Z</time></trkpt><trkpt lat="45.9249614" lon="9.1309209"><ele>234.0</ele><time>2026-03-29T11:23:51.869Z</time></trkpt><trkpt lat="45.9250843" lon="9.1309597"><ele>233.0</ele><time>2026-03-29T11:23:52.836Z</time></trkpt><trkpt lat="45.9252075" lon="9.1310179"><ele>232.0</ele><time>2026-03-29T11:23:53.845Z</time></trkpt><trkpt lat="45.925338" lon="9.1310794"><ele>231.0</ele><time>2026-03-29T11:23:54.836Z</time></trkpt><trkpt lat="45.9254819" lon="9.1311386"><ele>231.0</ele><time>2026-03-29T11:23:55.846Z</time></trkpt><trkpt lat="45.9256317" lon="9.1311418"><ele>231.0</ele><time>2026-03-29T11:23:56.834Z</time></trkpt><trkpt lat="45.9257782" lon="9.1311319"><ele>231.0</ele><time>2026-03-29T11:23:57.831Z</time></trkpt><trkpt lat="45.9259146" lon="9.1311062"><ele>231.0</ele><time>2026-03-29T11:23:58.842Z</time></trkpt><trkpt lat="45.9260492" lon="9.1310624"><ele>229.25</ele><time>2026-03-29T11:23:59.835Z</time></trkpt><trkpt lat="45.9261794" lon="9.1310154"><ele>227.5</ele><time>2026-03-29T11:24:00.838Z</time></trkpt><trkpt lat="45.9263067" lon="9.1309805"><ele>225.75</ele><time>2026-03-29T11:24:01.846Z</time></trkpt><trkpt lat="45.9264226" lon="9.1309778"><ele>224.0</ele><time>2026-03-29T11:24:02.857Z</time></trkpt><trkpt lat="45.9265401" lon="9.130955"><ele>224.0</ele><time>2026-03-29T11:24:03.838Z</time></trkpt><trkpt lat="45.9266582" lon="9.1309074"><ele>224.0</ele><time>2026-03-29T11:24:04.832Z</time></trkpt><trkpt lat="45.926783" lon="9.1308279"><ele>224.0</ele><time>2026-03-29T11:24:05.837Z</time></trkpt><trkpt lat="45.9268883" lon="9.1307484"><ele>224.0</ele><time>2026-03-29T11:24:06.843Z</time></trkpt><trkpt lat="45.9269926" lon="9.1306536"><ele>230.75</ele><time>2026-03-29T11:24:07.836Z</time></trkpt><trkpt lat="45.9270928" lon="9.130562"><ele>237.5</ele><time>2026-03-29T11:24:08.842Z</time></trkpt><trkpt lat="45.9271999" lon="9.1304718"><ele>244.25</ele><time>2026-03-29T11:24:09.829Z</time></trkpt><trkpt lat="45.9273156" lon="9.1304029"><ele>251.0</ele><time>2026-03-29T11:24:10.829Z</time></trkpt><trkpt lat="45.9274221" lon="9.1303594"><ele>251.0</ele><time>2026-03-29T11:24:11.827Z</time></trkpt><trkpt lat="45.9275151" lon="9.1303319"><ele>251.00000000000003</ele><time>2026-03-29T11:24:12.841Z</time></trkpt><trkpt lat="45.9276031" lon="9.1302971"><ele>251.00000000000003</ele><time>2026-03-29T11:24:13.84Z</time></trkpt><trkpt lat="45.9276992" lon="9.130255"><ele>251.0</ele><time>2026-03-29T11:24:14.84Z</time></trkpt><trkpt lat="45.9278" lon="9.1302063"><ele>251.0</ele><time>2026-03-29T11:24:15.838Z</time></trkpt><trkpt lat="45.9279041" lon="9.1301614"><ele>244.8</ele><time>2026-03-29T11:24:16.84Z</time></trkpt><trkpt lat="45.9280114" lon="9.1301119"><ele>238.60000000000002</ele><time>2026-03-29T11:24:17.839Z</time></trkpt><trkpt lat="45.928115" lon="9.1300686"><ele>232.4</ele><time>2026-03-29T11:24:18.823Z</time></trkpt><trkpt lat="45.9282161" lon="9.1300285"><ele>226.2</ele><time>2026-03-29T11:24:19.858Z</time></trkpt><trkpt lat="45.9283232" lon="9.1299888"><ele>220.0</ele><time>2026-03-29T11:24:20.837Z</time></trkpt><trkpt lat="45.9284414" lon="9.1299403"><ele>228.0</ele><time>2026-03-29T11:24:21.837Z</time></trkpt><trkpt lat="45.9285711" lon="9.1298858"><ele>236.0</ele><time>2026-03-29T11:24:22.833Z</time></trkpt><trkpt lat="45.9287122" lon="9.1298302"><ele>244.0</ele><time>2026-03-29T11:24:23.84Z</time></trkpt><trkpt lat="45.928875" lon="9.129788"><ele>252.0</ele><time>2026-03-29T11:24:24.84Z</time></trkpt><trkpt lat="45.9290208" lon="9.1297552"><ele>252.0</ele><time>2026-03-29T11:24:25.842Z</time></trkpt><trkpt lat="45.9291557" lon="9.1297178"><ele>252.0</ele><time>2026-03-29T11:24:26.842Z</time></trkpt><trkpt lat="45.9292794" lon="9.129663"><ele>252.0</ele><time>2026-03-29T11:24:27.838Z</time></trkpt><trkpt lat="45.9294092" lon="9.1296073"><ele>252.0</ele><time>2026-03-29T11:24:28.837Z</time></trkpt><trkpt lat="45.929535" lon="9.129554"><ele>240.66666666666669</ele><time>2026-03-29T11:24:29.836Z</time></trkpt><trkpt lat="45.9296627" lon="9.129486"><ele>229.33333333333334</ele><time>2026-03-29T11:24:30.84Z</time></trkpt><trkpt lat="45.9297955" lon="9.1293496"><ele>218.0</ele><time>2026-03-29T11:24:31.832Z</time></trkpt><trkpt lat="45.9299053" lon="9.1291985"><ele>223.25</ele><time>2026-03-29T11:24:32.831Z</time></trkpt><trkpt lat="45.9300188" lon="9.1290292"><ele>228.5</ele><time>2026-03-29T11:24:33.841Z</time></trkpt><trkpt lat="45.9301367" lon="9.1289078"><ele>233.75</ele><time>2026-03-29T11:24:34.828Z</time></trkpt><trkpt lat="45.9302301" lon="9.1287983"><ele>239.0</ele><time>2026-03-29T11:24:35.993Z</time></trkpt><trkpt lat="45.9303308" lon="9.1287074"><ele>239.0</ele><time>2026-03-29T11:24:36.895Z</time></trkpt><trkpt lat="45.9304178" lon="9.1286588"><ele>239.0</ele><time>2026-03-29T11:24:37.827Z</time></trkpt><trkpt lat="45.9305347" lon="9.1286082"><ele>239.0</ele><time>2026-03-29T11:24:38.826Z</time></trkpt><trkpt lat="45.9306657" lon="9.1285842"><ele>239.0</ele><time>2026-03-29T11:24:39.85Z</time></trkpt><trkpt lat="45.9307912" lon="9.1285728"><ele>234.75</ele><time>2026-03-29T11:24:40.851Z</time></trkpt><trkpt lat="45.9308982" lon="9.1285477"><ele>230.5</ele><time>2026-03-29T11:24:41.825Z</time></trkpt><trkpt lat="45.9310154" lon="9.1285108"><ele>226.25</ele><time>2026-03-29T11:24:42.835Z</time></trkpt><trkpt lat="45.9311315" lon="9.1284773"><ele>222.0</ele><time>2026-03-29T11:24:43.833Z</time></trkpt><trkpt lat="45.9312461" lon="9.1284504"><ele>222.0</ele><time>2026-03-29T11:24:44.829Z</time></trkpt><trkpt lat="45.9313644" lon="9.128429"><ele>222.0</ele><time>2026-03-29T11:24:45.843Z</time></trkpt><trkpt lat="45.931475" lon="9.1284009"><ele>222.0</ele><time>2026-03-29T11:24:46.831Z</time></trkpt><trkpt lat="45.9315782" lon="9.1283746"><ele>222.0</ele><time>2026-03-29T11:24:47.844Z</time></trkpt><trkpt lat="45.9316796" lon="9.1283517"><ele>222.0</ele><time>2026-03-29T11:24:48.833Z</time></trkpt><trkpt lat="45.9317835" lon="9.1283269"><ele>222.39999999999998</ele><time>2026-03-29T11:24:49.837Z</time></trkpt><trkpt lat="45.9318875" lon="9.1283068"><ele>222.79999999999998</ele><time>2026-03-29T11:24:50.838Z</time></trkpt><trkpt lat="45.931994" lon="9.1283038"><ele>223.2</ele><time>2026-03-29T11:24:51.837Z</time></trkpt><trkpt lat="45.9321036" lon="9.1283298"><ele>223.6</ele><time>2026-03-29T11:24:52.847Z</time></trkpt><trkpt lat="45.9322215" lon="9.1283704"><ele>224.0</ele><time>2026-03-29T11:24:53.843Z</time></trkpt><trkpt lat="45.9323491" lon="9.1284218"><ele>224.0</ele><time>2026-03-29T11:24:54.858Z</time></trkpt><trkpt lat="45.9324824" lon="9.1284743"><ele>224.0</ele><time>2026-03-29T11:24:55.863Z</time></trkpt><trkpt lat="45.93262" lon="9.1285231"><ele>224.0</ele><time>2026-03-29T11:24:56.836Z</time></trkpt><trkpt lat="45.9327615" lon="9.1285923"><ele>224.0</ele><time>2026-03-29T11:24:57.845Z</time></trkpt><trkpt lat="45.9328914" lon="9.1286465"><ele>224.25</ele><time>2026-03-29T11:24:58.836Z</time></trkpt><trkpt lat="45.9330215" lon="9.1286742"><ele>224.5</ele><time>2026-03-29T11:24:59.845Z</time></trkpt><trkpt lat="45.9331704" lon="9.1286983"><ele>224.75</ele><time>2026-03-29T11:25:00.832Z</time></trkpt><trkpt lat="45.9333102" lon="9.1286694"><ele>225.0</ele><time>2026-03-29T11:25:01.846Z</time></trkpt><trkpt lat="45.93342" lon="9.1286181"><ele>223.5</ele><time>2026-03-29T11:25:02.834Z</time></trkpt><trkpt lat="45.9335224" lon="9.1285523"><ele>222.0</ele><time>2026-03-29T11:25:03.841Z</time></trkpt><trkpt lat="45.9336355" lon="9.1285102"><ele>220.5</ele><time>2026-03-29T11:25:04.839Z</time></trkpt><trkpt lat="45.9337514" lon="9.1284659"><ele>219.0</ele><time>2026-03-29T11:25:05.845Z</time></trkpt><trkpt lat="45.9338642" lon="9.1284246"><ele>219.0</ele><time>2026-03-29T11:25:06.838Z</time></trkpt><trkpt lat="45.9339757" lon="9.1283818"><ele>219.0</ele><time>2026-03-29T11:25:07.838Z</time></trkpt><trkpt lat="45.9340864" lon="9.1283461"><ele>219.0</ele><time>2026-03-29T11:25:08.845Z</time></trkpt><trkpt lat="45.9341961" lon="9.1283064"><ele>219.0</ele><time>2026-03-29T11:25:09.836Z</time></trkpt><trkpt lat="45.9343119" lon="9.1282702"><ele>217.25</ele><time>2026-03-29T11:25:10.841Z</time></trkpt><trkpt lat="45.9344267" lon="9.1282397"><ele>215.5</ele><time>2026-03-29T11:25:11.845Z</time></trkpt><trkpt lat="45.9345492" lon="9.1282208"><ele>213.75</ele><time>2026-03-29T11:25:12.834Z</time></trkpt><trkpt lat="45.9346821" lon="9.1282016"><ele>212.0</ele><time>2026-03-29T11:25:13.835Z</time></trkpt><trkpt lat="45.9348193" lon="9.1281969"><ele>215.33333333333334</ele><time>2026-03-29T11:25:14.84Z</time></trkpt><trkpt lat="45.9349622" lon="9.1281987"><ele>218.66666666666669</ele><time>2026-03-29T11:25:15.829Z</time></trkpt><trkpt lat="45.9351265" lon="9.1282458"><ele>222.0</ele><time>2026-03-29T11:25:16.844Z</time></trkpt><trkpt lat="45.9352819" lon="9.1282805"><ele>222.0</ele><time>2026-03-29T11:25:17.842Z</time></trkpt><trkpt lat="45.9354383" lon="9.128295"><ele>222.0</ele><time>2026-03-29T11:25:18.842Z</time></trkpt><trkpt lat="45.9355901" lon="9.1283231"><ele>222.0</ele><time>2026-03-29T11:25:19.84Z</time></trkpt><trkpt lat="45.9357177" lon="9.1283497"><ele>222.0</ele><time>2026-03-29T11:25:20.841Z</time></trkpt><trkpt lat="45.9358187" lon="9.1283581"><ele>224.6</ele><time>2026-03-29T11:25:21.841Z</time></trkpt><trkpt lat="45.9359156" lon="9.1283691"><ele>227.2</ele><time>2026-03-29T11:25:22.84Z</time></trkpt><trkpt lat="45.9360125" lon="9.128391"><ele>229.8</ele><time>2026-03-29T11:25:23.835Z</time></trkpt><trkpt lat="45.9361175" lon="9.1284022"><ele>232.4</ele><time>2026-03-29T11:25:24.84Z</time></trkpt><trkpt lat="45.9362297" lon="9.1284294"><ele>235.0</ele><time>2026-03-29T11:25:25.843Z</time></trkpt><trkpt lat="45.9363459" lon="9.1284614"><ele>235.0</ele><time>2026-03-29T11:25:26.839Z</time></trkpt><trkpt lat="45.9364679" lon="9.1284847"><ele>235.0</ele><time>2026-03-29T11:25:27.842Z</time></trkpt><trkpt lat="45.9365908" lon="9.1285076"><ele>235.0</ele><time>2026-03-29T11:25:28.841Z</time></trkpt><trkpt lat="45.9367117" lon="9.1285193"><ele>235.0</ele><time>2026-03-29T11:25:29.838Z</time></trkpt><trkpt lat="45.9368354" lon="9.1285105"><ele>230.75</ele><time>2026-03-29T11:25:30.829Z</time></trkpt><trkpt lat="45.9369669" lon="9.1284683"><ele>226.5</ele><time>2026-03-29T11:25:31.845Z</time></trkpt><trkpt lat="45.9371011" lon="9.1284082"><ele>222.25</ele><time>2026-03-29T11:25:32.844Z</time></trkpt><trkpt lat="45.9372316" lon="9.1283453"><ele>218.0</ele><time>2026-03-29T11:25:33.834Z</time></trkpt><trkpt lat="45.9373586" lon="9.12829"><ele>218.0</ele><time>2026-03-29T11:25:34.847Z</time></trkpt><trkpt lat="45.9374858" lon="9.1282401"><ele>218.0</ele><time>2026-03-29T11:25:35.841Z</time></trkpt><trkpt lat="45.9376073" lon="9.1281942"><ele>218.0</ele><time>2026-03-29T11:25:36.844Z</time></trkpt><trkpt lat="45.9377256" lon="9.1281583"><ele>218.0</ele><time>2026-03-29T11:25:37.836Z</time></trkpt><trkpt lat="45.9378449" lon="9.1281337"><ele>226.25</ele><time>2026-03-29T11:25:38.839Z</time></trkpt><trkpt lat="45.9379622" lon="9.1281177"><ele>234.5</ele><time>2026-03-29T11:25:39.833Z</time></trkpt><trkpt lat="45.9380807" lon="9.1280944"><ele>242.75</ele><time>2026-03-29T11:25:40.841Z</time></trkpt><trkpt lat="45.9382113" lon="9.1280815"><ele>251.0</ele><time>2026-03-29T11:25:41.837Z</time></trkpt><trkpt lat="45.9383425" lon="9.1280654"><ele>252.75</ele><time>2026-03-29T11:25:42.843Z</time></trkpt><trkpt lat="45.9384743" lon="9.128043"><ele>254.5</ele><time>2026-03-29T11:25:43.833Z</time></trkpt><trkpt lat="45.9386042" lon="9.1280262"><ele>256.25</ele><time>2026-03-29T11:25:44.828Z</time></trkpt><trkpt lat="45.9387339" lon="9.1280215"><ele>258.0</ele><time>2026-03-29T11:25:45.835Z</time></trkpt><trkpt lat="45.9388636" lon="9.1280054"><ele>258.0</ele><time>2026-03-29T11:25:46.841Z</time></trkpt><trkpt lat="45.9389872" lon="9.1279857"><ele>258.0</ele><time>2026-03-29T11:25:47.847Z</time></trkpt><trkpt lat="45.9391048" lon="9.12797"><ele>258.0</ele><time>2026-03-29T11:25:48.835Z</time></trkpt><trkpt lat="45.9392177" lon="9.1279655"><ele>258.0</ele><time>2026-03-29T11:25:49.842Z</time></trkpt><trkpt lat="45.9393319" lon="9.1279535"><ele>256.2</ele><time>2026-03-29T11:25:50.843Z</time></trkpt><trkpt lat="45.939446" lon="9.1279422"><ele>254.4</ele><time>2026-03-29T11:25:51.833Z</time></trkpt><trkpt lat="45.939554" lon="9.1279354"><ele>252.59999999999997</ele><time>2026-03-29T11:25:52.834Z</time></trkpt><trkpt lat="45.9396554" lon="9.127943"><ele>250.79999999999998</ele><time>2026-03-29T11:25:53.831Z</time></trkpt><trkpt lat="45.9397472" lon="9.1279893"><ele>249.0</ele><time>2026-03-29T11:25:54.827Z</time></trkpt><trkpt lat="45.9398365" lon="9.1280583"><ele>249.0</ele><time>2026-03-29T11:25:55.838Z</time></trkpt><trkpt lat="45.9399041" lon="9.1281423"><ele>249.0</ele><time>2026-03-29T11:25:56.832Z</time></trkpt><trkpt lat="45.9399667" lon="9.1282287"><ele>249.0</ele><time>2026-03-29T11:25:57.83Z</time></trkpt><trkpt lat="45.9400264" lon="9.1282992"><ele>249.0</ele><time>2026-03-29T11:25:58.838Z</time></trkpt><trkpt lat="45.9400876" lon="9.1283551"><ele>249.0</ele><time>2026-03-29T11:25:59.837Z</time></trkpt><trkpt lat="45.9401721" lon="9.1283318"><ele>249.0</ele><time>2026-03-29T11:26:00.84Z</time></trkpt><trkpt lat="45.9402486" lon="9.1283108"><ele>242.66666666666666</ele><time>2026-03-29T11:26:01.841Z</time></trkpt><trkpt lat="45.9403157" lon="9.1282953"><ele>236.33333333333331</ele><time>2026-03-29T11:26:02.83Z</time></trkpt><trkpt lat="45.9403804" lon="9.128293"><ele>230.0</ele><time>2026-03-29T11:26:03.843Z</time></trkpt><trkpt lat="45.940457" lon="9.1282954"><ele>223.66666666666666</ele><time>2026-03-29T11:26:04.831Z</time></trkpt><trkpt lat="45.9405381" lon="9.1283003"><ele>217.33333333333331</ele><time>2026-03-29T11:26:05.835Z</time></trkpt><trkpt lat="45.9406288" lon="9.1283114"><ele>211.0</ele><time>2026-03-29T11:26:06.828Z</time></trkpt><trkpt lat="45.9407242" lon="9.1283156"><ele>210.99999999999997</ele><time>2026-03-29T11:26:07.832Z</time></trkpt><trkpt lat="45.9408111" lon="9.1283001"><ele>211.0</ele><time>2026-03-29T11:26:08.83Z</time></trkpt><trkpt lat="45.9408964" lon="9.1282714"><ele>211.0</ele><time>2026-03-29T11:26:09.83Z</time></trkpt><trkpt lat="45.9409827" lon="9.1282265"><ele>211.0</ele><time>2026-03-29T11:26:10.823Z</time></trkpt><trkpt lat="45.9410651" lon="9.1281811"><ele>210.99999999999997</ele><time>2026-03-29T11:26:11.827Z</time></trkpt><trkpt lat="45.9411418" lon="9.1281552"><ele>211.0</ele><time>2026-03-29T11:26:12.87Z</time></trkpt><trkpt lat="45.9412133" lon="9.1281347"><ele>215.60000000000002</ele><time>2026-03-29T11:26:13.825Z</time></trkpt><trkpt lat="45.9413002" lon="9.128121"><ele>220.2</ele><time>2026-03-29T11:26:14.832Z</time></trkpt><trkpt lat="45.9413927" lon="9.1281037"><ele>224.79999999999998</ele><time>2026-03-29T11:26:15.854Z</time></trkpt><trkpt lat="45.941493" lon="9.1280994"><ele>229.39999999999998</ele><time>2026-03-29T11:26:16.83Z</time></trkpt><trkpt lat="45.9415873" lon="9.1281083"><ele>234.0</ele><time>2026-03-29T11:26:17.863Z</time></trkpt><trkpt lat="45.9416722" lon="9.1281143"><ele>232.0</ele><time>2026-03-29T11:26:18.825Z</time></trkpt><trkpt lat="45.9417574" lon="9.128126"><ele>230.0</ele><time>2026-03-29T11:26:19.84Z</time></trkpt><trkpt lat="45.9418382" lon="9.1281375"><ele>228.0</ele><time>2026-03-29T11:26:20.827Z</time></trkpt><trkpt lat="45.9419243" lon="9.1281468"><ele>226.0</ele><time>2026-03-29T11:26:21.834Z</time></trkpt><trkpt lat="45.9420161" lon="9.1281502"><ele>224.0</ele><time>2026-03-29T11:26:22.836Z</time></trkpt><trkpt lat="45.9421075" lon="9.1281559"><ele>222.0</ele><time>2026-03-29T11:26:23.844Z</time></trkpt><trkpt lat="45.9422019" lon="9.1281551"><ele>222.0</ele><time>2026-03-29T11:26:24.852Z</time></trkpt><trkpt lat="45.9422914" lon="9.1281445"><ele>222.0</ele><time>2026-03-29T11:26:25.832Z</time></trkpt><trkpt lat="45.942374" lon="9.128139"><ele>222.0</ele><time>2026-03-29T11:26:26.844Z</time></trkpt><trkpt lat="45.9424509" lon="9.1281386"><ele>222.0</ele><time>2026-03-29T11:26:27.846Z</time></trkpt><trkpt lat="45.9425291" lon="9.1281435"><ele>222.0</ele><time>2026-03-29T11:26:28.835Z</time></trkpt><trkpt lat="45.942608" lon="9.1281539"><ele>222.0</ele><time>2026-03-29T11:26:29.841Z</time></trkpt><trkpt lat="45.9426866" lon="9.1281698"><ele>220.39999999999998</ele><time>2026-03-29T11:26:30.844Z</time></trkpt><trkpt lat="45.9427682" lon="9.1281941"><ele>218.79999999999998</ele><time>2026-03-29T11:26:31.849Z</time></trkpt><trkpt lat="45.9428532" lon="9.1282284"><ele>217.2</ele><time>2026-03-29T11:26:32.836Z</time></trkpt><trkpt lat="45.9429394" lon="9.1282665"><ele>215.6</ele><time>2026-03-29T11:26:33.84Z</time></trkpt><trkpt lat="45.9430343" lon="9.1283037"><ele>214.0</ele><time>2026-03-29T11:26:34.842Z</time></trkpt><trkpt lat="45.9431295" lon="9.1283511"><ele>212.39999999999998</ele><time>2026-03-29T11:26:35.843Z</time></trkpt><trkpt lat="45.9432221" lon="9.1284085"><ele>210.79999999999998</ele><time>2026-03-29T11:26:36.837Z</time></trkpt><trkpt lat="45.9433123" lon="9.1284768"><ele>209.2</ele><time>2026-03-29T11:26:37.842Z</time></trkpt><trkpt lat="45.9434054" lon="9.1285454"><ele>207.60000000000002</ele><time>2026-03-29T11:26:38.838Z</time></trkpt><trkpt lat="45.943511" lon="9.1285924"><ele>206.0</ele><time>2026-03-29T11:26:39.834Z</time></trkpt><trkpt lat="45.943617" lon="9.1285934"><ele>205.4</ele><time>2026-03-29T11:26:40.846Z</time></trkpt><trkpt lat="45.943709" lon="9.1285445"><ele>204.8</ele><time>2026-03-29T11:26:41.845Z</time></trkpt><trkpt lat="45.9437908" lon="9.128472"><ele>204.20000000000002</ele><time>2026-03-29T11:26:42.841Z</time></trkpt><trkpt lat="45.9438643" lon="9.1283778"><ele>203.60000000000002</ele><time>2026-03-29T11:26:43.869Z</time></trkpt><trkpt lat="45.9439295" lon="9.1282697"><ele>203.0</ele><time>2026-03-29T11:26:44.835Z</time></trkpt><trkpt lat="45.9439954" lon="9.1281581"><ele>205.4</ele><time>2026-03-29T11:26:45.842Z</time></trkpt><trkpt lat="45.9440612" lon="9.1280374"><ele>207.8</ele><time>2026-03-29T11:26:46.837Z</time></trkpt><trkpt lat="45.9441193" lon="9.1279309"><ele>210.2</ele><time>2026-03-29T11:26:47.842Z</time></trkpt><trkpt lat="45.9441715" lon="9.1278415"><ele>212.6</ele><time>2026-03-29T11:26:48.835Z</time></trkpt><trkpt lat="45.9442186" lon="9.127772"><ele>215.0</ele><time>2026-03-29T11:26:49.838Z</time></trkpt><trkpt lat="45.9443027" lon="9.1276639"><ele>218.8</ele><time>2026-03-29T11:26:51.839Z</time></trkpt><trkpt lat="45.9444002" lon="9.1276333"><ele>222.6</ele><time>2026-03-29T11:26:53.839Z</time></trkpt><trkpt lat="45.9445094" lon="9.1276627"><ele>226.39999999999998</ele><time>2026-03-29T11:26:55.841Z</time></trkpt><trkpt lat="45.9446031" lon="9.1277374"><ele>230.2</ele><time>2026-03-29T11:26:57.838Z</time></trkpt><trkpt lat="45.9446849" lon="9.1278193"><ele>234.0</ele><time>2026-03-29T11:26:59.841Z</time></trkpt><trkpt lat="45.9447539" lon="9.1279137"><ele>234.0</ele><time>2026-03-29T11:27:01.843Z</time></trkpt><trkpt lat="45.9448036" lon="9.127989"><ele>233.99999999999997</ele><time>2026-03-29T11:27:02.841Z</time></trkpt><trkpt lat="45.9448762" lon="9.1280608"><ele>233.99999999999997</ele><time>2026-03-29T11:27:03.846Z</time></trkpt><trkpt lat="45.944976" lon="9.1281415"><ele>234.0</ele><time>2026-03-29T11:27:04.834Z</time></trkpt><trkpt lat="45.945104" lon="9.1282297"><ele>234.0</ele><time>2026-03-29T11:27:05.831Z</time></trkpt><trkpt lat="45.9452304" lon="9.1283292"><ele>232.33333333333331</ele><time>2026-03-29T11:27:06.83Z</time></trkpt><trkpt lat="45.9453849" lon="9.1284622"><ele>230.66666666666666</ele><time>2026-03-29T11:27:07.842Z</time></trkpt><trkpt lat="45.9455223" lon="9.1286112"><ele>229.0</ele><time>2026-03-29T11:27:08.834Z</time></trkpt><trkpt lat="45.945634" lon="9.1287794"><ele>229.0</ele><time>2026-03-29T11:27:09.839Z</time></trkpt><trkpt lat="45.9457412" lon="9.128947"><ele>229.0</ele><time>2026-03-29T11:27:10.834Z</time></trkpt><trkpt lat="45.9458327" lon="9.1290995"><ele>229.0</ele><time>2026-03-29T11:27:11.834Z</time></trkpt><trkpt lat="45.9459218" lon="9.1292175"><ele>229.0</ele><time>2026-03-29T11:27:12.84Z</time></trkpt><trkpt lat="45.946002" lon="9.1293398"><ele>227.79999999999998</ele><time>2026-03-29T11:27:13.856Z</time></trkpt><trkpt lat="45.9460655" lon="9.1294419"><ele>226.59999999999997</ele><time>2026-03-29T11:27:14.825Z</time></trkpt><trkpt lat="45.9461343" lon="9.1295617"><ele>225.4</ele><time>2026-03-29T11:27:15.842Z</time></trkpt><trkpt lat="45.9462102" lon="9.1296761"><ele>224.2</ele><time>2026-03-29T11:27:16.841Z</time></trkpt><trkpt lat="45.9462951" lon="9.1297981"><ele>223.0</ele><time>2026-03-29T11:27:17.838Z</time></trkpt><trkpt lat="45.9463714" lon="9.1299276"><ele>223.0</ele><time>2026-03-29T11:27:18.824Z</time></trkpt><trkpt lat="45.9464454" lon="9.1300715"><ele>223.0</ele><time>2026-03-29T11:27:19.838Z</time></trkpt><trkpt lat="45.9465173" lon="9.1302056"><ele>223.0</ele><time>2026-03-29T11:27:20.838Z</time></trkpt><trkpt lat="45.9465871" lon="9.1303402"><ele>223.0</ele><time>2026-03-29T11:27:21.834Z</time></trkpt><trkpt lat="45.9466714" lon="9.1304918"><ele>237.66666666666666</ele><time>2026-03-29T11:27:22.843Z</time></trkpt><trkpt lat="45.9467701" lon="9.1306725"><ele>252.33333333333331</ele><time>2026-03-29T11:27:23.837Z</time></trkpt><trkpt lat="45.9468589" lon="9.130893"><ele>267.0</ele><time>2026-03-29T11:27:24.834Z</time></trkpt><trkpt lat="45.9469478" lon="9.131125"><ele>267.0</ele><time>2026-03-29T11:27:25.84Z</time></trkpt><trkpt lat="45.9470284" lon="9.131351"><ele>267.0</ele><time>2026-03-29T11:27:26.831Z</time></trkpt><trkpt lat="45.9471115" lon="9.1315812"><ele>267.0</ele><time>2026-03-29T11:27:27.835Z</time></trkpt><trkpt lat="45.94718" lon="9.1318574"><ele>260.3333333333333</ele><time>2026-03-29T11:27:28.824Z</time></trkpt><trkpt lat="45.947236" lon="9.132108"><ele>253.66666666666666</ele><time>2026-03-29T11:27:29.823Z</time></trkpt><trkpt lat="45.9472862" lon="9.132335"><ele>247.0</ele><time>2026-03-29T11:27:30.832Z</time></trkpt><trkpt lat="45.9473253" lon="9.1325386"><ele>245.0</ele><time>2026-03-29T11:27:31.822Z</time></trkpt><trkpt lat="45.9473568" lon="9.1327335"><ele>243.0</ele><time>2026-03-29T11:27:32.833Z</time></trkpt><trkpt lat="45.9473947" lon="9.1329197"><ele>241.0</ele><time>2026-03-29T11:27:33.82Z</time></trkpt><trkpt lat="45.9474356" lon="9.1331062"><ele>239.0</ele><time>2026-03-29T11:27:34.823Z</time></trkpt><trkpt lat="45.9474801" lon="9.1332968"><ele>234.75</ele><time>2026-03-29T11:27:35.821Z</time></trkpt><trkpt lat="45.9475376" lon="9.1334818"><ele>230.5</ele><time>2026-03-29T11:27:36.818Z</time></trkpt><trkpt lat="45.9475921" lon="9.1336636"><ele>226.25</ele><time>2026-03-29T11:27:37.818Z</time></trkpt><trkpt lat="45.9476628" lon="9.1338486"><ele>222.0</ele><time>2026-03-29T11:27:38.829Z</time></trkpt><trkpt lat="45.9477472" lon="9.1340373"><ele>235.33333333333331</ele><time>2026-03-29T11:27:39.823Z</time></trkpt><trkpt lat="45.9478485" lon="9.1341814"><ele>248.66666666666666</ele><time>2026-03-29T11:27:40.834Z</time></trkpt><trkpt lat="45.9479518" lon="9.1343596"><ele>262.0</ele><time>2026-03-29T11:27:41.821Z</time></trkpt><trkpt lat="45.9480477" lon="9.1345296"><ele>262.0</ele><time>2026-03-29T11:27:42.828Z</time></trkpt><trkpt lat="45.9481573" lon="9.134719"><ele>262.0</ele><time>2026-03-29T11:27:43.832Z</time></trkpt><trkpt lat="45.9482711" lon="9.1349285"><ele>262.0</ele><time>2026-03-29T11:27:44.814Z</time></trkpt><trkpt lat="45.948391" lon="9.135183"><ele>265.66666666666663</ele><time>2026-03-29T11:27:45.821Z</time></trkpt><trkpt lat="45.948521" lon="9.1354172"><ele>269.3333333333333</ele><time>2026-03-29T11:27:46.822Z</time></trkpt><trkpt lat="45.948664" lon="9.1356368"><ele>273.0</ele><time>2026-03-29T11:27:47.829Z</time></trkpt><trkpt lat="45.9487895" lon="9.1359052"><ele>273.0</ele><time>2026-03-29T11:27:48.826Z</time></trkpt><trkpt lat="45.9488893" lon="9.1361579"><ele>273.0</ele><time>2026-03-29T11:27:49.823Z</time></trkpt><trkpt lat="45.9489598" lon="9.1363661"><ele>273.0</ele><time>2026-03-29T11:27:50.823Z</time></trkpt><trkpt lat="45.949035" lon="9.1365831"><ele>261.0</ele><time>2026-03-29T11:27:51.826Z</time></trkpt><trkpt lat="45.9491175" lon="9.1368074"><ele>249.0</ele><time>2026-03-29T11:27:52.827Z</time></trkpt><trkpt lat="45.9492175" lon="9.1369973"><ele>237.0</ele><time>2026-03-29T11:27:53.834Z</time></trkpt><trkpt lat="45.9493238" lon="9.137193"><ele>250.33333333333331</ele><time>2026-03-29T11:27:54.824Z</time></trkpt><trkpt lat="45.9494474" lon="9.1373655"><ele>263.66666666666663</ele><time>2026-03-29T11:27:55.828Z</time></trkpt><trkpt lat="45.9495605" lon="9.1375612"><ele>277.0</ele><time>2026-03-29T11:27:56.822Z</time></trkpt><trkpt lat="45.9496916" lon="9.1377387"><ele>277.0</ele><time>2026-03-29T11:27:57.85Z</time></trkpt><trkpt lat="45.9498024" lon="9.1379503"><ele>277.0</ele><time>2026-03-29T11:27:58.816Z</time></trkpt><trkpt lat="45.9499161" lon="9.1381173"><ele>277.0</ele><time>2026-03-29T11:27:59.831Z</time></trkpt><trkpt lat="45.9500396" lon="9.1383096"><ele>287.0</ele><time>2026-03-29T11:28:00.816Z</time></trkpt><trkpt lat="45.9501527" lon="9.1385221"><ele>297.0</ele><time>2026-03-29T11:28:01.826Z</time></trkpt><trkpt lat="45.9502789" lon="9.138709"><ele>307.0</ele><time>2026-03-29T11:28:02.821Z</time></trkpt><trkpt lat="45.9504081" lon="9.1389084"><ele>286.0</ele><time>2026-03-29T11:28:03.822Z</time></trkpt><trkpt lat="45.9505491" lon="9.139115"><ele>265.0</ele><time>2026-03-29T11:28:04.823Z</time></trkpt><trkpt lat="45.9506925" lon="9.1393325"><ele>244.0</ele><time>2026-03-29T11:28:05.826Z</time></trkpt><trkpt lat="45.9508122" lon="9.1395685"><ele>257.0</ele><time>2026-03-29T11:28:06.819Z</time></trkpt><trkpt lat="45.9509322" lon="9.1397975"><ele>270.0</ele><time>2026-03-29T11:28:07.826Z</time></trkpt><trkpt lat="45.9510567" lon="9.1400228"><ele>283.0</ele><time>2026-03-29T11:28:08.819Z</time></trkpt><trkpt lat="45.9511844" lon="9.1402339"><ele>283.0</ele><time>2026-03-29T11:28:09.82Z</time></trkpt><trkpt lat="45.9513253" lon="9.1404404"><ele>283.0</ele><time>2026-03-29T11:28:10.829Z</time></trkpt><trkpt lat="45.9514577" lon="9.1406358"><ele>283.0</ele><time>2026-03-29T11:28:11.819Z</time></trkpt><trkpt lat="45.9515739" lon="9.1408465"><ele>294.0</ele><time>2026-03-29T11:28:12.82Z</time></trkpt><trkpt lat="45.9516963" lon="9.1410241"><ele>305.0</ele><time>2026-03-29T11:28:13.818Z</time></trkpt><trkpt lat="45.9518262" lon="9.1412217"><ele>316.0</ele><time>2026-03-29T11:28:14.842Z</time></trkpt><trkpt lat="45.9519393" lon="9.141415"><ele>301.66666666666663</ele><time>2026-03-29T11:28:15.823Z</time></trkpt><trkpt lat="45.9520366" lon="9.1416447"><ele>287.3333333333333</ele><time>2026-03-29T11:28:16.819Z</time></trkpt><trkpt lat="45.9521158" lon="9.1418774"><ele>273.0</ele><time>2026-03-29T11:28:17.825Z</time></trkpt><trkpt lat="45.9522045" lon="9.1420701"><ele>273.0</ele><time>2026-03-29T11:28:18.825Z</time></trkpt><trkpt lat="45.9522924" lon="9.142247"><ele>273.0</ele><time>2026-03-29T11:28:19.821Z</time></trkpt><trkpt lat="45.9523855" lon="9.1424465"><ele>273.0</ele><time>2026-03-29T11:28:20.824Z</time></trkpt><trkpt lat="45.9524803" lon="9.1426548"><ele>272.0</ele><time>2026-03-29T11:28:21.823Z</time></trkpt><trkpt lat="45.9525668" lon="9.142869"><ele>271.0</ele><time>2026-03-29T11:28:22.831Z</time></trkpt><trkpt lat="45.9526747" lon="9.1430872"><ele>270.0</ele><time>2026-03-29T11:28:23.827Z</time></trkpt><trkpt lat="45.9527687" lon="9.1432954"><ele>270.0</ele><time>2026-03-29T11:28:24.829Z</time></trkpt><trkpt lat="45.952853" lon="9.1435113"><ele>270.0</ele><time>2026-03-29T11:28:25.825Z</time></trkpt><trkpt lat="45.9529185" lon="9.1437657"><ele>270.0</ele><time>2026-03-29T11:28:26.816Z</time></trkpt><trkpt lat="45.9530116" lon="9.143993"><ele>258.6666666666667</ele><time>2026-03-29T11:28:27.828Z</time></trkpt><trkpt lat="45.9531178" lon="9.1441976"><ele>247.33333333333334</ele><time>2026-03-29T11:28:28.828Z</time></trkpt><trkpt lat="45.9532113" lon="9.1443804"><ele>236.0</ele><time>2026-03-29T11:28:29.828Z</time></trkpt><trkpt lat="45.9533085" lon="9.1445545"><ele>245.5</ele><time>2026-03-29T11:28:30.822Z</time></trkpt><trkpt lat="45.9533996" lon="9.1447306"><ele>255.0</ele><time>2026-03-29T11:28:31.832Z</time></trkpt><trkpt lat="45.9534753" lon="9.1449103"><ele>264.5</ele><time>2026-03-29T11:28:32.821Z</time></trkpt><trkpt lat="45.9535487" lon="9.1450799"><ele>274.0</ele><time>2026-03-29T11:28:33.822Z</time></trkpt><trkpt lat="45.9536188" lon="9.1452262"><ele>274.0</ele><time>2026-03-29T11:28:34.822Z</time></trkpt><trkpt lat="45.9537136" lon="9.1453544"><ele>274.0</ele><time>2026-03-29T11:28:35.827Z</time></trkpt><trkpt lat="45.9537822" lon="9.1455075"><ele>274.0</ele><time>2026-03-29T11:28:36.829Z</time></trkpt><trkpt lat="45.9538652" lon="9.145638"><ele>274.0</ele><time>2026-03-29T11:28:37.819Z</time></trkpt><trkpt lat="45.9539291" lon="9.1457818"><ele>280.5</ele><time>2026-03-29T11:28:38.828Z</time></trkpt><trkpt lat="45.9540085" lon="9.1459272"><ele>287.0</ele><time>2026-03-29T11:28:39.833Z</time></trkpt><trkpt lat="45.9540904" lon="9.146074"><ele>293.5</ele><time>2026-03-29T11:28:40.829Z</time></trkpt><trkpt lat="45.9541675" lon="9.1462261"><ele>300.0</ele><time>2026-03-29T11:28:41.826Z</time></trkpt><trkpt lat="45.9542466" lon="9.146386"><ele>300.0</ele><time>2026-03-29T11:28:42.832Z</time></trkpt><trkpt lat="45.9543174" lon="9.1465388"><ele>300.0</ele><time>2026-03-29T11:28:43.821Z</time></trkpt><trkpt lat="45.9543762" lon="9.1466847"><ele>300.0</ele><time>2026-03-29T11:28:44.831Z</time></trkpt><trkpt lat="45.9544327" lon="9.1468266"><ele>300.0</ele><time>2026-03-29T11:28:45.818Z</time></trkpt><trkpt lat="45.9544862" lon="9.1469815"><ele>291.3333333333333</ele><time>2026-03-29T11:28:46.828Z</time></trkpt><trkpt lat="45.9545497" lon="9.1471552"><ele>282.66666666666663</ele><time>2026-03-29T11:28:47.821Z</time></trkpt><trkpt lat="45.9546215" lon="9.1473491"><ele>274.0</ele><time>2026-03-29T11:28:48.825Z</time></trkpt><trkpt lat="45.954694" lon="9.1476103"><ele>263.3333333333333</ele><time>2026-03-29T11:28:49.844Z</time></trkpt><trkpt lat="45.9547579" lon="9.1478475"><ele>252.66666666666669</ele><time>2026-03-29T11:28:50.823Z</time></trkpt><trkpt lat="45.9548252" lon="9.1480434"><ele>242.0</ele><time>2026-03-29T11:28:51.82Z</time></trkpt><trkpt lat="45.954897" lon="9.1482019"><ele>236.8</ele><time>2026-03-29T11:28:52.828Z</time></trkpt><trkpt lat="45.9549625" lon="9.1483374"><ele>231.6</ele><time>2026-03-29T11:28:53.826Z</time></trkpt><trkpt lat="45.9550072" lon="9.1484581"><ele>226.40000000000003</ele><time>2026-03-29T11:28:54.828Z</time></trkpt><trkpt lat="45.9550759" lon="9.1485868"><ele>221.20000000000002</ele><time>2026-03-29T11:28:56.821Z</time></trkpt><trkpt lat="45.9550917" lon="9.1486972"><ele>216.0</ele><time>2026-03-29T11:28:58.825Z</time></trkpt><trkpt lat="45.9551401" lon="9.1487712"><ele>223.5</ele><time>2026-03-29T11:29:01.835Z</time></trkpt><trkpt lat="45.9551721" lon="9.14886"><ele>231.0</ele><time>2026-03-29T11:29:04.839Z</time></trkpt><trkpt lat="45.9552127" lon="9.148931"><ele>238.5</ele><time>2026-03-29T11:29:06.831Z</time></trkpt><trkpt lat="45.955274" lon="9.149065"><ele>246.0</ele><time>2026-03-29T11:29:08.825Z</time></trkpt><trkpt lat="45.9553016" lon="9.149155"><ele>253.5</ele><time>2026-03-29T11:29:09.825Z</time></trkpt><trkpt lat="45.955323" lon="9.1492482"><ele>261.0</ele><time>2026-03-29T11:29:10.826Z</time></trkpt><trkpt lat="45.9553386" lon="9.1493443"><ele>261.0</ele><time>2026-03-29T11:29:11.829Z</time></trkpt><trkpt lat="45.9553597" lon="9.1494454"><ele>261.0</ele><time>2026-03-29T11:29:12.831Z</time></trkpt><trkpt lat="45.9553867" lon="9.1495551"><ele>261.0</ele><time>2026-03-29T11:29:13.829Z</time></trkpt><trkpt lat="45.9554329" lon="9.1496792"><ele>261.0</ele><time>2026-03-29T11:29:14.824Z</time></trkpt><trkpt lat="45.9554991" lon="9.1498191"><ele>261.0</ele><time>2026-03-29T11:29:15.828Z</time></trkpt><trkpt lat="45.9555753" lon="9.1499691"><ele>254.0</ele><time>2026-03-29T11:29:16.825Z</time></trkpt><trkpt lat="45.9556537" lon="9.1501197"><ele>247.0</ele><time>2026-03-29T11:29:17.825Z</time></trkpt><trkpt lat="45.9557202" lon="9.150263"><ele>240.0</ele><time>2026-03-29T11:29:18.827Z</time></trkpt><trkpt lat="45.9557823" lon="9.1503995"><ele>233.0</ele><time>2026-03-29T11:29:19.826Z</time></trkpt><trkpt lat="45.955842" lon="9.1505357"><ele>238.4</ele><time>2026-03-29T11:29:20.827Z</time></trkpt><trkpt lat="45.9558978" lon="9.1506718"><ele>243.8</ele><time>2026-03-29T11:29:21.828Z</time></trkpt><trkpt lat="45.9559471" lon="9.1507949"><ele>249.2</ele><time>2026-03-29T11:29:22.835Z</time></trkpt><trkpt lat="45.9559987" lon="9.1509076"><ele>254.6</ele><time>2026-03-29T11:29:23.83Z</time></trkpt><trkpt lat="45.9560503" lon="9.1510079"><ele>260.0</ele><time>2026-03-29T11:29:24.823Z</time></trkpt><trkpt lat="45.9561032" lon="9.1511088"><ele>260.0</ele><time>2026-03-29T11:29:25.827Z</time></trkpt><trkpt lat="45.9561558" lon="9.1512083"><ele>260.0</ele><time>2026-03-29T11:29:26.824Z</time></trkpt><trkpt lat="45.9562102" lon="9.1513097"><ele>260.0</ele><time>2026-03-29T11:29:27.825Z</time></trkpt><trkpt lat="45.9562639" lon="9.1514216"><ele>260.0</ele><time>2026-03-29T11:29:28.82Z</time></trkpt><trkpt lat="45.9563161" lon="9.1515315"><ele>260.0</ele><time>2026-03-29T11:29:29.825Z</time></trkpt><trkpt lat="45.9563629" lon="9.151642"><ele>254.4</ele><time>2026-03-29T11:29:30.82Z</time></trkpt><trkpt lat="45.9564142" lon="9.1517545"><ele>248.8</ele><time>2026-03-29T11:29:31.823Z</time></trkpt><trkpt lat="45.9564706" lon="9.151883"><ele>243.2</ele><time>2026-03-29T11:29:32.816Z</time></trkpt><trkpt lat="45.9565324" lon="9.1520193"><ele>237.6</ele><time>2026-03-29T11:29:33.825Z</time></trkpt><trkpt lat="45.9565896" lon="9.1521441"><ele>232.0</ele><time>2026-03-29T11:29:34.816Z</time></trkpt><trkpt lat="45.9566447" lon="9.1522757"><ele>229.0</ele><time>2026-03-29T11:29:35.831Z</time></trkpt><trkpt lat="45.9566992" lon="9.152417"><ele>226.0</ele><time>2026-03-29T11:29:36.823Z</time></trkpt><trkpt lat="45.956755" lon="9.1525499"><ele>223.0</ele><time>2026-03-29T11:29:37.823Z</time></trkpt><trkpt lat="45.9568077" lon="9.1526849"><ele>220.0</ele><time>2026-03-29T11:29:38.821Z</time></trkpt><trkpt lat="45.9568552" lon="9.1528211"><ele>217.0</ele><time>2026-03-29T11:29:39.826Z</time></trkpt><trkpt lat="45.9569032" lon="9.1529488"><ele>221.49999999999997</ele><time>2026-03-29T11:29:40.827Z</time></trkpt><trkpt lat="45.9569473" lon="9.153077"><ele>226.0</ele><time>2026-03-29T11:29:41.825Z</time></trkpt><trkpt lat="45.9569842" lon="9.1531883"><ele>230.5</ele><time>2026-03-29T11:29:42.832Z</time></trkpt><trkpt lat="45.9570157" lon="9.1532824"><ele>235.0</ele><time>2026-03-29T11:29:43.822Z</time></trkpt><trkpt lat="45.9570499" lon="9.1533656"><ele>239.49999999999997</ele><time>2026-03-29T11:29:44.82Z</time></trkpt><trkpt lat="45.9570948" lon="9.1534779"><ele>244.0</ele><time>2026-03-29T11:29:46.815Z</time></trkpt><trkpt lat="45.9571297" lon="9.153575"><ele>243.99999999999997</ele><time>2026-03-29T11:29:49.832Z</time></trkpt><trkpt lat="45.9571654" lon="9.1537049"><ele>244.0</ele><time>2026-03-29T11:29:52.851Z</time></trkpt><trkpt lat="45.9571918" lon="9.1538251"><ele>244.0</ele><time>2026-03-29T11:29:55.83Z</time></trkpt><trkpt lat="45.9572016" lon="9.1539335"><ele>244.0</ele><time>2026-03-29T11:29:57.826Z</time></trkpt><trkpt lat="45.9572017" lon="9.1540314"><ele>243.99999999999997</ele><time>2026-03-29T11:30:49.83Z</time></trkpt><trkpt lat="45.957237" lon="9.1541458"><ele>244.0</ele><time>2026-03-29T11:30:51.833Z</time></trkpt><trkpt lat="45.9572459" lon="9.1542541"><ele>240.99999999999997</ele><time>2026-03-29T11:30:53.832Z</time></trkpt><trkpt lat="45.9572702" lon="9.1543827"><ele>238.0</ele><time>2026-03-29T11:30:56.827Z</time></trkpt><trkpt lat="45.9572749" lon="9.1544789"><ele>235.0</ele><time>2026-03-29T11:31:01.826Z</time></trkpt><trkpt lat="45.9572906" lon="9.1545707"><ele>232.0</ele><time>2026-03-29T11:31:03.822Z</time></trkpt><trkpt lat="45.9573318" lon="9.154681"><ele>228.99999999999997</ele><time>2026-03-29T11:31:05.826Z</time></trkpt><trkpt lat="45.9573812" lon="9.1548138"><ele>226.0</ele><time>2026-03-29T11:31:07.824Z</time></trkpt><trkpt lat="45.9574227" lon="9.1548822"><ele>227.4</ele><time>2026-03-29T11:31:08.827Z</time></trkpt><trkpt lat="45.9574932" lon="9.1550103"><ele>228.8</ele><time>2026-03-29T11:31:10.82Z</time></trkpt><trkpt lat="45.9575593" lon="9.1551313"><ele>230.20000000000002</ele><time>2026-03-29T11:31:12.827Z</time></trkpt><trkpt lat="45.9576395" lon="9.1552501"><ele>231.60000000000002</ele><time>2026-03-29T11:31:14.823Z</time></trkpt><trkpt lat="45.9577099" lon="9.1553563"><ele>233.0</ele><time>2026-03-29T11:31:16.826Z</time></trkpt><trkpt lat="45.9577888" lon="9.1554611"><ele>233.00000000000003</ele><time>2026-03-29T11:31:18.816Z</time></trkpt><trkpt lat="45.9578605" lon="9.1555588"><ele>233.0</ele><time>2026-03-29T11:31:20.818Z</time></trkpt><trkpt lat="45.9578968" lon="9.1556336"><ele>233.0</ele><time>2026-03-29T11:31:22.829Z</time></trkpt><trkpt lat="45.9579559" lon="9.155709"><ele>233.0</ele><time>2026-03-29T11:31:25.822Z</time></trkpt><trkpt lat="45.9580306" lon="9.1558062"><ele>233.00000000000003</ele><time>2026-03-29T11:31:27.827Z</time></trkpt><trkpt lat="45.9581009" lon="9.1558773"><ele>233.0</ele><time>2026-03-29T11:31:29.825Z</time></trkpt><trkpt lat="45.9581868" lon="9.1559442"><ele>231.0</ele><time>2026-03-29T11:31:31.815Z</time></trkpt><trkpt lat="45.9582685" lon="9.1560017"><ele>229.0</ele><time>2026-03-29T11:31:33.817Z</time></trkpt><trkpt lat="45.958316" lon="9.1560931"><ele>227.0</ele><time>2026-03-29T11:31:36.847Z</time></trkpt><trkpt lat="45.9583644" lon="9.1562464"><ele>225.0</ele><time>2026-03-29T11:31:38.849Z</time></trkpt><trkpt lat="45.9583961" lon="9.1563759"><ele>223.0</ele><time>2026-03-29T11:31:39.834Z</time></trkpt><trkpt lat="45.9584103" lon="9.1565219"><ele>230.5</ele><time>2026-03-29T11:31:40.816Z</time></trkpt><trkpt lat="45.9584236" lon="9.1566968"><ele>238.0</ele><time>2026-03-29T11:31:41.813Z</time></trkpt><trkpt lat="45.9584483" lon="9.1568689"><ele>245.5</ele><time>2026-03-29T11:31:42.814Z</time></trkpt><trkpt lat="45.9584787" lon="9.1570428"><ele>253.0</ele><time>2026-03-29T11:31:43.813Z</time></trkpt><trkpt lat="45.9585091" lon="9.1572126"><ele>248.25</ele><time>2026-03-29T11:31:44.827Z</time></trkpt><trkpt lat="45.9585385" lon="9.1573711"><ele>243.5</ele><time>2026-03-29T11:31:45.817Z</time></trkpt><trkpt lat="45.9585783" lon="9.1575263"><ele>238.75</ele><time>2026-03-29T11:31:46.832Z</time></trkpt><trkpt lat="45.9586291" lon="9.1576765"><ele>234.0</ele><time>2026-03-29T11:31:47.824Z</time></trkpt><trkpt lat="45.9586839" lon="9.1578167"><ele>234.0</ele><time>2026-03-29T11:31:48.821Z</time></trkpt><trkpt lat="45.9587427" lon="9.1579489"><ele>233.99999999999997</ele><time>2026-03-29T11:31:49.825Z</time></trkpt><trkpt lat="45.9587935" lon="9.1580748"><ele>233.99999999999997</ele><time>2026-03-29T11:31:50.824Z</time></trkpt><trkpt lat="45.9588441" lon="9.1581889"><ele>234.0</ele><time>2026-03-29T11:31:51.824Z</time></trkpt><trkpt lat="45.9588954" lon="9.1583059"><ele>234.0</ele><time>2026-03-29T11:31:52.816Z</time></trkpt><trkpt lat="45.958931" lon="9.1584233"><ele>231.0</ele><time>2026-03-29T11:31:53.828Z</time></trkpt><trkpt lat="45.9589421" lon="9.158563"><ele>228.0</ele><time>2026-03-29T11:31:54.817Z</time></trkpt><trkpt lat="45.9589385" lon="9.1587176"><ele>225.0</ele><time>2026-03-29T11:31:55.828Z</time></trkpt><trkpt lat="45.9589344" lon="9.1588922"><ele>222.0</ele><time>2026-03-29T11:31:56.819Z</time></trkpt><trkpt lat="45.9589469" lon="9.1590802"><ele>221.5</ele><time>2026-03-29T11:31:57.828Z</time></trkpt><trkpt lat="45.9589786" lon="9.1592674"><ele>221.0</ele><time>2026-03-29T11:31:58.821Z</time></trkpt><trkpt lat="45.9590448" lon="9.1594267"><ele>220.5</ele><time>2026-03-29T11:31:59.826Z</time></trkpt><trkpt lat="45.9591257" lon="9.1595755"><ele>220.0</ele><time>2026-03-29T11:32:00.826Z</time></trkpt><trkpt lat="45.9592113" lon="9.159728"><ele>222.25</ele><time>2026-03-29T11:32:01.817Z</time></trkpt><trkpt lat="45.9592984" lon="9.1598779"><ele>224.5</ele><time>2026-03-29T11:32:02.817Z</time></trkpt><trkpt lat="45.9593916" lon="9.160012"><ele>226.75</ele><time>2026-03-29T11:32:03.82Z</time></trkpt><trkpt lat="45.9594965" lon="9.1601308"><ele>229.0</ele><time>2026-03-29T11:32:04.824Z</time></trkpt><trkpt lat="45.9595994" lon="9.1602564"><ele>229.0</ele><time>2026-03-29T11:32:05.825Z</time></trkpt><trkpt lat="45.9597005" lon="9.1603887"><ele>229.0</ele><time>2026-03-29T11:32:06.817Z</time></trkpt><trkpt lat="45.9597846" lon="9.1605381"><ele>229.0</ele><time>2026-03-29T11:32:07.82Z</time></trkpt><trkpt lat="45.959844" lon="9.1607035"><ele>229.0</ele><time>2026-03-29T11:32:08.826Z</time></trkpt><trkpt lat="45.9599069" lon="9.1608687"><ele>225.75</ele><time>2026-03-29T11:32:09.82Z</time></trkpt><trkpt lat="45.9599827" lon="9.1610407"><ele>222.5</ele><time>2026-03-29T11:32:10.822Z</time></trkpt><trkpt lat="45.960072" lon="9.1612035"><ele>219.25</ele><time>2026-03-29T11:32:11.825Z</time></trkpt><trkpt lat="45.9601655" lon="9.1613363"><ele>216.0</ele><time>2026-03-29T11:32:12.821Z</time></trkpt><trkpt lat="45.9602736" lon="9.1614517"><ele>216.75</ele><time>2026-03-29T11:32:13.824Z</time></trkpt><trkpt lat="45.9603623" lon="9.1615529"><ele>217.5</ele><time>2026-03-29T11:32:14.814Z</time></trkpt><trkpt lat="45.9604537" lon="9.1616547"><ele>218.25</ele><time>2026-03-29T11:32:15.814Z</time></trkpt><trkpt lat="45.9605602" lon="9.1617694"><ele>219.0</ele><time>2026-03-29T11:32:16.817Z</time></trkpt><trkpt lat="45.9606593" lon="9.1618804"><ele>219.0</ele><time>2026-03-29T11:32:17.81Z</time></trkpt><trkpt lat="45.9607596" lon="9.1619924"><ele>219.0</ele><time>2026-03-29T11:32:18.818Z</time></trkpt><trkpt lat="45.9608578" lon="9.1621102"><ele>219.0</ele><time>2026-03-29T11:32:19.813Z</time></trkpt><trkpt lat="45.9609557" lon="9.1622353"><ele>219.0</ele><time>2026-03-29T11:32:20.826Z</time></trkpt><trkpt lat="45.9610544" lon="9.1623634"><ele>220.25</ele><time>2026-03-29T11:32:21.818Z</time></trkpt><trkpt lat="45.9611514" lon="9.1624973"><ele>221.5</ele><time>2026-03-29T11:32:22.827Z</time></trkpt><trkpt lat="45.9612399" lon="9.1626666"><ele>222.75</ele><time>2026-03-29T11:32:23.824Z</time></trkpt><trkpt lat="45.9613324" lon="9.1628204"><ele>224.0</ele><time>2026-03-29T11:32:24.817Z</time></trkpt><trkpt lat="45.9614538" lon="9.1629695"><ele>224.0</ele><time>2026-03-29T11:32:25.83Z</time></trkpt><trkpt lat="45.9615429" lon="9.1631215"><ele>224.0</ele><time>2026-03-29T11:32:26.822Z</time></trkpt><trkpt lat="45.9616289" lon="9.1633098"><ele>224.0</ele><time>2026-03-29T11:32:27.831Z</time></trkpt><trkpt lat="45.9616967" lon="9.1635182"><ele>228.5</ele><time>2026-03-29T11:32:28.822Z</time></trkpt><trkpt lat="45.9617449" lon="9.1637099"><ele>233.0</ele><time>2026-03-29T11:32:29.829Z</time></trkpt><trkpt lat="45.9617997" lon="9.1639078"><ele>237.5</ele><time>2026-03-29T11:32:30.829Z</time></trkpt><trkpt lat="45.9618599" lon="9.1640983"><ele>242.0</ele><time>2026-03-29T11:32:31.828Z</time></trkpt><trkpt lat="45.9619276" lon="9.1643016"><ele>242.0</ele><time>2026-03-29T11:32:32.82Z</time></trkpt><trkpt lat="45.961993" lon="9.1644986"><ele>242.0</ele><time>2026-03-29T11:32:33.842Z</time></trkpt><trkpt lat="45.9620643" lon="9.1646959"><ele>242.0</ele><time>2026-03-29T11:32:34.825Z</time></trkpt><trkpt lat="45.9621542" lon="9.1648854"><ele>241.0</ele><time>2026-03-29T11:32:35.826Z</time></trkpt><trkpt lat="45.962267" lon="9.1650563"><ele>240.0</ele><time>2026-03-29T11:32:36.813Z</time></trkpt><trkpt lat="45.9623978" lon="9.1652074"><ele>239.0</ele><time>2026-03-29T11:32:37.822Z</time></trkpt><trkpt lat="45.9625384" lon="9.1652983"><ele>239.0</ele><time>2026-03-29T11:32:38.822Z</time></trkpt><trkpt lat="45.9626838" lon="9.1654065"><ele>239.0</ele><time>2026-03-29T11:32:39.82Z</time></trkpt><trkpt lat="45.9628286" lon="9.16552"><ele>239.0</ele><time>2026-03-29T11:32:40.832Z</time></trkpt><trkpt lat="45.9629655" lon="9.1656441"><ele>237.0</ele><time>2026-03-29T11:32:41.822Z</time></trkpt><trkpt lat="45.9631031" lon="9.1657716"><ele>235.0</ele><time>2026-03-29T11:32:42.819Z</time></trkpt><trkpt lat="45.9632542" lon="9.1658858"><ele>233.0</ele><time>2026-03-29T11:32:43.82Z</time></trkpt><trkpt lat="45.9634093" lon="9.1660329"><ele>233.0</ele><time>2026-03-29T11:32:44.826Z</time></trkpt><trkpt lat="45.9635651" lon="9.1661792"><ele>233.0</ele><time>2026-03-29T11:32:45.823Z</time></trkpt><trkpt lat="45.9637234" lon="9.166295"><ele>233.0</ele><time>2026-03-29T11:32:46.826Z</time></trkpt><trkpt lat="45.9638769" lon="9.1664386"><ele>234.33333333333334</ele><time>2026-03-29T11:32:47.825Z</time></trkpt><trkpt lat="45.9640231" lon="9.1666036"><ele>235.66666666666669</ele><time>2026-03-29T11:32:48.824Z</time></trkpt><trkpt lat="45.964154" lon="9.16672"><ele>237.0</ele><time>2026-03-29T11:32:49.816Z</time></trkpt><trkpt lat="45.9642985" lon="9.1668384"><ele>237.0</ele><time>2026-03-29T11:32:50.825Z</time></trkpt><trkpt lat="45.9644346" lon="9.1669748"><ele>237.0</ele><time>2026-03-29T11:32:51.821Z</time></trkpt><trkpt lat="45.9645633" lon="9.1671476"><ele>237.0</ele><time>2026-03-29T11:32:52.823Z</time></trkpt><trkpt lat="45.9646776" lon="9.1673063"><ele>237.75</ele><time>2026-03-29T11:32:53.807Z</time></trkpt><trkpt lat="45.9647734" lon="9.167434"><ele>238.5</ele><time>2026-03-29T11:32:54.821Z</time></trkpt><trkpt lat="45.9648602" lon="9.1675555"><ele>239.25</ele><time>2026-03-29T11:32:55.812Z</time></trkpt><trkpt lat="45.9649459" lon="9.167665"><ele>240.0</ele><time>2026-03-29T11:32:56.822Z</time></trkpt><trkpt lat="45.9650472" lon="9.1677772"><ele>240.0</ele><time>2026-03-29T11:32:57.824Z</time></trkpt><trkpt lat="45.9651607" lon="9.1679106"><ele>240.0</ele><time>2026-03-29T11:32:58.816Z</time></trkpt><trkpt lat="45.9652501" lon="9.1680153"><ele>240.0</ele><time>2026-03-29T11:32:59.823Z</time></trkpt><trkpt lat="45.9653359" lon="9.168115"><ele>240.0</ele><time>2026-03-29T11:33:00.815Z</time></trkpt><trkpt lat="45.9654072" lon="9.1682281"><ele>237.2</ele><time>2026-03-29T11:33:01.817Z</time></trkpt><trkpt lat="45.9654631" lon="9.1683422"><ele>234.4</ele><time>2026-03-29T11:33:02.819Z</time></trkpt><trkpt lat="45.9655252" lon="9.1684512"><ele>231.60000000000002</ele><time>2026-03-29T11:33:03.808Z</time></trkpt><trkpt lat="45.9655875" lon="9.1685506"><ele>228.8</ele><time>2026-03-29T11:33:04.838Z</time></trkpt><trkpt lat="45.9656478" lon="9.1686398"><ele>226.0</ele><time>2026-03-29T11:33:05.83Z</time></trkpt><trkpt lat="45.9657195" lon="9.1687187"><ele>226.0</ele><time>2026-03-29T11:33:06.816Z</time></trkpt><trkpt lat="45.9658039" lon="9.1687758"><ele>226.00000000000003</ele><time>2026-03-29T11:33:07.817Z</time></trkpt><trkpt lat="45.9658984" lon="9.1688397"><ele>226.00000000000003</ele><time>2026-03-29T11:33:08.839Z</time></trkpt><trkpt lat="45.9659959" lon="9.1689119"><ele>226.0</ele><time>2026-03-29T11:33:09.811Z</time></trkpt><trkpt lat="45.9660838" lon="9.169002"><ele>226.0</ele><time>2026-03-29T11:33:10.845Z</time></trkpt><trkpt lat="45.9661613" lon="9.1691203"><ele>227.20000000000002</ele><time>2026-03-29T11:33:11.815Z</time></trkpt><trkpt lat="45.9662382" lon="9.1692411"><ele>228.40000000000003</ele><time>2026-03-29T11:33:12.838Z</time></trkpt><trkpt lat="45.9663032" lon="9.1693438"><ele>229.6</ele><time>2026-03-29T11:33:13.816Z</time></trkpt><trkpt lat="45.9663549" lon="9.1694425"><ele>230.8</ele><time>2026-03-29T11:33:14.822Z</time></trkpt><trkpt lat="45.9664027" lon="9.1695678"><ele>232.0</ele><time>2026-03-29T11:33:15.819Z</time></trkpt><trkpt lat="45.9664522" lon="9.1697183"><ele>228.75</ele><time>2026-03-29T11:33:16.824Z</time></trkpt><trkpt lat="45.9664999" lon="9.1698962"><ele>225.5</ele><time>2026-03-29T11:33:17.828Z</time></trkpt><trkpt lat="45.9665411" lon="9.170082"><ele>222.25</ele><time>2026-03-29T11:33:18.831Z</time></trkpt><trkpt lat="45.9665838" lon="9.1702596"><ele>219.0</ele><time>2026-03-29T11:33:19.825Z</time></trkpt><trkpt lat="45.9666309" lon="9.1704348"><ele>219.0</ele><time>2026-03-29T11:33:20.833Z</time></trkpt><trkpt lat="45.9666791" lon="9.1706088"><ele>219.0</ele><time>2026-03-29T11:33:21.827Z</time></trkpt><trkpt lat="45.9667247" lon="9.1707721"><ele>219.0</ele><time>2026-03-29T11:33:22.825Z</time></trkpt><trkpt lat="45.9667802" lon="9.1709277"><ele>219.0</ele><time>2026-03-29T11:33:23.826Z</time></trkpt><trkpt lat="45.9668395" lon="9.171087"><ele>219.0</ele><time>2026-03-29T11:33:24.829Z</time></trkpt><trkpt lat="45.9669087" lon="9.1712522"><ele>219.0</ele><time>2026-03-29T11:33:25.827Z</time></trkpt><trkpt lat="45.9669714" lon="9.1714204"><ele>219.0</ele><time>2026-03-29T11:33:26.824Z</time></trkpt><trkpt lat="45.9670375" lon="9.1715888"><ele>219.0</ele><time>2026-03-29T11:33:27.821Z</time></trkpt><trkpt lat="45.9671081" lon="9.1717601"><ele>219.0</ele><time>2026-03-29T11:33:28.827Z</time></trkpt><trkpt lat="45.9671817" lon="9.1719069"><ele>219.0</ele><time>2026-03-29T11:33:29.816Z</time></trkpt><trkpt lat="45.9672808" lon="9.1720285"><ele>219.0</ele><time>2026-03-29T11:33:30.825Z</time></trkpt><trkpt lat="45.9673798" lon="9.1721412"><ele>219.0</ele><time>2026-03-29T11:33:31.824Z</time></trkpt><trkpt lat="45.9674811" lon="9.1722346"><ele>221.0</ele><time>2026-03-29T11:33:32.829Z</time></trkpt><trkpt lat="45.9675944" lon="9.1723233"><ele>223.0</ele><time>2026-03-29T11:33:33.828Z</time></trkpt><trkpt lat="45.9677025" lon="9.1724071"><ele>225.0</ele><time>2026-03-29T11:33:34.832Z</time></trkpt><trkpt lat="45.967822" lon="9.1724887"><ele>227.0</ele><time>2026-03-29T11:33:35.83Z</time></trkpt><trkpt lat="45.9679342" lon="9.1725707"><ele>227.0</ele><time>2026-03-29T11:33:36.825Z</time></trkpt><trkpt lat="45.9680329" lon="9.172661"><ele>227.0</ele><time>2026-03-29T11:33:37.826Z</time></trkpt><trkpt lat="45.9681115" lon="9.1727867"><ele>227.0</ele><time>2026-03-29T11:33:38.828Z</time></trkpt><trkpt lat="45.9681728" lon="9.1729426"><ele>227.0</ele><time>2026-03-29T11:33:39.831Z</time></trkpt><trkpt lat="45.9682308" lon="9.173107"><ele>223.25</ele><time>2026-03-29T11:33:40.826Z</time></trkpt><trkpt lat="45.9682846" lon="9.1732655"><ele>219.5</ele><time>2026-03-29T11:33:41.822Z</time></trkpt><trkpt lat="45.9683411" lon="9.1734167"><ele>215.75</ele><time>2026-03-29T11:33:42.829Z</time></trkpt><trkpt lat="45.9684017" lon="9.1735649"><ele>212.0</ele><time>2026-03-29T11:33:43.825Z</time></trkpt><trkpt lat="45.9684619" lon="9.1737143"><ele>218.0</ele><time>2026-03-29T11:33:44.827Z</time></trkpt><trkpt lat="45.9685169" lon="9.1738651"><ele>224.0</ele><time>2026-03-29T11:33:45.826Z</time></trkpt><trkpt lat="45.9685743" lon="9.1740185"><ele>230.0</ele><time>2026-03-29T11:33:46.822Z</time></trkpt><trkpt lat="45.9686331" lon="9.174166"><ele>236.0</ele><time>2026-03-29T11:33:47.83Z</time></trkpt><trkpt lat="45.9686915" lon="9.1743174"><ele>236.0</ele><time>2026-03-29T11:33:48.835Z</time></trkpt><trkpt lat="45.9687546" lon="9.1744649"><ele>236.0</ele><time>2026-03-29T11:33:49.832Z</time></trkpt><trkpt lat="45.9688153" lon="9.1746065"><ele>236.0</ele><time>2026-03-29T11:33:50.82Z</time></trkpt><trkpt lat="45.9688958" lon="9.1747385"><ele>236.0</ele><time>2026-03-29T11:33:51.824Z</time></trkpt><trkpt lat="45.9689866" lon="9.1748621"><ele>231.25</ele><time>2026-03-29T11:33:52.829Z</time></trkpt><trkpt lat="45.9690833" lon="9.1749721"><ele>226.5</ele><time>2026-03-29T11:33:53.821Z</time></trkpt><trkpt lat="45.9691598" lon="9.1750872"><ele>221.75</ele><time>2026-03-29T11:33:54.816Z</time></trkpt><trkpt lat="45.9692049" lon="9.1752235"><ele>217.0</ele><time>2026-03-29T11:33:55.808Z</time></trkpt><trkpt lat="45.9692306" lon="9.1753805"><ele>216.5</ele><time>2026-03-29T11:33:56.822Z</time></trkpt><trkpt lat="45.9692463" lon="9.1755311"><ele>216.0</ele><time>2026-03-29T11:33:57.822Z</time></trkpt><trkpt lat="45.9692297" lon="9.175696"><ele>215.5</ele><time>2026-03-29T11:33:58.823Z</time></trkpt><trkpt lat="45.9691971" lon="9.1758425"><ele>215.0</ele><time>2026-03-29T11:33:59.817Z</time></trkpt><trkpt lat="45.9691448" lon="9.1760015"><ele>215.0</ele><time>2026-03-29T11:34:00.812Z</time></trkpt><trkpt lat="45.969094" lon="9.1761666"><ele>215.0</ele><time>2026-03-29T11:34:01.813Z</time></trkpt><trkpt lat="45.9690655" lon="9.1763348"><ele>215.0</ele><time>2026-03-29T11:34:02.803Z</time></trkpt><trkpt lat="45.9690201" lon="9.1764823"><ele>215.0</ele><time>2026-03-29T11:34:03.814Z</time></trkpt><trkpt lat="45.968961" lon="9.1766306"><ele>217.0</ele><time>2026-03-29T11:34:04.817Z</time></trkpt><trkpt lat="45.9688825" lon="9.1767809"><ele>219.0</ele><time>2026-03-29T11:34:05.818Z</time></trkpt><trkpt lat="45.9688108" lon="9.1769391"><ele>221.0</ele><time>2026-03-29T11:34:06.812Z</time></trkpt><trkpt lat="45.9687413" lon="9.1771038"><ele>223.0</ele><time>2026-03-29T11:34:07.813Z</time></trkpt><trkpt lat="45.9686653" lon="9.1772627"><ele>223.75</ele><time>2026-03-29T11:34:08.809Z</time></trkpt><trkpt lat="45.9685636" lon="9.1774035"><ele>224.5</ele><time>2026-03-29T11:34:09.812Z</time></trkpt><trkpt lat="45.9684528" lon="9.1775426"><ele>225.25</ele><time>2026-03-29T11:34:10.815Z</time></trkpt><trkpt lat="45.9683468" lon="9.177677"><ele>226.0</ele><time>2026-03-29T11:34:11.823Z</time></trkpt><trkpt lat="45.9682483" lon="9.177811"><ele>223.75</ele><time>2026-03-29T11:34:12.819Z</time></trkpt><trkpt lat="45.9681674" lon="9.1779578"><ele>221.5</ele><time>2026-03-29T11:34:13.823Z</time></trkpt><trkpt lat="45.9681181" lon="9.1781004"><ele>219.25</ele><time>2026-03-29T11:34:14.825Z</time></trkpt><trkpt lat="45.9680855" lon="9.178245"><ele>217.0</ele><time>2026-03-29T11:34:15.824Z</time></trkpt><trkpt lat="45.9680533" lon="9.1784"><ele>217.0</ele><time>2026-03-29T11:34:16.816Z</time></trkpt><trkpt lat="45.9680219" lon="9.1785598"><ele>217.0</ele><time>2026-03-29T11:34:17.83Z</time></trkpt><trkpt lat="45.9679888" lon="9.1787246"><ele>217.0</ele><time>2026-03-29T11:34:18.823Z</time></trkpt><trkpt lat="45.9679546" lon="9.1788945"><ele>217.0</ele><time>2026-03-29T11:34:19.819Z</time></trkpt><trkpt lat="45.967916" lon="9.1790634"><ele>218.0</ele><time>2026-03-29T11:34:20.824Z</time></trkpt><trkpt lat="45.967876" lon="9.179228"><ele>219.0</ele><time>2026-03-29T11:34:21.825Z</time></trkpt><trkpt lat="45.9678388" lon="9.179398"><ele>220.0</ele><time>2026-03-29T11:34:22.818Z</time></trkpt><trkpt lat="45.9678103" lon="9.1795742"><ele>221.0</ele><time>2026-03-29T11:34:23.831Z</time></trkpt><trkpt lat="45.967783" lon="9.1797577"><ele>222.0</ele><time>2026-03-29T11:34:24.823Z</time></trkpt><trkpt lat="45.9677539" lon="9.1799477"><ele>223.0</ele><time>2026-03-29T11:34:25.818Z</time></trkpt><trkpt lat="45.967725" lon="9.1801407"><ele>224.0</ele><time>2026-03-29T11:34:26.823Z</time></trkpt><trkpt lat="45.9677066" lon="9.1803545"><ele>225.0</ele><time>2026-03-29T11:34:27.824Z</time></trkpt><trkpt lat="45.9676842" lon="9.1805488"><ele>225.25</ele><time>2026-03-29T11:34:28.826Z</time></trkpt><trkpt lat="45.9676711" lon="9.1807397"><ele>225.5</ele><time>2026-03-29T11:34:29.824Z</time></trkpt><trkpt lat="45.9676548" lon="9.1809266"><ele>225.75</ele><time>2026-03-29T11:34:30.831Z</time></trkpt><trkpt lat="45.9676264" lon="9.1811118"><ele>226.0</ele><time>2026-03-29T11:34:31.824Z</time></trkpt><trkpt lat="45.9676084" lon="9.1812861"><ele>226.0</ele><time>2026-03-29T11:34:32.822Z</time></trkpt><trkpt lat="45.9675961" lon="9.1814495"><ele>226.00000000000003</ele><time>2026-03-29T11:34:33.827Z</time></trkpt><trkpt lat="45.967589" lon="9.1816031"><ele>226.00000000000003</ele><time>2026-03-29T11:34:34.828Z</time></trkpt><trkpt lat="45.9675792" lon="9.1817536"><ele>226.0</ele><time>2026-03-29T11:34:35.831Z</time></trkpt><trkpt lat="45.9675689" lon="9.1819124"><ele>226.0</ele><time>2026-03-29T11:34:36.824Z</time></trkpt><trkpt lat="45.9675553" lon="9.1820759"><ele>226.0</ele><time>2026-03-29T11:34:37.819Z</time></trkpt><trkpt lat="45.9675455" lon="9.1822257"><ele>226.00000000000003</ele><time>2026-03-29T11:34:38.828Z</time></trkpt><trkpt lat="45.9675419" lon="9.1823726"><ele>226.00000000000003</ele><time>2026-03-29T11:34:39.823Z</time></trkpt><trkpt lat="45.9675442" lon="9.1825215"><ele>226.0</ele><time>2026-03-29T11:34:40.829Z</time></trkpt><trkpt lat="45.9675523" lon="9.1826802"><ele>226.0</ele><time>2026-03-29T11:34:41.823Z</time></trkpt><trkpt lat="45.9675651" lon="9.1828543"><ele>226.0</ele><time>2026-03-29T11:34:42.829Z</time></trkpt><trkpt lat="45.9675824" lon="9.1830355"><ele>226.0</ele><time>2026-03-29T11:34:43.823Z</time></trkpt><trkpt lat="45.9675974" lon="9.183211"><ele>226.0</ele><time>2026-03-29T11:34:44.824Z</time></trkpt><trkpt lat="45.9676093" lon="9.1833814"><ele>226.0</ele><time>2026-03-29T11:34:45.821Z</time></trkpt><trkpt lat="45.9676075" lon="9.1835432"><ele>226.0</ele><time>2026-03-29T11:34:46.821Z</time></trkpt><trkpt lat="45.9675923" lon="9.1837062"><ele>226.00000000000003</ele><time>2026-03-29T11:34:47.825Z</time></trkpt><trkpt lat="45.9675755" lon="9.1838646"><ele>226.00000000000003</ele><time>2026-03-29T11:34:48.814Z</time></trkpt><trkpt lat="45.9675583" lon="9.1840189"><ele>226.0</ele><time>2026-03-29T11:34:49.816Z</time></trkpt><trkpt lat="45.967526" lon="9.1841649"><ele>226.0</ele><time>2026-03-29T11:34:50.819Z</time></trkpt><trkpt lat="45.9674721" lon="9.1842991"><ele>223.20000000000002</ele><time>2026-03-29T11:34:51.82Z</time></trkpt><trkpt lat="45.9674242" lon="9.1844154"><ele>220.40000000000003</ele><time>2026-03-29T11:34:52.834Z</time></trkpt><trkpt lat="45.9673749" lon="9.1845543"><ele>217.6</ele><time>2026-03-29T11:34:53.822Z</time></trkpt><trkpt lat="45.9673545" lon="9.1847129"><ele>214.8</ele><time>2026-03-29T11:34:54.825Z</time></trkpt><trkpt lat="45.9673503" lon="9.1848801"><ele>212.0</ele><time>2026-03-29T11:34:55.819Z</time></trkpt><trkpt lat="45.9673842" lon="9.1850304"><ele>212.25</ele><time>2026-03-29T11:34:56.824Z</time></trkpt><trkpt lat="45.9674537" lon="9.1851629"><ele>212.5</ele><time>2026-03-29T11:34:57.819Z</time></trkpt><trkpt lat="45.9675319" lon="9.1852812"><ele>212.75</ele><time>2026-03-29T11:34:58.817Z</time></trkpt><trkpt lat="45.9676296" lon="9.1853817"><ele>213.0</ele><time>2026-03-29T11:34:59.819Z</time></trkpt><trkpt lat="45.9677239" lon="9.1854977"><ele>213.0</ele><time>2026-03-29T11:35:00.822Z</time></trkpt><trkpt lat="45.9678044" lon="9.1856098"><ele>213.0</ele><time>2026-03-29T11:35:01.817Z</time></trkpt><trkpt lat="45.9678693" lon="9.1857438"><ele>213.0</ele><time>2026-03-29T11:35:02.813Z</time></trkpt><trkpt lat="45.9679281" lon="9.1858926"><ele>213.0</ele><time>2026-03-29T11:35:03.823Z</time></trkpt><trkpt lat="45.9679744" lon="9.1860508"><ele>212.5</ele><time>2026-03-29T11:35:04.818Z</time></trkpt><trkpt lat="45.9680186" lon="9.1862127"><ele>212.0</ele><time>2026-03-29T11:35:05.822Z</time></trkpt><trkpt lat="45.9680616" lon="9.1863701"><ele>211.5</ele><time>2026-03-29T11:35:06.822Z</time></trkpt><trkpt lat="45.9681017" lon="9.1865316"><ele>211.0</ele><time>2026-03-29T11:35:07.823Z</time></trkpt><trkpt lat="45.9681457" lon="9.1867003"><ele>210.25</ele><time>2026-03-29T11:35:08.826Z</time></trkpt><trkpt lat="45.9681946" lon="9.1868669"><ele>209.5</ele><time>2026-03-29T11:35:09.821Z</time></trkpt><trkpt lat="45.9682402" lon="9.187032"><ele>208.75</ele><time>2026-03-29T11:35:10.826Z</time></trkpt><trkpt lat="45.9682869" lon="9.1872004"><ele>208.0</ele><time>2026-03-29T11:35:11.827Z</time></trkpt><trkpt lat="45.9683338" lon="9.1873728"><ele>212.0</ele><time>2026-03-29T11:35:12.825Z</time></trkpt><trkpt lat="45.9683783" lon="9.187546"><ele>216.0</ele><time>2026-03-29T11:35:13.827Z</time></trkpt><trkpt lat="45.9684268" lon="9.1877193"><ele>220.0</ele><time>2026-03-29T11:35:14.826Z</time></trkpt><trkpt lat="45.9684774" lon="9.1878929"><ele>224.0</ele><time>2026-03-29T11:35:15.829Z</time></trkpt><trkpt lat="45.9685278" lon="9.1880651"><ele>224.5</ele><time>2026-03-29T11:35:16.825Z</time></trkpt><trkpt lat="45.9685779" lon="9.1882371"><ele>225.0</ele><time>2026-03-29T11:35:17.827Z</time></trkpt><trkpt lat="45.9686215" lon="9.1884194"><ele>225.5</ele><time>2026-03-29T11:35:18.822Z</time></trkpt><trkpt lat="45.9686658" lon="9.1886058"><ele>226.0</ele><time>2026-03-29T11:35:19.823Z</time></trkpt><trkpt lat="45.9687096" lon="9.1888018"><ele>226.0</ele><time>2026-03-29T11:35:20.825Z</time></trkpt><trkpt lat="45.9687591" lon="9.1889906"><ele>226.0</ele><time>2026-03-29T11:35:21.822Z</time></trkpt><trkpt lat="45.9687947" lon="9.1891644"><ele>226.0</ele><time>2026-03-29T11:35:22.838Z</time></trkpt><trkpt lat="45.9688453" lon="9.1893451"><ele>226.0</ele><time>2026-03-29T11:35:23.829Z</time></trkpt><trkpt lat="45.9688937" lon="9.1895224"><ele>225.75</ele><time>2026-03-29T11:35:24.823Z</time></trkpt><trkpt lat="45.9689246" lon="9.1897128"><ele>225.5</ele><time>2026-03-29T11:35:25.832Z</time></trkpt><trkpt lat="45.9689824" lon="9.1899012"><ele>225.25</ele><time>2026-03-29T11:35:26.826Z</time></trkpt><trkpt lat="45.9690458" lon="9.1900787"><ele>225.0</ele><time>2026-03-29T11:35:27.831Z</time></trkpt><trkpt lat="45.9690984" lon="9.1902706"><ele>225.25</ele><time>2026-03-29T11:35:28.82Z</time></trkpt><trkpt lat="45.9691473" lon="9.1904704"><ele>225.5</ele><time>2026-03-29T11:35:29.821Z</time></trkpt><trkpt lat="45.9692026" lon="9.1906476"><ele>225.75</ele><time>2026-03-29T11:35:30.823Z</time></trkpt><trkpt lat="45.9692851" lon="9.1907993"><ele>226.0</ele><time>2026-03-29T11:35:31.823Z</time></trkpt><trkpt lat="45.9693087" lon="9.1910182"><ele>225.5</ele><time>2026-03-29T11:35:32.826Z</time></trkpt><trkpt lat="45.9693369" lon="9.1912214"><ele>225.0</ele><time>2026-03-29T11:35:33.823Z</time></trkpt><trkpt lat="45.9693809" lon="9.1914434"><ele>224.5</ele><time>2026-03-29T11:35:34.82Z</time></trkpt><trkpt lat="45.9694055" lon="9.191642"><ele>224.0</ele><time>2026-03-29T11:35:35.829Z</time></trkpt><trkpt lat="45.9694405" lon="9.1918266"><ele>223.5</ele><time>2026-03-29T11:35:36.821Z</time></trkpt><trkpt lat="45.9694875" lon="9.1920275"><ele>223.0</ele><time>2026-03-29T11:35:37.817Z</time></trkpt><trkpt lat="45.9695482" lon="9.1922143"><ele>222.5</ele><time>2026-03-29T11:35:38.828Z</time></trkpt><trkpt lat="45.9696007" lon="9.1923906"><ele>222.0</ele><time>2026-03-29T11:35:39.828Z</time></trkpt><trkpt lat="45.9696809" lon="9.1925542"><ele>221.75</ele><time>2026-03-29T11:35:40.831Z</time></trkpt><trkpt lat="45.9697652" lon="9.1927125"><ele>221.5</ele><time>2026-03-29T11:35:41.829Z</time></trkpt><trkpt lat="45.9698666" lon="9.192866"><ele>221.25</ele><time>2026-03-29T11:35:42.825Z</time></trkpt><trkpt lat="45.9699729" lon="9.192981"><ele>221.0</ele><time>2026-03-29T11:35:43.821Z</time></trkpt><trkpt lat="45.9700939" lon="9.1930687"><ele>221.0</ele><time>2026-03-29T11:35:44.831Z</time></trkpt><trkpt lat="45.9702235" lon="9.1931414"><ele>221.0</ele><time>2026-03-29T11:35:45.831Z</time></trkpt><trkpt lat="45.9703641" lon="9.1932122"><ele>221.0</ele><time>2026-03-29T11:35:46.826Z</time></trkpt><trkpt lat="45.9704943" lon="9.1933044"><ele>221.0</ele><time>2026-03-29T11:35:47.827Z</time></trkpt><trkpt lat="45.9706305" lon="9.1933889"><ele>220.75</ele><time>2026-03-29T11:35:48.826Z</time></trkpt><trkpt lat="45.9707696" lon="9.1934655"><ele>220.5</ele><time>2026-03-29T11:35:49.822Z</time></trkpt><trkpt lat="45.9708838" lon="9.193559"><ele>220.25</ele><time>2026-03-29T11:35:50.825Z</time></trkpt><trkpt lat="45.9709998" lon="9.1936756"><ele>220.0</ele><time>2026-03-29T11:35:51.831Z</time></trkpt><trkpt lat="45.9711183" lon="9.1937663"><ele>220.0</ele><time>2026-03-29T11:35:52.831Z</time></trkpt><trkpt lat="45.9712258" lon="9.1938437"><ele>220.0</ele><time>2026-03-29T11:35:53.827Z</time></trkpt><trkpt lat="45.9713326" lon="9.1939247"><ele>220.0</ele><time>2026-03-29T11:35:54.83Z</time></trkpt><trkpt lat="45.9714448" lon="9.1940206"><ele>220.0</ele><time>2026-03-29T11:35:55.823Z</time></trkpt><trkpt lat="45.9715607" lon="9.1941085"><ele>219.75</ele><time>2026-03-29T11:35:56.822Z</time></trkpt><trkpt lat="45.9716898" lon="9.1941929"><ele>219.5</ele><time>2026-03-29T11:35:57.827Z</time></trkpt><trkpt lat="45.9718208" lon="9.1942901"><ele>219.25</ele><time>2026-03-29T11:35:58.826Z</time></trkpt><trkpt lat="45.9719514" lon="9.1943809"><ele>219.0</ele><time>2026-03-29T11:35:59.837Z</time></trkpt><trkpt lat="45.9720821" lon="9.1944762"><ele>219.0</ele><time>2026-03-29T11:36:00.827Z</time></trkpt><trkpt lat="45.9722154" lon="9.1945843"><ele>219.0</ele><time>2026-03-29T11:36:01.835Z</time></trkpt><trkpt lat="45.9723648" lon="9.1946889"><ele>219.0</ele><time>2026-03-29T11:36:02.827Z</time></trkpt><trkpt lat="45.9725067" lon="9.1948012"><ele>217.5</ele><time>2026-03-29T11:36:03.828Z</time></trkpt><trkpt lat="45.9726375" lon="9.1948787"><ele>216.0</ele><time>2026-03-29T11:36:04.828Z</time></trkpt><trkpt lat="45.9727659" lon="9.1949561"><ele>214.5</ele><time>2026-03-29T11:36:05.826Z</time></trkpt><trkpt lat="45.9728892" lon="9.19504"><ele>213.0</ele><time>2026-03-29T11:36:06.828Z</time></trkpt><trkpt lat="45.9730109" lon="9.1951594"><ele>213.0</ele><time>2026-03-29T11:36:07.842Z</time></trkpt><trkpt lat="45.9731194" lon="9.1952399"><ele>213.0</ele><time>2026-03-29T11:36:08.819Z</time></trkpt><trkpt lat="45.9731844" lon="9.1953413"><ele>213.0</ele><time>2026-03-29T11:36:09.827Z</time></trkpt><trkpt lat="45.9732541" lon="9.1954245"><ele>213.0</ele><time>2026-03-29T11:36:10.827Z</time></trkpt><trkpt lat="45.9733222" lon="9.1955318"><ele>213.0</ele><time>2026-03-29T11:36:11.819Z</time></trkpt><trkpt lat="45.9733969" lon="9.1956153"><ele>213.75</ele><time>2026-03-29T11:36:12.831Z</time></trkpt><trkpt lat="45.9734702" lon="9.1956943"><ele>214.5</ele><time>2026-03-29T11:36:13.827Z</time></trkpt><trkpt lat="45.9735618" lon="9.1957943"><ele>215.25</ele><time>2026-03-29T11:36:14.819Z</time></trkpt><trkpt lat="45.9736584" lon="9.1959208"><ele>216.0</ele><time>2026-03-29T11:36:15.83Z</time></trkpt><trkpt lat="45.9737624" lon="9.1960578"><ele>216.0</ele><time>2026-03-29T11:36:16.822Z</time></trkpt><trkpt lat="45.9738717" lon="9.1962238"><ele>216.0</ele><time>2026-03-29T11:36:17.829Z</time></trkpt><trkpt lat="45.9739993" lon="9.1963586"><ele>216.0</ele><time>2026-03-29T11:36:18.825Z</time></trkpt><trkpt lat="45.9741308" lon="9.1965139"><ele>218.66666666666669</ele><time>2026-03-29T11:36:19.821Z</time></trkpt><trkpt lat="45.974248" lon="9.1966745"><ele>221.33333333333334</ele><time>2026-03-29T11:36:20.826Z</time></trkpt><trkpt lat="45.9743783" lon="9.1968331"><ele>224.0</ele><time>2026-03-29T11:36:21.821Z</time></trkpt><trkpt lat="45.9744988" lon="9.1969952"><ele>224.0</ele><time>2026-03-29T11:36:22.827Z</time></trkpt><trkpt lat="45.9745924" lon="9.1971308"><ele>224.0</ele><time>2026-03-29T11:36:23.824Z</time></trkpt><trkpt lat="45.9746983" lon="9.1972583"><ele>224.0</ele><time>2026-03-29T11:36:24.815Z</time></trkpt><trkpt lat="45.9748097" lon="9.1973756"><ele>224.0</ele><time>2026-03-29T11:36:25.836Z</time></trkpt><trkpt lat="45.9749156" lon="9.1974913"><ele>224.5</ele><time>2026-03-29T11:36:26.825Z</time></trkpt><trkpt lat="45.9750183" lon="9.197579"><ele>225.0</ele><time>2026-03-29T11:36:27.828Z</time></trkpt><trkpt lat="45.9751142" lon="9.1976991"><ele>225.5</ele><time>2026-03-29T11:36:28.821Z</time></trkpt><trkpt lat="45.9752215" lon="9.197823"><ele>226.0</ele><time>2026-03-29T11:36:29.825Z</time></trkpt><trkpt lat="45.9753216" lon="9.1979388"><ele>226.0</ele><time>2026-03-29T11:36:30.826Z</time></trkpt><trkpt lat="45.9754077" lon="9.1980784"><ele>226.0</ele><time>2026-03-29T11:36:31.837Z</time></trkpt><trkpt lat="45.9754829" lon="9.1982298"><ele>226.0</ele><time>2026-03-29T11:36:32.853Z</time></trkpt><trkpt lat="45.9755772" lon="9.1983648"><ele>226.0</ele><time>2026-03-29T11:36:33.849Z</time></trkpt><trkpt lat="45.975681" lon="9.1985033"><ele>225.25</ele><time>2026-03-29T11:36:34.829Z</time></trkpt><trkpt lat="45.9757802" lon="9.1986556"><ele>224.5</ele><time>2026-03-29T11:36:35.828Z</time></trkpt><trkpt lat="45.9758782" lon="9.1987895"><ele>223.75</ele><time>2026-03-29T11:36:36.829Z</time></trkpt><trkpt lat="45.9759734" lon="9.1989321"><ele>223.0</ele><time>2026-03-29T11:36:37.85Z</time></trkpt><trkpt lat="45.9760605" lon="9.1990636"><ele>223.0</ele><time>2026-03-29T11:36:38.827Z</time></trkpt><trkpt lat="45.9761494" lon="9.1992013"><ele>223.0</ele><time>2026-03-29T11:36:39.834Z</time></trkpt><trkpt lat="45.9762517" lon="9.1993464"><ele>223.0</ele><time>2026-03-29T11:36:40.827Z</time></trkpt><trkpt lat="45.9763319" lon="9.1994822"><ele>223.0</ele><time>2026-03-29T11:36:41.826Z</time></trkpt><trkpt lat="45.976411" lon="9.1996208"><ele>223.0</ele><time>2026-03-29T11:36:42.826Z</time></trkpt><trkpt lat="45.9764981" lon="9.1997623"><ele>223.0</ele><time>2026-03-29T11:36:43.833Z</time></trkpt><trkpt lat="45.9765853" lon="9.1998902"><ele>223.0</ele><time>2026-03-29T11:36:44.827Z</time></trkpt><trkpt lat="45.9766723" lon="9.2000291"><ele>223.0</ele><time>2026-03-29T11:36:45.831Z</time></trkpt><trkpt lat="45.9767557" lon="9.2001731"><ele>224.0</ele><time>2026-03-29T11:36:46.825Z</time></trkpt><trkpt lat="45.9768237" lon="9.2003324"><ele>225.0</ele><time>2026-03-29T11:36:47.827Z</time></trkpt><trkpt lat="45.9768886" lon="9.2005035"><ele>226.0</ele><time>2026-03-29T11:36:48.839Z</time></trkpt><trkpt lat="45.9769546" lon="9.2006763"><ele>227.0</ele><time>2026-03-29T11:36:49.826Z</time></trkpt><trkpt lat="45.9770004" lon="9.2008871"><ele>227.0</ele><time>2026-03-29T11:36:50.832Z</time></trkpt><trkpt lat="45.9770628" lon="9.2010616"><ele>227.0</ele><time>2026-03-29T11:36:51.829Z</time></trkpt><trkpt lat="45.9771382" lon="9.2012082"><ele>227.0</ele><time>2026-03-29T11:36:52.839Z</time></trkpt><trkpt lat="45.9772299" lon="9.2013457"><ele>227.0</ele><time>2026-03-29T11:36:53.829Z</time></trkpt><trkpt lat="45.9773296" lon="9.2014736"><ele>226.5</ele><time>2026-03-29T11:36:54.82Z</time></trkpt><trkpt lat="45.9774334" lon="9.2015907"><ele>226.0</ele><time>2026-03-29T11:36:55.827Z</time></trkpt><trkpt lat="45.9775415" lon="9.2017229"><ele>225.5</ele><time>2026-03-29T11:36:56.824Z</time></trkpt><trkpt lat="45.9776525" lon="9.2018912"><ele>225.0</ele><time>2026-03-29T11:36:57.831Z</time></trkpt><trkpt lat="45.9777588" lon="9.2020495"><ele>225.0</ele><time>2026-03-29T11:36:58.821Z</time></trkpt><trkpt lat="45.977852" lon="9.2022033"><ele>225.0</ele><time>2026-03-29T11:36:59.831Z</time></trkpt><trkpt lat="45.9779513" lon="9.2023381"><ele>225.0</ele><time>2026-03-29T11:37:00.823Z</time></trkpt><trkpt lat="45.9780502" lon="9.2024529"><ele>225.0</ele><time>2026-03-29T11:37:01.834Z</time></trkpt><trkpt lat="45.9781507" lon="9.2025845"><ele>225.0</ele><time>2026-03-29T11:37:02.817Z</time></trkpt><trkpt lat="45.9782562" lon="9.2026969"><ele>225.0</ele><time>2026-03-29T11:37:03.823Z</time></trkpt><trkpt lat="45.9783669" lon="9.2028354"><ele>225.0</ele><time>2026-03-29T11:37:04.829Z</time></trkpt><trkpt lat="45.9784694" lon="9.202988"><ele>225.0</ele><time>2026-03-29T11:37:05.814Z</time></trkpt><trkpt lat="45.9785816" lon="9.2031627"><ele>223.0</ele><time>2026-03-29T11:37:06.834Z</time></trkpt><trkpt lat="45.978686" lon="9.2033241"><ele>221.0</ele><time>2026-03-29T11:37:07.827Z</time></trkpt><trkpt lat="45.9787953" lon="9.2034492"><ele>219.0</ele><time>2026-03-29T11:37:08.82Z</time></trkpt><trkpt lat="45.9789225" lon="9.2035605"><ele>217.0</ele><time>2026-03-29T11:37:09.83Z</time></trkpt><trkpt lat="45.9790456" lon="9.2036533"><ele>217.0</ele><time>2026-03-29T11:37:10.826Z</time></trkpt><trkpt lat="45.979182" lon="9.2037567"><ele>217.0</ele><time>2026-03-29T11:37:11.834Z</time></trkpt><trkpt lat="45.9793198" lon="9.2038609"><ele>217.0</ele><time>2026-03-29T11:37:12.83Z</time></trkpt><trkpt lat="45.9794557" lon="9.2039542"><ele>217.75</ele><time>2026-03-29T11:37:13.824Z</time></trkpt><trkpt lat="45.979568" lon="9.2040491"><ele>218.5</ele><time>2026-03-29T11:37:14.828Z</time></trkpt><trkpt lat="45.9796812" lon="9.2041765"><ele>219.25</ele><time>2026-03-29T11:37:15.83Z</time></trkpt><trkpt lat="45.9797769" lon="9.2043006"><ele>220.0</ele><time>2026-03-29T11:37:16.829Z</time></trkpt><trkpt lat="45.9798807" lon="9.20443"><ele>220.0</ele><time>2026-03-29T11:37:17.834Z</time></trkpt><trkpt lat="45.9799846" lon="9.2045637"><ele>220.0</ele><time>2026-03-29T11:37:18.818Z</time></trkpt><trkpt lat="45.9800913" lon="9.2046918"><ele>220.0</ele><time>2026-03-29T11:37:19.827Z</time></trkpt><trkpt lat="45.9801883" lon="9.204838"><ele>220.0</ele><time>2026-03-29T11:37:20.829Z</time></trkpt><trkpt lat="45.9802936" lon="9.205008"><ele>220.75</ele><time>2026-03-29T11:37:21.828Z</time></trkpt><trkpt lat="45.9804094" lon="9.2051985"><ele>221.5</ele><time>2026-03-29T11:37:22.829Z</time></trkpt><trkpt lat="45.9804902" lon="9.2053562"><ele>222.25</ele><time>2026-03-29T11:37:23.827Z</time></trkpt><trkpt lat="45.9805492" lon="9.2055139"><ele>223.0</ele><time>2026-03-29T11:37:24.83Z</time></trkpt><trkpt lat="45.9806014" lon="9.2056737"><ele>221.5</ele><time>2026-03-29T11:37:25.828Z</time></trkpt><trkpt lat="45.9806563" lon="9.205829"><ele>220.0</ele><time>2026-03-29T11:37:26.827Z</time></trkpt><trkpt lat="45.9807179" lon="9.206"><ele>218.5</ele><time>2026-03-29T11:37:27.835Z</time></trkpt><trkpt lat="45.9807673" lon="9.2061723"><ele>217.0</ele><time>2026-03-29T11:37:28.838Z</time></trkpt><trkpt lat="45.9808211" lon="9.2063504"><ele>217.75</ele><time>2026-03-29T11:37:29.84Z</time></trkpt><trkpt lat="45.9808896" lon="9.2064995"><ele>218.5</ele><time>2026-03-29T11:37:30.831Z</time></trkpt><trkpt lat="45.9809721" lon="9.20667"><ele>219.25</ele><time>2026-03-29T11:37:31.837Z</time></trkpt><trkpt lat="45.9810569" lon="9.2068112"><ele>220.0</ele><time>2026-03-29T11:37:32.833Z</time></trkpt><trkpt lat="45.9811294" lon="9.2069724"><ele>220.0</ele><time>2026-03-29T11:37:33.831Z</time></trkpt><trkpt lat="45.9811927" lon="9.2071312"><ele>220.0</ele><time>2026-03-29T11:37:34.831Z</time></trkpt><trkpt lat="45.9812487" lon="9.2072825"><ele>220.0</ele><time>2026-03-29T11:37:35.832Z</time></trkpt><trkpt lat="45.9812919" lon="9.2074305"><ele>220.0</ele><time>2026-03-29T11:37:36.827Z</time></trkpt><trkpt lat="45.9813245" lon="9.2075784"><ele>219.25</ele><time>2026-03-29T11:37:37.829Z</time></trkpt><trkpt lat="45.9813557" lon="9.2077294"><ele>218.5</ele><time>2026-03-29T11:37:38.826Z</time></trkpt><trkpt lat="45.981385" lon="9.2078875"><ele>217.75</ele><time>2026-03-29T11:37:39.829Z</time></trkpt><trkpt lat="45.9814009" lon="9.208048"><ele>217.0</ele><time>2026-03-29T11:37:40.831Z</time></trkpt><trkpt lat="45.9814049" lon="9.208215"><ele>216.5</ele><time>2026-03-29T11:37:41.835Z</time></trkpt><trkpt lat="45.9813995" lon="9.208386"><ele>216.0</ele><time>2026-03-29T11:37:42.834Z</time></trkpt><trkpt lat="45.9813869" lon="9.2085656"><ele>215.5</ele><time>2026-03-29T11:37:43.831Z</time></trkpt><trkpt lat="45.9813597" lon="9.2087423"><ele>215.0</ele><time>2026-03-29T11:37:44.833Z</time></trkpt><trkpt lat="45.9813125" lon="9.2089152"><ele>215.25</ele><time>2026-03-29T11:37:45.836Z</time></trkpt><trkpt lat="45.9812574" lon="9.2090914"><ele>215.5</ele><time>2026-03-29T11:37:46.835Z</time></trkpt><trkpt lat="45.9811938" lon="9.2092704"><ele>215.75</ele><time>2026-03-29T11:37:47.835Z</time></trkpt><trkpt lat="45.9811129" lon="9.2094578"><ele>216.0</ele><time>2026-03-29T11:37:48.83Z</time></trkpt><trkpt lat="45.9810638" lon="9.2096322"><ele>216.0</ele><time>2026-03-29T11:37:49.83Z</time></trkpt><trkpt lat="45.9810555" lon="9.2098132"><ele>216.0</ele><time>2026-03-29T11:37:50.839Z</time></trkpt><trkpt lat="45.9810566" lon="9.2099917"><ele>216.0</ele><time>2026-03-29T11:37:51.84Z</time></trkpt><trkpt lat="45.9810918" lon="9.2101694"><ele>216.0</ele><time>2026-03-29T11:37:52.838Z</time></trkpt><trkpt lat="45.9811259" lon="9.2103275"><ele>216.0</ele><time>2026-03-29T11:37:53.838Z</time></trkpt><trkpt lat="45.9811535" lon="9.2104772"><ele>216.00000000000003</ele><time>2026-03-29T11:37:54.841Z</time></trkpt><trkpt lat="45.9811757" lon="9.2106368"><ele>216.00000000000003</ele><time>2026-03-29T11:37:55.833Z</time></trkpt><trkpt lat="45.9811913" lon="9.2107977"><ele>216.0</ele><time>2026-03-29T11:37:56.834Z</time></trkpt><trkpt lat="45.9811986" lon="9.2109576"><ele>216.0</ele><time>2026-03-29T11:37:57.834Z</time></trkpt><trkpt lat="45.98119" lon="9.2111175"><ele>216.0</ele><time>2026-03-29T11:37:58.833Z</time></trkpt><trkpt lat="45.9811767" lon="9.211282"><ele>216.0</ele><time>2026-03-29T11:37:59.829Z</time></trkpt><trkpt lat="45.9811596" lon="9.2114568"><ele>216.0</ele><time>2026-03-29T11:38:00.827Z</time></trkpt><trkpt lat="45.9811372" lon="9.2116331"><ele>216.0</ele><time>2026-03-29T11:38:01.833Z</time></trkpt><trkpt lat="45.9811114" lon="9.2118135"><ele>216.5</ele><time>2026-03-29T11:38:02.832Z</time></trkpt><trkpt lat="45.9810899" lon="9.211996"><ele>217.0</ele><time>2026-03-29T11:38:03.834Z</time></trkpt><trkpt lat="45.981075" lon="9.2121653"><ele>217.5</ele><time>2026-03-29T11:38:04.846Z</time></trkpt><trkpt lat="45.981077" lon="9.2123219"><ele>218.0</ele><time>2026-03-29T11:38:05.833Z</time></trkpt><trkpt lat="45.9810981" lon="9.2124546"><ele>217.2</ele><time>2026-03-29T11:38:06.839Z</time></trkpt><trkpt lat="45.9811281" lon="9.212587"><ele>216.4</ele><time>2026-03-29T11:38:07.838Z</time></trkpt><trkpt lat="45.9811636" lon="9.2127279"><ele>215.59999999999997</ele><time>2026-03-29T11:38:08.837Z</time></trkpt><trkpt lat="45.9812016" lon="9.2128838"><ele>214.79999999999998</ele><time>2026-03-29T11:38:09.837Z</time></trkpt><trkpt lat="45.9812362" lon="9.2130497"><ele>214.0</ele><time>2026-03-29T11:38:10.84Z</time></trkpt><trkpt lat="45.9812688" lon="9.2132222"><ele>213.0</ele><time>2026-03-29T11:38:11.836Z</time></trkpt><trkpt lat="45.9813063" lon="9.2133902"><ele>212.0</ele><time>2026-03-29T11:38:12.836Z</time></trkpt><trkpt lat="45.9813544" lon="9.2135537"><ele>211.0</ele><time>2026-03-29T11:38:13.84Z</time></trkpt><trkpt lat="45.9814178" lon="9.213706"><ele>210.0</ele><time>2026-03-29T11:38:14.838Z</time></trkpt><trkpt lat="45.9814915" lon="9.2138544"><ele>208.75</ele><time>2026-03-29T11:38:15.828Z</time></trkpt><trkpt lat="45.9815626" lon="9.2139974"><ele>207.5</ele><time>2026-03-29T11:38:16.835Z</time></trkpt><trkpt lat="45.9816286" lon="9.2141388"><ele>206.25</ele><time>2026-03-29T11:38:17.837Z</time></trkpt><trkpt lat="45.9816907" lon="9.2142658"><ele>205.0</ele><time>2026-03-29T11:38:18.834Z</time></trkpt><trkpt lat="45.9817553" lon="9.2143845"><ele>205.2</ele><time>2026-03-29T11:38:19.832Z</time></trkpt><trkpt lat="45.9818184" lon="9.2144835"><ele>205.4</ele><time>2026-03-29T11:38:20.834Z</time></trkpt><trkpt lat="45.9818791" lon="9.2145883"><ele>205.60000000000002</ele><time>2026-03-29T11:38:21.856Z</time></trkpt><trkpt lat="45.9819577" lon="9.2146766"><ele>205.8</ele><time>2026-03-29T11:38:22.84Z</time></trkpt><trkpt lat="45.9820495" lon="9.2147576"><ele>206.0</ele><time>2026-03-29T11:38:23.834Z</time></trkpt><trkpt lat="45.9821391" lon="9.2148561"><ele>206.0</ele><time>2026-03-29T11:38:24.826Z</time></trkpt><trkpt lat="45.9822112" lon="9.2149789"><ele>206.0</ele><time>2026-03-29T11:38:25.83Z</time></trkpt><trkpt lat="45.982261" lon="9.2151316"><ele>206.0</ele><time>2026-03-29T11:38:26.851Z</time></trkpt><trkpt lat="45.9823147" lon="9.2152937"><ele>206.0</ele><time>2026-03-29T11:38:27.832Z</time></trkpt><trkpt lat="45.9823858" lon="9.2154457"><ele>206.0</ele><time>2026-03-29T11:38:28.839Z</time></trkpt><trkpt lat="45.9824642" lon="9.2155966"><ele>206.0</ele><time>2026-03-29T11:38:29.839Z</time></trkpt><trkpt lat="45.9825326" lon="9.2157607"><ele>206.0</ele><time>2026-03-29T11:38:30.837Z</time></trkpt><trkpt lat="45.9825808" lon="9.215929"><ele>206.0</ele><time>2026-03-29T11:38:31.833Z</time></trkpt><trkpt lat="45.9826056" lon="9.2161042"><ele>209.5</ele><time>2026-03-29T11:38:32.832Z</time></trkpt><trkpt lat="45.982605" lon="9.2162743"><ele>213.0</ele><time>2026-03-29T11:38:33.831Z</time></trkpt><trkpt lat="45.9825864" lon="9.2164476"><ele>216.5</ele><time>2026-03-29T11:38:34.836Z</time></trkpt><trkpt lat="45.9825671" lon="9.2166275"><ele>220.0</ele><time>2026-03-29T11:38:35.83Z</time></trkpt><trkpt lat="45.9825432" lon="9.2168063"><ele>216.5</ele><time>2026-03-29T11:38:36.836Z</time></trkpt><trkpt lat="45.9825105" lon="9.216988"><ele>213.0</ele><time>2026-03-29T11:38:37.835Z</time></trkpt><trkpt lat="45.9824738" lon="9.2171665"><ele>209.5</ele><time>2026-03-29T11:38:38.837Z</time></trkpt><trkpt lat="45.982438" lon="9.2173531"><ele>206.0</ele><time>2026-03-29T11:38:39.832Z</time></trkpt><trkpt lat="45.9824026" lon="9.2175435"><ele>206.0</ele><time>2026-03-29T11:38:40.839Z</time></trkpt><trkpt lat="45.982368" lon="9.2177299"><ele>206.0</ele><time>2026-03-29T11:38:41.839Z</time></trkpt><trkpt lat="45.9823353" lon="9.2179193"><ele>206.0</ele><time>2026-03-29T11:38:42.832Z</time></trkpt><trkpt lat="45.9823017" lon="9.2181131"><ele>206.0</ele><time>2026-03-29T11:38:43.833Z</time></trkpt><trkpt lat="45.9822629" lon="9.2183086"><ele>207.5</ele><time>2026-03-29T11:38:44.838Z</time></trkpt><trkpt lat="45.9822198" lon="9.2185172"><ele>209.0</ele><time>2026-03-29T11:38:45.829Z</time></trkpt><trkpt lat="45.9821852" lon="9.2187211"><ele>210.5</ele><time>2026-03-29T11:38:46.834Z</time></trkpt><trkpt lat="45.9821383" lon="9.2189141"><ele>212.0</ele><time>2026-03-29T11:38:47.832Z</time></trkpt><trkpt lat="45.9820704" lon="9.2191051"><ele>212.25</ele><time>2026-03-29T11:38:48.831Z</time></trkpt><trkpt lat="45.982011" lon="9.2192773"><ele>212.5</ele><time>2026-03-29T11:38:49.837Z</time></trkpt><trkpt lat="45.9819412" lon="9.2194477"><ele>212.75</ele><time>2026-03-29T11:38:50.833Z</time></trkpt><trkpt lat="45.9818776" lon="9.2195921"><ele>213.0</ele><time>2026-03-29T11:38:51.828Z</time></trkpt><trkpt lat="45.9818201" lon="9.2197477"><ele>213.8</ele><time>2026-03-29T11:38:52.835Z</time></trkpt><trkpt lat="45.9817765" lon="9.2199011"><ele>214.60000000000002</ele><time>2026-03-29T11:38:53.833Z</time></trkpt><trkpt lat="45.98173" lon="9.220049"><ele>215.39999999999998</ele><time>2026-03-29T11:38:54.827Z</time></trkpt><trkpt lat="45.9817109" lon="9.2201959"><ele>216.2</ele><time>2026-03-29T11:38:55.84Z</time></trkpt><trkpt lat="45.981704" lon="9.2203471"><ele>217.0</ele><time>2026-03-29T11:38:56.83Z</time></trkpt><trkpt lat="45.9817013" lon="9.2205039"><ele>217.25</ele><time>2026-03-29T11:38:57.829Z</time></trkpt><trkpt lat="45.9817058" lon="9.2206681"><ele>217.5</ele><time>2026-03-29T11:38:58.824Z</time></trkpt><trkpt lat="45.9817075" lon="9.2208402"><ele>217.75</ele><time>2026-03-29T11:38:59.831Z</time></trkpt><trkpt lat="45.9817085" lon="9.2210192"><ele>218.0</ele><time>2026-03-29T11:39:00.82Z</time></trkpt><trkpt lat="45.981716" lon="9.2212108"><ele>218.0</ele><time>2026-03-29T11:39:01.836Z</time></trkpt><trkpt lat="45.9817219" lon="9.2213961"><ele>218.0</ele><time>2026-03-29T11:39:02.815Z</time></trkpt><trkpt lat="45.981714" lon="9.2215808"><ele>218.0</ele><time>2026-03-29T11:39:03.822Z</time></trkpt><trkpt lat="45.9817097" lon="9.2217635"><ele>218.0</ele><time>2026-03-29T11:39:04.829Z</time></trkpt><trkpt lat="45.9817236" lon="9.2219459"><ele>218.0</ele><time>2026-03-29T11:39:05.833Z</time></trkpt><trkpt lat="45.9817617" lon="9.2221177"><ele>218.0</ele><time>2026-03-29T11:39:06.83Z</time></trkpt><trkpt lat="45.9818189" lon="9.222289"><ele>218.0</ele><time>2026-03-29T11:39:07.832Z</time></trkpt><trkpt lat="45.9818948" lon="9.2224583"><ele>218.0</ele><time>2026-03-29T11:39:08.831Z</time></trkpt><trkpt lat="45.9820101" lon="9.2226246"><ele>218.0</ele><time>2026-03-29T11:39:09.837Z</time></trkpt><trkpt lat="45.9821249" lon="9.222775"><ele>218.0</ele><time>2026-03-29T11:39:10.823Z</time></trkpt><trkpt lat="45.9822559" lon="9.2229048"><ele>218.0</ele><time>2026-03-29T11:39:11.831Z</time></trkpt><trkpt lat="45.9823695" lon="9.2230878"><ele>215.0</ele><time>2026-03-29T11:39:12.826Z</time></trkpt><trkpt lat="45.9824681" lon="9.2232599"><ele>212.0</ele><time>2026-03-29T11:39:13.836Z</time></trkpt><trkpt lat="45.9825774" lon="9.2234248"><ele>209.0</ele><time>2026-03-29T11:39:14.823Z</time></trkpt><trkpt lat="45.9826651" lon="9.2236278"><ele>212.75</ele><time>2026-03-29T11:39:15.826Z</time></trkpt><trkpt lat="45.9827439" lon="9.2238107"><ele>216.5</ele><time>2026-03-29T11:39:16.833Z</time></trkpt><trkpt lat="45.9827838" lon="9.2240118"><ele>220.25</ele><time>2026-03-29T11:39:17.821Z</time></trkpt><trkpt lat="45.9827857" lon="9.224222"><ele>224.0</ele><time>2026-03-29T11:39:18.827Z</time></trkpt><trkpt lat="45.982806" lon="9.2243981"><ele>224.0</ele><time>2026-03-29T11:39:19.833Z</time></trkpt><trkpt lat="45.9828111" lon="9.2246017"><ele>224.0</ele><time>2026-03-29T11:39:20.852Z</time></trkpt><trkpt lat="45.9828037" lon="9.2247957"><ele>224.0</ele><time>2026-03-29T11:39:21.834Z</time></trkpt><trkpt lat="45.982826" lon="9.2249993"><ele>224.0</ele><time>2026-03-29T11:39:22.83Z</time></trkpt><trkpt lat="45.9828747" lon="9.2251924"><ele>222.75</ele><time>2026-03-29T11:39:23.834Z</time></trkpt><trkpt lat="45.9829335" lon="9.2253899"><ele>221.5</ele><time>2026-03-29T11:39:24.821Z</time></trkpt><trkpt lat="45.9830138" lon="9.2255784"><ele>220.25</ele><time>2026-03-29T11:39:25.836Z</time></trkpt><trkpt lat="45.9830977" lon="9.2257506"><ele>219.0</ele><time>2026-03-29T11:39:26.829Z</time></trkpt><trkpt lat="45.9831798" lon="9.2259411"><ele>220.25</ele><time>2026-03-29T11:39:27.831Z</time></trkpt><trkpt lat="45.9832596" lon="9.226137"><ele>221.5</ele><time>2026-03-29T11:39:28.833Z</time></trkpt><trkpt lat="45.9833346" lon="9.2263006"><ele>222.75</ele><time>2026-03-29T11:39:29.83Z</time></trkpt><trkpt lat="45.9833928" lon="9.2264492"><ele>224.0</ele><time>2026-03-29T11:39:30.829Z</time></trkpt><trkpt lat="45.9834799" lon="9.2266017"><ele>224.0</ele><time>2026-03-29T11:39:31.832Z</time></trkpt><trkpt lat="45.9835582" lon="9.2267435"><ele>224.0</ele><time>2026-03-29T11:39:32.832Z</time></trkpt><trkpt lat="45.9836337" lon="9.226902"><ele>224.0</ele><time>2026-03-29T11:39:33.834Z</time></trkpt><trkpt lat="45.9836991" lon="9.2270617"><ele>224.0</ele><time>2026-03-29T11:39:34.83Z</time></trkpt><trkpt lat="45.9837563" lon="9.2272245"><ele>220.75</ele><time>2026-03-29T11:39:35.831Z</time></trkpt><trkpt lat="45.9838111" lon="9.2273867"><ele>217.5</ele><time>2026-03-29T11:39:36.826Z</time></trkpt><trkpt lat="45.983873" lon="9.2275584"><ele>214.25</ele><time>2026-03-29T11:39:37.83Z</time></trkpt><trkpt lat="45.9839561" lon="9.2277177"><ele>211.0</ele><time>2026-03-29T11:39:38.827Z</time></trkpt><trkpt lat="45.9840543" lon="9.2278702"><ele>211.0</ele><time>2026-03-29T11:39:39.834Z</time></trkpt><trkpt lat="45.9841604" lon="9.2279882"><ele>211.0</ele><time>2026-03-29T11:39:40.83Z</time></trkpt><trkpt lat="45.9842512" lon="9.2280863"><ele>211.0</ele><time>2026-03-29T11:39:41.836Z</time></trkpt><trkpt lat="45.984341" lon="9.2281729"><ele>211.0</ele><time>2026-03-29T11:39:42.826Z</time></trkpt><trkpt lat="45.9844368" lon="9.2282789"><ele>213.25</ele><time>2026-03-29T11:39:43.835Z</time></trkpt><trkpt lat="45.9845188" lon="9.2283947"><ele>215.5</ele><time>2026-03-29T11:39:44.833Z</time></trkpt><trkpt lat="45.9846021" lon="9.2285269"><ele>217.75</ele><time>2026-03-29T11:39:45.834Z</time></trkpt><trkpt lat="45.9846913" lon="9.2286463"><ele>220.0</ele><time>2026-03-29T11:39:46.832Z</time></trkpt><trkpt lat="45.9847767" lon="9.2287734"><ele>220.0</ele><time>2026-03-29T11:39:47.834Z</time></trkpt><trkpt lat="45.984863" lon="9.2289042"><ele>220.0</ele><time>2026-03-29T11:39:48.827Z</time></trkpt><trkpt lat="45.9849521" lon="9.2290467"><ele>220.0</ele><time>2026-03-29T11:39:49.827Z</time></trkpt><trkpt lat="45.985042" lon="9.2292039"><ele>220.0</ele><time>2026-03-29T11:39:50.831Z</time></trkpt><trkpt lat="45.9851225" lon="9.2294074"><ele>221.5</ele><time>2026-03-29T11:39:51.835Z</time></trkpt><trkpt lat="45.9852046" lon="9.2295624"><ele>223.0</ele><time>2026-03-29T11:39:52.829Z</time></trkpt><trkpt lat="45.98529" lon="9.2297213"><ele>224.5</ele><time>2026-03-29T11:39:53.834Z</time></trkpt><trkpt lat="45.9853571" lon="9.2298952"><ele>226.0</ele><time>2026-03-29T11:39:54.825Z</time></trkpt><trkpt lat="45.985406" lon="9.2300688"><ele>226.0</ele><time>2026-03-29T11:39:55.834Z</time></trkpt><trkpt lat="45.9854559" lon="9.2302389"><ele>226.0</ele><time>2026-03-29T11:39:56.827Z</time></trkpt><trkpt lat="45.9854877" lon="9.2303892"><ele>226.0</ele><time>2026-03-29T11:39:57.841Z</time></trkpt><trkpt lat="45.985526" lon="9.2305355"><ele>226.0</ele><time>2026-03-29T11:39:58.826Z</time></trkpt><trkpt lat="45.9855726" lon="9.2306806"><ele>227.20000000000002</ele><time>2026-03-29T11:39:59.833Z</time></trkpt><trkpt lat="45.9856166" lon="9.2308079"><ele>228.40000000000003</ele><time>2026-03-29T11:40:00.827Z</time></trkpt><trkpt lat="45.9856826" lon="9.2309302"><ele>229.6</ele><time>2026-03-29T11:40:01.833Z</time></trkpt><trkpt lat="45.9857623" lon="9.2310465"><ele>230.8</ele><time>2026-03-29T11:40:02.826Z</time></trkpt><trkpt lat="45.9858411" lon="9.2311894"><ele>232.0</ele><time>2026-03-29T11:40:03.828Z</time></trkpt><trkpt lat="45.9859201" lon="9.231334"><ele>228.75</ele><time>2026-03-29T11:40:04.826Z</time></trkpt><trkpt lat="45.9859883" lon="9.2314813"><ele>225.5</ele><time>2026-03-29T11:40:05.831Z</time></trkpt><trkpt lat="45.9860532" lon="9.2316218"><ele>222.25</ele><time>2026-03-29T11:40:06.826Z</time></trkpt><trkpt lat="45.9861303" lon="9.2317534"><ele>219.0</ele><time>2026-03-29T11:40:07.827Z</time></trkpt><trkpt lat="45.9862202" lon="9.2318785"><ele>219.0</ele><time>2026-03-29T11:40:08.832Z</time></trkpt><trkpt lat="45.9863214" lon="9.2319981"><ele>219.0</ele><time>2026-03-29T11:40:09.833Z</time></trkpt><trkpt lat="45.9864227" lon="9.2321203"><ele>219.0</ele><time>2026-03-29T11:40:10.837Z</time></trkpt><trkpt lat="45.9865228" lon="9.232254"><ele>219.0</ele><time>2026-03-29T11:40:11.826Z</time></trkpt><trkpt lat="45.9866194" lon="9.2323988"><ele>223.25</ele><time>2026-03-29T11:40:12.827Z</time></trkpt><trkpt lat="45.9867045" lon="9.232552"><ele>227.5</ele><time>2026-03-29T11:40:13.829Z</time></trkpt><trkpt lat="45.9867931" lon="9.2327025"><ele>231.75</ele><time>2026-03-29T11:40:14.831Z</time></trkpt><trkpt lat="45.9868752" lon="9.2328596"><ele>236.0</ele><time>2026-03-29T11:40:15.834Z</time></trkpt><trkpt lat="45.9869587" lon="9.2330088"><ele>231.75</ele><time>2026-03-29T11:40:16.825Z</time></trkpt><trkpt lat="45.9870423" lon="9.2331572"><ele>227.5</ele><time>2026-03-29T11:40:17.834Z</time></trkpt><trkpt lat="45.9871231" lon="9.233295"><ele>223.25</ele><time>2026-03-29T11:40:18.829Z</time></trkpt><trkpt lat="45.9871861" lon="9.2334311"><ele>219.0</ele><time>2026-03-29T11:40:19.834Z</time></trkpt><trkpt lat="45.9872461" lon="9.233558"><ele>219.0</ele><time>2026-03-29T11:40:20.831Z</time></trkpt><trkpt lat="45.9873027" lon="9.2336846"><ele>219.0</ele><time>2026-03-29T11:40:21.832Z</time></trkpt><trkpt lat="45.9873638" lon="9.2338242"><ele>219.0</ele><time>2026-03-29T11:40:22.838Z</time></trkpt><trkpt lat="45.9874377" lon="9.2339676"><ele>219.0</ele><time>2026-03-29T11:40:23.835Z</time></trkpt><trkpt lat="45.9875058" lon="9.2340926"><ele>220.0</ele><time>2026-03-29T11:40:24.839Z</time></trkpt><trkpt lat="45.9875771" lon="9.2342346"><ele>221.0</ele><time>2026-03-29T11:40:25.835Z</time></trkpt><trkpt lat="45.9876483" lon="9.2343823"><ele>222.0</ele><time>2026-03-29T11:40:26.833Z</time></trkpt><trkpt lat="45.9877174" lon="9.2345216"><ele>223.0</ele><time>2026-03-29T11:40:27.824Z</time></trkpt><trkpt lat="45.987778" lon="9.2346602"><ele>219.25</ele><time>2026-03-29T11:40:28.831Z</time></trkpt><trkpt lat="45.9878337" lon="9.2348097"><ele>215.5</ele><time>2026-03-29T11:40:29.83Z</time></trkpt><trkpt lat="45.9878924" lon="9.2349629"><ele>211.75</ele><time>2026-03-29T11:40:30.832Z</time></trkpt><trkpt lat="45.9879535" lon="9.2351162"><ele>208.0</ele><time>2026-03-29T11:40:31.835Z</time></trkpt><trkpt lat="45.9880131" lon="9.235266"><ele>208.0</ele><time>2026-03-29T11:40:32.83Z</time></trkpt><trkpt lat="45.9880846" lon="9.2354003"><ele>208.0</ele><time>2026-03-29T11:40:33.827Z</time></trkpt><trkpt lat="45.9881743" lon="9.2355205"><ele>208.0</ele><time>2026-03-29T11:40:34.829Z</time></trkpt><trkpt lat="45.9882793" lon="9.2356142"><ele>208.0</ele><time>2026-03-29T11:40:35.831Z</time></trkpt><trkpt lat="45.9883913" lon="9.2357015"><ele>210.0</ele><time>2026-03-29T11:40:36.836Z</time></trkpt><trkpt lat="45.9885016" lon="9.2357976"><ele>212.0</ele><time>2026-03-29T11:40:37.825Z</time></trkpt><trkpt lat="45.9886159" lon="9.2358928"><ele>214.0</ele><time>2026-03-29T11:40:38.84Z</time></trkpt><trkpt lat="45.988736" lon="9.235981"><ele>216.0</ele><time>2026-03-29T11:40:39.836Z</time></trkpt><trkpt lat="45.9888613" lon="9.2360631"><ele>216.0</ele><time>2026-03-29T11:40:40.834Z</time></trkpt><trkpt lat="45.9889967" lon="9.2361285"><ele>216.0</ele><time>2026-03-29T11:40:41.838Z</time></trkpt><trkpt lat="45.9891267" lon="9.2362166"><ele>216.0</ele><time>2026-03-29T11:40:42.838Z</time></trkpt><trkpt lat="45.9892633" lon="9.2363041"><ele>216.0</ele><time>2026-03-29T11:40:43.836Z</time></trkpt><trkpt lat="45.9893872" lon="9.2364076"><ele>215.0</ele><time>2026-03-29T11:40:44.832Z</time></trkpt><trkpt lat="45.9895204" lon="9.2365001"><ele>214.0</ele><time>2026-03-29T11:40:45.835Z</time></trkpt><trkpt lat="45.989646" lon="9.2366331"><ele>213.0</ele><time>2026-03-29T11:40:46.836Z</time></trkpt><trkpt lat="45.9897759" lon="9.2367282"><ele>213.0</ele><time>2026-03-29T11:40:47.835Z</time></trkpt><trkpt lat="45.9898943" lon="9.2368094"><ele>213.0</ele><time>2026-03-29T11:40:48.839Z</time></trkpt><trkpt lat="45.9900184" lon="9.2368938"><ele>213.0</ele><time>2026-03-29T11:40:49.83Z</time></trkpt><trkpt lat="45.9901416" lon="9.2369855"><ele>213.0</ele><time>2026-03-29T11:40:50.836Z</time></trkpt><trkpt lat="45.9902721" lon="9.2370558"><ele>210.75</ele><time>2026-03-29T11:40:51.839Z</time></trkpt><trkpt lat="45.9904025" lon="9.2371425"><ele>208.5</ele><time>2026-03-29T11:40:52.837Z</time></trkpt><trkpt lat="45.9905419" lon="9.2372203"><ele>206.25</ele><time>2026-03-29T11:40:53.836Z</time></trkpt><trkpt lat="45.9906673" lon="9.2372978"><ele>204.0</ele><time>2026-03-29T11:40:54.841Z</time></trkpt><trkpt lat="45.9908104" lon="9.2373717"><ele>206.5</ele><time>2026-03-29T11:40:55.839Z</time></trkpt><trkpt lat="45.9909391" lon="9.2374525"><ele>209.0</ele><time>2026-03-29T11:40:56.835Z</time></trkpt><trkpt lat="45.9910602" lon="9.237531"><ele>211.5</ele><time>2026-03-29T11:40:57.838Z</time></trkpt><trkpt lat="45.991175" lon="9.2375885"><ele>214.0</ele><time>2026-03-29T11:40:58.834Z</time></trkpt><trkpt lat="45.9912828" lon="9.2376684"><ele>214.0</ele><time>2026-03-29T11:40:59.836Z</time></trkpt><trkpt lat="45.9914041" lon="9.2377269"><ele>214.0</ele><time>2026-03-29T11:41:00.835Z</time></trkpt><trkpt lat="45.9915115" lon="9.2377917"><ele>214.0</ele><time>2026-03-29T11:41:01.832Z</time></trkpt><trkpt lat="45.9916117" lon="9.2378581"><ele>214.0</ele><time>2026-03-29T11:41:02.835Z</time></trkpt><trkpt lat="45.9917172" lon="9.2379219"><ele>214.75</ele><time>2026-03-29T11:41:03.829Z</time></trkpt><trkpt lat="45.9918309" lon="9.2379725"><ele>215.5</ele><time>2026-03-29T11:41:04.834Z</time></trkpt><trkpt lat="45.9919481" lon="9.2380314"><ele>216.25</ele><time>2026-03-29T11:41:05.825Z</time></trkpt><trkpt lat="45.9920598" lon="9.2380876"><ele>217.0</ele><time>2026-03-29T11:41:06.834Z</time></trkpt><trkpt lat="45.9921685" lon="9.2381485"><ele>215.0</ele><time>2026-03-29T11:41:07.853Z</time></trkpt><trkpt lat="45.9922744" lon="9.238214"><ele>213.0</ele><time>2026-03-29T11:41:08.826Z</time></trkpt><trkpt lat="45.9923814" lon="9.2382851"><ele>211.0</ele><time>2026-03-29T11:41:09.828Z</time></trkpt><trkpt lat="45.9924919" lon="9.2383556"><ele>209.0</ele><time>2026-03-29T11:41:10.833Z</time></trkpt><trkpt lat="45.9926088" lon="9.2384083"><ele>209.0</ele><time>2026-03-29T11:41:11.831Z</time></trkpt><trkpt lat="45.9927275" lon="9.2384658"><ele>209.0</ele><time>2026-03-29T11:41:12.843Z</time></trkpt><trkpt lat="45.9928512" lon="9.2385182"><ele>209.0</ele><time>2026-03-29T11:41:13.841Z</time></trkpt><trkpt lat="45.9929813" lon="9.2385633"><ele>209.0</ele><time>2026-03-29T11:41:14.84Z</time></trkpt><trkpt lat="45.99311" lon="9.2386165"><ele>209.0</ele><time>2026-03-29T11:41:15.831Z</time></trkpt><trkpt lat="45.993243" lon="9.2386749"><ele>209.0</ele><time>2026-03-29T11:41:16.841Z</time></trkpt><trkpt lat="45.9933779" lon="9.2387422"><ele>209.0</ele><time>2026-03-29T11:41:17.84Z</time></trkpt><trkpt lat="45.9935146" lon="9.2388132"><ele>209.0</ele><time>2026-03-29T11:41:18.841Z</time></trkpt><trkpt lat="45.9936529" lon="9.2388937"><ele>211.0</ele><time>2026-03-29T11:41:19.838Z</time></trkpt><trkpt lat="45.9937995" lon="9.2389652"><ele>213.0</ele><time>2026-03-29T11:41:20.838Z</time></trkpt><trkpt lat="45.9939376" lon="9.2390442"><ele>215.0</ele><time>2026-03-29T11:41:21.836Z</time></trkpt><trkpt lat="45.994083" lon="9.2391165"><ele>211.0</ele><time>2026-03-29T11:41:22.848Z</time></trkpt><trkpt lat="45.9942392" lon="9.2391899"><ele>207.0</ele><time>2026-03-29T11:41:23.838Z</time></trkpt><trkpt lat="45.9943849" lon="9.239243"><ele>203.0</ele><time>2026-03-29T11:41:24.846Z</time></trkpt><trkpt lat="45.9945252" lon="9.2392903"><ele>203.0</ele><time>2026-03-29T11:41:25.829Z</time></trkpt><trkpt lat="45.9946506" lon="9.2393169"><ele>203.0</ele><time>2026-03-29T11:41:26.839Z</time></trkpt><trkpt lat="45.9947579" lon="9.2393151"><ele>203.0</ele><time>2026-03-29T11:41:27.832Z</time></trkpt><trkpt lat="45.9948604" lon="9.239257"><ele>203.0</ele><time>2026-03-29T11:41:28.841Z</time></trkpt><trkpt lat="45.9949551" lon="9.2391811"><ele>202.4</ele><time>2026-03-29T11:41:29.833Z</time></trkpt><trkpt lat="45.9950463" lon="9.2391107"><ele>201.8</ele><time>2026-03-29T11:41:30.841Z</time></trkpt><trkpt lat="45.9951511" lon="9.2390414"><ele>201.2</ele><time>2026-03-29T11:41:31.841Z</time></trkpt><trkpt lat="45.9952407" lon="9.2389879"><ele>200.6</ele><time>2026-03-29T11:41:32.838Z</time></trkpt><trkpt lat="45.9953378" lon="9.2389286"><ele>200.0</ele><time>2026-03-29T11:41:33.828Z</time></trkpt><trkpt lat="45.9954336" lon="9.238874"><ele>202.0</ele><time>2026-03-29T11:41:34.842Z</time></trkpt><trkpt lat="45.9955284" lon="9.2388304"><ele>204.0</ele><time>2026-03-29T11:41:35.835Z</time></trkpt><trkpt lat="45.9956177" lon="9.2388052"><ele>206.0</ele><time>2026-03-29T11:41:36.832Z</time></trkpt><trkpt lat="45.9957043" lon="9.2387843"><ele>208.0</ele><time>2026-03-29T11:41:37.844Z</time></trkpt><trkpt lat="45.9958015" lon="9.2387671"><ele>210.0</ele><time>2026-03-29T11:41:38.832Z</time></trkpt><trkpt lat="45.9959041" lon="9.2387532"><ele>210.0</ele><time>2026-03-29T11:41:39.842Z</time></trkpt><trkpt lat="45.9960163" lon="9.2387374"><ele>210.0</ele><time>2026-03-29T11:41:40.84Z</time></trkpt><trkpt lat="45.996136" lon="9.2387154"><ele>210.0</ele><time>2026-03-29T11:41:41.836Z</time></trkpt><trkpt lat="45.9962559" lon="9.2386891"><ele>210.0</ele><time>2026-03-29T11:41:42.854Z</time></trkpt><trkpt lat="45.9963887" lon="9.2386602"><ele>210.0</ele><time>2026-03-29T11:41:43.832Z</time></trkpt><trkpt lat="45.9965394" lon="9.2386222"><ele>210.0</ele><time>2026-03-29T11:41:44.838Z</time></trkpt><trkpt lat="45.9967296" lon="9.2386023"><ele>210.0</ele><time>2026-03-29T11:41:45.841Z</time></trkpt><trkpt lat="45.9968997" lon="9.2385953"><ele>209.66666666666669</ele><time>2026-03-29T11:41:46.832Z</time></trkpt><trkpt lat="45.9970498" lon="9.2385769"><ele>209.33333333333334</ele><time>2026-03-29T11:41:47.849Z</time></trkpt><trkpt lat="45.9972025" lon="9.2385381"><ele>209.0</ele><time>2026-03-29T11:41:48.841Z</time></trkpt><trkpt lat="45.9973579" lon="9.2385067"><ele>209.0</ele><time>2026-03-29T11:41:49.839Z</time></trkpt><trkpt lat="45.9974927" lon="9.2384488"><ele>209.0</ele><time>2026-03-29T11:41:50.841Z</time></trkpt><trkpt lat="45.9976227" lon="9.2383981"><ele>209.0</ele><time>2026-03-29T11:41:51.842Z</time></trkpt><trkpt lat="45.9977509" lon="9.238354"><ele>209.0</ele><time>2026-03-29T11:41:52.845Z</time></trkpt><trkpt lat="45.9978752" lon="9.2382737"><ele>209.0</ele><time>2026-03-29T11:41:53.847Z</time></trkpt><trkpt lat="45.997986" lon="9.2382088"><ele>209.0</ele><time>2026-03-29T11:41:54.84Z</time></trkpt><trkpt lat="45.9980934" lon="9.2381218"><ele>209.0</ele><time>2026-03-29T11:41:55.84Z</time></trkpt><trkpt lat="45.9981996" lon="9.2380389"><ele>209.0</ele><time>2026-03-29T11:41:56.836Z</time></trkpt><trkpt lat="45.9982993" lon="9.2379709"><ele>206.5</ele><time>2026-03-29T11:41:57.836Z</time></trkpt><trkpt lat="45.9983903" lon="9.2378644"><ele>204.0</ele><time>2026-03-29T11:41:58.846Z</time></trkpt><trkpt lat="45.9984857" lon="9.2377805"><ele>201.5</ele><time>2026-03-29T11:41:59.849Z</time></trkpt><trkpt lat="45.9985816" lon="9.2376845"><ele>199.0</ele><time>2026-03-29T11:42:00.87Z</time></trkpt><trkpt lat="45.9986723" lon="9.2375944"><ele>198.99999999999997</ele><time>2026-03-29T11:42:01.845Z</time></trkpt><trkpt lat="45.9987523" lon="9.2375096"><ele>199.0</ele><time>2026-03-29T11:42:02.834Z</time></trkpt><trkpt lat="45.9988284" lon="9.2374348"><ele>199.0</ele><time>2026-03-29T11:42:03.834Z</time></trkpt><trkpt lat="45.9988996" lon="9.2373631"><ele>199.0</ele><time>2026-03-29T11:42:04.838Z</time></trkpt><trkpt lat="45.9989645" lon="9.2372879"><ele>198.99999999999997</ele><time>2026-03-29T11:42:05.845Z</time></trkpt><trkpt lat="45.9990321" lon="9.2372077"><ele>199.0</ele><time>2026-03-29T11:42:06.838Z</time></trkpt><trkpt lat="45.9991036" lon="9.2371225"><ele>199.57142857142856</ele><time>2026-03-29T11:42:07.838Z</time></trkpt><trkpt lat="45.9991694" lon="9.2370496"><ele>200.14285714285714</ele><time>2026-03-29T11:42:08.834Z</time></trkpt><trkpt lat="45.9992298" lon="9.2369891"><ele>200.71428571428572</ele><time>2026-03-29T11:42:09.839Z</time></trkpt><trkpt lat="45.9992889" lon="9.2369295"><ele>201.28571428571428</ele><time>2026-03-29T11:42:10.837Z</time></trkpt><trkpt lat="45.9993437" lon="9.2368751"><ele>201.85714285714286</ele><time>2026-03-29T11:42:11.84Z</time></trkpt><trkpt lat="45.9993959" lon="9.2368217"><ele>202.42857142857142</ele><time>2026-03-29T11:42:12.827Z</time></trkpt><trkpt lat="45.9994511" lon="9.2367762"><ele>203.0</ele><time>2026-03-29T11:42:13.844Z</time></trkpt><trkpt lat="45.9995115" lon="9.2367376"><ele>203.00000000000003</ele><time>2026-03-29T11:42:14.835Z</time></trkpt><trkpt lat="45.999579" lon="9.2367108"><ele>203.0</ele><time>2026-03-29T11:42:15.836Z</time></trkpt><trkpt lat="45.9996516" lon="9.2366881"><ele>203.0</ele><time>2026-03-29T11:42:16.837Z</time></trkpt><trkpt lat="45.9997224" lon="9.236682"><ele>203.0</ele><time>2026-03-29T11:42:17.839Z</time></trkpt><trkpt lat="45.9998043" lon="9.2366788"><ele>203.00000000000003</ele><time>2026-03-29T11:42:18.86Z</time></trkpt><trkpt lat="45.9998949" lon="9.2366815"><ele>203.0</ele><time>2026-03-29T11:42:19.838Z</time></trkpt><trkpt lat="45.9999921" lon="9.2366833"><ele>203.0</ele><time>2026-03-29T11:42:20.836Z</time></trkpt><trkpt lat="46.0000891" lon="9.2366784"><ele>203.0</ele><time>2026-03-29T11:42:21.83Z</time></trkpt><trkpt lat="46.0001954" lon="9.2366694"><ele>203.0</ele><time>2026-03-29T11:42:22.837Z</time></trkpt><trkpt lat="46.0002956" lon="9.2366663"><ele>203.0</ele><time>2026-03-29T11:42:23.837Z</time></trkpt><trkpt lat="46.0003792" lon="9.2366581"><ele>203.0</ele><time>2026-03-29T11:42:24.829Z</time></trkpt><trkpt lat="46.0004457" lon="9.236644"><ele>203.00000000000003</ele><time>2026-03-29T11:42:25.836Z</time></trkpt><trkpt lat="46.0005071" lon="9.2366183"><ele>203.0</ele><time>2026-03-29T11:42:26.846Z</time></trkpt><trkpt lat="46.0005685" lon="9.2365876"><ele>203.0</ele><time>2026-03-29T11:42:27.842Z</time></trkpt><trkpt lat="46.0006332" lon="9.2365445"><ele>203.0</ele><time>2026-03-29T11:42:28.844Z</time></trkpt><trkpt lat="46.0006994" lon="9.2364896"><ele>203.00000000000003</ele><time>2026-03-29T11:42:29.845Z</time></trkpt><trkpt lat="46.000772" lon="9.2364198"><ele>203.0</ele><time>2026-03-29T11:42:30.834Z</time></trkpt><trkpt lat="46.000852" lon="9.2363312"><ele>205.66666666666669</ele><time>2026-03-29T11:42:31.849Z</time></trkpt><trkpt lat="46.0009581" lon="9.2362128"><ele>208.33333333333331</ele><time>2026-03-29T11:42:32.84Z</time></trkpt><trkpt lat="46.0010991" lon="9.236048"><ele>211.0</ele><time>2026-03-29T11:42:33.831Z</time></trkpt><trkpt lat="46.0012922" lon="9.2358326"><ele>211.0</ele><time>2026-03-29T11:42:34.839Z</time></trkpt><trkpt lat="46.001478" lon="9.2356567"><ele>211.0</ele><time>2026-03-29T11:42:35.833Z</time></trkpt><trkpt lat="46.0016296" lon="9.235524"><ele>211.0</ele><time>2026-03-29T11:42:36.83Z</time></trkpt><trkpt lat="46.0017709" lon="9.235379"><ele>211.25</ele><time>2026-03-29T11:42:37.832Z</time></trkpt><trkpt lat="46.0018845" lon="9.2352729"><ele>211.5</ele><time>2026-03-29T11:42:38.839Z</time></trkpt><trkpt lat="46.0019714" lon="9.2351744"><ele>211.75</ele><time>2026-03-29T11:42:39.834Z</time></trkpt><trkpt lat="46.0020554" lon="9.2350726"><ele>212.0</ele><time>2026-03-29T11:42:40.835Z</time></trkpt><trkpt lat="46.0021382" lon="9.234997"><ele>212.0</ele><time>2026-03-29T11:42:41.833Z</time></trkpt><trkpt lat="46.002247" lon="9.2349053"><ele>212.0</ele><time>2026-03-29T11:42:42.834Z</time></trkpt><trkpt lat="46.0023613" lon="9.2348284"><ele>212.0</ele><time>2026-03-29T11:42:43.854Z</time></trkpt><trkpt lat="46.0024752" lon="9.2347494"><ele>212.0</ele><time>2026-03-29T11:42:44.839Z</time></trkpt><trkpt lat="46.0025817" lon="9.2346955"><ele>213.8</ele><time>2026-03-29T11:42:45.829Z</time></trkpt><trkpt lat="46.0026889" lon="9.2346466"><ele>215.6</ele><time>2026-03-29T11:42:46.842Z</time></trkpt><trkpt lat="46.0027816" lon="9.2346086"><ele>217.40000000000003</ele><time>2026-03-29T11:42:47.837Z</time></trkpt><trkpt lat="46.0028697" lon="9.2345683"><ele>219.20000000000002</ele><time>2026-03-29T11:42:48.849Z</time></trkpt><trkpt lat="46.002963" lon="9.2345212"><ele>221.0</ele><time>2026-03-29T11:42:49.838Z</time></trkpt><trkpt lat="46.0030634" lon="9.2344802"><ele>221.0</ele><time>2026-03-29T11:42:50.845Z</time></trkpt><trkpt lat="46.0031704" lon="9.2344477"><ele>221.0</ele><time>2026-03-29T11:42:51.839Z</time></trkpt><trkpt lat="46.0032781" lon="9.234444"><ele>221.0</ele><time>2026-03-29T11:42:52.847Z</time></trkpt><trkpt lat="46.0033926" lon="9.2344719"><ele>221.0</ele><time>2026-03-29T11:42:53.837Z</time></trkpt><trkpt lat="46.0035104" lon="9.2345297"><ele>222.0</ele><time>2026-03-29T11:42:54.826Z</time></trkpt><trkpt lat="46.0036322" lon="9.2345893"><ele>223.0</ele><time>2026-03-29T11:42:55.83Z</time></trkpt><trkpt lat="46.0037602" lon="9.2346345"><ele>224.0</ele><time>2026-03-29T11:42:56.836Z</time></trkpt><trkpt lat="46.0038991" lon="9.234664"><ele>225.0</ele><time>2026-03-29T11:42:57.833Z</time></trkpt><trkpt lat="46.0040462" lon="9.2346795"><ele>225.0</ele><time>2026-03-29T11:42:58.829Z</time></trkpt><trkpt lat="46.0042043" lon="9.2346894"><ele>225.0</ele><time>2026-03-29T11:42:59.833Z</time></trkpt><trkpt lat="46.0043381" lon="9.2346827"><ele>225.0</ele><time>2026-03-29T11:43:00.836Z</time></trkpt><trkpt lat="46.0044368" lon="9.2346435"><ele>225.0</ele><time>2026-03-29T11:43:01.832Z</time></trkpt><trkpt lat="46.0045298" lon="9.2345919"><ele>225.0</ele><time>2026-03-29T11:43:02.826Z</time></trkpt><trkpt lat="46.0046302" lon="9.2345253"><ele>225.0</ele><time>2026-03-29T11:43:03.831Z</time></trkpt><trkpt lat="46.0047264" lon="9.2344895"><ele>225.0</ele><time>2026-03-29T11:43:04.824Z</time></trkpt><trkpt lat="46.0048605" lon="9.2344706"><ele>225.0</ele><time>2026-03-29T11:43:05.835Z</time></trkpt><trkpt lat="46.0049871" lon="9.2344616"><ele>220.25</ele><time>2026-03-29T11:43:06.83Z</time></trkpt><trkpt lat="46.0051274" lon="9.2344444"><ele>215.5</ele><time>2026-03-29T11:43:07.827Z</time></trkpt><trkpt lat="46.0052644" lon="9.2344045"><ele>210.75</ele><time>2026-03-29T11:43:08.833Z</time></trkpt><trkpt lat="46.0053863" lon="9.2343833"><ele>206.0</ele><time>2026-03-29T11:43:09.826Z</time></trkpt><trkpt lat="46.0055086" lon="9.2343478"><ele>206.0</ele><time>2026-03-29T11:43:10.833Z</time></trkpt><trkpt lat="46.0056362" lon="9.2343053"><ele>206.0</ele><time>2026-03-29T11:43:11.823Z</time></trkpt><trkpt lat="46.0057607" lon="9.2342661"><ele>206.0</ele><time>2026-03-29T11:43:12.82Z</time></trkpt><trkpt lat="46.0058958" lon="9.2342438"><ele>206.0</ele><time>2026-03-29T11:43:13.829Z</time></trkpt><trkpt lat="46.0060355" lon="9.2342221"><ele>205.5</ele><time>2026-03-29T11:43:14.827Z</time></trkpt><trkpt lat="46.0061592" lon="9.2342235"><ele>205.0</ele><time>2026-03-29T11:43:15.82Z</time></trkpt><trkpt lat="46.006284" lon="9.2342575"><ele>204.5</ele><time>2026-03-29T11:43:16.828Z</time></trkpt><trkpt lat="46.006421" lon="9.2342952"><ele>204.0</ele><time>2026-03-29T11:43:17.829Z</time></trkpt><trkpt lat="46.0065684" lon="9.2343416"><ele>205.25</ele><time>2026-03-29T11:43:18.828Z</time></trkpt><trkpt lat="46.0066937" lon="9.2343757"><ele>206.5</ele><time>2026-03-29T11:43:19.826Z</time></trkpt><trkpt lat="46.0068207" lon="9.2343947"><ele>207.75</ele><time>2026-03-29T11:43:20.848Z</time></trkpt><trkpt lat="46.0069629" lon="9.234419"><ele>209.0</ele><time>2026-03-29T11:43:21.853Z</time></trkpt><trkpt lat="46.007089" lon="9.2344442"><ele>209.0</ele><time>2026-03-29T11:43:22.861Z</time></trkpt><trkpt lat="46.0072005" lon="9.2344866"><ele>209.0</ele><time>2026-03-29T11:43:23.853Z</time></trkpt><trkpt lat="46.0073315" lon="9.2345327"><ele>209.0</ele><time>2026-03-29T11:43:24.854Z</time></trkpt><trkpt lat="46.0074723" lon="9.2346082"><ele>209.0</ele><time>2026-03-29T11:43:25.849Z</time></trkpt><trkpt lat="46.0076117" lon="9.2346866"><ele>212.0</ele><time>2026-03-29T11:43:26.83Z</time></trkpt><trkpt lat="46.0077487" lon="9.2347706"><ele>215.0</ele><time>2026-03-29T11:43:27.829Z</time></trkpt><trkpt lat="46.0079082" lon="9.2348539"><ele>218.0</ele><time>2026-03-29T11:43:28.838Z</time></trkpt><trkpt lat="46.0080658" lon="9.2349309"><ele>215.0</ele><time>2026-03-29T11:43:29.861Z</time></trkpt><trkpt lat="46.0082093" lon="9.2349752"><ele>212.0</ele><time>2026-03-29T11:43:30.859Z</time></trkpt><trkpt lat="46.0083237" lon="9.23502"><ele>209.0</ele><time>2026-03-29T11:43:31.834Z</time></trkpt><trkpt lat="46.0084401" lon="9.2350979"><ele>206.0</ele><time>2026-03-29T11:43:32.831Z</time></trkpt><trkpt lat="46.0085327" lon="9.2351283"><ele>206.0</ele><time>2026-03-29T11:43:33.83Z</time></trkpt><trkpt lat="46.008635" lon="9.2351829"><ele>206.0</ele><time>2026-03-29T11:43:34.83Z</time></trkpt><trkpt lat="46.00874" lon="9.2351487"><ele>206.0</ele><time>2026-03-29T11:43:35.835Z</time></trkpt><trkpt lat="46.0088548" lon="9.2351173"><ele>206.0</ele><time>2026-03-29T11:43:36.828Z</time></trkpt><trkpt lat="46.0089747" lon="9.2350792"><ele>206.0</ele><time>2026-03-29T11:43:37.828Z</time></trkpt><trkpt lat="46.0090837" lon="9.2350529"><ele>206.0</ele><time>2026-03-29T11:43:38.827Z</time></trkpt><trkpt lat="46.0091815" lon="9.2350337"><ele>206.0</ele><time>2026-03-29T11:43:39.838Z</time></trkpt><trkpt lat="46.0092805" lon="9.2350261"><ele>206.0</ele><time>2026-03-29T11:43:40.827Z</time></trkpt><trkpt lat="46.009389" lon="9.2350505"><ele>206.0</ele><time>2026-03-29T11:43:41.824Z</time></trkpt><trkpt lat="46.0095006" lon="9.2351008"><ele>207.25</ele><time>2026-03-29T11:43:42.826Z</time></trkpt><trkpt lat="46.0096161" lon="9.2351684"><ele>208.5</ele><time>2026-03-29T11:43:43.838Z</time></trkpt><trkpt lat="46.009733" lon="9.235233"><ele>209.75</ele><time>2026-03-29T11:43:44.818Z</time></trkpt><trkpt lat="46.0098552" lon="9.235305"><ele>211.0</ele><time>2026-03-29T11:43:45.828Z</time></trkpt><trkpt lat="46.0099747" lon="9.2353659"><ele>216.0</ele><time>2026-03-29T11:43:46.827Z</time></trkpt><trkpt lat="46.0100943" lon="9.2354018"><ele>221.0</ele><time>2026-03-29T11:43:47.822Z</time></trkpt><trkpt lat="46.010214" lon="9.2354282"><ele>226.0</ele><time>2026-03-29T11:43:48.818Z</time></trkpt><trkpt lat="46.0103358" lon="9.2354409"><ele>231.0</ele><time>2026-03-29T11:43:49.85Z</time></trkpt><trkpt lat="46.0104623" lon="9.2354412"><ele>231.0</ele><time>2026-03-29T11:43:50.821Z</time></trkpt><trkpt lat="46.0105919" lon="9.235435"><ele>231.0</ele><time>2026-03-29T11:43:51.825Z</time></trkpt><trkpt lat="46.0107148" lon="9.2354432"><ele>231.0</ele><time>2026-03-29T11:43:52.831Z</time></trkpt><trkpt lat="46.0108372" lon="9.2354518"><ele>231.0</ele><time>2026-03-29T11:43:53.823Z</time></trkpt><trkpt lat="46.0109611" lon="9.2354646"><ele>233.75</ele><time>2026-03-29T11:43:54.817Z</time></trkpt><trkpt lat="46.0110821" lon="9.2354784"><ele>236.5</ele><time>2026-03-29T11:43:55.814Z</time></trkpt><trkpt lat="46.0112025" lon="9.2354899"><ele>239.25</ele><time>2026-03-29T11:43:56.805Z</time></trkpt><trkpt lat="46.0113259" lon="9.2354922"><ele>242.0</ele><time>2026-03-29T11:43:57.799Z</time></trkpt><trkpt lat="46.0114488" lon="9.2355034"><ele>242.0</ele><time>2026-03-29T11:43:58.781Z</time></trkpt><trkpt lat="46.0116014" lon="9.2354661"><ele>242.0</ele><time>2026-03-29T11:43:59.807Z</time></trkpt><trkpt lat="46.0117689" lon="9.2354524"><ele>242.0</ele><time>2026-03-29T11:44:00.812Z</time></trkpt><trkpt lat="46.0119097" lon="9.2354688"><ele>244.0</ele><time>2026-03-29T11:44:01.827Z</time></trkpt><trkpt lat="46.0120449" lon="9.2354891"><ele>246.0</ele><time>2026-03-29T11:44:02.848Z</time></trkpt><trkpt lat="46.0121884" lon="9.2355324"><ele>248.0</ele><time>2026-03-29T11:44:03.834Z</time></trkpt><trkpt lat="46.0123061" lon="9.2356465"><ele>250.0</ele><time>2026-03-29T11:44:04.84Z</time></trkpt><trkpt lat="46.0124062" lon="9.235775"><ele>243.0</ele><time>2026-03-29T11:44:05.834Z</time></trkpt><trkpt lat="46.0125094" lon="9.2358795"><ele>236.0</ele><time>2026-03-29T11:44:06.835Z</time></trkpt><trkpt lat="46.0126185" lon="9.2359578"><ele>229.0</ele><time>2026-03-29T11:44:07.838Z</time></trkpt><trkpt lat="46.012729" lon="9.236022"><ele>222.0</ele><time>2026-03-29T11:44:08.836Z</time></trkpt><trkpt lat="46.0128462" lon="9.2360655"><ele>222.0</ele><time>2026-03-29T11:44:09.829Z</time></trkpt><trkpt lat="46.0129675" lon="9.236094"><ele>222.0</ele><time>2026-03-29T11:44:10.833Z</time></trkpt><trkpt lat="46.0130873" lon="9.2361131"><ele>222.0</ele><time>2026-03-29T11:44:11.834Z</time></trkpt><trkpt lat="46.0132037" lon="9.2361336"><ele>222.0</ele><time>2026-03-29T11:44:12.835Z</time></trkpt><trkpt lat="46.0133124" lon="9.2361631"><ele>223.8</ele><time>2026-03-29T11:44:13.834Z</time></trkpt><trkpt lat="46.0134156" lon="9.2362008"><ele>225.6</ele><time>2026-03-29T11:44:14.835Z</time></trkpt><trkpt lat="46.0135111" lon="9.2362393"><ele>227.40000000000003</ele><time>2026-03-29T11:44:15.834Z</time></trkpt><trkpt lat="46.0136058" lon="9.236283"><ele>229.20000000000002</ele><time>2026-03-29T11:44:16.836Z</time></trkpt><trkpt lat="46.0137009" lon="9.2363436"><ele>231.0</ele><time>2026-03-29T11:44:17.836Z</time></trkpt><trkpt lat="46.0137955" lon="9.23642"><ele>228.20000000000002</ele><time>2026-03-29T11:44:18.826Z</time></trkpt><trkpt lat="46.0138916" lon="9.2365081"><ele>225.40000000000003</ele><time>2026-03-29T11:44:19.831Z</time></trkpt><trkpt lat="46.0139812" lon="9.236601"><ele>222.6</ele><time>2026-03-29T11:44:20.829Z</time></trkpt><trkpt lat="46.014064" lon="9.2366929"><ele>219.8</ele><time>2026-03-29T11:44:21.831Z</time></trkpt><trkpt lat="46.0141451" lon="9.2367844"><ele>217.0</ele><time>2026-03-29T11:44:22.841Z</time></trkpt><trkpt lat="46.0142303" lon="9.2368645"><ele>217.0</ele><time>2026-03-29T11:44:23.831Z</time></trkpt><trkpt lat="46.0143198" lon="9.2369326"><ele>217.0</ele><time>2026-03-29T11:44:24.825Z</time></trkpt><trkpt lat="46.0144108" lon="9.2369847"><ele>217.0</ele><time>2026-03-29T11:44:25.833Z</time></trkpt><trkpt lat="46.0145009" lon="9.2370245"><ele>217.0</ele><time>2026-03-29T11:44:26.849Z</time></trkpt><trkpt lat="46.0145845" lon="9.2370421"><ele>217.0</ele><time>2026-03-29T11:44:27.853Z</time></trkpt><trkpt lat="46.0146623" lon="9.2370473"><ele>216.99999999999997</ele><time>2026-03-29T11:44:28.865Z</time></trkpt><trkpt lat="46.0147377" lon="9.2370348"><ele>217.0</ele><time>2026-03-29T11:44:29.833Z</time></trkpt><trkpt lat="46.0148142" lon="9.2370112"><ele>217.0</ele><time>2026-03-29T11:44:30.865Z</time></trkpt><trkpt lat="46.0148944" lon="9.2369776"><ele>217.0</ele><time>2026-03-29T11:44:31.842Z</time></trkpt><trkpt lat="46.0149752" lon="9.2369301"><ele>216.99999999999997</ele><time>2026-03-29T11:44:32.836Z</time></trkpt><trkpt lat="46.01506" lon="9.236854"><ele>217.0</ele><time>2026-03-29T11:44:33.832Z</time></trkpt><trkpt lat="46.0151606" lon="9.2367412"><ele>216.33333333333331</ele><time>2026-03-29T11:44:34.856Z</time></trkpt><trkpt lat="46.0152785" lon="9.236607"><ele>215.66666666666669</ele><time>2026-03-29T11:44:35.855Z</time></trkpt><trkpt lat="46.0154305" lon="9.2364276"><ele>215.0</ele><time>2026-03-29T11:44:36.848Z</time></trkpt><trkpt lat="46.015579" lon="9.2362943"><ele>218.5</ele><time>2026-03-29T11:44:37.848Z</time></trkpt><trkpt lat="46.015727" lon="9.2362375"><ele>222.0</ele><time>2026-03-29T11:44:38.849Z</time></trkpt><trkpt lat="46.015847" lon="9.2361859"><ele>225.5</ele><time>2026-03-29T11:44:39.828Z</time></trkpt><trkpt lat="46.0159486" lon="9.2361944"><ele>229.0</ele><time>2026-03-29T11:44:40.827Z</time></trkpt><trkpt lat="46.0160356" lon="9.2361961"><ele>229.0</ele><time>2026-03-29T11:44:41.848Z</time></trkpt><trkpt lat="46.0161213" lon="9.2362076"><ele>228.99999999999997</ele><time>2026-03-29T11:44:42.851Z</time></trkpt><trkpt lat="46.0162182" lon="9.2362194"><ele>228.99999999999997</ele><time>2026-03-29T11:44:43.858Z</time></trkpt><trkpt lat="46.0163272" lon="9.2362282"><ele>229.0</ele><time>2026-03-29T11:44:44.85Z</time></trkpt><trkpt lat="46.0164451" lon="9.2362409"><ele>229.0</ele><time>2026-03-29T11:44:45.857Z</time></trkpt><trkpt lat="46.0165636" lon="9.236252"><ele>228.79999999999998</ele><time>2026-03-29T11:44:46.835Z</time></trkpt><trkpt lat="46.0166643" lon="9.2362572"><ele>228.59999999999997</ele><time>2026-03-29T11:44:47.838Z</time></trkpt><trkpt lat="46.0167536" lon="9.2362568"><ele>228.4</ele><time>2026-03-29T11:44:48.833Z</time></trkpt><trkpt lat="46.0168438" lon="9.2362527"><ele>228.2</ele><time>2026-03-29T11:44:49.851Z</time></trkpt><trkpt lat="46.0169373" lon="9.236252"><ele>228.0</ele><time>2026-03-29T11:44:50.838Z</time></trkpt><trkpt lat="46.0170287" lon="9.2362512"><ele>228.0</ele><time>2026-03-29T11:44:51.828Z</time></trkpt><trkpt lat="46.0171088" lon="9.2362395"><ele>228.0</ele><time>2026-03-29T11:44:52.856Z</time></trkpt><trkpt lat="46.0171832" lon="9.2362129"><ele>228.0</ele><time>2026-03-29T11:44:53.831Z</time></trkpt><trkpt lat="46.0172546" lon="9.2361925"><ele>228.0</ele><time>2026-03-29T11:44:54.833Z</time></trkpt><trkpt lat="46.0173185" lon="9.2361705"><ele>228.0</ele><time>2026-03-29T11:44:55.832Z</time></trkpt><trkpt lat="46.0174305" lon="9.2361392"><ele>228.0</ele><time>2026-03-29T11:44:57.832Z</time></trkpt><trkpt lat="46.0175172" lon="9.2361254"><ele>226.2</ele><time>2026-03-29T11:44:59.837Z</time></trkpt><trkpt lat="46.0175902" lon="9.2360967"><ele>224.4</ele><time>2026-03-29T11:45:57.834Z</time></trkpt><trkpt lat="46.0177127" lon="9.2361042"><ele>222.59999999999997</ele><time>2026-03-29T11:46:00.824Z</time></trkpt><trkpt lat="46.0177988" lon="9.2361453"><ele>220.79999999999998</ele><time>2026-03-29T11:46:02.821Z</time></trkpt><trkpt lat="46.0178948" lon="9.2361982"><ele>219.0</ele><time>2026-03-29T11:46:04.829Z</time></trkpt><trkpt lat="46.0180074" lon="9.2362458"><ele>219.0</ele><time>2026-03-29T11:46:06.825Z</time></trkpt><trkpt lat="46.018073" lon="9.2362662"><ele>219.0</ele><time>2026-03-29T11:46:07.827Z</time></trkpt><trkpt lat="46.0181438" lon="9.2362824"><ele>219.0</ele><time>2026-03-29T11:46:08.823Z</time></trkpt><trkpt lat="46.0182163" lon="9.2363064"><ele>219.0</ele><time>2026-03-29T11:46:09.822Z</time></trkpt><trkpt lat="46.0182901" lon="9.2363279"><ele>219.0</ele><time>2026-03-29T11:46:10.822Z</time></trkpt><trkpt lat="46.0183655" lon="9.2363513"><ele>219.0</ele><time>2026-03-29T11:46:11.843Z</time></trkpt><trkpt lat="46.0184407" lon="9.2363811"><ele>219.0</ele><time>2026-03-29T11:46:12.829Z</time></trkpt><trkpt lat="46.018517" lon="9.2364156"><ele>218.79999999999998</ele><time>2026-03-29T11:46:13.834Z</time></trkpt><trkpt lat="46.0185959" lon="9.236452"><ele>218.59999999999997</ele><time>2026-03-29T11:46:14.831Z</time></trkpt><trkpt lat="46.0186715" lon="9.2364903"><ele>218.4</ele><time>2026-03-29T11:46:15.847Z</time></trkpt><trkpt lat="46.0187769" lon="9.2365685"><ele>218.2</ele><time>2026-03-29T11:46:17.857Z</time></trkpt><trkpt lat="46.0188476" lon="9.2366912"><ele>218.0</ele><time>2026-03-29T11:46:19.834Z</time></trkpt><trkpt lat="46.0188942" lon="9.2367976"><ele>216.0</ele><time>2026-03-29T11:46:21.86Z</time></trkpt><trkpt lat="46.0189282" lon="9.2369063"><ele>214.0</ele><time>2026-03-29T11:46:23.835Z</time></trkpt><trkpt lat="46.0189685" lon="9.2370295"><ele>212.0</ele><time>2026-03-29T11:46:25.825Z</time></trkpt><trkpt lat="46.0190149" lon="9.2371634"><ele>210.0</ele><time>2026-03-29T11:46:27.822Z</time></trkpt><trkpt lat="46.0190558" lon="9.2372778"><ele>208.0</ele><time>2026-03-29T11:46:33.828Z</time></trkpt><trkpt lat="46.0191037" lon="9.2373778"><ele>207.2</ele><time>2026-03-29T11:46:35.829Z</time></trkpt><trkpt lat="46.0191892" lon="9.2374717"><ele>206.4</ele><time>2026-03-29T11:46:37.823Z</time></trkpt><trkpt lat="46.0192844" lon="9.2375623"><ele>205.6</ele><time>2026-03-29T11:46:39.845Z</time></trkpt><trkpt lat="46.0193703" lon="9.2376468"><ele>204.79999999999998</ele><time>2026-03-29T11:46:41.833Z</time></trkpt><trkpt lat="46.0194414" lon="9.2377426"><ele>204.0</ele><time>2026-03-29T11:46:43.826Z</time></trkpt><trkpt lat="46.0194838" lon="9.2378285"><ele>204.0</ele><time>2026-03-29T11:46:46.845Z</time></trkpt><trkpt lat="46.0194794" lon="9.2379578"><ele>204.0</ele><time>2026-03-29T11:46:50.845Z</time></trkpt><trkpt lat="46.0194955" lon="9.2380775"><ele>204.0</ele><time>2026-03-29T11:46:52.843Z</time></trkpt><trkpt lat="46.0194938" lon="9.2381863"><ele>204.0</ele><time>2026-03-29T11:46:54.834Z</time></trkpt><trkpt lat="46.0194664" lon="9.2383079"><ele>204.0</ele><time>2026-03-29T11:46:56.838Z</time></trkpt><trkpt lat="46.0194224" lon="9.2384304"><ele>204.0</ele><time>2026-03-29T11:46:58.84Z</time></trkpt><trkpt lat="46.0194175" lon="9.2385348"><ele>203.66666666666666</ele><time>2026-03-29T11:47:00.838Z</time></trkpt><trkpt lat="46.0194444" lon="9.2386667"><ele>203.33333333333331</ele><time>2026-03-29T11:47:03.835Z</time></trkpt><trkpt lat="46.0194485" lon="9.2387756"><ele>203.0</ele><time>2026-03-29T11:47:06.835Z</time></trkpt><trkpt lat="46.0194214" lon="9.2388913"><ele>202.66666666666666</ele><time>2026-03-29T11:47:10.839Z</time></trkpt><trkpt lat="46.0193964" lon="9.2389764"><ele>202.33333333333331</ele><time>2026-03-29T11:47:13.84Z</time></trkpt><trkpt lat="46.0193715" lon="9.2390741"><ele>202.0</ele><time>2026-03-29T11:47:16.836Z</time></trkpt><trkpt lat="46.0194186" lon="9.2391832"><ele>202.0</ele><time>2026-03-29T11:47:19.832Z</time></trkpt><trkpt lat="46.0194538" lon="9.2392595"><ele>202.0</ele><time>2026-03-29T11:47:21.847Z</time></trkpt><trkpt lat="46.0194857" lon="9.2393661"><ele>202.0</ele><time>2026-03-29T11:47:24.844Z</time></trkpt><trkpt lat="46.0195405" lon="9.2394206"><ele>202.0</ele><time>2026-03-29T11:47:27.836Z</time></trkpt><trkpt lat="46.0195911" lon="9.2394918"><ele>202.0</ele><time>2026-03-29T11:47:30.846Z</time></trkpt><trkpt lat="46.0196563" lon="9.239581"><ele>202.0</ele><time>2026-03-29T11:47:33.849Z</time></trkpt><trkpt lat="46.0197049" lon="9.239663"><ele>202.0</ele><time>2026-03-29T11:47:35.844Z</time></trkpt><trkpt lat="46.0197647" lon="9.2397478"><ele>202.0</ele><time>2026-03-29T11:47:37.843Z</time></trkpt><trkpt lat="46.0197917" lon="9.2396649"><ele>202.0</ele><time>2026-03-29T11:51:58.846Z</time></trkpt></trkseg><trkseg><trkpt lat="46.019817" lon="9.2398938"><ele>199.0</ele><time>2026-03-29T13:17:10.829Z</time></trkpt><trkpt lat="46.0198675" lon="9.2400327"><ele>199.0</ele><time>2026-03-29T13:17:38.816Z</time></trkpt><trkpt lat="46.0199154" lon="9.2401445"><ele>199.0</ele><time>2026-03-29T13:17:40.821Z</time></trkpt><trkpt lat="46.0199595" lon="9.2402503"><ele>199.0</ele><time>2026-03-29T13:17:42.82Z</time></trkpt><trkpt lat="46.0200187" lon="9.2403479"><ele>199.0</ele><time>2026-03-29T13:17:44.827Z</time></trkpt><trkpt lat="46.020071" lon="9.2404489"><ele>199.49999999999997</ele><time>2026-03-29T13:17:46.823Z</time></trkpt><trkpt lat="46.0201331" lon="9.2405433"><ele>200.0</ele><time>2026-03-29T13:17:48.832Z</time></trkpt><trkpt lat="46.0201871" lon="9.2406469"><ele>200.5</ele><time>2026-03-29T13:17:50.824Z</time></trkpt><trkpt lat="46.0202431" lon="9.2407518"><ele>201.0</ele><time>2026-03-29T13:17:52.817Z</time></trkpt><trkpt lat="46.0202928" lon="9.2408505"><ele>201.49999999999997</ele><time>2026-03-29T13:17:54.819Z</time></trkpt><trkpt lat="46.0203413" lon="9.2409552"><ele>202.0</ele><time>2026-03-29T13:17:56.826Z</time></trkpt><trkpt lat="46.0203847" lon="9.2410642"><ele>202.0</ele><time>2026-03-29T13:17:58.855Z</time></trkpt><trkpt lat="46.0204305" lon="9.2411894"><ele>202.0</ele><time>2026-03-29T13:18:00.823Z</time></trkpt><trkpt lat="46.0204828" lon="9.2413229"><ele>202.0</ele><time>2026-03-29T13:18:02.823Z</time></trkpt><trkpt lat="46.0205439" lon="9.2414558"><ele>202.0</ele><time>2026-03-29T13:18:04.825Z</time></trkpt><trkpt lat="46.0206059" lon="9.2415868"><ele>202.0</ele><time>2026-03-29T13:18:06.822Z</time></trkpt><trkpt lat="46.0206734" lon="9.2417245"><ele>201.83333333333331</ele><time>2026-03-29T13:18:08.826Z</time></trkpt><trkpt lat="46.0207391" lon="9.2418703"><ele>201.66666666666666</ele><time>2026-03-29T13:18:10.823Z</time></trkpt><trkpt lat="46.0207904" lon="9.2420252"><ele>201.5</ele><time>2026-03-29T13:18:12.814Z</time></trkpt><trkpt lat="46.0208257" lon="9.2421007"><ele>201.33333333333331</ele><time>2026-03-29T13:18:13.82Z</time></trkpt><trkpt lat="46.0208619" lon="9.2421772"><ele>201.16666666666666</ele><time>2026-03-29T13:18:14.819Z</time></trkpt><trkpt lat="46.0208982" lon="9.2422578"><ele>201.0</ele><time>2026-03-29T13:18:15.812Z</time></trkpt><trkpt lat="46.0209389" lon="9.2423325"><ele>202.20000000000002</ele><time>2026-03-29T13:18:16.822Z</time></trkpt><trkpt lat="46.0209862" lon="9.2423932"><ele>203.4</ele><time>2026-03-29T13:18:17.822Z</time></trkpt><trkpt lat="46.0210873" lon="9.2424748"><ele>204.6</ele><time>2026-03-29T13:18:19.825Z</time></trkpt><trkpt lat="46.0211979" lon="9.2425213"><ele>205.8</ele><time>2026-03-29T13:18:21.815Z</time></trkpt><trkpt lat="46.0213012" lon="9.2425601"><ele>207.0</ele><time>2026-03-29T13:18:23.816Z</time></trkpt><trkpt lat="46.0213955" lon="9.2425952"><ele>207.0</ele><time>2026-03-29T13:18:25.809Z</time></trkpt><trkpt lat="46.0215146" lon="9.2426207"><ele>207.0</ele><time>2026-03-29T13:18:27.816Z</time></trkpt><trkpt lat="46.021589" lon="9.242634"><ele>207.0</ele><time>2026-03-29T13:18:28.819Z</time></trkpt><trkpt lat="46.0216552" lon="9.2426472"><ele>207.0</ele><time>2026-03-29T13:18:29.829Z</time></trkpt><trkpt lat="46.0217222" lon="9.24266"><ele>207.0</ele><time>2026-03-29T13:18:30.819Z</time></trkpt><trkpt lat="46.0217887" lon="9.2426591"><ele>207.0</ele><time>2026-03-29T13:18:31.821Z</time></trkpt><trkpt lat="46.0218541" lon="9.242653"><ele>206.57142857142858</ele><time>2026-03-29T13:18:32.822Z</time></trkpt><trkpt lat="46.0219171" lon="9.2426481"><ele>206.14285714285714</ele><time>2026-03-29T13:18:33.824Z</time></trkpt><trkpt lat="46.0219872" lon="9.2426354"><ele>205.71428571428572</ele><time>2026-03-29T13:18:34.82Z</time></trkpt><trkpt lat="46.0220584" lon="9.2426128"><ele>205.28571428571428</ele><time>2026-03-29T13:18:35.827Z</time></trkpt><trkpt lat="46.0221307" lon="9.242588"><ele>204.85714285714286</ele><time>2026-03-29T13:18:36.847Z</time></trkpt><trkpt lat="46.0222022" lon="9.2425636"><ele>204.42857142857144</ele><time>2026-03-29T13:18:37.845Z</time></trkpt><trkpt lat="46.0222761" lon="9.2425372"><ele>204.0</ele><time>2026-03-29T13:18:38.821Z</time></trkpt><trkpt lat="46.0223533" lon="9.2425102"><ele>204.0</ele><time>2026-03-29T13:18:39.816Z</time></trkpt><trkpt lat="46.022435" lon="9.2424724"><ele>204.0</ele><time>2026-03-29T13:18:40.821Z</time></trkpt><trkpt lat="46.0225193" lon="9.2424348"><ele>204.0</ele><time>2026-03-29T13:18:41.83Z</time></trkpt><trkpt lat="46.0226074" lon="9.2423993"><ele>204.0</ele><time>2026-03-29T13:18:42.822Z</time></trkpt><trkpt lat="46.0226938" lon="9.2423598"><ele>204.0</ele><time>2026-03-29T13:18:43.825Z</time></trkpt><trkpt lat="46.0227822" lon="9.2423204"><ele>204.0</ele><time>2026-03-29T13:18:44.818Z</time></trkpt><trkpt lat="46.0228733" lon="9.2422656"><ele>203.83333333333334</ele><time>2026-03-29T13:18:45.823Z</time></trkpt><trkpt lat="46.0229613" lon="9.2422213"><ele>203.66666666666669</ele><time>2026-03-29T13:18:46.823Z</time></trkpt><trkpt lat="46.0230403" lon="9.2421838"><ele>203.5</ele><time>2026-03-29T13:18:47.815Z</time></trkpt><trkpt lat="46.0231163" lon="9.2421445"><ele>203.33333333333334</ele><time>2026-03-29T13:18:48.823Z</time></trkpt><trkpt lat="46.0231802" lon="9.2421124"><ele>203.16666666666669</ele><time>2026-03-29T13:18:49.829Z</time></trkpt><trkpt lat="46.0232639" lon="9.242063"><ele>203.0</ele><time>2026-03-29T13:18:51.824Z</time></trkpt><trkpt lat="46.0233408" lon="9.2420274"><ele>203.0</ele><time>2026-03-29T13:18:53.921Z</time></trkpt><trkpt lat="46.0234273" lon="9.2419835"><ele>203.0</ele><time>2026-03-29T13:18:55.887Z</time></trkpt><trkpt lat="46.0235196" lon="9.2419197"><ele>203.0</ele><time>2026-03-29T13:18:57.845Z</time></trkpt><trkpt lat="46.0236263" lon="9.2418362"><ele>203.0</ele><time>2026-03-29T13:18:59.879Z</time></trkpt><trkpt lat="46.0237283" lon="9.2417306"><ele>203.0</ele><time>2026-03-29T13:19:01.824Z</time></trkpt><trkpt lat="46.0238157" lon="9.241606"><ele>203.0</ele><time>2026-03-29T13:19:03.827Z</time></trkpt><trkpt lat="46.0238501" lon="9.2415274"><ele>203.0</ele><time>2026-03-29T13:19:04.828Z</time></trkpt><trkpt lat="46.0238785" lon="9.2414388"><ele>203.0</ele><time>2026-03-29T13:19:05.828Z</time></trkpt><trkpt lat="46.0238903" lon="9.2413339"><ele>203.0</ele><time>2026-03-29T13:19:06.828Z</time></trkpt><trkpt lat="46.0238911" lon="9.2412202"><ele>203.0</ele><time>2026-03-29T13:19:07.828Z</time></trkpt><trkpt lat="46.0238951" lon="9.241106"><ele>203.0</ele><time>2026-03-29T13:19:08.829Z</time></trkpt><trkpt lat="46.0239065" lon="9.2409933"><ele>203.0</ele><time>2026-03-29T13:19:09.832Z</time></trkpt><trkpt lat="46.0239188" lon="9.2408902"><ele>203.0</ele><time>2026-03-29T13:19:10.831Z</time></trkpt><trkpt lat="46.0239385" lon="9.2407966"><ele>203.0</ele><time>2026-03-29T13:19:11.832Z</time></trkpt><trkpt lat="46.023963" lon="9.2407046"><ele>203.0</ele><time>2026-03-29T13:19:12.827Z</time></trkpt><trkpt lat="46.0239919" lon="9.2406124"><ele>203.0</ele><time>2026-03-29T13:19:13.83Z</time></trkpt><trkpt lat="46.0240229" lon="9.2405216"><ele>203.0</ele><time>2026-03-29T13:19:14.832Z</time></trkpt><trkpt lat="46.0240545" lon="9.2404288"><ele>203.0</ele><time>2026-03-29T13:19:15.827Z</time></trkpt><trkpt lat="46.0240803" lon="9.2403428"><ele>203.0</ele><time>2026-03-29T13:19:16.829Z</time></trkpt><trkpt lat="46.0241064" lon="9.2402594"><ele>203.4</ele><time>2026-03-29T13:19:17.826Z</time></trkpt><trkpt lat="46.0241552" lon="9.2400956"><ele>203.8</ele><time>2026-03-29T13:19:19.832Z</time></trkpt><trkpt lat="46.0241583" lon="9.2399378"><ele>204.2</ele><time>2026-03-29T13:19:21.827Z</time></trkpt><trkpt lat="46.0240882" lon="9.239791"><ele>204.6</ele><time>2026-03-29T13:19:23.817Z</time></trkpt><trkpt lat="46.0240257" lon="9.2397263"><ele>205.0</ele><time>2026-03-29T13:19:24.844Z</time></trkpt><trkpt lat="46.0239681" lon="9.2396616"><ele>205.99999999999997</ele><time>2026-03-29T13:19:25.844Z</time></trkpt><trkpt lat="46.0239195" lon="9.2395934"><ele>207.0</ele><time>2026-03-29T13:19:26.827Z</time></trkpt><trkpt lat="46.0238711" lon="9.2395198"><ele>208.0</ele><time>2026-03-29T13:19:27.821Z</time></trkpt><trkpt lat="46.0238236" lon="9.2394474"><ele>209.0</ele><time>2026-03-29T13:19:28.821Z</time></trkpt><trkpt lat="46.0237754" lon="9.2393861"><ele>209.99999999999997</ele><time>2026-03-29T13:19:29.842Z</time></trkpt><trkpt lat="46.0237202" lon="9.2392789"><ele>211.0</ele><time>2026-03-29T13:19:31.848Z</time></trkpt><trkpt lat="46.0237016" lon="9.2391588"><ele>210.99999999999997</ele><time>2026-03-29T13:19:34.837Z</time></trkpt><trkpt lat="46.0236707" lon="9.2390605"><ele>211.0</ele><time>2026-03-29T13:19:37.832Z</time></trkpt><trkpt lat="46.0236468" lon="9.2389549"><ele>211.0</ele><time>2026-03-29T13:19:39.828Z</time></trkpt><trkpt lat="46.0236107" lon="9.2388189"><ele>211.0</ele><time>2026-03-29T13:19:41.82Z</time></trkpt><trkpt lat="46.0235464" lon="9.2388091"><ele>210.99999999999997</ele><time>2026-03-29T13:19:42.814Z</time></trkpt><trkpt lat="46.0234586" lon="9.2388228"><ele>211.0</ele><time>2026-03-29T13:19:43.837Z</time></trkpt><trkpt lat="46.0233772" lon="9.2388326"><ele>211.0</ele><time>2026-03-29T13:19:44.838Z</time></trkpt><trkpt lat="46.0232882" lon="9.2388449"><ele>211.0</ele><time>2026-03-29T13:19:45.813Z</time></trkpt><trkpt lat="46.0231944" lon="9.2388607"><ele>211.0</ele><time>2026-03-29T13:19:46.805Z</time></trkpt><trkpt lat="46.0230976" lon="9.2388709"><ele>211.0</ele><time>2026-03-29T13:19:47.819Z</time></trkpt><trkpt lat="46.0230051" lon="9.2388729"><ele>211.0</ele><time>2026-03-29T13:19:48.805Z</time></trkpt><trkpt lat="46.0229055" lon="9.2388773"><ele>210.99999999999997</ele><time>2026-03-29T13:19:49.839Z</time></trkpt><trkpt lat="46.0228102" lon="9.2388967"><ele>211.0</ele><time>2026-03-29T13:19:50.816Z</time></trkpt><trkpt lat="46.0227182" lon="9.2389119"><ele>211.0</ele><time>2026-03-29T13:19:51.816Z</time></trkpt><trkpt lat="46.0226324" lon="9.2389173"><ele>211.0</ele><time>2026-03-29T13:19:52.82Z</time></trkpt><trkpt lat="46.0225547" lon="9.2389132"><ele>210.99999999999997</ele><time>2026-03-29T13:19:53.841Z</time></trkpt><trkpt lat="46.0224797" lon="9.2389155"><ele>211.0</ele><time>2026-03-29T13:19:54.825Z</time></trkpt><trkpt lat="46.0224069" lon="9.2389215"><ele>211.16666666666666</ele><time>2026-03-29T13:19:55.818Z</time></trkpt><trkpt lat="46.0223333" lon="9.2389183"><ele>211.33333333333331</ele><time>2026-03-29T13:19:56.824Z</time></trkpt><trkpt lat="46.0222608" lon="9.2389075"><ele>211.5</ele><time>2026-03-29T13:19:57.82Z</time></trkpt><trkpt lat="46.0221866" lon="9.238899"><ele>211.66666666666669</ele><time>2026-03-29T13:19:58.822Z</time></trkpt><trkpt lat="46.0221038" lon="9.2388961"><ele>211.83333333333334</ele><time>2026-03-29T13:19:59.824Z</time></trkpt><trkpt lat="46.0220281" lon="9.2388896"><ele>212.0</ele><time>2026-03-29T13:20:00.816Z</time></trkpt><trkpt lat="46.0219547" lon="9.2388849"><ele>212.00000000000003</ele><time>2026-03-29T13:20:01.826Z</time></trkpt><trkpt lat="46.0218788" lon="9.2388746"><ele>212.0</ele><time>2026-03-29T13:20:02.818Z</time></trkpt><trkpt lat="46.0218032" lon="9.2388621"><ele>212.0</ele><time>2026-03-29T13:20:03.816Z</time></trkpt><trkpt lat="46.021727" lon="9.2388601"><ele>212.0</ele><time>2026-03-29T13:20:04.82Z</time></trkpt><trkpt lat="46.021648" lon="9.238861"><ele>212.00000000000003</ele><time>2026-03-29T13:20:05.81Z</time></trkpt><trkpt lat="46.0215697" lon="9.2388592"><ele>212.0</ele><time>2026-03-29T13:20:06.814Z</time></trkpt><trkpt lat="46.0214939" lon="9.2388471"><ele>212.00000000000003</ele><time>2026-03-29T13:20:07.805Z</time></trkpt><trkpt lat="46.0214204" lon="9.2388368"><ele>212.0</ele><time>2026-03-29T13:20:08.817Z</time></trkpt><trkpt lat="46.0213439" lon="9.2388166"><ele>212.0</ele><time>2026-03-29T13:20:09.805Z</time></trkpt><trkpt lat="46.0212596" lon="9.2387954"><ele>212.0</ele><time>2026-03-29T13:20:10.812Z</time></trkpt><trkpt lat="46.0211807" lon="9.2387533"><ele>212.00000000000003</ele><time>2026-03-29T13:20:11.807Z</time></trkpt><trkpt lat="46.0210964" lon="9.2387046"><ele>212.0</ele><time>2026-03-29T13:20:12.816Z</time></trkpt><trkpt lat="46.0210047" lon="9.2386426"><ele>212.0</ele><time>2026-03-29T13:20:13.821Z</time></trkpt><trkpt lat="46.0209074" lon="9.2385713"><ele>212.0</ele><time>2026-03-29T13:20:14.823Z</time></trkpt><trkpt lat="46.0208158" lon="9.2385049"><ele>212.0</ele><time>2026-03-29T13:20:15.843Z</time></trkpt><trkpt lat="46.0207287" lon="9.2384391"><ele>212.0</ele><time>2026-03-29T13:20:16.827Z</time></trkpt><trkpt lat="46.0206476" lon="9.2383761"><ele>212.0</ele><time>2026-03-29T13:20:17.825Z</time></trkpt><trkpt lat="46.0205686" lon="9.2383169"><ele>212.2</ele><time>2026-03-29T13:20:18.822Z</time></trkpt><trkpt lat="46.0204889" lon="9.2382612"><ele>212.39999999999998</ele><time>2026-03-29T13:20:19.826Z</time></trkpt><trkpt lat="46.0204229" lon="9.2382069"><ele>212.60000000000002</ele><time>2026-03-29T13:20:20.817Z</time></trkpt><trkpt lat="46.020341" lon="9.2381514"><ele>212.8</ele><time>2026-03-29T13:20:37.819Z</time></trkpt><trkpt lat="46.0202437" lon="9.2380875"><ele>213.0</ele><time>2026-03-29T13:20:39.814Z</time></trkpt><trkpt lat="46.0201215" lon="9.2380487"><ele>213.0</ele><time>2026-03-29T13:20:41.803Z</time></trkpt><trkpt lat="46.0200105" lon="9.2379799"><ele>213.0</ele><time>2026-03-29T13:20:43.802Z</time></trkpt><trkpt lat="46.0199168" lon="9.2379324"><ele>213.0</ele><time>2026-03-29T13:20:45.813Z</time></trkpt><trkpt lat="46.0198117" lon="9.237873"><ele>213.0</ele><time>2026-03-29T13:20:47.816Z</time></trkpt><trkpt lat="46.0197221" lon="9.2378267"><ele>213.0</ele><time>2026-03-29T13:20:49.807Z</time></trkpt><trkpt lat="46.0196345" lon="9.2377971"><ele>211.5</ele><time>2026-03-29T13:20:51.807Z</time></trkpt><trkpt lat="46.0195458" lon="9.2377795"><ele>210.0</ele><time>2026-03-29T13:20:53.812Z</time></trkpt><trkpt lat="46.0194726" lon="9.2377561"><ele>208.5</ele><time>2026-03-29T13:21:13.831Z</time></trkpt><trkpt lat="46.0193993" lon="9.2377087"><ele>207.0</ele><time>2026-03-29T13:21:16.839Z</time></trkpt><trkpt lat="46.0193321" lon="9.2376486"><ele>205.5</ele><time>2026-03-29T13:21:18.835Z</time></trkpt><trkpt lat="46.0192625" lon="9.2375535"><ele>204.0</ele><time>2026-03-29T13:21:20.823Z</time></trkpt><trkpt lat="46.0192177" lon="9.237489"><ele>204.0</ele><time>2026-03-29T13:21:21.827Z</time></trkpt><trkpt lat="46.0191711" lon="9.237403"><ele>204.0</ele><time>2026-03-29T13:21:22.824Z</time></trkpt><trkpt lat="46.0191191" lon="9.2373028"><ele>204.0</ele><time>2026-03-29T13:21:23.817Z</time></trkpt><trkpt lat="46.0190686" lon="9.2371805"><ele>204.0</ele><time>2026-03-29T13:21:24.825Z</time></trkpt><trkpt lat="46.0190201" lon="9.2370628"><ele>204.0</ele><time>2026-03-29T13:21:25.82Z</time></trkpt><trkpt lat="46.0189807" lon="9.236969"><ele>204.0</ele><time>2026-03-29T13:21:26.813Z</time></trkpt><trkpt lat="46.0189414" lon="9.2368854"><ele>204.66666666666666</ele><time>2026-03-29T13:21:27.822Z</time></trkpt><trkpt lat="46.0189067" lon="9.2368091"><ele>205.33333333333331</ele><time>2026-03-29T13:21:28.82Z</time></trkpt><trkpt lat="46.0188711" lon="9.2367342"><ele>206.0</ele><time>2026-03-29T13:21:29.821Z</time></trkpt><trkpt lat="46.0188354" lon="9.2366509"><ele>206.66666666666666</ele><time>2026-03-29T13:21:30.825Z</time></trkpt><trkpt lat="46.0187966" lon="9.2365712"><ele>207.33333333333331</ele><time>2026-03-29T13:21:31.824Z</time></trkpt><trkpt lat="46.0187524" lon="9.2364997"><ele>208.0</ele><time>2026-03-29T13:21:32.828Z</time></trkpt><trkpt lat="46.018623" lon="9.2364176"><ele>210.5</ele><time>2026-03-29T13:21:34.832Z</time></trkpt><trkpt lat="46.0185206" lon="9.2363688"><ele>213.0</ele><time>2026-03-29T13:21:35.832Z</time></trkpt><trkpt lat="46.0183791" lon="9.2363104"><ele>215.5</ele><time>2026-03-29T13:21:36.835Z</time></trkpt><trkpt lat="46.0182382" lon="9.2362547"><ele>218.0</ele><time>2026-03-29T13:21:37.832Z</time></trkpt><trkpt lat="46.0180936" lon="9.2362115"><ele>218.25</ele><time>2026-03-29T13:21:38.823Z</time></trkpt><trkpt lat="46.0179314" lon="9.2362069"><ele>218.5</ele><time>2026-03-29T13:21:39.829Z</time></trkpt><trkpt lat="46.0177918" lon="9.2362013"><ele>218.75</ele><time>2026-03-29T13:21:40.831Z</time></trkpt><trkpt lat="46.0176729" lon="9.2362191"><ele>219.0</ele><time>2026-03-29T13:21:41.824Z</time></trkpt><trkpt lat="46.0175571" lon="9.2362158"><ele>220.79999999999998</ele><time>2026-03-29T13:21:42.827Z</time></trkpt><trkpt lat="46.0174544" lon="9.2362027"><ele>222.59999999999997</ele><time>2026-03-29T13:21:43.828Z</time></trkpt><trkpt lat="46.017357" lon="9.2361769"><ele>224.4</ele><time>2026-03-29T13:21:44.828Z</time></trkpt><trkpt lat="46.0172644" lon="9.2361596"><ele>226.2</ele><time>2026-03-29T13:21:45.828Z</time></trkpt><trkpt lat="46.0171643" lon="9.2361694"><ele>228.0</ele><time>2026-03-29T13:21:46.822Z</time></trkpt><trkpt lat="46.0170619" lon="9.2361871"><ele>228.0</ele><time>2026-03-29T13:21:47.834Z</time></trkpt><trkpt lat="46.0169528" lon="9.2362011"><ele>228.0</ele><time>2026-03-29T13:21:48.825Z</time></trkpt><trkpt lat="46.0168293" lon="9.2362162"><ele>228.0</ele><time>2026-03-29T13:21:49.817Z</time></trkpt><trkpt lat="46.0166862" lon="9.236221"><ele>228.0</ele><time>2026-03-29T13:21:50.825Z</time></trkpt><trkpt lat="46.0165192" lon="9.2362241"><ele>228.33333333333331</ele><time>2026-03-29T13:21:51.825Z</time></trkpt><trkpt lat="46.0163498" lon="9.2362291"><ele>228.66666666666666</ele><time>2026-03-29T13:21:52.83Z</time></trkpt><trkpt lat="46.0161837" lon="9.2362283"><ele>229.0</ele><time>2026-03-29T13:21:53.826Z</time></trkpt><trkpt lat="46.0160075" lon="9.2362052"><ele>229.0</ele><time>2026-03-29T13:21:54.823Z</time></trkpt><trkpt lat="46.0158476" lon="9.2361992"><ele>229.0</ele><time>2026-03-29T13:21:55.84Z</time></trkpt><trkpt lat="46.0157028" lon="9.2361975"><ele>229.0</ele><time>2026-03-29T13:21:56.823Z</time></trkpt><trkpt lat="46.0155576" lon="9.2362386"><ele>230.2</ele><time>2026-03-29T13:21:57.82Z</time></trkpt><trkpt lat="46.0154564" lon="9.236306"><ele>231.39999999999998</ele><time>2026-03-29T13:21:58.815Z</time></trkpt><trkpt lat="46.0153745" lon="9.2363956"><ele>232.6</ele><time>2026-03-29T13:21:59.826Z</time></trkpt><trkpt lat="46.0153148" lon="9.23648"><ele>233.8</ele><time>2026-03-29T13:22:00.826Z</time></trkpt><trkpt lat="46.0152535" lon="9.2365557"><ele>235.0</ele><time>2026-03-29T13:22:01.828Z</time></trkpt><trkpt lat="46.015205" lon="9.2366313"><ele>231.99999999999997</ele><time>2026-03-29T13:22:02.822Z</time></trkpt><trkpt lat="46.0151499" lon="9.2366993"><ele>229.0</ele><time>2026-03-29T13:22:03.825Z</time></trkpt><trkpt lat="46.0150561" lon="9.2367918"><ele>226.0</ele><time>2026-03-29T13:22:05.828Z</time></trkpt><trkpt lat="46.0149789" lon="9.2368558"><ele>223.0</ele><time>2026-03-29T13:22:07.837Z</time></trkpt><trkpt lat="46.0148872" lon="9.2369304"><ele>219.99999999999997</ele><time>2026-03-29T13:22:21.833Z</time></trkpt><trkpt lat="46.0148289" lon="9.2369662"><ele>217.0</ele><time>2026-03-29T13:22:22.822Z</time></trkpt><trkpt lat="46.0147492" lon="9.2370007"><ele>217.0</ele><time>2026-03-29T13:22:23.822Z</time></trkpt><trkpt lat="46.0146547" lon="9.2370236"><ele>217.0</ele><time>2026-03-29T13:22:24.82Z</time></trkpt><trkpt lat="46.0145464" lon="9.237022"><ele>217.0</ele><time>2026-03-29T13:22:25.82Z</time></trkpt><trkpt lat="46.0144377" lon="9.2369923"><ele>217.0</ele><time>2026-03-29T13:22:26.815Z</time></trkpt><trkpt lat="46.014316" lon="9.2369441"><ele>217.0</ele><time>2026-03-29T13:22:27.812Z</time></trkpt><trkpt lat="46.0141878" lon="9.236859"><ele>215.66666666666666</ele><time>2026-03-29T13:22:28.817Z</time></trkpt><trkpt lat="46.0140622" lon="9.2367371"><ele>214.33333333333331</ele><time>2026-03-29T13:22:29.824Z</time></trkpt><trkpt lat="46.0139054" lon="9.2365239"><ele>213.0</ele><time>2026-03-29T13:22:30.846Z</time></trkpt><trkpt lat="46.0137837" lon="9.2363624"><ele>219.0</ele><time>2026-03-29T13:22:31.847Z</time></trkpt><trkpt lat="46.0136405" lon="9.2362352"><ele>225.0</ele><time>2026-03-29T13:22:32.838Z</time></trkpt><trkpt lat="46.0134955" lon="9.2361866"><ele>231.0</ele><time>2026-03-29T13:22:33.813Z</time></trkpt><trkpt lat="46.0133366" lon="9.2361567"><ele>228.75</ele><time>2026-03-29T13:22:34.821Z</time></trkpt><trkpt lat="46.0131825" lon="9.2361544"><ele>226.5</ele><time>2026-03-29T13:22:35.819Z</time></trkpt><trkpt lat="46.0130406" lon="9.2361234"><ele>224.25</ele><time>2026-03-29T13:22:36.818Z</time></trkpt><trkpt lat="46.0128896" lon="9.2361094"><ele>222.0</ele><time>2026-03-29T13:22:37.815Z</time></trkpt><trkpt lat="46.0127237" lon="9.2360959"><ele>222.0</ele><time>2026-03-29T13:22:38.818Z</time></trkpt><trkpt lat="46.0125722" lon="9.2360366"><ele>222.0</ele><time>2026-03-29T13:22:39.818Z</time></trkpt><trkpt lat="46.012421" lon="9.2359426"><ele>222.0</ele><time>2026-03-29T13:22:40.817Z</time></trkpt><trkpt lat="46.0122752" lon="9.2358279"><ele>220.33333333333331</ele><time>2026-03-29T13:22:41.815Z</time></trkpt><trkpt lat="46.0121486" lon="9.2356999"><ele>218.66666666666666</ele><time>2026-03-29T13:22:42.815Z</time></trkpt><trkpt lat="46.0120334" lon="9.2355375"><ele>217.0</ele><time>2026-03-29T13:22:43.811Z</time></trkpt><trkpt lat="46.0118884" lon="9.2354287"><ele>225.33333333333331</ele><time>2026-03-29T13:22:44.809Z</time></trkpt><trkpt lat="46.0117228" lon="9.2353654"><ele>233.66666666666669</ele><time>2026-03-29T13:22:45.804Z</time></trkpt><trkpt lat="46.0115394" lon="9.2353486"><ele>242.0</ele><time>2026-03-29T13:22:46.808Z</time></trkpt><trkpt lat="46.011368" lon="9.2353139"><ele>242.0</ele><time>2026-03-29T13:22:47.799Z</time></trkpt><trkpt lat="46.011196" lon="9.2352788"><ele>242.0</ele><time>2026-03-29T13:22:48.802Z</time></trkpt><trkpt lat="46.0110675" lon="9.2352438"><ele>242.0</ele><time>2026-03-29T13:22:49.786Z</time></trkpt><trkpt lat="46.0108034" lon="9.2352327"><ele>238.33333333333334</ele><time>2026-03-29T13:22:50.783Z</time></trkpt><trkpt lat="46.0106115" lon="9.235267"><ele>234.66666666666669</ele><time>2026-03-29T13:22:51.785Z</time></trkpt><trkpt lat="46.0104698" lon="9.2351348"><ele>231.0</ele><time>2026-03-29T13:22:52.805Z</time></trkpt><trkpt lat="46.0102694" lon="9.2350915"><ele>231.0</ele><time>2026-03-29T13:22:53.804Z</time></trkpt><trkpt lat="46.0101059" lon="9.2350578"><ele>231.0</ele><time>2026-03-29T13:22:54.809Z</time></trkpt><trkpt lat="46.0099587" lon="9.234983"><ele>231.0</ele><time>2026-03-29T13:22:55.811Z</time></trkpt><trkpt lat="46.0098162" lon="9.2349124"><ele>233.0</ele><time>2026-03-29T13:22:56.807Z</time></trkpt><trkpt lat="46.0096776" lon="9.2348406"><ele>235.0</ele><time>2026-03-29T13:22:57.81Z</time></trkpt><trkpt lat="46.0095371" lon="9.2347915"><ele>237.0</ele><time>2026-03-29T13:22:58.816Z</time></trkpt><trkpt lat="46.0093884" lon="9.2347471"><ele>239.0</ele><time>2026-03-29T13:22:59.811Z</time></trkpt><trkpt lat="46.0092205" lon="9.2347108"><ele>237.66666666666669</ele><time>2026-03-29T13:23:00.806Z</time></trkpt><trkpt lat="46.0090553" lon="9.2347877"><ele>236.33333333333331</ele><time>2026-03-29T13:23:01.811Z</time></trkpt><trkpt lat="46.0088846" lon="9.234842"><ele>235.0</ele><time>2026-03-29T13:23:02.812Z</time></trkpt><trkpt lat="46.0087384" lon="9.2348814"><ele>225.33333333333331</ele><time>2026-03-29T13:23:03.812Z</time></trkpt><trkpt lat="46.0085743" lon="9.234922"><ele>215.66666666666669</ele><time>2026-03-29T13:23:04.815Z</time></trkpt><trkpt lat="46.0084171" lon="9.234937"><ele>206.0</ele><time>2026-03-29T13:23:05.811Z</time></trkpt><trkpt lat="46.0082685" lon="9.2349114"><ele>203.66666666666669</ele><time>2026-03-29T13:23:06.811Z</time></trkpt><trkpt lat="46.0081307" lon="9.2348147"><ele>201.33333333333331</ele><time>2026-03-29T13:23:07.809Z</time></trkpt><trkpt lat="46.0079874" lon="9.2347308"><ele>199.0</ele><time>2026-03-29T13:23:08.809Z</time></trkpt><trkpt lat="46.0078218" lon="9.2346796"><ele>202.33333333333331</ele><time>2026-03-29T13:23:09.799Z</time></trkpt><trkpt lat="46.0076754" lon="9.2346081"><ele>205.66666666666669</ele><time>2026-03-29T13:23:10.804Z</time></trkpt><trkpt lat="46.0075228" lon="9.2345137"><ele>209.0</ele><time>2026-03-29T13:23:11.81Z</time></trkpt><trkpt lat="46.0073715" lon="9.234427"><ele>209.0</ele><time>2026-03-29T13:23:12.812Z</time></trkpt><trkpt lat="46.0072079" lon="9.2343721"><ele>209.0</ele><time>2026-03-29T13:23:13.815Z</time></trkpt><trkpt lat="46.0070225" lon="9.2343309"><ele>209.0</ele><time>2026-03-29T13:23:14.815Z</time></trkpt><trkpt lat="46.0068379" lon="9.2343192"><ele>209.0</ele><time>2026-03-29T13:23:15.811Z</time></trkpt><trkpt lat="46.0066708" lon="9.234303"><ele>209.0</ele><time>2026-03-29T13:23:16.807Z</time></trkpt><trkpt lat="46.0065173" lon="9.234283"><ele>209.0</ele><time>2026-03-29T13:23:17.81Z</time></trkpt><trkpt lat="46.0063845" lon="9.2342387"><ele>207.75</ele><time>2026-03-29T13:23:18.807Z</time></trkpt><trkpt lat="46.0062469" lon="9.2341782"><ele>206.5</ele><time>2026-03-29T13:23:19.81Z</time></trkpt><trkpt lat="46.0061088" lon="9.2340847"><ele>205.25</ele><time>2026-03-29T13:23:20.811Z</time></trkpt><trkpt lat="46.0059699" lon="9.2339961"><ele>204.0</ele><time>2026-03-29T13:23:21.806Z</time></trkpt><trkpt lat="46.0058483" lon="9.2339536"><ele>204.5</ele><time>2026-03-29T13:23:22.813Z</time></trkpt><trkpt lat="46.0057197" lon="9.2339817"><ele>205.0</ele><time>2026-03-29T13:23:23.808Z</time></trkpt><trkpt lat="46.0055847" lon="9.2340654"><ele>205.5</ele><time>2026-03-29T13:23:24.805Z</time></trkpt><trkpt lat="46.0054546" lon="9.2341447"><ele>206.0</ele><time>2026-03-29T13:23:25.809Z</time></trkpt><trkpt lat="46.0053238" lon="9.2341737"><ele>206.0</ele><time>2026-03-29T13:23:26.811Z</time></trkpt><trkpt lat="46.0051926" lon="9.2342054"><ele>206.0</ele><time>2026-03-29T13:23:27.813Z</time></trkpt><trkpt lat="46.0050709" lon="9.2342388"><ele>206.0</ele><time>2026-03-29T13:23:28.815Z</time></trkpt><trkpt lat="46.0049538" lon="9.234279"><ele>206.0</ele><time>2026-03-29T13:23:29.819Z</time></trkpt><trkpt lat="46.0048373" lon="9.2343045"><ele>209.8</ele><time>2026-03-29T13:23:30.809Z</time></trkpt><trkpt lat="46.004733" lon="9.2343424"><ele>213.60000000000002</ele><time>2026-03-29T13:23:31.814Z</time></trkpt><trkpt lat="46.0046366" lon="9.2343853"><ele>217.4</ele><time>2026-03-29T13:23:32.81Z</time></trkpt><trkpt lat="46.0045415" lon="9.2344371"><ele>221.2</ele><time>2026-03-29T13:23:33.811Z</time></trkpt><trkpt lat="46.0044391" lon="9.2345092"><ele>225.0</ele><time>2026-03-29T13:23:34.808Z</time></trkpt><trkpt lat="46.0043184" lon="9.234588"><ele>225.0</ele><time>2026-03-29T13:23:35.809Z</time></trkpt><trkpt lat="46.0041871" lon="9.2346435"><ele>225.0</ele><time>2026-03-29T13:23:36.808Z</time></trkpt><trkpt lat="46.0040311" lon="9.234661"><ele>225.0</ele><time>2026-03-29T13:23:37.811Z</time></trkpt><trkpt lat="46.0038748" lon="9.2346498"><ele>225.0</ele><time>2026-03-29T13:23:38.804Z</time></trkpt><trkpt lat="46.0037128" lon="9.2346188"><ele>225.0</ele><time>2026-03-29T13:23:39.816Z</time></trkpt><trkpt lat="46.0035588" lon="9.2345603"><ele>225.0</ele><time>2026-03-29T13:23:40.817Z</time></trkpt><trkpt lat="46.0033997" lon="9.2345046"><ele>223.66666666666669</ele><time>2026-03-29T13:23:41.81Z</time></trkpt><trkpt lat="46.0032416" lon="9.2344146"><ele>222.33333333333334</ele><time>2026-03-29T13:23:42.808Z</time></trkpt><trkpt lat="46.0030902" lon="9.2344149"><ele>221.0</ele><time>2026-03-29T13:23:43.803Z</time></trkpt><trkpt lat="46.0029523" lon="9.2344614"><ele>221.0</ele><time>2026-03-29T13:23:44.807Z</time></trkpt><trkpt lat="46.002828" lon="9.2345204"><ele>221.0</ele><time>2026-03-29T13:23:45.811Z</time></trkpt><trkpt lat="46.0026962" lon="9.2345959"><ele>221.0</ele><time>2026-03-29T13:23:46.818Z</time></trkpt><trkpt lat="46.0025531" lon="9.2346688"><ele>221.0</ele><time>2026-03-29T13:23:47.826Z</time></trkpt><trkpt lat="46.0024137" lon="9.2347377"><ele>218.0</ele><time>2026-03-29T13:23:48.828Z</time></trkpt><trkpt lat="46.00227" lon="9.2348119"><ele>215.0</ele><time>2026-03-29T13:23:49.829Z</time></trkpt><trkpt lat="46.0021182" lon="9.2348897"><ele>212.0</ele><time>2026-03-29T13:23:50.817Z</time></trkpt><trkpt lat="46.0019824" lon="9.2350245"><ele>212.0</ele><time>2026-03-29T13:23:51.814Z</time></trkpt><trkpt lat="46.0018423" lon="9.235178"><ele>212.0</ele><time>2026-03-29T13:23:52.829Z</time></trkpt><trkpt lat="46.0017125" lon="9.2353365"><ele>212.0</ele><time>2026-03-29T13:23:53.827Z</time></trkpt><trkpt lat="46.0015826" lon="9.2354877"><ele>211.75</ele><time>2026-03-29T13:23:54.829Z</time></trkpt><trkpt lat="46.0014531" lon="9.2356106"><ele>211.5</ele><time>2026-03-29T13:23:55.821Z</time></trkpt><trkpt lat="46.0013413" lon="9.2357195"><ele>211.25</ele><time>2026-03-29T13:23:56.823Z</time></trkpt><trkpt lat="46.0012369" lon="9.235854"><ele>211.0</ele><time>2026-03-29T13:23:57.824Z</time></trkpt><trkpt lat="46.0011384" lon="9.2359863"><ele>211.0</ele><time>2026-03-29T13:23:58.822Z</time></trkpt><trkpt lat="46.0010499" lon="9.2361041"><ele>211.0</ele><time>2026-03-29T13:23:59.832Z</time></trkpt><trkpt lat="46.0009655" lon="9.2362167"><ele>211.0</ele><time>2026-03-29T13:24:00.83Z</time></trkpt><trkpt lat="46.0008689" lon="9.2363428"><ele>211.0</ele><time>2026-03-29T13:24:01.824Z</time></trkpt><trkpt lat="46.0007605" lon="9.236461"><ele>209.0</ele><time>2026-03-29T13:24:02.826Z</time></trkpt><trkpt lat="46.0006613" lon="9.2365397"><ele>207.0</ele><time>2026-03-29T13:24:03.822Z</time></trkpt><trkpt lat="46.0005682" lon="9.2365976"><ele>205.0</ele><time>2026-03-29T13:24:04.834Z</time></trkpt><trkpt lat="46.0004598" lon="9.2366528"><ele>203.0</ele><time>2026-03-29T13:24:05.829Z</time></trkpt><trkpt lat="46.0003374" lon="9.2367053"><ele>203.0</ele><time>2026-03-29T13:24:06.82Z</time></trkpt><trkpt lat="46.0002084" lon="9.2367394"><ele>203.0</ele><time>2026-03-29T13:24:07.83Z</time></trkpt><trkpt lat="46.0000869" lon="9.2367427"><ele>203.0</ele><time>2026-03-29T13:24:08.831Z</time></trkpt><trkpt lat="45.9999741" lon="9.2367413"><ele>203.0</ele><time>2026-03-29T13:24:09.825Z</time></trkpt><trkpt lat="45.9998635" lon="9.2367424"><ele>203.0</ele><time>2026-03-29T13:24:10.834Z</time></trkpt><trkpt lat="45.9997397" lon="9.236745"><ele>203.0</ele><time>2026-03-29T13:24:11.827Z</time></trkpt><trkpt lat="45.9996219" lon="9.2367451"><ele>203.0</ele><time>2026-03-29T13:24:12.823Z</time></trkpt><trkpt lat="45.9995084" lon="9.2367734"><ele>203.0</ele><time>2026-03-29T13:24:13.827Z</time></trkpt><trkpt lat="45.9994023" lon="9.2368226"><ele>203.0</ele><time>2026-03-29T13:24:14.829Z</time></trkpt><trkpt lat="45.9992905" lon="9.2368941"><ele>203.0</ele><time>2026-03-29T13:24:15.821Z</time></trkpt><trkpt lat="45.9991647" lon="9.237017"><ele>203.0</ele><time>2026-03-29T13:24:16.823Z</time></trkpt><trkpt lat="45.998995" lon="9.2372036"><ele>201.66666666666669</ele><time>2026-03-29T13:24:17.828Z</time></trkpt><trkpt lat="45.9988543" lon="9.2373591"><ele>200.33333333333331</ele><time>2026-03-29T13:24:18.823Z</time></trkpt><trkpt lat="45.9987212" lon="9.2375095"><ele>199.0</ele><time>2026-03-29T13:24:19.827Z</time></trkpt><trkpt lat="45.9985871" lon="9.2376528"><ele>199.0</ele><time>2026-03-29T13:24:20.827Z</time></trkpt><trkpt lat="45.9984594" lon="9.2377736"><ele>199.0</ele><time>2026-03-29T13:24:21.823Z</time></trkpt><trkpt lat="45.9983405" lon="9.2378727"><ele>199.0</ele><time>2026-03-29T13:24:22.826Z</time></trkpt><trkpt lat="45.9982208" lon="9.2379938"><ele>199.0</ele><time>2026-03-29T13:24:23.823Z</time></trkpt><trkpt lat="45.9980987" lon="9.2380901"><ele>200.0</ele><time>2026-03-29T13:24:24.827Z</time></trkpt><trkpt lat="45.997981" lon="9.2381586"><ele>201.0</ele><time>2026-03-29T13:24:25.828Z</time></trkpt><trkpt lat="45.9978404" lon="9.2382505"><ele>202.0</ele><time>2026-03-29T13:24:26.827Z</time></trkpt><trkpt lat="45.9976882" lon="9.2383257"><ele>203.0</ele><time>2026-03-29T13:24:27.827Z</time></trkpt><trkpt lat="45.9975177" lon="9.2383957"><ele>205.0</ele><time>2026-03-29T13:24:28.832Z</time></trkpt><trkpt lat="45.9973536" lon="9.2384438"><ele>207.0</ele><time>2026-03-29T13:24:29.833Z</time></trkpt><trkpt lat="45.9972039" lon="9.2384694"><ele>209.0</ele><time>2026-03-29T13:24:30.832Z</time></trkpt><trkpt lat="45.9970582" lon="9.2384875"><ele>209.0</ele><time>2026-03-29T13:24:31.829Z</time></trkpt><trkpt lat="45.9969199" lon="9.2385094"><ele>209.0</ele><time>2026-03-29T13:24:32.829Z</time></trkpt><trkpt lat="45.9967839" lon="9.2385466"><ele>209.0</ele><time>2026-03-29T13:24:33.831Z</time></trkpt><trkpt lat="45.9966441" lon="9.2385819"><ele>209.0</ele><time>2026-03-29T13:24:34.825Z</time></trkpt><trkpt lat="45.9964993" lon="9.2386012"><ele>209.25</ele><time>2026-03-29T13:24:35.83Z</time></trkpt><trkpt lat="45.9963613" lon="9.2386245"><ele>209.5</ele><time>2026-03-29T13:24:36.83Z</time></trkpt><trkpt lat="45.9962244" lon="9.2386499"><ele>209.75</ele><time>2026-03-29T13:24:37.829Z</time></trkpt><trkpt lat="45.9960888" lon="9.2386722"><ele>210.0</ele><time>2026-03-29T13:24:38.826Z</time></trkpt><trkpt lat="45.9959589" lon="9.2386966"><ele>210.75</ele><time>2026-03-29T13:24:39.825Z</time></trkpt><trkpt lat="45.9958148" lon="9.2387382"><ele>211.5</ele><time>2026-03-29T13:24:40.829Z</time></trkpt><trkpt lat="45.9956615" lon="9.2388073"><ele>212.25</ele><time>2026-03-29T13:24:41.822Z</time></trkpt><trkpt lat="45.9955336" lon="9.238815"><ele>213.0</ele><time>2026-03-29T13:24:42.824Z</time></trkpt><trkpt lat="45.9954155" lon="9.2388341"><ele>213.0</ele><time>2026-03-29T13:24:43.82Z</time></trkpt><trkpt lat="45.9952935" lon="9.238906"><ele>213.0</ele><time>2026-03-29T13:24:44.823Z</time></trkpt><trkpt lat="45.9951649" lon="9.2390128"><ele>213.0</ele><time>2026-03-29T13:24:45.822Z</time></trkpt><trkpt lat="45.9950487" lon="9.239097"><ele>213.0</ele><time>2026-03-29T13:24:46.814Z</time></trkpt><trkpt lat="45.9949369" lon="9.2391369"><ele>210.5</ele><time>2026-03-29T13:24:47.82Z</time></trkpt><trkpt lat="45.9948239" lon="9.2391884"><ele>208.0</ele><time>2026-03-29T13:24:48.821Z</time></trkpt><trkpt lat="45.9947113" lon="9.2392366"><ele>205.5</ele><time>2026-03-29T13:24:49.827Z</time></trkpt><trkpt lat="45.9945971" lon="9.2392801"><ele>203.0</ele><time>2026-03-29T13:24:50.82Z</time></trkpt><trkpt lat="45.9944867" lon="9.2392965"><ele>203.0</ele><time>2026-03-29T13:24:51.819Z</time></trkpt><trkpt lat="45.9943906" lon="9.2392717"><ele>203.0</ele><time>2026-03-29T13:24:52.821Z</time></trkpt><trkpt lat="45.9943052" lon="9.2392171"><ele>203.0</ele><time>2026-03-29T13:24:53.822Z</time></trkpt><trkpt lat="45.9942049" lon="9.2391674"><ele>203.0</ele><time>2026-03-29T13:24:54.818Z</time></trkpt><trkpt lat="45.9940978" lon="9.2391168"><ele>203.0</ele><time>2026-03-29T13:24:55.823Z</time></trkpt><trkpt lat="45.9939848" lon="9.2390648"><ele>202.75</ele><time>2026-03-29T13:24:56.82Z</time></trkpt><trkpt lat="45.9938817" lon="9.2390055"><ele>202.5</ele><time>2026-03-29T13:24:57.827Z</time></trkpt><trkpt lat="45.9937779" lon="9.2389442"><ele>202.25</ele><time>2026-03-29T13:24:58.826Z</time></trkpt><trkpt lat="45.9936614" lon="9.2388707"><ele>202.0</ele><time>2026-03-29T13:24:59.835Z</time></trkpt><trkpt lat="45.9935394" lon="9.2387908"><ele>203.39999999999998</ele><time>2026-03-29T13:25:00.83Z</time></trkpt><trkpt lat="45.993437" lon="9.2387157"><ele>204.79999999999998</ele><time>2026-03-29T13:25:01.823Z</time></trkpt><trkpt lat="45.9933648" lon="9.2386558"><ele>206.2</ele><time>2026-03-29T13:25:02.828Z</time></trkpt><trkpt lat="45.9932584" lon="9.2385992"><ele>207.6</ele><time>2026-03-29T13:25:04.823Z</time></trkpt><trkpt lat="45.9931403" lon="9.2385425"><ele>209.0</ele><time>2026-03-29T13:25:06.828Z</time></trkpt><trkpt lat="45.9930714" lon="9.2385095"><ele>209.00000000000003</ele><time>2026-03-29T13:25:07.828Z</time></trkpt><trkpt lat="45.9929944" lon="9.2384712"><ele>209.0</ele><time>2026-03-29T13:25:08.83Z</time></trkpt><trkpt lat="45.9929117" lon="9.2384309"><ele>209.0</ele><time>2026-03-29T13:25:09.831Z</time></trkpt><trkpt lat="45.9928315" lon="9.238395"><ele>209.0</ele><time>2026-03-29T13:25:10.83Z</time></trkpt><trkpt lat="45.9927537" lon="9.238364"><ele>209.00000000000003</ele><time>2026-03-29T13:25:11.829Z</time></trkpt><trkpt lat="45.9926823" lon="9.2383297"><ele>209.0</ele><time>2026-03-29T13:25:12.826Z</time></trkpt><trkpt lat="45.9926165" lon="9.2382958"><ele>209.00000000000003</ele><time>2026-03-29T13:25:13.821Z</time></trkpt><trkpt lat="45.9925558" lon="9.2382706"><ele>209.0</ele><time>2026-03-29T13:25:14.825Z</time></trkpt><trkpt lat="45.992449" lon="9.2382302"><ele>209.0</ele><time>2026-03-29T13:25:16.822Z</time></trkpt><trkpt lat="45.9923668" lon="9.2381894"><ele>209.0</ele><time>2026-03-29T13:25:18.822Z</time></trkpt><trkpt lat="45.9922877" lon="9.2381678"><ele>209.00000000000003</ele><time>2026-03-29T13:25:20.82Z</time></trkpt><trkpt lat="45.9921818" lon="9.2381357"><ele>209.0</ele><time>2026-03-29T13:25:22.807Z</time></trkpt><trkpt lat="45.9921061" lon="9.2380967"><ele>209.83333333333334</ele><time>2026-03-29T13:25:23.816Z</time></trkpt><trkpt lat="45.9920294" lon="9.2380422"><ele>210.66666666666669</ele><time>2026-03-29T13:25:24.81Z</time></trkpt><trkpt lat="45.9919538" lon="9.237983"><ele>211.5</ele><time>2026-03-29T13:25:25.814Z</time></trkpt><trkpt lat="45.9918724" lon="9.2379269"><ele>212.33333333333331</ele><time>2026-03-29T13:25:26.81Z</time></trkpt><trkpt lat="45.9917951" lon="9.2378793"><ele>213.16666666666666</ele><time>2026-03-29T13:25:27.805Z</time></trkpt><trkpt lat="45.9917216" lon="9.2378341"><ele>214.0</ele><time>2026-03-29T13:25:28.812Z</time></trkpt><trkpt lat="45.9916469" lon="9.2377982"><ele>214.00000000000003</ele><time>2026-03-29T13:25:29.816Z</time></trkpt><trkpt lat="45.9915827" lon="9.2377688"><ele>214.0</ele><time>2026-03-29T13:25:30.812Z</time></trkpt><trkpt lat="45.9915177" lon="9.2377442"><ele>214.0</ele><time>2026-03-29T13:25:31.815Z</time></trkpt><trkpt lat="45.9914493" lon="9.2377088"><ele>214.0</ele><time>2026-03-29T13:25:32.818Z</time></trkpt><trkpt lat="45.9913796" lon="9.2376785"><ele>214.0</ele><time>2026-03-29T13:25:33.821Z</time></trkpt><trkpt lat="45.9913044" lon="9.2376488"><ele>214.00000000000003</ele><time>2026-03-29T13:25:34.821Z</time></trkpt><trkpt lat="45.9912214" lon="9.2376181"><ele>214.0</ele><time>2026-03-29T13:25:35.818Z</time></trkpt><trkpt lat="45.9911424" lon="9.237573"><ele>213.99999999999997</ele><time>2026-03-29T13:25:36.819Z</time></trkpt><trkpt lat="45.9910635" lon="9.2375181"><ele>214.0</ele><time>2026-03-29T13:25:37.828Z</time></trkpt><trkpt lat="45.9909843" lon="9.2374619"><ele>214.0</ele><time>2026-03-29T13:25:38.824Z</time></trkpt><trkpt lat="45.9909063" lon="9.2374106"><ele>214.0</ele><time>2026-03-29T13:25:39.821Z</time></trkpt><trkpt lat="45.9908262" lon="9.2373581"><ele>213.99999999999997</ele><time>2026-03-29T13:25:40.824Z</time></trkpt><trkpt lat="45.9907361" lon="9.2372995"><ele>214.0</ele><time>2026-03-29T13:25:41.827Z</time></trkpt><trkpt lat="45.9906435" lon="9.2372379"><ele>217.0</ele><time>2026-03-29T13:25:42.824Z</time></trkpt><trkpt lat="45.9905442" lon="9.237169"><ele>219.99999999999997</ele><time>2026-03-29T13:25:43.831Z</time></trkpt><trkpt lat="45.9904511" lon="9.2371045"><ele>222.99999999999997</ele><time>2026-03-29T13:25:44.831Z</time></trkpt><trkpt lat="45.9903648" lon="9.237048"><ele>226.0</ele><time>2026-03-29T13:25:45.821Z</time></trkpt><trkpt lat="45.9902822" lon="9.236992"><ele>229.0</ele><time>2026-03-29T13:25:46.83Z</time></trkpt><trkpt lat="45.9902008" lon="9.2369457"><ele>228.99999999999997</ele><time>2026-03-29T13:25:47.824Z</time></trkpt><trkpt lat="45.990122" lon="9.2368997"><ele>229.0</ele><time>2026-03-29T13:25:48.821Z</time></trkpt><trkpt lat="45.9900434" lon="9.2368634"><ele>229.0</ele><time>2026-03-29T13:25:49.823Z</time></trkpt><trkpt lat="45.9899733" lon="9.2368188"><ele>229.0</ele><time>2026-03-29T13:25:50.823Z</time></trkpt><trkpt lat="45.9899009" lon="9.2367635"><ele>228.99999999999997</ele><time>2026-03-29T13:25:51.821Z</time></trkpt><trkpt lat="45.9898284" lon="9.2367101"><ele>229.0</ele><time>2026-03-29T13:25:52.815Z</time></trkpt><trkpt lat="45.9897516" lon="9.2366565"><ele>229.33333333333331</ele><time>2026-03-29T13:25:53.824Z</time></trkpt><trkpt lat="45.9896786" lon="9.2365993"><ele>229.66666666666666</ele><time>2026-03-29T13:25:54.825Z</time></trkpt><trkpt lat="45.989608" lon="9.2365426"><ele>230.0</ele><time>2026-03-29T13:25:55.818Z</time></trkpt><trkpt lat="45.9895402" lon="9.2364929"><ele>230.33333333333331</ele><time>2026-03-29T13:25:56.831Z</time></trkpt><trkpt lat="45.9894788" lon="9.2364563"><ele>230.66666666666666</ele><time>2026-03-29T13:25:57.824Z</time></trkpt><trkpt lat="45.9894119" lon="9.2364087"><ele>231.0</ele><time>2026-03-29T13:25:58.825Z</time></trkpt><trkpt lat="45.989334" lon="9.2363539"><ele>231.0</ele><time>2026-03-29T13:25:59.821Z</time></trkpt><trkpt lat="45.9892473" lon="9.2362847"><ele>231.00000000000003</ele><time>2026-03-29T13:26:00.822Z</time></trkpt><trkpt lat="45.9891591" lon="9.2362133"><ele>231.00000000000003</ele><time>2026-03-29T13:26:01.829Z</time></trkpt><trkpt lat="45.9890642" lon="9.2361416"><ele>231.0</ele><time>2026-03-29T13:26:02.828Z</time></trkpt><trkpt lat="45.9889635" lon="9.2360671"><ele>231.0</ele><time>2026-03-29T13:26:03.834Z</time></trkpt><trkpt lat="45.9888602" lon="9.2359958"><ele>227.25</ele><time>2026-03-29T13:26:04.828Z</time></trkpt><trkpt lat="45.9887568" lon="9.2359108"><ele>223.5</ele><time>2026-03-29T13:26:05.834Z</time></trkpt><trkpt lat="45.988661" lon="9.2358138"><ele>219.75</ele><time>2026-03-29T13:26:06.831Z</time></trkpt><trkpt lat="45.9885663" lon="9.2357226"><ele>216.0</ele><time>2026-03-29T13:26:07.834Z</time></trkpt><trkpt lat="45.9884785" lon="9.2356376"><ele>214.4</ele><time>2026-03-29T13:26:08.835Z</time></trkpt><trkpt lat="45.9883934" lon="9.2355584"><ele>212.8</ele><time>2026-03-29T13:26:09.833Z</time></trkpt><trkpt lat="45.9883141" lon="9.2354827"><ele>211.20000000000002</ele><time>2026-03-29T13:26:10.83Z</time></trkpt><trkpt lat="45.9882339" lon="9.2354176"><ele>209.60000000000002</ele><time>2026-03-29T13:26:11.825Z</time></trkpt><trkpt lat="45.988151" lon="9.23534"><ele>208.0</ele><time>2026-03-29T13:26:12.824Z</time></trkpt><trkpt lat="45.9880655" lon="9.2352475"><ele>208.0</ele><time>2026-03-29T13:26:13.824Z</time></trkpt><trkpt lat="45.9879905" lon="9.2351295"><ele>208.0</ele><time>2026-03-29T13:26:14.824Z</time></trkpt><trkpt lat="45.987933" lon="9.235023"><ele>208.0</ele><time>2026-03-29T13:26:15.826Z</time></trkpt><trkpt lat="45.9878853" lon="9.2349101"><ele>208.0</ele><time>2026-03-29T13:26:16.822Z</time></trkpt><trkpt lat="45.9878324" lon="9.2347909"><ele>208.0</ele><time>2026-03-29T13:26:17.819Z</time></trkpt><trkpt lat="45.9877841" lon="9.2346915"><ele>210.49999999999997</ele><time>2026-03-29T13:26:18.819Z</time></trkpt><trkpt lat="45.9877467" lon="9.2346126"><ele>213.0</ele><time>2026-03-29T13:26:19.816Z</time></trkpt><trkpt lat="45.9876919" lon="9.2344766"><ele>215.5</ele><time>2026-03-29T13:26:21.816Z</time></trkpt><trkpt lat="45.9876618" lon="9.2343947"><ele>218.0</ele><time>2026-03-29T13:26:22.821Z</time></trkpt><trkpt lat="45.9876204" lon="9.2343062"><ele>220.49999999999997</ele><time>2026-03-29T13:26:23.818Z</time></trkpt><trkpt lat="45.9875678" lon="9.2342132"><ele>223.0</ele><time>2026-03-29T13:26:24.815Z</time></trkpt><trkpt lat="45.9875159" lon="9.2341307"><ele>222.42857142857142</ele><time>2026-03-29T13:26:25.822Z</time></trkpt><trkpt lat="45.9874698" lon="9.2340569"><ele>221.85714285714283</ele><time>2026-03-29T13:26:26.813Z</time></trkpt><trkpt lat="45.9874239" lon="9.2339814"><ele>221.28571428571428</ele><time>2026-03-29T13:26:41.829Z</time></trkpt><trkpt lat="45.9873776" lon="9.2339013"><ele>220.71428571428572</ele><time>2026-03-29T13:26:52.84Z</time></trkpt><trkpt lat="45.9873512" lon="9.2337956"><ele>220.14285714285714</ele><time>2026-03-29T13:26:56.842Z</time></trkpt><trkpt lat="45.9873282" lon="9.2336993"><ele>219.57142857142858</ele><time>2026-03-29T13:26:58.845Z</time></trkpt><trkpt lat="45.9873095" lon="9.2335917"><ele>219.0</ele><time>2026-03-29T13:27:00.848Z</time></trkpt><trkpt lat="45.9872797" lon="9.2334823"><ele>219.0</ele><time>2026-03-29T13:27:03.845Z</time></trkpt><trkpt lat="45.9872146" lon="9.2333706"><ele>219.0</ele><time>2026-03-29T13:27:05.841Z</time></trkpt><trkpt lat="45.9871733" lon="9.2332849"><ele>219.0</ele><time>2026-03-29T13:27:06.834Z</time></trkpt><trkpt lat="45.9871303" lon="9.2331993"><ele>219.0</ele><time>2026-03-29T13:27:07.839Z</time></trkpt><trkpt lat="45.9870845" lon="9.2331158"><ele>219.0</ele><time>2026-03-29T13:27:08.832Z</time></trkpt><trkpt lat="45.9870355" lon="9.2330384"><ele>219.0</ele><time>2026-03-29T13:27:09.829Z</time></trkpt><trkpt lat="45.9869876" lon="9.232959"><ele>221.83333333333334</ele><time>2026-03-29T13:27:10.832Z</time></trkpt><trkpt lat="45.9869483" lon="9.23288"><ele>224.66666666666669</ele><time>2026-03-29T13:27:11.822Z</time></trkpt><trkpt lat="45.9869105" lon="9.2328014"><ele>227.5</ele><time>2026-03-29T13:27:12.826Z</time></trkpt><trkpt lat="45.9868749" lon="9.2327263"><ele>230.33333333333334</ele><time>2026-03-29T13:27:13.825Z</time></trkpt><trkpt lat="45.9868151" lon="9.2326068"><ele>233.16666666666669</ele><time>2026-03-29T13:27:15.826Z</time></trkpt><trkpt lat="45.9867647" lon="9.2325072"><ele>236.0</ele><time>2026-03-29T13:27:17.836Z</time></trkpt><trkpt lat="45.9867141" lon="9.232399"><ele>233.16666666666669</ele><time>2026-03-29T13:27:19.834Z</time></trkpt><trkpt lat="45.9866713" lon="9.2323158"><ele>230.33333333333334</ele><time>2026-03-29T13:27:21.841Z</time></trkpt><trkpt lat="45.986629" lon="9.2322421"><ele>227.5</ele><time>2026-03-29T13:27:23.848Z</time></trkpt><trkpt lat="45.9865842" lon="9.2321632"><ele>224.66666666666669</ele><time>2026-03-29T13:27:29.862Z</time></trkpt><trkpt lat="45.9865244" lon="9.2320633"><ele>221.83333333333334</ele><time>2026-03-29T13:27:32.839Z</time></trkpt><trkpt lat="45.9864552" lon="9.2319613"><ele>219.0</ele><time>2026-03-29T13:27:34.843Z</time></trkpt><trkpt lat="45.9863703" lon="9.231844"><ele>219.0</ele><time>2026-03-29T13:27:36.838Z</time></trkpt><trkpt lat="45.9863215" lon="9.2317803"><ele>219.0</ele><time>2026-03-29T13:27:37.834Z</time></trkpt><trkpt lat="45.9862678" lon="9.2317147"><ele>219.0</ele><time>2026-03-29T13:27:38.831Z</time></trkpt><trkpt lat="45.9862088" lon="9.2316494"><ele>219.0</ele><time>2026-03-29T13:27:39.829Z</time></trkpt><trkpt lat="45.9861493" lon="9.231571"><ele>219.0</ele><time>2026-03-29T13:27:40.836Z</time></trkpt><trkpt lat="45.9860967" lon="9.2314733"><ele>219.0</ele><time>2026-03-29T13:27:41.828Z</time></trkpt><trkpt lat="45.9860497" lon="9.231371"><ele>217.83333333333334</ele><time>2026-03-29T13:27:42.833Z</time></trkpt><trkpt lat="45.9860013" lon="9.2312709"><ele>216.66666666666669</ele><time>2026-03-29T13:27:43.828Z</time></trkpt><trkpt lat="45.9859554" lon="9.2311712"><ele>215.5</ele><time>2026-03-29T13:27:44.827Z</time></trkpt><trkpt lat="45.9859107" lon="9.2310815"><ele>214.33333333333334</ele><time>2026-03-29T13:27:45.828Z</time></trkpt><trkpt lat="45.9858665" lon="9.2309968"><ele>213.16666666666669</ele><time>2026-03-29T13:27:46.827Z</time></trkpt><trkpt lat="45.9858218" lon="9.2309211"><ele>212.0</ele><time>2026-03-29T13:27:47.829Z</time></trkpt><trkpt lat="45.9857755" lon="9.2308432"><ele>212.0</ele><time>2026-03-29T13:27:48.832Z</time></trkpt><trkpt lat="45.985728" lon="9.2307699"><ele>212.0</ele><time>2026-03-29T13:27:49.831Z</time></trkpt><trkpt lat="45.9856828" lon="9.2306984"><ele>212.0</ele><time>2026-03-29T13:27:50.824Z</time></trkpt><trkpt lat="45.9856437" lon="9.2306204"><ele>212.0</ele><time>2026-03-29T13:27:51.823Z</time></trkpt><trkpt lat="45.9856125" lon="9.2305189"><ele>212.0</ele><time>2026-03-29T13:27:52.816Z</time></trkpt><trkpt lat="45.9855862" lon="9.2304148"><ele>212.0</ele><time>2026-03-29T13:27:53.83Z</time></trkpt><trkpt lat="45.9855578" lon="9.2303043"><ele>212.0</ele><time>2026-03-29T13:27:54.826Z</time></trkpt><trkpt lat="45.9855259" lon="9.230191"><ele>214.33333333333334</ele><time>2026-03-29T13:27:55.847Z</time></trkpt><trkpt lat="45.9854882" lon="9.2300868"><ele>216.66666666666669</ele><time>2026-03-29T13:27:56.832Z</time></trkpt><trkpt lat="45.985455" lon="9.2299801"><ele>219.0</ele><time>2026-03-29T13:27:57.83Z</time></trkpt><trkpt lat="45.9854221" lon="9.2298741"><ele>221.33333333333331</ele><time>2026-03-29T13:27:58.836Z</time></trkpt><trkpt lat="45.9853868" lon="9.2297777"><ele>223.66666666666666</ele><time>2026-03-29T13:27:59.846Z</time></trkpt><trkpt lat="45.9853493" lon="9.2296905"><ele>226.0</ele><time>2026-03-29T13:28:00.831Z</time></trkpt><trkpt lat="45.9853113" lon="9.2296103"><ele>228.8</ele><time>2026-03-29T13:28:01.829Z</time></trkpt><trkpt lat="45.9852723" lon="9.2295371"><ele>231.60000000000002</ele><time>2026-03-29T13:28:02.835Z</time></trkpt><trkpt lat="45.9852337" lon="9.229461"><ele>234.4</ele><time>2026-03-29T13:28:03.824Z</time></trkpt><trkpt lat="45.985159" lon="9.2293214"><ele>237.2</ele><time>2026-03-29T13:28:05.829Z</time></trkpt><trkpt lat="45.985097" lon="9.2292115"><ele>240.0</ele><time>2026-03-29T13:28:07.833Z</time></trkpt><trkpt lat="45.9850409" lon="9.2290856"><ele>236.66666666666666</ele><time>2026-03-29T13:28:09.827Z</time></trkpt><trkpt lat="45.9849797" lon="9.2289808"><ele>233.33333333333331</ele><time>2026-03-29T13:28:11.819Z</time></trkpt><trkpt lat="45.9849151" lon="9.2288958"><ele>230.0</ele><time>2026-03-29T13:28:13.829Z</time></trkpt><trkpt lat="45.9848646" lon="9.2288223"><ele>226.66666666666666</ele><time>2026-03-29T13:28:15.825Z</time></trkpt><trkpt lat="45.9848158" lon="9.2287641"><ele>223.33333333333331</ele><time>2026-03-29T13:28:17.832Z</time></trkpt><trkpt lat="45.9847515" lon="9.2287115"><ele>220.0</ele><time>2026-03-29T13:28:20.823Z</time></trkpt><trkpt lat="45.9847129" lon="9.2286332"><ele>220.0</ele><time>2026-03-29T13:28:22.822Z</time></trkpt><trkpt lat="45.9846481" lon="9.228524"><ele>220.0</ele><time>2026-03-29T13:28:24.825Z</time></trkpt><trkpt lat="45.9845672" lon="9.2284216"><ele>220.0</ele><time>2026-03-29T13:28:26.821Z</time></trkpt><trkpt lat="45.9844917" lon="9.2283036"><ele>220.0</ele><time>2026-03-29T13:28:28.826Z</time></trkpt><trkpt lat="45.9844068" lon="9.2281865"><ele>220.0</ele><time>2026-03-29T13:28:30.853Z</time></trkpt><trkpt lat="45.984325" lon="9.2280624"><ele>220.83333333333331</ele><time>2026-03-29T13:28:32.835Z</time></trkpt><trkpt lat="45.9842748" lon="9.2279945"><ele>221.66666666666666</ele><time>2026-03-29T13:28:33.828Z</time></trkpt><trkpt lat="45.9842123" lon="9.2279221"><ele>222.5</ele><time>2026-03-29T13:28:34.833Z</time></trkpt><trkpt lat="45.9841385" lon="9.2278447"><ele>223.33333333333331</ele><time>2026-03-29T13:28:35.825Z</time></trkpt><trkpt lat="45.9840678" lon="9.2277493"><ele>224.16666666666666</ele><time>2026-03-29T13:28:36.829Z</time></trkpt><trkpt lat="45.9839974" lon="9.2276449"><ele>225.0</ele><time>2026-03-29T13:28:37.831Z</time></trkpt><trkpt lat="45.9839296" lon="9.2275384"><ele>224.83333333333334</ele><time>2026-03-29T13:28:38.829Z</time></trkpt><trkpt lat="45.9838705" lon="9.2274374"><ele>224.66666666666669</ele><time>2026-03-29T13:28:39.833Z</time></trkpt><trkpt lat="45.9838256" lon="9.2273271"><ele>224.5</ele><time>2026-03-29T13:28:40.827Z</time></trkpt><trkpt lat="45.9837962" lon="9.2272016"><ele>224.33333333333334</ele><time>2026-03-29T13:28:41.831Z</time></trkpt><trkpt lat="45.9837623" lon="9.2270865"><ele>224.16666666666669</ele><time>2026-03-29T13:28:42.831Z</time></trkpt><trkpt lat="45.9837294" lon="9.2269809"><ele>224.0</ele><time>2026-03-29T13:28:43.822Z</time></trkpt><trkpt lat="45.9836964" lon="9.2268819"><ele>224.00000000000003</ele><time>2026-03-29T13:28:44.829Z</time></trkpt><trkpt lat="45.9836545" lon="9.2267975"><ele>224.0</ele><time>2026-03-29T13:28:45.818Z</time></trkpt><trkpt lat="45.9836085" lon="9.2267148"><ele>224.0</ele><time>2026-03-29T13:28:46.828Z</time></trkpt><trkpt lat="45.9835625" lon="9.2266291"><ele>224.0</ele><time>2026-03-29T13:28:47.825Z</time></trkpt><trkpt lat="45.9835214" lon="9.2265388"><ele>224.00000000000003</ele><time>2026-03-29T13:28:48.817Z</time></trkpt><trkpt lat="45.9834755" lon="9.2264462"><ele>224.0</ele><time>2026-03-29T13:28:49.827Z</time></trkpt><trkpt lat="45.98343" lon="9.2263427"><ele>221.39999999999998</ele><time>2026-03-29T13:28:50.822Z</time></trkpt><trkpt lat="45.9833758" lon="9.226238"><ele>218.79999999999998</ele><time>2026-03-29T13:28:51.818Z</time></trkpt><trkpt lat="45.9833211" lon="9.2261324"><ele>216.2</ele><time>2026-03-29T13:28:52.825Z</time></trkpt><trkpt lat="45.9832681" lon="9.2260155"><ele>213.60000000000002</ele><time>2026-03-29T13:28:53.819Z</time></trkpt><trkpt lat="45.9832119" lon="9.2258978"><ele>211.0</ele><time>2026-03-29T13:28:54.82Z</time></trkpt><trkpt lat="45.9831573" lon="9.2257834"><ele>210.99999999999997</ele><time>2026-03-29T13:28:55.816Z</time></trkpt><trkpt lat="45.9831007" lon="9.2256785"><ele>211.0</ele><time>2026-03-29T13:28:56.816Z</time></trkpt><trkpt lat="45.9830469" lon="9.22558"><ele>211.0</ele><time>2026-03-29T13:28:57.816Z</time></trkpt><trkpt lat="45.9830003" lon="9.2254831"><ele>211.0</ele><time>2026-03-29T13:28:58.826Z</time></trkpt><trkpt lat="45.9829561" lon="9.2253835"><ele>210.99999999999997</ele><time>2026-03-29T13:28:59.832Z</time></trkpt><trkpt lat="45.9829122" lon="9.2252793"><ele>211.0</ele><time>2026-03-29T13:29:00.826Z</time></trkpt><trkpt lat="45.9828711" lon="9.2251692"><ele>212.60000000000002</ele><time>2026-03-29T13:29:01.826Z</time></trkpt><trkpt lat="45.9828351" lon="9.2250539"><ele>214.2</ele><time>2026-03-29T13:29:02.825Z</time></trkpt><trkpt lat="45.9828103" lon="9.2249324"><ele>215.79999999999998</ele><time>2026-03-29T13:29:03.823Z</time></trkpt><trkpt lat="45.982792" lon="9.2248039"><ele>217.39999999999998</ele><time>2026-03-29T13:29:04.824Z</time></trkpt><trkpt lat="45.9827836" lon="9.2246666"><ele>219.0</ele><time>2026-03-29T13:29:05.827Z</time></trkpt><trkpt lat="45.9827793" lon="9.2245313"><ele>220.0</ele><time>2026-03-29T13:29:06.826Z</time></trkpt><trkpt lat="45.9827778" lon="9.2243979"><ele>220.99999999999997</ele><time>2026-03-29T13:29:07.821Z</time></trkpt><trkpt lat="45.9827754" lon="9.2242651"><ele>221.99999999999997</ele><time>2026-03-29T13:29:08.825Z</time></trkpt><trkpt lat="45.982773" lon="9.224129"><ele>223.0</ele><time>2026-03-29T13:29:09.827Z</time></trkpt><trkpt lat="45.9827676" lon="9.2239926"><ele>224.0</ele><time>2026-03-29T13:29:10.825Z</time></trkpt><trkpt lat="45.9827499" lon="9.2238568"><ele>225.0</ele><time>2026-03-29T13:29:11.822Z</time></trkpt><trkpt lat="45.9827175" lon="9.223731"><ele>225.99999999999997</ele><time>2026-03-29T13:29:12.822Z</time></trkpt><trkpt lat="45.9826751" lon="9.2236139"><ele>226.99999999999997</ele><time>2026-03-29T13:29:13.821Z</time></trkpt><trkpt lat="45.9826218" lon="9.2235013"><ele>228.0</ele><time>2026-03-29T13:29:14.828Z</time></trkpt><trkpt lat="45.9825558" lon="9.2234008"><ele>229.0</ele><time>2026-03-29T13:29:15.822Z</time></trkpt><trkpt lat="45.9824893" lon="9.2232919"><ele>226.79999999999998</ele><time>2026-03-29T13:29:16.827Z</time></trkpt><trkpt lat="45.9824175" lon="9.2231769"><ele>224.59999999999997</ele><time>2026-03-29T13:29:17.829Z</time></trkpt><trkpt lat="45.9823434" lon="9.2230588"><ele>222.4</ele><time>2026-03-29T13:29:18.824Z</time></trkpt><trkpt lat="45.9822681" lon="9.2229401"><ele>220.2</ele><time>2026-03-29T13:29:19.825Z</time></trkpt><trkpt lat="45.9821977" lon="9.2228234"><ele>218.0</ele><time>2026-03-29T13:29:20.826Z</time></trkpt><trkpt lat="45.9821222" lon="9.2227073"><ele>218.0</ele><time>2026-03-29T13:29:21.827Z</time></trkpt><trkpt lat="45.9820473" lon="9.2225904"><ele>218.0</ele><time>2026-03-29T13:29:22.828Z</time></trkpt><trkpt lat="45.9819771" lon="9.2224769"><ele>218.0</ele><time>2026-03-29T13:29:23.835Z</time></trkpt><trkpt lat="45.9819096" lon="9.2223704"><ele>218.0</ele><time>2026-03-29T13:29:24.83Z</time></trkpt><trkpt lat="45.9818458" lon="9.2222653"><ele>218.0</ele><time>2026-03-29T13:29:25.827Z</time></trkpt><trkpt lat="45.981781" lon="9.222156"><ele>218.2</ele><time>2026-03-29T13:29:26.83Z</time></trkpt><trkpt lat="45.9817293" lon="9.2220364"><ele>218.4</ele><time>2026-03-29T13:29:27.825Z</time></trkpt><trkpt lat="45.9816929" lon="9.2219036"><ele>218.59999999999997</ele><time>2026-03-29T13:29:28.821Z</time></trkpt><trkpt lat="45.9816707" lon="9.2217585"><ele>218.79999999999998</ele><time>2026-03-29T13:29:29.83Z</time></trkpt><trkpt lat="45.9816573" lon="9.2215973"><ele>219.0</ele><time>2026-03-29T13:29:30.829Z</time></trkpt><trkpt lat="45.9816529" lon="9.2214359"><ele>218.79999999999998</ele><time>2026-03-29T13:29:31.822Z</time></trkpt><trkpt lat="45.9816575" lon="9.2212776"><ele>218.59999999999997</ele><time>2026-03-29T13:29:32.828Z</time></trkpt><trkpt lat="45.9816685" lon="9.2211192"><ele>218.4</ele><time>2026-03-29T13:29:33.829Z</time></trkpt><trkpt lat="45.9816821" lon="9.2209593"><ele>218.2</ele><time>2026-03-29T13:29:34.827Z</time></trkpt><trkpt lat="45.9816983" lon="9.220805"><ele>218.0</ele><time>2026-03-29T13:29:35.826Z</time></trkpt><trkpt lat="45.981716" lon="9.2206477"><ele>217.8</ele><time>2026-03-29T13:29:36.826Z</time></trkpt><trkpt lat="45.9817325" lon="9.2204971"><ele>217.60000000000002</ele><time>2026-03-29T13:29:37.825Z</time></trkpt><trkpt lat="45.9817525" lon="9.2203548"><ele>217.39999999999998</ele><time>2026-03-29T13:29:38.828Z</time></trkpt><trkpt lat="45.981769" lon="9.2202169"><ele>217.2</ele><time>2026-03-29T13:29:39.824Z</time></trkpt><trkpt lat="45.9817812" lon="9.220081"><ele>217.0</ele><time>2026-03-29T13:29:40.83Z</time></trkpt><trkpt lat="45.9817989" lon="9.2199523"><ele>217.0</ele><time>2026-03-29T13:29:41.825Z</time></trkpt><trkpt lat="45.9818276" lon="9.219819"><ele>217.0</ele><time>2026-03-29T13:29:42.832Z</time></trkpt><trkpt lat="45.9818715" lon="9.2196889"><ele>217.0</ele><time>2026-03-29T13:29:43.823Z</time></trkpt><trkpt lat="45.9819262" lon="9.2195494"><ele>217.0</ele><time>2026-03-29T13:29:44.824Z</time></trkpt><trkpt lat="45.9819803" lon="9.2194124"><ele>217.0</ele><time>2026-03-29T13:29:45.824Z</time></trkpt><trkpt lat="45.9820394" lon="9.2192726"><ele>216.0</ele><time>2026-03-29T13:29:46.823Z</time></trkpt><trkpt lat="45.9820963" lon="9.2191251"><ele>215.0</ele><time>2026-03-29T13:29:47.823Z</time></trkpt><trkpt lat="45.9821555" lon="9.2189678"><ele>214.0</ele><time>2026-03-29T13:29:48.826Z</time></trkpt><trkpt lat="45.9822112" lon="9.2188069"><ele>213.0</ele><time>2026-03-29T13:29:49.823Z</time></trkpt><trkpt lat="45.9822581" lon="9.2186407"><ele>212.75</ele><time>2026-03-29T13:29:50.83Z</time></trkpt><trkpt lat="45.9822921" lon="9.2184792"><ele>212.5</ele><time>2026-03-29T13:29:51.824Z</time></trkpt><trkpt lat="45.9823195" lon="9.2183198"><ele>212.25</ele><time>2026-03-29T13:29:52.827Z</time></trkpt><trkpt lat="45.9823425" lon="9.2181566"><ele>212.0</ele><time>2026-03-29T13:29:53.824Z</time></trkpt><trkpt lat="45.9823687" lon="9.2179922"><ele>210.8</ele><time>2026-03-29T13:29:54.827Z</time></trkpt><trkpt lat="45.9823936" lon="9.2178329"><ele>209.6</ele><time>2026-03-29T13:29:55.823Z</time></trkpt><trkpt lat="45.9824151" lon="9.2176746"><ele>208.4</ele><time>2026-03-29T13:29:56.823Z</time></trkpt><trkpt lat="45.982435" lon="9.217526"><ele>207.20000000000002</ele><time>2026-03-29T13:29:57.819Z</time></trkpt><trkpt lat="45.9824539" lon="9.2173888"><ele>206.0</ele><time>2026-03-29T13:29:58.825Z</time></trkpt><trkpt lat="45.982473" lon="9.2172568"><ele>205.20000000000002</ele><time>2026-03-29T13:29:59.83Z</time></trkpt><trkpt lat="45.9824947" lon="9.2171252"><ele>204.4</ele><time>2026-03-29T13:30:00.823Z</time></trkpt><trkpt lat="45.9825128" lon="9.2169862"><ele>203.6</ele><time>2026-03-29T13:30:01.821Z</time></trkpt><trkpt lat="45.9825353" lon="9.2168489"><ele>202.8</ele><time>2026-03-29T13:30:02.823Z</time></trkpt><trkpt lat="45.9825583" lon="9.2167124"><ele>202.0</ele><time>2026-03-29T13:30:03.823Z</time></trkpt><trkpt lat="45.982573" lon="9.2165636"><ele>204.99999999999997</ele><time>2026-03-29T13:30:04.823Z</time></trkpt><trkpt lat="45.9825862" lon="9.2164297"><ele>208.0</ele><time>2026-03-29T13:30:05.825Z</time></trkpt><trkpt lat="45.9825865" lon="9.2162929"><ele>211.0</ele><time>2026-03-29T13:30:06.824Z</time></trkpt><trkpt lat="45.9825815" lon="9.2161648"><ele>214.0</ele><time>2026-03-29T13:30:07.821Z</time></trkpt><trkpt lat="45.9825789" lon="9.2160456"><ele>216.99999999999997</ele><time>2026-03-29T13:30:08.82Z</time></trkpt><trkpt lat="45.982584" lon="9.2159398"><ele>220.0</ele><time>2026-03-29T13:30:09.824Z</time></trkpt><trkpt lat="45.9825823" lon="9.2158254"><ele>219.99999999999997</ele><time>2026-03-29T13:30:10.824Z</time></trkpt><trkpt lat="45.9825655" lon="9.2157076"><ele>220.0</ele><time>2026-03-29T13:30:11.825Z</time></trkpt><trkpt lat="45.9825301" lon="9.2155899"><ele>220.0</ele><time>2026-03-29T13:30:12.828Z</time></trkpt><trkpt lat="45.9824808" lon="9.2154862"><ele>220.0</ele><time>2026-03-29T13:30:13.821Z</time></trkpt><trkpt lat="45.9824224" lon="9.2153908"><ele>219.99999999999997</ele><time>2026-03-29T13:30:14.85Z</time></trkpt><trkpt lat="45.9823745" lon="9.2153058"><ele>220.0</ele><time>2026-03-29T13:30:15.845Z</time></trkpt><trkpt lat="45.9823303" lon="9.2152312"><ele>219.28571428571428</ele><time>2026-03-29T13:30:16.827Z</time></trkpt><trkpt lat="45.982287" lon="9.2151543"><ele>218.57142857142856</ele><time>2026-03-29T13:30:17.826Z</time></trkpt><trkpt lat="45.9822475" lon="9.2150621"><ele>217.85714285714283</ele><time>2026-03-29T13:30:18.828Z</time></trkpt><trkpt lat="45.9822095" lon="9.2149551"><ele>217.14285714285714</ele><time>2026-03-29T13:30:19.827Z</time></trkpt><trkpt lat="45.9821726" lon="9.2148512"><ele>216.42857142857144</ele><time>2026-03-29T13:30:20.837Z</time></trkpt><trkpt lat="45.9821371" lon="9.2147592"><ele>215.7142857142857</ele><time>2026-03-29T13:30:21.829Z</time></trkpt><trkpt lat="45.9821063" lon="9.2146764"><ele>215.0</ele><time>2026-03-29T13:30:22.835Z</time></trkpt><trkpt lat="45.9820233" lon="9.2145469"><ele>215.0</ele><time>2026-03-29T13:30:24.834Z</time></trkpt><trkpt lat="45.9819323" lon="9.2144648"><ele>215.0</ele><time>2026-03-29T13:30:26.834Z</time></trkpt><trkpt lat="45.981825" lon="9.2143608"><ele>215.0</ele><time>2026-03-29T13:30:28.833Z</time></trkpt><trkpt lat="45.9817756" lon="9.2142976"><ele>215.0</ele><time>2026-03-29T13:30:29.832Z</time></trkpt><trkpt lat="45.98173" lon="9.214227"><ele>215.0</ele><time>2026-03-29T13:30:37.828Z</time></trkpt><trkpt lat="45.9816712" lon="9.2141467"><ele>214.0</ele><time>2026-03-29T13:30:40.822Z</time></trkpt><trkpt lat="45.9815995" lon="9.2140199"><ele>213.0</ele><time>2026-03-29T13:30:42.823Z</time></trkpt><trkpt lat="45.9815602" lon="9.2139285"><ele>212.0</ele><time>2026-03-29T13:30:43.816Z</time></trkpt><trkpt lat="45.9815212" lon="9.2138536"><ele>211.0</ele><time>2026-03-29T13:30:44.817Z</time></trkpt><trkpt lat="45.9814592" lon="9.2137072"><ele>210.0</ele><time>2026-03-29T13:30:46.821Z</time></trkpt><trkpt lat="45.9813797" lon="9.2135673"><ele>210.0</ele><time>2026-03-29T13:30:48.819Z</time></trkpt><trkpt lat="45.9813351" lon="9.213475"><ele>210.0</ele><time>2026-03-29T13:30:49.817Z</time></trkpt><trkpt lat="45.981297" lon="9.2133717"><ele>210.0</ele><time>2026-03-29T13:30:50.824Z</time></trkpt><trkpt lat="45.9812663" lon="9.2132611"><ele>210.0</ele><time>2026-03-29T13:30:51.814Z</time></trkpt><trkpt lat="45.9812415" lon="9.2131436"><ele>210.0</ele><time>2026-03-29T13:30:52.82Z</time></trkpt><trkpt lat="45.981221" lon="9.2130181"><ele>210.0</ele><time>2026-03-29T13:30:53.818Z</time></trkpt><trkpt lat="45.9811963" lon="9.2128897"><ele>210.57142857142858</ele><time>2026-03-29T13:30:54.818Z</time></trkpt><trkpt lat="45.9811706" lon="9.2127613"><ele>211.14285714285714</ele><time>2026-03-29T13:30:55.813Z</time></trkpt><trkpt lat="45.9811566" lon="9.2126596"><ele>211.71428571428572</ele><time>2026-03-29T13:30:56.827Z</time></trkpt><trkpt lat="45.9811408" lon="9.2125664"><ele>212.28571428571428</ele><time>2026-03-29T13:30:57.817Z</time></trkpt><trkpt lat="45.9811247" lon="9.2124704"><ele>212.85714285714286</ele><time>2026-03-29T13:30:58.828Z</time></trkpt><trkpt lat="45.9811052" lon="9.212376"><ele>213.42857142857144</ele><time>2026-03-29T13:30:59.82Z</time></trkpt><trkpt lat="45.9810874" lon="9.2122784"><ele>214.0</ele><time>2026-03-29T13:31:00.821Z</time></trkpt><trkpt lat="45.9810759" lon="9.2121603"><ele>215.0</ele><time>2026-03-29T13:31:01.818Z</time></trkpt><trkpt lat="45.9810732" lon="9.2120199"><ele>216.0</ele><time>2026-03-29T13:31:02.828Z</time></trkpt><trkpt lat="45.9810873" lon="9.2118529"><ele>217.0</ele><time>2026-03-29T13:31:03.825Z</time></trkpt><trkpt lat="45.981108" lon="9.2116702"><ele>218.0</ele><time>2026-03-29T13:31:04.826Z</time></trkpt><trkpt lat="45.9811292" lon="9.2114914"><ele>217.5</ele><time>2026-03-29T13:31:05.83Z</time></trkpt><trkpt lat="45.9811451" lon="9.2113242"><ele>217.0</ele><time>2026-03-29T13:31:06.832Z</time></trkpt><trkpt lat="45.981164" lon="9.211162"><ele>216.5</ele><time>2026-03-29T13:31:07.823Z</time></trkpt><trkpt lat="45.9811818" lon="9.2109963"><ele>216.0</ele><time>2026-03-29T13:31:08.834Z</time></trkpt><trkpt lat="45.9811979" lon="9.2108223"><ele>215.8</ele><time>2026-03-29T13:31:09.828Z</time></trkpt><trkpt lat="45.9812065" lon="9.2106523"><ele>215.60000000000002</ele><time>2026-03-29T13:31:10.834Z</time></trkpt><trkpt lat="45.9812025" lon="9.2104914"><ele>215.4</ele><time>2026-03-29T13:31:11.828Z</time></trkpt><trkpt lat="45.9811905" lon="9.2103333"><ele>215.2</ele><time>2026-03-29T13:31:12.833Z</time></trkpt><trkpt lat="45.9811755" lon="9.2101861"><ele>215.0</ele><time>2026-03-29T13:31:13.829Z</time></trkpt><trkpt lat="45.9811643" lon="9.2100466"><ele>215.0</ele><time>2026-03-29T13:31:14.83Z</time></trkpt><trkpt lat="45.9811551" lon="9.2099079"><ele>215.0</ele><time>2026-03-29T13:31:15.822Z</time></trkpt><trkpt lat="45.9811391" lon="9.2097678"><ele>215.0</ele><time>2026-03-29T13:31:16.833Z</time></trkpt><trkpt lat="45.9811273" lon="9.2096234"><ele>215.0</ele><time>2026-03-29T13:31:17.826Z</time></trkpt><trkpt lat="45.9811311" lon="9.2094811"><ele>215.0</ele><time>2026-03-29T13:31:18.826Z</time></trkpt><trkpt lat="45.9811473" lon="9.2093526"><ele>215.0</ele><time>2026-03-29T13:31:19.825Z</time></trkpt><trkpt lat="45.9811725" lon="9.2092308"><ele>215.0</ele><time>2026-03-29T13:31:20.83Z</time></trkpt><trkpt lat="45.9812048" lon="9.2091083"><ele>215.0</ele><time>2026-03-29T13:31:21.824Z</time></trkpt><trkpt lat="45.9812419" lon="9.2089796"><ele>215.0</ele><time>2026-03-29T13:31:22.827Z</time></trkpt><trkpt lat="45.9812892" lon="9.2088466"><ele>215.0</ele><time>2026-03-29T13:31:23.826Z</time></trkpt><trkpt lat="45.9813365" lon="9.2087085"><ele>215.00000000000003</ele><time>2026-03-29T13:31:24.831Z</time></trkpt><trkpt lat="45.981372" lon="9.2085778"><ele>215.0</ele><time>2026-03-29T13:31:25.825Z</time></trkpt><trkpt lat="45.9814005" lon="9.208464"><ele>215.0</ele><time>2026-03-29T13:31:26.823Z</time></trkpt><trkpt lat="45.9814114" lon="9.208362"><ele>215.0</ele><time>2026-03-29T13:31:27.827Z</time></trkpt><trkpt lat="45.981416" lon="9.2082536"><ele>215.00000000000003</ele><time>2026-03-29T13:31:28.827Z</time></trkpt><trkpt lat="45.9814217" lon="9.2081266"><ele>215.0</ele><time>2026-03-29T13:31:29.829Z</time></trkpt><trkpt lat="45.981422" lon="9.20799"><ele>215.33333333333334</ele><time>2026-03-29T13:31:30.828Z</time></trkpt><trkpt lat="45.9814167" lon="9.2078689"><ele>215.66666666666669</ele><time>2026-03-29T13:31:31.826Z</time></trkpt><trkpt lat="45.9814092" lon="9.2077576"><ele>216.0</ele><time>2026-03-29T13:31:32.821Z</time></trkpt><trkpt lat="45.9813874" lon="9.2076428"><ele>216.33333333333331</ele><time>2026-03-29T13:31:33.819Z</time></trkpt><trkpt lat="45.9813579" lon="9.2075126"><ele>216.66666666666666</ele><time>2026-03-29T13:31:34.823Z</time></trkpt><trkpt lat="45.9813285" lon="9.2073743"><ele>217.0</ele><time>2026-03-29T13:31:35.823Z</time></trkpt><trkpt lat="45.9812906" lon="9.2072335"><ele>217.6</ele><time>2026-03-29T13:31:36.824Z</time></trkpt><trkpt lat="45.9812451" lon="9.2070863"><ele>218.2</ele><time>2026-03-29T13:31:37.821Z</time></trkpt><trkpt lat="45.9812022" lon="9.2069534"><ele>218.8</ele><time>2026-03-29T13:31:38.829Z</time></trkpt><trkpt lat="45.9811491" lon="9.2068387"><ele>219.4</ele><time>2026-03-29T13:31:39.823Z</time></trkpt><trkpt lat="45.9810932" lon="9.2067407"><ele>220.0</ele><time>2026-03-29T13:31:40.825Z</time></trkpt><trkpt lat="45.9810456" lon="9.2066458"><ele>219.99999999999997</ele><time>2026-03-29T13:31:41.818Z</time></trkpt><trkpt lat="45.9809933" lon="9.2065482"><ele>220.0</ele><time>2026-03-29T13:31:42.818Z</time></trkpt><trkpt lat="45.9809421" lon="9.2064608"><ele>220.0</ele><time>2026-03-29T13:31:43.818Z</time></trkpt><trkpt lat="45.9808872" lon="9.2063807"><ele>220.0</ele><time>2026-03-29T13:31:44.821Z</time></trkpt><trkpt lat="45.9808276" lon="9.206269"><ele>219.99999999999997</ele><time>2026-03-29T13:31:45.823Z</time></trkpt><trkpt lat="45.9807782" lon="9.2061421"><ele>220.0</ele><time>2026-03-29T13:31:46.822Z</time></trkpt><trkpt lat="45.9807332" lon="9.2060169"><ele>219.4</ele><time>2026-03-29T13:31:47.831Z</time></trkpt><trkpt lat="45.9806817" lon="9.2058994"><ele>218.8</ele><time>2026-03-29T13:31:48.852Z</time></trkpt><trkpt lat="45.980629" lon="9.2057723"><ele>218.2</ele><time>2026-03-29T13:31:49.851Z</time></trkpt><trkpt lat="45.9805775" lon="9.2056374"><ele>217.6</ele><time>2026-03-29T13:31:50.831Z</time></trkpt><trkpt lat="45.9805255" lon="9.2055127"><ele>217.0</ele><time>2026-03-29T13:31:51.821Z</time></trkpt><trkpt lat="45.9804737" lon="9.2053923"><ele>218.2</ele><time>2026-03-29T13:31:52.831Z</time></trkpt><trkpt lat="45.9804218" lon="9.2052689"><ele>219.39999999999998</ele><time>2026-03-29T13:31:53.826Z</time></trkpt><trkpt lat="45.980369" lon="9.2051356"><ele>220.60000000000002</ele><time>2026-03-29T13:31:54.825Z</time></trkpt><trkpt lat="45.9803119" lon="9.2050002"><ele>221.8</ele><time>2026-03-29T13:31:55.823Z</time></trkpt><trkpt lat="45.9802499" lon="9.2048625"><ele>223.0</ele><time>2026-03-29T13:31:56.823Z</time></trkpt><trkpt lat="45.9801764" lon="9.2047366"><ele>222.4</ele><time>2026-03-29T13:31:57.827Z</time></trkpt><trkpt lat="45.9800937" lon="9.2046213"><ele>221.8</ele><time>2026-03-29T13:31:58.828Z</time></trkpt><trkpt lat="45.9800109" lon="9.2045095"><ele>221.2</ele><time>2026-03-29T13:31:59.831Z</time></trkpt><trkpt lat="45.9799321" lon="9.2044041"><ele>220.6</ele><time>2026-03-29T13:32:00.83Z</time></trkpt><trkpt lat="45.9798562" lon="9.2043031"><ele>220.0</ele><time>2026-03-29T13:32:01.828Z</time></trkpt><trkpt lat="45.9797877" lon="9.2042081"><ele>220.0</ele><time>2026-03-29T13:32:02.825Z</time></trkpt><trkpt lat="45.9797233" lon="9.204123"><ele>220.0</ele><time>2026-03-29T13:32:03.828Z</time></trkpt><trkpt lat="45.9796611" lon="9.2040259"><ele>220.0</ele><time>2026-03-29T13:32:04.832Z</time></trkpt><trkpt lat="45.9795957" lon="9.2039291"><ele>220.0</ele><time>2026-03-29T13:32:05.832Z</time></trkpt><trkpt lat="45.9795248" lon="9.2038415"><ele>220.0</ele><time>2026-03-29T13:32:06.833Z</time></trkpt><trkpt lat="45.9794526" lon="9.2037704"><ele>220.49999999999997</ele><time>2026-03-29T13:32:07.823Z</time></trkpt><trkpt lat="45.9793809" lon="9.2037142"><ele>221.0</ele><time>2026-03-29T13:32:08.83Z</time></trkpt><trkpt lat="45.9793042" lon="9.2036538"><ele>221.5</ele><time>2026-03-29T13:32:09.853Z</time></trkpt><trkpt lat="45.9792255" lon="9.2035994"><ele>222.0</ele><time>2026-03-29T13:32:10.83Z</time></trkpt><trkpt lat="45.9791425" lon="9.2035468"><ele>222.49999999999997</ele><time>2026-03-29T13:32:11.83Z</time></trkpt><trkpt lat="45.9790568" lon="9.2034926"><ele>223.0</ele><time>2026-03-29T13:32:12.835Z</time></trkpt><trkpt lat="45.978971" lon="9.2034353"><ele>223.4</ele><time>2026-03-29T13:32:13.832Z</time></trkpt><trkpt lat="45.9788861" lon="9.2033734"><ele>223.8</ele><time>2026-03-29T13:32:14.836Z</time></trkpt><trkpt lat="45.9787999" lon="9.2033158"><ele>224.2</ele><time>2026-03-29T13:32:15.833Z</time></trkpt><trkpt lat="45.9787167" lon="9.203249"><ele>224.6</ele><time>2026-03-29T13:32:16.839Z</time></trkpt><trkpt lat="45.9786369" lon="9.2031716"><ele>225.0</ele><time>2026-03-29T13:32:17.832Z</time></trkpt><trkpt lat="45.9785663" lon="9.2030794"><ele>225.0</ele><time>2026-03-29T13:32:18.828Z</time></trkpt><trkpt lat="45.9785004" lon="9.2029839"><ele>225.0</ele><time>2026-03-29T13:32:19.832Z</time></trkpt><trkpt lat="45.9784367" lon="9.2028887"><ele>225.0</ele><time>2026-03-29T13:32:20.837Z</time></trkpt><trkpt lat="45.9783702" lon="9.2027928"><ele>225.0</ele><time>2026-03-29T13:32:21.833Z</time></trkpt><trkpt lat="45.9783056" lon="9.2026911"><ele>225.0</ele><time>2026-03-29T13:32:22.838Z</time></trkpt><trkpt lat="45.9782366" lon="9.2025898"><ele>225.0</ele><time>2026-03-29T13:32:23.835Z</time></trkpt><trkpt lat="45.9781762" lon="9.202496"><ele>225.0</ele><time>2026-03-29T13:32:24.831Z</time></trkpt><trkpt lat="45.9781133" lon="9.2024042"><ele>225.0</ele><time>2026-03-29T13:32:25.83Z</time></trkpt><trkpt lat="45.9780522" lon="9.2023027"><ele>225.0</ele><time>2026-03-29T13:32:26.827Z</time></trkpt><trkpt lat="45.9779903" lon="9.2022039"><ele>225.0</ele><time>2026-03-29T13:32:27.834Z</time></trkpt><trkpt lat="45.9779251" lon="9.2021115"><ele>225.0</ele><time>2026-03-29T13:32:28.826Z</time></trkpt><trkpt lat="45.9778593" lon="9.2020255"><ele>225.0</ele><time>2026-03-29T13:32:29.839Z</time></trkpt><trkpt lat="45.9777965" lon="9.2019419"><ele>225.0</ele><time>2026-03-29T13:32:30.829Z</time></trkpt><trkpt lat="45.9777368" lon="9.2018684"><ele>225.0</ele><time>2026-03-29T13:32:31.822Z</time></trkpt><trkpt lat="45.9776855" lon="9.2018012"><ele>225.0</ele><time>2026-03-29T13:32:32.827Z</time></trkpt><trkpt lat="45.9776338" lon="9.2017316"><ele>225.0</ele><time>2026-03-29T13:32:33.821Z</time></trkpt><trkpt lat="45.9775736" lon="9.2016561"><ele>225.33333333333334</ele><time>2026-03-29T13:32:34.827Z</time></trkpt><trkpt lat="45.9775106" lon="9.2015811"><ele>225.66666666666669</ele><time>2026-03-29T13:32:35.814Z</time></trkpt><trkpt lat="45.9774439" lon="9.2015225"><ele>226.0</ele><time>2026-03-29T13:32:36.828Z</time></trkpt><trkpt lat="45.9773825" lon="9.2014462"><ele>226.33333333333334</ele><time>2026-03-29T13:32:37.818Z</time></trkpt><trkpt lat="45.9773108" lon="9.2013693"><ele>226.66666666666669</ele><time>2026-03-29T13:32:38.822Z</time></trkpt><trkpt lat="45.9772354" lon="9.201287"><ele>227.0</ele><time>2026-03-29T13:32:39.82Z</time></trkpt><trkpt lat="45.9771616" lon="9.2011986"><ele>227.0</ele><time>2026-03-29T13:32:40.825Z</time></trkpt><trkpt lat="45.9770921" lon="9.2011003"><ele>227.0</ele><time>2026-03-29T13:32:41.82Z</time></trkpt><trkpt lat="45.9770381" lon="9.2009861"><ele>227.0</ele><time>2026-03-29T13:32:42.825Z</time></trkpt><trkpt lat="45.9769889" lon="9.2008687"><ele>227.0</ele><time>2026-03-29T13:32:43.826Z</time></trkpt><trkpt lat="45.9769388" lon="9.2007447"><ele>227.0</ele><time>2026-03-29T13:32:44.82Z</time></trkpt><trkpt lat="45.9768861" lon="9.2006085"><ele>228.2</ele><time>2026-03-29T13:32:45.826Z</time></trkpt><trkpt lat="45.9768294" lon="9.2004701"><ele>229.39999999999998</ele><time>2026-03-29T13:32:46.827Z</time></trkpt><trkpt lat="45.9767765" lon="9.2003269"><ele>230.60000000000002</ele><time>2026-03-29T13:32:47.824Z</time></trkpt><trkpt lat="45.9767256" lon="9.2001846"><ele>231.8</ele><time>2026-03-29T13:32:48.828Z</time></trkpt><trkpt lat="45.97667" lon="9.200044"><ele>233.0</ele><time>2026-03-29T13:32:49.822Z</time></trkpt><trkpt lat="45.9766029" lon="9.1999148"><ele>231.0</ele><time>2026-03-29T13:32:50.826Z</time></trkpt><trkpt lat="45.9765281" lon="9.1997925"><ele>229.0</ele><time>2026-03-29T13:32:51.818Z</time></trkpt><trkpt lat="45.9764496" lon="9.1996737"><ele>227.0</ele><time>2026-03-29T13:32:52.824Z</time></trkpt><trkpt lat="45.9763785" lon="9.1995716"><ele>225.0</ele><time>2026-03-29T13:32:53.831Z</time></trkpt><trkpt lat="45.976312" lon="9.1994793"><ele>223.0</ele><time>2026-03-29T13:32:54.824Z</time></trkpt><trkpt lat="45.9762511" lon="9.1994007"><ele>222.99999999999997</ele><time>2026-03-29T13:32:55.827Z</time></trkpt><trkpt lat="45.9761988" lon="9.1993251"><ele>223.0</ele><time>2026-03-29T13:32:56.824Z</time></trkpt><trkpt lat="45.9761482" lon="9.1992522"><ele>223.0</ele><time>2026-03-29T13:32:57.826Z</time></trkpt><trkpt lat="45.976095" lon="9.1991765"><ele>223.0</ele><time>2026-03-29T13:32:58.83Z</time></trkpt><trkpt lat="45.9760415" lon="9.1990926"><ele>222.99999999999997</ele><time>2026-03-29T13:32:59.838Z</time></trkpt><trkpt lat="45.9759869" lon="9.1990058"><ele>223.0</ele><time>2026-03-29T13:33:00.832Z</time></trkpt><trkpt lat="45.9759325" lon="9.1989074"><ele>222.33333333333331</ele><time>2026-03-29T13:33:01.823Z</time></trkpt><trkpt lat="45.9758764" lon="9.1988124"><ele>221.66666666666666</ele><time>2026-03-29T13:33:02.827Z</time></trkpt><trkpt lat="45.9758211" lon="9.1987265"><ele>221.0</ele><time>2026-03-29T13:33:03.82Z</time></trkpt><trkpt lat="45.9757655" lon="9.198639"><ele>220.33333333333331</ele><time>2026-03-29T13:33:04.822Z</time></trkpt><trkpt lat="45.9757054" lon="9.1985462"><ele>219.66666666666666</ele><time>2026-03-29T13:33:05.82Z</time></trkpt><trkpt lat="45.9756353" lon="9.1984543"><ele>219.0</ele><time>2026-03-29T13:33:06.83Z</time></trkpt><trkpt lat="45.9755564" lon="9.1983542"><ele>219.0</ele><time>2026-03-29T13:33:07.824Z</time></trkpt><trkpt lat="45.9754759" lon="9.198238"><ele>219.0</ele><time>2026-03-29T13:33:08.826Z</time></trkpt><trkpt lat="45.9753909" lon="9.1981107"><ele>219.0</ele><time>2026-03-29T13:33:09.829Z</time></trkpt><trkpt lat="45.9753146" lon="9.1979777"><ele>219.0</ele><time>2026-03-29T13:33:10.829Z</time></trkpt><trkpt lat="45.9752459" lon="9.1978503"><ele>218.79999999999998</ele><time>2026-03-29T13:33:11.829Z</time></trkpt><trkpt lat="45.9751779" lon="9.1977319"><ele>218.59999999999997</ele><time>2026-03-29T13:33:12.833Z</time></trkpt><trkpt lat="45.9751068" lon="9.1976247"><ele>218.4</ele><time>2026-03-29T13:33:13.826Z</time></trkpt><trkpt lat="45.9750277" lon="9.1975295"><ele>218.2</ele><time>2026-03-29T13:33:14.83Z</time></trkpt><trkpt lat="45.9749478" lon="9.1974346"><ele>218.0</ele><time>2026-03-29T13:33:15.827Z</time></trkpt><trkpt lat="45.9748687" lon="9.1973381"><ele>219.2</ele><time>2026-03-29T13:33:16.834Z</time></trkpt><trkpt lat="45.9747945" lon="9.1972415"><ele>220.4</ele><time>2026-03-29T13:33:17.82Z</time></trkpt><trkpt lat="45.9747248" lon="9.1971523"><ele>221.59999999999997</ele><time>2026-03-29T13:33:18.832Z</time></trkpt><trkpt lat="45.9746543" lon="9.1970637"><ele>222.79999999999998</ele><time>2026-03-29T13:33:19.826Z</time></trkpt><trkpt lat="45.9745812" lon="9.1969743"><ele>224.0</ele><time>2026-03-29T13:33:20.826Z</time></trkpt><trkpt lat="45.9745117" lon="9.1968953"><ele>224.0</ele><time>2026-03-29T13:33:21.822Z</time></trkpt><trkpt lat="45.9744369" lon="9.1968205"><ele>223.99999999999997</ele><time>2026-03-29T13:33:22.822Z</time></trkpt><trkpt lat="45.9743694" lon="9.1967338"><ele>223.99999999999997</ele><time>2026-03-29T13:33:23.817Z</time></trkpt><trkpt lat="45.9743004" lon="9.196654"><ele>224.0</ele><time>2026-03-29T13:33:24.824Z</time></trkpt><trkpt lat="45.9742283" lon="9.19657"><ele>224.0</ele><time>2026-03-29T13:33:25.823Z</time></trkpt><trkpt lat="45.9741566" lon="9.1964807"><ele>222.66666666666669</ele><time>2026-03-29T13:33:26.817Z</time></trkpt><trkpt lat="45.9740861" lon="9.1963909"><ele>221.33333333333334</ele><time>2026-03-29T13:33:27.825Z</time></trkpt><trkpt lat="45.9740218" lon="9.1963047"><ele>220.0</ele><time>2026-03-29T13:33:28.826Z</time></trkpt><trkpt lat="45.9739582" lon="9.196223"><ele>218.66666666666669</ele><time>2026-03-29T13:33:29.828Z</time></trkpt><trkpt lat="45.9738917" lon="9.1961432"><ele>217.33333333333334</ele><time>2026-03-29T13:33:30.827Z</time></trkpt><trkpt lat="45.9738225" lon="9.1960618"><ele>216.0</ele><time>2026-03-29T13:33:31.821Z</time></trkpt><trkpt lat="45.973755" lon="9.1959783"><ele>216.0</ele><time>2026-03-29T13:33:32.823Z</time></trkpt><trkpt lat="45.9736852" lon="9.1958944"><ele>216.00000000000003</ele><time>2026-03-29T13:33:33.825Z</time></trkpt><trkpt lat="45.9736128" lon="9.1958166"><ele>216.00000000000003</ele><time>2026-03-29T13:33:34.831Z</time></trkpt><trkpt lat="45.9735386" lon="9.1957418"><ele>216.0</ele><time>2026-03-29T13:33:35.821Z</time></trkpt><trkpt lat="45.9734685" lon="9.1956601"><ele>216.0</ele><time>2026-03-29T13:33:36.84Z</time></trkpt><trkpt lat="45.9734004" lon="9.1955737"><ele>215.4</ele><time>2026-03-29T13:33:37.83Z</time></trkpt><trkpt lat="45.9733256" lon="9.1954839"><ele>214.8</ele><time>2026-03-29T13:33:38.833Z</time></trkpt><trkpt lat="45.9732442" lon="9.1953861"><ele>214.20000000000002</ele><time>2026-03-29T13:33:39.827Z</time></trkpt><trkpt lat="45.9731617" lon="9.1952851"><ele>213.60000000000002</ele><time>2026-03-29T13:33:40.828Z</time></trkpt><trkpt lat="45.9730837" lon="9.195197"><ele>213.0</ele><time>2026-03-29T13:33:41.83Z</time></trkpt><trkpt lat="45.9730053" lon="9.1951198"><ele>213.0</ele><time>2026-03-29T13:33:42.822Z</time></trkpt><trkpt lat="45.9729281" lon="9.1950383"><ele>213.0</ele><time>2026-03-29T13:33:43.829Z</time></trkpt><trkpt lat="45.9728449" lon="9.1949579"><ele>213.0</ele><time>2026-03-29T13:33:44.827Z</time></trkpt><trkpt lat="45.9727539" lon="9.1948864"><ele>213.0</ele><time>2026-03-29T13:33:45.822Z</time></trkpt><trkpt lat="45.9726597" lon="9.1948207"><ele>213.0</ele><time>2026-03-29T13:33:46.827Z</time></trkpt><trkpt lat="45.9725691" lon="9.1947586"><ele>214.2</ele><time>2026-03-29T13:33:47.829Z</time></trkpt><trkpt lat="45.9724833" lon="9.1946942"><ele>215.4</ele><time>2026-03-29T13:33:48.826Z</time></trkpt><trkpt lat="45.972393" lon="9.1946326"><ele>216.59999999999997</ele><time>2026-03-29T13:33:49.826Z</time></trkpt><trkpt lat="45.9723022" lon="9.1945666"><ele>217.79999999999998</ele><time>2026-03-29T13:33:50.827Z</time></trkpt><trkpt lat="45.9722069" lon="9.1944886"><ele>219.0</ele><time>2026-03-29T13:33:51.822Z</time></trkpt><trkpt lat="45.9720992" lon="9.194407"><ele>219.0</ele><time>2026-03-29T13:33:52.824Z</time></trkpt><trkpt lat="45.9719785" lon="9.19432"><ele>219.0</ele><time>2026-03-29T13:33:53.83Z</time></trkpt><trkpt lat="45.9718634" lon="9.1942238"><ele>219.0</ele><time>2026-03-29T13:33:54.849Z</time></trkpt><trkpt lat="45.9717696" lon="9.1941318"><ele>219.0</ele><time>2026-03-29T13:33:55.819Z</time></trkpt><trkpt lat="45.9716822" lon="9.1940673"><ele>219.2</ele><time>2026-03-29T13:33:56.829Z</time></trkpt><trkpt lat="45.9715887" lon="9.1940002"><ele>219.39999999999998</ele><time>2026-03-29T13:33:57.829Z</time></trkpt><trkpt lat="45.971502" lon="9.1939392"><ele>219.6</ele><time>2026-03-29T13:33:58.833Z</time></trkpt><trkpt lat="45.9714135" lon="9.1938772"><ele>219.8</ele><time>2026-03-29T13:33:59.824Z</time></trkpt><trkpt lat="45.9712826" lon="9.1938014"><ele>220.0</ele><time>2026-03-29T13:34:00.822Z</time></trkpt><trkpt lat="45.9711434" lon="9.1937188"><ele>220.0</ele><time>2026-03-29T13:34:01.824Z</time></trkpt><trkpt lat="45.9709989" lon="9.1936171"><ele>220.0</ele><time>2026-03-29T13:34:02.824Z</time></trkpt><trkpt lat="45.9708663" lon="9.1934868"><ele>220.0</ele><time>2026-03-29T13:34:03.821Z</time></trkpt><trkpt lat="45.9707324" lon="9.1933887"><ele>220.2</ele><time>2026-03-29T13:34:04.822Z</time></trkpt><trkpt lat="45.9706148" lon="9.1933165"><ele>220.4</ele><time>2026-03-29T13:34:05.822Z</time></trkpt><trkpt lat="45.9705249" lon="9.1932151"><ele>220.60000000000002</ele><time>2026-03-29T13:34:06.818Z</time></trkpt><trkpt lat="45.970443" lon="9.193131"><ele>220.8</ele><time>2026-03-29T13:34:07.821Z</time></trkpt><trkpt lat="45.9703589" lon="9.1930655"><ele>221.0</ele><time>2026-03-29T13:34:08.824Z</time></trkpt><trkpt lat="45.9702658" lon="9.1930108"><ele>221.0</ele><time>2026-03-29T13:34:09.821Z</time></trkpt><trkpt lat="45.9701816" lon="9.1929384"><ele>221.00000000000003</ele><time>2026-03-29T13:34:10.821Z</time></trkpt><trkpt lat="45.9700887" lon="9.1928653"><ele>221.00000000000003</ele><time>2026-03-29T13:34:11.819Z</time></trkpt><trkpt lat="45.96999" lon="9.1927924"><ele>221.0</ele><time>2026-03-29T13:34:12.823Z</time></trkpt><trkpt lat="45.9698904" lon="9.1927097"><ele>221.0</ele><time>2026-03-29T13:34:13.819Z</time></trkpt><trkpt lat="45.9698023" lon="9.1926035"><ele>220.8</ele><time>2026-03-29T13:34:14.821Z</time></trkpt><trkpt lat="45.969731" lon="9.1924855"><ele>220.60000000000002</ele><time>2026-03-29T13:34:15.821Z</time></trkpt><trkpt lat="45.96967" lon="9.1923503"><ele>220.4</ele><time>2026-03-29T13:34:16.816Z</time></trkpt><trkpt lat="45.9696229" lon="9.1921965"><ele>220.2</ele><time>2026-03-29T13:34:17.82Z</time></trkpt><trkpt lat="45.9695902" lon="9.1920518"><ele>220.0</ele><time>2026-03-29T13:34:18.821Z</time></trkpt><trkpt lat="45.9695627" lon="9.1919327"><ele>220.33333333333331</ele><time>2026-03-29T13:34:19.812Z</time></trkpt><trkpt lat="45.9695372" lon="9.1918314"><ele>220.66666666666666</ele><time>2026-03-29T13:34:20.823Z</time></trkpt><trkpt lat="45.9695075" lon="9.1917209"><ele>221.0</ele><time>2026-03-29T13:34:21.822Z</time></trkpt><trkpt lat="45.9694754" lon="9.1916111"><ele>221.33333333333331</ele><time>2026-03-29T13:34:22.823Z</time></trkpt><trkpt lat="45.9694429" lon="9.1914984"><ele>221.66666666666666</ele><time>2026-03-29T13:34:23.821Z</time></trkpt><trkpt lat="45.9694139" lon="9.1913797"><ele>222.0</ele><time>2026-03-29T13:34:24.824Z</time></trkpt><trkpt lat="45.9693832" lon="9.1912601"><ele>222.33333333333334</ele><time>2026-03-29T13:34:25.817Z</time></trkpt><trkpt lat="45.9693523" lon="9.1911372"><ele>222.66666666666669</ele><time>2026-03-29T13:34:26.819Z</time></trkpt><trkpt lat="45.969318" lon="9.1910214"><ele>223.0</ele><time>2026-03-29T13:34:27.817Z</time></trkpt><trkpt lat="45.9692887" lon="9.1909064"><ele>223.33333333333334</ele><time>2026-03-29T13:34:28.817Z</time></trkpt><trkpt lat="45.9692602" lon="9.1907859"><ele>223.66666666666669</ele><time>2026-03-29T13:34:29.819Z</time></trkpt><trkpt lat="45.9692294" lon="9.1906601"><ele>224.0</ele><time>2026-03-29T13:34:30.818Z</time></trkpt><trkpt lat="45.9691937" lon="9.1905319"><ele>223.79999999999998</ele><time>2026-03-29T13:34:31.822Z</time></trkpt><trkpt lat="45.9691604" lon="9.1903992"><ele>223.59999999999997</ele><time>2026-03-29T13:34:32.816Z</time></trkpt><trkpt lat="45.9691273" lon="9.190267"><ele>223.4</ele><time>2026-03-29T13:34:33.822Z</time></trkpt><trkpt lat="45.9690889" lon="9.19013"><ele>223.2</ele><time>2026-03-29T13:34:34.817Z</time></trkpt><trkpt lat="45.9690472" lon="9.1899848"><ele>223.0</ele><time>2026-03-29T13:34:35.81Z</time></trkpt><trkpt lat="45.9690116" lon="9.1898455"><ele>223.4</ele><time>2026-03-29T13:34:36.806Z</time></trkpt><trkpt lat="45.9689774" lon="9.1897023"><ele>223.8</ele><time>2026-03-29T13:34:37.812Z</time></trkpt><trkpt lat="45.9689376" lon="9.1895562"><ele>224.2</ele><time>2026-03-29T13:34:38.811Z</time></trkpt><trkpt lat="45.9688978" lon="9.1894053"><ele>224.6</ele><time>2026-03-29T13:34:39.814Z</time></trkpt><trkpt lat="45.9688574" lon="9.1892499"><ele>225.0</ele><time>2026-03-29T13:34:40.816Z</time></trkpt><trkpt lat="45.9688131" lon="9.1890961"><ele>225.25</ele><time>2026-03-29T13:34:41.815Z</time></trkpt><trkpt lat="45.9687634" lon="9.1889366"><ele>225.5</ele><time>2026-03-29T13:34:42.82Z</time></trkpt><trkpt lat="45.9687241" lon="9.1887737"><ele>225.75</ele><time>2026-03-29T13:34:43.816Z</time></trkpt><trkpt lat="45.9686882" lon="9.1886186"><ele>226.0</ele><time>2026-03-29T13:34:44.822Z</time></trkpt><trkpt lat="45.9686528" lon="9.1884766"><ele>226.0</ele><time>2026-03-29T13:34:45.815Z</time></trkpt><trkpt lat="45.9686165" lon="9.1883378"><ele>226.00000000000003</ele><time>2026-03-29T13:34:46.823Z</time></trkpt><trkpt lat="45.9685778" lon="9.188191"><ele>226.00000000000003</ele><time>2026-03-29T13:34:47.813Z</time></trkpt><trkpt lat="45.9685355" lon="9.1880377"><ele>226.0</ele><time>2026-03-29T13:34:48.819Z</time></trkpt><trkpt lat="45.9684977" lon="9.1879013"><ele>226.0</ele><time>2026-03-29T13:34:49.822Z</time></trkpt><trkpt lat="45.9684587" lon="9.1877692"><ele>225.5</ele><time>2026-03-29T13:34:50.807Z</time></trkpt><trkpt lat="45.9684191" lon="9.1876324"><ele>225.0</ele><time>2026-03-29T13:34:51.815Z</time></trkpt><trkpt lat="45.9683793" lon="9.1874833"><ele>224.5</ele><time>2026-03-29T13:34:52.817Z</time></trkpt><trkpt lat="45.9683392" lon="9.1873186"><ele>224.0</ele><time>2026-03-29T13:34:53.814Z</time></trkpt><trkpt lat="45.9683023" lon="9.1871592"><ele>221.39999999999998</ele><time>2026-03-29T13:34:54.816Z</time></trkpt><trkpt lat="45.9682688" lon="9.1870111"><ele>218.79999999999998</ele><time>2026-03-29T13:34:55.812Z</time></trkpt><trkpt lat="45.9682343" lon="9.1868686"><ele>216.2</ele><time>2026-03-29T13:34:56.816Z</time></trkpt><trkpt lat="45.9682025" lon="9.1867356"><ele>213.60000000000002</ele><time>2026-03-29T13:34:57.815Z</time></trkpt><trkpt lat="45.9681729" lon="9.1866112"><ele>211.0</ele><time>2026-03-29T13:34:58.821Z</time></trkpt><trkpt lat="45.9681402" lon="9.1864875"><ele>211.0</ele><time>2026-03-29T13:34:59.853Z</time></trkpt><trkpt lat="45.9681055" lon="9.1863615"><ele>211.0</ele><time>2026-03-29T13:35:00.821Z</time></trkpt><trkpt lat="45.9680702" lon="9.1862406"><ele>211.0</ele><time>2026-03-29T13:35:01.819Z</time></trkpt><trkpt lat="45.9680329" lon="9.1861256"><ele>211.0</ele><time>2026-03-29T13:35:02.819Z</time></trkpt><trkpt lat="45.9679992" lon="9.1859935"><ele>211.0</ele><time>2026-03-29T13:35:03.821Z</time></trkpt><trkpt lat="45.9679659" lon="9.1858594"><ele>211.0</ele><time>2026-03-29T13:35:04.817Z</time></trkpt><trkpt lat="45.9679286" lon="9.1857296"><ele>211.0</ele><time>2026-03-29T13:35:05.821Z</time></trkpt><trkpt lat="45.9678927" lon="9.1856067"><ele>211.0</ele><time>2026-03-29T13:35:06.814Z</time></trkpt><trkpt lat="45.9678593" lon="9.1854763"><ele>211.0</ele><time>2026-03-29T13:35:07.822Z</time></trkpt><trkpt lat="45.9678188" lon="9.1853557"><ele>211.0</ele><time>2026-03-29T13:35:08.814Z</time></trkpt><trkpt lat="45.9677573" lon="9.1852417"><ele>210.8</ele><time>2026-03-29T13:35:09.817Z</time></trkpt><trkpt lat="45.9676757" lon="9.1851388"><ele>210.60000000000002</ele><time>2026-03-29T13:35:10.817Z</time></trkpt><trkpt lat="45.9675911" lon="9.1850481"><ele>210.4</ele><time>2026-03-29T13:35:11.82Z</time></trkpt><trkpt lat="45.9675126" lon="9.184972"><ele>210.2</ele><time>2026-03-29T13:35:12.821Z</time></trkpt><trkpt lat="45.9674412" lon="9.184892"><ele>210.0</ele><time>2026-03-29T13:35:13.826Z</time></trkpt><trkpt lat="45.967374" lon="9.1847946"><ele>210.4</ele><time>2026-03-29T13:35:14.821Z</time></trkpt><trkpt lat="45.9673209" lon="9.1846789"><ele>210.8</ele><time>2026-03-29T13:35:15.818Z</time></trkpt><trkpt lat="45.96729" lon="9.1845528"><ele>211.2</ele><time>2026-03-29T13:35:16.822Z</time></trkpt><trkpt lat="45.9672736" lon="9.1844136"><ele>211.6</ele><time>2026-03-29T13:35:17.814Z</time></trkpt><trkpt lat="45.9672901" lon="9.1842648"><ele>212.0</ele><time>2026-03-29T13:35:18.818Z</time></trkpt><trkpt lat="45.9673341" lon="9.1841388"><ele>212.0</ele><time>2026-03-29T13:35:19.818Z</time></trkpt><trkpt lat="45.9673908" lon="9.1840611"><ele>212.0</ele><time>2026-03-29T13:35:20.82Z</time></trkpt><trkpt lat="45.9674633" lon="9.1839509"><ele>212.0</ele><time>2026-03-29T13:35:22.811Z</time></trkpt><trkpt lat="45.9675286" lon="9.1838397"><ele>212.0</ele><time>2026-03-29T13:35:24.805Z</time></trkpt><trkpt lat="45.9675845" lon="9.1836587"><ele>212.0</ele><time>2026-03-29T13:35:26.82Z</time></trkpt><trkpt lat="45.9676136" lon="9.1835624"><ele>214.33333333333334</ele><time>2026-03-29T13:35:27.814Z</time></trkpt><trkpt lat="45.9676252" lon="9.183461"><ele>216.66666666666669</ele><time>2026-03-29T13:35:28.819Z</time></trkpt><trkpt lat="45.9676332" lon="9.1833617"><ele>219.0</ele><time>2026-03-29T13:35:29.824Z</time></trkpt><trkpt lat="45.9676406" lon="9.1832645"><ele>221.33333333333331</ele><time>2026-03-29T13:35:30.82Z</time></trkpt><trkpt lat="45.9676247" lon="9.1831658"><ele>223.66666666666666</ele><time>2026-03-29T13:35:32.821Z</time></trkpt><trkpt lat="45.9676131" lon="9.1830072"><ele>226.0</ele><time>2026-03-29T13:35:35.818Z</time></trkpt><trkpt lat="45.9675831" lon="9.1828108"><ele>226.0</ele><time>2026-03-29T13:35:37.803Z</time></trkpt><trkpt lat="45.9675713" lon="9.1826872"><ele>226.00000000000003</ele><time>2026-03-29T13:35:38.812Z</time></trkpt><trkpt lat="45.9675556" lon="9.1825563"><ele>226.00000000000003</ele><time>2026-03-29T13:35:39.815Z</time></trkpt><trkpt lat="45.9675521" lon="9.1824415"><ele>226.0</ele><time>2026-03-29T13:35:40.811Z</time></trkpt><trkpt lat="45.9675498" lon="9.1823061"><ele>226.0</ele><time>2026-03-29T13:35:41.816Z</time></trkpt><trkpt lat="45.9675455" lon="9.1821629"><ele>226.0</ele><time>2026-03-29T13:35:42.814Z</time></trkpt><trkpt lat="45.9675403" lon="9.1820275"><ele>226.00000000000003</ele><time>2026-03-29T13:35:43.816Z</time></trkpt><trkpt lat="45.9675426" lon="9.1818997"><ele>226.00000000000003</ele><time>2026-03-29T13:35:44.811Z</time></trkpt><trkpt lat="45.9675535" lon="9.1817659"><ele>226.0</ele><time>2026-03-29T13:35:45.816Z</time></trkpt><trkpt lat="45.9675638" lon="9.1816399"><ele>226.0</ele><time>2026-03-29T13:35:46.818Z</time></trkpt><trkpt lat="45.9675741" lon="9.1815135"><ele>226.0</ele><time>2026-03-29T13:35:47.821Z</time></trkpt><trkpt lat="45.9675855" lon="9.1813976"><ele>226.00000000000003</ele><time>2026-03-29T13:35:48.818Z</time></trkpt><trkpt lat="45.9675963" lon="9.1812765"><ele>226.00000000000003</ele><time>2026-03-29T13:35:49.819Z</time></trkpt><trkpt lat="45.9676096" lon="9.1811556"><ele>226.0</ele><time>2026-03-29T13:35:50.821Z</time></trkpt><trkpt lat="45.967621" lon="9.1810553"><ele>226.0</ele><time>2026-03-29T13:35:51.821Z</time></trkpt><trkpt lat="45.967642" lon="9.1808718"><ele>226.0</ele><time>2026-03-29T13:35:53.823Z</time></trkpt><trkpt lat="45.9676578" lon="9.1807347"><ele>226.00000000000003</ele><time>2026-03-29T13:35:55.826Z</time></trkpt><trkpt lat="45.9676716" lon="9.1806228"><ele>226.00000000000003</ele><time>2026-03-29T13:35:58.836Z</time></trkpt><trkpt lat="45.9676911" lon="9.180477"><ele>226.0</ele><time>2026-03-29T13:36:00.824Z</time></trkpt><trkpt lat="45.9677049" lon="9.1803534"><ele>226.0</ele><time>2026-03-29T13:36:01.822Z</time></trkpt><trkpt lat="45.9677213" lon="9.1802153"><ele>225.75</ele><time>2026-03-29T13:36:02.824Z</time></trkpt><trkpt lat="45.9677481" lon="9.1800611"><ele>225.5</ele><time>2026-03-29T13:36:03.819Z</time></trkpt><trkpt lat="45.9677763" lon="9.1798784"><ele>225.25</ele><time>2026-03-29T13:36:04.822Z</time></trkpt><trkpt lat="45.9678024" lon="9.1796458"><ele>225.0</ele><time>2026-03-29T13:36:05.817Z</time></trkpt><trkpt lat="45.9678349" lon="9.1793574"><ele>223.66666666666669</ele><time>2026-03-29T13:36:06.824Z</time></trkpt><trkpt lat="45.9679013" lon="9.179084"><ele>222.33333333333334</ele><time>2026-03-29T13:36:07.819Z</time></trkpt><trkpt lat="45.9679583" lon="9.1788564"><ele>221.0</ele><time>2026-03-29T13:36:08.815Z</time></trkpt><trkpt lat="45.9680127" lon="9.1786806"><ele>220.33333333333334</ele><time>2026-03-29T13:36:09.823Z</time></trkpt><trkpt lat="45.968047" lon="9.1785608"><ele>219.66666666666669</ele><time>2026-03-29T13:36:10.816Z</time></trkpt><trkpt lat="45.9680747" lon="9.1784459"><ele>219.0</ele><time>2026-03-29T13:36:11.818Z</time></trkpt><trkpt lat="45.9680975" lon="9.1783318"><ele>218.33333333333331</ele><time>2026-03-29T13:36:12.82Z</time></trkpt><trkpt lat="45.9681161" lon="9.1782449"><ele>217.66666666666666</ele><time>2026-03-29T13:36:13.815Z</time></trkpt><trkpt lat="45.9681682" lon="9.178088"><ele>217.0</ele><time>2026-03-29T13:36:15.819Z</time></trkpt><trkpt lat="45.9682083" lon="9.1779443"><ele>216.0</ele><time>2026-03-29T13:36:17.81Z</time></trkpt><trkpt lat="45.9682592" lon="9.1777924"><ele>215.0</ele><time>2026-03-29T13:36:19.812Z</time></trkpt><trkpt lat="45.9682952" lon="9.1776988"><ele>214.0</ele><time>2026-03-29T13:36:20.815Z</time></trkpt><trkpt lat="45.9683426" lon="9.1775815"><ele>213.0</ele><time>2026-03-29T13:36:21.819Z</time></trkpt><trkpt lat="45.9684062" lon="9.1774495"><ele>212.0</ele><time>2026-03-29T13:36:22.819Z</time></trkpt><trkpt lat="45.9684791" lon="9.1773226"><ele>214.2</ele><time>2026-03-29T13:36:23.816Z</time></trkpt><trkpt lat="45.9685527" lon="9.1772059"><ele>216.39999999999998</ele><time>2026-03-29T13:36:24.816Z</time></trkpt><trkpt lat="45.9686297" lon="9.177087"><ele>218.60000000000002</ele><time>2026-03-29T13:36:25.807Z</time></trkpt><trkpt lat="45.9687095" lon="9.1769609"><ele>220.8</ele><time>2026-03-29T13:36:26.81Z</time></trkpt><trkpt lat="45.9687696" lon="9.1768411"><ele>223.0</ele><time>2026-03-29T13:36:27.81Z</time></trkpt><trkpt lat="45.9688218" lon="9.1767242"><ele>222.99999999999997</ele><time>2026-03-29T13:36:28.816Z</time></trkpt><trkpt lat="45.968861" lon="9.1766068"><ele>223.0</ele><time>2026-03-29T13:36:29.82Z</time></trkpt><trkpt lat="45.9689056" lon="9.1764982"><ele>223.0</ele><time>2026-03-29T13:36:30.816Z</time></trkpt><trkpt lat="45.9689504" lon="9.1763946"><ele>223.0</ele><time>2026-03-29T13:36:31.818Z</time></trkpt><trkpt lat="45.9689844" lon="9.176297"><ele>222.99999999999997</ele><time>2026-03-29T13:36:32.812Z</time></trkpt><trkpt lat="45.9690161" lon="9.1761982"><ele>223.0</ele><time>2026-03-29T13:36:33.812Z</time></trkpt><trkpt lat="45.9690334" lon="9.1760988"><ele>221.99999999999997</ele><time>2026-03-29T13:36:34.815Z</time></trkpt><trkpt lat="45.9690509" lon="9.175986"><ele>221.0</ele><time>2026-03-29T13:36:35.814Z</time></trkpt><trkpt lat="45.9690659" lon="9.1758703"><ele>220.0</ele><time>2026-03-29T13:36:36.811Z</time></trkpt><trkpt lat="45.9690781" lon="9.1757744"><ele>219.0</ele><time>2026-03-29T13:36:37.812Z</time></trkpt><trkpt lat="45.9691034" lon="9.1756838"><ele>217.99999999999997</ele><time>2026-03-29T13:36:38.81Z</time></trkpt><trkpt lat="45.9691605" lon="9.175517"><ele>217.0</ele><time>2026-03-29T13:36:40.809Z</time></trkpt><trkpt lat="45.9691814" lon="9.1754126"><ele>216.99999999999997</ele><time>2026-03-29T13:36:41.809Z</time></trkpt><trkpt lat="45.9691852" lon="9.1753048"><ele>217.0</ele><time>2026-03-29T13:36:42.816Z</time></trkpt><trkpt lat="45.9691789" lon="9.1751842"><ele>217.0</ele><time>2026-03-29T13:36:43.822Z</time></trkpt><trkpt lat="45.9691575" lon="9.1750666"><ele>217.0</ele><time>2026-03-29T13:36:44.822Z</time></trkpt><trkpt lat="45.9691297" lon="9.1749679"><ele>216.99999999999997</ele><time>2026-03-29T13:36:45.823Z</time></trkpt><trkpt lat="45.9690932" lon="9.1748848"><ele>217.0</ele><time>2026-03-29T13:36:46.824Z</time></trkpt><trkpt lat="45.9690522" lon="9.1748054"><ele>219.71428571428572</ele><time>2026-03-29T13:36:47.822Z</time></trkpt><trkpt lat="45.9690053" lon="9.1747313"><ele>222.42857142857144</ele><time>2026-03-29T13:36:48.848Z</time></trkpt><trkpt lat="45.9689492" lon="9.1746667"><ele>225.14285714285714</ele><time>2026-03-29T13:36:49.846Z</time></trkpt><trkpt lat="45.968886" lon="9.1746144"><ele>227.85714285714286</ele><time>2026-03-29T13:36:50.849Z</time></trkpt><trkpt lat="45.9688259" lon="9.1745529"><ele>230.57142857142858</ele><time>2026-03-29T13:36:51.824Z</time></trkpt><trkpt lat="45.9687688" lon="9.1744742"><ele>233.28571428571428</ele><time>2026-03-29T13:36:52.824Z</time></trkpt><trkpt lat="45.9687204" lon="9.1743891"><ele>236.0</ele><time>2026-03-29T13:36:53.84Z</time></trkpt><trkpt lat="45.9686823" lon="9.1743043"><ele>236.00000000000003</ele><time>2026-03-29T13:36:54.825Z</time></trkpt><trkpt lat="45.9686479" lon="9.1742251"><ele>236.0</ele><time>2026-03-29T13:36:55.814Z</time></trkpt><trkpt lat="45.968608" lon="9.1741189"><ele>236.0</ele><time>2026-03-29T13:36:56.822Z</time></trkpt><trkpt lat="45.9685687" lon="9.174012"><ele>236.0</ele><time>2026-03-29T13:36:57.823Z</time></trkpt><trkpt lat="45.9685277" lon="9.1738973"><ele>236.00000000000003</ele><time>2026-03-29T13:36:58.824Z</time></trkpt><trkpt lat="45.9684821" lon="9.1737805"><ele>236.0</ele><time>2026-03-29T13:36:59.827Z</time></trkpt><trkpt lat="45.9684338" lon="9.1736537"><ele>233.75</ele><time>2026-03-29T13:37:00.821Z</time></trkpt><trkpt lat="45.9683717" lon="9.1735083"><ele>231.5</ele><time>2026-03-29T13:37:01.821Z</time></trkpt><trkpt lat="45.9683035" lon="9.1733429"><ele>229.25</ele><time>2026-03-29T13:37:02.821Z</time></trkpt><trkpt lat="45.9682317" lon="9.1731583"><ele>227.0</ele><time>2026-03-29T13:37:03.823Z</time></trkpt><trkpt lat="45.9681712" lon="9.1729571"><ele>227.0</ele><time>2026-03-29T13:37:04.821Z</time></trkpt><trkpt lat="45.9681227" lon="9.1727969"><ele>227.0</ele><time>2026-03-29T13:37:05.816Z</time></trkpt><trkpt lat="45.9680688" lon="9.1726765"><ele>227.0</ele><time>2026-03-29T13:37:06.829Z</time></trkpt><trkpt lat="45.9680157" lon="9.1725386"><ele>227.0</ele><time>2026-03-29T13:37:11.836Z</time></trkpt><trkpt lat="45.967975" lon="9.1724578"><ele>227.0</ele><time>2026-03-29T13:37:13.828Z</time></trkpt><trkpt lat="45.9678774" lon="9.1723762"><ele>225.0</ele><time>2026-03-29T13:37:15.819Z</time></trkpt><trkpt lat="45.9677973" lon="9.1723279"><ele>223.0</ele><time>2026-03-29T13:37:16.819Z</time></trkpt><trkpt lat="45.9676968" lon="9.1722573"><ele>221.0</ele><time>2026-03-29T13:37:17.827Z</time></trkpt><trkpt lat="45.9675639" lon="9.1721514"><ele>219.0</ele><time>2026-03-29T13:37:18.821Z</time></trkpt><trkpt lat="45.9674182" lon="9.1720382"><ele>219.0</ele><time>2026-03-29T13:37:19.823Z</time></trkpt><trkpt lat="45.9672773" lon="9.1719412"><ele>219.0</ele><time>2026-03-29T13:37:20.826Z</time></trkpt><trkpt lat="45.9671636" lon="9.1717894"><ele>219.0</ele><time>2026-03-29T13:37:21.821Z</time></trkpt><trkpt lat="45.9670792" lon="9.1716013"><ele>224.66666666666669</ele><time>2026-03-29T13:37:22.819Z</time></trkpt><trkpt lat="45.9670186" lon="9.1714083"><ele>230.33333333333334</ele><time>2026-03-29T13:37:23.825Z</time></trkpt><trkpt lat="45.9669503" lon="9.1712169"><ele>236.0</ele><time>2026-03-29T13:37:24.819Z</time></trkpt><trkpt lat="45.9668808" lon="9.1710137"><ele>236.0</ele><time>2026-03-29T13:37:25.821Z</time></trkpt><trkpt lat="45.9668301" lon="9.1708145"><ele>236.0</ele><time>2026-03-29T13:37:26.823Z</time></trkpt><trkpt lat="45.9667786" lon="9.1706309"><ele>236.0</ele><time>2026-03-29T13:37:27.823Z</time></trkpt><trkpt lat="45.9667192" lon="9.1704601"><ele>236.0</ele><time>2026-03-29T13:37:28.821Z</time></trkpt><trkpt lat="45.9666712" lon="9.1703109"><ele>235.20000000000002</ele><time>2026-03-29T13:37:29.838Z</time></trkpt><trkpt lat="45.9666305" lon="9.1701604"><ele>234.40000000000003</ele><time>2026-03-29T13:37:30.821Z</time></trkpt><trkpt lat="45.9665865" lon="9.1700323"><ele>233.6</ele><time>2026-03-29T13:37:31.85Z</time></trkpt><trkpt lat="45.9665446" lon="9.1699098"><ele>232.8</ele><time>2026-03-29T13:37:32.835Z</time></trkpt><trkpt lat="45.9664986" lon="9.1698048"><ele>232.0</ele><time>2026-03-29T13:37:33.828Z</time></trkpt><trkpt lat="45.9664545" lon="9.1696813"><ele>231.99999999999997</ele><time>2026-03-29T13:37:34.834Z</time></trkpt><trkpt lat="45.9664193" lon="9.1695715"><ele>232.0</ele><time>2026-03-29T13:37:35.825Z</time></trkpt><trkpt lat="45.9663818" lon="9.1694722"><ele>232.0</ele><time>2026-03-29T13:37:36.827Z</time></trkpt><trkpt lat="45.9663493" lon="9.1693698"><ele>232.0</ele><time>2026-03-29T13:37:37.822Z</time></trkpt><trkpt lat="45.9663151" lon="9.1692665"><ele>231.99999999999997</ele><time>2026-03-29T13:37:38.835Z</time></trkpt><trkpt lat="45.9662744" lon="9.1691741"><ele>232.0</ele><time>2026-03-29T13:37:39.834Z</time></trkpt><trkpt lat="45.9662276" lon="9.169107"><ele>230.8</ele><time>2026-03-29T13:37:40.823Z</time></trkpt><trkpt lat="45.9661267" lon="9.1690065"><ele>229.6</ele><time>2026-03-29T13:37:42.828Z</time></trkpt><trkpt lat="45.9660299" lon="9.1688992"><ele>228.40000000000003</ele><time>2026-03-29T13:37:44.82Z</time></trkpt><trkpt lat="45.9659709" lon="9.1688379"><ele>227.20000000000002</ele><time>2026-03-29T13:37:45.828Z</time></trkpt><trkpt lat="45.9658928" lon="9.1687664"><ele>226.0</ele><time>2026-03-29T13:37:46.822Z</time></trkpt><trkpt lat="45.9658159" lon="9.1686948"><ele>226.0</ele><time>2026-03-29T13:37:47.829Z</time></trkpt><trkpt lat="45.9657463" lon="9.1686327"><ele>226.00000000000003</ele><time>2026-03-29T13:37:48.828Z</time></trkpt><trkpt lat="45.9656859" lon="9.1685728"><ele>226.00000000000003</ele><time>2026-03-29T13:37:49.845Z</time></trkpt><trkpt lat="45.9655789" lon="9.1684915"><ele>226.0</ele><time>2026-03-29T13:37:51.827Z</time></trkpt><trkpt lat="45.9654631" lon="9.1683915"><ele>226.0</ele><time>2026-03-29T13:37:53.825Z</time></trkpt><trkpt lat="45.9654143" lon="9.168299"><ele>225.99999999999997</ele><time>2026-03-29T13:37:54.829Z</time></trkpt><trkpt lat="45.9653619" lon="9.1681969"><ele>226.0</ele><time>2026-03-29T13:37:55.849Z</time></trkpt><trkpt lat="45.9653042" lon="9.1680947"><ele>226.0</ele><time>2026-03-29T13:37:56.822Z</time></trkpt><trkpt lat="45.9652536" lon="9.1680076"><ele>226.0</ele><time>2026-03-29T13:37:57.823Z</time></trkpt><trkpt lat="45.9652021" lon="9.1679328"><ele>225.99999999999997</ele><time>2026-03-29T13:37:58.827Z</time></trkpt><trkpt lat="45.9651596" lon="9.1678654"><ele>226.0</ele><time>2026-03-29T13:37:59.834Z</time></trkpt><trkpt lat="45.9650801" lon="9.1677565"><ele>224.49999999999997</ele><time>2026-03-29T13:38:01.825Z</time></trkpt><trkpt lat="45.9650228" lon="9.1676988"><ele>223.0</ele><time>2026-03-29T13:38:08.832Z</time></trkpt><trkpt lat="45.964942" lon="9.1676177"><ele>221.5</ele><time>2026-03-29T13:38:10.83Z</time></trkpt><trkpt lat="45.9648918" lon="9.1675556"><ele>220.0</ele><time>2026-03-29T13:38:11.821Z</time></trkpt><trkpt lat="45.9648015" lon="9.1674627"><ele>218.49999999999997</ele><time>2026-03-29T13:38:13.815Z</time></trkpt><trkpt lat="45.9647506" lon="9.1674092"><ele>217.0</ele><time>2026-03-29T13:38:14.845Z</time></trkpt><trkpt lat="45.9646866" lon="9.1673365"><ele>220.33333333333331</ele><time>2026-03-29T13:38:15.821Z</time></trkpt><trkpt lat="45.964624" lon="9.1672627"><ele>223.66666666666666</ele><time>2026-03-29T13:38:16.821Z</time></trkpt><trkpt lat="45.9645563" lon="9.1671959"><ele>227.0</ele><time>2026-03-29T13:38:17.824Z</time></trkpt><trkpt lat="45.9644769" lon="9.1671195"><ele>230.33333333333331</ele><time>2026-03-29T13:38:18.825Z</time></trkpt><trkpt lat="45.9643995" lon="9.1670405"><ele>233.66666666666666</ele><time>2026-03-29T13:38:19.825Z</time></trkpt><trkpt lat="45.9643245" lon="9.166973"><ele>237.0</ele><time>2026-03-29T13:38:20.82Z</time></trkpt><trkpt lat="45.9642546" lon="9.1668981"><ele>236.33333333333334</ele><time>2026-03-29T13:38:21.825Z</time></trkpt><trkpt lat="45.9641845" lon="9.1668176"><ele>235.66666666666669</ele><time>2026-03-29T13:38:22.822Z</time></trkpt><trkpt lat="45.9641165" lon="9.1667363"><ele>235.0</ele><time>2026-03-29T13:38:23.833Z</time></trkpt><trkpt lat="45.9640506" lon="9.1666632"><ele>234.33333333333334</ele><time>2026-03-29T13:38:24.823Z</time></trkpt><trkpt lat="45.9639856" lon="9.1665843"><ele>233.66666666666669</ele><time>2026-03-29T13:38:25.831Z</time></trkpt><trkpt lat="45.9639175" lon="9.1665075"><ele>233.0</ele><time>2026-03-29T13:38:26.853Z</time></trkpt><trkpt lat="45.9638449" lon="9.1664419"><ele>233.0</ele><time>2026-03-29T13:38:27.85Z</time></trkpt><trkpt lat="45.9637764" lon="9.1663738"><ele>233.0</ele><time>2026-03-29T13:38:28.86Z</time></trkpt><trkpt lat="45.9637128" lon="9.1663097"><ele>233.0</ele><time>2026-03-29T13:38:29.852Z</time></trkpt><trkpt lat="45.9636558" lon="9.1662535"><ele>233.0</ele><time>2026-03-29T13:38:30.832Z</time></trkpt><trkpt lat="45.963601" lon="9.1661993"><ele>233.0</ele><time>2026-03-29T13:38:31.828Z</time></trkpt><trkpt lat="45.9635439" lon="9.1661426"><ele>233.0</ele><time>2026-03-29T13:38:32.828Z</time></trkpt><trkpt lat="45.9634813" lon="9.1660723"><ele>233.0</ele><time>2026-03-29T13:38:33.852Z</time></trkpt><trkpt lat="45.9634051" lon="9.1659853"><ele>234.5</ele><time>2026-03-29T13:38:34.824Z</time></trkpt><trkpt lat="45.9633181" lon="9.1658896"><ele>236.0</ele><time>2026-03-29T13:38:35.827Z</time></trkpt><trkpt lat="45.9632208" lon="9.1657966"><ele>237.5</ele><time>2026-03-29T13:38:36.85Z</time></trkpt><trkpt lat="45.9631156" lon="9.1656974"><ele>239.0</ele><time>2026-03-29T13:38:37.818Z</time></trkpt><trkpt lat="45.9630073" lon="9.1655918"><ele>239.0</ele><time>2026-03-29T13:38:38.829Z</time></trkpt><trkpt lat="45.9628952" lon="9.16549"><ele>239.0</ele><time>2026-03-29T13:38:39.83Z</time></trkpt><trkpt lat="45.9627885" lon="9.1653903"><ele>239.0</ele><time>2026-03-29T13:38:40.837Z</time></trkpt><trkpt lat="45.962687" lon="9.1652964"><ele>239.0</ele><time>2026-03-29T13:38:41.829Z</time></trkpt><trkpt lat="45.9625915" lon="9.165208"><ele>239.75</ele><time>2026-03-29T13:38:42.836Z</time></trkpt><trkpt lat="45.9624933" lon="9.1651198"><ele>240.5</ele><time>2026-03-29T13:38:43.831Z</time></trkpt><trkpt lat="45.9623876" lon="9.1650235"><ele>241.25</ele><time>2026-03-29T13:38:44.831Z</time></trkpt><trkpt lat="45.9622816" lon="9.1649134"><ele>242.0</ele><time>2026-03-29T13:38:45.827Z</time></trkpt><trkpt lat="45.9621794" lon="9.1647801"><ele>242.0</ele><time>2026-03-29T13:38:46.824Z</time></trkpt><trkpt lat="45.9620948" lon="9.1646167"><ele>242.0</ele><time>2026-03-29T13:38:47.821Z</time></trkpt><trkpt lat="45.9620296" lon="9.1644389"><ele>242.0</ele><time>2026-03-29T13:38:48.83Z</time></trkpt><trkpt lat="45.9619807" lon="9.1642236"><ele>242.0</ele><time>2026-03-29T13:38:49.826Z</time></trkpt><trkpt lat="45.9619488" lon="9.1640455"><ele>247.0</ele><time>2026-03-29T13:38:50.823Z</time></trkpt><trkpt lat="45.9619055" lon="9.1638848"><ele>252.0</ele><time>2026-03-29T13:38:51.819Z</time></trkpt><trkpt lat="45.9618503" lon="9.1637286"><ele>257.0</ele><time>2026-03-29T13:38:52.824Z</time></trkpt><trkpt lat="45.9617987" lon="9.1635803"><ele>262.0</ele><time>2026-03-29T13:38:53.826Z</time></trkpt><trkpt lat="45.9617535" lon="9.163418"><ele>262.0</ele><time>2026-03-29T13:38:54.825Z</time></trkpt><trkpt lat="45.9617026" lon="9.1632432"><ele>262.0</ele><time>2026-03-29T13:38:55.826Z</time></trkpt><trkpt lat="45.9616586" lon="9.1630949"><ele>262.0</ele><time>2026-03-29T13:38:56.829Z</time></trkpt><trkpt lat="45.9616042" lon="9.1629671"><ele>262.0</ele><time>2026-03-29T13:38:57.835Z</time></trkpt><trkpt lat="45.9615431" lon="9.1628647"><ele>262.0</ele><time>2026-03-29T13:38:58.833Z</time></trkpt><trkpt lat="45.9614794" lon="9.1627718"><ele>259.2</ele><time>2026-03-29T13:38:59.84Z</time></trkpt><trkpt lat="45.9614057" lon="9.1626823"><ele>256.4</ele><time>2026-03-29T13:39:00.859Z</time></trkpt><trkpt lat="45.9613231" lon="9.162592"><ele>253.60000000000002</ele><time>2026-03-29T13:39:01.856Z</time></trkpt><trkpt lat="45.9612365" lon="9.1624955"><ele>250.8</ele><time>2026-03-29T13:39:02.834Z</time></trkpt><trkpt lat="45.9611668" lon="9.1623912"><ele>248.0</ele><time>2026-03-29T13:39:03.831Z</time></trkpt><trkpt lat="45.9611021" lon="9.1623041"><ele>248.00000000000003</ele><time>2026-03-29T13:39:04.829Z</time></trkpt><trkpt lat="45.9610415" lon="9.1622169"><ele>248.0</ele><time>2026-03-29T13:39:05.828Z</time></trkpt><trkpt lat="45.9609785" lon="9.1621351"><ele>248.0</ele><time>2026-03-29T13:39:06.83Z</time></trkpt><trkpt lat="45.9609128" lon="9.162065"><ele>248.0</ele><time>2026-03-29T13:39:07.831Z</time></trkpt><trkpt lat="45.9608542" lon="9.1619862"><ele>248.00000000000003</ele><time>2026-03-29T13:39:08.826Z</time></trkpt><trkpt lat="45.9607898" lon="9.1619152"><ele>248.0</ele><time>2026-03-29T13:39:09.829Z</time></trkpt><trkpt lat="45.9607216" lon="9.1618337"><ele>247.00000000000003</ele><time>2026-03-29T13:39:10.828Z</time></trkpt><trkpt lat="45.9606561" lon="9.1617614"><ele>246.0</ele><time>2026-03-29T13:39:11.824Z</time></trkpt><trkpt lat="45.9605874" lon="9.1616983"><ele>245.0</ele><time>2026-03-29T13:39:12.826Z</time></trkpt><trkpt lat="45.96052" lon="9.1616286"><ele>244.0</ele><time>2026-03-29T13:39:13.826Z</time></trkpt><trkpt lat="45.96045" lon="9.1615493"><ele>243.00000000000003</ele><time>2026-03-29T13:39:14.821Z</time></trkpt><trkpt lat="45.9603783" lon="9.1614674"><ele>242.0</ele><time>2026-03-29T13:39:15.823Z</time></trkpt><trkpt lat="45.9603029" lon="9.1613823"><ele>242.0</ele><time>2026-03-29T13:39:16.824Z</time></trkpt><trkpt lat="45.9602225" lon="9.1613024"><ele>242.0</ele><time>2026-03-29T13:39:17.826Z</time></trkpt><trkpt lat="45.9601485" lon="9.1612213"><ele>242.0</ele><time>2026-03-29T13:39:18.825Z</time></trkpt><trkpt lat="45.9600634" lon="9.1611362"><ele>242.0</ele><time>2026-03-29T13:39:19.826Z</time></trkpt><trkpt lat="45.9599808" lon="9.1610344"><ele>242.0</ele><time>2026-03-29T13:39:20.823Z</time></trkpt><trkpt lat="45.959908" lon="9.160917"><ele>239.39999999999998</ele><time>2026-03-29T13:39:21.818Z</time></trkpt><trkpt lat="45.9598483" lon="9.1607731"><ele>236.79999999999998</ele><time>2026-03-29T13:39:22.82Z</time></trkpt><trkpt lat="45.959798" lon="9.1606275"><ele>234.2</ele><time>2026-03-29T13:39:23.824Z</time></trkpt><trkpt lat="45.9597565" lon="9.1604791"><ele>231.6</ele><time>2026-03-29T13:39:24.822Z</time></trkpt><trkpt lat="45.9597118" lon="9.1603494"><ele>229.0</ele><time>2026-03-29T13:39:25.824Z</time></trkpt><trkpt lat="45.9596572" lon="9.1602403"><ele>229.0</ele><time>2026-03-29T13:39:26.828Z</time></trkpt><trkpt lat="45.9595886" lon="9.1601458"><ele>228.99999999999997</ele><time>2026-03-29T13:39:27.83Z</time></trkpt><trkpt lat="45.9595238" lon="9.1600501"><ele>228.99999999999997</ele><time>2026-03-29T13:39:28.83Z</time></trkpt><trkpt lat="45.9594541" lon="9.1599574"><ele>229.0</ele><time>2026-03-29T13:39:29.84Z</time></trkpt><trkpt lat="45.9593915" lon="9.1598662"><ele>229.0</ele><time>2026-03-29T13:39:30.831Z</time></trkpt><trkpt lat="45.9593276" lon="9.1597688"><ele>227.2</ele><time>2026-03-29T13:39:31.829Z</time></trkpt><trkpt lat="45.9592605" lon="9.1596699"><ele>225.39999999999998</ele><time>2026-03-29T13:39:32.829Z</time></trkpt><trkpt lat="45.9591902" lon="9.1595583"><ele>223.6</ele><time>2026-03-29T13:39:33.827Z</time></trkpt><trkpt lat="45.9591185" lon="9.1594467"><ele>221.8</ele><time>2026-03-29T13:39:34.83Z</time></trkpt><trkpt lat="45.9590601" lon="9.1593463"><ele>220.0</ele><time>2026-03-29T13:39:35.826Z</time></trkpt><trkpt lat="45.9590038" lon="9.1592504"><ele>219.99999999999997</ele><time>2026-03-29T13:39:36.817Z</time></trkpt><trkpt lat="45.9589531" lon="9.1591615"><ele>220.0</ele><time>2026-03-29T13:39:37.82Z</time></trkpt><trkpt lat="45.9589092" lon="9.1590713"><ele>220.0</ele><time>2026-03-29T13:39:38.832Z</time></trkpt><trkpt lat="45.9588748" lon="9.158961"><ele>220.0</ele><time>2026-03-29T13:39:39.824Z</time></trkpt><trkpt lat="45.9588554" lon="9.1588298"><ele>219.99999999999997</ele><time>2026-03-29T13:39:40.824Z</time></trkpt><trkpt lat="45.9588481" lon="9.1586856"><ele>220.0</ele><time>2026-03-29T13:39:41.827Z</time></trkpt><trkpt lat="45.9588556" lon="9.1585385"><ele>220.4</ele><time>2026-03-29T13:39:42.829Z</time></trkpt><trkpt lat="45.9588599" lon="9.1583889"><ele>220.8</ele><time>2026-03-29T13:39:43.825Z</time></trkpt><trkpt lat="45.9588437" lon="9.1582535"><ele>221.2</ele><time>2026-03-29T13:39:44.831Z</time></trkpt><trkpt lat="45.9588024" lon="9.1581217"><ele>221.6</ele><time>2026-03-29T13:39:45.825Z</time></trkpt><trkpt lat="45.9587527" lon="9.1579927"><ele>222.0</ele><time>2026-03-29T13:39:46.83Z</time></trkpt><trkpt lat="45.9586966" lon="9.157872"><ele>224.0</ele><time>2026-03-29T13:39:47.829Z</time></trkpt><trkpt lat="45.958649" lon="9.1577528"><ele>226.0</ele><time>2026-03-29T13:39:48.824Z</time></trkpt><trkpt lat="45.9585999" lon="9.1576451"><ele>228.0</ele><time>2026-03-29T13:39:49.828Z</time></trkpt><trkpt lat="45.9585534" lon="9.1575501"><ele>230.0</ele><time>2026-03-29T13:39:50.828Z</time></trkpt><trkpt lat="45.9585119" lon="9.157446"><ele>232.0</ele><time>2026-03-29T13:39:51.827Z</time></trkpt><trkpt lat="45.9584744" lon="9.1573371"><ele>234.0</ele><time>2026-03-29T13:39:52.829Z</time></trkpt><trkpt lat="45.9584434" lon="9.1572224"><ele>237.79999999999998</ele><time>2026-03-29T13:39:53.827Z</time></trkpt><trkpt lat="45.9584247" lon="9.1570866"><ele>241.59999999999997</ele><time>2026-03-29T13:39:54.827Z</time></trkpt><trkpt lat="45.9584108" lon="9.1569467"><ele>245.4</ele><time>2026-03-29T13:39:55.826Z</time></trkpt><trkpt lat="45.958409" lon="9.1568083"><ele>249.2</ele><time>2026-03-29T13:39:56.832Z</time></trkpt><trkpt lat="45.9584041" lon="9.1566812"><ele>253.0</ele><time>2026-03-29T13:39:57.827Z</time></trkpt><trkpt lat="45.9583891" lon="9.1565673"><ele>254.99999999999997</ele><time>2026-03-29T13:39:58.842Z</time></trkpt><trkpt lat="45.9583799" lon="9.1564488"><ele>257.0</ele><time>2026-03-29T13:39:59.837Z</time></trkpt><trkpt lat="45.958372" lon="9.1563383"><ele>259.0</ele><time>2026-03-29T13:40:00.832Z</time></trkpt><trkpt lat="45.958368" lon="9.1562337"><ele>261.0</ele><time>2026-03-29T13:40:01.833Z</time></trkpt><trkpt lat="45.9583549" lon="9.1561313"><ele>263.0</ele><time>2026-03-29T13:40:02.827Z</time></trkpt><trkpt lat="45.9583276" lon="9.1560379"><ele>265.0</ele><time>2026-03-29T13:40:03.845Z</time></trkpt><trkpt lat="45.9582778" lon="9.1559553"><ele>259.66666666666663</ele><time>2026-03-29T13:40:04.843Z</time></trkpt><trkpt lat="45.9582168" lon="9.1558889"><ele>254.33333333333331</ele><time>2026-03-29T13:40:05.852Z</time></trkpt><trkpt lat="45.9581505" lon="9.1558356"><ele>249.0</ele><time>2026-03-29T13:40:06.828Z</time></trkpt><trkpt lat="45.9580865" lon="9.1557735"><ele>243.66666666666669</ele><time>2026-03-29T13:40:07.828Z</time></trkpt><trkpt lat="45.9580234" lon="9.1557156"><ele>238.33333333333334</ele><time>2026-03-29T13:40:08.824Z</time></trkpt><trkpt lat="45.9579578" lon="9.1556678"><ele>233.0</ele><time>2026-03-29T13:40:09.825Z</time></trkpt><trkpt lat="45.957889" lon="9.1556219"><ele>233.0</ele><time>2026-03-29T13:40:10.822Z</time></trkpt><trkpt lat="45.9578184" lon="9.1555785"><ele>233.0</ele><time>2026-03-29T13:40:11.824Z</time></trkpt><trkpt lat="45.9577493" lon="9.1555213"><ele>233.0</ele><time>2026-03-29T13:40:12.811Z</time></trkpt><trkpt lat="45.9576799" lon="9.155432"><ele>233.0</ele><time>2026-03-29T13:40:13.839Z</time></trkpt><trkpt lat="45.957605" lon="9.1553284"><ele>233.0</ele><time>2026-03-29T13:40:14.829Z</time></trkpt><trkpt lat="45.9575429" lon="9.1552151"><ele>231.83333333333334</ele><time>2026-03-29T13:40:15.834Z</time></trkpt><trkpt lat="45.9574884" lon="9.1551107"><ele>230.66666666666669</ele><time>2026-03-29T13:40:16.806Z</time></trkpt><trkpt lat="45.9574294" lon="9.155019"><ele>229.5</ele><time>2026-03-29T13:40:17.822Z</time></trkpt><trkpt lat="45.9573784" lon="9.1549244"><ele>228.33333333333331</ele><time>2026-03-29T13:40:18.815Z</time></trkpt><trkpt lat="45.9573298" lon="9.1548104"><ele>227.16666666666666</ele><time>2026-03-29T13:40:19.824Z</time></trkpt><trkpt lat="45.9572836" lon="9.1546901"><ele>226.0</ele><time>2026-03-29T13:40:20.816Z</time></trkpt><trkpt lat="45.9572568" lon="9.1545416"><ele>226.0</ele><time>2026-03-29T13:40:21.82Z</time></trkpt><trkpt lat="45.9572516" lon="9.1543812"><ele>226.00000000000003</ele><time>2026-03-29T13:40:22.823Z</time></trkpt><trkpt lat="45.9572584" lon="9.1542353"><ele>226.00000000000003</ele><time>2026-03-29T13:40:23.824Z</time></trkpt><trkpt lat="45.9572524" lon="9.1540974"><ele>226.0</ele><time>2026-03-29T13:40:24.821Z</time></trkpt><trkpt lat="45.9572344" lon="9.1539642"><ele>226.0</ele><time>2026-03-29T13:40:25.813Z</time></trkpt><trkpt lat="45.9572153" lon="9.1538532"><ele>228.99999999999997</ele><time>2026-03-29T13:40:26.826Z</time></trkpt><trkpt lat="45.9571843" lon="9.1537584"><ele>232.0</ele><time>2026-03-29T13:40:27.823Z</time></trkpt><trkpt lat="45.9571577" lon="9.153659"><ele>235.0</ele><time>2026-03-29T13:40:28.824Z</time></trkpt><trkpt lat="45.9571306" lon="9.1535683"><ele>238.0</ele><time>2026-03-29T13:40:29.834Z</time></trkpt><trkpt lat="45.9570658" lon="9.1534234"><ele>240.99999999999997</ele><time>2026-03-29T13:40:31.825Z</time></trkpt><trkpt lat="45.9570271" lon="9.1533408"><ele>244.0</ele><time>2026-03-29T13:40:32.824Z</time></trkpt><trkpt lat="45.9569826" lon="9.1532531"><ele>246.16666666666666</ele><time>2026-03-29T13:40:33.819Z</time></trkpt><trkpt lat="45.9569399" lon="9.1531584"><ele>248.33333333333331</ele><time>2026-03-29T13:40:34.816Z</time></trkpt><trkpt lat="45.956898" lon="9.1530646"><ele>250.5</ele><time>2026-03-29T13:40:35.816Z</time></trkpt><trkpt lat="45.9568615" lon="9.1529673"><ele>252.66666666666669</ele><time>2026-03-29T13:40:36.811Z</time></trkpt><trkpt lat="45.9568177" lon="9.1528661"><ele>254.83333333333334</ele><time>2026-03-29T13:40:37.84Z</time></trkpt><trkpt lat="45.9567721" lon="9.1527482"><ele>257.0</ele><time>2026-03-29T13:40:38.824Z</time></trkpt><trkpt lat="45.9567217" lon="9.1526274"><ele>252.0</ele><time>2026-03-29T13:40:39.82Z</time></trkpt><trkpt lat="45.9566691" lon="9.1525055"><ele>247.0</ele><time>2026-03-29T13:40:40.82Z</time></trkpt><trkpt lat="45.9566135" lon="9.1523787"><ele>242.0</ele><time>2026-03-29T13:40:41.817Z</time></trkpt><trkpt lat="45.9565588" lon="9.1522486"><ele>237.0</ele><time>2026-03-29T13:40:42.819Z</time></trkpt><trkpt lat="45.95651" lon="9.1521088"><ele>232.0</ele><time>2026-03-29T13:40:43.814Z</time></trkpt><trkpt lat="45.9564592" lon="9.1519652"><ele>232.0</ele><time>2026-03-29T13:40:44.822Z</time></trkpt><trkpt lat="45.9564051" lon="9.1518224"><ele>232.0</ele><time>2026-03-29T13:40:45.813Z</time></trkpt><trkpt lat="45.9563522" lon="9.1516881"><ele>232.0</ele><time>2026-03-29T13:40:46.819Z</time></trkpt><trkpt lat="45.9563022" lon="9.1515639"><ele>232.0</ele><time>2026-03-29T13:40:47.813Z</time></trkpt><trkpt lat="45.9562576" lon="9.1514619"><ele>232.0</ele><time>2026-03-29T13:40:48.823Z</time></trkpt><trkpt lat="45.9562192" lon="9.1513646"><ele>237.6</ele><time>2026-03-29T13:40:49.814Z</time></trkpt><trkpt lat="45.9561835" lon="9.1512786"><ele>243.2</ele><time>2026-03-29T13:40:50.822Z</time></trkpt><trkpt lat="45.9561335" lon="9.1511499"><ele>248.8</ele><time>2026-03-29T13:40:52.818Z</time></trkpt><trkpt lat="45.9561071" lon="9.1510326"><ele>254.4</ele><time>2026-03-29T13:40:55.825Z</time></trkpt><trkpt lat="45.9560115" lon="9.1508751"><ele>260.0</ele><time>2026-03-29T13:40:57.818Z</time></trkpt><trkpt lat="45.9559435" lon="9.1507592"><ele>253.25</ele><time>2026-03-29T13:40:58.819Z</time></trkpt><trkpt lat="45.9558801" lon="9.1506219"><ele>246.5</ele><time>2026-03-29T13:40:59.824Z</time></trkpt><trkpt lat="45.9558089" lon="9.150455"><ele>239.75</ele><time>2026-03-29T13:41:00.82Z</time></trkpt><trkpt lat="45.955722" lon="9.1502637"><ele>233.0</ele><time>2026-03-29T13:41:01.822Z</time></trkpt><trkpt lat="45.9556014" lon="9.1500376"><ele>242.33333333333334</ele><time>2026-03-29T13:41:02.82Z</time></trkpt><trkpt lat="45.9554856" lon="9.1498421"><ele>251.66666666666669</ele><time>2026-03-29T13:41:03.823Z</time></trkpt><trkpt lat="45.9553927" lon="9.149632"><ele>261.0</ele><time>2026-03-29T13:41:04.827Z</time></trkpt><trkpt lat="45.9553199" lon="9.149401"><ele>261.0</ele><time>2026-03-29T13:41:05.824Z</time></trkpt><trkpt lat="45.9552691" lon="9.1491845"><ele>261.0</ele><time>2026-03-29T13:41:06.829Z</time></trkpt><trkpt lat="45.9552254" lon="9.1489716"><ele>261.0</ele><time>2026-03-29T13:41:07.82Z</time></trkpt><trkpt lat="45.9551487" lon="9.1487552"><ele>254.66666666666669</ele><time>2026-03-29T13:41:08.818Z</time></trkpt><trkpt lat="45.9550913" lon="9.1485047"><ele>248.33333333333334</ele><time>2026-03-29T13:41:09.818Z</time></trkpt><trkpt lat="45.9550228" lon="9.1482636"><ele>242.0</ele><time>2026-03-29T13:41:10.819Z</time></trkpt><trkpt lat="45.9549414" lon="9.1480293"><ele>242.0</ele><time>2026-03-29T13:41:11.821Z</time></trkpt><trkpt lat="45.9548329" lon="9.1477962"><ele>242.0</ele><time>2026-03-29T13:41:12.812Z</time></trkpt><trkpt lat="45.9547152" lon="9.1475652"><ele>242.0</ele><time>2026-03-29T13:41:13.821Z</time></trkpt><trkpt lat="45.9546294" lon="9.147368"><ele>252.66666666666669</ele><time>2026-03-29T13:41:14.818Z</time></trkpt><trkpt lat="45.9545499" lon="9.1471559"><ele>263.3333333333333</ele><time>2026-03-29T13:41:15.819Z</time></trkpt><trkpt lat="45.9544802" lon="9.1469482"><ele>274.0</ele><time>2026-03-29T13:41:16.821Z</time></trkpt><trkpt lat="45.9544297" lon="9.1467418"><ele>274.0</ele><time>2026-03-29T13:41:17.824Z</time></trkpt><trkpt lat="45.9543753" lon="9.1465629"><ele>274.0</ele><time>2026-03-29T13:41:18.812Z</time></trkpt><trkpt lat="45.9543158" lon="9.1464034"><ele>274.0</ele><time>2026-03-29T13:41:19.826Z</time></trkpt><trkpt lat="45.9542449" lon="9.1462537"><ele>274.0</ele><time>2026-03-29T13:41:20.826Z</time></trkpt><trkpt lat="45.9541619" lon="9.146102"><ele>274.0</ele><time>2026-03-29T13:41:21.826Z</time></trkpt><trkpt lat="45.9540977" lon="9.1459726"><ele>274.0</ele><time>2026-03-29T13:41:22.825Z</time></trkpt><trkpt lat="45.9540321" lon="9.1458325"><ele>274.0</ele><time>2026-03-29T13:41:23.82Z</time></trkpt><trkpt lat="45.9539616" lon="9.1457053"><ele>274.0</ele><time>2026-03-29T13:41:24.832Z</time></trkpt><trkpt lat="45.9538872" lon="9.1455869"><ele>274.0</ele><time>2026-03-29T13:41:25.832Z</time></trkpt><trkpt lat="45.9538125" lon="9.1454684"><ele>274.0</ele><time>2026-03-29T13:41:26.83Z</time></trkpt><trkpt lat="45.953725" lon="9.1453211"><ele>274.0</ele><time>2026-03-29T13:41:27.82Z</time></trkpt><trkpt lat="45.9536296" lon="9.1451409"><ele>274.0</ele><time>2026-03-29T13:41:28.834Z</time></trkpt><trkpt lat="45.9535349" lon="9.1449066"><ele>282.0</ele><time>2026-03-29T13:41:29.838Z</time></trkpt><trkpt lat="45.953453" lon="9.1447034"><ele>290.0</ele><time>2026-03-29T13:41:30.827Z</time></trkpt><trkpt lat="45.9533673" lon="9.144525"><ele>298.0</ele><time>2026-03-29T13:41:31.825Z</time></trkpt><trkpt lat="45.9533037" lon="9.1443791"><ele>306.0</ele><time>2026-03-29T13:41:32.825Z</time></trkpt><trkpt lat="45.9532417" lon="9.1442493"><ele>297.0</ele><time>2026-03-29T13:41:33.82Z</time></trkpt><trkpt lat="45.953168" lon="9.1441383"><ele>288.0</ele><time>2026-03-29T13:41:34.818Z</time></trkpt><trkpt lat="45.9531054" lon="9.1440059"><ele>279.0</ele><time>2026-03-29T13:41:35.817Z</time></trkpt><trkpt lat="45.9530354" lon="9.1438545"><ele>270.0</ele><time>2026-03-29T13:41:36.826Z</time></trkpt><trkpt lat="45.9529649" lon="9.1436996"><ele>270.0</ele><time>2026-03-29T13:41:37.815Z</time></trkpt><trkpt lat="45.9528869" lon="9.1435261"><ele>270.0</ele><time>2026-03-29T13:41:38.815Z</time></trkpt><trkpt lat="45.9527875" lon="9.1433395"><ele>270.0</ele><time>2026-03-29T13:41:39.817Z</time></trkpt><trkpt lat="45.9526905" lon="9.1431354"><ele>271.0</ele><time>2026-03-29T13:41:40.816Z</time></trkpt><trkpt lat="45.9525827" lon="9.1428825"><ele>272.0</ele><time>2026-03-29T13:41:41.817Z</time></trkpt><trkpt lat="45.9524845" lon="9.1426025"><ele>273.0</ele><time>2026-03-29T13:41:42.831Z</time></trkpt><trkpt lat="45.9523674" lon="9.1423421"><ele>273.0</ele><time>2026-03-29T13:41:43.826Z</time></trkpt><trkpt lat="45.9522738" lon="9.1420993"><ele>273.0</ele><time>2026-03-29T13:41:44.827Z</time></trkpt><trkpt lat="45.9521705" lon="9.1418322"><ele>273.0</ele><time>2026-03-29T13:41:45.825Z</time></trkpt><trkpt lat="45.9520558" lon="9.1415728"><ele>287.3333333333333</ele><time>2026-03-29T13:41:46.822Z</time></trkpt><trkpt lat="45.9519519" lon="9.1413328"><ele>301.66666666666663</ele><time>2026-03-29T13:41:47.822Z</time></trkpt><trkpt lat="45.9518425" lon="9.141103"><ele>316.0</ele><time>2026-03-29T13:41:48.827Z</time></trkpt><trkpt lat="45.9517204" lon="9.1409056"><ele>305.0</ele><time>2026-03-29T13:41:49.818Z</time></trkpt><trkpt lat="45.9515786" lon="9.1407186"><ele>294.0</ele><time>2026-03-29T13:41:50.825Z</time></trkpt><trkpt lat="45.9514442" lon="9.1405448"><ele>283.0</ele><time>2026-03-29T13:41:51.827Z</time></trkpt><trkpt lat="45.9513216" lon="9.1403528"><ele>283.0</ele><time>2026-03-29T13:41:52.828Z</time></trkpt><trkpt lat="45.9511982" lon="9.1401746"><ele>283.0</ele><time>2026-03-29T13:41:53.832Z</time></trkpt><trkpt lat="45.95108" lon="9.140012"><ele>283.0</ele><time>2026-03-29T13:41:54.828Z</time></trkpt><trkpt lat="45.9509693" lon="9.1398389"><ele>270.0</ele><time>2026-03-29T13:41:55.824Z</time></trkpt><trkpt lat="45.950859" lon="9.139656"><ele>257.0</ele><time>2026-03-29T13:41:56.819Z</time></trkpt><trkpt lat="45.950755" lon="9.1394688"><ele>244.0</ele><time>2026-03-29T13:41:57.825Z</time></trkpt><trkpt lat="45.9506533" lon="9.139302"><ele>244.0</ele><time>2026-03-29T13:41:58.826Z</time></trkpt><trkpt lat="45.9505455" lon="9.1391374"><ele>244.0</ele><time>2026-03-29T13:41:59.827Z</time></trkpt><trkpt lat="45.950434" lon="9.1389678"><ele>244.0</ele><time>2026-03-29T13:42:00.827Z</time></trkpt><trkpt lat="45.9503341" lon="9.1388157"><ele>241.5</ele><time>2026-03-29T13:42:01.82Z</time></trkpt><trkpt lat="45.9502496" lon="9.1386569"><ele>239.0</ele><time>2026-03-29T13:42:02.82Z</time></trkpt><trkpt lat="45.9501568" lon="9.1385056"><ele>236.5</ele><time>2026-03-29T13:42:03.822Z</time></trkpt><trkpt lat="45.950062" lon="9.1383531"><ele>234.0</ele><time>2026-03-29T13:42:04.823Z</time></trkpt><trkpt lat="45.9499669" lon="9.1382202"><ele>244.75</ele><time>2026-03-29T13:42:05.821Z</time></trkpt><trkpt lat="45.9498705" lon="9.1380755"><ele>255.5</ele><time>2026-03-29T13:42:06.823Z</time></trkpt><trkpt lat="45.9497751" lon="9.1379355"><ele>266.25</ele><time>2026-03-29T13:42:07.822Z</time></trkpt><trkpt lat="45.9496807" lon="9.1377983"><ele>277.0</ele><time>2026-03-29T13:42:08.829Z</time></trkpt><trkpt lat="45.9495747" lon="9.1376685"><ele>277.0</ele><time>2026-03-29T13:42:09.827Z</time></trkpt><trkpt lat="45.9494787" lon="9.1375392"><ele>277.0</ele><time>2026-03-29T13:42:10.83Z</time></trkpt><trkpt lat="45.9494055" lon="9.1374044"><ele>277.0</ele><time>2026-03-29T13:42:11.831Z</time></trkpt><trkpt lat="45.9493174" lon="9.137282"><ele>277.0</ele><time>2026-03-29T13:42:12.826Z</time></trkpt><trkpt lat="45.9492337" lon="9.1371278"><ele>276.0</ele><time>2026-03-29T13:42:13.823Z</time></trkpt><trkpt lat="45.9491261" lon="9.1370123"><ele>275.0</ele><time>2026-03-29T13:42:14.823Z</time></trkpt><trkpt lat="45.9490262" lon="9.1368576"><ele>274.0</ele><time>2026-03-29T13:42:15.822Z</time></trkpt><trkpt lat="45.9489379" lon="9.1367004"><ele>273.0</ele><time>2026-03-29T13:42:16.826Z</time></trkpt><trkpt lat="45.9488741" lon="9.1365106"><ele>273.0</ele><time>2026-03-29T13:42:17.824Z</time></trkpt><trkpt lat="45.9488331" lon="9.136292"><ele>273.0</ele><time>2026-03-29T13:42:18.851Z</time></trkpt><trkpt lat="45.9487808" lon="9.1360871"><ele>273.0</ele><time>2026-03-29T13:42:19.827Z</time></trkpt><trkpt lat="45.9487137" lon="9.1359442"><ele>273.0</ele><time>2026-03-29T13:42:20.82Z</time></trkpt><trkpt lat="45.948622" lon="9.1357949"><ele>279.6666666666667</ele><time>2026-03-29T13:42:21.823Z</time></trkpt><trkpt lat="45.9485406" lon="9.1356197"><ele>286.33333333333337</ele><time>2026-03-29T13:42:22.835Z</time></trkpt><trkpt lat="45.9484727" lon="9.1354173"><ele>293.0</ele><time>2026-03-29T13:42:23.832Z</time></trkpt><trkpt lat="45.9483924" lon="9.1352364"><ele>285.25</ele><time>2026-03-29T13:42:24.836Z</time></trkpt><trkpt lat="45.9482964" lon="9.1350665"><ele>277.5</ele><time>2026-03-29T13:42:25.834Z</time></trkpt><trkpt lat="45.948193" lon="9.1349136"><ele>269.75</ele><time>2026-03-29T13:42:26.829Z</time></trkpt><trkpt lat="45.9481038" lon="9.1347689"><ele>262.0</ele><time>2026-03-29T13:42:27.831Z</time></trkpt><trkpt lat="45.948004" lon="9.1346161"><ele>262.0</ele><time>2026-03-29T13:42:28.832Z</time></trkpt><trkpt lat="45.947898" lon="9.1344383"><ele>262.0</ele><time>2026-03-29T13:42:29.837Z</time></trkpt><trkpt lat="45.9477989" lon="9.134234"><ele>262.0</ele><time>2026-03-29T13:42:30.83Z</time></trkpt><trkpt lat="45.9476836" lon="9.1340331"><ele>271.66666666666663</ele><time>2026-03-29T13:42:31.833Z</time></trkpt><trkpt lat="45.9475945" lon="9.133824"><ele>281.3333333333333</ele><time>2026-03-29T13:42:32.827Z</time></trkpt><trkpt lat="45.9475288" lon="9.133568"><ele>291.0</ele><time>2026-03-29T13:42:33.823Z</time></trkpt><trkpt lat="45.9474786" lon="9.1333374"><ele>273.6666666666667</ele><time>2026-03-29T13:42:34.827Z</time></trkpt><trkpt lat="45.947429" lon="9.1331286"><ele>256.33333333333337</ele><time>2026-03-29T13:42:35.823Z</time></trkpt><trkpt lat="45.9473838" lon="9.1329182"><ele>239.0</ele><time>2026-03-29T13:42:36.847Z</time></trkpt><trkpt lat="45.9473589" lon="9.1326949"><ele>239.0</ele><time>2026-03-29T13:42:37.847Z</time></trkpt><trkpt lat="45.9473236" lon="9.1324691"><ele>239.0</ele><time>2026-03-29T13:42:38.827Z</time></trkpt><trkpt lat="45.9472963" lon="9.1322365"><ele>239.0</ele><time>2026-03-29T13:42:39.834Z</time></trkpt><trkpt lat="45.94727" lon="9.1320045"><ele>241.0</ele><time>2026-03-29T13:42:40.84Z</time></trkpt><trkpt lat="45.9472215" lon="9.131796"><ele>243.0</ele><time>2026-03-29T13:42:41.829Z</time></trkpt><trkpt lat="45.9471753" lon="9.1316227"><ele>245.0</ele><time>2026-03-29T13:42:42.834Z</time></trkpt><trkpt lat="45.9471243" lon="9.1314437"><ele>247.0</ele><time>2026-03-29T13:42:43.831Z</time></trkpt><trkpt lat="45.9470716" lon="9.131276"><ele>251.0</ele><time>2026-03-29T13:42:44.832Z</time></trkpt><trkpt lat="45.9470012" lon="9.1311385"><ele>255.0</ele><time>2026-03-29T13:42:45.831Z</time></trkpt><trkpt lat="45.9469397" lon="9.1309893"><ele>259.0</ele><time>2026-03-29T13:42:46.832Z</time></trkpt><trkpt lat="45.9468798" lon="9.1308805"><ele>263.0</ele><time>2026-03-29T13:42:47.836Z</time></trkpt><trkpt lat="45.9468261" lon="9.1307781"><ele>267.0</ele><time>2026-03-29T13:42:48.841Z</time></trkpt><trkpt lat="45.9467727" lon="9.1306717"><ele>269.4</ele><time>2026-03-29T13:42:49.843Z</time></trkpt><trkpt lat="45.9467221" lon="9.1305651"><ele>271.79999999999995</ele><time>2026-03-29T13:42:50.844Z</time></trkpt><trkpt lat="45.946665" lon="9.1304525"><ele>274.2</ele><time>2026-03-29T13:42:51.838Z</time></trkpt><trkpt lat="45.9466012" lon="9.1303491"><ele>276.59999999999997</ele><time>2026-03-29T13:42:52.834Z</time></trkpt><trkpt lat="45.9465427" lon="9.1302495"><ele>279.0</ele><time>2026-03-29T13:42:53.838Z</time></trkpt><trkpt lat="45.9464838" lon="9.1301338"><ele>271.25</ele><time>2026-03-29T13:42:54.831Z</time></trkpt><trkpt lat="45.946412" lon="9.1300021"><ele>263.5</ele><time>2026-03-29T13:42:55.825Z</time></trkpt><trkpt lat="45.9463201" lon="9.1298483"><ele>255.75</ele><time>2026-03-29T13:42:56.837Z</time></trkpt><trkpt lat="45.946223" lon="9.1296739"><ele>248.0</ele><time>2026-03-29T13:42:57.834Z</time></trkpt><trkpt lat="45.946098" lon="9.1294797"><ele>248.0</ele><time>2026-03-29T13:42:58.836Z</time></trkpt><trkpt lat="45.9459787" lon="9.12932"><ele>248.0</ele><time>2026-03-29T13:42:59.84Z</time></trkpt><trkpt lat="45.9458697" lon="9.1291713"><ele>248.0</ele><time>2026-03-29T13:43:00.829Z</time></trkpt><trkpt lat="45.9457519" lon="9.1290259"><ele>243.25</ele><time>2026-03-29T13:43:01.823Z</time></trkpt><trkpt lat="45.945649" lon="9.1288484"><ele>238.5</ele><time>2026-03-29T13:43:02.821Z</time></trkpt><trkpt lat="45.9455581" lon="9.1287133"><ele>233.75</ele><time>2026-03-29T13:43:03.824Z</time></trkpt><trkpt lat="45.9454468" lon="9.1285955"><ele>229.0</ele><time>2026-03-29T13:43:04.812Z</time></trkpt><trkpt lat="45.9453348" lon="9.1285059"><ele>229.0</ele><time>2026-03-29T13:43:05.811Z</time></trkpt><trkpt lat="45.9452515" lon="9.1283965"><ele>228.99999999999997</ele><time>2026-03-29T13:43:06.819Z</time></trkpt><trkpt lat="45.9451848" lon="9.1283054"><ele>228.99999999999997</ele><time>2026-03-29T13:43:07.823Z</time></trkpt><trkpt lat="45.9451176" lon="9.1282281"><ele>229.0</ele><time>2026-03-29T13:43:08.833Z</time></trkpt><trkpt lat="45.9450542" lon="9.1281707"><ele>229.0</ele><time>2026-03-29T13:43:09.824Z</time></trkpt><trkpt lat="45.944956" lon="9.1280973"><ele>230.0</ele><time>2026-03-29T13:43:11.831Z</time></trkpt><trkpt lat="45.9448765" lon="9.1280333"><ele>230.99999999999997</ele><time>2026-03-29T13:43:13.831Z</time></trkpt><trkpt lat="45.9447973" lon="9.1279549"><ele>231.99999999999997</ele><time>2026-03-29T13:43:15.823Z</time></trkpt><trkpt lat="45.9446861" lon="9.1278554"><ele>233.0</ele><time>2026-03-29T13:43:17.83Z</time></trkpt><trkpt lat="45.9446143" lon="9.1278053"><ele>234.0</ele><time>2026-03-29T13:43:18.823Z</time></trkpt><trkpt lat="45.944543" lon="9.1277622"><ele>234.0</ele><time>2026-03-29T13:43:19.83Z</time></trkpt><trkpt lat="45.9444764" lon="9.1277084"><ele>234.00000000000003</ele><time>2026-03-29T13:43:20.824Z</time></trkpt><trkpt lat="45.9444168" lon="9.1276642"><ele>234.0</ele><time>2026-03-29T13:43:21.82Z</time></trkpt><trkpt lat="45.9443589" lon="9.1276272"><ele>234.0</ele><time>2026-03-29T13:43:22.821Z</time></trkpt><trkpt lat="45.9442904" lon="9.1276072"><ele>234.00000000000003</ele><time>2026-03-29T13:43:23.817Z</time></trkpt><trkpt lat="45.944213" lon="9.1276318"><ele>234.0</ele><time>2026-03-29T13:43:24.814Z</time></trkpt><trkpt lat="45.9441478" lon="9.1276568"><ele>234.0</ele><time>2026-03-29T13:43:25.819Z</time></trkpt><trkpt lat="45.9440867" lon="9.1277165"><ele>229.25</ele><time>2026-03-29T13:43:26.817Z</time></trkpt><trkpt lat="45.9440168" lon="9.1278444"><ele>224.5</ele><time>2026-03-29T13:43:27.819Z</time></trkpt><trkpt lat="45.9439359" lon="9.1279945"><ele>219.75</ele><time>2026-03-29T13:43:28.84Z</time></trkpt><trkpt lat="45.9438637" lon="9.1281218"><ele>215.0</ele><time>2026-03-29T13:43:29.838Z</time></trkpt><trkpt lat="45.9437973" lon="9.1282475"><ele>212.6</ele><time>2026-03-29T13:43:30.831Z</time></trkpt><trkpt lat="45.943728" lon="9.1283585"><ele>210.2</ele><time>2026-03-29T13:43:31.819Z</time></trkpt><trkpt lat="45.9436551" lon="9.1284532"><ele>207.8</ele><time>2026-03-29T13:43:32.832Z</time></trkpt><trkpt lat="45.9435776" lon="9.1285162"><ele>205.4</ele><time>2026-03-29T13:43:33.832Z</time></trkpt><trkpt lat="45.9434968" lon="9.1285451"><ele>203.0</ele><time>2026-03-29T13:43:34.828Z</time></trkpt><trkpt lat="45.9434206" lon="9.1285538"><ele>203.50000000000003</ele><time>2026-03-29T13:43:35.825Z</time></trkpt><trkpt lat="45.9433166" lon="9.1285125"><ele>204.0</ele><time>2026-03-29T13:43:37.824Z</time></trkpt><trkpt lat="45.9432309" lon="9.1284291"><ele>204.5</ele><time>2026-03-29T13:43:39.832Z</time></trkpt><trkpt lat="45.9431661" lon="9.1283545"><ele>205.0</ele><time>2026-03-29T13:43:41.841Z</time></trkpt><trkpt lat="45.9431096" lon="9.1283083"><ele>205.50000000000003</ele><time>2026-03-29T13:43:44.84Z</time></trkpt><trkpt lat="45.9430316" lon="9.1282635"><ele>206.0</ele><time>2026-03-29T13:43:50.842Z</time></trkpt><trkpt lat="45.9429561" lon="9.12825"><ele>208.0</ele><time>2026-03-29T13:43:52.842Z</time></trkpt><trkpt lat="45.9428614" lon="9.1282214"><ele>210.0</ele><time>2026-03-29T13:43:54.829Z</time></trkpt><trkpt lat="45.942722" lon="9.1281926"><ele>212.0</ele><time>2026-03-29T13:43:56.823Z</time></trkpt><trkpt lat="45.942624" lon="9.1281786"><ele>214.0</ele><time>2026-03-29T13:43:57.82Z</time></trkpt><trkpt lat="45.9425014" lon="9.1281688"><ele>215.6</ele><time>2026-03-29T13:43:58.82Z</time></trkpt><trkpt lat="45.9423935" lon="9.1281608"><ele>217.2</ele><time>2026-03-29T13:43:59.833Z</time></trkpt><trkpt lat="45.942294" lon="9.1281487"><ele>218.79999999999998</ele><time>2026-03-29T13:44:00.826Z</time></trkpt><trkpt lat="45.9422033" lon="9.128146"><ele>220.39999999999998</ele><time>2026-03-29T13:44:01.827Z</time></trkpt><trkpt lat="45.9421228" lon="9.1281501"><ele>222.0</ele><time>2026-03-29T13:44:02.826Z</time></trkpt><trkpt lat="45.9420352" lon="9.1281544"><ele>222.0</ele><time>2026-03-29T13:44:03.829Z</time></trkpt><trkpt lat="45.9419437" lon="9.1281465"><ele>222.0</ele><time>2026-03-29T13:44:04.824Z</time></trkpt><trkpt lat="45.941841" lon="9.1281376"><ele>222.0</ele><time>2026-03-29T13:44:05.831Z</time></trkpt><trkpt lat="45.9417329" lon="9.1281292"><ele>222.0</ele><time>2026-03-29T13:44:06.824Z</time></trkpt><trkpt lat="45.9416221" lon="9.1281177"><ele>222.0</ele><time>2026-03-29T13:44:07.827Z</time></trkpt><trkpt lat="45.9415134" lon="9.1281206"><ele>224.0</ele><time>2026-03-29T13:44:08.826Z</time></trkpt><trkpt lat="45.9414254" lon="9.1281176"><ele>226.0</ele><time>2026-03-29T13:44:09.83Z</time></trkpt><trkpt lat="45.9413478" lon="9.1281168"><ele>228.0</ele><time>2026-03-29T13:44:10.825Z</time></trkpt><trkpt lat="45.9412743" lon="9.1281326"><ele>230.0</ele><time>2026-03-29T13:44:11.828Z</time></trkpt><trkpt lat="45.9411909" lon="9.1281592"><ele>232.0</ele><time>2026-03-29T13:44:12.82Z</time></trkpt><trkpt lat="45.9411079" lon="9.1281821"><ele>234.0</ele><time>2026-03-29T13:44:13.816Z</time></trkpt><trkpt lat="45.9410213" lon="9.1282042"><ele>229.39999999999998</ele><time>2026-03-29T13:44:14.821Z</time></trkpt><trkpt lat="45.9409292" lon="9.128238"><ele>224.79999999999998</ele><time>2026-03-29T13:44:15.819Z</time></trkpt><trkpt lat="45.9408326" lon="9.1282595"><ele>220.2</ele><time>2026-03-29T13:44:16.818Z</time></trkpt><trkpt lat="45.9407352" lon="9.1282791"><ele>215.60000000000002</ele><time>2026-03-29T13:44:17.827Z</time></trkpt><trkpt lat="45.9406365" lon="9.1283024"><ele>211.0</ele><time>2026-03-29T13:44:18.822Z</time></trkpt><trkpt lat="45.9405269" lon="9.1283187"><ele>211.0</ele><time>2026-03-29T13:44:19.823Z</time></trkpt><trkpt lat="45.9404186" lon="9.1283095"><ele>211.0</ele><time>2026-03-29T13:44:20.822Z</time></trkpt><trkpt lat="45.940316" lon="9.1282911"><ele>211.0</ele><time>2026-03-29T13:44:21.821Z</time></trkpt><trkpt lat="45.9402172" lon="9.1282693"><ele>211.0</ele><time>2026-03-29T13:44:22.811Z</time></trkpt><trkpt lat="45.9401268" lon="9.1282513"><ele>211.0</ele><time>2026-03-29T13:44:23.819Z</time></trkpt><trkpt lat="45.9400494" lon="9.1282419"><ele>212.28571428571428</ele><time>2026-03-29T13:44:24.818Z</time></trkpt><trkpt lat="45.9399828" lon="9.1282398"><ele>213.57142857142858</ele><time>2026-03-29T13:44:25.815Z</time></trkpt><trkpt lat="45.9399158" lon="9.1282417"><ele>214.85714285714283</ele><time>2026-03-29T13:44:26.819Z</time></trkpt><trkpt lat="45.9398459" lon="9.1282349"><ele>216.14285714285714</ele><time>2026-03-29T13:44:27.818Z</time></trkpt><trkpt lat="45.9397724" lon="9.1282036"><ele>217.42857142857142</ele><time>2026-03-29T13:44:28.813Z</time></trkpt><trkpt lat="45.939706" lon="9.1281632"><ele>218.7142857142857</ele><time>2026-03-29T13:44:29.814Z</time></trkpt><trkpt lat="45.9396351" lon="9.1281102"><ele>220.0</ele><time>2026-03-29T13:44:30.816Z</time></trkpt><trkpt lat="45.9395607" lon="9.1280371"><ele>225.8</ele><time>2026-03-29T13:44:31.81Z</time></trkpt><trkpt lat="45.9394797" lon="9.1279713"><ele>231.6</ele><time>2026-03-29T13:44:32.812Z</time></trkpt><trkpt lat="45.9393805" lon="9.1279246"><ele>237.39999999999998</ele><time>2026-03-29T13:44:33.808Z</time></trkpt><trkpt lat="45.9392619" lon="9.1279077"><ele>243.2</ele><time>2026-03-29T13:44:34.815Z</time></trkpt><trkpt lat="45.9391292" lon="9.1279114"><ele>249.0</ele><time>2026-03-29T13:44:35.808Z</time></trkpt><trkpt lat="45.9389768" lon="9.1279396"><ele>252.0</ele><time>2026-03-29T13:44:36.82Z</time></trkpt><trkpt lat="45.9388106" lon="9.1279837"><ele>255.0</ele><time>2026-03-29T13:44:37.818Z</time></trkpt><trkpt lat="45.9386578" lon="9.1280233"><ele>258.0</ele><time>2026-03-29T13:44:38.815Z</time></trkpt><trkpt lat="45.9385204" lon="9.1280234"><ele>256.25</ele><time>2026-03-29T13:44:39.814Z</time></trkpt><trkpt lat="45.9383723" lon="9.1280133"><ele>254.5</ele><time>2026-03-29T13:44:40.82Z</time></trkpt><trkpt lat="45.9382278" lon="9.1280137"><ele>252.75</ele><time>2026-03-29T13:44:41.822Z</time></trkpt><trkpt lat="45.9381045" lon="9.1280242"><ele>251.0</ele><time>2026-03-29T13:44:42.818Z</time></trkpt><trkpt lat="45.9379978" lon="9.1280526"><ele>251.0</ele><time>2026-03-29T13:44:43.817Z</time></trkpt><trkpt lat="45.9378914" lon="9.1280822"><ele>251.0</ele><time>2026-03-29T13:44:44.819Z</time></trkpt><trkpt lat="45.9377707" lon="9.1281266"><ele>251.0</ele><time>2026-03-29T13:44:45.816Z</time></trkpt><trkpt lat="45.9376095" lon="9.1282062"><ele>251.0</ele><time>2026-03-29T13:44:46.816Z</time></trkpt><trkpt lat="45.9374647" lon="9.1282445"><ele>242.75</ele><time>2026-03-29T13:44:47.815Z</time></trkpt><trkpt lat="45.9373425" lon="9.1282792"><ele>234.5</ele><time>2026-03-29T13:44:48.823Z</time></trkpt><trkpt lat="45.9372397" lon="9.1283169"><ele>226.25</ele><time>2026-03-29T13:44:49.819Z</time></trkpt><trkpt lat="45.937125" lon="9.1283688"><ele>218.0</ele><time>2026-03-29T13:44:50.812Z</time></trkpt><trkpt lat="45.937029" lon="9.1284082"><ele>218.0</ele><time>2026-03-29T13:44:51.821Z</time></trkpt><trkpt lat="45.936946" lon="9.1284182"><ele>218.0</ele><time>2026-03-29T13:44:52.819Z</time></trkpt><trkpt lat="45.9368754" lon="9.1284379"><ele>218.0</ele><time>2026-03-29T13:44:53.819Z</time></trkpt><trkpt lat="45.9367878" lon="9.1284575"><ele>218.0</ele><time>2026-03-29T13:44:54.824Z</time></trkpt><trkpt lat="45.9366862" lon="9.128471"><ele>218.0</ele><time>2026-03-29T13:44:55.816Z</time></trkpt><trkpt lat="45.9365799" lon="9.1284785"><ele>221.4</ele><time>2026-03-29T13:44:56.818Z</time></trkpt><trkpt lat="45.9364743" lon="9.1284614"><ele>224.8</ele><time>2026-03-29T13:44:57.818Z</time></trkpt><trkpt lat="45.9363713" lon="9.1284278"><ele>228.2</ele><time>2026-03-29T13:44:58.822Z</time></trkpt><trkpt lat="45.9362601" lon="9.1283856"><ele>231.6</ele><time>2026-03-29T13:44:59.826Z</time></trkpt><trkpt lat="45.9361431" lon="9.128344"><ele>235.0</ele><time>2026-03-29T13:45:00.805Z</time></trkpt><trkpt lat="45.9360252" lon="9.1283033"><ele>235.0</ele><time>2026-03-29T13:45:01.805Z</time></trkpt><trkpt lat="45.9359178" lon="9.1282688"><ele>235.0</ele><time>2026-03-29T13:45:02.807Z</time></trkpt><trkpt lat="45.9358161" lon="9.1282454"><ele>235.0</ele><time>2026-03-29T13:45:03.81Z</time></trkpt><trkpt lat="45.9357119" lon="9.1282341"><ele>235.0</ele><time>2026-03-29T13:45:04.811Z</time></trkpt><trkpt lat="45.9356045" lon="9.128221"><ele>235.0</ele><time>2026-03-29T13:45:05.807Z</time></trkpt><trkpt lat="45.9355002" lon="9.1282014"><ele>243.4</ele><time>2026-03-29T13:45:06.814Z</time></trkpt><trkpt lat="45.9353965" lon="9.1281886"><ele>251.8</ele><time>2026-03-29T13:45:07.81Z</time></trkpt><trkpt lat="45.9352908" lon="9.1281708"><ele>260.2</ele><time>2026-03-29T13:45:08.814Z</time></trkpt><trkpt lat="45.93518" lon="9.1281508"><ele>268.6</ele><time>2026-03-29T13:45:09.81Z</time></trkpt><trkpt lat="45.9350762" lon="9.1281373"><ele>277.0</ele><time>2026-03-29T13:45:10.81Z</time></trkpt><trkpt lat="45.9349744" lon="9.1281218"><ele>277.0</ele><time>2026-03-29T13:45:11.81Z</time></trkpt><trkpt lat="45.9348747" lon="9.1281136"><ele>277.0</ele><time>2026-03-29T13:45:12.807Z</time></trkpt><trkpt lat="45.9347642" lon="9.1281143"><ele>277.0</ele><time>2026-03-29T13:45:13.804Z</time></trkpt><trkpt lat="45.9346253" lon="9.1281346"><ele>277.0</ele><time>2026-03-29T13:45:14.807Z</time></trkpt><trkpt lat="45.934463" lon="9.1281695"><ele>277.0</ele><time>2026-03-29T13:45:15.809Z</time></trkpt><trkpt lat="45.9342463" lon="9.1282231"><ele>277.0</ele><time>2026-03-29T13:45:16.802Z</time></trkpt><trkpt lat="45.9339906" lon="9.1283377"><ele>257.66666666666663</ele><time>2026-03-29T13:45:17.809Z</time></trkpt><trkpt lat="45.9337872" lon="9.1283968"><ele>238.33333333333331</ele><time>2026-03-29T13:45:18.804Z</time></trkpt><trkpt lat="45.933582" lon="9.1284275"><ele>219.0</ele><time>2026-03-29T13:45:19.81Z</time></trkpt><trkpt lat="45.9334007" lon="9.128484"><ele>221.0</ele><time>2026-03-29T13:45:20.811Z</time></trkpt><trkpt lat="45.9332217" lon="9.1285485"><ele>223.0</ele><time>2026-03-29T13:45:21.807Z</time></trkpt><trkpt lat="45.9330442" lon="9.1286056"><ele>225.0</ele><time>2026-03-29T13:45:22.815Z</time></trkpt><trkpt lat="45.932879" lon="9.1285745"><ele>225.0</ele><time>2026-03-29T13:45:23.808Z</time></trkpt><trkpt lat="45.9327025" lon="9.1285275"><ele>225.0</ele><time>2026-03-29T13:45:24.806Z</time></trkpt><trkpt lat="45.9325066" lon="9.1284943"><ele>225.0</ele><time>2026-03-29T13:45:25.804Z</time></trkpt><trkpt lat="45.9323092" lon="9.1284429"><ele>224.66666666666669</ele><time>2026-03-29T13:45:26.81Z</time></trkpt><trkpt lat="45.9321225" lon="9.1283922"><ele>224.33333333333334</ele><time>2026-03-29T13:45:27.799Z</time></trkpt><trkpt lat="45.9319399" lon="9.1283412"><ele>224.0</ele><time>2026-03-29T13:45:28.806Z</time></trkpt><trkpt lat="45.9317643" lon="9.1282952"><ele>223.33333333333334</ele><time>2026-03-29T13:45:29.813Z</time></trkpt><trkpt lat="45.9315834" lon="9.1282983"><ele>222.66666666666669</ele><time>2026-03-29T13:45:30.805Z</time></trkpt><trkpt lat="45.9313938" lon="9.1283551"><ele>222.0</ele><time>2026-03-29T13:45:31.808Z</time></trkpt><trkpt lat="45.9312158" lon="9.1283989"><ele>222.0</ele><time>2026-03-29T13:45:32.804Z</time></trkpt><trkpt lat="45.9310442" lon="9.1284052"><ele>222.0</ele><time>2026-03-29T13:45:33.81Z</time></trkpt><trkpt lat="45.9308794" lon="9.1284267"><ele>222.0</ele><time>2026-03-29T13:45:34.812Z</time></trkpt><trkpt lat="45.930726" lon="9.1284962"><ele>227.66666666666669</ele><time>2026-03-29T13:45:35.811Z</time></trkpt><trkpt lat="45.9305602" lon="9.1285651"><ele>233.33333333333334</ele><time>2026-03-29T13:45:36.811Z</time></trkpt><trkpt lat="45.9304141" lon="9.1286499"><ele>239.0</ele><time>2026-03-29T13:45:37.806Z</time></trkpt><trkpt lat="45.9302742" lon="9.128714"><ele>239.0</ele><time>2026-03-29T13:45:38.812Z</time></trkpt><trkpt lat="45.9301273" lon="9.1288113"><ele>239.0</ele><time>2026-03-29T13:45:39.799Z</time></trkpt><trkpt lat="45.9299797" lon="9.1289545"><ele>239.0</ele><time>2026-03-29T13:45:40.798Z</time></trkpt><trkpt lat="45.9298955" lon="9.1291063"><ele>233.75</ele><time>2026-03-29T13:45:41.798Z</time></trkpt><trkpt lat="45.9298047" lon="9.1292663"><ele>228.5</ele><time>2026-03-29T13:45:42.801Z</time></trkpt><trkpt lat="45.9297027" lon="9.1293896"><ele>223.25</ele><time>2026-03-29T13:45:43.798Z</time></trkpt><trkpt lat="45.9296066" lon="9.1294844"><ele>218.0</ele><time>2026-03-29T13:45:44.796Z</time></trkpt><trkpt lat="45.9295288" lon="9.1295577"><ele>218.0</ele><time>2026-03-29T13:45:45.799Z</time></trkpt><trkpt lat="45.9294456" lon="9.1295951"><ele>218.0</ele><time>2026-03-29T13:45:46.797Z</time></trkpt><trkpt lat="45.929355" lon="9.1296359"><ele>218.0</ele><time>2026-03-29T13:45:47.801Z</time></trkpt><trkpt lat="45.9292722" lon="9.1296805"><ele>218.0</ele><time>2026-03-29T13:45:48.803Z</time></trkpt><trkpt lat="45.929187" lon="9.129736"><ele>218.0</ele><time>2026-03-29T13:45:49.806Z</time></trkpt><trkpt lat="45.929094" lon="9.1297992"><ele>216.83333333333334</ele><time>2026-03-29T13:45:50.803Z</time></trkpt><trkpt lat="45.9290058" lon="9.129848"><ele>215.66666666666669</ele><time>2026-03-29T13:45:51.799Z</time></trkpt><trkpt lat="45.9289168" lon="9.1298907"><ele>214.5</ele><time>2026-03-29T13:45:52.804Z</time></trkpt><trkpt lat="45.9288286" lon="9.1299259"><ele>213.33333333333331</ele><time>2026-03-29T13:45:53.805Z</time></trkpt><trkpt lat="45.928748" lon="9.1299531"><ele>212.16666666666666</ele><time>2026-03-29T13:45:54.799Z</time></trkpt><trkpt lat="45.9286702" lon="9.1299812"><ele>211.0</ele><time>2026-03-29T13:45:55.803Z</time></trkpt><trkpt lat="45.9285967" lon="9.130014"><ele>210.99999999999997</ele><time>2026-03-29T13:45:56.804Z</time></trkpt><trkpt lat="45.9285072" lon="9.1300507"><ele>211.0</ele><time>2026-03-29T13:45:58.811Z</time></trkpt><trkpt lat="45.928429" lon="9.1300432"><ele>211.0</ele><time>2026-03-29T13:46:01.819Z</time></trkpt><trkpt lat="45.9283486" lon="9.1300406"><ele>211.0</ele><time>2026-03-29T13:46:04.819Z</time></trkpt><trkpt lat="45.9282848" lon="9.130062"><ele>210.99999999999997</ele><time>2026-03-29T13:46:06.822Z</time></trkpt><trkpt lat="45.9281901" lon="9.1301006"><ele>211.0</ele><time>2026-03-29T13:46:08.813Z</time></trkpt><trkpt lat="45.9280902" lon="9.130128"><ele>212.49999999999997</ele><time>2026-03-29T13:46:10.811Z</time></trkpt><trkpt lat="45.9279712" lon="9.130155"><ele>214.0</ele><time>2026-03-29T13:46:12.813Z</time></trkpt><trkpt lat="45.9279014" lon="9.1301858"><ele>215.5</ele><time>2026-03-29T13:46:13.807Z</time></trkpt><trkpt lat="45.9278411" lon="9.1302159"><ele>217.0</ele><time>2026-03-29T13:46:14.806Z</time></trkpt><trkpt lat="45.9277314" lon="9.1302654"><ele>218.49999999999997</ele><time>2026-03-29T13:46:16.806Z</time></trkpt><trkpt lat="45.9276722" lon="9.1303004"><ele>220.0</ele><time>2026-03-29T13:46:17.801Z</time></trkpt><trkpt lat="45.9275658" lon="9.1303568"><ele>226.2</ele><time>2026-03-29T13:46:19.806Z</time></trkpt><trkpt lat="45.9274541" lon="9.1303978"><ele>232.4</ele><time>2026-03-29T13:46:21.805Z</time></trkpt><trkpt lat="45.9273373" lon="9.130471"><ele>238.60000000000002</ele><time>2026-03-29T13:46:23.802Z</time></trkpt><trkpt lat="45.9272809" lon="9.1305161"><ele>244.8</ele><time>2026-03-29T13:46:24.805Z</time></trkpt><trkpt lat="45.9272153" lon="9.1305612"><ele>251.0</ele><time>2026-03-29T13:46:25.797Z</time></trkpt><trkpt lat="45.9271501" lon="9.1306089"><ele>251.0</ele><time>2026-03-29T13:46:26.804Z</time></trkpt><trkpt lat="45.9270754" lon="9.1306641"><ele>251.00000000000003</ele><time>2026-03-29T13:46:27.795Z</time></trkpt><trkpt lat="45.9269969" lon="9.1307402"><ele>251.00000000000003</ele><time>2026-03-29T13:46:28.799Z</time></trkpt><trkpt lat="45.9269083" lon="9.1308054"><ele>251.0</ele><time>2026-03-29T13:46:29.889Z</time></trkpt><trkpt lat="45.926804" lon="9.130826"><ele>251.0</ele><time>2026-03-29T13:46:30.825Z</time></trkpt><trkpt lat="45.9267044" lon="9.1308761"><ele>244.25</ele><time>2026-03-29T13:46:31.807Z</time></trkpt><trkpt lat="45.9265913" lon="9.1309167"><ele>237.5</ele><time>2026-03-29T13:46:32.809Z</time></trkpt><trkpt lat="45.926445" lon="9.1309375"><ele>230.75</ele><time>2026-03-29T13:46:33.806Z</time></trkpt><trkpt lat="45.9262717" lon="9.1309445"><ele>224.0</ele><time>2026-03-29T13:46:34.807Z</time></trkpt><trkpt lat="45.9260644" lon="9.1309564"><ele>224.0</ele><time>2026-03-29T13:46:35.808Z</time></trkpt><trkpt lat="45.9259185" lon="9.1310068"><ele>224.0</ele><time>2026-03-29T13:46:36.804Z</time></trkpt><trkpt lat="45.9257841" lon="9.1310318"><ele>224.0</ele><time>2026-03-29T13:46:37.809Z</time></trkpt><trkpt lat="45.925643" lon="9.1310596"><ele>224.0</ele><time>2026-03-29T13:46:38.812Z</time></trkpt><trkpt lat="45.9254862" lon="9.1310702"><ele>225.75</ele><time>2026-03-29T13:46:39.808Z</time></trkpt><trkpt lat="45.9253411" lon="9.1310553"><ele>227.5</ele><time>2026-03-29T13:46:40.813Z</time></trkpt><trkpt lat="45.9252028" lon="9.1310206"><ele>229.25</ele><time>2026-03-29T13:46:41.81Z</time></trkpt><trkpt lat="45.9250705" lon="9.1309423"><ele>231.0</ele><time>2026-03-29T13:46:42.809Z</time></trkpt><trkpt lat="45.9249365" lon="9.1308717"><ele>232.0</ele><time>2026-03-29T13:46:43.809Z</time></trkpt><trkpt lat="45.9248096" lon="9.1308053"><ele>233.0</ele><time>2026-03-29T13:46:44.807Z</time></trkpt><trkpt lat="45.9246693" lon="9.1307774"><ele>234.0</ele><time>2026-03-29T13:46:45.814Z</time></trkpt><trkpt lat="45.9245383" lon="9.130784"><ele>235.0</ele><time>2026-03-29T13:46:46.801Z</time></trkpt><trkpt lat="45.9244197" lon="9.1308331"><ele>235.0</ele><time>2026-03-29T13:46:47.807Z</time></trkpt><trkpt lat="45.924276" lon="9.1309214"><ele>235.0</ele><time>2026-03-29T13:46:48.809Z</time></trkpt><trkpt lat="45.9241038" lon="9.1310818"><ele>235.0</ele><time>2026-03-29T13:46:49.81Z</time></trkpt><trkpt lat="45.9239246" lon="9.1312182"><ele>240.33333333333331</ele><time>2026-03-29T13:46:50.804Z</time></trkpt><trkpt lat="45.9237498" lon="9.1313226"><ele>245.66666666666669</ele><time>2026-03-29T13:46:51.808Z</time></trkpt><trkpt lat="45.9235731" lon="9.1313594"><ele>251.0</ele><time>2026-03-29T13:46:52.806Z</time></trkpt><trkpt lat="45.9233904" lon="9.1313954"><ele>252.25</ele><time>2026-03-29T13:46:53.811Z</time></trkpt><trkpt lat="45.9232569" lon="9.1313714"><ele>253.5</ele><time>2026-03-29T13:46:54.812Z</time></trkpt><trkpt lat="45.9231219" lon="9.1313998"><ele>254.75</ele><time>2026-03-29T13:46:55.819Z</time></trkpt><trkpt lat="45.922978" lon="9.1314086"><ele>256.0</ele><time>2026-03-29T13:46:56.813Z</time></trkpt><trkpt lat="45.9228382" lon="9.1313892"><ele>256.0</ele><time>2026-03-29T13:46:57.81Z</time></trkpt><trkpt lat="45.9226917" lon="9.131368"><ele>256.0</ele><time>2026-03-29T13:46:58.821Z</time></trkpt><trkpt lat="45.9225343" lon="9.1313464"><ele>256.0</ele><time>2026-03-29T13:46:59.818Z</time></trkpt><trkpt lat="45.9223557" lon="9.1313478"><ele>257.0</ele><time>2026-03-29T13:47:00.812Z</time></trkpt><trkpt lat="45.9222111" lon="9.1312989"><ele>258.0</ele><time>2026-03-29T13:47:01.812Z</time></trkpt><trkpt lat="45.9220663" lon="9.1312548"><ele>259.0</ele><time>2026-03-29T13:47:02.804Z</time></trkpt><trkpt lat="45.9219205" lon="9.1312458"><ele>260.0</ele><time>2026-03-29T13:47:03.806Z</time></trkpt><trkpt lat="45.9217539" lon="9.1312488"><ele>258.0</ele><time>2026-03-29T13:47:04.81Z</time></trkpt><trkpt lat="45.9215938" lon="9.1312724"><ele>256.0</ele><time>2026-03-29T13:47:05.802Z</time></trkpt><trkpt lat="45.921457" lon="9.1313122"><ele>254.0</ele><time>2026-03-29T13:47:06.804Z</time></trkpt><trkpt lat="45.9213301" lon="9.1313536"><ele>252.0</ele><time>2026-03-29T13:47:07.81Z</time></trkpt><trkpt lat="45.9211974" lon="9.1313961"><ele>252.0</ele><time>2026-03-29T13:47:08.807Z</time></trkpt><trkpt lat="45.9210857" lon="9.1314334"><ele>252.0</ele><time>2026-03-29T13:47:09.81Z</time></trkpt><trkpt lat="45.9209901" lon="9.1315204"><ele>252.0</ele><time>2026-03-29T13:47:10.802Z</time></trkpt><trkpt lat="45.9208636" lon="9.1315981"><ele>252.0</ele><time>2026-03-29T13:47:11.809Z</time></trkpt><trkpt lat="45.9207519" lon="9.131582"><ele>253.0</ele><time>2026-03-29T13:47:12.809Z</time></trkpt><trkpt lat="45.9206092" lon="9.1315615"><ele>254.0</ele><time>2026-03-29T13:47:13.805Z</time></trkpt><trkpt lat="45.9204761" lon="9.1315603"><ele>255.0</ele><time>2026-03-29T13:47:14.799Z</time></trkpt><trkpt lat="45.9203385" lon="9.1315367"><ele>256.0</ele><time>2026-03-29T13:47:15.802Z</time></trkpt><trkpt lat="45.9201967" lon="9.1315356"><ele>247.5</ele><time>2026-03-29T13:47:16.802Z</time></trkpt><trkpt lat="45.9200576" lon="9.1315883"><ele>239.0</ele><time>2026-03-29T13:47:17.8Z</time></trkpt><trkpt lat="45.9199329" lon="9.1316174"><ele>230.5</ele><time>2026-03-29T13:47:18.807Z</time></trkpt><trkpt lat="45.9197898" lon="9.1316541"><ele>222.0</ele><time>2026-03-29T13:47:19.806Z</time></trkpt><trkpt lat="45.9196474" lon="9.1316951"><ele>222.0</ele><time>2026-03-29T13:47:20.814Z</time></trkpt><trkpt lat="45.9194961" lon="9.1317388"><ele>222.0</ele><time>2026-03-29T13:47:21.812Z</time></trkpt><trkpt lat="45.9193292" lon="9.1317889"><ele>222.0</ele><time>2026-03-29T13:47:22.814Z</time></trkpt><trkpt lat="45.9191721" lon="9.1318125"><ele>226.66666666666669</ele><time>2026-03-29T13:47:23.814Z</time></trkpt><trkpt lat="45.9190101" lon="9.1318614"><ele>231.33333333333334</ele><time>2026-03-29T13:47:24.801Z</time></trkpt><trkpt lat="45.9188499" lon="9.1318851"><ele>236.0</ele><time>2026-03-29T13:47:25.808Z</time></trkpt><trkpt lat="45.9186794" lon="9.1319155"><ele>236.0</ele><time>2026-03-29T13:47:26.797Z</time></trkpt><trkpt lat="45.9184944" lon="9.1320218"><ele>236.0</ele><time>2026-03-29T13:47:27.786Z</time></trkpt><trkpt lat="45.9183313" lon="9.1320615"><ele>236.0</ele><time>2026-03-29T13:47:28.767Z</time></trkpt><trkpt lat="45.9083794" lon="9.1310907"><ele>238.75</ele><time>2026-03-29T13:48:35.822Z</time></trkpt><trkpt lat="45.9082436" lon="9.1311136"><ele>241.5</ele><time>2026-03-29T13:48:36.811Z</time></trkpt><trkpt lat="45.9081069" lon="9.1311222"><ele>244.25</ele><time>2026-03-29T13:48:37.812Z</time></trkpt><trkpt lat="45.9079713" lon="9.1311442"><ele>247.0</ele><time>2026-03-29T13:48:38.817Z</time></trkpt><trkpt lat="45.9078275" lon="9.131179"><ele>247.0</ele><time>2026-03-29T13:48:39.809Z</time></trkpt><trkpt lat="45.9076614" lon="9.1312302"><ele>247.0</ele><time>2026-03-29T13:48:40.814Z</time></trkpt><trkpt lat="45.9074988" lon="9.131269"><ele>247.0</ele><time>2026-03-29T13:48:41.817Z</time></trkpt><trkpt lat="45.9073396" lon="9.1313018"><ele>248.33333333333331</ele><time>2026-03-29T13:48:42.812Z</time></trkpt><trkpt lat="45.9071821" lon="9.1313293"><ele>249.66666666666669</ele><time>2026-03-29T13:48:43.817Z</time></trkpt><trkpt lat="45.9070216" lon="9.1313699"><ele>251.0</ele><time>2026-03-29T13:48:44.814Z</time></trkpt><trkpt lat="45.9068773" lon="9.1314215"><ele>251.0</ele><time>2026-03-29T13:48:45.817Z</time></trkpt><trkpt lat="45.9067488" lon="9.1314854"><ele>251.0</ele><time>2026-03-29T13:48:46.81Z</time></trkpt><trkpt lat="45.9066412" lon="9.1315355"><ele>251.0</ele><time>2026-03-29T13:48:47.812Z</time></trkpt><trkpt lat="45.9065215" lon="9.1315751"><ele>251.0</ele><time>2026-03-29T13:48:48.81Z</time></trkpt><trkpt lat="45.9063976" lon="9.1316034"><ele>245.25</ele><time>2026-03-29T13:48:49.811Z</time></trkpt><trkpt lat="45.9062585" lon="9.131624"><ele>239.5</ele><time>2026-03-29T13:48:50.821Z</time></trkpt><trkpt lat="45.9061227" lon="9.1316834"><ele>233.75</ele><time>2026-03-29T13:48:51.814Z</time></trkpt><trkpt lat="45.9060057" lon="9.1317237"><ele>228.0</ele><time>2026-03-29T13:48:52.822Z</time></trkpt><trkpt lat="45.9058869" lon="9.1317867"><ele>228.0</ele><time>2026-03-29T13:48:53.817Z</time></trkpt><trkpt lat="45.9057732" lon="9.1318614"><ele>228.0</ele><time>2026-03-29T13:48:54.818Z</time></trkpt><trkpt lat="45.9056687" lon="9.1319823"><ele>228.0</ele><time>2026-03-29T13:48:55.814Z</time></trkpt><trkpt lat="45.9055607" lon="9.1321177"><ele>228.0</ele><time>2026-03-29T13:48:56.819Z</time></trkpt><trkpt lat="45.9054497" lon="9.1322796"><ele>230.5</ele><time>2026-03-29T13:48:57.823Z</time></trkpt><trkpt lat="45.9053781" lon="9.1324079"><ele>233.0</ele><time>2026-03-29T13:48:58.816Z</time></trkpt><trkpt lat="45.9052766" lon="9.1325282"><ele>235.5</ele><time>2026-03-29T13:48:59.837Z</time></trkpt><trkpt lat="45.9051694" lon="9.1326554"><ele>238.0</ele><time>2026-03-29T13:49:00.824Z</time></trkpt><trkpt lat="45.9050577" lon="9.1327811"><ele>238.0</ele><time>2026-03-29T13:49:01.818Z</time></trkpt><trkpt lat="45.904926" lon="9.1328768"><ele>238.0</ele><time>2026-03-29T13:49:02.814Z</time></trkpt><trkpt lat="45.9047831" lon="9.1329837"><ele>238.0</ele><time>2026-03-29T13:49:03.815Z</time></trkpt><trkpt lat="45.9046435" lon="9.1331072"><ele>224.5</ele><time>2026-03-29T13:49:04.811Z</time></trkpt><trkpt lat="45.9044467" lon="9.1332505"><ele>211.0</ele><time>2026-03-29T13:49:05.814Z</time></trkpt><trkpt lat="45.9042509" lon="9.133436"><ele>222.5</ele><time>2026-03-29T13:49:06.819Z</time></trkpt><trkpt lat="45.904058" lon="9.1336424"><ele>234.0</ele><time>2026-03-29T13:49:07.811Z</time></trkpt><trkpt lat="45.9038761" lon="9.133808"><ele>234.0</ele><time>2026-03-29T13:49:08.81Z</time></trkpt><trkpt lat="45.9036784" lon="9.1339284"><ele>234.0</ele><time>2026-03-29T13:49:09.815Z</time></trkpt><trkpt lat="45.9035076" lon="9.134036"><ele>234.0</ele><time>2026-03-29T13:49:10.814Z</time></trkpt><trkpt lat="45.9033485" lon="9.1341506"><ele>230.33333333333331</ele><time>2026-03-29T13:49:11.814Z</time></trkpt><trkpt lat="45.9032015" lon="9.1342357"><ele>226.66666666666666</ele><time>2026-03-29T13:49:12.816Z</time></trkpt><trkpt lat="45.9030345" lon="9.1343211"><ele>223.0</ele><time>2026-03-29T13:49:13.819Z</time></trkpt><trkpt lat="45.9028475" lon="9.1344718"><ele>223.0</ele><time>2026-03-29T13:49:14.815Z</time></trkpt><trkpt lat="45.902671" lon="9.1345979"><ele>223.0</ele><time>2026-03-29T13:49:15.825Z</time></trkpt><trkpt lat="45.9025011" lon="9.1347374"><ele>223.0</ele><time>2026-03-29T13:49:16.823Z</time></trkpt><trkpt lat="45.9023284" lon="9.1348774"><ele>219.0</ele><time>2026-03-29T13:49:17.815Z</time></trkpt><trkpt lat="45.9021747" lon="9.1350061"><ele>215.0</ele><time>2026-03-29T13:49:18.821Z</time></trkpt><trkpt lat="45.9020365" lon="9.1351354"><ele>211.0</ele><time>2026-03-29T13:49:19.822Z</time></trkpt><trkpt lat="45.9019093" lon="9.1352597"><ele>211.0</ele><time>2026-03-29T13:49:20.816Z</time></trkpt><trkpt lat="45.9017883" lon="9.1353756"><ele>211.0</ele><time>2026-03-29T13:49:21.814Z</time></trkpt><trkpt lat="45.9016443" lon="9.1354733"><ele>211.0</ele><time>2026-03-29T13:49:22.819Z</time></trkpt><trkpt lat="45.9015249" lon="9.1355681"><ele>211.0</ele><time>2026-03-29T13:49:23.814Z</time></trkpt><trkpt lat="45.9013819" lon="9.1356743"><ele>210.5</ele><time>2026-03-29T13:49:24.818Z</time></trkpt><trkpt lat="45.901261" lon="9.1357607"><ele>210.0</ele><time>2026-03-29T13:49:25.814Z</time></trkpt><trkpt lat="45.9011377" lon="9.1358797"><ele>209.5</ele><time>2026-03-29T13:49:26.818Z</time></trkpt><trkpt lat="45.9010243" lon="9.1359774"><ele>209.0</ele><time>2026-03-29T13:49:27.813Z</time></trkpt><trkpt lat="45.9009246" lon="9.1360654"><ele>215.0</ele><time>2026-03-29T13:49:28.819Z</time></trkpt><trkpt lat="45.9008377" lon="9.1361551"><ele>221.0</ele><time>2026-03-29T13:49:29.818Z</time></trkpt><trkpt lat="45.9007272" lon="9.1362559"><ele>227.0</ele><time>2026-03-29T13:49:30.812Z</time></trkpt><trkpt lat="45.9005864" lon="9.1363202"><ele>233.0</ele><time>2026-03-29T13:49:31.818Z</time></trkpt><trkpt lat="45.9004293" lon="9.136382"><ele>233.0</ele><time>2026-03-29T13:49:32.818Z</time></trkpt><trkpt lat="45.9002851" lon="9.1364553"><ele>233.0</ele><time>2026-03-29T13:49:33.816Z</time></trkpt><trkpt lat="45.9001802" lon="9.136541"><ele>233.0</ele><time>2026-03-29T13:49:34.818Z</time></trkpt><trkpt lat="45.9000838" lon="9.1366137"><ele>233.0</ele><time>2026-03-29T13:49:35.812Z</time></trkpt><trkpt lat="45.8999963" lon="9.1366902"><ele>230.5</ele><time>2026-03-29T13:49:36.819Z</time></trkpt><trkpt lat="45.8999078" lon="9.1367592"><ele>228.0</ele><time>2026-03-29T13:49:37.812Z</time></trkpt><trkpt lat="45.8998132" lon="9.136839"><ele>225.5</ele><time>2026-03-29T13:49:38.835Z</time></trkpt><trkpt lat="45.8997022" lon="9.1369079"><ele>223.0</ele><time>2026-03-29T13:49:39.833Z</time></trkpt><trkpt lat="45.8995851" lon="9.1369597"><ele>223.0</ele><time>2026-03-29T13:49:40.835Z</time></trkpt><trkpt lat="45.8994588" lon="9.1370004"><ele>223.0</ele><time>2026-03-29T13:49:41.815Z</time></trkpt><trkpt lat="45.899344" lon="9.1370262"><ele>223.0</ele><time>2026-03-29T13:49:42.813Z</time></trkpt><trkpt lat="45.8992294" lon="9.1370398"><ele>223.0</ele><time>2026-03-29T13:49:43.809Z</time></trkpt><trkpt lat="45.899105" lon="9.1370615"><ele>225.75</ele><time>2026-03-29T13:49:44.813Z</time></trkpt><trkpt lat="45.8989787" lon="9.137104"><ele>228.5</ele><time>2026-03-29T13:49:45.813Z</time></trkpt><trkpt lat="45.8988515" lon="9.1371711"><ele>231.25</ele><time>2026-03-29T13:49:46.817Z</time></trkpt><trkpt lat="45.8987357" lon="9.1372534"><ele>234.0</ele><time>2026-03-29T13:49:47.813Z</time></trkpt><trkpt lat="45.8986132" lon="9.1373541"><ele>232.33333333333331</ele><time>2026-03-29T13:49:48.816Z</time></trkpt><trkpt lat="45.8984828" lon="9.1374314"><ele>230.66666666666666</ele><time>2026-03-29T13:49:49.811Z</time></trkpt><trkpt lat="45.8983362" lon="9.1375793"><ele>229.0</ele><time>2026-03-29T13:49:50.818Z</time></trkpt><trkpt lat="45.8982072" lon="9.1377897"><ele>229.0</ele><time>2026-03-29T13:49:51.811Z</time></trkpt><trkpt lat="45.8980508" lon="9.1380127"><ele>229.0</ele><time>2026-03-29T13:49:52.815Z</time></trkpt><trkpt lat="45.8978988" lon="9.1382063"><ele>229.0</ele><time>2026-03-29T13:49:53.815Z</time></trkpt><trkpt lat="45.8977358" lon="9.1383691"><ele>231.0</ele><time>2026-03-29T13:49:54.814Z</time></trkpt><trkpt lat="45.897581" lon="9.1385312"><ele>233.0</ele><time>2026-03-29T13:49:55.809Z</time></trkpt><trkpt lat="45.8974251" lon="9.1386771"><ele>235.0</ele><time>2026-03-29T13:49:56.811Z</time></trkpt><trkpt lat="45.8972758" lon="9.138796"><ele>235.0</ele><time>2026-03-29T13:49:57.814Z</time></trkpt><trkpt lat="45.8971357" lon="9.1389101"><ele>235.0</ele><time>2026-03-29T13:49:58.817Z</time></trkpt><trkpt lat="45.8969671" lon="9.1390225"><ele>235.0</ele><time>2026-03-29T13:49:59.818Z</time></trkpt><trkpt lat="45.8968062" lon="9.1391259"><ele>233.33333333333331</ele><time>2026-03-29T13:50:00.817Z</time></trkpt><trkpt lat="45.8966546" lon="9.1392979"><ele>231.66666666666669</ele><time>2026-03-29T13:50:01.819Z</time></trkpt><trkpt lat="45.8965382" lon="9.1394852"><ele>230.0</ele><time>2026-03-29T13:50:02.812Z</time></trkpt><trkpt lat="45.896436" lon="9.1396648"><ele>230.0</ele><time>2026-03-29T13:50:03.82Z</time></trkpt><trkpt lat="45.896304" lon="9.139854"><ele>230.0</ele><time>2026-03-29T13:50:04.822Z</time></trkpt><trkpt lat="45.8961917" lon="9.1400402"><ele>230.0</ele><time>2026-03-29T13:50:05.82Z</time></trkpt><trkpt lat="45.8960712" lon="9.1402434"><ele>227.66666666666669</ele><time>2026-03-29T13:50:06.82Z</time></trkpt><trkpt lat="45.8959668" lon="9.1404603"><ele>225.33333333333331</ele><time>2026-03-29T13:50:07.819Z</time></trkpt><trkpt lat="45.8958694" lon="9.1407129"><ele>223.0</ele><time>2026-03-29T13:50:08.817Z</time></trkpt><trkpt lat="45.8957947" lon="9.1409399"><ele>223.0</ele><time>2026-03-29T13:50:09.82Z</time></trkpt><trkpt lat="45.8956751" lon="9.1411453"><ele>223.0</ele><time>2026-03-29T13:50:10.817Z</time></trkpt><trkpt lat="45.8955474" lon="9.1413629"><ele>223.0</ele><time>2026-03-29T13:50:11.817Z</time></trkpt><trkpt lat="45.8954387" lon="9.1415548"><ele>226.33333333333331</ele><time>2026-03-29T13:50:12.819Z</time></trkpt><trkpt lat="45.8953347" lon="9.1417455"><ele>229.66666666666669</ele><time>2026-03-29T13:50:13.82Z</time></trkpt><trkpt lat="45.8951782" lon="9.1418695"><ele>233.0</ele><time>2026-03-29T13:50:14.819Z</time></trkpt><trkpt lat="45.8950048" lon="9.1419895"><ele>233.0</ele><time>2026-03-29T13:50:15.824Z</time></trkpt><trkpt lat="45.8948454" lon="9.1421183"><ele>233.0</ele><time>2026-03-29T13:50:16.818Z</time></trkpt><trkpt lat="45.8947006" lon="9.1422209"><ele>233.0</ele><time>2026-03-29T13:50:17.827Z</time></trkpt><trkpt lat="45.8945372" lon="9.142315"><ele>230.66666666666669</ele><time>2026-03-29T13:50:18.822Z</time></trkpt><trkpt lat="45.8943794" lon="9.1424041"><ele>228.33333333333331</ele><time>2026-03-29T13:50:19.818Z</time></trkpt><trkpt lat="45.8942248" lon="9.142497"><ele>226.0</ele><time>2026-03-29T13:50:20.817Z</time></trkpt><trkpt lat="45.8940845" lon="9.1425948"><ele>226.0</ele><time>2026-03-29T13:50:21.824Z</time></trkpt><trkpt lat="45.8939118" lon="9.1426991"><ele>226.0</ele><time>2026-03-29T13:50:22.832Z</time></trkpt><trkpt lat="45.893742" lon="9.1428107"><ele>226.0</ele><time>2026-03-29T13:50:23.829Z</time></trkpt><trkpt lat="45.8935937" lon="9.1428921"><ele>226.0</ele><time>2026-03-29T13:50:24.831Z</time></trkpt><trkpt lat="45.8934531" lon="9.1429877"><ele>226.0</ele><time>2026-03-29T13:50:25.827Z</time></trkpt><trkpt lat="45.8932964" lon="9.1430798"><ele>226.0</ele><time>2026-03-29T13:50:26.829Z</time></trkpt><trkpt lat="45.8931459" lon="9.1431864"><ele>224.25</ele><time>2026-03-29T13:50:27.831Z</time></trkpt><trkpt lat="45.8930162" lon="9.1432864"><ele>222.5</ele><time>2026-03-29T13:50:28.83Z</time></trkpt><trkpt lat="45.8928787" lon="9.1433921"><ele>220.75</ele><time>2026-03-29T13:50:29.832Z</time></trkpt><trkpt lat="45.8927537" lon="9.1434859"><ele>219.0</ele><time>2026-03-29T13:50:30.826Z</time></trkpt><trkpt lat="45.8926134" lon="9.1435942"><ele>222.5</ele><time>2026-03-29T13:50:31.831Z</time></trkpt><trkpt lat="45.8924778" lon="9.1436848"><ele>226.0</ele><time>2026-03-29T13:50:32.826Z</time></trkpt><trkpt lat="45.8923609" lon="9.143789"><ele>229.5</ele><time>2026-03-29T13:50:33.832Z</time></trkpt><trkpt lat="45.8922152" lon="9.143874"><ele>233.0</ele><time>2026-03-29T13:50:34.832Z</time></trkpt><trkpt lat="45.8920546" lon="9.1439316"><ele>233.0</ele><time>2026-03-29T13:50:35.824Z</time></trkpt><trkpt lat="45.8919268" lon="9.1439622"><ele>233.0</ele><time>2026-03-29T13:50:36.83Z</time></trkpt><trkpt lat="45.8917945" lon="9.1439708"><ele>233.0</ele><time>2026-03-29T13:50:37.83Z</time></trkpt><trkpt lat="45.8916772" lon="9.1439382"><ele>233.0</ele><time>2026-03-29T13:50:38.837Z</time></trkpt><trkpt lat="45.8915494" lon="9.1439179"><ele>234.75</ele><time>2026-03-29T13:50:39.835Z</time></trkpt><trkpt lat="45.8914194" lon="9.1438565"><ele>236.5</ele><time>2026-03-29T13:50:40.834Z</time></trkpt><trkpt lat="45.8913014" lon="9.143759"><ele>238.25</ele><time>2026-03-29T13:50:41.829Z</time></trkpt><trkpt lat="45.8911723" lon="9.1436957"><ele>240.0</ele><time>2026-03-29T13:50:42.834Z</time></trkpt><trkpt lat="45.891055" lon="9.1435912"><ele>238.66666666666669</ele><time>2026-03-29T13:50:43.821Z</time></trkpt><trkpt lat="45.8909146" lon="9.1435053"><ele>237.33333333333334</ele><time>2026-03-29T13:50:44.831Z</time></trkpt><trkpt lat="45.8907607" lon="9.1434071"><ele>236.0</ele><time>2026-03-29T13:50:45.824Z</time></trkpt><trkpt lat="45.8906102" lon="9.1432951"><ele>241.5</ele><time>2026-03-29T13:50:46.822Z</time></trkpt><trkpt lat="45.8904748" lon="9.1431856"><ele>247.0</ele><time>2026-03-29T13:50:47.836Z</time></trkpt><trkpt lat="45.8903463" lon="9.1430755"><ele>252.5</ele><time>2026-03-29T13:50:48.829Z</time></trkpt><trkpt lat="45.8902223" lon="9.1430036"><ele>258.0</ele><time>2026-03-29T13:50:49.839Z</time></trkpt><trkpt lat="45.8901054" lon="9.1429269"><ele>255.75</ele><time>2026-03-29T13:50:50.832Z</time></trkpt><trkpt lat="45.8900118" lon="9.1428495"><ele>253.5</ele><time>2026-03-29T13:50:51.826Z</time></trkpt><trkpt lat="45.889901" lon="9.1427934"><ele>251.25</ele><time>2026-03-29T13:50:52.829Z</time></trkpt><trkpt lat="45.8897894" lon="9.1427675"><ele>249.0</ele><time>2026-03-29T13:50:53.83Z</time></trkpt><trkpt lat="45.8896729" lon="9.1427585"><ele>249.0</ele><time>2026-03-29T13:50:54.832Z</time></trkpt><trkpt lat="45.8895447" lon="9.1427315"><ele>249.0</ele><time>2026-03-29T13:50:55.829Z</time></trkpt><trkpt lat="45.8894129" lon="9.1427169"><ele>249.0</ele><time>2026-03-29T13:50:56.835Z</time></trkpt><trkpt lat="45.889291" lon="9.1427043"><ele>249.0</ele><time>2026-03-29T13:50:57.823Z</time></trkpt><trkpt lat="45.8891836" lon="9.1426905"><ele>247.39999999999998</ele><time>2026-03-29T13:50:58.834Z</time></trkpt><trkpt lat="45.8890786" lon="9.1426706"><ele>245.79999999999998</ele><time>2026-03-29T13:50:59.832Z</time></trkpt><trkpt lat="45.8889726" lon="9.1426547"><ele>244.20000000000002</ele><time>2026-03-29T13:51:00.828Z</time></trkpt><trkpt lat="45.8888657" lon="9.1426403"><ele>242.60000000000002</ele><time>2026-03-29T13:51:01.828Z</time></trkpt><trkpt lat="45.8887556" lon="9.1426193"><ele>241.0</ele><time>2026-03-29T13:51:02.822Z</time></trkpt><trkpt lat="45.8886439" lon="9.1425835"><ele>241.0</ele><time>2026-03-29T13:51:03.821Z</time></trkpt><trkpt lat="45.8885325" lon="9.142524"><ele>241.0</ele><time>2026-03-29T13:51:04.827Z</time></trkpt><trkpt lat="45.8884199" lon="9.1424449"><ele>241.0</ele><time>2026-03-29T13:51:05.82Z</time></trkpt><trkpt lat="45.8883122" lon="9.1423533"><ele>241.0</ele><time>2026-03-29T13:51:06.815Z</time></trkpt><trkpt lat="45.8882136" lon="9.1422487"><ele>246.5</ele><time>2026-03-29T13:51:07.817Z</time></trkpt><trkpt lat="45.8881239" lon="9.1421233"><ele>252.0</ele><time>2026-03-29T13:51:08.821Z</time></trkpt><trkpt lat="45.8880413" lon="9.141983"><ele>257.5</ele><time>2026-03-29T13:51:09.818Z</time></trkpt><trkpt lat="45.8879556" lon="9.1418283"><ele>263.0</ele><time>2026-03-29T13:51:10.818Z</time></trkpt><trkpt lat="45.887851" lon="9.1416604"><ele>261.33333333333337</ele><time>2026-03-29T13:51:11.817Z</time></trkpt><trkpt lat="45.8877176" lon="9.1414587"><ele>259.6666666666667</ele><time>2026-03-29T13:51:12.822Z</time></trkpt><trkpt lat="45.8876236" lon="9.1412616"><ele>258.0</ele><time>2026-03-29T13:51:13.822Z</time></trkpt><trkpt lat="45.8875319" lon="9.1411175"><ele>258.0</ele><time>2026-03-29T13:51:14.819Z</time></trkpt><trkpt lat="45.8874564" lon="9.1409577"><ele>258.0</ele><time>2026-03-29T13:51:15.834Z</time></trkpt><trkpt lat="45.8873631" lon="9.1408837"><ele>258.0</ele><time>2026-03-29T13:51:16.831Z</time></trkpt><trkpt lat="45.8872492" lon="9.1408046"><ele>258.0</ele><time>2026-03-29T13:51:17.833Z</time></trkpt><trkpt lat="45.8871287" lon="9.1407392"><ele>264.0</ele><time>2026-03-29T13:51:18.831Z</time></trkpt><trkpt lat="45.8870029" lon="9.1406954"><ele>270.0</ele><time>2026-03-29T13:51:19.85Z</time></trkpt><trkpt lat="45.8868534" lon="9.1406763"><ele>276.0</ele><time>2026-03-29T13:51:20.854Z</time></trkpt><trkpt lat="45.8866645" lon="9.1406969"><ele>276.0</ele><time>2026-03-29T13:51:21.834Z</time></trkpt><trkpt lat="45.8864809" lon="9.1407089"><ele>276.0</ele><time>2026-03-29T13:51:22.833Z</time></trkpt><trkpt lat="45.8862945" lon="9.140741"><ele>276.0</ele><time>2026-03-29T13:51:23.834Z</time></trkpt><trkpt lat="45.8861322" lon="9.1407687"><ele>267.5</ele><time>2026-03-29T13:51:24.854Z</time></trkpt><trkpt lat="45.8859783" lon="9.1407977"><ele>259.0</ele><time>2026-03-29T13:51:25.834Z</time></trkpt><trkpt lat="45.8858396" lon="9.1408026"><ele>250.5</ele><time>2026-03-29T13:51:26.836Z</time></trkpt><trkpt lat="45.8856951" lon="9.1407893"><ele>242.0</ele><time>2026-03-29T13:51:27.837Z</time></trkpt><trkpt lat="45.8855521" lon="9.1407535"><ele>249.25</ele><time>2026-03-29T13:51:28.834Z</time></trkpt><trkpt lat="45.8854119" lon="9.1406954"><ele>256.5</ele><time>2026-03-29T13:51:29.84Z</time></trkpt><trkpt lat="45.885295" lon="9.1405953"><ele>263.75</ele><time>2026-03-29T13:51:30.831Z</time></trkpt><trkpt lat="45.8851915" lon="9.1404976"><ele>271.0</ele><time>2026-03-29T13:51:31.829Z</time></trkpt><trkpt lat="45.8850984" lon="9.1403863"><ele>267.0</ele><time>2026-03-29T13:51:32.826Z</time></trkpt><trkpt lat="45.8850088" lon="9.1402903"><ele>263.0</ele><time>2026-03-29T13:51:33.825Z</time></trkpt><trkpt lat="45.8849208" lon="9.140189"><ele>259.0</ele><time>2026-03-29T13:51:34.832Z</time></trkpt><trkpt lat="45.8848234" lon="9.140071"><ele>255.0</ele><time>2026-03-29T13:51:35.839Z</time></trkpt><trkpt lat="45.8847325" lon="9.1399584"><ele>261.0</ele><time>2026-03-29T13:51:36.858Z</time></trkpt><trkpt lat="45.8846392" lon="9.1398365"><ele>267.0</ele><time>2026-03-29T13:51:37.835Z</time></trkpt><trkpt lat="45.8845401" lon="9.139709"><ele>273.0</ele><time>2026-03-29T13:51:38.858Z</time></trkpt><trkpt lat="45.8844332" lon="9.1395807"><ele>279.0</ele><time>2026-03-29T13:51:39.841Z</time></trkpt><trkpt lat="45.8843143" lon="9.1394438"><ele>283.0</ele><time>2026-03-29T13:51:40.832Z</time></trkpt><trkpt lat="45.8841931" lon="9.139292"><ele>287.0</ele><time>2026-03-29T13:51:41.836Z</time></trkpt><trkpt lat="45.8840625" lon="9.1391405"><ele>291.0</ele><time>2026-03-29T13:51:42.828Z</time></trkpt><trkpt lat="45.8839474" lon="9.138975"><ele>291.0</ele><time>2026-03-29T13:51:43.827Z</time></trkpt><trkpt lat="45.8838205" lon="9.1388197"><ele>291.0</ele><time>2026-03-29T13:51:44.826Z</time></trkpt><trkpt lat="45.8837048" lon="9.1386908"><ele>291.0</ele><time>2026-03-29T13:51:45.825Z</time></trkpt><trkpt lat="45.8836187" lon="9.1385885"><ele>291.0</ele><time>2026-03-29T13:51:46.828Z</time></trkpt><trkpt lat="45.8835344" lon="9.1384777"><ele>291.0</ele><time>2026-03-29T13:51:47.837Z</time></trkpt><trkpt lat="45.8834459" lon="9.1383656"><ele>291.0</ele><time>2026-03-29T13:51:48.833Z</time></trkpt><trkpt lat="45.8833551" lon="9.1382563"><ele>291.0</ele><time>2026-03-29T13:51:49.832Z</time></trkpt><trkpt lat="45.8832629" lon="9.1381494"><ele>291.0</ele><time>2026-03-29T13:51:50.834Z</time></trkpt><trkpt lat="45.8831649" lon="9.1380423"><ele>286.3333333333333</ele><time>2026-03-29T13:51:51.836Z</time></trkpt><trkpt lat="45.88305" lon="9.1379094"><ele>281.66666666666663</ele><time>2026-03-29T13:51:52.833Z</time></trkpt><trkpt lat="45.8829148" lon="9.1377287"><ele>277.0</ele><time>2026-03-29T13:51:53.83Z</time></trkpt><trkpt lat="45.8827737" lon="9.1375609"><ele>277.0</ele><time>2026-03-29T13:51:54.836Z</time></trkpt><trkpt lat="45.8826299" lon="9.1374242"><ele>277.0</ele><time>2026-03-29T13:51:55.822Z</time></trkpt><trkpt lat="45.8824596" lon="9.1373077"><ele>277.0</ele><time>2026-03-29T13:51:56.834Z</time></trkpt><trkpt lat="45.8822979" lon="9.1372302"><ele>277.3333333333333</ele><time>2026-03-29T13:51:57.831Z</time></trkpt><trkpt lat="45.8821348" lon="9.1371782"><ele>277.6666666666667</ele><time>2026-03-29T13:51:58.834Z</time></trkpt><trkpt lat="45.881973" lon="9.1371199"><ele>278.0</ele><time>2026-03-29T13:51:59.844Z</time></trkpt><trkpt lat="45.8818203" lon="9.1370327"><ele>274.33333333333337</ele><time>2026-03-29T13:52:00.83Z</time></trkpt><trkpt lat="45.8816676" lon="9.13696"><ele>270.6666666666667</ele><time>2026-03-29T13:52:01.834Z</time></trkpt><trkpt lat="45.8815261" lon="9.1368593"><ele>267.0</ele><time>2026-03-29T13:52:02.827Z</time></trkpt><trkpt lat="45.8813784" lon="9.1367613"><ele>267.0</ele><time>2026-03-29T13:52:03.828Z</time></trkpt><trkpt lat="45.8812244" lon="9.136672"><ele>267.0</ele><time>2026-03-29T13:52:04.825Z</time></trkpt><trkpt lat="45.8810618" lon="9.1365746"><ele>267.0</ele><time>2026-03-29T13:52:05.825Z</time></trkpt><trkpt lat="45.8809241" lon="9.1364788"><ele>270.0</ele><time>2026-03-29T13:52:06.827Z</time></trkpt><trkpt lat="45.8807863" lon="9.1363962"><ele>273.0</ele><time>2026-03-29T13:52:07.824Z</time></trkpt><trkpt lat="45.8806462" lon="9.1363149"><ele>276.0</ele><time>2026-03-29T13:52:08.834Z</time></trkpt><trkpt lat="45.8805145" lon="9.1362329"><ele>279.0</ele><time>2026-03-29T13:52:09.827Z</time></trkpt><trkpt lat="45.8803641" lon="9.1361779"><ele>279.0</ele><time>2026-03-29T13:52:10.831Z</time></trkpt><trkpt lat="45.8802109" lon="9.1361162"><ele>279.0</ele><time>2026-03-29T13:52:11.829Z</time></trkpt><trkpt lat="45.8800673" lon="9.1360453"><ele>279.0</ele><time>2026-03-29T13:52:12.819Z</time></trkpt><trkpt lat="45.8799187" lon="9.1359727"><ele>283.0</ele><time>2026-03-29T13:52:13.824Z</time></trkpt><trkpt lat="45.879769" lon="9.135878"><ele>287.0</ele><time>2026-03-29T13:52:14.827Z</time></trkpt><trkpt lat="45.879627" lon="9.1357718"><ele>291.0</ele><time>2026-03-29T13:52:15.853Z</time></trkpt><trkpt lat="45.8794679" lon="9.1356894"><ele>291.0</ele><time>2026-03-29T13:52:16.832Z</time></trkpt><trkpt lat="45.8793178" lon="9.1356178"><ele>291.0</ele><time>2026-03-29T13:52:17.828Z</time></trkpt><trkpt lat="45.8791845" lon="9.1355067"><ele>291.0</ele><time>2026-03-29T13:52:18.838Z</time></trkpt><trkpt lat="45.8790573" lon="9.1353895"><ele>292.6666666666667</ele><time>2026-03-29T13:52:19.829Z</time></trkpt><trkpt lat="45.8789491" lon="9.1352497"><ele>294.33333333333337</ele><time>2026-03-29T13:52:20.832Z</time></trkpt><trkpt lat="45.878845" lon="9.13507"><ele>296.0</ele><time>2026-03-29T13:52:21.835Z</time></trkpt><trkpt lat="45.8787606" lon="9.1348761"><ele>296.0</ele><time>2026-03-29T13:52:22.832Z</time></trkpt><trkpt lat="45.8786623" lon="9.1346955"><ele>296.0</ele><time>2026-03-29T13:52:23.837Z</time></trkpt><trkpt lat="45.8785552" lon="9.1345168"><ele>296.0</ele><time>2026-03-29T13:52:24.836Z</time></trkpt><trkpt lat="45.8784497" lon="9.1343154"><ele>293.6666666666667</ele><time>2026-03-29T13:52:25.831Z</time></trkpt><trkpt lat="45.8783382" lon="9.1341173"><ele>291.3333333333333</ele><time>2026-03-29T13:52:26.831Z</time></trkpt><trkpt lat="45.878228" lon="9.1339109"><ele>289.0</ele><time>2026-03-29T13:52:27.83Z</time></trkpt><trkpt lat="45.878129" lon="9.1336997"><ele>289.0</ele><time>2026-03-29T13:52:28.831Z</time></trkpt><trkpt lat="45.8780143" lon="9.1334807"><ele>289.0</ele><time>2026-03-29T13:52:29.836Z</time></trkpt><trkpt lat="45.8779165" lon="9.1332853"><ele>289.0</ele><time>2026-03-29T13:52:30.829Z</time></trkpt><trkpt lat="45.8778262" lon="9.1330945"><ele>281.66666666666663</ele><time>2026-03-29T13:52:31.854Z</time></trkpt><trkpt lat="45.8777318" lon="9.1329135"><ele>274.3333333333333</ele><time>2026-03-29T13:52:32.834Z</time></trkpt><trkpt lat="45.8776329" lon="9.1327404"><ele>267.0</ele><time>2026-03-29T13:52:33.838Z</time></trkpt><trkpt lat="45.8775227" lon="9.1325464"><ele>272.0</ele><time>2026-03-29T13:52:34.828Z</time></trkpt><trkpt lat="45.8774183" lon="9.1323774"><ele>277.0</ele><time>2026-03-29T13:52:35.832Z</time></trkpt><trkpt lat="45.8773255" lon="9.1322112"><ele>282.0</ele><time>2026-03-29T13:52:36.836Z</time></trkpt><trkpt lat="45.8772351" lon="9.1320403"><ele>282.0</ele><time>2026-03-29T13:52:37.825Z</time></trkpt><trkpt lat="45.8771337" lon="9.1318867"><ele>282.0</ele><time>2026-03-29T13:52:38.829Z</time></trkpt><trkpt lat="45.8770408" lon="9.131727"><ele>282.0</ele><time>2026-03-29T13:52:39.835Z</time></trkpt><trkpt lat="45.8769477" lon="9.1315637"><ele>282.0</ele><time>2026-03-29T13:52:40.844Z</time></trkpt><trkpt lat="45.8768479" lon="9.1313673"><ele>278.3333333333333</ele><time>2026-03-29T13:52:41.828Z</time></trkpt><trkpt lat="45.8767431" lon="9.1311586"><ele>274.66666666666663</ele><time>2026-03-29T13:52:42.83Z</time></trkpt><trkpt lat="45.876613" lon="9.1309423"><ele>271.0</ele><time>2026-03-29T13:52:43.825Z</time></trkpt><trkpt lat="45.8764867" lon="9.1307352"><ele>276.66666666666663</ele><time>2026-03-29T13:52:44.83Z</time></trkpt><trkpt lat="45.8763643" lon="9.130548"><ele>282.3333333333333</ele><time>2026-03-29T13:52:45.834Z</time></trkpt><trkpt lat="45.8762423" lon="9.1303829"><ele>288.0</ele><time>2026-03-29T13:52:46.824Z</time></trkpt><trkpt lat="45.8761414" lon="9.1302159"><ele>288.0</ele><time>2026-03-29T13:52:47.833Z</time></trkpt><trkpt lat="45.8760545" lon="9.1300513"><ele>288.0</ele><time>2026-03-29T13:52:48.831Z</time></trkpt><trkpt lat="45.875961" lon="9.1299115"><ele>288.0</ele><time>2026-03-29T13:52:49.829Z</time></trkpt><trkpt lat="45.8758852" lon="9.1297786"><ele>288.0</ele><time>2026-03-29T13:52:50.834Z</time></trkpt><trkpt lat="45.8758082" lon="9.1296343"><ele>286.75</ele><time>2026-03-29T13:52:51.831Z</time></trkpt><trkpt lat="45.8757251" lon="9.129493"><ele>285.5</ele><time>2026-03-29T13:52:52.827Z</time></trkpt><trkpt lat="45.8756441" lon="9.1293427"><ele>284.25</ele><time>2026-03-29T13:52:53.836Z</time></trkpt><trkpt lat="45.8755622" lon="9.1291976"><ele>283.0</ele><time>2026-03-29T13:52:54.856Z</time></trkpt><trkpt lat="45.8754813" lon="9.1290278"><ele>292.66666666666663</ele><time>2026-03-29T13:52:55.826Z</time></trkpt><trkpt lat="45.875409" lon="9.1288505"><ele>302.3333333333333</ele><time>2026-03-29T13:52:56.833Z</time></trkpt><trkpt lat="45.8753257" lon="9.1286337"><ele>312.0</ele><time>2026-03-29T13:52:57.827Z</time></trkpt><trkpt lat="45.8752379" lon="9.1283905"><ele>318.6666666666667</ele><time>2026-03-29T13:52:58.831Z</time></trkpt><trkpt lat="45.8751467" lon="9.1281522"><ele>325.33333333333337</ele><time>2026-03-29T13:52:59.84Z</time></trkpt><trkpt lat="45.8750624" lon="9.1279395"><ele>332.0</ele><time>2026-03-29T13:53:00.834Z</time></trkpt><trkpt lat="45.8749893" lon="9.1277247"><ele>323.6666666666667</ele><time>2026-03-29T13:53:01.827Z</time></trkpt><trkpt lat="45.8749014" lon="9.1274879"><ele>315.3333333333333</ele><time>2026-03-29T13:53:02.833Z</time></trkpt><trkpt lat="45.8748179" lon="9.1272647"><ele>307.0</ele><time>2026-03-29T13:53:03.836Z</time></trkpt><trkpt lat="45.874728" lon="9.1270454"><ele>307.0</ele><time>2026-03-29T13:53:04.829Z</time></trkpt><trkpt lat="45.8746513" lon="9.1268338"><ele>307.0</ele><time>2026-03-29T13:53:05.835Z</time></trkpt><trkpt lat="45.8745682" lon="9.1266337"><ele>307.0</ele><time>2026-03-29T13:53:06.83Z</time></trkpt><trkpt lat="45.8744789" lon="9.1264052"><ele>306.66666666666663</ele><time>2026-03-29T13:53:07.835Z</time></trkpt><trkpt lat="45.8743959" lon="9.126163"><ele>306.3333333333333</ele><time>2026-03-29T13:53:08.838Z</time></trkpt><trkpt lat="45.8742957" lon="9.1259172"><ele>306.0</ele><time>2026-03-29T13:53:09.831Z</time></trkpt><trkpt lat="45.8741973" lon="9.1256675"><ele>306.0</ele><time>2026-03-29T13:53:10.834Z</time></trkpt><trkpt lat="45.8741112" lon="9.1254061"><ele>306.0</ele><time>2026-03-29T13:53:11.834Z</time></trkpt><trkpt lat="45.8740107" lon="9.125153"><ele>306.0</ele><time>2026-03-29T13:53:12.85Z</time></trkpt><trkpt lat="45.8739141" lon="9.1249332"><ele>320.3333333333333</ele><time>2026-03-29T13:53:13.831Z</time></trkpt><trkpt lat="45.8738208" lon="9.1247183"><ele>334.66666666666663</ele><time>2026-03-29T13:53:14.824Z</time></trkpt><trkpt lat="45.8737184" lon="9.124521"><ele>349.0</ele><time>2026-03-29T13:53:15.827Z</time></trkpt><trkpt lat="45.8736184" lon="9.1243408"><ele>349.0</ele><time>2026-03-29T13:53:16.829Z</time></trkpt><trkpt lat="45.8734996" lon="9.1241627"><ele>349.0</ele><time>2026-03-29T13:53:17.846Z</time></trkpt><trkpt lat="45.873392" lon="9.1239987"><ele>349.0</ele><time>2026-03-29T13:53:18.846Z</time></trkpt><trkpt lat="45.8732787" lon="9.123839"><ele>347.25</ele><time>2026-03-29T13:53:19.828Z</time></trkpt><trkpt lat="45.8731711" lon="9.1236866"><ele>345.5</ele><time>2026-03-29T13:53:20.826Z</time></trkpt><trkpt lat="45.8730847" lon="9.1235227"><ele>343.75</ele><time>2026-03-29T13:53:21.825Z</time></trkpt><trkpt lat="45.8730249" lon="9.1233535"><ele>342.0</ele><time>2026-03-29T13:53:22.838Z</time></trkpt><trkpt lat="45.8729569" lon="9.1231901"><ele>342.0</ele><time>2026-03-29T13:53:23.84Z</time></trkpt><trkpt lat="45.8728821" lon="9.1230496"><ele>342.0</ele><time>2026-03-29T13:53:24.859Z</time></trkpt><trkpt lat="45.8727921" lon="9.1229417"><ele>342.0</ele><time>2026-03-29T13:53:25.832Z</time></trkpt><trkpt lat="45.8727239" lon="9.1228463"><ele>342.0</ele><time>2026-03-29T13:53:26.832Z</time></trkpt><trkpt lat="45.8726509" lon="9.1227521"><ele>342.0</ele><time>2026-03-29T13:53:27.83Z</time></trkpt><trkpt lat="45.8725876" lon="9.1226529"><ele>337.8</ele><time>2026-03-29T13:53:28.831Z</time></trkpt><trkpt lat="45.8725276" lon="9.1225434"><ele>333.6</ele><time>2026-03-29T13:53:29.838Z</time></trkpt><trkpt lat="45.8724707" lon="9.1224183"><ele>329.40000000000003</ele><time>2026-03-29T13:53:30.828Z</time></trkpt><trkpt lat="45.8724107" lon="9.1222835"><ele>325.20000000000005</ele><time>2026-03-29T13:53:31.83Z</time></trkpt><trkpt lat="45.8723474" lon="9.122139"><ele>321.0</ele><time>2026-03-29T13:53:32.83Z</time></trkpt><trkpt lat="45.8722755" lon="9.1219957"><ele>321.0</ele><time>2026-03-29T13:53:33.831Z</time></trkpt><trkpt lat="45.8721927" lon="9.12185"><ele>321.0</ele><time>2026-03-29T13:53:34.829Z</time></trkpt><trkpt lat="45.8721164" lon="9.1217015"><ele>321.0</ele><time>2026-03-29T13:53:35.835Z</time></trkpt><trkpt lat="45.8720453" lon="9.1215499"><ele>321.0</ele><time>2026-03-29T13:53:36.836Z</time></trkpt><trkpt lat="45.8719763" lon="9.1213848"><ele>324.25</ele><time>2026-03-29T13:53:37.832Z</time></trkpt><trkpt lat="45.8718957" lon="9.1212094"><ele>327.5</ele><time>2026-03-29T13:53:38.841Z</time></trkpt><trkpt lat="45.8718022" lon="9.1210379"><ele>330.75</ele><time>2026-03-29T13:53:39.831Z</time></trkpt><trkpt lat="45.871704" lon="9.1209004"><ele>334.0</ele><time>2026-03-29T13:53:40.834Z</time></trkpt><trkpt lat="45.8716103" lon="9.1207531"><ele>327.5</ele><time>2026-03-29T13:53:41.838Z</time></trkpt><trkpt lat="45.8715253" lon="9.1206018"><ele>321.0</ele><time>2026-03-29T13:53:42.836Z</time></trkpt><trkpt lat="45.8714254" lon="9.1204588"><ele>314.5</ele><time>2026-03-29T13:53:43.835Z</time></trkpt><trkpt lat="45.8713391" lon="9.1203257"><ele>308.0</ele><time>2026-03-29T13:53:44.838Z</time></trkpt><trkpt lat="45.8712669" lon="9.1201794"><ele>308.0</ele><time>2026-03-29T13:53:45.836Z</time></trkpt><trkpt lat="45.8711921" lon="9.1200305"><ele>308.0</ele><time>2026-03-29T13:53:46.834Z</time></trkpt><trkpt lat="45.8711368" lon="9.1198555"><ele>308.0</ele><time>2026-03-29T13:53:47.837Z</time></trkpt><trkpt lat="45.8711001" lon="9.1196647"><ele>308.0</ele><time>2026-03-29T13:53:48.834Z</time></trkpt><trkpt lat="45.8710827" lon="9.1194602"><ele>310.5</ele><time>2026-03-29T13:53:49.831Z</time></trkpt><trkpt lat="45.8710982" lon="9.1192413"><ele>313.0</ele><time>2026-03-29T13:53:50.836Z</time></trkpt><trkpt lat="45.8711081" lon="9.1190475"><ele>315.5</ele><time>2026-03-29T13:53:51.833Z</time></trkpt><trkpt lat="45.8710961" lon="9.1188698"><ele>318.0</ele><time>2026-03-29T13:53:52.836Z</time></trkpt><trkpt lat="45.8710879" lon="9.1187058"><ele>320.75</ele><time>2026-03-29T13:53:53.84Z</time></trkpt><trkpt lat="45.8710703" lon="9.1185519"><ele>323.5</ele><time>2026-03-29T13:53:54.836Z</time></trkpt><trkpt lat="45.8710259" lon="9.1183975"><ele>326.25</ele><time>2026-03-29T13:53:55.833Z</time></trkpt><trkpt lat="45.8709785" lon="9.1182457"><ele>329.0</ele><time>2026-03-29T13:53:56.834Z</time></trkpt><trkpt lat="45.870924" lon="9.1181065"><ele>324.4</ele><time>2026-03-29T13:53:57.838Z</time></trkpt><trkpt lat="45.870861" lon="9.1179912"><ele>319.79999999999995</ele><time>2026-03-29T13:53:58.834Z</time></trkpt><trkpt lat="45.8708015" lon="9.1178968"><ele>315.20000000000005</ele><time>2026-03-29T13:53:59.844Z</time></trkpt><trkpt lat="45.8707498" lon="9.1178005"><ele>310.6</ele><time>2026-03-29T13:54:00.839Z</time></trkpt><trkpt lat="45.870694" lon="9.1177051"><ele>306.0</ele><time>2026-03-29T13:54:01.832Z</time></trkpt><trkpt lat="45.8706378" lon="9.1175989"><ele>306.0</ele><time>2026-03-29T13:54:02.838Z</time></trkpt><trkpt lat="45.8705761" lon="9.1174864"><ele>306.0</ele><time>2026-03-29T13:54:03.835Z</time></trkpt><trkpt lat="45.8705103" lon="9.1173673"><ele>306.0</ele><time>2026-03-29T13:54:04.83Z</time></trkpt><trkpt lat="45.8704438" lon="9.1172385"><ele>306.0</ele><time>2026-03-29T13:54:05.836Z</time></trkpt><trkpt lat="45.8703763" lon="9.1171084"><ele>306.0</ele><time>2026-03-29T13:54:06.837Z</time></trkpt><trkpt lat="45.8703126" lon="9.1169619"><ele>307.8</ele><time>2026-03-29T13:54:07.83Z</time></trkpt><trkpt lat="45.8702567" lon="9.1167982"><ele>309.6</ele><time>2026-03-29T13:54:08.834Z</time></trkpt><trkpt lat="45.8702212" lon="9.1166417"><ele>311.4</ele><time>2026-03-29T13:54:09.829Z</time></trkpt><trkpt lat="45.8702053" lon="9.1165064"><ele>313.2</ele><time>2026-03-29T13:54:10.827Z</time></trkpt><trkpt lat="45.8701973" lon="9.1163944"><ele>315.0</ele><time>2026-03-29T13:54:11.834Z</time></trkpt><trkpt lat="45.8701949" lon="9.1162812"><ele>316.0</ele><time>2026-03-29T13:54:12.837Z</time></trkpt><trkpt lat="45.8702025" lon="9.1161447"><ele>317.0</ele><time>2026-03-29T13:54:13.832Z</time></trkpt><trkpt lat="45.8702258" lon="9.1159822"><ele>318.0</ele><time>2026-03-29T13:54:14.828Z</time></trkpt><trkpt lat="45.8702582" lon="9.1158004"><ele>319.0</ele><time>2026-03-29T13:54:15.839Z</time></trkpt><trkpt lat="45.8702913" lon="9.1156234"><ele>319.0</ele><time>2026-03-29T13:54:16.836Z</time></trkpt><trkpt lat="45.8703254" lon="9.1154631"><ele>319.0</ele><time>2026-03-29T13:54:17.838Z</time></trkpt><trkpt lat="45.8703436" lon="9.115311"><ele>319.0</ele><time>2026-03-29T13:54:18.832Z</time></trkpt><trkpt lat="45.8703389" lon="9.1151727"><ele>319.0</ele><time>2026-03-29T13:54:19.831Z</time></trkpt><trkpt lat="45.8703208" lon="9.1150553"><ele>319.0</ele><time>2026-03-29T13:54:20.832Z</time></trkpt><trkpt lat="45.8703006" lon="9.114941"><ele>318.5</ele><time>2026-03-29T13:54:21.852Z</time></trkpt><trkpt lat="45.8702747" lon="9.1148351"><ele>318.0</ele><time>2026-03-29T13:54:22.828Z</time></trkpt><trkpt lat="45.8702397" lon="9.1147337"><ele>317.5</ele><time>2026-03-29T13:54:23.84Z</time></trkpt><trkpt lat="45.8701908" lon="9.1146278"><ele>317.0</ele><time>2026-03-29T13:54:24.829Z</time></trkpt><trkpt lat="45.8701338" lon="9.1145191"><ele>316.5</ele><time>2026-03-29T13:54:25.835Z</time></trkpt><trkpt lat="45.8700663" lon="9.1144126"><ele>316.0</ele><time>2026-03-29T13:54:26.836Z</time></trkpt><trkpt lat="45.8699912" lon="9.1143221"><ele>313.40000000000003</ele><time>2026-03-29T13:54:27.836Z</time></trkpt><trkpt lat="45.8699095" lon="9.1142458"><ele>310.8</ele><time>2026-03-29T13:54:28.836Z</time></trkpt><trkpt lat="45.8698212" lon="9.1141873"><ele>308.20000000000005</ele><time>2026-03-29T13:54:29.846Z</time></trkpt><trkpt lat="45.8697339" lon="9.1141426"><ele>305.6</ele><time>2026-03-29T13:54:30.834Z</time></trkpt><trkpt lat="45.8696453" lon="9.114106"><ele>303.0</ele><time>2026-03-29T13:54:31.842Z</time></trkpt><trkpt lat="45.8695574" lon="9.1140791"><ele>305.0</ele><time>2026-03-29T13:54:32.836Z</time></trkpt><trkpt lat="45.8694769" lon="9.1140557"><ele>307.0</ele><time>2026-03-29T13:54:33.838Z</time></trkpt><trkpt lat="45.8694023" lon="9.1140363"><ele>309.0</ele><time>2026-03-29T13:54:34.84Z</time></trkpt><trkpt lat="45.8693283" lon="9.1140144"><ele>311.0</ele><time>2026-03-29T13:54:35.841Z</time></trkpt><trkpt lat="45.8692572" lon="9.1139905"><ele>313.0</ele><time>2026-03-29T13:54:36.857Z</time></trkpt><trkpt lat="45.8691815" lon="9.1139647"><ele>315.0</ele><time>2026-03-29T13:54:37.838Z</time></trkpt><trkpt lat="45.8691061" lon="9.1139359"><ele>315.0</ele><time>2026-03-29T13:54:38.836Z</time></trkpt><trkpt lat="45.8690274" lon="9.1139022"><ele>315.0</ele><time>2026-03-29T13:54:39.839Z</time></trkpt><trkpt lat="45.8689385" lon="9.1138575"><ele>315.0</ele><time>2026-03-29T13:54:40.831Z</time></trkpt><trkpt lat="45.8688576" lon="9.1138082"><ele>315.0</ele><time>2026-03-29T13:54:41.832Z</time></trkpt><trkpt lat="45.8687866" lon="9.1137516"><ele>315.0</ele><time>2026-03-29T13:54:42.833Z</time></trkpt><trkpt lat="45.8687147" lon="9.1136823"><ele>315.0</ele><time>2026-03-29T13:54:43.832Z</time></trkpt><trkpt lat="45.8686451" lon="9.1135974"><ele>315.0</ele><time>2026-03-29T13:54:44.828Z</time></trkpt><trkpt lat="45.8685802" lon="9.1135097"><ele>315.0</ele><time>2026-03-29T13:54:45.84Z</time></trkpt><trkpt lat="45.8685153" lon="9.1134016"><ele>315.0</ele><time>2026-03-29T13:54:46.846Z</time></trkpt><trkpt lat="45.868461" lon="9.1132826"><ele>315.0</ele><time>2026-03-29T13:54:47.843Z</time></trkpt><trkpt lat="45.868407" lon="9.1131542"><ele>315.0</ele><time>2026-03-29T13:54:48.849Z</time></trkpt><trkpt lat="45.8683517" lon="9.1130034"><ele>312.3333333333333</ele><time>2026-03-29T13:54:49.852Z</time></trkpt><trkpt lat="45.8682918" lon="9.1128261"><ele>309.66666666666663</ele><time>2026-03-29T13:54:50.847Z</time></trkpt><trkpt lat="45.8682256" lon="9.112632"><ele>307.0</ele><time>2026-03-29T13:54:51.855Z</time></trkpt><trkpt lat="45.8681427" lon="9.1124007"><ele>313.5</ele><time>2026-03-29T13:54:52.849Z</time></trkpt><trkpt lat="45.8680723" lon="9.1121894"><ele>320.0</ele><time>2026-03-29T13:54:53.852Z</time></trkpt><trkpt lat="45.8679978" lon="9.1120139"><ele>326.5</ele><time>2026-03-29T13:54:54.849Z</time></trkpt><trkpt lat="45.8679415" lon="9.1118392"><ele>333.0</ele><time>2026-03-29T13:54:55.853Z</time></trkpt><trkpt lat="45.8678843" lon="9.11167"><ele>337.75</ele><time>2026-03-29T13:54:56.851Z</time></trkpt><trkpt lat="45.8678328" lon="9.1115132"><ele>342.5</ele><time>2026-03-29T13:54:57.847Z</time></trkpt><trkpt lat="45.8677826" lon="9.1113689"><ele>347.25</ele><time>2026-03-29T13:54:58.848Z</time></trkpt><trkpt lat="45.8677239" lon="9.1112437"><ele>352.0</ele><time>2026-03-29T13:54:59.863Z</time></trkpt><trkpt lat="45.8676455" lon="9.1111181"><ele>346.75</ele><time>2026-03-29T13:55:00.869Z</time></trkpt><trkpt lat="45.8675606" lon="9.1109996"><ele>341.5</ele><time>2026-03-29T13:55:01.847Z</time></trkpt><trkpt lat="45.8674448" lon="9.1108903"><ele>336.25</ele><time>2026-03-29T13:55:02.848Z</time></trkpt><trkpt lat="45.8673361" lon="9.1107544"><ele>331.0</ele><time>2026-03-29T13:55:03.864Z</time></trkpt><trkpt lat="45.8672323" lon="9.1105849"><ele>331.0</ele><time>2026-03-29T13:55:04.839Z</time></trkpt><trkpt lat="45.8671225" lon="9.1104183"><ele>331.0</ele><time>2026-03-29T13:55:05.844Z</time></trkpt><trkpt lat="45.8670519" lon="9.1102616"><ele>331.0</ele><time>2026-03-29T13:55:06.839Z</time></trkpt><trkpt lat="45.8670002" lon="9.110128"><ele>331.0</ele><time>2026-03-29T13:55:07.848Z</time></trkpt><trkpt lat="45.8669672" lon="9.1099979"><ele>336.0</ele><time>2026-03-29T13:55:08.852Z</time></trkpt><trkpt lat="45.866928" lon="9.1098645"><ele>341.0</ele><time>2026-03-29T13:55:09.851Z</time></trkpt><trkpt lat="45.8669059" lon="9.1097362"><ele>346.0</ele><time>2026-03-29T13:55:10.845Z</time></trkpt><trkpt lat="45.8668747" lon="9.1096124"><ele>351.0</ele><time>2026-03-29T13:55:11.927Z</time></trkpt><trkpt lat="45.866842" lon="9.1094897"><ele>356.0</ele><time>2026-03-29T13:55:12.853Z</time></trkpt><trkpt lat="45.8668081" lon="9.1093733"><ele>349.83333333333337</ele><time>2026-03-29T13:55:13.843Z</time></trkpt><trkpt lat="45.8667696" lon="9.1092577"><ele>343.6666666666667</ele><time>2026-03-29T13:55:14.876Z</time></trkpt><trkpt lat="45.8667355" lon="9.1091415"><ele>337.5</ele><time>2026-03-29T13:55:15.859Z</time></trkpt><trkpt lat="45.8666948" lon="9.1090328"><ele>331.3333333333333</ele><time>2026-03-29T13:55:16.872Z</time></trkpt><trkpt lat="45.8666504" lon="9.1089319"><ele>325.16666666666663</ele><time>2026-03-29T13:55:17.863Z</time></trkpt><trkpt lat="45.8666007" lon="9.1088399"><ele>319.0</ele><time>2026-03-29T13:55:18.86Z</time></trkpt><trkpt lat="45.8665427" lon="9.108752"><ele>319.0</ele><time>2026-03-29T13:55:19.848Z</time></trkpt><trkpt lat="45.866482" lon="9.1086629"><ele>319.0</ele><time>2026-03-29T13:55:20.856Z</time></trkpt><trkpt lat="45.8664185" lon="9.1085754"><ele>319.0</ele><time>2026-03-29T13:55:21.845Z</time></trkpt><trkpt lat="45.8663538" lon="9.1084724"><ele>319.0</ele><time>2026-03-29T13:55:22.847Z</time></trkpt><trkpt lat="45.8662952" lon="9.1083677"><ele>319.0</ele><time>2026-03-29T13:55:23.853Z</time></trkpt><trkpt lat="45.8662438" lon="9.1082657"><ele>322.66666666666663</ele><time>2026-03-29T13:55:24.855Z</time></trkpt><trkpt lat="45.8661938" lon="9.1081679"><ele>326.3333333333333</ele><time>2026-03-29T13:55:25.846Z</time></trkpt><trkpt lat="45.8661426" lon="9.1080766"><ele>330.0</ele><time>2026-03-29T13:55:26.854Z</time></trkpt><trkpt lat="45.8660924" lon="9.1079872"><ele>333.6666666666667</ele><time>2026-03-29T13:55:27.851Z</time></trkpt><trkpt lat="45.866043" lon="9.10791"><ele>337.33333333333337</ele><time>2026-03-29T13:55:28.855Z</time></trkpt><trkpt lat="45.8659962" lon="9.1078383"><ele>341.0</ele><time>2026-03-29T13:55:29.853Z</time></trkpt><trkpt lat="45.8659522" lon="9.1077696"><ele>337.6</ele><time>2026-03-29T13:55:30.878Z</time></trkpt><trkpt lat="45.8659015" lon="9.1076937"><ele>334.20000000000005</ele><time>2026-03-29T13:55:31.848Z</time></trkpt><trkpt lat="45.8658482" lon="9.1076035"><ele>330.79999999999995</ele><time>2026-03-29T13:55:32.857Z</time></trkpt><trkpt lat="45.8657869" lon="9.1074987"><ele>327.4</ele><time>2026-03-29T13:55:33.853Z</time></trkpt><trkpt lat="45.8657181" lon="9.1073864"><ele>324.0</ele><time>2026-03-29T13:55:34.839Z</time></trkpt><trkpt lat="45.8656417" lon="9.1072717"><ele>324.0</ele><time>2026-03-29T13:55:35.854Z</time></trkpt><trkpt lat="45.8655575" lon="9.1071451"><ele>324.0</ele><time>2026-03-29T13:55:36.842Z</time></trkpt><trkpt lat="45.8654753" lon="9.1070195"><ele>324.0</ele><time>2026-03-29T13:55:37.842Z</time></trkpt><trkpt lat="45.8653979" lon="9.1069106"><ele>324.0</ele><time>2026-03-29T13:55:38.843Z</time></trkpt><trkpt lat="45.8653315" lon="9.1068179"><ele>324.0</ele><time>2026-03-29T13:55:39.849Z</time></trkpt><trkpt lat="45.8652695" lon="9.1067408"><ele>324.0</ele><time>2026-03-29T13:55:40.834Z</time></trkpt><trkpt lat="45.8652176" lon="9.1066749"><ele>324.0</ele><time>2026-03-29T13:55:41.841Z</time></trkpt><trkpt lat="45.8651444" lon="9.1065906"><ele>324.0</ele><time>2026-03-29T13:55:43.836Z</time></trkpt><trkpt lat="45.8650847" lon="9.1065205"><ele>324.0</ele><time>2026-03-29T13:56:01.849Z</time></trkpt><trkpt lat="45.8650061" lon="9.1064128"><ele>324.0</ele><time>2026-03-29T13:56:03.841Z</time></trkpt><trkpt lat="45.8649248" lon="9.1063265"><ele>319.0</ele><time>2026-03-29T13:56:04.844Z</time></trkpt><trkpt lat="45.8648238" lon="9.1062249"><ele>314.0</ele><time>2026-03-29T13:56:05.837Z</time></trkpt><trkpt lat="45.8647185" lon="9.1061035"><ele>309.0</ele><time>2026-03-29T13:56:06.848Z</time></trkpt><trkpt lat="45.864625" lon="9.1059794"><ele>304.0</ele><time>2026-03-29T13:56:07.834Z</time></trkpt><trkpt lat="45.8645551" lon="9.1058665"><ele>304.0</ele><time>2026-03-29T13:56:08.846Z</time></trkpt><trkpt lat="45.8644979" lon="9.1057608"><ele>304.0</ele><time>2026-03-29T13:56:09.842Z</time></trkpt><trkpt lat="45.8644552" lon="9.1056487"><ele>304.0</ele><time>2026-03-29T13:56:10.847Z</time></trkpt><trkpt lat="45.8644067" lon="9.1055353"><ele>304.0</ele><time>2026-03-29T13:56:11.872Z</time></trkpt><trkpt lat="45.8643524" lon="9.1054288"><ele>304.0</ele><time>2026-03-29T13:56:12.879Z</time></trkpt><trkpt lat="45.8642955" lon="9.1053226"><ele>303.0</ele><time>2026-03-29T13:56:13.866Z</time></trkpt><trkpt lat="45.8642312" lon="9.1051887"><ele>302.0</ele><time>2026-03-29T13:56:14.858Z</time></trkpt><trkpt lat="45.8641576" lon="9.1050379"><ele>301.0</ele><time>2026-03-29T13:56:15.854Z</time></trkpt><trkpt lat="45.8640696" lon="9.1048734"><ele>300.0</ele><time>2026-03-29T13:56:16.847Z</time></trkpt><trkpt lat="45.8639433" lon="9.1046407"><ele>300.0</ele><time>2026-03-29T13:56:17.86Z</time></trkpt><trkpt lat="45.8638199" lon="9.1043939"><ele>300.0</ele><time>2026-03-29T13:56:18.854Z</time></trkpt><trkpt lat="45.8637103" lon="9.1041378"><ele>300.0</ele><time>2026-03-29T13:56:19.85Z</time></trkpt><trkpt lat="45.8636139" lon="9.1039166"><ele>304.3333333333333</ele><time>2026-03-29T13:56:20.854Z</time></trkpt><trkpt lat="45.8635254" lon="9.1037104"><ele>308.66666666666663</ele><time>2026-03-29T13:56:21.854Z</time></trkpt><trkpt lat="45.8634153" lon="9.103515"><ele>313.0</ele><time>2026-03-29T13:56:22.848Z</time></trkpt><trkpt lat="45.86331" lon="9.1033149"><ele>306.3333333333333</ele><time>2026-03-29T13:56:23.852Z</time></trkpt><trkpt lat="45.8632117" lon="9.1031037"><ele>299.6666666666667</ele><time>2026-03-29T13:56:24.855Z</time></trkpt><trkpt lat="45.8631327" lon="9.1028776"><ele>293.0</ele><time>2026-03-29T13:56:25.85Z</time></trkpt><trkpt lat="45.8630847" lon="9.1026278"><ele>295.0</ele><time>2026-03-29T13:56:26.846Z</time></trkpt><trkpt lat="45.8630646" lon="9.1023764"><ele>297.0</ele><time>2026-03-29T13:56:27.852Z</time></trkpt><trkpt lat="45.8630577" lon="9.1021377"><ele>299.0</ele><time>2026-03-29T13:56:28.871Z</time></trkpt><trkpt lat="45.8630709" lon="9.1018784"><ele>299.0</ele><time>2026-03-29T13:56:29.859Z</time></trkpt><trkpt lat="45.8630792" lon="9.1015922"><ele>299.0</ele><time>2026-03-29T13:56:30.845Z</time></trkpt><trkpt lat="45.8630848" lon="9.1013152"><ele>299.0</ele><time>2026-03-29T13:56:31.848Z</time></trkpt><trkpt lat="45.8631106" lon="9.1010385"><ele>297.33333333333337</ele><time>2026-03-29T13:56:32.856Z</time></trkpt><trkpt lat="45.8631262" lon="9.1007611"><ele>295.6666666666667</ele><time>2026-03-29T13:56:33.856Z</time></trkpt><trkpt lat="45.8631294" lon="9.1004925"><ele>294.0</ele><time>2026-03-29T13:56:34.847Z</time></trkpt><trkpt lat="45.8631311" lon="9.1002213"><ele>294.0</ele><time>2026-03-29T13:56:35.853Z</time></trkpt><trkpt lat="45.8631505" lon="9.0999675"><ele>294.0</ele><time>2026-03-29T13:56:36.85Z</time></trkpt><trkpt lat="45.8631558" lon="9.0997251"><ele>294.0</ele><time>2026-03-29T13:56:37.85Z</time></trkpt><trkpt lat="45.8631539" lon="9.0994903"><ele>294.0</ele><time>2026-03-29T13:56:38.857Z</time></trkpt><trkpt lat="45.8631582" lon="9.0992561"><ele>294.0</ele><time>2026-03-29T13:56:39.858Z</time></trkpt><trkpt lat="45.8631587" lon="9.0990241"><ele>294.0</ele><time>2026-03-29T13:56:40.845Z</time></trkpt><trkpt lat="45.8631196" lon="9.0988016"><ele>295.6666666666667</ele><time>2026-03-29T13:56:41.856Z</time></trkpt><trkpt lat="45.8630496" lon="9.0985936"><ele>297.33333333333337</ele><time>2026-03-29T13:56:42.867Z</time></trkpt><trkpt lat="45.8629526" lon="9.0984151"><ele>299.0</ele><time>2026-03-29T13:56:43.843Z</time></trkpt><trkpt lat="45.8628441" lon="9.0982666"><ele>300.6666666666667</ele><time>2026-03-29T13:56:44.855Z</time></trkpt><trkpt lat="45.8627078" lon="9.0981554"><ele>302.3333333333333</ele><time>2026-03-29T13:56:45.854Z</time></trkpt><trkpt lat="45.8625687" lon="9.0980736"><ele>304.0</ele><time>2026-03-29T13:56:46.845Z</time></trkpt><trkpt lat="45.862412" lon="9.0980149"><ele>304.0</ele><time>2026-03-29T13:56:47.842Z</time></trkpt><trkpt lat="45.8622563" lon="9.0979919"><ele>304.0</ele><time>2026-03-29T13:56:48.852Z</time></trkpt><trkpt lat="45.8620843" lon="9.0979899"><ele>304.0</ele><time>2026-03-29T13:56:49.849Z</time></trkpt><trkpt lat="45.861902" lon="9.0980115"><ele>302.0</ele><time>2026-03-29T13:56:50.848Z</time></trkpt><trkpt lat="45.8617356" lon="9.0979952"><ele>300.0</ele><time>2026-03-29T13:56:51.838Z</time></trkpt><trkpt lat="45.8615754" lon="9.0980124"><ele>298.0</ele><time>2026-03-29T13:56:52.84Z</time></trkpt><trkpt lat="45.8614311" lon="9.0980208"><ele>298.0</ele><time>2026-03-29T13:56:53.835Z</time></trkpt><trkpt lat="45.8612924" lon="9.0979963"><ele>298.0</ele><time>2026-03-29T13:56:54.83Z</time></trkpt><trkpt lat="45.8611386" lon="9.0979788"><ele>298.0</ele><time>2026-03-29T13:56:55.832Z</time></trkpt><trkpt lat="45.8610013" lon="9.0979267"><ele>298.0</ele><time>2026-03-29T13:56:56.823Z</time></trkpt><trkpt lat="45.8608698" lon="9.0978232"><ele>297.66666666666663</ele><time>2026-03-29T13:56:57.832Z</time></trkpt><trkpt lat="45.8607744" lon="9.097608"><ele>297.3333333333333</ele><time>2026-03-29T13:56:58.847Z</time></trkpt><trkpt lat="45.8607079" lon="9.0973634"><ele>297.0</ele><time>2026-03-29T13:56:59.841Z</time></trkpt><trkpt lat="45.8606219" lon="9.0971298"><ele>297.0</ele><time>2026-03-29T13:57:00.85Z</time></trkpt><trkpt lat="45.86054" lon="9.0968645"><ele>297.0</ele><time>2026-03-29T13:57:01.835Z</time></trkpt><trkpt lat="45.86047" lon="9.0966178"><ele>297.0</ele><time>2026-03-29T13:57:02.848Z</time></trkpt><trkpt lat="45.8603734" lon="9.0964159"><ele>291.3333333333333</ele><time>2026-03-29T13:57:03.848Z</time></trkpt><trkpt lat="45.8602492" lon="9.0962638"><ele>285.66666666666663</ele><time>2026-03-29T13:57:04.843Z</time></trkpt><trkpt lat="45.8600858" lon="9.0961353"><ele>280.0</ele><time>2026-03-29T13:57:05.85Z</time></trkpt><trkpt lat="45.8599013" lon="9.0959789"><ele>280.0</ele><time>2026-03-29T13:57:06.844Z</time></trkpt><trkpt lat="45.8597448" lon="9.0958355"><ele>280.0</ele><time>2026-03-29T13:57:07.834Z</time></trkpt><trkpt lat="45.8595954" lon="9.0956665"><ele>280.0</ele><time>2026-03-29T13:57:08.842Z</time></trkpt><trkpt lat="45.8594649" lon="9.0954977"><ele>280.3333333333333</ele><time>2026-03-29T13:57:09.84Z</time></trkpt><trkpt lat="45.8593238" lon="9.0953542"><ele>280.6666666666667</ele><time>2026-03-29T13:57:10.837Z</time></trkpt><trkpt lat="45.8591971" lon="9.0952175"><ele>281.0</ele><time>2026-03-29T13:57:11.847Z</time></trkpt><trkpt lat="45.8590838" lon="9.0950986"><ele>293.0</ele><time>2026-03-29T13:57:12.836Z</time></trkpt><trkpt lat="45.8589776" lon="9.0949045"><ele>305.0</ele><time>2026-03-29T13:57:13.836Z</time></trkpt><trkpt lat="45.8588648" lon="9.0947309"><ele>317.0</ele><time>2026-03-29T13:57:14.838Z</time></trkpt><trkpt lat="45.8587479" lon="9.0945359"><ele>317.0</ele><time>2026-03-29T13:57:15.84Z</time></trkpt><trkpt lat="45.8586592" lon="9.0943338"><ele>317.0</ele><time>2026-03-29T13:57:16.841Z</time></trkpt><trkpt lat="45.858563" lon="9.0941113"><ele>317.0</ele><time>2026-03-29T13:57:17.844Z</time></trkpt><trkpt lat="45.8584727" lon="9.0938535"><ele>325.0</ele><time>2026-03-29T13:57:18.841Z</time></trkpt><trkpt lat="45.8583675" lon="9.0935642"><ele>333.0</ele><time>2026-03-29T13:57:19.839Z</time></trkpt><trkpt lat="45.8582621" lon="9.0932928"><ele>341.0</ele><time>2026-03-29T13:57:20.84Z</time></trkpt><trkpt lat="45.8581554" lon="9.093059"><ele>341.0</ele><time>2026-03-29T13:57:21.827Z</time></trkpt><trkpt lat="45.858042" lon="9.0928381"><ele>341.0</ele><time>2026-03-29T13:57:22.831Z</time></trkpt><trkpt lat="45.8579309" lon="9.0926492"><ele>341.0</ele><time>2026-03-29T13:57:23.837Z</time></trkpt><trkpt lat="45.8578131" lon="9.0924944"><ele>340.33333333333337</ele><time>2026-03-29T13:57:24.831Z</time></trkpt><trkpt lat="45.8576828" lon="9.0923746"><ele>339.6666666666667</ele><time>2026-03-29T13:57:25.83Z</time></trkpt><trkpt lat="45.8575382" lon="9.0922989"><ele>339.0</ele><time>2026-03-29T13:57:26.824Z</time></trkpt><trkpt lat="45.8573898" lon="9.0922513"><ele>339.0</ele><time>2026-03-29T13:57:27.823Z</time></trkpt><trkpt lat="45.8572404" lon="9.0921909"><ele>339.0</ele><time>2026-03-29T13:57:28.816Z</time></trkpt><trkpt lat="45.857117" lon="9.092102"><ele>339.0</ele><time>2026-03-29T13:57:29.82Z</time></trkpt><trkpt lat="45.8569504" lon="9.0920594"><ele>339.0</ele><time>2026-03-29T13:57:30.806Z</time></trkpt><trkpt lat="45.8568481" lon="9.0919406"><ele>339.0</ele><time>2026-03-29T13:57:31.804Z</time></trkpt><trkpt lat="45.8567002" lon="9.0918768"><ele>339.0</ele><time>2026-03-29T13:57:32.775Z</time></trkpt><trkpt lat="45.85601" lon="9.0916701"><ele>304.0</ele><time>2026-03-29T13:57:35.76Z</time></trkpt><trkpt lat="45.8557874" lon="9.0919005"><ele>269.0</ele><time>2026-03-29T13:57:36.795Z</time></trkpt><trkpt lat="45.8554919" lon="9.091973"><ele>269.0</ele><time>2026-03-29T13:57:37.813Z</time></trkpt><trkpt lat="45.8553532" lon="9.0918311"><ele>269.0</ele><time>2026-03-29T13:57:38.818Z</time></trkpt><trkpt lat="45.855236" lon="9.0917308"><ele>269.0</ele><time>2026-03-29T13:57:39.816Z</time></trkpt><trkpt lat="45.8550876" lon="9.0916651"><ele>277.5</ele><time>2026-03-29T13:57:40.809Z</time></trkpt><trkpt lat="45.8549365" lon="9.0915474"><ele>286.0</ele><time>2026-03-29T13:57:41.809Z</time></trkpt><trkpt lat="45.8548095" lon="9.0911769"><ele>286.0</ele><time>2026-03-29T13:57:42.808Z</time></trkpt><trkpt lat="45.8545569" lon="9.0912204"><ele>286.0</ele><time>2026-03-29T13:57:43.813Z</time></trkpt><trkpt lat="45.8544507" lon="9.0910295"><ele>286.0</ele><time>2026-03-29T13:57:44.809Z</time></trkpt><trkpt lat="45.8543335" lon="9.0909151"><ele>288.0</ele><time>2026-03-29T13:57:45.817Z</time></trkpt><trkpt lat="45.8541957" lon="9.0908305"><ele>290.0</ele><time>2026-03-29T13:57:46.816Z</time></trkpt><trkpt lat="45.8540467" lon="9.0907162"><ele>292.0</ele><time>2026-03-29T13:57:47.818Z</time></trkpt><trkpt lat="45.8538976" lon="9.0906229"><ele>292.0</ele><time>2026-03-29T13:57:48.822Z</time></trkpt><trkpt lat="45.8537653" lon="9.0905556"><ele>292.0</ele><time>2026-03-29T13:57:49.828Z</time></trkpt><trkpt lat="45.8536404" lon="9.0904807"><ele>292.0</ele><time>2026-03-29T13:57:50.817Z</time></trkpt><trkpt lat="45.8535321" lon="9.0903802"><ele>292.0</ele><time>2026-03-29T13:57:51.81Z</time></trkpt><trkpt lat="45.8534501" lon="9.0902565"><ele>292.75</ele><time>2026-03-29T13:57:52.801Z</time></trkpt><trkpt lat="45.8533614" lon="9.0901095"><ele>293.5</ele><time>2026-03-29T13:57:53.808Z</time></trkpt><trkpt lat="45.8532481" lon="9.090113"><ele>294.25</ele><time>2026-03-29T13:57:54.807Z</time></trkpt><trkpt lat="45.8531453" lon="9.0900146"><ele>295.0</ele><time>2026-03-29T13:57:55.811Z</time></trkpt><trkpt lat="45.8530795" lon="9.0898802"><ele>295.0</ele><time>2026-03-29T13:57:56.813Z</time></trkpt><trkpt lat="45.8530205" lon="9.0897231"><ele>295.0</ele><time>2026-03-29T13:57:57.816Z</time></trkpt><trkpt lat="45.8529172" lon="9.0895639"><ele>295.0</ele><time>2026-03-29T13:57:58.816Z</time></trkpt><trkpt lat="45.8527692" lon="9.0894498"><ele>295.0</ele><time>2026-03-29T13:57:59.827Z</time></trkpt><trkpt lat="45.8526982" lon="9.0892718"><ele>295.0</ele><time>2026-03-29T13:58:00.828Z</time></trkpt><trkpt lat="45.8526258" lon="9.089111"><ele>295.0</ele><time>2026-03-29T13:58:01.827Z</time></trkpt><trkpt lat="45.8525371" lon="9.0889654"><ele>295.0</ele><time>2026-03-29T13:58:02.847Z</time></trkpt><trkpt lat="45.8524386" lon="9.0888651"><ele>295.0</ele><time>2026-03-29T13:58:03.818Z</time></trkpt><trkpt lat="45.8523432" lon="9.088735"><ele>300.75</ele><time>2026-03-29T13:58:04.818Z</time></trkpt><trkpt lat="45.8522521" lon="9.0886125"><ele>306.5</ele><time>2026-03-29T13:58:05.807Z</time></trkpt><trkpt lat="45.8521423" lon="9.0885236"><ele>312.25</ele><time>2026-03-29T13:58:06.808Z</time></trkpt><trkpt lat="45.8520364" lon="9.088403"><ele>318.0</ele><time>2026-03-29T13:58:07.8Z</time></trkpt><trkpt lat="45.8519246" lon="9.088306"><ele>209.0</ele><time>2026-03-29T13:58:08.772Z</time></trkpt><trkpt lat="45.8379736" lon="9.0674335"><ele>209.0</ele><time>2026-03-29T14:00:24.851Z</time></trkpt><trkpt lat="45.8377899" lon="9.0673641"><ele>209.0</ele><time>2026-03-29T14:00:25.846Z</time></trkpt><trkpt lat="45.8375946" lon="9.0673167"><ele>209.0</ele><time>2026-03-29T14:00:26.846Z</time></trkpt><trkpt lat="45.8374276" lon="9.0672964"><ele>208.0</ele><time>2026-03-29T14:00:27.852Z</time></trkpt><trkpt lat="45.8372585" lon="9.0672728"><ele>207.0</ele><time>2026-03-29T14:00:28.859Z</time></trkpt><trkpt lat="45.837097" lon="9.0672856"><ele>206.0</ele><time>2026-03-29T14:00:29.862Z</time></trkpt><trkpt lat="45.8369523" lon="9.0673218"><ele>206.0</ele><time>2026-03-29T14:00:30.856Z</time></trkpt><trkpt lat="45.8368126" lon="9.0673867"><ele>206.0</ele><time>2026-03-29T14:00:31.865Z</time></trkpt><trkpt lat="45.8366775" lon="9.0674823"><ele>206.0</ele><time>2026-03-29T14:00:32.849Z</time></trkpt><trkpt lat="45.8365364" lon="9.0675897"><ele>206.0</ele><time>2026-03-29T14:00:33.857Z</time></trkpt><trkpt lat="45.8364201" lon="9.0677108"><ele>206.0</ele><time>2026-03-29T14:00:34.864Z</time></trkpt><trkpt lat="45.8363106" lon="9.067843"><ele>206.0</ele><time>2026-03-29T14:00:35.865Z</time></trkpt><trkpt lat="45.8362106" lon="9.0679865"><ele>206.0</ele><time>2026-03-29T14:00:36.865Z</time></trkpt><trkpt lat="45.8361142" lon="9.0681493"><ele>206.0</ele><time>2026-03-29T14:00:37.853Z</time></trkpt><trkpt lat="45.8360457" lon="9.068316"><ele>206.0</ele><time>2026-03-29T14:00:38.861Z</time></trkpt><trkpt lat="45.8359808" lon="9.0685109"><ele>206.0</ele><time>2026-03-29T14:00:39.856Z</time></trkpt><trkpt lat="45.8359276" lon="9.0687027"><ele>206.0</ele><time>2026-03-29T14:00:40.862Z</time></trkpt><trkpt lat="45.8358867" lon="9.0688865"><ele>206.0</ele><time>2026-03-29T14:00:41.858Z</time></trkpt><trkpt lat="45.8358432" lon="9.0690779"><ele>206.0</ele><time>2026-03-29T14:00:42.855Z</time></trkpt><trkpt lat="45.8358124" lon="9.0692601"><ele>206.0</ele><time>2026-03-29T14:00:43.854Z</time></trkpt><trkpt lat="45.8357986" lon="9.0694314"><ele>206.0</ele><time>2026-03-29T14:00:44.852Z</time></trkpt><trkpt lat="45.8357577" lon="9.0695888"><ele>206.25</ele><time>2026-03-29T14:00:45.854Z</time></trkpt><trkpt lat="45.8356985" lon="9.0697393"><ele>206.5</ele><time>2026-03-29T14:00:46.852Z</time></trkpt><trkpt lat="45.8356336" lon="9.0699157"><ele>206.75</ele><time>2026-03-29T14:00:47.854Z</time></trkpt><trkpt lat="45.8355808" lon="9.0701061"><ele>207.0</ele><time>2026-03-29T14:00:48.849Z</time></trkpt><trkpt lat="45.8355155" lon="9.0702947"><ele>207.0</ele><time>2026-03-29T14:00:49.855Z</time></trkpt><trkpt lat="45.8354628" lon="9.0704805"><ele>207.0</ele><time>2026-03-29T14:00:50.851Z</time></trkpt><trkpt lat="45.835417" lon="9.0706545"><ele>207.0</ele><time>2026-03-29T14:00:51.854Z</time></trkpt><trkpt lat="45.8353594" lon="9.0708152"><ele>207.0</ele><time>2026-03-29T14:00:52.849Z</time></trkpt><trkpt lat="45.8353126" lon="9.0709962"><ele>206.5</ele><time>2026-03-29T14:00:53.861Z</time></trkpt><trkpt lat="45.8352575" lon="9.0711538"><ele>206.0</ele><time>2026-03-29T14:00:54.85Z</time></trkpt><trkpt lat="45.8351943" lon="9.0713103"><ele>205.5</ele><time>2026-03-29T14:00:55.856Z</time></trkpt><trkpt lat="45.8351526" lon="9.0714671"><ele>205.0</ele><time>2026-03-29T14:00:56.842Z</time></trkpt><trkpt lat="45.835118" lon="9.0716132"><ele>204.66666666666666</ele><time>2026-03-29T14:00:57.85Z</time></trkpt><trkpt lat="45.8350819" lon="9.0717428"><ele>204.33333333333331</ele><time>2026-03-29T14:00:58.846Z</time></trkpt><trkpt lat="45.8350385" lon="9.0718556"><ele>204.0</ele><time>2026-03-29T14:00:59.86Z</time></trkpt><trkpt lat="45.8349874" lon="9.0719606"><ele>203.66666666666669</ele><time>2026-03-29T14:01:00.848Z</time></trkpt><trkpt lat="45.8349333" lon="9.0720582"><ele>203.33333333333334</ele><time>2026-03-29T14:01:01.859Z</time></trkpt><trkpt lat="45.8348733" lon="9.0721397"><ele>203.0</ele><time>2026-03-29T14:01:02.86Z</time></trkpt><trkpt lat="45.8348213" lon="9.0722101"><ele>203.00000000000003</ele><time>2026-03-29T14:01:03.849Z</time></trkpt><trkpt lat="45.8347395" lon="9.0723049"><ele>203.0</ele><time>2026-03-29T14:01:05.857Z</time></trkpt><trkpt lat="45.8346622" lon="9.0723792"><ele>203.0</ele><time>2026-03-29T14:01:07.857Z</time></trkpt><trkpt lat="45.834594" lon="9.0724275"><ele>203.0</ele><time>2026-03-29T14:01:09.876Z</time></trkpt><trkpt lat="45.8345327" lon="9.0724572"><ele>203.00000000000003</ele><time>2026-03-29T14:01:11.883Z</time></trkpt><trkpt lat="45.8344681" lon="9.0724824"><ele>203.0</ele><time>2026-03-29T14:01:14.879Z</time></trkpt><trkpt lat="45.8343581" lon="9.0725147"><ele>203.5</ele><time>2026-03-29T14:01:16.862Z</time></trkpt><trkpt lat="45.8341699" lon="9.0725204"><ele>204.0</ele><time>2026-03-29T14:01:18.858Z</time></trkpt><trkpt lat="45.8340996" lon="9.0725094"><ele>204.5</ele><time>2026-03-29T14:01:19.853Z</time></trkpt><trkpt lat="45.8339755" lon="9.0724801"><ele>205.0</ele><time>2026-03-29T14:01:21.851Z</time></trkpt><trkpt lat="45.8338959" lon="9.0724542"><ele>204.99999999999997</ele><time>2026-03-29T14:01:22.858Z</time></trkpt><trkpt lat="45.8338144" lon="9.0724238"><ele>205.0</ele><time>2026-03-29T14:01:23.858Z</time></trkpt><trkpt lat="45.8337306" lon="9.0723917"><ele>205.0</ele><time>2026-03-29T14:01:24.854Z</time></trkpt><trkpt lat="45.833642" lon="9.0723499"><ele>205.0</ele><time>2026-03-29T14:01:25.864Z</time></trkpt><trkpt lat="45.8335661" lon="9.0723071"><ele>204.99999999999997</ele><time>2026-03-29T14:01:26.856Z</time></trkpt><trkpt lat="45.8335029" lon="9.0722774"><ele>205.0</ele><time>2026-03-29T14:01:27.852Z</time></trkpt><trkpt lat="45.8333994" lon="9.0722392"><ele>204.99999999999997</ele><time>2026-03-29T14:01:29.859Z</time></trkpt><trkpt lat="45.8333041" lon="9.0722039"><ele>205.0</ele><time>2026-03-29T14:01:31.85Z</time></trkpt><trkpt lat="45.8332194" lon="9.0721669"><ele>205.0</ele><time>2026-03-29T14:01:33.862Z</time></trkpt><trkpt lat="45.8331503" lon="9.0721368"><ele>205.0</ele><time>2026-03-29T14:01:43.875Z</time></trkpt><trkpt lat="45.8330902" lon="9.0721081"><ele>204.99999999999997</ele><time>2026-03-29T14:01:45.871Z</time></trkpt><trkpt lat="45.8330028" lon="9.0720775"><ele>205.0</ele><time>2026-03-29T14:01:48.872Z</time></trkpt><trkpt lat="45.8329376" lon="9.0720536"><ele>205.0</ele><time>2026-03-29T14:01:50.865Z</time></trkpt><trkpt lat="45.832849" lon="9.0720241"><ele>205.0</ele><time>2026-03-29T14:01:52.849Z</time></trkpt><trkpt lat="45.8327563" lon="9.0719903"><ele>205.0</ele><time>2026-03-29T14:01:54.856Z</time></trkpt><trkpt lat="45.8326327" lon="9.0719558"><ele>205.0</ele><time>2026-03-29T14:01:56.849Z</time></trkpt><trkpt lat="45.8325112" lon="9.0719209"><ele>205.0</ele><time>2026-03-29T14:01:58.854Z</time></trkpt><trkpt lat="45.8324007" lon="9.0718701"><ele>205.0</ele><time>2026-03-29T14:02:00.854Z</time></trkpt><trkpt lat="45.8322759" lon="9.0718249"><ele>205.0</ele><time>2026-03-29T14:02:02.859Z</time></trkpt><trkpt lat="45.8322072" lon="9.071813"><ele>205.0</ele><time>2026-03-29T14:02:03.847Z</time></trkpt><trkpt lat="45.8321155" lon="9.0718163"><ele>205.0</ele><time>2026-03-29T14:02:04.869Z</time></trkpt><trkpt lat="45.8319911" lon="9.0718212"><ele>205.0</ele><time>2026-03-29T14:02:05.85Z</time></trkpt><trkpt lat="45.831849" lon="9.0718212"><ele>204.4</ele><time>2026-03-29T14:02:06.862Z</time></trkpt><trkpt lat="45.8317117" lon="9.0718274"><ele>203.8</ele><time>2026-03-29T14:02:07.862Z</time></trkpt><trkpt lat="45.8315955" lon="9.0718416"><ele>203.2</ele><time>2026-03-29T14:02:08.86Z</time></trkpt><trkpt lat="45.8315168" lon="9.0718658"><ele>202.6</ele><time>2026-03-29T14:02:09.858Z</time></trkpt><trkpt lat="45.8314093" lon="9.0718955"><ele>202.0</ele><time>2026-03-29T14:02:11.854Z</time></trkpt><trkpt lat="45.831314" lon="9.0719226"><ele>202.0</ele><time>2026-03-29T14:02:13.845Z</time></trkpt><trkpt lat="45.8312417" lon="9.071925"><ele>202.0</ele><time>2026-03-29T14:02:14.839Z</time></trkpt><trkpt lat="45.8311429" lon="9.0719311"><ele>202.0</ele><time>2026-03-29T14:02:15.841Z</time></trkpt><trkpt lat="45.8310269" lon="9.0719433"><ele>202.0</ele><time>2026-03-29T14:02:16.853Z</time></trkpt><trkpt lat="45.8309047" lon="9.0719524"><ele>202.0</ele><time>2026-03-29T14:02:17.852Z</time></trkpt><trkpt lat="45.830773" lon="9.0719303"><ele>204.5</ele><time>2026-03-29T14:02:18.875Z</time></trkpt><trkpt lat="45.8306354" lon="9.0718869"><ele>207.0</ele><time>2026-03-29T14:02:19.848Z</time></trkpt><trkpt lat="45.8304962" lon="9.0718352"><ele>209.5</ele><time>2026-03-29T14:02:20.853Z</time></trkpt><trkpt lat="45.8303421" lon="9.0717525"><ele>212.0</ele><time>2026-03-29T14:02:21.845Z</time></trkpt><trkpt lat="45.8302148" lon="9.0716708"><ele>218.25</ele><time>2026-03-29T14:02:22.851Z</time></trkpt><trkpt lat="45.8300871" lon="9.0715791"><ele>224.5</ele><time>2026-03-29T14:02:23.847Z</time></trkpt><trkpt lat="45.829981" lon="9.0715129"><ele>230.75</ele><time>2026-03-29T14:02:24.84Z</time></trkpt><trkpt lat="45.8298596" lon="9.0714675"><ele>237.0</ele><time>2026-03-29T14:02:25.859Z</time></trkpt><trkpt lat="45.8297458" lon="9.0714198"><ele>237.0</ele><time>2026-03-29T14:02:26.859Z</time></trkpt><trkpt lat="45.8296234" lon="9.071333"><ele>237.0</ele><time>2026-03-29T14:02:27.848Z</time></trkpt><trkpt lat="45.829503" lon="9.0712443"><ele>237.0</ele><time>2026-03-29T14:02:28.858Z</time></trkpt><trkpt lat="45.8294064" lon="9.0710917"><ele>237.0</ele><time>2026-03-29T14:02:29.846Z</time></trkpt><trkpt lat="45.8293228" lon="9.070947"><ele>238.8</ele><time>2026-03-29T14:02:30.847Z</time></trkpt><trkpt lat="45.8292478" lon="9.070828"><ele>240.6</ele><time>2026-03-29T14:02:31.852Z</time></trkpt><trkpt lat="45.8291716" lon="9.0707371"><ele>242.40000000000003</ele><time>2026-03-29T14:02:32.844Z</time></trkpt><trkpt lat="45.8290935" lon="9.0706578"><ele>244.20000000000002</ele><time>2026-03-29T14:02:33.844Z</time></trkpt><trkpt lat="45.829014" lon="9.0705868"><ele>246.0</ele><time>2026-03-29T14:02:34.839Z</time></trkpt><trkpt lat="45.8289472" lon="9.0705089"><ele>246.0</ele><time>2026-03-29T14:02:35.839Z</time></trkpt><trkpt lat="45.8288795" lon="9.0704143"><ele>246.00000000000003</ele><time>2026-03-29T14:02:36.831Z</time></trkpt><trkpt lat="45.8288165" lon="9.0703191"><ele>246.00000000000003</ele><time>2026-03-29T14:02:37.839Z</time></trkpt><trkpt lat="45.8287563" lon="9.0702265"><ele>246.0</ele><time>2026-03-29T14:02:38.843Z</time></trkpt><trkpt lat="45.8286904" lon="9.07013"><ele>246.0</ele><time>2026-03-29T14:02:39.842Z</time></trkpt><trkpt lat="45.8286113" lon="9.0700447"><ele>246.0</ele><time>2026-03-29T14:02:40.838Z</time></trkpt><trkpt lat="45.8285125" lon="9.0699843"><ele>246.0</ele><time>2026-03-29T14:02:41.829Z</time></trkpt><trkpt lat="45.8283996" lon="9.0699579"><ele>246.0</ele><time>2026-03-29T14:02:42.836Z</time></trkpt><trkpt lat="45.8282727" lon="9.0699691"><ele>246.0</ele><time>2026-03-29T14:02:43.837Z</time></trkpt><trkpt lat="45.8281445" lon="9.0699801"><ele>240.5</ele><time>2026-03-29T14:02:44.834Z</time></trkpt><trkpt lat="45.8280196" lon="9.0699943"><ele>235.0</ele><time>2026-03-29T14:02:45.831Z</time></trkpt><trkpt lat="45.8278994" lon="9.0700018"><ele>229.5</ele><time>2026-03-29T14:02:46.836Z</time></trkpt><trkpt lat="45.827788" lon="9.0699996"><ele>224.0</ele><time>2026-03-29T14:02:47.856Z</time></trkpt><trkpt lat="45.8276758" lon="9.0699771"><ele>228.25</ele><time>2026-03-29T14:02:48.832Z</time></trkpt><trkpt lat="45.8275668" lon="9.0699362"><ele>232.5</ele><time>2026-03-29T14:02:49.848Z</time></trkpt><trkpt lat="45.8274575" lon="9.0698711"><ele>236.75</ele><time>2026-03-29T14:02:50.842Z</time></trkpt><trkpt lat="45.8273418" lon="9.0698049"><ele>241.0</ele><time>2026-03-29T14:02:51.843Z</time></trkpt><trkpt lat="45.8272293" lon="9.0696999"><ele>241.0</ele><time>2026-03-29T14:02:52.848Z</time></trkpt><trkpt lat="45.8271232" lon="9.0695992"><ele>241.0</ele><time>2026-03-29T14:02:53.841Z</time></trkpt><trkpt lat="45.8270092" lon="9.0695074"><ele>241.0</ele><time>2026-03-29T14:02:54.839Z</time></trkpt><trkpt lat="45.8268907" lon="9.0694138"><ele>241.0</ele><time>2026-03-29T14:02:55.846Z</time></trkpt><trkpt lat="45.8267739" lon="9.0693234"><ele>242.25</ele><time>2026-03-29T14:02:56.85Z</time></trkpt><trkpt lat="45.8266615" lon="9.0692248"><ele>243.5</ele><time>2026-03-29T14:02:57.839Z</time></trkpt><trkpt lat="45.8265541" lon="9.069126"><ele>244.75</ele><time>2026-03-29T14:02:58.845Z</time></trkpt><trkpt lat="45.826448" lon="9.0690306"><ele>246.0</ele><time>2026-03-29T14:02:59.848Z</time></trkpt><trkpt lat="45.8263351" lon="9.0689347"><ele>246.0</ele><time>2026-03-29T14:03:00.844Z</time></trkpt><trkpt lat="45.8262239" lon="9.0688513"><ele>246.0</ele><time>2026-03-29T14:03:01.848Z</time></trkpt><trkpt lat="45.8261239" lon="9.0687583"><ele>246.0</ele><time>2026-03-29T14:03:02.842Z</time></trkpt><trkpt lat="45.8260354" lon="9.0686575"><ele>246.0</ele><time>2026-03-29T14:03:03.837Z</time></trkpt><trkpt lat="45.8259403" lon="9.0685831"><ele>239.0</ele><time>2026-03-29T14:03:04.844Z</time></trkpt><trkpt lat="45.8258476" lon="9.0685227"><ele>232.0</ele><time>2026-03-29T14:03:05.847Z</time></trkpt><trkpt lat="45.8257424" lon="9.0684786"><ele>225.0</ele><time>2026-03-29T14:03:06.835Z</time></trkpt><trkpt lat="45.8256222" lon="9.0684495"><ele>218.0</ele><time>2026-03-29T14:03:07.845Z</time></trkpt><trkpt lat="45.8254819" lon="9.068443"><ele>218.0</ele><time>2026-03-29T14:03:08.844Z</time></trkpt><trkpt lat="45.8253273" lon="9.068437"><ele>218.0</ele><time>2026-03-29T14:03:09.854Z</time></trkpt><trkpt lat="45.8251845" lon="9.0684211"><ele>218.0</ele><time>2026-03-29T14:03:10.857Z</time></trkpt><trkpt lat="45.8250606" lon="9.0684118"><ele>218.0</ele><time>2026-03-29T14:03:11.856Z</time></trkpt><trkpt lat="45.8249472" lon="9.0684162"><ele>216.8</ele><time>2026-03-29T14:03:12.842Z</time></trkpt><trkpt lat="45.8248476" lon="9.0684086"><ele>215.60000000000002</ele><time>2026-03-29T14:03:13.854Z</time></trkpt><trkpt lat="45.8247624" lon="9.0683825"><ele>214.39999999999998</ele><time>2026-03-29T14:03:14.858Z</time></trkpt><trkpt lat="45.8246728" lon="9.06835"><ele>213.2</ele><time>2026-03-29T14:03:15.849Z</time></trkpt><trkpt lat="45.8245695" lon="9.0683168"><ele>212.0</ele><time>2026-03-29T14:03:16.852Z</time></trkpt><trkpt lat="45.8244677" lon="9.0682807"><ele>218.0</ele><time>2026-03-29T14:03:17.85Z</time></trkpt><trkpt lat="45.8243655" lon="9.0682253"><ele>224.0</ele><time>2026-03-29T14:03:18.848Z</time></trkpt><trkpt lat="45.8242673" lon="9.0681657"><ele>230.0</ele><time>2026-03-29T14:03:19.857Z</time></trkpt><trkpt lat="45.8241789" lon="9.0681089"><ele>236.0</ele><time>2026-03-29T14:03:20.858Z</time></trkpt><trkpt lat="45.8240978" lon="9.0680592"><ele>242.0</ele><time>2026-03-29T14:03:21.843Z</time></trkpt><trkpt lat="45.8240063" lon="9.0680077"><ele>242.0</ele><time>2026-03-29T14:03:22.856Z</time></trkpt><trkpt lat="45.8239061" lon="9.067954"><ele>242.0</ele><time>2026-03-29T14:03:23.849Z</time></trkpt><trkpt lat="45.8237939" lon="9.067898"><ele>242.0</ele><time>2026-03-29T14:03:24.852Z</time></trkpt><trkpt lat="45.8236708" lon="9.0678525"><ele>242.0</ele><time>2026-03-29T14:03:25.852Z</time></trkpt><trkpt lat="45.8235292" lon="9.0678218"><ele>235.66666666666669</ele><time>2026-03-29T14:03:26.844Z</time></trkpt><trkpt lat="45.8233259" lon="9.0677955"><ele>229.33333333333331</ele><time>2026-03-29T14:03:27.849Z</time></trkpt><trkpt lat="45.8231619" lon="9.0677718"><ele>223.0</ele><time>2026-03-29T14:03:28.855Z</time></trkpt><trkpt lat="45.8230143" lon="9.0677566"><ele>223.0</ele><time>2026-03-29T14:03:29.854Z</time></trkpt><trkpt lat="45.8228924" lon="9.0677526"><ele>223.0</ele><time>2026-03-29T14:03:30.84Z</time></trkpt><trkpt lat="45.82279" lon="9.0677466"><ele>223.0</ele><time>2026-03-29T14:03:31.853Z</time></trkpt><trkpt lat="45.8226883" lon="9.0677456"><ele>223.0</ele><time>2026-03-29T14:03:32.844Z</time></trkpt><trkpt lat="45.8226024" lon="9.0677247"><ele>223.0</ele><time>2026-03-29T14:03:33.834Z</time></trkpt><trkpt lat="45.8225261" lon="9.0676966"><ele>221.2</ele><time>2026-03-29T14:03:34.868Z</time></trkpt><trkpt lat="45.8224378" lon="9.0676337"><ele>219.4</ele><time>2026-03-29T14:03:35.842Z</time></trkpt><trkpt lat="45.8223518" lon="9.0675855"><ele>217.59999999999997</ele><time>2026-03-29T14:03:36.832Z</time></trkpt><trkpt lat="45.8222813" lon="9.067539"><ele>215.79999999999998</ele><time>2026-03-29T14:03:37.83Z</time></trkpt><trkpt lat="45.8221866" lon="9.0674602"><ele>214.0</ele><time>2026-03-29T14:03:38.842Z</time></trkpt><trkpt lat="45.8220773" lon="9.0673631"><ele>215.25</ele><time>2026-03-29T14:03:39.84Z</time></trkpt><trkpt lat="45.8219731" lon="9.0672648"><ele>216.5</ele><time>2026-03-29T14:03:40.852Z</time></trkpt><trkpt lat="45.8218726" lon="9.0671788"><ele>217.75</ele><time>2026-03-29T14:03:41.843Z</time></trkpt><trkpt lat="45.8217752" lon="9.0671201"><ele>219.0</ele><time>2026-03-29T14:03:42.839Z</time></trkpt><trkpt lat="45.8216703" lon="9.0670745"><ele>219.0</ele><time>2026-03-29T14:03:43.848Z</time></trkpt><trkpt lat="45.8215641" lon="9.06703"><ele>219.0</ele><time>2026-03-29T14:03:44.844Z</time></trkpt><trkpt lat="45.8214574" lon="9.0669859"><ele>219.0</ele><time>2026-03-29T14:03:45.836Z</time></trkpt><trkpt lat="45.8213437" lon="9.0669257"><ele>219.0</ele><time>2026-03-29T14:03:46.852Z</time></trkpt><trkpt lat="45.8212252" lon="9.0668506"><ele>219.0</ele><time>2026-03-29T14:03:47.868Z</time></trkpt><trkpt lat="45.8211126" lon="9.0667711"><ele>218.99999999999997</ele><time>2026-03-29T14:03:48.851Z</time></trkpt><trkpt lat="45.8210192" lon="9.0667047"><ele>218.99999999999997</ele><time>2026-03-29T14:03:49.852Z</time></trkpt><trkpt lat="45.820934" lon="9.0666414"><ele>219.0</ele><time>2026-03-29T14:03:50.853Z</time></trkpt><trkpt lat="45.8208433" lon="9.0665706"><ele>219.0</ele><time>2026-03-29T14:03:51.843Z</time></trkpt><trkpt lat="45.8207553" lon="9.0664738"><ele>219.25</ele><time>2026-03-29T14:03:52.852Z</time></trkpt><trkpt lat="45.8206809" lon="9.0663334"><ele>219.5</ele><time>2026-03-29T14:03:53.84Z</time></trkpt><trkpt lat="45.8206102" lon="9.0661816"><ele>219.75</ele><time>2026-03-29T14:03:54.843Z</time></trkpt><trkpt lat="45.8205454" lon="9.0659915"><ele>220.0</ele><time>2026-03-29T14:03:55.838Z</time></trkpt><trkpt lat="45.8204882" lon="9.0657857"><ele>222.66666666666666</ele><time>2026-03-29T14:03:56.851Z</time></trkpt><trkpt lat="45.820435" lon="9.0655394"><ele>225.33333333333331</ele><time>2026-03-29T14:03:57.838Z</time></trkpt><trkpt lat="45.8203647" lon="9.0653078"><ele>228.0</ele><time>2026-03-29T14:03:58.849Z</time></trkpt><trkpt lat="45.820311" lon="9.0650758"><ele>228.0</ele><time>2026-03-29T14:03:59.853Z</time></trkpt><trkpt lat="45.8202458" lon="9.0648426"><ele>228.0</ele><time>2026-03-29T14:04:00.846Z</time></trkpt><trkpt lat="45.8201546" lon="9.0646164"><ele>228.0</ele><time>2026-03-29T14:04:01.848Z</time></trkpt><trkpt lat="45.8200808" lon="9.0643872"><ele>225.33333333333331</ele><time>2026-03-29T14:04:02.849Z</time></trkpt><trkpt lat="45.8200146" lon="9.0641823"><ele>222.66666666666666</ele><time>2026-03-29T14:04:03.841Z</time></trkpt><trkpt lat="45.8199364" lon="9.0639727"><ele>220.0</ele><time>2026-03-29T14:04:04.843Z</time></trkpt><trkpt lat="45.8198506" lon="9.0637795"><ele>220.0</ele><time>2026-03-29T14:04:05.842Z</time></trkpt><trkpt lat="45.8197638" lon="9.063619"><ele>220.0</ele><time>2026-03-29T14:04:06.836Z</time></trkpt><trkpt lat="45.81968" lon="9.0634808"><ele>220.0</ele><time>2026-03-29T14:04:07.838Z</time></trkpt><trkpt lat="45.8195635" lon="9.0634199"><ele>220.0</ele><time>2026-03-29T14:04:08.849Z</time></trkpt><trkpt lat="45.8194425" lon="9.0633314"><ele>220.6</ele><time>2026-03-29T14:04:09.834Z</time></trkpt><trkpt lat="45.8193274" lon="9.0632789"><ele>221.2</ele><time>2026-03-29T14:04:10.842Z</time></trkpt><trkpt lat="45.8192329" lon="9.0632739"><ele>221.8</ele><time>2026-03-29T14:04:11.842Z</time></trkpt><trkpt lat="45.8191662" lon="9.0632536"><ele>222.4</ele><time>2026-03-29T14:04:12.844Z</time></trkpt><trkpt lat="45.8190849" lon="9.0632155"><ele>223.0</ele><time>2026-03-29T14:04:14.849Z</time></trkpt><trkpt lat="45.8190134" lon="9.0631513"><ele>223.0</ele><time>2026-03-29T14:04:16.851Z</time></trkpt><trkpt lat="45.8189142" lon="9.0630669"><ele>223.0</ele><time>2026-03-29T14:04:18.845Z</time></trkpt><trkpt lat="45.8188154" lon="9.0631116"><ele>223.0</ele><time>2026-03-29T14:04:20.873Z</time></trkpt><trkpt lat="45.8187721" lon="9.0632024"><ele>223.0</ele><time>2026-03-29T14:04:21.841Z</time></trkpt><trkpt lat="45.8187055" lon="9.0633144"><ele>223.0</ele><time>2026-03-29T14:04:22.854Z</time></trkpt><trkpt lat="45.8186069" lon="9.0634462"><ele>222.5</ele><time>2026-03-29T14:04:23.841Z</time></trkpt><trkpt lat="45.8184903" lon="9.0635718"><ele>222.0</ele><time>2026-03-29T14:04:24.844Z</time></trkpt><trkpt lat="45.8183825" lon="9.0636802"><ele>221.5</ele><time>2026-03-29T14:04:25.846Z</time></trkpt><trkpt lat="45.8182849" lon="9.0637815"><ele>221.0</ele><time>2026-03-29T14:04:26.847Z</time></trkpt><trkpt lat="45.8181927" lon="9.0638777"><ele>220.4</ele><time>2026-03-29T14:04:27.84Z</time></trkpt><trkpt lat="45.8181076" lon="9.063973"><ele>219.8</ele><time>2026-03-29T14:04:28.845Z</time></trkpt><trkpt lat="45.8180279" lon="9.0640651"><ele>219.20000000000002</ele><time>2026-03-29T14:04:29.841Z</time></trkpt><trkpt lat="45.8179633" lon="9.0641404"><ele>218.60000000000002</ele><time>2026-03-29T14:04:30.827Z</time></trkpt><trkpt lat="45.8179088" lon="9.064201"><ele>218.0</ele><time>2026-03-29T14:04:31.83Z</time></trkpt><trkpt lat="45.8178144" lon="9.0642986"><ele>217.50000000000003</ele><time>2026-03-29T14:04:33.83Z</time></trkpt><trkpt lat="45.8177629" lon="9.0643545"><ele>217.0</ele><time>2026-03-29T14:04:34.833Z</time></trkpt><trkpt lat="45.8177019" lon="9.0644232"><ele>216.5</ele><time>2026-03-29T14:04:35.846Z</time></trkpt><trkpt lat="45.8176374" lon="9.0644934"><ele>216.0</ele><time>2026-03-29T14:04:36.834Z</time></trkpt><trkpt lat="45.8175758" lon="9.0645625"><ele>215.50000000000003</ele><time>2026-03-29T14:04:37.841Z</time></trkpt><trkpt lat="45.8175173" lon="9.0646292"><ele>215.0</ele><time>2026-03-29T14:04:38.845Z</time></trkpt><trkpt lat="45.8174475" lon="9.0647158"><ele>214.5</ele><time>2026-03-29T14:04:39.834Z</time></trkpt><trkpt lat="45.8173704" lon="9.0648209"><ele>214.0</ele><time>2026-03-29T14:04:40.838Z</time></trkpt><trkpt lat="45.8172829" lon="9.0649342"><ele>213.5</ele><time>2026-03-29T14:04:41.84Z</time></trkpt><trkpt lat="45.8171769" lon="9.0650581"><ele>213.0</ele><time>2026-03-29T14:04:42.841Z</time></trkpt><trkpt lat="45.817074" lon="9.065173"><ele>211.75</ele><time>2026-03-29T14:04:43.843Z</time></trkpt><trkpt lat="45.81698" lon="9.0652712"><ele>210.5</ele><time>2026-03-29T14:04:44.841Z</time></trkpt><trkpt lat="45.8168913" lon="9.0653659"><ele>209.25</ele><time>2026-03-29T14:04:45.838Z</time></trkpt><trkpt lat="45.816798" lon="9.0654644"><ele>208.0</ele><time>2026-03-29T14:04:46.849Z</time></trkpt><trkpt lat="45.8167026" lon="9.0655667"><ele>207.5</ele><time>2026-03-29T14:04:47.84Z</time></trkpt><trkpt lat="45.81661" lon="9.0656556"><ele>207.0</ele><time>2026-03-29T14:04:48.838Z</time></trkpt><trkpt lat="45.8165107" lon="9.0657449"><ele>206.5</ele><time>2026-03-29T14:04:49.828Z</time></trkpt><trkpt lat="45.816406" lon="9.0658077"><ele>206.0</ele><time>2026-03-29T14:04:50.828Z</time></trkpt><trkpt lat="45.8162976" lon="9.0658463"><ele>206.00000000000003</ele><time>2026-03-29T14:04:51.829Z</time></trkpt><trkpt lat="45.8162076" lon="9.0658813"><ele>206.0</ele><time>2026-03-29T14:04:52.827Z</time></trkpt><trkpt lat="45.8161264" lon="9.0659151"><ele>206.0</ele><time>2026-03-29T14:04:53.83Z</time></trkpt><trkpt lat="45.8160388" lon="9.0659411"><ele>206.0</ele><time>2026-03-29T14:04:54.834Z</time></trkpt><trkpt lat="45.8159636" lon="9.0659837"><ele>206.00000000000003</ele><time>2026-03-29T14:04:55.83Z</time></trkpt><trkpt lat="45.8158827" lon="9.0660276"><ele>206.0</ele><time>2026-03-29T14:04:56.832Z</time></trkpt><trkpt lat="45.8158039" lon="9.0660638"><ele>206.00000000000003</ele><time>2026-03-29T14:04:57.826Z</time></trkpt><trkpt lat="45.8157248" lon="9.0661066"><ele>206.0</ele><time>2026-03-29T14:04:58.824Z</time></trkpt><trkpt lat="45.8156487" lon="9.0661631"><ele>206.0</ele><time>2026-03-29T14:04:59.834Z</time></trkpt><trkpt lat="45.8155733" lon="9.066224"><ele>206.0</ele><time>2026-03-29T14:05:00.832Z</time></trkpt><trkpt lat="45.8155027" lon="9.0662932"><ele>206.00000000000003</ele><time>2026-03-29T14:05:01.827Z</time></trkpt><trkpt lat="45.8154352" lon="9.0663505"><ele>206.0</ele><time>2026-03-29T14:05:02.829Z</time></trkpt><trkpt lat="45.8153754" lon="9.0664126"><ele>206.00000000000003</ele><time>2026-03-29T14:05:03.831Z</time></trkpt><trkpt lat="45.8153198" lon="9.0664748"><ele>206.0</ele><time>2026-03-29T14:05:04.835Z</time></trkpt><trkpt lat="45.8152661" lon="9.0665431"><ele>206.0</ele><time>2026-03-29T14:05:05.912Z</time></trkpt><trkpt lat="45.8152081" lon="9.0666207"><ele>206.0</ele><time>2026-03-29T14:05:06.834Z</time></trkpt><trkpt lat="45.8151511" lon="9.0667201"><ele>206.00000000000003</ele><time>2026-03-29T14:05:07.83Z</time></trkpt><trkpt lat="45.8150932" lon="9.0668357"><ele>206.0</ele><time>2026-03-29T14:05:08.832Z</time></trkpt><trkpt lat="45.8150453" lon="9.0669503"><ele>206.16666666666669</ele><time>2026-03-29T14:05:09.831Z</time></trkpt><trkpt lat="45.8150107" lon="9.0670546"><ele>206.33333333333334</ele><time>2026-03-29T14:05:10.831Z</time></trkpt><trkpt lat="45.8149727" lon="9.0671575"><ele>206.5</ele><time>2026-03-29T14:05:11.826Z</time></trkpt><trkpt lat="45.8149331" lon="9.067273"><ele>206.66666666666669</ele><time>2026-03-29T14:05:12.83Z</time></trkpt><trkpt lat="45.8148897" lon="9.0673835"><ele>206.83333333333334</ele><time>2026-03-29T14:05:13.826Z</time></trkpt><trkpt lat="45.8148492" lon="9.0674889"><ele>207.0</ele><time>2026-03-29T14:05:14.836Z</time></trkpt><trkpt lat="45.8148156" lon="9.0675843"><ele>207.0</ele><time>2026-03-29T14:05:15.829Z</time></trkpt><trkpt lat="45.8147849" lon="9.067672"><ele>207.0</ele><time>2026-03-29T14:05:16.829Z</time></trkpt><trkpt lat="45.8147243" lon="9.0678285"><ele>207.0</ele><time>2026-03-29T14:05:18.833Z</time></trkpt><trkpt lat="45.8146861" lon="9.0679182"><ele>207.0</ele><time>2026-03-29T14:05:19.827Z</time></trkpt><trkpt lat="45.8146481" lon="9.0680178"><ele>207.0</ele><time>2026-03-29T14:05:20.826Z</time></trkpt><trkpt lat="45.8145948" lon="9.0681249"><ele>207.0</ele><time>2026-03-29T14:05:21.83Z</time></trkpt><trkpt lat="45.8145436" lon="9.0682238"><ele>207.2</ele><time>2026-03-29T14:05:22.838Z</time></trkpt><trkpt lat="45.8144926" lon="9.0683234"><ele>207.39999999999998</ele><time>2026-03-29T14:05:23.836Z</time></trkpt><trkpt lat="45.8144329" lon="9.0684265"><ele>207.60000000000002</ele><time>2026-03-29T14:05:24.836Z</time></trkpt><trkpt lat="45.8143677" lon="9.0685275"><ele>207.8</ele><time>2026-03-29T14:05:25.83Z</time></trkpt><trkpt lat="45.814303" lon="9.0686228"><ele>208.0</ele><time>2026-03-29T14:05:26.833Z</time></trkpt><trkpt lat="45.814239" lon="9.0687125"><ele>207.99999999999997</ele><time>2026-03-29T14:05:27.83Z</time></trkpt><trkpt lat="45.8141729" lon="9.0687857"><ele>208.0</ele><time>2026-03-29T14:05:28.827Z</time></trkpt><trkpt lat="45.8141001" lon="9.0688548"><ele>208.0</ele><time>2026-03-29T14:05:29.835Z</time></trkpt><trkpt lat="45.8140278" lon="9.068928"><ele>208.0</ele><time>2026-03-29T14:05:30.832Z</time></trkpt><trkpt lat="45.8139415" lon="9.0689867"><ele>207.99999999999997</ele><time>2026-03-29T14:05:31.841Z</time></trkpt><trkpt lat="45.8138595" lon="9.0690289"><ele>208.0</ele><time>2026-03-29T14:05:32.832Z</time></trkpt><trkpt lat="45.8137913" lon="9.0690585"><ele>208.0</ele><time>2026-03-29T14:05:33.837Z</time></trkpt><trkpt lat="45.81373" lon="9.0690899"><ele>208.0</ele><time>2026-03-29T14:05:34.831Z</time></trkpt><trkpt lat="45.8136659" lon="9.0691235"><ele>208.0</ele><time>2026-03-29T14:05:35.833Z</time></trkpt><trkpt lat="45.8135984" lon="9.0691663"><ele>208.0</ele><time>2026-03-29T14:05:36.834Z</time></trkpt><trkpt lat="45.813534" lon="9.0692116"><ele>208.0</ele><time>2026-03-29T14:05:37.831Z</time></trkpt><trkpt lat="45.8134704" lon="9.0692495"><ele>208.0</ele><time>2026-03-29T14:05:38.833Z</time></trkpt><trkpt lat="45.8134036" lon="9.0692802"><ele>208.0</ele><time>2026-03-29T14:05:39.833Z</time></trkpt><trkpt lat="45.8133297" lon="9.0693072"><ele>207.8</ele><time>2026-03-29T14:05:40.83Z</time></trkpt><trkpt lat="45.8132543" lon="9.0693413"><ele>207.60000000000002</ele><time>2026-03-29T14:05:41.831Z</time></trkpt><trkpt lat="45.8131712" lon="9.0693912"><ele>207.39999999999998</ele><time>2026-03-29T14:05:42.855Z</time></trkpt><trkpt lat="45.8130989" lon="9.0694488"><ele>207.2</ele><time>2026-03-29T14:05:43.83Z</time></trkpt><trkpt lat="45.8130133" lon="9.0695204"><ele>207.0</ele><time>2026-03-29T14:05:44.858Z</time></trkpt><trkpt lat="45.8129152" lon="9.0695908"><ele>207.0</ele><time>2026-03-29T14:05:45.836Z</time></trkpt><trkpt lat="45.8128311" lon="9.0696448"><ele>207.0</ele><time>2026-03-29T14:05:46.856Z</time></trkpt><trkpt lat="45.8127619" lon="9.0696917"><ele>207.0</ele><time>2026-03-29T14:05:47.858Z</time></trkpt><trkpt lat="45.8126884" lon="9.069735"><ele>207.0</ele><time>2026-03-29T14:05:48.831Z</time></trkpt><trkpt lat="45.8126107" lon="9.0697735"><ele>207.0</ele><time>2026-03-29T14:05:49.836Z</time></trkpt><trkpt lat="45.8125423" lon="9.0698003"><ele>207.0</ele><time>2026-03-29T14:05:50.821Z</time></trkpt><trkpt lat="45.8124786" lon="9.0698169"><ele>207.0</ele><time>2026-03-29T14:05:51.822Z</time></trkpt><trkpt lat="45.8123635" lon="9.0698431"><ele>207.0</ele><time>2026-03-29T14:05:53.834Z</time></trkpt><trkpt lat="45.8122601" lon="9.0698628"><ele>207.0</ele><time>2026-03-29T14:05:55.841Z</time></trkpt><trkpt lat="45.8121822" lon="9.069919"><ele>207.0</ele><time>2026-03-29T14:05:57.826Z</time></trkpt><trkpt lat="45.8121625" lon="9.0700565"><ele>207.0</ele><time>2026-03-29T14:05:59.84Z</time></trkpt><trkpt lat="45.8121826" lon="9.0701505"><ele>207.0</ele><time>2026-03-29T14:06:00.829Z</time></trkpt><trkpt lat="45.8122037" lon="9.0702637"><ele>207.0</ele><time>2026-03-29T14:06:01.831Z</time></trkpt><trkpt lat="45.8122219" lon="9.0704033"><ele>207.0</ele><time>2026-03-29T14:06:02.859Z</time></trkpt><trkpt lat="45.812232" lon="9.0705588"><ele>207.0</ele><time>2026-03-29T14:06:03.819Z</time></trkpt><trkpt lat="45.8122401" lon="9.0707269"><ele>207.0</ele><time>2026-03-29T14:06:04.833Z</time></trkpt><trkpt lat="45.8122545" lon="9.0709036"><ele>206.8</ele><time>2026-03-29T14:06:05.832Z</time></trkpt><trkpt lat="45.8122695" lon="9.0710679"><ele>206.6</ele><time>2026-03-29T14:06:06.829Z</time></trkpt><trkpt lat="45.8122826" lon="9.0712229"><ele>206.4</ele><time>2026-03-29T14:06:07.831Z</time></trkpt><trkpt lat="45.8123005" lon="9.0713555"><ele>206.20000000000002</ele><time>2026-03-29T14:06:08.828Z</time></trkpt><trkpt lat="45.8123137" lon="9.0714748"><ele>206.0</ele><time>2026-03-29T14:06:09.831Z</time></trkpt><trkpt lat="45.8123248" lon="9.0715876"><ele>206.20000000000002</ele><time>2026-03-29T14:06:10.837Z</time></trkpt><trkpt lat="45.8123296" lon="9.0717012"><ele>206.4</ele><time>2026-03-29T14:06:11.833Z</time></trkpt><trkpt lat="45.8123075" lon="9.0718161"><ele>206.6</ele><time>2026-03-29T14:06:12.829Z</time></trkpt><trkpt lat="45.8122712" lon="9.071955"><ele>206.8</ele><time>2026-03-29T14:06:13.834Z</time></trkpt><trkpt lat="45.8122189" lon="9.072096"><ele>207.0</ele><time>2026-03-29T14:06:14.835Z</time></trkpt><trkpt lat="45.8121714" lon="9.0722245"><ele>207.0</ele><time>2026-03-29T14:06:15.825Z</time></trkpt><trkpt lat="45.8121152" lon="9.0723409"><ele>207.0</ele><time>2026-03-29T14:06:16.833Z</time></trkpt><trkpt lat="45.8120579" lon="9.0724444"><ele>207.0</ele><time>2026-03-29T14:06:17.83Z</time></trkpt><trkpt lat="45.8119977" lon="9.0725389"><ele>207.0</ele><time>2026-03-29T14:06:18.82Z</time></trkpt><trkpt lat="45.8119252" lon="9.0726455"><ele>207.0</ele><time>2026-03-29T14:06:19.832Z</time></trkpt><trkpt lat="45.8118366" lon="9.0727557"><ele>206.75</ele><time>2026-03-29T14:06:20.834Z</time></trkpt><trkpt lat="45.8117412" lon="9.0728644"><ele>206.5</ele><time>2026-03-29T14:06:21.833Z</time></trkpt><trkpt lat="45.8116511" lon="9.072974"><ele>206.25</ele><time>2026-03-29T14:06:22.83Z</time></trkpt><trkpt lat="45.8115596" lon="9.0730746"><ele>206.0</ele><time>2026-03-29T14:06:23.825Z</time></trkpt><trkpt lat="45.8114666" lon="9.0731605"><ele>206.0</ele><time>2026-03-29T14:06:24.818Z</time></trkpt><trkpt lat="45.811379" lon="9.0732388"><ele>206.0</ele><time>2026-03-29T14:06:25.834Z</time></trkpt><trkpt lat="45.8113045" lon="9.0733068"><ele>206.0</ele><time>2026-03-29T14:06:26.834Z</time></trkpt><trkpt lat="45.8112325" lon="9.0733591"><ele>206.0</ele><time>2026-03-29T14:06:27.828Z</time></trkpt><trkpt lat="45.8111799" lon="9.0734199"><ele>206.0</ele><time>2026-03-29T14:06:28.834Z</time></trkpt><trkpt lat="45.8110793" lon="9.0735191"><ele>206.4</ele><time>2026-03-29T14:06:30.828Z</time></trkpt><trkpt lat="45.8109962" lon="9.0736248"><ele>206.8</ele><time>2026-03-29T14:06:32.835Z</time></trkpt><trkpt lat="45.8109178" lon="9.073733"><ele>207.20000000000002</ele><time>2026-03-29T14:06:34.834Z</time></trkpt><trkpt lat="45.8108628" lon="9.0739118"><ele>207.60000000000002</ele><time>2026-03-29T14:06:36.829Z</time></trkpt><trkpt lat="45.8108227" lon="9.0740297"><ele>208.0</ele><time>2026-03-29T14:06:37.833Z</time></trkpt><trkpt lat="45.8107617" lon="9.0741277"><ele>208.4</ele><time>2026-03-29T14:06:38.836Z</time></trkpt><trkpt lat="45.8106713" lon="9.0741718"><ele>208.8</ele><time>2026-03-29T14:06:39.83Z</time></trkpt><trkpt lat="45.8105742" lon="9.0741772"><ele>209.2</ele><time>2026-03-29T14:06:40.838Z</time></trkpt><trkpt lat="45.8104788" lon="9.0741952"><ele>209.6</ele><time>2026-03-29T14:06:41.84Z</time></trkpt><trkpt lat="45.8103851" lon="9.0742326"><ele>210.0</ele><time>2026-03-29T14:06:42.837Z</time></trkpt><trkpt lat="45.8103016" lon="9.0742854"><ele>210.0</ele><time>2026-03-29T14:06:43.839Z</time></trkpt><trkpt lat="45.810224" lon="9.0743572"><ele>210.0</ele><time>2026-03-29T14:06:44.834Z</time></trkpt><trkpt lat="45.8101504" lon="9.0744354"><ele>210.0</ele><time>2026-03-29T14:06:45.834Z</time></trkpt><trkpt lat="45.8100735" lon="9.0745018"><ele>210.0</ele><time>2026-03-29T14:06:46.838Z</time></trkpt><trkpt lat="45.810002" lon="9.0745697"><ele>210.0</ele><time>2026-03-29T14:06:47.836Z</time></trkpt><trkpt lat="45.8099405" lon="9.0746289"><ele>210.0</ele><time>2026-03-29T14:06:48.834Z</time></trkpt><trkpt lat="45.809866" lon="9.0747032"><ele>210.0</ele><time>2026-03-29T14:06:50.841Z</time></trkpt><trkpt lat="45.8097872" lon="9.0747661"><ele>210.0</ele><time>2026-03-29T14:06:52.851Z</time></trkpt><trkpt lat="45.8097228" lon="9.0748335"><ele>210.0</ele><time>2026-03-29T14:06:53.837Z</time></trkpt><trkpt lat="45.8096421" lon="9.0749214"><ele>210.0</ele><time>2026-03-29T14:06:54.828Z</time></trkpt><trkpt lat="45.8095392" lon="9.0750297"><ele>210.0</ele><time>2026-03-29T14:06:55.835Z</time></trkpt><trkpt lat="45.8094163" lon="9.0751439"><ele>208.33333333333331</ele><time>2026-03-29T14:06:56.837Z</time></trkpt><trkpt lat="45.8092716" lon="9.0752656"><ele>206.66666666666666</ele><time>2026-03-29T14:06:57.828Z</time></trkpt><trkpt lat="45.8091229" lon="9.0753892"><ele>205.0</ele><time>2026-03-29T14:06:58.835Z</time></trkpt><trkpt lat="45.8089794" lon="9.0755179"><ele>205.0</ele><time>2026-03-29T14:06:59.839Z</time></trkpt><trkpt lat="45.8088369" lon="9.0756425"><ele>205.0</ele><time>2026-03-29T14:07:00.837Z</time></trkpt><trkpt lat="45.8087062" lon="9.0757837"><ele>205.0</ele><time>2026-03-29T14:07:01.839Z</time></trkpt><trkpt lat="45.8085713" lon="9.0759166"><ele>205.33333333333331</ele><time>2026-03-29T14:07:02.846Z</time></trkpt><trkpt lat="45.808443" lon="9.0760366"><ele>205.66666666666669</ele><time>2026-03-29T14:07:03.835Z</time></trkpt><trkpt lat="45.8083043" lon="9.0761595"><ele>206.0</ele><time>2026-03-29T14:07:04.838Z</time></trkpt><trkpt lat="45.8081847" lon="9.0762631"><ele>206.0</ele><time>2026-03-29T14:07:05.835Z</time></trkpt><trkpt lat="45.8080877" lon="9.0763627"><ele>206.0</ele><time>2026-03-29T14:07:06.837Z</time></trkpt><trkpt lat="45.8079683" lon="9.0764695"><ele>206.0</ele><time>2026-03-29T14:07:07.838Z</time></trkpt><trkpt lat="45.8078396" lon="9.0765737"><ele>206.0</ele><time>2026-03-29T14:07:08.837Z</time></trkpt><trkpt lat="45.8077262" lon="9.0766665"><ele>206.66666666666669</ele><time>2026-03-29T14:07:09.829Z</time></trkpt><trkpt lat="45.807608" lon="9.0767847"><ele>207.33333333333331</ele><time>2026-03-29T14:07:10.841Z</time></trkpt><trkpt lat="45.8074907" lon="9.0769248"><ele>208.0</ele><time>2026-03-29T14:07:11.834Z</time></trkpt><trkpt lat="45.8073502" lon="9.0770797"><ele>208.0</ele><time>2026-03-29T14:07:12.832Z</time></trkpt><trkpt lat="45.8071939" lon="9.0772135"><ele>208.0</ele><time>2026-03-29T14:07:13.837Z</time></trkpt><trkpt lat="45.8070249" lon="9.0773506"><ele>208.0</ele><time>2026-03-29T14:07:14.84Z</time></trkpt><trkpt lat="45.8068747" lon="9.077485"><ele>207.66666666666666</ele><time>2026-03-29T14:07:15.841Z</time></trkpt><trkpt lat="45.8067112" lon="9.0776358"><ele>207.33333333333331</ele><time>2026-03-29T14:07:16.842Z</time></trkpt><trkpt lat="45.8065438" lon="9.0777792"><ele>207.0</ele><time>2026-03-29T14:07:17.841Z</time></trkpt><trkpt lat="45.8063812" lon="9.0779631"><ele>207.0</ele><time>2026-03-29T14:07:18.843Z</time></trkpt><trkpt lat="45.8062222" lon="9.078149"><ele>207.0</ele><time>2026-03-29T14:07:19.839Z</time></trkpt><trkpt lat="45.8060754" lon="9.0783654"><ele>207.0</ele><time>2026-03-29T14:07:20.838Z</time></trkpt><trkpt lat="45.8059409" lon="9.0785974"><ele>207.33333333333331</ele><time>2026-03-29T14:07:21.841Z</time></trkpt><trkpt lat="45.8058187" lon="9.0788294"><ele>207.66666666666666</ele><time>2026-03-29T14:07:22.836Z</time></trkpt><trkpt lat="45.8056923" lon="9.0790473"><ele>208.0</ele><time>2026-03-29T14:07:23.838Z</time></trkpt><trkpt lat="45.8055644" lon="9.0792536"><ele>208.33333333333331</ele><time>2026-03-29T14:07:24.834Z</time></trkpt><trkpt lat="45.8054497" lon="9.0794583"><ele>208.66666666666669</ele><time>2026-03-29T14:07:25.844Z</time></trkpt><trkpt lat="45.8053331" lon="9.0796466"><ele>209.0</ele><time>2026-03-29T14:07:26.842Z</time></trkpt><trkpt lat="45.8052183" lon="9.0798222"><ele>209.0</ele><time>2026-03-29T14:07:27.844Z</time></trkpt><trkpt lat="45.8051093" lon="9.0800011"><ele>209.0</ele><time>2026-03-29T14:07:28.842Z</time></trkpt><trkpt lat="45.8050252" lon="9.0801634"><ele>209.0</ele><time>2026-03-29T14:07:29.852Z</time></trkpt><trkpt lat="45.8049304" lon="9.0803357"><ele>209.0</ele><time>2026-03-29T14:07:30.832Z</time></trkpt><trkpt lat="45.8048195" lon="9.0805047"><ele>209.0</ele><time>2026-03-29T14:07:31.846Z</time></trkpt><trkpt lat="45.8047265" lon="9.0806754"><ele>209.0</ele><time>2026-03-29T14:07:32.841Z</time></trkpt><trkpt lat="45.8046303" lon="9.0808206"><ele>209.0</ele><time>2026-03-29T14:07:33.833Z</time></trkpt><trkpt lat="45.8045545" lon="9.0809449"><ele>209.0</ele><time>2026-03-29T14:07:34.843Z</time></trkpt><trkpt lat="45.8044933" lon="9.0810666"><ele>209.0</ele><time>2026-03-29T14:07:35.844Z</time></trkpt><trkpt lat="45.8044405" lon="9.0811592"><ele>209.0</ele><time>2026-03-29T14:07:36.839Z</time></trkpt><trkpt lat="45.8043813" lon="9.0812564"><ele>209.0</ele><time>2026-03-29T14:07:37.836Z</time></trkpt><trkpt lat="45.8043323" lon="9.0813422"><ele>209.50000000000003</ele><time>2026-03-29T14:07:38.838Z</time></trkpt><trkpt lat="45.8042905" lon="9.0814293"><ele>210.0</ele><time>2026-03-29T14:07:39.829Z</time></trkpt><trkpt lat="45.8042551" lon="9.0815074"><ele>210.5</ele><time>2026-03-29T14:07:40.839Z</time></trkpt><trkpt lat="45.8041893" lon="9.0816294"><ele>211.0</ele><time>2026-03-29T14:07:42.839Z</time></trkpt><trkpt lat="45.8041332" lon="9.081701"><ele>211.50000000000003</ele><time>2026-03-29T14:07:44.846Z</time></trkpt><trkpt lat="45.804071" lon="9.0817767"><ele>212.0</ele><time>2026-03-29T14:07:46.848Z</time></trkpt><trkpt lat="45.8039729" lon="9.0819097"><ele>212.0</ele><time>2026-03-29T14:07:48.837Z</time></trkpt><trkpt lat="45.8039104" lon="9.0820187"><ele>212.0</ele><time>2026-03-29T14:07:49.838Z</time></trkpt><trkpt lat="45.8038341" lon="9.082144"><ele>212.0</ele><time>2026-03-29T14:07:50.83Z</time></trkpt><trkpt lat="45.8037518" lon="9.08226"><ele>212.0</ele><time>2026-03-29T14:07:51.827Z</time></trkpt><trkpt lat="45.8036829" lon="9.0823625"><ele>212.0</ele><time>2026-03-29T14:07:52.83Z</time></trkpt><trkpt lat="45.8036298" lon="9.0824502"><ele>212.0</ele><time>2026-03-29T14:07:53.832Z</time></trkpt><trkpt lat="45.803581" lon="9.0825234"><ele>212.0</ele><time>2026-03-29T14:07:54.83Z</time></trkpt><trkpt lat="45.8035218" lon="9.0826033"><ele>212.0</ele><time>2026-03-29T14:07:55.829Z</time></trkpt><trkpt lat="45.8034527" lon="9.0827033"><ele>212.0</ele><time>2026-03-29T14:07:56.836Z</time></trkpt><trkpt lat="45.8033691" lon="9.082816"><ele>212.0</ele><time>2026-03-29T14:07:57.827Z</time></trkpt><trkpt lat="45.8032787" lon="9.0829258"><ele>212.0</ele><time>2026-03-29T14:07:58.841Z</time></trkpt><trkpt lat="45.8031928" lon="9.083035"><ele>212.0</ele><time>2026-03-29T14:07:59.838Z</time></trkpt><trkpt lat="45.8031052" lon="9.0831431"><ele>212.0</ele><time>2026-03-29T14:08:00.832Z</time></trkpt><trkpt lat="45.8030169" lon="9.0832676"><ele>212.0</ele><time>2026-03-29T14:08:01.84Z</time></trkpt><trkpt lat="45.8029357" lon="9.0833844"><ele>212.0</ele><time>2026-03-29T14:08:02.833Z</time></trkpt><trkpt lat="45.8028651" lon="9.0834943"><ele>212.0</ele><time>2026-03-29T14:08:03.834Z</time></trkpt><trkpt lat="45.8027958" lon="9.0836007"><ele>212.0</ele><time>2026-03-29T14:08:04.838Z</time></trkpt><trkpt lat="45.8027296" lon="9.0837029"><ele>212.0</ele><time>2026-03-29T14:08:05.84Z</time></trkpt><trkpt lat="45.8026574" lon="9.083805"><ele>212.0</ele><time>2026-03-29T14:08:06.836Z</time></trkpt><trkpt lat="45.8025846" lon="9.0839019"><ele>212.0</ele><time>2026-03-29T14:08:07.844Z</time></trkpt><trkpt lat="45.8025138" lon="9.0839995"><ele>212.0</ele><time>2026-03-29T14:08:08.841Z</time></trkpt><trkpt lat="45.8024406" lon="9.0840905"><ele>212.0</ele><time>2026-03-29T14:08:09.836Z</time></trkpt><trkpt lat="45.8023629" lon="9.0841751"><ele>212.0</ele><time>2026-03-29T14:08:10.836Z</time></trkpt><trkpt lat="45.8022868" lon="9.0842567"><ele>212.0</ele><time>2026-03-29T14:08:11.839Z</time></trkpt><trkpt lat="45.8022148" lon="9.0843363"><ele>212.39999999999998</ele><time>2026-03-29T14:08:12.835Z</time></trkpt><trkpt lat="45.8021528" lon="9.0844303"><ele>212.79999999999998</ele><time>2026-03-29T14:08:13.835Z</time></trkpt><trkpt lat="45.8021183" lon="9.0845516"><ele>213.2</ele><time>2026-03-29T14:08:14.862Z</time></trkpt><trkpt lat="45.8021081" lon="9.0846803"><ele>213.6</ele><time>2026-03-29T14:08:15.833Z</time></trkpt><trkpt lat="45.8021067" lon="9.0848062"><ele>214.0</ele><time>2026-03-29T14:08:16.844Z</time></trkpt><trkpt lat="45.8021096" lon="9.0849377"><ele>214.33333333333331</ele><time>2026-03-29T14:08:17.833Z</time></trkpt><trkpt lat="45.802108" lon="9.0850649"><ele>214.66666666666666</ele><time>2026-03-29T14:08:18.833Z</time></trkpt><trkpt lat="45.8021098" lon="9.0851801"><ele>215.0</ele><time>2026-03-29T14:08:19.838Z</time></trkpt><trkpt lat="45.8021151" lon="9.085288"><ele>215.33333333333331</ele><time>2026-03-29T14:08:20.841Z</time></trkpt><trkpt lat="45.8021184" lon="9.0853967"><ele>215.66666666666666</ele><time>2026-03-29T14:08:21.838Z</time></trkpt><trkpt lat="45.8021209" lon="9.0855052"><ele>216.0</ele><time>2026-03-29T14:08:22.84Z</time></trkpt><trkpt lat="45.8021318" lon="9.0856089"><ele>216.0</ele><time>2026-03-29T14:08:23.827Z</time></trkpt><trkpt lat="45.8021404" lon="9.0857011"><ele>216.0</ele><time>2026-03-29T14:08:24.826Z</time></trkpt><trkpt lat="45.8021531" lon="9.0858442"><ele>216.0</ele><time>2026-03-29T14:08:26.836Z</time></trkpt><trkpt lat="45.802172" lon="9.0859373"><ele>216.0</ele><time>2026-03-29T14:08:29.848Z</time></trkpt><trkpt lat="45.8022109" lon="9.0860469"><ele>216.0</ele><time>2026-03-29T14:08:32.845Z</time></trkpt><trkpt lat="45.8022311" lon="9.0861423"><ele>216.0</ele><time>2026-03-29T14:08:38.848Z</time></trkpt><trkpt lat="45.8022387" lon="9.086243"><ele>216.0</ele><time>2026-03-29T14:08:40.848Z</time></trkpt><trkpt lat="45.8022506" lon="9.086337"><ele>216.00000000000003</ele><time>2026-03-29T14:08:41.841Z</time></trkpt><trkpt lat="45.802261" lon="9.0864468"><ele>216.00000000000003</ele><time>2026-03-29T14:08:42.856Z</time></trkpt><trkpt lat="45.8022697" lon="9.0865891"><ele>216.0</ele><time>2026-03-29T14:08:43.835Z</time></trkpt><trkpt lat="45.8022641" lon="9.0867458"><ele>216.0</ele><time>2026-03-29T14:08:44.837Z</time></trkpt><trkpt lat="45.802242" lon="9.0868914"><ele>216.0</ele><time>2026-03-29T14:08:45.829Z</time></trkpt><trkpt lat="45.8021988" lon="9.0870455"><ele>216.0</ele><time>2026-03-29T14:08:46.832Z</time></trkpt><trkpt lat="45.8021388" lon="9.087193"><ele>216.0</ele><time>2026-03-29T14:08:47.835Z</time></trkpt><trkpt lat="45.8020684" lon="9.0873481"><ele>216.0</ele><time>2026-03-29T14:08:48.833Z</time></trkpt><trkpt lat="45.8019856" lon="9.0875193"><ele>217.0</ele><time>2026-03-29T14:08:49.84Z</time></trkpt><trkpt lat="45.8018986" lon="9.0876913"><ele>218.0</ele><time>2026-03-29T14:08:50.834Z</time></trkpt><trkpt lat="45.8018036" lon="9.0878712"><ele>219.0</ele><time>2026-03-29T14:08:51.831Z</time></trkpt><trkpt lat="45.801691" lon="9.0881013"><ele>219.25</ele><time>2026-03-29T14:08:52.833Z</time></trkpt><trkpt lat="45.8015971" lon="9.0882387"><ele>219.5</ele><time>2026-03-29T14:08:53.839Z</time></trkpt><trkpt lat="45.8015069" lon="9.0883668"><ele>219.75</ele><time>2026-03-29T14:08:54.826Z</time></trkpt><trkpt lat="45.8014208" lon="9.0884947"><ele>220.0</ele><time>2026-03-29T14:08:55.835Z</time></trkpt><trkpt lat="45.8013411" lon="9.0886057"><ele>220.0</ele><time>2026-03-29T14:08:56.843Z</time></trkpt><trkpt lat="45.8012783" lon="9.0887118"><ele>220.0</ele><time>2026-03-29T14:08:57.833Z</time></trkpt><trkpt lat="45.8012089" lon="9.0888597"><ele>220.0</ele><time>2026-03-29T14:08:58.842Z</time></trkpt><trkpt lat="45.8011516" lon="9.0889715"><ele>220.0</ele><time>2026-03-29T14:08:59.837Z</time></trkpt><trkpt lat="45.8011139" lon="9.0891037"><ele>220.0</ele><time>2026-03-29T14:09:00.83Z</time></trkpt><trkpt lat="45.801091" lon="9.0892359"><ele>219.6</ele><time>2026-03-29T14:09:01.833Z</time></trkpt><trkpt lat="45.801096" lon="9.0893767"><ele>219.2</ele><time>2026-03-29T14:09:02.83Z</time></trkpt><trkpt lat="45.8011162" lon="9.0895054"><ele>218.8</ele><time>2026-03-29T14:09:03.831Z</time></trkpt><trkpt lat="45.8011536" lon="9.0896374"><ele>218.4</ele><time>2026-03-29T14:09:04.838Z</time></trkpt><trkpt lat="45.8011928" lon="9.0897746"><ele>218.0</ele><time>2026-03-29T14:09:05.839Z</time></trkpt><trkpt lat="45.8012469" lon="9.0899241"><ele>218.2</ele><time>2026-03-29T14:09:06.832Z</time></trkpt><trkpt lat="45.8012977" lon="9.0900741"><ele>218.4</ele><time>2026-03-29T14:09:07.835Z</time></trkpt><trkpt lat="45.8013435" lon="9.0902027"><ele>218.59999999999997</ele><time>2026-03-29T14:09:08.844Z</time></trkpt><trkpt lat="45.8013907" lon="9.0903162"><ele>218.79999999999998</ele><time>2026-03-29T14:09:09.828Z</time></trkpt><trkpt lat="45.8014395" lon="9.0904462"><ele>219.0</ele><time>2026-03-29T14:09:10.832Z</time></trkpt><trkpt lat="45.8014967" lon="9.0906014"><ele>219.0</ele><time>2026-03-29T14:09:11.838Z</time></trkpt><trkpt lat="45.80156" lon="9.0907474"><ele>218.99999999999997</ele><time>2026-03-29T14:09:12.83Z</time></trkpt><trkpt lat="45.8016207" lon="9.0908814"><ele>218.99999999999997</ele><time>2026-03-29T14:09:13.832Z</time></trkpt><trkpt lat="45.8016751" lon="9.0910064"><ele>219.0</ele><time>2026-03-29T14:09:14.838Z</time></trkpt><trkpt lat="45.8017278" lon="9.091123"><ele>219.0</ele><time>2026-03-29T14:09:15.828Z</time></trkpt><trkpt lat="45.8017806" lon="9.0912371"><ele>218.79999999999998</ele><time>2026-03-29T14:09:16.846Z</time></trkpt><trkpt lat="45.8018293" lon="9.0913417"><ele>218.59999999999997</ele><time>2026-03-29T14:09:17.836Z</time></trkpt><trkpt lat="45.8018745" lon="9.0914343"><ele>218.4</ele><time>2026-03-29T14:09:18.834Z</time></trkpt><trkpt lat="45.8019207" lon="9.0915289"><ele>218.2</ele><time>2026-03-29T14:09:19.995Z</time></trkpt><trkpt lat="45.802025" lon="9.091763"><ele>218.0</ele><time>2026-03-29T14:09:21.828Z</time></trkpt><trkpt lat="45.8020858" lon="9.0919125"><ele>217.66666666666669</ele><time>2026-03-29T14:09:22.841Z</time></trkpt><trkpt lat="45.802154" lon="9.0920856"><ele>217.33333333333331</ele><time>2026-03-29T14:09:23.844Z</time></trkpt><trkpt lat="45.8022378" lon="9.0922699"><ele>217.0</ele><time>2026-03-29T14:09:24.839Z</time></trkpt><trkpt lat="45.8023341" lon="9.0924983"><ele>217.0</ele><time>2026-03-29T14:09:25.843Z</time></trkpt><trkpt lat="45.8024342" lon="9.0927112"><ele>217.0</ele><time>2026-03-29T14:09:26.851Z</time></trkpt><trkpt lat="45.8025361" lon="9.0929176"><ele>217.0</ele><time>2026-03-29T14:09:27.832Z</time></trkpt><trkpt lat="45.8026363" lon="9.0931054"><ele>221.66666666666666</ele><time>2026-03-29T14:09:28.844Z</time></trkpt><trkpt lat="45.8027371" lon="9.0932973"><ele>226.33333333333331</ele><time>2026-03-29T14:09:29.835Z</time></trkpt><trkpt lat="45.8028287" lon="9.0934786"><ele>231.0</ele><time>2026-03-29T14:09:30.831Z</time></trkpt><trkpt lat="45.8029016" lon="9.0936374"><ele>231.0</ele><time>2026-03-29T14:09:31.835Z</time></trkpt><trkpt lat="45.8029774" lon="9.0938104"><ele>231.0</ele><time>2026-03-29T14:09:32.836Z</time></trkpt><trkpt lat="45.803041" lon="9.0939817"><ele>231.0</ele><time>2026-03-29T14:09:33.832Z</time></trkpt><trkpt lat="45.8031147" lon="9.0941386"><ele>231.0</ele><time>2026-03-29T14:09:34.834Z</time></trkpt><trkpt lat="45.8032122" lon="9.0942834"><ele>231.4</ele><time>2026-03-29T14:09:35.827Z</time></trkpt><trkpt lat="45.8032935" lon="9.0944082"><ele>231.8</ele><time>2026-03-29T14:09:36.815Z</time></trkpt><trkpt lat="45.8033662" lon="9.094526"><ele>232.20000000000002</ele><time>2026-03-29T14:09:37.829Z</time></trkpt><trkpt lat="45.8034132" lon="9.0946395"><ele>232.60000000000002</ele><time>2026-03-29T14:09:38.824Z</time></trkpt><trkpt lat="45.8034664" lon="9.0947078"><ele>233.0</ele><time>2026-03-29T14:09:39.821Z</time></trkpt><trkpt lat="45.8035358" lon="9.0948098"><ele>231.2</ele><time>2026-03-29T14:09:41.828Z</time></trkpt><trkpt lat="45.8036154" lon="9.0949485"><ele>229.4</ele><time>2026-03-29T14:09:43.828Z</time></trkpt><trkpt lat="45.8036607" lon="9.0950419"><ele>227.59999999999997</ele><time>2026-03-29T14:09:44.829Z</time></trkpt><trkpt lat="45.803725" lon="9.0951644"><ele>225.79999999999998</ele><time>2026-03-29T14:09:45.826Z</time></trkpt><trkpt lat="45.803788" lon="9.0953214"><ele>224.0</ele><time>2026-03-29T14:09:46.832Z</time></trkpt><trkpt lat="45.8038423" lon="9.0955047"><ele>223.0</ele><time>2026-03-29T14:09:47.829Z</time></trkpt><trkpt lat="45.803865" lon="9.0957577"><ele>222.0</ele><time>2026-03-29T14:09:48.824Z</time></trkpt><trkpt lat="45.8039358" lon="9.0959761"><ele>221.0</ele><time>2026-03-29T14:09:49.827Z</time></trkpt><trkpt lat="45.8040057" lon="9.0961666"><ele>221.0</ele><time>2026-03-29T14:09:50.829Z</time></trkpt><trkpt lat="45.8040846" lon="9.096359"><ele>221.0</ele><time>2026-03-29T14:09:51.821Z</time></trkpt><trkpt lat="45.8041682" lon="9.0965403"><ele>221.0</ele><time>2026-03-29T14:09:52.827Z</time></trkpt><trkpt lat="45.8042459" lon="9.0967385"><ele>222.33333333333334</ele><time>2026-03-29T14:09:53.827Z</time></trkpt><trkpt lat="45.8043436" lon="9.096925"><ele>223.66666666666669</ele><time>2026-03-29T14:09:54.823Z</time></trkpt><trkpt lat="45.8044309" lon="9.0971378"><ele>225.0</ele><time>2026-03-29T14:09:55.845Z</time></trkpt><trkpt lat="45.8044793" lon="9.097369"><ele>225.66666666666669</ele><time>2026-03-29T14:09:56.836Z</time></trkpt><trkpt lat="45.8045208" lon="9.0976015"><ele>226.33333333333334</ele><time>2026-03-29T14:09:57.823Z</time></trkpt><trkpt lat="45.80456" lon="9.0978216"><ele>227.0</ele><time>2026-03-29T14:09:58.823Z</time></trkpt><trkpt lat="45.8046177" lon="9.0980159"><ele>227.0</ele><time>2026-03-29T14:09:59.824Z</time></trkpt><trkpt lat="45.8046535" lon="9.0982069"><ele>227.0</ele><time>2026-03-29T14:10:00.825Z</time></trkpt><trkpt lat="45.8046754" lon="9.0983603"><ele>227.0</ele><time>2026-03-29T14:10:01.822Z</time></trkpt><trkpt lat="45.8046876" lon="9.0984757"><ele>227.0</ele><time>2026-03-29T14:10:02.825Z</time></trkpt><trkpt lat="45.8047165" lon="9.0985757"><ele>227.0</ele><time>2026-03-29T14:10:03.812Z</time></trkpt><trkpt lat="45.804761" lon="9.0986435"><ele>227.33333333333334</ele><time>2026-03-29T14:10:04.819Z</time></trkpt><trkpt lat="45.804775" lon="9.0987317"><ele>227.66666666666669</ele><time>2026-03-29T14:10:47.832Z</time></trkpt><trkpt lat="45.8047652" lon="9.0988625"><ele>228.0</ele><time>2026-03-29T14:10:49.832Z</time></trkpt><trkpt lat="45.8047213" lon="9.0989436"><ele>228.33333333333331</ele><time>2026-03-29T14:10:50.822Z</time></trkpt><trkpt lat="45.8046387" lon="9.0989907"><ele>228.66666666666666</ele><time>2026-03-29T14:10:51.836Z</time></trkpt><trkpt lat="45.8045113" lon="9.0990396"><ele>229.0</ele><time>2026-03-29T14:10:52.821Z</time></trkpt><trkpt lat="45.8043777" lon="9.0991057"><ele>231.5</ele><time>2026-03-29T14:10:53.821Z</time></trkpt><trkpt lat="45.8042421" lon="9.0991643"><ele>234.0</ele><time>2026-03-29T14:10:54.823Z</time></trkpt><trkpt lat="45.8041171" lon="9.0992331"><ele>236.5</ele><time>2026-03-29T14:10:55.825Z</time></trkpt><trkpt lat="45.8040007" lon="9.0993166"><ele>239.0</ele><time>2026-03-29T14:10:56.833Z</time></trkpt><trkpt lat="45.80389" lon="9.0994252"><ele>239.0</ele><time>2026-03-29T14:10:57.824Z</time></trkpt><trkpt lat="45.8038078" lon="9.0995728"><ele>239.0</ele><time>2026-03-29T14:10:58.827Z</time></trkpt><trkpt lat="45.8037721" lon="9.0997525"><ele>239.0</ele><time>2026-03-29T14:10:59.826Z</time></trkpt><trkpt lat="45.8037802" lon="9.0999358"><ele>239.0</ele><time>2026-03-29T14:11:00.822Z</time></trkpt><trkpt lat="45.8038402" lon="9.1001227"><ele>238.66666666666669</ele><time>2026-03-29T14:11:01.824Z</time></trkpt><trkpt lat="45.8039241" lon="9.1002917"><ele>238.33333333333331</ele><time>2026-03-29T14:11:02.828Z</time></trkpt><trkpt lat="45.8040218" lon="9.1004613"><ele>238.0</ele><time>2026-03-29T14:11:03.825Z</time></trkpt><trkpt lat="45.8041607" lon="9.1006479"><ele>238.75</ele><time>2026-03-29T14:11:04.827Z</time></trkpt><trkpt lat="45.8042855" lon="9.1008392"><ele>239.5</ele><time>2026-03-29T14:11:05.831Z</time></trkpt><trkpt lat="45.8043763" lon="9.1009942"><ele>240.25</ele><time>2026-03-29T14:11:06.823Z</time></trkpt><trkpt lat="45.8044235" lon="9.1011237"><ele>241.0</ele><time>2026-03-29T14:11:07.825Z</time></trkpt><trkpt lat="45.8044314" lon="9.1012486"><ele>241.0</ele><time>2026-03-29T14:11:08.831Z</time></trkpt><trkpt lat="45.8043622" lon="9.1013992"><ele>241.0</ele><time>2026-03-29T14:11:09.822Z</time></trkpt><trkpt lat="45.80427" lon="9.1015529"><ele>241.0</ele><time>2026-03-29T14:11:10.819Z</time></trkpt><trkpt lat="45.8041694" lon="9.1016718"><ele>241.0</ele><time>2026-03-29T14:11:11.826Z</time></trkpt><trkpt lat="45.8040484" lon="9.1018099"><ele>245.33333333333331</ele><time>2026-03-29T14:11:12.821Z</time></trkpt><trkpt lat="45.8038971" lon="9.1019659"><ele>249.66666666666669</ele><time>2026-03-29T14:11:13.825Z</time></trkpt><trkpt lat="45.8037448" lon="9.1021211"><ele>254.0</ele><time>2026-03-29T14:11:14.834Z</time></trkpt><trkpt lat="45.8036037" lon="9.1022836"><ele>256.0</ele><time>2026-03-29T14:11:15.819Z</time></trkpt><trkpt lat="45.8034877" lon="9.1024439"><ele>258.0</ele><time>2026-03-29T14:11:16.827Z</time></trkpt><trkpt lat="45.8033546" lon="9.1026022"><ele>260.0</ele><time>2026-03-29T14:11:17.821Z</time></trkpt><trkpt lat="45.8032165" lon="9.1027566"><ele>260.0</ele><time>2026-03-29T14:11:18.824Z</time></trkpt><trkpt lat="45.8030633" lon="9.1028794"><ele>260.0</ele><time>2026-03-29T14:11:19.825Z</time></trkpt><trkpt lat="45.80288" lon="9.1029819"><ele>260.0</ele><time>2026-03-29T14:11:20.824Z</time></trkpt><trkpt lat="45.802702" lon="9.1030525"><ele>258.6666666666667</ele><time>2026-03-29T14:11:21.816Z</time></trkpt><trkpt lat="45.8025351" lon="9.1030979"><ele>257.3333333333333</ele><time>2026-03-29T14:11:22.823Z</time></trkpt><trkpt lat="45.8023613" lon="9.1031164"><ele>256.0</ele><time>2026-03-29T14:11:23.825Z</time></trkpt><trkpt lat="45.8022047" lon="9.1031046"><ele>256.0</ele><time>2026-03-29T14:11:24.814Z</time></trkpt><trkpt lat="45.8020759" lon="9.1031083"><ele>256.0</ele><time>2026-03-29T14:11:25.832Z</time></trkpt><trkpt lat="45.8019607" lon="9.1031113"><ele>256.0</ele><time>2026-03-29T14:11:26.828Z</time></trkpt><trkpt lat="45.8018649" lon="9.1031264"><ele>256.0</ele><time>2026-03-29T14:11:27.827Z</time></trkpt><trkpt lat="45.8017799" lon="9.1031392"><ele>256.0</ele><time>2026-03-29T14:11:28.826Z</time></trkpt><trkpt lat="45.8017012" lon="9.1031602"><ele>255.83333333333331</ele><time>2026-03-29T14:11:29.822Z</time></trkpt><trkpt lat="45.801618" lon="9.103169"><ele>255.66666666666666</ele><time>2026-03-29T14:11:30.818Z</time></trkpt><trkpt lat="45.8015323" lon="9.1031885"><ele>255.5</ele><time>2026-03-29T14:11:31.823Z</time></trkpt><trkpt lat="45.8014406" lon="9.1032126"><ele>255.33333333333331</ele><time>2026-03-29T14:11:32.832Z</time></trkpt><trkpt lat="45.8013601" lon="9.1032516"><ele>255.16666666666666</ele><time>2026-03-29T14:11:33.822Z</time></trkpt><trkpt lat="45.8012817" lon="9.103301"><ele>255.0</ele><time>2026-03-29T14:11:34.818Z</time></trkpt><trkpt lat="45.8012229" lon="9.1034011"><ele>258.2</ele><time>2026-03-29T14:11:35.822Z</time></trkpt><trkpt lat="45.8012042" lon="9.103528"><ele>261.4</ele><time>2026-03-29T14:11:36.818Z</time></trkpt><trkpt lat="45.8012107" lon="9.1036452"><ele>264.6</ele><time>2026-03-29T14:11:37.823Z</time></trkpt><trkpt lat="45.8012828" lon="9.1037406"><ele>267.8</ele><time>2026-03-29T14:11:38.823Z</time></trkpt><trkpt lat="45.8013892" lon="9.1037932"><ele>271.0</ele><time>2026-03-29T14:11:39.817Z</time></trkpt><trkpt lat="45.8015066" lon="9.1038037"><ele>271.0</ele><time>2026-03-29T14:11:40.819Z</time></trkpt><trkpt lat="45.8016264" lon="9.1037774"><ele>271.0</ele><time>2026-03-29T14:11:41.826Z</time></trkpt><trkpt lat="45.8017697" lon="9.1037566"><ele>271.0</ele><time>2026-03-29T14:11:42.819Z</time></trkpt><trkpt lat="45.8019355" lon="9.1037416"><ele>271.0</ele><time>2026-03-29T14:11:43.841Z</time></trkpt><trkpt lat="45.8021386" lon="9.1037006"><ele>271.75</ele><time>2026-03-29T14:11:44.822Z</time></trkpt><trkpt lat="45.8022967" lon="9.1036856"><ele>272.5</ele><time>2026-03-29T14:11:45.83Z</time></trkpt><trkpt lat="45.8024218" lon="9.1036818"><ele>273.25</ele><time>2026-03-29T14:11:46.824Z</time></trkpt><trkpt lat="45.8025291" lon="9.1036936"><ele>274.0</ele><time>2026-03-29T14:11:47.823Z</time></trkpt><trkpt lat="45.8026081" lon="9.1036857"><ele>274.66666666666663</ele><time>2026-03-29T14:11:48.826Z</time></trkpt><trkpt lat="45.8027192" lon="9.1036921"><ele>275.3333333333333</ele><time>2026-03-29T14:11:49.822Z</time></trkpt><trkpt lat="45.8028098" lon="9.1037178"><ele>276.0</ele><time>2026-03-29T14:11:50.826Z</time></trkpt><trkpt lat="45.8028918" lon="9.1037613"><ele>276.6666666666667</ele><time>2026-03-29T14:11:51.82Z</time></trkpt><trkpt lat="45.8029455" lon="9.1038376"><ele>277.33333333333337</ele><time>2026-03-29T14:11:52.827Z</time></trkpt><trkpt lat="45.8029744" lon="9.1039399"><ele>278.0</ele><time>2026-03-29T14:11:53.823Z</time></trkpt><trkpt lat="45.8029916" lon="9.1040603"><ele>279.83333333333337</ele><time>2026-03-29T14:11:54.834Z</time></trkpt><trkpt lat="45.8029914" lon="9.1041739"><ele>281.6666666666667</ele><time>2026-03-29T14:11:55.824Z</time></trkpt><trkpt lat="45.8029646" lon="9.104274"><ele>283.5</ele><time>2026-03-29T14:11:56.829Z</time></trkpt><trkpt lat="45.802916" lon="9.1043664"><ele>285.3333333333333</ele><time>2026-03-29T14:11:57.827Z</time></trkpt><trkpt lat="45.8028466" lon="9.1044438"><ele>287.16666666666663</ele><time>2026-03-29T14:11:58.825Z</time></trkpt><trkpt lat="45.8027471" lon="9.1045198"><ele>289.0</ele><time>2026-03-29T14:11:59.825Z</time></trkpt><trkpt lat="45.8025988" lon="9.1046011"><ele>290.0</ele><time>2026-03-29T14:12:00.825Z</time></trkpt><trkpt lat="45.8024346" lon="9.1046801"><ele>291.0</ele><time>2026-03-29T14:12:01.815Z</time></trkpt><trkpt lat="45.8021917" lon="9.1047722"><ele>292.0</ele><time>2026-03-29T14:12:02.83Z</time></trkpt><trkpt lat="45.8019826" lon="9.1048472"><ele>292.3333333333333</ele><time>2026-03-29T14:12:03.827Z</time></trkpt><trkpt lat="45.8018163" lon="9.1048823"><ele>292.6666666666667</ele><time>2026-03-29T14:12:04.822Z</time></trkpt><trkpt lat="45.8016526" lon="9.104915"><ele>293.0</ele><time>2026-03-29T14:12:05.822Z</time></trkpt><trkpt lat="45.8014663" lon="9.1049562"><ele>293.0</ele><time>2026-03-29T14:12:06.819Z</time></trkpt><trkpt lat="45.8013143" lon="9.1049776"><ele>293.0</ele><time>2026-03-29T14:12:07.818Z</time></trkpt><trkpt lat="45.8011782" lon="9.1050311"><ele>293.0</ele><time>2026-03-29T14:12:08.826Z</time></trkpt><trkpt lat="45.8010479" lon="9.1051165"><ele>293.0</ele><time>2026-03-29T14:12:09.826Z</time></trkpt><trkpt lat="45.8009259" lon="9.1052155"><ele>295.5</ele><time>2026-03-29T14:12:10.813Z</time></trkpt><trkpt lat="45.8007951" lon="9.1053091"><ele>298.0</ele><time>2026-03-29T14:12:11.822Z</time></trkpt><trkpt lat="45.8006756" lon="9.1054076"><ele>300.5</ele><time>2026-03-29T14:12:12.828Z</time></trkpt><trkpt lat="45.800572" lon="9.1055119"><ele>303.0</ele><time>2026-03-29T14:12:13.817Z</time></trkpt><trkpt lat="45.8004726" lon="9.1056099"><ele>303.0</ele><time>2026-03-29T14:12:14.827Z</time></trkpt><trkpt lat="45.8003539" lon="9.1056858"><ele>303.0</ele><time>2026-03-29T14:12:15.829Z</time></trkpt><trkpt lat="45.8002393" lon="9.1057564"><ele>303.0</ele><time>2026-03-29T14:12:16.824Z</time></trkpt><trkpt lat="45.8001379" lon="9.1057949"><ele>303.0</ele><time>2026-03-29T14:12:17.829Z</time></trkpt><trkpt lat="45.8000604" lon="9.1058304"><ele>303.0</ele><time>2026-03-29T14:12:18.831Z</time></trkpt><trkpt lat="45.7999883" lon="9.1058651"><ele>304.3333333333333</ele><time>2026-03-29T14:12:19.823Z</time></trkpt><trkpt lat="45.7999292" lon="9.1059182"><ele>305.6666666666667</ele><time>2026-03-29T14:12:20.822Z</time></trkpt><trkpt lat="45.7998639" lon="9.1059735"><ele>307.0</ele><time>2026-03-29T14:12:21.837Z</time></trkpt><trkpt lat="45.7997922" lon="9.1060283"><ele>308.33333333333337</ele><time>2026-03-29T14:12:22.824Z</time></trkpt><trkpt lat="45.7997333" lon="9.1060665"><ele>309.6666666666667</ele><time>2026-03-29T14:12:23.836Z</time></trkpt><trkpt lat="45.7996471" lon="9.1061056"><ele>311.0</ele><time>2026-03-29T14:12:25.832Z</time></trkpt><trkpt lat="45.7995853" lon="9.1061517"><ele>311.0</ele><time>2026-03-29T14:12:28.839Z</time></trkpt><trkpt lat="45.7995239" lon="9.1062247"><ele>311.0</ele><time>2026-03-29T14:12:37.828Z</time></trkpt><trkpt lat="45.7994765" lon="9.1062842"><ele>311.0</ele><time>2026-03-29T14:12:38.843Z</time></trkpt><trkpt lat="45.7993936" lon="9.1063741"><ele>311.0</ele><time>2026-03-29T14:12:39.826Z</time></trkpt><trkpt lat="45.7993161" lon="9.1065097"><ele>311.0</ele><time>2026-03-29T14:12:40.818Z</time></trkpt><trkpt lat="45.79925" lon="9.1066841"><ele>312.75</ele><time>2026-03-29T14:12:41.826Z</time></trkpt><trkpt lat="45.7992013" lon="9.1068629"><ele>314.5</ele><time>2026-03-29T14:12:42.827Z</time></trkpt><trkpt lat="45.7991793" lon="9.1070466"><ele>316.25</ele><time>2026-03-29T14:12:43.811Z</time></trkpt><trkpt lat="45.7991779" lon="9.1072445"><ele>318.0</ele><time>2026-03-29T14:12:44.823Z</time></trkpt><trkpt lat="45.7991842" lon="9.1074497"><ele>319.6666666666667</ele><time>2026-03-29T14:12:45.826Z</time></trkpt><trkpt lat="45.7992131" lon="9.1077054"><ele>321.33333333333337</ele><time>2026-03-29T14:12:46.836Z</time></trkpt><trkpt lat="45.7992133" lon="9.107925"><ele>323.0</ele><time>2026-03-29T14:12:47.826Z</time></trkpt><trkpt lat="45.7992132" lon="9.1081511"><ele>324.33333333333337</ele><time>2026-03-29T14:12:48.83Z</time></trkpt><trkpt lat="45.7991929" lon="9.1084001"><ele>325.6666666666667</ele><time>2026-03-29T14:12:49.821Z</time></trkpt><trkpt lat="45.7992025" lon="9.1086436"><ele>327.0</ele><time>2026-03-29T14:12:50.825Z</time></trkpt><trkpt lat="45.7992073" lon="9.1088822"><ele>327.6666666666667</ele><time>2026-03-29T14:12:51.828Z</time></trkpt><trkpt lat="45.7991963" lon="9.1091008"><ele>328.33333333333337</ele><time>2026-03-29T14:12:52.82Z</time></trkpt><trkpt lat="45.7991961" lon="9.1093308"><ele>329.0</ele><time>2026-03-29T14:12:53.826Z</time></trkpt><trkpt lat="45.7991893" lon="9.1095626"><ele>329.0</ele><time>2026-03-29T14:12:54.825Z</time></trkpt><trkpt lat="45.7991816" lon="9.109797"><ele>329.0</ele><time>2026-03-29T14:12:55.818Z</time></trkpt><trkpt lat="45.7991708" lon="9.1100156"><ele>329.0</ele><time>2026-03-29T14:12:56.833Z</time></trkpt><trkpt lat="45.7991642" lon="9.1102237"><ele>329.5</ele><time>2026-03-29T14:12:57.829Z</time></trkpt><trkpt lat="45.7991428" lon="9.1104309"><ele>330.0</ele><time>2026-03-29T14:12:58.834Z</time></trkpt><trkpt lat="45.7991387" lon="9.1106245"><ele>330.5</ele><time>2026-03-29T14:12:59.829Z</time></trkpt><trkpt lat="45.7990984" lon="9.1108382"><ele>331.0</ele><time>2026-03-29T14:13:00.833Z</time></trkpt><trkpt lat="45.7990522" lon="9.1110155"><ele>331.75</ele><time>2026-03-29T14:13:01.823Z</time></trkpt><trkpt lat="45.7989892" lon="9.1112051"><ele>332.5</ele><time>2026-03-29T14:13:02.83Z</time></trkpt><trkpt lat="45.7989202" lon="9.111369"><ele>333.25</ele><time>2026-03-29T14:13:03.822Z</time></trkpt><trkpt lat="45.798836" lon="9.1115288"><ele>334.0</ele><time>2026-03-29T14:13:04.824Z</time></trkpt><trkpt lat="45.7987376" lon="9.1116718"><ele>335.0</ele><time>2026-03-29T14:13:05.831Z</time></trkpt><trkpt lat="45.7986246" lon="9.1118479"><ele>336.0</ele><time>2026-03-29T14:13:06.823Z</time></trkpt><trkpt lat="45.7985451" lon="9.1120223"><ele>337.0</ele><time>2026-03-29T14:13:07.822Z</time></trkpt><trkpt lat="45.7984505" lon="9.1121955"><ele>337.66666666666663</ele><time>2026-03-29T14:13:08.828Z</time></trkpt><trkpt lat="45.7983545" lon="9.1123674"><ele>338.3333333333333</ele><time>2026-03-29T14:13:09.822Z</time></trkpt><trkpt lat="45.798243" lon="9.1125621"><ele>339.0</ele><time>2026-03-29T14:13:10.835Z</time></trkpt><trkpt lat="45.798145" lon="9.1127715"><ele>339.0</ele><time>2026-03-29T14:13:11.836Z</time></trkpt><trkpt lat="45.7980603" lon="9.1129558"><ele>339.0</ele><time>2026-03-29T14:13:12.834Z</time></trkpt><trkpt lat="45.7979789" lon="9.113133"><ele>339.0</ele><time>2026-03-29T14:13:13.833Z</time></trkpt><trkpt lat="45.7978929" lon="9.1132933"><ele>339.0</ele><time>2026-03-29T14:13:14.838Z</time></trkpt><trkpt lat="45.7978296" lon="9.113454"><ele>339.0</ele><time>2026-03-29T14:13:15.833Z</time></trkpt><trkpt lat="45.7977652" lon="9.113601"><ele>339.0</ele><time>2026-03-29T14:13:16.831Z</time></trkpt><trkpt lat="45.7977038" lon="9.1137357"><ele>339.0</ele><time>2026-03-29T14:13:17.835Z</time></trkpt><trkpt lat="45.7976599" lon="9.1138577"><ele>339.0</ele><time>2026-03-29T14:13:18.835Z</time></trkpt><trkpt lat="45.7976127" lon="9.1139892"><ele>339.0</ele><time>2026-03-29T14:13:19.829Z</time></trkpt><trkpt lat="45.7975598" lon="9.1141238"><ele>339.0</ele><time>2026-03-29T14:13:20.833Z</time></trkpt><trkpt lat="45.7975003" lon="9.1142733"><ele>339.0</ele><time>2026-03-29T14:13:21.831Z</time></trkpt><trkpt lat="45.7974398" lon="9.1144128"><ele>339.0</ele><time>2026-03-29T14:13:22.824Z</time></trkpt><trkpt lat="45.7973834" lon="9.1145354"><ele>339.0</ele><time>2026-03-29T14:13:23.826Z</time></trkpt><trkpt lat="45.7973248" lon="9.1146389"><ele>339.0</ele><time>2026-03-29T14:13:24.829Z</time></trkpt><trkpt lat="45.7972737" lon="9.1147218"><ele>339.0</ele><time>2026-03-29T14:13:25.826Z</time></trkpt><trkpt lat="45.7972119" lon="9.1147956"><ele>339.0</ele><time>2026-03-29T14:13:27.826Z</time></trkpt><trkpt lat="45.7971344" lon="9.1148978"><ele>339.0</ele><time>2026-03-29T14:13:31.826Z</time></trkpt><trkpt lat="45.7970319" lon="9.1149697"><ele>339.0</ele><time>2026-03-29T14:13:33.828Z</time></trkpt><trkpt lat="45.7969972" lon="9.1150648"><ele>339.0</ele><time>2026-03-29T14:13:34.823Z</time></trkpt><trkpt lat="45.7969755" lon="9.1152296"><ele>339.0</ele><time>2026-03-29T14:13:35.824Z</time></trkpt><trkpt lat="45.7969655" lon="9.1154212"><ele>339.0</ele><time>2026-03-29T14:13:36.821Z</time></trkpt><trkpt lat="45.7969702" lon="9.1156381"><ele>339.0</ele><time>2026-03-29T14:13:37.821Z</time></trkpt><trkpt lat="45.7969814" lon="9.1159145"><ele>339.0</ele><time>2026-03-29T14:13:38.83Z</time></trkpt><trkpt lat="45.7969664" lon="9.116182"><ele>339.0</ele><time>2026-03-29T14:13:39.819Z</time></trkpt><trkpt lat="45.7969303" lon="9.1164323"><ele>339.0</ele><time>2026-03-29T14:13:40.821Z</time></trkpt><trkpt lat="45.7969167" lon="9.1166589"><ele>338.6666666666667</ele><time>2026-03-29T14:13:41.832Z</time></trkpt><trkpt lat="45.7969077" lon="9.1168599"><ele>338.33333333333337</ele><time>2026-03-29T14:13:42.829Z</time></trkpt><trkpt lat="45.796919" lon="9.1170838"><ele>338.0</ele><time>2026-03-29T14:13:43.83Z</time></trkpt><trkpt lat="45.7969336" lon="9.1173126"><ele>338.33333333333337</ele><time>2026-03-29T14:13:44.833Z</time></trkpt><trkpt lat="45.7969592" lon="9.1175327"><ele>338.6666666666667</ele><time>2026-03-29T14:13:45.827Z</time></trkpt><trkpt lat="45.79698" lon="9.1177707"><ele>339.0</ele><time>2026-03-29T14:13:46.83Z</time></trkpt><trkpt lat="45.7969909" lon="9.1180227"><ele>339.6666666666667</ele><time>2026-03-29T14:13:47.829Z</time></trkpt><trkpt lat="45.7970058" lon="9.1182761"><ele>340.33333333333337</ele><time>2026-03-29T14:13:48.836Z</time></trkpt><trkpt lat="45.7970153" lon="9.1185238"><ele>341.0</ele><time>2026-03-29T14:13:49.823Z</time></trkpt><trkpt lat="45.7970223" lon="9.1187713"><ele>341.0</ele><time>2026-03-29T14:13:50.83Z</time></trkpt><trkpt lat="45.7970363" lon="9.118989"><ele>341.0</ele><time>2026-03-29T14:13:51.829Z</time></trkpt><trkpt lat="45.7970455" lon="9.1191907"><ele>341.0</ele><time>2026-03-29T14:13:52.827Z</time></trkpt><trkpt lat="45.7970565" lon="9.1193539"><ele>341.0</ele><time>2026-03-29T14:13:53.824Z</time></trkpt><trkpt lat="45.7970792" lon="9.1195072"><ele>341.6</ele><time>2026-03-29T14:13:54.827Z</time></trkpt><trkpt lat="45.7970783" lon="9.1196391"><ele>342.20000000000005</ele><time>2026-03-29T14:13:55.823Z</time></trkpt><trkpt lat="45.7970762" lon="9.1197879"><ele>342.79999999999995</ele><time>2026-03-29T14:13:56.828Z</time></trkpt><trkpt lat="45.7970826" lon="9.1199438"><ele>343.4</ele><time>2026-03-29T14:13:57.826Z</time></trkpt><trkpt lat="45.7970915" lon="9.1201421"><ele>344.0</ele><time>2026-03-29T14:13:58.824Z</time></trkpt><trkpt lat="45.7971036" lon="9.1203573"><ele>346.6666666666667</ele><time>2026-03-29T14:13:59.831Z</time></trkpt><trkpt lat="45.7971192" lon="9.1205949"><ele>349.3333333333333</ele><time>2026-03-29T14:14:00.825Z</time></trkpt><trkpt lat="45.7971674" lon="9.1208432"><ele>352.0</ele><time>2026-03-29T14:14:01.826Z</time></trkpt><trkpt lat="45.7971932" lon="9.121087"><ele>354.0</ele><time>2026-03-29T14:14:02.827Z</time></trkpt><trkpt lat="45.7972019" lon="9.1213318"><ele>356.0</ele><time>2026-03-29T14:14:03.821Z</time></trkpt><trkpt lat="45.797178" lon="9.121587"><ele>358.0</ele><time>2026-03-29T14:14:04.821Z</time></trkpt><trkpt lat="45.7971363" lon="9.1218413"><ele>359.66666666666663</ele><time>2026-03-29T14:14:05.827Z</time></trkpt><trkpt lat="45.7970895" lon="9.1220544"><ele>361.3333333333333</ele><time>2026-03-29T14:14:06.817Z</time></trkpt><trkpt lat="45.7970204" lon="9.1222682"><ele>363.0</ele><time>2026-03-29T14:14:07.834Z</time></trkpt><trkpt lat="45.7969557" lon="9.1224646"><ele>363.5</ele><time>2026-03-29T14:14:08.831Z</time></trkpt><trkpt lat="45.7968728" lon="9.1226322"><ele>364.0</ele><time>2026-03-29T14:14:09.829Z</time></trkpt><trkpt lat="45.7967774" lon="9.1228064"><ele>364.5</ele><time>2026-03-29T14:14:10.826Z</time></trkpt><trkpt lat="45.7967005" lon="9.122974"><ele>365.0</ele><time>2026-03-29T14:14:11.828Z</time></trkpt><trkpt lat="45.796608" lon="9.1231656"><ele>365.75</ele><time>2026-03-29T14:14:12.826Z</time></trkpt><trkpt lat="45.7965263" lon="9.1233526"><ele>366.5</ele><time>2026-03-29T14:14:13.824Z</time></trkpt><trkpt lat="45.796454" lon="9.1235264"><ele>367.25</ele><time>2026-03-29T14:14:14.837Z</time></trkpt><trkpt lat="45.796364" lon="9.1236995"><ele>368.0</ele><time>2026-03-29T14:14:15.83Z</time></trkpt><trkpt lat="45.7962887" lon="9.1238576"><ele>368.0</ele><time>2026-03-29T14:14:16.835Z</time></trkpt><trkpt lat="45.7962034" lon="9.1240354"><ele>368.0</ele><time>2026-03-29T14:14:17.837Z</time></trkpt><trkpt lat="45.7961129" lon="9.1242082"><ele>368.0</ele><time>2026-03-29T14:14:18.83Z</time></trkpt><trkpt lat="45.7960334" lon="9.1243835"><ele>368.0</ele><time>2026-03-29T14:14:19.83Z</time></trkpt><trkpt lat="45.7959474" lon="9.124561"><ele>367.75</ele><time>2026-03-29T14:14:20.838Z</time></trkpt><trkpt lat="45.795869" lon="9.1247065"><ele>367.5</ele><time>2026-03-29T14:14:21.832Z</time></trkpt><trkpt lat="45.7957825" lon="9.1248652"><ele>367.25</ele><time>2026-03-29T14:14:22.832Z</time></trkpt><trkpt lat="45.7956976" lon="9.1249982"><ele>367.0</ele><time>2026-03-29T14:14:23.835Z</time></trkpt><trkpt lat="45.7956176" lon="9.1251121"><ele>367.0</ele><time>2026-03-29T14:14:24.834Z</time></trkpt><trkpt lat="45.7955522" lon="9.1252133"><ele>367.0</ele><time>2026-03-29T14:14:25.834Z</time></trkpt><trkpt lat="45.795483" lon="9.1253"><ele>367.0</ele><time>2026-03-29T14:14:26.84Z</time></trkpt><trkpt lat="45.79541" lon="9.1253902"><ele>367.0</ele><time>2026-03-29T14:14:27.826Z</time></trkpt><trkpt lat="45.7953355" lon="9.125496"><ele>367.0</ele><time>2026-03-29T14:14:28.835Z</time></trkpt><trkpt lat="45.7952772" lon="9.1256383"><ele>366.75</ele><time>2026-03-29T14:14:29.831Z</time></trkpt><trkpt lat="45.7952294" lon="9.1258035"><ele>366.5</ele><time>2026-03-29T14:14:30.83Z</time></trkpt><trkpt lat="45.7951942" lon="9.1259896"><ele>366.25</ele><time>2026-03-29T14:14:31.838Z</time></trkpt><trkpt lat="45.7951509" lon="9.1261631"><ele>366.0</ele><time>2026-03-29T14:14:32.835Z</time></trkpt><trkpt lat="45.7950931" lon="9.1263047"><ele>367.20000000000005</ele><time>2026-03-29T14:14:33.831Z</time></trkpt><trkpt lat="45.7950367" lon="9.1264317"><ele>368.40000000000003</ele><time>2026-03-29T14:14:34.838Z</time></trkpt><trkpt lat="45.7949959" lon="9.1265693"><ele>369.6</ele><time>2026-03-29T14:14:35.829Z</time></trkpt><trkpt lat="45.7949835" lon="9.1267158"><ele>370.8</ele><time>2026-03-29T14:14:36.825Z</time></trkpt><trkpt lat="45.7950104" lon="9.1268611"><ele>372.0</ele><time>2026-03-29T14:14:37.826Z</time></trkpt><trkpt lat="45.7950743" lon="9.1270169"><ele>373.0</ele><time>2026-03-29T14:14:38.838Z</time></trkpt><trkpt lat="45.7951545" lon="9.1271976"><ele>374.0</ele><time>2026-03-29T14:14:39.827Z</time></trkpt><trkpt lat="45.7952343" lon="9.1274284"><ele>375.0</ele><time>2026-03-29T14:14:40.827Z</time></trkpt><trkpt lat="45.7952733" lon="9.1276505"><ele>375.0</ele><time>2026-03-29T14:14:41.834Z</time></trkpt><trkpt lat="45.7953237" lon="9.1278605"><ele>375.0</ele><time>2026-03-29T14:14:42.833Z</time></trkpt><trkpt lat="45.7953911" lon="9.1280344"><ele>375.0</ele><time>2026-03-29T14:14:43.83Z</time></trkpt><trkpt lat="45.7954862" lon="9.1281847"><ele>375.0</ele><time>2026-03-29T14:14:44.829Z</time></trkpt><trkpt lat="45.7955643" lon="9.1283682"><ele>377.5</ele><time>2026-03-29T14:14:45.835Z</time></trkpt><trkpt lat="45.7956304" lon="9.1285624"><ele>380.0</ele><time>2026-03-29T14:14:46.825Z</time></trkpt><trkpt lat="45.7956934" lon="9.1287359"><ele>382.5</ele><time>2026-03-29T14:14:47.833Z</time></trkpt><trkpt lat="45.7957583" lon="9.128901"><ele>385.0</ele><time>2026-03-29T14:14:48.832Z</time></trkpt><trkpt lat="45.7958008" lon="9.1290609"><ele>387.25</ele><time>2026-03-29T14:14:49.828Z</time></trkpt><trkpt lat="45.7958318" lon="9.1292044"><ele>389.5</ele><time>2026-03-29T14:14:50.83Z</time></trkpt><trkpt lat="45.7958685" lon="9.1293561"><ele>391.75</ele><time>2026-03-29T14:14:51.83Z</time></trkpt><trkpt lat="45.7959267" lon="9.1295084"><ele>394.0</ele><time>2026-03-29T14:14:52.822Z</time></trkpt><trkpt lat="45.7959868" lon="9.1296841"><ele>393.25</ele><time>2026-03-29T14:14:53.83Z</time></trkpt><trkpt lat="45.7960453" lon="9.1298677"><ele>392.5</ele><time>2026-03-29T14:14:54.828Z</time></trkpt><trkpt lat="45.7960912" lon="9.1300379"><ele>391.75</ele><time>2026-03-29T14:14:55.824Z</time></trkpt><trkpt lat="45.7961209" lon="9.1302049"><ele>391.0</ele><time>2026-03-29T14:14:56.828Z</time></trkpt><trkpt lat="45.7961445" lon="9.1303691"><ele>391.0</ele><time>2026-03-29T14:14:57.831Z</time></trkpt><trkpt lat="45.7961591" lon="9.1305385"><ele>391.0</ele><time>2026-03-29T14:14:58.823Z</time></trkpt><trkpt lat="45.7961598" lon="9.1307148"><ele>391.0</ele><time>2026-03-29T14:14:59.83Z</time></trkpt><trkpt lat="45.7961598" lon="9.1308877"><ele>391.0</ele><time>2026-03-29T14:15:00.824Z</time></trkpt><trkpt lat="45.7961441" lon="9.1310554"><ele>391.0</ele><time>2026-03-29T14:15:01.822Z</time></trkpt><trkpt lat="45.7961207" lon="9.1312022"><ele>391.0</ele><time>2026-03-29T14:15:02.824Z</time></trkpt><trkpt lat="45.7960848" lon="9.1313431"><ele>391.0</ele><time>2026-03-29T14:15:03.827Z</time></trkpt><trkpt lat="45.7960491" lon="9.1314743"><ele>391.0</ele><time>2026-03-29T14:15:04.825Z</time></trkpt><trkpt lat="45.7960108" lon="9.1315923"><ele>391.0</ele><time>2026-03-29T14:15:05.822Z</time></trkpt><trkpt lat="45.7959733" lon="9.1316963"><ele>394.0</ele><time>2026-03-29T14:15:06.825Z</time></trkpt><trkpt lat="45.7959278" lon="9.1318058"><ele>397.0</ele><time>2026-03-29T14:15:07.818Z</time></trkpt><trkpt lat="45.7958737" lon="9.1319237"><ele>400.0</ele><time>2026-03-29T14:15:08.829Z</time></trkpt><trkpt lat="45.795821" lon="9.1320353"><ele>403.0</ele><time>2026-03-29T14:15:09.826Z</time></trkpt><trkpt lat="45.7957712" lon="9.132164"><ele>406.0</ele><time>2026-03-29T14:15:10.822Z</time></trkpt><trkpt lat="45.7957098" lon="9.1323176"><ele>404.6666666666667</ele><time>2026-03-29T14:15:11.822Z</time></trkpt><trkpt lat="45.7956338" lon="9.132493"><ele>403.33333333333337</ele><time>2026-03-29T14:15:12.823Z</time></trkpt><trkpt lat="45.7955457" lon="9.132681"><ele>402.0</ele><time>2026-03-29T14:15:13.818Z</time></trkpt><trkpt lat="45.7954579" lon="9.132895"><ele>402.0</ele><time>2026-03-29T14:15:14.833Z</time></trkpt><trkpt lat="45.7953766" lon="9.1330852"><ele>402.0</ele><time>2026-03-29T14:15:15.82Z</time></trkpt><trkpt lat="45.795293" lon="9.1332934"><ele>402.0</ele><time>2026-03-29T14:15:16.821Z</time></trkpt><trkpt lat="45.7952239" lon="9.1334784"><ele>406.0</ele><time>2026-03-29T14:15:17.819Z</time></trkpt><trkpt lat="45.7951293" lon="9.1336667"><ele>410.0</ele><time>2026-03-29T14:15:18.829Z</time></trkpt><trkpt lat="45.7950509" lon="9.133858"><ele>414.0</ele><time>2026-03-29T14:15:19.824Z</time></trkpt><trkpt lat="45.7949723" lon="9.1340426"><ele>414.5</ele><time>2026-03-29T14:15:20.825Z</time></trkpt><trkpt lat="45.7949089" lon="9.1342182"><ele>415.0</ele><time>2026-03-29T14:15:21.824Z</time></trkpt><trkpt lat="45.7948582" lon="9.1343995"><ele>415.5</ele><time>2026-03-29T14:15:22.816Z</time></trkpt><trkpt lat="45.7948128" lon="9.1345727"><ele>416.0</ele><time>2026-03-29T14:15:23.825Z</time></trkpt><trkpt lat="45.7947898" lon="9.1347437"><ele>415.5</ele><time>2026-03-29T14:15:24.823Z</time></trkpt><trkpt lat="45.7947904" lon="9.1349286"><ele>415.0</ele><time>2026-03-29T14:15:25.821Z</time></trkpt><trkpt lat="45.7947849" lon="9.1351132"><ele>414.5</ele><time>2026-03-29T14:15:26.835Z</time></trkpt><trkpt lat="45.7948092" lon="9.1352911"><ele>414.0</ele><time>2026-03-29T14:15:27.819Z</time></trkpt><trkpt lat="45.7948101" lon="9.1355179"><ele>413.0</ele><time>2026-03-29T14:15:28.829Z</time></trkpt><trkpt lat="45.7948156" lon="9.1357337"><ele>412.0</ele><time>2026-03-29T14:15:29.828Z</time></trkpt><trkpt lat="45.7948128" lon="9.135974"><ele>411.0</ele><time>2026-03-29T14:15:30.828Z</time></trkpt><trkpt lat="45.7948003" lon="9.1362143"><ele>411.0</ele><time>2026-03-29T14:15:31.829Z</time></trkpt><trkpt lat="45.7947824" lon="9.1364404"><ele>411.0</ele><time>2026-03-29T14:15:32.83Z</time></trkpt><trkpt lat="45.7947767" lon="9.1366673"><ele>411.0</ele><time>2026-03-29T14:15:33.831Z</time></trkpt><trkpt lat="45.7947775" lon="9.1368708"><ele>411.0</ele><time>2026-03-29T14:15:34.824Z</time></trkpt><trkpt lat="45.7947817" lon="9.1370657"><ele>411.0</ele><time>2026-03-29T14:15:35.829Z</time></trkpt><trkpt lat="45.7947963" lon="9.1372445"><ele>411.0</ele><time>2026-03-29T14:15:36.827Z</time></trkpt><trkpt lat="45.7947938" lon="9.1374304"><ele>411.0</ele><time>2026-03-29T14:15:37.829Z</time></trkpt><trkpt lat="45.7948001" lon="9.1376011"><ele>411.0</ele><time>2026-03-29T14:15:38.828Z</time></trkpt><trkpt lat="45.794812" lon="9.1377586"><ele>411.0</ele><time>2026-03-29T14:15:39.827Z</time></trkpt><trkpt lat="45.7948205" lon="9.1379264"><ele>411.0</ele><time>2026-03-29T14:15:40.823Z</time></trkpt><trkpt lat="45.7948316" lon="9.1381027"><ele>411.0</ele><time>2026-03-29T14:15:41.832Z</time></trkpt><trkpt lat="45.7948466" lon="9.1382749"><ele>411.0</ele><time>2026-03-29T14:15:42.824Z</time></trkpt><trkpt lat="45.7948535" lon="9.1384531"><ele>411.0</ele><time>2026-03-29T14:15:43.824Z</time></trkpt><trkpt lat="45.7948623" lon="9.1386404"><ele>411.0</ele><time>2026-03-29T14:15:44.826Z</time></trkpt><trkpt lat="45.7948657" lon="9.1388461"><ele>411.0</ele><time>2026-03-29T14:15:45.827Z</time></trkpt><trkpt lat="45.7948622" lon="9.1390694"><ele>411.0</ele><time>2026-03-29T14:15:46.829Z</time></trkpt><trkpt lat="45.7948825" lon="9.1392495"><ele>411.0</ele><time>2026-03-29T14:15:47.823Z</time></trkpt><trkpt lat="45.7948733" lon="9.1394475"><ele>411.0</ele><time>2026-03-29T14:15:48.835Z</time></trkpt><trkpt lat="45.7948632" lon="9.1396305"><ele>411.0</ele><time>2026-03-29T14:15:49.825Z</time></trkpt><trkpt lat="45.7948465" lon="9.1397874"><ele>410.6</ele><time>2026-03-29T14:15:50.83Z</time></trkpt><trkpt lat="45.7948502" lon="9.139937"><ele>410.20000000000005</ele><time>2026-03-29T14:15:51.829Z</time></trkpt><trkpt lat="45.7948592" lon="9.1400867"><ele>409.79999999999995</ele><time>2026-03-29T14:15:52.823Z</time></trkpt><trkpt lat="45.7948703" lon="9.1402472"><ele>409.4</ele><time>2026-03-29T14:15:53.83Z</time></trkpt><trkpt lat="45.7948875" lon="9.1404056"><ele>409.0</ele><time>2026-03-29T14:15:54.823Z</time></trkpt><trkpt lat="45.7949023" lon="9.1405403"><ele>409.0</ele><time>2026-03-29T14:15:55.826Z</time></trkpt><trkpt lat="45.7949144" lon="9.1406668"><ele>409.0</ele><time>2026-03-29T14:15:56.821Z</time></trkpt><trkpt lat="45.7949256" lon="9.1407897"><ele>409.0</ele><time>2026-03-29T14:15:57.827Z</time></trkpt><trkpt lat="45.7949335" lon="9.1409135"><ele>409.0</ele><time>2026-03-29T14:15:58.815Z</time></trkpt><trkpt lat="45.7949324" lon="9.1410433"><ele>409.0</ele><time>2026-03-29T14:15:59.834Z</time></trkpt><trkpt lat="45.7949193" lon="9.1411824"><ele>409.0</ele><time>2026-03-29T14:16:00.821Z</time></trkpt><trkpt lat="45.7949086" lon="9.14133"><ele>409.0</ele><time>2026-03-29T14:16:01.828Z</time></trkpt><trkpt lat="45.794903" lon="9.1414946"><ele>409.0</ele><time>2026-03-29T14:16:02.826Z</time></trkpt><trkpt lat="45.7949048" lon="9.1416709"><ele>409.0</ele><time>2026-03-29T14:16:03.817Z</time></trkpt><trkpt lat="45.7949032" lon="9.141864"><ele>410.6666666666667</ele><time>2026-03-29T14:16:04.818Z</time></trkpt><trkpt lat="45.7949061" lon="9.14208"><ele>412.33333333333337</ele><time>2026-03-29T14:16:05.821Z</time></trkpt><trkpt lat="45.7949244" lon="9.1423241"><ele>414.0</ele><time>2026-03-29T14:16:06.828Z</time></trkpt><trkpt lat="45.7948919" lon="9.1425642"><ele>414.0</ele><time>2026-03-29T14:16:07.822Z</time></trkpt><trkpt lat="45.7948575" lon="9.1427768"><ele>414.0</ele><time>2026-03-29T14:16:08.825Z</time></trkpt><trkpt lat="45.7948531" lon="9.14296"><ele>414.0</ele><time>2026-03-29T14:16:09.828Z</time></trkpt><trkpt lat="45.7948591" lon="9.1431262"><ele>414.0</ele><time>2026-03-29T14:16:10.819Z</time></trkpt><trkpt lat="45.7948509" lon="9.1433053"><ele>413.25</ele><time>2026-03-29T14:16:11.827Z</time></trkpt><trkpt lat="45.7948415" lon="9.143506"><ele>412.5</ele><time>2026-03-29T14:16:12.828Z</time></trkpt><trkpt lat="45.794826" lon="9.143712"><ele>411.75</ele><time>2026-03-29T14:16:13.827Z</time></trkpt><trkpt lat="45.7948129" lon="9.1439413"><ele>411.0</ele><time>2026-03-29T14:16:14.824Z</time></trkpt><trkpt lat="45.7947949" lon="9.1441778"><ele>410.66666666666663</ele><time>2026-03-29T14:16:15.828Z</time></trkpt><trkpt lat="45.7947661" lon="9.144403"><ele>410.3333333333333</ele><time>2026-03-29T14:16:16.826Z</time></trkpt><trkpt lat="45.7947453" lon="9.1446456"><ele>410.0</ele><time>2026-03-29T14:16:17.83Z</time></trkpt><trkpt lat="45.7947248" lon="9.1448979"><ele>409.0</ele><time>2026-03-29T14:16:18.834Z</time></trkpt><trkpt lat="45.7946895" lon="9.1451575"><ele>408.0</ele><time>2026-03-29T14:16:19.833Z</time></trkpt><trkpt lat="45.7946636" lon="9.145381"><ele>407.0</ele><time>2026-03-29T14:16:20.831Z</time></trkpt><trkpt lat="45.7946466" lon="9.1455889"><ele>406.75</ele><time>2026-03-29T14:16:21.829Z</time></trkpt><trkpt lat="45.7946277" lon="9.1457832"><ele>406.5</ele><time>2026-03-29T14:16:22.824Z</time></trkpt><trkpt lat="45.794625" lon="9.145972"><ele>406.25</ele><time>2026-03-29T14:16:23.834Z</time></trkpt><trkpt lat="45.794616" lon="9.1461729"><ele>406.0</ele><time>2026-03-29T14:16:24.83Z</time></trkpt><trkpt lat="45.7946082" lon="9.1463912"><ele>406.0</ele><time>2026-03-29T14:16:25.823Z</time></trkpt><trkpt lat="45.7945921" lon="9.1466283"><ele>406.0</ele><time>2026-03-29T14:16:26.839Z</time></trkpt><trkpt lat="45.7945798" lon="9.1468771"><ele>406.0</ele><time>2026-03-29T14:16:27.836Z</time></trkpt><trkpt lat="45.7945672" lon="9.1471284"><ele>406.33333333333337</ele><time>2026-03-29T14:16:28.823Z</time></trkpt><trkpt lat="45.7945499" lon="9.1473825"><ele>406.66666666666663</ele><time>2026-03-29T14:16:29.832Z</time></trkpt><trkpt lat="45.794538" lon="9.1476323"><ele>407.0</ele><time>2026-03-29T14:16:30.83Z</time></trkpt><trkpt lat="45.7945236" lon="9.1478858"><ele>407.0</ele><time>2026-03-29T14:16:31.826Z</time></trkpt><trkpt lat="45.7945094" lon="9.1481113"><ele>407.0</ele><time>2026-03-29T14:16:32.831Z</time></trkpt><trkpt lat="45.7944901" lon="9.1483278"><ele>407.0</ele><time>2026-03-29T14:16:33.834Z</time></trkpt><trkpt lat="45.79447" lon="9.1485302"><ele>406.75</ele><time>2026-03-29T14:16:34.83Z</time></trkpt><trkpt lat="45.7944346" lon="9.1487268"><ele>406.5</ele><time>2026-03-29T14:16:35.831Z</time></trkpt><trkpt lat="45.7944076" lon="9.1489461"><ele>406.25</ele><time>2026-03-29T14:16:36.835Z</time></trkpt><trkpt lat="45.7943867" lon="9.1491405"><ele>406.0</ele><time>2026-03-29T14:16:37.818Z</time></trkpt><trkpt lat="45.7943744" lon="9.1493346"><ele>406.0</ele><time>2026-03-29T14:16:38.836Z</time></trkpt><trkpt lat="45.7943726" lon="9.149512"><ele>406.0</ele><time>2026-03-29T14:16:39.828Z</time></trkpt><trkpt lat="45.7943736" lon="9.1496474"><ele>406.0</ele><time>2026-03-29T14:16:40.823Z</time></trkpt><trkpt lat="45.7943772" lon="9.1497827"><ele>406.0</ele><time>2026-03-29T14:16:41.84Z</time></trkpt><trkpt lat="45.7943643" lon="9.1498963"><ele>406.0</ele><time>2026-03-29T14:16:42.83Z</time></trkpt><trkpt lat="45.7943267" lon="9.1500162"><ele>405.83333333333337</ele><time>2026-03-29T14:16:43.83Z</time></trkpt><trkpt lat="45.7942768" lon="9.1501105"><ele>405.6666666666667</ele><time>2026-03-29T14:16:44.837Z</time></trkpt><trkpt lat="45.7942282" lon="9.1502722"><ele>405.5</ele><time>2026-03-29T14:16:46.832Z</time></trkpt><trkpt lat="45.7942014" lon="9.1503613"><ele>405.33333333333337</ele><time>2026-03-29T14:16:47.834Z</time></trkpt><trkpt lat="45.7941651" lon="9.1504581"><ele>405.1666666666667</ele><time>2026-03-29T14:16:48.833Z</time></trkpt><trkpt lat="45.7941197" lon="9.1505544"><ele>405.0</ele><time>2026-03-29T14:16:49.828Z</time></trkpt><trkpt lat="45.794074" lon="9.1506469"><ele>404.5</ele><time>2026-03-29T14:16:50.831Z</time></trkpt><trkpt lat="45.7940212" lon="9.1507464"><ele>404.0</ele><time>2026-03-29T14:16:51.833Z</time></trkpt><trkpt lat="45.7938914" lon="9.1509695"><ele>403.5</ele><time>2026-03-29T14:16:53.826Z</time></trkpt><trkpt lat="45.7938084" lon="9.1511111"><ele>403.0</ele><time>2026-03-29T14:16:54.823Z</time></trkpt><trkpt lat="45.7937121" lon="9.1512712"><ele>403.0</ele><time>2026-03-29T14:16:55.822Z</time></trkpt><trkpt lat="45.7935634" lon="9.151463"><ele>403.0</ele><time>2026-03-29T14:16:56.827Z</time></trkpt><trkpt lat="45.7934131" lon="9.1516382"><ele>403.0</ele><time>2026-03-29T14:16:57.824Z</time></trkpt><trkpt lat="45.793283" lon="9.1518062"><ele>405.33333333333337</ele><time>2026-03-29T14:16:58.82Z</time></trkpt><trkpt lat="45.7931462" lon="9.1519837"><ele>407.66666666666663</ele><time>2026-03-29T14:16:59.822Z</time></trkpt><trkpt lat="45.7930191" lon="9.1521461"><ele>410.0</ele><time>2026-03-29T14:17:00.824Z</time></trkpt><trkpt lat="45.7928774" lon="9.1523359"><ele>409.0</ele><time>2026-03-29T14:17:01.82Z</time></trkpt><trkpt lat="45.7927588" lon="9.1525248"><ele>408.0</ele><time>2026-03-29T14:17:02.816Z</time></trkpt><trkpt lat="45.7926202" lon="9.1527045"><ele>407.0</ele><time>2026-03-29T14:17:03.823Z</time></trkpt><trkpt lat="45.792481" lon="9.1529099"><ele>405.3333333333333</ele><time>2026-03-29T14:17:04.817Z</time></trkpt><trkpt lat="45.7923378" lon="9.1530974"><ele>403.66666666666663</ele><time>2026-03-29T14:17:05.825Z</time></trkpt><trkpt lat="45.7922082" lon="9.1532782"><ele>402.0</ele><time>2026-03-29T14:17:06.823Z</time></trkpt><trkpt lat="45.7920859" lon="9.1534389"><ele>402.0</ele><time>2026-03-29T14:17:07.825Z</time></trkpt><trkpt lat="45.7919594" lon="9.1536009"><ele>402.0</ele><time>2026-03-29T14:17:08.83Z</time></trkpt><trkpt lat="45.7918244" lon="9.1537624"><ele>402.0</ele><time>2026-03-29T14:17:09.83Z</time></trkpt><trkpt lat="45.7916818" lon="9.1539226"><ele>400.0</ele><time>2026-03-29T14:17:10.824Z</time></trkpt><trkpt lat="45.7915537" lon="9.1540836"><ele>398.0</ele><time>2026-03-29T14:17:11.831Z</time></trkpt><trkpt lat="45.7914235" lon="9.1542592"><ele>396.0</ele><time>2026-03-29T14:17:12.83Z</time></trkpt><trkpt lat="45.7913063" lon="9.154431"><ele>396.0</ele><time>2026-03-29T14:17:13.821Z</time></trkpt><trkpt lat="45.7911938" lon="9.1546144"><ele>396.0</ele><time>2026-03-29T14:17:14.834Z</time></trkpt><trkpt lat="45.7910767" lon="9.1547823"><ele>396.0</ele><time>2026-03-29T14:17:15.825Z</time></trkpt><trkpt lat="45.7909621" lon="9.1549639"><ele>395.0</ele><time>2026-03-29T14:17:16.826Z</time></trkpt><trkpt lat="45.7908439" lon="9.1551148"><ele>394.0</ele><time>2026-03-29T14:17:17.83Z</time></trkpt><trkpt lat="45.7907225" lon="9.1552562"><ele>393.0</ele><time>2026-03-29T14:17:18.834Z</time></trkpt><trkpt lat="45.7906044" lon="9.1554043"><ele>393.0</ele><time>2026-03-29T14:17:19.824Z</time></trkpt><trkpt lat="45.7904999" lon="9.1555552"><ele>393.0</ele><time>2026-03-29T14:17:20.824Z</time></trkpt><trkpt lat="45.7903909" lon="9.1557043"><ele>393.0</ele><time>2026-03-29T14:17:21.836Z</time></trkpt><trkpt lat="45.7902697" lon="9.1558532"><ele>392.33333333333337</ele><time>2026-03-29T14:17:22.82Z</time></trkpt><trkpt lat="45.7901568" lon="9.1560177"><ele>391.6666666666667</ele><time>2026-03-29T14:17:23.828Z</time></trkpt><trkpt lat="45.7900307" lon="9.1561602"><ele>391.0</ele><time>2026-03-29T14:17:24.832Z</time></trkpt><trkpt lat="45.7898941" lon="9.15631"><ele>391.0</ele><time>2026-03-29T14:17:25.824Z</time></trkpt><trkpt lat="45.789777" lon="9.1564669"><ele>391.0</ele><time>2026-03-29T14:17:26.832Z</time></trkpt><trkpt lat="45.7896649" lon="9.1566031"><ele>391.0</ele><time>2026-03-29T14:17:27.83Z</time></trkpt><trkpt lat="45.7895722" lon="9.1567329"><ele>391.0</ele><time>2026-03-29T14:17:28.821Z</time></trkpt><trkpt lat="45.7894769" lon="9.1568432"><ele>390.6</ele><time>2026-03-29T14:17:29.824Z</time></trkpt><trkpt lat="45.7894032" lon="9.1569766"><ele>390.20000000000005</ele><time>2026-03-29T14:17:30.828Z</time></trkpt><trkpt lat="45.7893311" lon="9.1570835"><ele>389.79999999999995</ele><time>2026-03-29T14:17:31.823Z</time></trkpt><trkpt lat="45.7892566" lon="9.1571719"><ele>389.4</ele><time>2026-03-29T14:17:32.834Z</time></trkpt><trkpt lat="45.7891845" lon="9.1572554"><ele>389.0</ele><time>2026-03-29T14:17:33.822Z</time></trkpt><trkpt lat="45.7891016" lon="9.157322"><ele>388.99999999999994</ele><time>2026-03-29T14:17:34.83Z</time></trkpt><trkpt lat="45.7890264" lon="9.1574015"><ele>389.0</ele><time>2026-03-29T14:17:35.826Z</time></trkpt><trkpt lat="45.7889532" lon="9.1574716"><ele>389.0</ele><time>2026-03-29T14:17:36.824Z</time></trkpt><trkpt lat="45.7888964" lon="9.1575213"><ele>389.0</ele><time>2026-03-29T14:17:37.831Z</time></trkpt><trkpt lat="45.7887999" lon="9.1576104"><ele>388.99999999999994</ele><time>2026-03-29T14:17:39.831Z</time></trkpt><trkpt lat="45.7887373" lon="9.1576682"><ele>389.0</ele><time>2026-03-29T14:17:41.837Z</time></trkpt><trkpt lat="45.7886605" lon="9.1577289"><ele>389.0</ele><time>2026-03-29T14:17:44.844Z</time></trkpt><trkpt lat="45.7885489" lon="9.1578699"><ele>389.0</ele><time>2026-03-29T14:17:46.827Z</time></trkpt><trkpt lat="45.7884979" lon="9.1579946"><ele>389.0</ele><time>2026-03-29T14:17:47.826Z</time></trkpt><trkpt lat="45.788443" lon="9.1581446"><ele>389.0</ele><time>2026-03-29T14:17:48.827Z</time></trkpt><trkpt lat="45.7883722" lon="9.1582999"><ele>389.0</ele><time>2026-03-29T14:17:49.827Z</time></trkpt><trkpt lat="45.7882807" lon="9.1584749"><ele>389.0</ele><time>2026-03-29T14:17:50.825Z</time></trkpt><trkpt lat="45.7881256" lon="9.1586778"><ele>389.0</ele><time>2026-03-29T14:17:51.82Z</time></trkpt><trkpt lat="45.7879759" lon="9.1588454"><ele>389.0</ele><time>2026-03-29T14:17:52.82Z</time></trkpt><trkpt lat="45.7878704" lon="9.1589756"><ele>389.0</ele><time>2026-03-29T14:17:53.833Z</time></trkpt><trkpt lat="45.7877454" lon="9.1591517"><ele>389.0</ele><time>2026-03-29T14:17:54.826Z</time></trkpt><trkpt lat="45.7876093" lon="9.1593522"><ele>388.66666666666663</ele><time>2026-03-29T14:17:55.825Z</time></trkpt><trkpt lat="45.7874515" lon="9.1595571"><ele>388.33333333333337</ele><time>2026-03-29T14:17:56.83Z</time></trkpt><trkpt lat="45.7873021" lon="9.1597507"><ele>388.0</ele><time>2026-03-29T14:17:57.829Z</time></trkpt><trkpt lat="45.7871542" lon="9.1599586"><ele>387.6666666666667</ele><time>2026-03-29T14:17:58.827Z</time></trkpt><trkpt lat="45.7870065" lon="9.1601558"><ele>387.33333333333337</ele><time>2026-03-29T14:17:59.832Z</time></trkpt><trkpt lat="45.7868562" lon="9.160359"><ele>387.0</ele><time>2026-03-29T14:18:00.829Z</time></trkpt><trkpt lat="45.7867015" lon="9.1605456"><ele>386.0</ele><time>2026-03-29T14:18:01.834Z</time></trkpt><trkpt lat="45.7865431" lon="9.1607761"><ele>385.0</ele><time>2026-03-29T14:18:02.831Z</time></trkpt><trkpt lat="45.7863873" lon="9.1609903"><ele>384.0</ele><time>2026-03-29T14:18:03.83Z</time></trkpt><trkpt lat="45.786234" lon="9.1612156"><ele>384.0</ele><time>2026-03-29T14:18:04.833Z</time></trkpt><trkpt lat="45.7860703" lon="9.1614324"><ele>384.0</ele><time>2026-03-29T14:18:05.835Z</time></trkpt><trkpt lat="45.7859116" lon="9.161641"><ele>384.0</ele><time>2026-03-29T14:18:06.83Z</time></trkpt><trkpt lat="45.7857598" lon="9.1618429"><ele>382.6666666666667</ele><time>2026-03-29T14:18:07.831Z</time></trkpt><trkpt lat="45.7856165" lon="9.1620266"><ele>381.33333333333337</ele><time>2026-03-29T14:18:08.834Z</time></trkpt><trkpt lat="45.785472" lon="9.1622028"><ele>380.0</ele><time>2026-03-29T14:18:09.825Z</time></trkpt><trkpt lat="45.7853294" lon="9.1623738"><ele>379.33333333333337</ele><time>2026-03-29T14:18:10.827Z</time></trkpt><trkpt lat="45.7851897" lon="9.1625523"><ele>378.6666666666667</ele><time>2026-03-29T14:18:11.838Z</time></trkpt><trkpt lat="45.7850537" lon="9.1627246"><ele>378.0</ele><time>2026-03-29T14:18:12.832Z</time></trkpt><trkpt lat="45.7849303" lon="9.1629067"><ele>377.6666666666667</ele><time>2026-03-29T14:18:13.831Z</time></trkpt><trkpt lat="45.7848124" lon="9.1630782"><ele>377.33333333333337</ele><time>2026-03-29T14:18:14.834Z</time></trkpt><trkpt lat="45.7846927" lon="9.1632421"><ele>377.0</ele><time>2026-03-29T14:18:15.832Z</time></trkpt><trkpt lat="45.7845775" lon="9.1633846"><ele>377.0</ele><time>2026-03-29T14:18:16.83Z</time></trkpt><trkpt lat="45.7844558" lon="9.1635374"><ele>377.0</ele><time>2026-03-29T14:18:17.829Z</time></trkpt><trkpt lat="45.7843331" lon="9.1636961"><ele>377.0</ele><time>2026-03-29T14:18:18.829Z</time></trkpt><trkpt lat="45.784217" lon="9.1638537"><ele>377.0</ele><time>2026-03-29T14:18:19.826Z</time></trkpt><trkpt lat="45.7841041" lon="9.1640179"><ele>377.0</ele><time>2026-03-29T14:18:20.826Z</time></trkpt><trkpt lat="45.7839798" lon="9.1641989"><ele>377.0</ele><time>2026-03-29T14:18:21.824Z</time></trkpt><trkpt lat="45.7838647" lon="9.1643672"><ele>376.33333333333337</ele><time>2026-03-29T14:18:22.825Z</time></trkpt><trkpt lat="45.7837515" lon="9.1645362"><ele>375.6666666666667</ele><time>2026-03-29T14:18:23.83Z</time></trkpt><trkpt lat="45.7836222" lon="9.164698"><ele>375.0</ele><time>2026-03-29T14:18:24.826Z</time></trkpt><trkpt lat="45.7834967" lon="9.1648809"><ele>375.0</ele><time>2026-03-29T14:18:25.831Z</time></trkpt><trkpt lat="45.7833583" lon="9.1650616"><ele>375.0</ele><time>2026-03-29T14:18:26.842Z</time></trkpt><trkpt lat="45.7832039" lon="9.1652705"><ele>375.0</ele><time>2026-03-29T14:18:27.828Z</time></trkpt><trkpt lat="45.7830214" lon="9.165476"><ele>374.5</ele><time>2026-03-29T14:18:28.83Z</time></trkpt><trkpt lat="45.7828421" lon="9.1657005"><ele>374.0</ele><time>2026-03-29T14:18:29.836Z</time></trkpt><trkpt lat="45.7826659" lon="9.1659409"><ele>374.0</ele><time>2026-03-29T14:18:30.828Z</time></trkpt><trkpt lat="45.7824859" lon="9.1661845"><ele>374.0</ele><time>2026-03-29T14:18:31.831Z</time></trkpt><trkpt lat="45.7822956" lon="9.1664352"><ele>374.0</ele><time>2026-03-29T14:18:32.833Z</time></trkpt><trkpt lat="45.7821139" lon="9.1666801"><ele>374.0</ele><time>2026-03-29T14:18:33.833Z</time></trkpt><trkpt lat="45.7819347" lon="9.1669297"><ele>372.0</ele><time>2026-03-29T14:18:34.823Z</time></trkpt><trkpt lat="45.7817495" lon="9.1671541"><ele>370.0</ele><time>2026-03-29T14:18:35.839Z</time></trkpt><trkpt lat="45.7815713" lon="9.1673763"><ele>370.0</ele><time>2026-03-29T14:18:36.826Z</time></trkpt><trkpt lat="45.7814169" lon="9.1675859"><ele>370.0</ele><time>2026-03-29T14:18:37.831Z</time></trkpt><trkpt lat="45.7812546" lon="9.1677843"><ele>370.0</ele><time>2026-03-29T14:18:38.83Z</time></trkpt><trkpt lat="45.7811129" lon="9.1679754"><ele>369.66666666666663</ele><time>2026-03-29T14:18:39.83Z</time></trkpt><trkpt lat="45.7809729" lon="9.1681557"><ele>369.3333333333333</ele><time>2026-03-29T14:18:40.829Z</time></trkpt><trkpt lat="45.7808396" lon="9.1683221"><ele>369.0</ele><time>2026-03-29T14:18:41.83Z</time></trkpt><trkpt lat="45.7807133" lon="9.168494"><ele>369.0</ele><time>2026-03-29T14:18:42.828Z</time></trkpt><trkpt lat="45.7805898" lon="9.1686801"><ele>369.0</ele><time>2026-03-29T14:18:43.829Z</time></trkpt><trkpt lat="45.7804687" lon="9.1688403"><ele>369.0</ele><time>2026-03-29T14:18:44.831Z</time></trkpt><trkpt lat="45.780349" lon="9.1689784"><ele>369.3333333333333</ele><time>2026-03-29T14:18:45.826Z</time></trkpt><trkpt lat="45.7802339" lon="9.1691276"><ele>369.66666666666663</ele><time>2026-03-29T14:18:46.826Z</time></trkpt><trkpt lat="45.7801188" lon="9.1692824"><ele>370.0</ele><time>2026-03-29T14:18:47.833Z</time></trkpt><trkpt lat="45.7799973" lon="9.1694303"><ele>369.75</ele><time>2026-03-29T14:18:48.824Z</time></trkpt><trkpt lat="45.7798949" lon="9.1695712"><ele>369.5</ele><time>2026-03-29T14:18:49.827Z</time></trkpt><trkpt lat="45.7797871" lon="9.1696927"><ele>369.25</ele><time>2026-03-29T14:18:50.829Z</time></trkpt><trkpt lat="45.7796863" lon="9.1698022"><ele>369.0</ele><time>2026-03-29T14:18:51.823Z</time></trkpt><trkpt lat="45.7795921" lon="9.1698777"><ele>369.0</ele><time>2026-03-29T14:18:52.821Z</time></trkpt><trkpt lat="45.7794902" lon="9.1699255"><ele>369.0</ele><time>2026-03-29T14:18:53.82Z</time></trkpt><trkpt lat="45.7793917" lon="9.1699558"><ele>369.0</ele><time>2026-03-29T14:18:54.821Z</time></trkpt><trkpt lat="45.7793026" lon="9.1699577"><ele>369.0</ele><time>2026-03-29T14:18:55.826Z</time></trkpt><trkpt lat="45.779216" lon="9.1699762"><ele>369.0</ele><time>2026-03-29T14:18:56.829Z</time></trkpt><trkpt lat="45.7791403" lon="9.1700347"><ele>368.25</ele><time>2026-03-29T14:18:57.824Z</time></trkpt><trkpt lat="45.7790711" lon="9.1701423"><ele>367.5</ele><time>2026-03-29T14:18:58.826Z</time></trkpt><trkpt lat="45.779012" lon="9.1702875"><ele>366.75</ele><time>2026-03-29T14:18:59.828Z</time></trkpt><trkpt lat="45.7789434" lon="9.1704478"><ele>366.0</ele><time>2026-03-29T14:19:00.823Z</time></trkpt><trkpt lat="45.7788515" lon="9.1706041"><ele>365.6666666666667</ele><time>2026-03-29T14:19:01.83Z</time></trkpt><trkpt lat="45.778727" lon="9.1707767"><ele>365.33333333333337</ele><time>2026-03-29T14:19:02.828Z</time></trkpt><trkpt lat="45.7786181" lon="9.1709259"><ele>365.0</ele><time>2026-03-29T14:19:03.829Z</time></trkpt><trkpt lat="45.7784958" lon="9.1710576"><ele>365.0</ele><time>2026-03-29T14:19:04.818Z</time></trkpt><trkpt lat="45.7783667" lon="9.1711934"><ele>365.0</ele><time>2026-03-29T14:19:05.822Z</time></trkpt><trkpt lat="45.7782324" lon="9.1713251"><ele>365.0</ele><time>2026-03-29T14:19:06.824Z</time></trkpt><trkpt lat="45.7780872" lon="9.1714537"><ele>365.0</ele><time>2026-03-29T14:19:07.823Z</time></trkpt><trkpt lat="45.7779235" lon="9.1715928"><ele>365.0</ele><time>2026-03-29T14:19:08.829Z</time></trkpt><trkpt lat="45.7777798" lon="9.1717647"><ele>365.0</ele><time>2026-03-29T14:19:09.831Z</time></trkpt><trkpt lat="45.7776168" lon="9.1719203"><ele>365.0</ele><time>2026-03-29T14:19:10.822Z</time></trkpt><trkpt lat="45.7774446" lon="9.1720919"><ele>365.0</ele><time>2026-03-29T14:19:11.835Z</time></trkpt><trkpt lat="45.7772761" lon="9.17226"><ele>365.0</ele><time>2026-03-29T14:19:12.829Z</time></trkpt><trkpt lat="45.7771066" lon="9.1724069"><ele>364.33333333333337</ele><time>2026-03-29T14:19:13.822Z</time></trkpt><trkpt lat="45.7769627" lon="9.1725548"><ele>363.6666666666667</ele><time>2026-03-29T14:19:14.836Z</time></trkpt><trkpt lat="45.7768377" lon="9.1727078"><ele>363.0</ele><time>2026-03-29T14:19:15.827Z</time></trkpt><trkpt lat="45.7767154" lon="9.1728315"><ele>363.0</ele><time>2026-03-29T14:19:16.831Z</time></trkpt><trkpt lat="45.7766087" lon="9.1729495"><ele>363.0</ele><time>2026-03-29T14:19:17.835Z</time></trkpt><trkpt lat="45.7765291" lon="9.1730584"><ele>363.0</ele><time>2026-03-29T14:19:18.829Z</time></trkpt><trkpt lat="45.7764481" lon="9.1731419"><ele>363.0</ele><time>2026-03-29T14:19:19.83Z</time></trkpt><trkpt lat="45.7763434" lon="9.173174"><ele>362.79999999999995</ele><time>2026-03-29T14:19:20.83Z</time></trkpt><trkpt lat="45.7762514" lon="9.1732249"><ele>362.6</ele><time>2026-03-29T14:19:21.832Z</time></trkpt><trkpt lat="45.7761745" lon="9.1733185"><ele>362.4</ele><time>2026-03-29T14:19:22.83Z</time></trkpt><trkpt lat="45.7761049" lon="9.173451"><ele>362.20000000000005</ele><time>2026-03-29T14:19:23.825Z</time></trkpt><trkpt lat="45.7760209" lon="9.1735853"><ele>362.0</ele><time>2026-03-29T14:19:24.827Z</time></trkpt><trkpt lat="45.7759089" lon="9.1737096"><ele>362.0</ele><time>2026-03-29T14:19:25.831Z</time></trkpt><trkpt lat="45.7757723" lon="9.1738585"><ele>362.0</ele><time>2026-03-29T14:19:26.827Z</time></trkpt><trkpt lat="45.7756227" lon="9.1740383"><ele>362.0</ele><time>2026-03-29T14:19:27.827Z</time></trkpt><trkpt lat="45.7754547" lon="9.1742343"><ele>361.0</ele><time>2026-03-29T14:19:28.82Z</time></trkpt><trkpt lat="45.7752666" lon="9.1744541"><ele>360.0</ele><time>2026-03-29T14:19:29.837Z</time></trkpt><trkpt lat="45.7750855" lon="9.1746921"><ele>359.6666666666667</ele><time>2026-03-29T14:19:30.83Z</time></trkpt><trkpt lat="45.7749134" lon="9.1749092"><ele>359.33333333333337</ele><time>2026-03-29T14:19:31.827Z</time></trkpt><trkpt lat="45.7747548" lon="9.1751266"><ele>359.0</ele><time>2026-03-29T14:19:32.831Z</time></trkpt><trkpt lat="45.7746113" lon="9.1753352"><ele>359.0</ele><time>2026-03-29T14:19:33.824Z</time></trkpt><trkpt lat="45.7744787" lon="9.1755391"><ele>359.0</ele><time>2026-03-29T14:19:34.825Z</time></trkpt><trkpt lat="45.7743534" lon="9.1757199"><ele>359.0</ele><time>2026-03-29T14:19:35.828Z</time></trkpt><trkpt lat="45.7742211" lon="9.1758995"><ele>358.33333333333337</ele><time>2026-03-29T14:19:36.844Z</time></trkpt><trkpt lat="45.774108" lon="9.1760764"><ele>357.6666666666667</ele><time>2026-03-29T14:19:37.833Z</time></trkpt><trkpt lat="45.7739885" lon="9.1762465"><ele>357.0</ele><time>2026-03-29T14:19:38.844Z</time></trkpt><trkpt lat="45.7738752" lon="9.1764063"><ele>357.0</ele><time>2026-03-29T14:19:39.844Z</time></trkpt><trkpt lat="45.7737607" lon="9.1765761"><ele>357.0</ele><time>2026-03-29T14:19:40.842Z</time></trkpt><trkpt lat="45.7736507" lon="9.1767367"><ele>357.0</ele><time>2026-03-29T14:19:41.842Z</time></trkpt><trkpt lat="45.7735369" lon="9.1769091"><ele>357.0</ele><time>2026-03-29T14:19:42.844Z</time></trkpt><trkpt lat="45.7734213" lon="9.1770788"><ele>357.0</ele><time>2026-03-29T14:19:43.837Z</time></trkpt><trkpt lat="45.7733005" lon="9.177244"><ele>357.0</ele><time>2026-03-29T14:19:44.851Z</time></trkpt><trkpt lat="45.7731952" lon="9.1773874"><ele>357.25</ele><time>2026-03-29T14:19:45.846Z</time></trkpt><trkpt lat="45.7730879" lon="9.1775378"><ele>357.5</ele><time>2026-03-29T14:19:46.842Z</time></trkpt><trkpt lat="45.7729868" lon="9.1776874"><ele>357.75</ele><time>2026-03-29T14:19:47.84Z</time></trkpt><trkpt lat="45.7728818" lon="9.1778394"><ele>358.0</ele><time>2026-03-29T14:19:48.839Z</time></trkpt><trkpt lat="45.7727702" lon="9.1779933"><ele>358.0</ele><time>2026-03-29T14:19:49.836Z</time></trkpt><trkpt lat="45.7726659" lon="9.1781432"><ele>358.0</ele><time>2026-03-29T14:19:50.838Z</time></trkpt><trkpt lat="45.7725659" lon="9.1783112"><ele>358.0</ele><time>2026-03-29T14:19:51.837Z</time></trkpt><trkpt lat="45.77247" lon="9.178483"><ele>358.0</ele><time>2026-03-29T14:19:52.831Z</time></trkpt><trkpt lat="45.7723641" lon="9.178626"><ele>358.0</ele><time>2026-03-29T14:19:53.834Z</time></trkpt><trkpt lat="45.7722608" lon="9.178773"><ele>358.0</ele><time>2026-03-29T14:19:54.833Z</time></trkpt><trkpt lat="45.7721602" lon="9.1789247"><ele>358.0</ele><time>2026-03-29T14:19:55.833Z</time></trkpt><trkpt lat="45.7720695" lon="9.1790586"><ele>358.0</ele><time>2026-03-29T14:19:56.84Z</time></trkpt><trkpt lat="45.7719781" lon="9.1791808"><ele>358.0</ele><time>2026-03-29T14:19:57.837Z</time></trkpt><trkpt lat="45.7719035" lon="9.1793014"><ele>358.0</ele><time>2026-03-29T14:19:58.838Z</time></trkpt><trkpt lat="45.7718193" lon="9.1794116"><ele>358.0</ele><time>2026-03-29T14:19:59.837Z</time></trkpt><trkpt lat="45.7717368" lon="9.1795423"><ele>357.75</ele><time>2026-03-29T14:20:00.842Z</time></trkpt><trkpt lat="45.7716511" lon="9.1796631"><ele>357.5</ele><time>2026-03-29T14:20:01.84Z</time></trkpt><trkpt lat="45.7715669" lon="9.1797891"><ele>357.25</ele><time>2026-03-29T14:20:02.841Z</time></trkpt><trkpt lat="45.771491" lon="9.1799068"><ele>357.0</ele><time>2026-03-29T14:20:03.836Z</time></trkpt><trkpt lat="45.7714183" lon="9.180016"><ele>357.0</ele><time>2026-03-29T14:20:04.833Z</time></trkpt><trkpt lat="45.7713476" lon="9.1801191"><ele>357.0</ele><time>2026-03-29T14:20:05.841Z</time></trkpt><trkpt lat="45.7712728" lon="9.180219"><ele>357.0</ele><time>2026-03-29T14:20:06.837Z</time></trkpt><trkpt lat="45.7711969" lon="9.1803257"><ele>357.0</ele><time>2026-03-29T14:20:07.836Z</time></trkpt><trkpt lat="45.7711203" lon="9.1804432"><ele>357.0</ele><time>2026-03-29T14:20:08.843Z</time></trkpt><trkpt lat="45.7710446" lon="9.1805671"><ele>357.0</ele><time>2026-03-29T14:20:09.839Z</time></trkpt><trkpt lat="45.7709674" lon="9.1806911"><ele>357.0</ele><time>2026-03-29T14:20:10.831Z</time></trkpt><trkpt lat="45.7708956" lon="9.1808111"><ele>357.0</ele><time>2026-03-29T14:20:11.84Z</time></trkpt><trkpt lat="45.7708238" lon="9.1809267"><ele>357.0</ele><time>2026-03-29T14:20:12.834Z</time></trkpt><trkpt lat="45.7707463" lon="9.1810341"><ele>357.0</ele><time>2026-03-29T14:20:13.835Z</time></trkpt><trkpt lat="45.7706668" lon="9.1811309"><ele>357.0</ele><time>2026-03-29T14:20:14.833Z</time></trkpt><trkpt lat="45.7705881" lon="9.1812267"><ele>357.0</ele><time>2026-03-29T14:20:15.828Z</time></trkpt><trkpt lat="45.7705095" lon="9.1813216"><ele>357.0</ele><time>2026-03-29T14:20:16.832Z</time></trkpt><trkpt lat="45.7704319" lon="9.1814135"><ele>357.0</ele><time>2026-03-29T14:20:17.835Z</time></trkpt><trkpt lat="45.7703575" lon="9.1815054"><ele>357.0</ele><time>2026-03-29T14:20:18.837Z</time></trkpt><trkpt lat="45.7702852" lon="9.1815921"><ele>356.8333333333333</ele><time>2026-03-29T14:20:19.839Z</time></trkpt><trkpt lat="45.7702151" lon="9.1816801"><ele>356.6666666666667</ele><time>2026-03-29T14:20:20.842Z</time></trkpt><trkpt lat="45.7701491" lon="9.1817604"><ele>356.5</ele><time>2026-03-29T14:20:21.836Z</time></trkpt><trkpt lat="45.7700918" lon="9.1818359"><ele>356.33333333333337</ele><time>2026-03-29T14:20:22.837Z</time></trkpt><trkpt lat="45.7700443" lon="9.181899"><ele>356.1666666666667</ele><time>2026-03-29T14:20:23.841Z</time></trkpt><trkpt lat="45.7699818" lon="9.1819839"><ele>356.0</ele><time>2026-03-29T14:20:25.838Z</time></trkpt><trkpt lat="45.7699312" lon="9.1820482"><ele>356.0</ele><time>2026-03-29T14:20:27.847Z</time></trkpt><trkpt lat="45.7698613" lon="9.1821041"><ele>356.0</ele><time>2026-03-29T14:20:29.843Z</time></trkpt><trkpt lat="45.7697842" lon="9.1821611"><ele>356.0</ele><time>2026-03-29T14:20:31.849Z</time></trkpt><trkpt lat="45.7697047" lon="9.1822164"><ele>356.0</ele><time>2026-03-29T14:20:33.852Z</time></trkpt><trkpt lat="45.7696307" lon="9.1822706"><ele>356.0</ele><time>2026-03-29T14:20:35.843Z</time></trkpt><trkpt lat="45.7695275" lon="9.1823002"><ele>356.0</ele><time>2026-03-29T14:20:37.842Z</time></trkpt><trkpt lat="45.7694568" lon="9.1823998"><ele>356.0</ele><time>2026-03-29T14:20:39.835Z</time></trkpt><trkpt lat="45.7694579" lon="9.1825747"><ele>356.0</ele><time>2026-03-29T14:20:41.839Z</time></trkpt><trkpt lat="45.7694592" lon="9.1826955"><ele>356.0</ele><time>2026-03-29T14:20:42.843Z</time></trkpt><trkpt lat="45.7694462" lon="9.1828123"><ele>356.0</ele><time>2026-03-29T14:20:43.827Z</time></trkpt><trkpt lat="45.7694224" lon="9.1829526"><ele>356.0</ele><time>2026-03-29T14:20:44.842Z</time></trkpt><trkpt lat="45.7693847" lon="9.1831258"><ele>356.0</ele><time>2026-03-29T14:20:45.839Z</time></trkpt><trkpt lat="45.7693397" lon="9.1833161"><ele>356.0</ele><time>2026-03-29T14:20:46.833Z</time></trkpt><trkpt lat="45.7692881" lon="9.1835232"><ele>356.0</ele><time>2026-03-29T14:20:47.834Z</time></trkpt><trkpt lat="45.7692312" lon="9.1837517"><ele>356.0</ele><time>2026-03-29T14:20:48.836Z</time></trkpt><trkpt lat="45.7691711" lon="9.1839386"><ele>356.0</ele><time>2026-03-29T14:20:49.826Z</time></trkpt><trkpt lat="45.769124" lon="9.1841076"><ele>356.0</ele><time>2026-03-29T14:20:50.833Z</time></trkpt><trkpt lat="45.7690565" lon="9.1842557"><ele>356.0</ele><time>2026-03-29T14:20:51.821Z</time></trkpt><trkpt lat="45.7689952" lon="9.1844075"><ele>356.5</ele><time>2026-03-29T14:20:52.831Z</time></trkpt><trkpt lat="45.7689299" lon="9.1845484"><ele>357.0</ele><time>2026-03-29T14:20:53.858Z</time></trkpt><trkpt lat="45.7688549" lon="9.1846937"><ele>357.5</ele><time>2026-03-29T14:20:54.837Z</time></trkpt><trkpt lat="45.7687903" lon="9.1848365"><ele>358.0</ele><time>2026-03-29T14:20:55.829Z</time></trkpt><trkpt lat="45.7687195" lon="9.1849713"><ele>358.4</ele><time>2026-03-29T14:20:56.838Z</time></trkpt><trkpt lat="45.7686548" lon="9.1851005"><ele>358.79999999999995</ele><time>2026-03-29T14:20:57.83Z</time></trkpt><trkpt lat="45.7685902" lon="9.1852195"><ele>359.2</ele><time>2026-03-29T14:20:58.826Z</time></trkpt><trkpt lat="45.7685319" lon="9.1853306"><ele>359.6</ele><time>2026-03-29T14:20:59.834Z</time></trkpt><trkpt lat="45.7684719" lon="9.1854257"><ele>360.0</ele><time>2026-03-29T14:21:00.825Z</time></trkpt><trkpt lat="45.7684054" lon="9.1855105"><ele>360.2</ele><time>2026-03-29T14:21:01.834Z</time></trkpt><trkpt lat="45.7683315" lon="9.1855946"><ele>360.4</ele><time>2026-03-29T14:21:02.826Z</time></trkpt><trkpt lat="45.7682563" lon="9.1856985"><ele>360.6</ele><time>2026-03-29T14:21:03.824Z</time></trkpt><trkpt lat="45.768174" lon="9.1858106"><ele>360.8</ele><time>2026-03-29T14:21:04.856Z</time></trkpt><trkpt lat="45.7680835" lon="9.1859359"><ele>361.0</ele><time>2026-03-29T14:21:05.829Z</time></trkpt><trkpt lat="45.7679814" lon="9.1860783"><ele>360.25</ele><time>2026-03-29T14:21:06.837Z</time></trkpt><trkpt lat="45.7678854" lon="9.1862177"><ele>359.5</ele><time>2026-03-29T14:21:07.837Z</time></trkpt><trkpt lat="45.7678048" lon="9.1863498"><ele>358.75</ele><time>2026-03-29T14:21:08.861Z</time></trkpt><trkpt lat="45.7677177" lon="9.186471"><ele>358.0</ele><time>2026-03-29T14:21:09.847Z</time></trkpt><trkpt lat="45.7676338" lon="9.1866024"><ele>357.5</ele><time>2026-03-29T14:21:10.836Z</time></trkpt><trkpt lat="45.767559" lon="9.186724"><ele>357.0</ele><time>2026-03-29T14:21:11.84Z</time></trkpt><trkpt lat="45.7674682" lon="9.1868535"><ele>356.5</ele><time>2026-03-29T14:21:12.836Z</time></trkpt><trkpt lat="45.7673781" lon="9.186989"><ele>356.0</ele><time>2026-03-29T14:21:13.833Z</time></trkpt><trkpt lat="45.7673009" lon="9.1871454"><ele>356.0</ele><time>2026-03-29T14:21:14.835Z</time></trkpt><trkpt lat="45.7672336" lon="9.1873103"><ele>356.0</ele><time>2026-03-29T14:21:15.838Z</time></trkpt><trkpt lat="45.7671814" lon="9.1874881"><ele>356.0</ele><time>2026-03-29T14:21:16.827Z</time></trkpt><trkpt lat="45.767143" lon="9.1876791"><ele>356.0</ele><time>2026-03-29T14:21:17.838Z</time></trkpt><trkpt lat="45.7671447" lon="9.1878984"><ele>356.0</ele><time>2026-03-29T14:21:18.836Z</time></trkpt><trkpt lat="45.7671546" lon="9.1881005"><ele>356.0</ele><time>2026-03-29T14:21:19.824Z</time></trkpt><trkpt lat="45.7671739" lon="9.1883178"><ele>356.0</ele><time>2026-03-29T14:21:20.836Z</time></trkpt><trkpt lat="45.7671935" lon="9.1885227"><ele>356.0</ele><time>2026-03-29T14:21:21.826Z</time></trkpt><trkpt lat="45.7672157" lon="9.1886972"><ele>356.0</ele><time>2026-03-29T14:21:22.826Z</time></trkpt><trkpt lat="45.7672404" lon="9.1888764"><ele>356.0</ele><time>2026-03-29T14:21:23.833Z</time></trkpt><trkpt lat="45.7672619" lon="9.1890696"><ele>356.0</ele><time>2026-03-29T14:21:24.83Z</time></trkpt><trkpt lat="45.7672623" lon="9.1892805"><ele>356.0</ele><time>2026-03-29T14:21:25.827Z</time></trkpt><trkpt lat="45.767264" lon="9.1894878"><ele>355.0</ele><time>2026-03-29T14:21:26.83Z</time></trkpt><trkpt lat="45.767289" lon="9.189705"><ele>354.0</ele><time>2026-03-29T14:21:27.832Z</time></trkpt><trkpt lat="45.7673098" lon="9.1899157"><ele>353.0</ele><time>2026-03-29T14:21:28.825Z</time></trkpt><trkpt lat="45.767322" lon="9.1901146"><ele>352.0</ele><time>2026-03-29T14:21:29.845Z</time></trkpt><trkpt lat="45.7673434" lon="9.1902895"><ele>351.6</ele><time>2026-03-29T14:21:30.831Z</time></trkpt><trkpt lat="45.7673663" lon="9.1904596"><ele>351.20000000000005</ele><time>2026-03-29T14:21:31.844Z</time></trkpt><trkpt lat="45.7673997" lon="9.1906018"><ele>350.8</ele><time>2026-03-29T14:21:32.841Z</time></trkpt><trkpt lat="45.7674212" lon="9.1907466"><ele>350.4</ele><time>2026-03-29T14:21:33.835Z</time></trkpt><trkpt lat="45.7674302" lon="9.1908496"><ele>350.0</ele><time>2026-03-29T14:21:34.833Z</time></trkpt><trkpt lat="45.7674546" lon="9.1909996"><ele>349.85714285714283</ele><time>2026-03-29T14:21:36.836Z</time></trkpt><trkpt lat="45.7674783" lon="9.1911043"><ele>349.7142857142857</ele><time>2026-03-29T14:21:38.843Z</time></trkpt><trkpt lat="45.7674943" lon="9.1912232"><ele>349.57142857142856</ele><time>2026-03-29T14:21:40.838Z</time></trkpt><trkpt lat="45.7675066" lon="9.1913144"><ele>349.42857142857144</ele><time>2026-03-29T14:21:41.84Z</time></trkpt><trkpt lat="45.7675293" lon="9.1914094"><ele>349.2857142857143</ele><time>2026-03-29T14:21:42.838Z</time></trkpt><trkpt lat="45.7675757" lon="9.1914871"><ele>349.1428571428571</ele><time>2026-03-29T14:21:43.831Z</time></trkpt><trkpt lat="45.7676344" lon="9.1915617"><ele>349.0</ele><time>2026-03-29T14:21:44.837Z</time></trkpt><trkpt lat="45.7677009" lon="9.1916704"><ele>348.5</ele><time>2026-03-29T14:21:45.825Z</time></trkpt><trkpt lat="45.7677661" lon="9.1917997"><ele>348.0</ele><time>2026-03-29T14:21:46.828Z</time></trkpt><trkpt lat="45.7678295" lon="9.191949"><ele>347.5</ele><time>2026-03-29T14:21:47.831Z</time></trkpt><trkpt lat="45.7679028" lon="9.192138"><ele>347.0</ele><time>2026-03-29T14:21:48.823Z</time></trkpt><trkpt lat="45.7679673" lon="9.1923355"><ele>344.33333333333337</ele><time>2026-03-29T14:21:49.833Z</time></trkpt><trkpt lat="45.7680211" lon="9.1925993"><ele>341.6666666666667</ele><time>2026-03-29T14:21:50.831Z</time></trkpt><trkpt lat="45.7681023" lon="9.1928245"><ele>339.0</ele><time>2026-03-29T14:21:51.832Z</time></trkpt><trkpt lat="45.7681771" lon="9.1930446"><ele>337.6666666666667</ele><time>2026-03-29T14:21:52.823Z</time></trkpt><trkpt lat="45.7682535" lon="9.193272"><ele>336.33333333333337</ele><time>2026-03-29T14:21:53.831Z</time></trkpt><trkpt lat="45.7683378" lon="9.1934808"><ele>335.0</ele><time>2026-03-29T14:21:54.829Z</time></trkpt><trkpt lat="45.7684367" lon="9.1936814"><ele>335.0</ele><time>2026-03-29T14:21:55.832Z</time></trkpt><trkpt lat="45.768519" lon="9.1938984"><ele>335.0</ele><time>2026-03-29T14:21:56.833Z</time></trkpt><trkpt lat="45.7685872" lon="9.1941263"><ele>335.0</ele><time>2026-03-29T14:21:57.837Z</time></trkpt><trkpt lat="45.7686607" lon="9.1943399"><ele>332.6666666666667</ele><time>2026-03-29T14:21:58.823Z</time></trkpt><trkpt lat="45.7687523" lon="9.1945496"><ele>330.3333333333333</ele><time>2026-03-29T14:21:59.842Z</time></trkpt><trkpt lat="45.7688325" lon="9.1947422"><ele>328.0</ele><time>2026-03-29T14:22:00.834Z</time></trkpt><trkpt lat="45.7688947" lon="9.1949243"><ele>328.0</ele><time>2026-03-29T14:22:01.834Z</time></trkpt><trkpt lat="45.7689607" lon="9.1951108"><ele>328.0</ele><time>2026-03-29T14:22:02.838Z</time></trkpt><trkpt lat="45.7690321" lon="9.195275"><ele>328.0</ele><time>2026-03-29T14:22:03.835Z</time></trkpt><trkpt lat="45.7691016" lon="9.1954409"><ele>328.0</ele><time>2026-03-29T14:22:04.837Z</time></trkpt><trkpt lat="45.7691629" lon="9.1956159"><ele>327.5</ele><time>2026-03-29T14:22:05.834Z</time></trkpt><trkpt lat="45.7691858" lon="9.1958057"><ele>327.0</ele><time>2026-03-29T14:22:06.834Z</time></trkpt><trkpt lat="45.7691918" lon="9.1960146"><ele>326.5</ele><time>2026-03-29T14:22:07.832Z</time></trkpt><trkpt lat="45.769197" lon="9.1962323"><ele>326.0</ele><time>2026-03-29T14:22:08.84Z</time></trkpt><trkpt lat="45.7691677" lon="9.1964351"><ele>325.25</ele><time>2026-03-29T14:22:09.835Z</time></trkpt><trkpt lat="45.7691243" lon="9.1966432"><ele>324.5</ele><time>2026-03-29T14:22:10.831Z</time></trkpt><trkpt lat="45.7690741" lon="9.1968443"><ele>323.75</ele><time>2026-03-29T14:22:11.841Z</time></trkpt><trkpt lat="45.7690288" lon="9.1970424"><ele>323.0</ele><time>2026-03-29T14:22:12.836Z</time></trkpt><trkpt lat="45.7689872" lon="9.1972316"><ele>323.0</ele><time>2026-03-29T14:22:13.84Z</time></trkpt><trkpt lat="45.7689542" lon="9.1974264"><ele>323.0</ele><time>2026-03-29T14:22:14.84Z</time></trkpt><trkpt lat="45.7689164" lon="9.1976106"><ele>323.0</ele><time>2026-03-29T14:22:15.842Z</time></trkpt><trkpt lat="45.7688717" lon="9.1977772"><ele>323.0</ele><time>2026-03-29T14:22:16.841Z</time></trkpt><trkpt lat="45.7688284" lon="9.1979317"><ele>323.0</ele><time>2026-03-29T14:22:17.842Z</time></trkpt><trkpt lat="45.7687534" lon="9.1980831"><ele>323.0</ele><time>2026-03-29T14:22:18.845Z</time></trkpt><trkpt lat="45.7686819" lon="9.1982269"><ele>323.0</ele><time>2026-03-29T14:22:19.837Z</time></trkpt><trkpt lat="45.7686065" lon="9.1983591"><ele>323.0</ele><time>2026-03-29T14:22:20.838Z</time></trkpt><trkpt lat="45.7685222" lon="9.1984627"><ele>321.79999999999995</ele><time>2026-03-29T14:22:21.832Z</time></trkpt><trkpt lat="45.7684397" lon="9.1985428"><ele>320.59999999999997</ele><time>2026-03-29T14:22:22.841Z</time></trkpt><trkpt lat="45.7683519" lon="9.1985912"><ele>319.4</ele><time>2026-03-29T14:22:23.837Z</time></trkpt><trkpt lat="45.7682583" lon="9.1986196"><ele>318.2</ele><time>2026-03-29T14:22:24.84Z</time></trkpt><trkpt lat="45.768171" lon="9.1986489"><ele>317.0</ele><time>2026-03-29T14:22:25.83Z</time></trkpt><trkpt lat="45.7680995" lon="9.1986793"><ele>317.0</ele><time>2026-03-29T14:22:26.831Z</time></trkpt><trkpt lat="45.7680006" lon="9.1987304"><ele>317.0</ele><time>2026-03-29T14:22:28.837Z</time></trkpt><trkpt lat="45.7679419" lon="9.1987658"><ele>317.0</ele><time>2026-03-29T14:22:30.852Z</time></trkpt><trkpt lat="45.7678667" lon="9.1987903"><ele>317.0</ele><time>2026-03-29T14:22:33.851Z</time></trkpt><trkpt lat="45.7677781" lon="9.1988219"><ele>317.0</ele><time>2026-03-29T14:22:44.854Z</time></trkpt><trkpt lat="45.767719" lon="9.1988721"><ele>317.0</ele><time>2026-03-29T14:22:45.83Z</time></trkpt><trkpt lat="45.7676546" lon="9.1989552"><ele>316.83333333333337</ele><time>2026-03-29T14:22:46.834Z</time></trkpt><trkpt lat="45.7676041" lon="9.1990342"><ele>316.6666666666667</ele><time>2026-03-29T14:22:47.839Z</time></trkpt><trkpt lat="45.7675624" lon="9.1991115"><ele>316.5</ele><time>2026-03-29T14:22:48.841Z</time></trkpt><trkpt lat="45.767514" lon="9.1991838"><ele>316.3333333333333</ele><time>2026-03-29T14:22:49.828Z</time></trkpt><trkpt lat="45.7674562" lon="9.1992662"><ele>316.16666666666663</ele><time>2026-03-29T14:22:50.842Z</time></trkpt><trkpt lat="45.7674001" lon="9.199324"><ele>316.0</ele><time>2026-03-29T14:22:51.834Z</time></trkpt><trkpt lat="45.7673175" lon="9.1993991"><ele>316.0</ele><time>2026-03-29T14:22:53.833Z</time></trkpt><trkpt lat="45.7672488" lon="9.1994539"><ele>316.0</ele><time>2026-03-29T14:22:55.849Z</time></trkpt><trkpt lat="45.7671928" lon="9.199504"><ele>316.0</ele><time>2026-03-29T14:22:56.827Z</time></trkpt><trkpt lat="45.7671146" lon="9.1995676"><ele>316.0</ele><time>2026-03-29T14:22:57.837Z</time></trkpt><trkpt lat="45.7670301" lon="9.1996329"><ele>316.0</ele><time>2026-03-29T14:22:58.835Z</time></trkpt><trkpt lat="45.7669343" lon="9.1997016"><ele>316.0</ele><time>2026-03-29T14:22:59.829Z</time></trkpt><trkpt lat="45.7668266" lon="9.1997844"><ele>315.5</ele><time>2026-03-29T14:23:00.838Z</time></trkpt><trkpt lat="45.7667164" lon="9.1998688"><ele>315.0</ele><time>2026-03-29T14:23:01.833Z</time></trkpt><trkpt lat="45.7665995" lon="9.1999451"><ele>314.5</ele><time>2026-03-29T14:23:02.832Z</time></trkpt><trkpt lat="45.7664691" lon="9.2000182"><ele>314.0</ele><time>2026-03-29T14:23:03.839Z</time></trkpt><trkpt lat="45.7663305" lon="9.2000814"><ele>314.0</ele><time>2026-03-29T14:23:04.825Z</time></trkpt><trkpt lat="45.7661677" lon="9.2000968"><ele>314.0</ele><time>2026-03-29T14:23:05.83Z</time></trkpt><trkpt lat="45.7660157" lon="9.2001061"><ele>314.0</ele><time>2026-03-29T14:23:06.835Z</time></trkpt><trkpt lat="45.7658869" lon="9.2001201"><ele>314.0</ele><time>2026-03-29T14:23:07.824Z</time></trkpt><trkpt lat="45.7657647" lon="9.2001407"><ele>315.25</ele><time>2026-03-29T14:23:08.834Z</time></trkpt><trkpt lat="45.7656189" lon="9.2001558"><ele>316.5</ele><time>2026-03-29T14:23:09.836Z</time></trkpt><trkpt lat="45.7654811" lon="9.20017"><ele>317.75</ele><time>2026-03-29T14:23:10.846Z</time></trkpt><trkpt lat="45.7653652" lon="9.2001948"><ele>319.0</ele><time>2026-03-29T14:23:11.861Z</time></trkpt><trkpt lat="45.7652358" lon="9.2002269"><ele>319.75</ele><time>2026-03-29T14:23:12.847Z</time></trkpt><trkpt lat="45.765117" lon="9.2002477"><ele>320.5</ele><time>2026-03-29T14:23:13.831Z</time></trkpt><trkpt lat="45.7649963" lon="9.2002828"><ele>321.25</ele><time>2026-03-29T14:23:14.85Z</time></trkpt><trkpt lat="45.7648763" lon="9.2003257"><ele>322.0</ele><time>2026-03-29T14:23:15.842Z</time></trkpt><trkpt lat="45.7647513" lon="9.2004054"><ele>322.0</ele><time>2026-03-29T14:23:16.831Z</time></trkpt><trkpt lat="45.7646365" lon="9.2005339"><ele>322.0</ele><time>2026-03-29T14:23:17.837Z</time></trkpt><trkpt lat="45.7645441" lon="9.2007323"><ele>322.0</ele><time>2026-03-29T14:23:18.834Z</time></trkpt><trkpt lat="45.7644961" lon="9.2009438"><ele>320.66666666666663</ele><time>2026-03-29T14:23:19.829Z</time></trkpt><trkpt lat="45.7644588" lon="9.2011788"><ele>319.3333333333333</ele><time>2026-03-29T14:23:20.831Z</time></trkpt><trkpt lat="45.7644218" lon="9.2013886"><ele>318.0</ele><time>2026-03-29T14:23:21.837Z</time></trkpt><trkpt lat="45.7643838" lon="9.201601"><ele>318.5</ele><time>2026-03-29T14:23:22.825Z</time></trkpt><trkpt lat="45.7643361" lon="9.2017892"><ele>319.0</ele><time>2026-03-29T14:23:23.834Z</time></trkpt><trkpt lat="45.7642748" lon="9.2019622"><ele>319.5</ele><time>2026-03-29T14:23:24.832Z</time></trkpt><trkpt lat="45.7642148" lon="9.2021293"><ele>320.0</ele><time>2026-03-29T14:23:25.834Z</time></trkpt><trkpt lat="45.7641628" lon="9.2022726"><ele>319.0</ele><time>2026-03-29T14:23:26.843Z</time></trkpt><trkpt lat="45.764095" lon="9.2024152"><ele>318.0</ele><time>2026-03-29T14:23:27.828Z</time></trkpt><trkpt lat="45.7639928" lon="9.2025346"><ele>317.0</ele><time>2026-03-29T14:23:28.837Z</time></trkpt><trkpt lat="45.7639005" lon="9.2026506"><ele>316.0</ele><time>2026-03-29T14:23:29.835Z</time></trkpt><trkpt lat="45.7638008" lon="9.2027471"><ele>316.0</ele><time>2026-03-29T14:23:30.835Z</time></trkpt><trkpt lat="45.7637041" lon="9.2028181"><ele>316.0</ele><time>2026-03-29T14:23:31.84Z</time></trkpt><trkpt lat="45.7636092" lon="9.2028749"><ele>316.0</ele><time>2026-03-29T14:23:32.84Z</time></trkpt><trkpt lat="45.7635173" lon="9.2029073"><ele>316.0</ele><time>2026-03-29T14:23:33.843Z</time></trkpt><trkpt lat="45.7634315" lon="9.2029303"><ele>316.0</ele><time>2026-03-29T14:23:34.837Z</time></trkpt><trkpt lat="45.7633579" lon="9.2029363"><ele>315.40000000000003</ele><time>2026-03-29T14:23:35.832Z</time></trkpt><trkpt lat="45.7632922" lon="9.2029296"><ele>314.8</ele><time>2026-03-29T14:23:36.846Z</time></trkpt><trkpt lat="45.7631634" lon="9.2029204"><ele>314.20000000000005</ele><time>2026-03-29T14:23:38.842Z</time></trkpt><trkpt lat="45.7630856" lon="9.2029031"><ele>313.6</ele><time>2026-03-29T14:23:39.841Z</time></trkpt><trkpt lat="45.7629908" lon="9.2028955"><ele>313.0</ele><time>2026-03-29T14:23:40.832Z</time></trkpt><trkpt lat="45.7628799" lon="9.2029315"><ele>313.0</ele><time>2026-03-29T14:23:41.838Z</time></trkpt><trkpt lat="45.7627757" lon="9.2030406"><ele>313.0</ele><time>2026-03-29T14:23:42.84Z</time></trkpt><trkpt lat="45.7626806" lon="9.203209"><ele>313.0</ele><time>2026-03-29T14:23:43.834Z</time></trkpt><trkpt lat="45.7625776" lon="9.2034852"><ele>312.66666666666663</ele><time>2026-03-29T14:23:44.839Z</time></trkpt><trkpt lat="45.7624982" lon="9.2037458"><ele>312.3333333333333</ele><time>2026-03-29T14:23:45.844Z</time></trkpt><trkpt lat="45.762406" lon="9.203995"><ele>312.0</ele><time>2026-03-29T14:23:46.838Z</time></trkpt><trkpt lat="45.7622921" lon="9.2042405"><ele>312.0</ele><time>2026-03-29T14:23:47.841Z</time></trkpt><trkpt lat="45.7621725" lon="9.2044968"><ele>312.0</ele><time>2026-03-29T14:23:48.842Z</time></trkpt><trkpt lat="45.7620531" lon="9.2047485"><ele>312.0</ele><time>2026-03-29T14:23:49.84Z</time></trkpt><trkpt lat="45.761951" lon="9.2049826"><ele>311.6666666666667</ele><time>2026-03-29T14:23:50.836Z</time></trkpt><trkpt lat="45.7618505" lon="9.20521"><ele>311.33333333333337</ele><time>2026-03-29T14:23:51.843Z</time></trkpt><trkpt lat="45.7617289" lon="9.2054565"><ele>311.0</ele><time>2026-03-29T14:23:52.835Z</time></trkpt><trkpt lat="45.7616119" lon="9.2057095"><ele>311.0</ele><time>2026-03-29T14:23:53.847Z</time></trkpt><trkpt lat="45.7614986" lon="9.2059485"><ele>311.0</ele><time>2026-03-29T14:23:54.832Z</time></trkpt><trkpt lat="45.7613808" lon="9.206184"><ele>311.0</ele><time>2026-03-29T14:23:55.839Z</time></trkpt><trkpt lat="45.7612748" lon="9.2064306"><ele>311.33333333333337</ele><time>2026-03-29T14:23:56.844Z</time></trkpt><trkpt lat="45.7611743" lon="9.2066638"><ele>311.6666666666667</ele><time>2026-03-29T14:23:57.841Z</time></trkpt><trkpt lat="45.7610653" lon="9.2068764"><ele>312.0</ele><time>2026-03-29T14:23:58.834Z</time></trkpt><trkpt lat="45.7609415" lon="9.2071153"><ele>311.6666666666667</ele><time>2026-03-29T14:23:59.839Z</time></trkpt><trkpt lat="45.7608115" lon="9.2073283"><ele>311.33333333333337</ele><time>2026-03-29T14:24:00.835Z</time></trkpt><trkpt lat="45.7606511" lon="9.2075209"><ele>311.0</ele><time>2026-03-29T14:24:01.832Z</time></trkpt><trkpt lat="45.760484" lon="9.2077018"><ele>311.0</ele><time>2026-03-29T14:24:02.839Z</time></trkpt><trkpt lat="45.7603278" lon="9.2078757"><ele>311.0</ele><time>2026-03-29T14:24:03.847Z</time></trkpt><trkpt lat="45.7601715" lon="9.2080156"><ele>311.0</ele><time>2026-03-29T14:24:04.842Z</time></trkpt><trkpt lat="45.7600206" lon="9.2081553"><ele>309.6666666666667</ele><time>2026-03-29T14:24:05.844Z</time></trkpt><trkpt lat="45.7598826" lon="9.2083049"><ele>308.3333333333333</ele><time>2026-03-29T14:24:06.839Z</time></trkpt><trkpt lat="45.7597516" lon="9.2084337"><ele>307.0</ele><time>2026-03-29T14:24:07.84Z</time></trkpt><trkpt lat="45.7596338" lon="9.2085655"><ele>307.0</ele><time>2026-03-29T14:24:08.841Z</time></trkpt><trkpt lat="45.7595024" lon="9.2086988"><ele>307.0</ele><time>2026-03-29T14:24:09.839Z</time></trkpt><trkpt lat="45.7593853" lon="9.2088141"><ele>307.0</ele><time>2026-03-29T14:24:10.84Z</time></trkpt><trkpt lat="45.7592702" lon="9.2089272"><ele>307.0</ele><time>2026-03-29T14:24:11.836Z</time></trkpt><trkpt lat="45.7591789" lon="9.209035"><ele>306.5</ele><time>2026-03-29T14:24:12.844Z</time></trkpt><trkpt lat="45.7590782" lon="9.2091306"><ele>306.0</ele><time>2026-03-29T14:24:13.842Z</time></trkpt><trkpt lat="45.7589645" lon="9.2092045"><ele>305.5</ele><time>2026-03-29T14:24:14.84Z</time></trkpt><trkpt lat="45.7588601" lon="9.2092746"><ele>305.0</ele><time>2026-03-29T14:24:15.85Z</time></trkpt><trkpt lat="45.758759" lon="9.2093308"><ele>305.0</ele><time>2026-03-29T14:24:16.838Z</time></trkpt><trkpt lat="45.7586719" lon="9.2093867"><ele>305.0</ele><time>2026-03-29T14:24:17.85Z</time></trkpt><trkpt lat="45.7585965" lon="9.209438"><ele>305.0</ele><time>2026-03-29T14:24:18.85Z</time></trkpt><trkpt lat="45.7585158" lon="9.2094731"><ele>305.0</ele><time>2026-03-29T14:24:19.84Z</time></trkpt><trkpt lat="45.7584334" lon="9.2095007"><ele>305.0</ele><time>2026-03-29T14:24:20.852Z</time></trkpt><trkpt lat="45.7583432" lon="9.2095251"><ele>305.0</ele><time>2026-03-29T14:24:21.843Z</time></trkpt><trkpt lat="45.7582496" lon="9.2095683"><ele>305.2</ele><time>2026-03-29T14:24:22.835Z</time></trkpt><trkpt lat="45.7581642" lon="9.2096396"><ele>305.4</ele><time>2026-03-29T14:24:23.835Z</time></trkpt><trkpt lat="45.7581032" lon="9.2097396"><ele>305.6</ele><time>2026-03-29T14:24:24.843Z</time></trkpt><trkpt lat="45.7580815" lon="9.2098698"><ele>305.8</ele><time>2026-03-29T14:24:25.829Z</time></trkpt><trkpt lat="45.758084" lon="9.2100215"><ele>306.0</ele><time>2026-03-29T14:24:26.842Z</time></trkpt><trkpt lat="45.7581084" lon="9.2101767"><ele>306.25</ele><time>2026-03-29T14:24:27.84Z</time></trkpt><trkpt lat="45.758124" lon="9.2103441"><ele>306.5</ele><time>2026-03-29T14:24:28.83Z</time></trkpt><trkpt lat="45.7581178" lon="9.2105219"><ele>306.75</ele><time>2026-03-29T14:24:29.851Z</time></trkpt><trkpt lat="45.7580806" lon="9.2107173"><ele>307.0</ele><time>2026-03-29T14:24:30.839Z</time></trkpt><trkpt lat="45.7580414" lon="9.2109446"><ele>307.0</ele><time>2026-03-29T14:24:31.834Z</time></trkpt><trkpt lat="45.7580291" lon="9.2112523"><ele>307.0</ele><time>2026-03-29T14:24:32.834Z</time></trkpt><trkpt lat="45.7580481" lon="9.2115258"><ele>307.0</ele><time>2026-03-29T14:24:33.829Z</time></trkpt><trkpt lat="45.7580877" lon="9.2117996"><ele>307.3333333333333</ele><time>2026-03-29T14:24:34.83Z</time></trkpt><trkpt lat="45.7581401" lon="9.212076"><ele>307.6666666666667</ele><time>2026-03-29T14:24:35.833Z</time></trkpt><trkpt lat="45.75821" lon="9.2123715"><ele>308.0</ele><time>2026-03-29T14:24:36.832Z</time></trkpt><trkpt lat="45.7582828" lon="9.2126421"><ele>309.6666666666667</ele><time>2026-03-29T14:24:37.832Z</time></trkpt><trkpt lat="45.7583647" lon="9.2129303"><ele>311.3333333333333</ele><time>2026-03-29T14:24:38.831Z</time></trkpt><trkpt lat="45.758436" lon="9.2132167"><ele>313.0</ele><time>2026-03-29T14:24:39.827Z</time></trkpt><trkpt lat="45.7585207" lon="9.2135002"><ele>311.3333333333333</ele><time>2026-03-29T14:24:40.825Z</time></trkpt><trkpt lat="45.7586097" lon="9.2137753"><ele>309.6666666666667</ele><time>2026-03-29T14:24:41.824Z</time></trkpt><trkpt lat="45.7586748" lon="9.2140314"><ele>308.0</ele><time>2026-03-29T14:24:42.831Z</time></trkpt><trkpt lat="45.7587471" lon="9.2142648"><ele>308.0</ele><time>2026-03-29T14:24:43.831Z</time></trkpt><trkpt lat="45.7588073" lon="9.2145105"><ele>308.0</ele><time>2026-03-29T14:24:44.841Z</time></trkpt><trkpt lat="45.7588812" lon="9.214753"><ele>308.0</ele><time>2026-03-29T14:24:45.838Z</time></trkpt><trkpt lat="45.7589473" lon="9.2150167"><ele>310.0</ele><time>2026-03-29T14:24:46.834Z</time></trkpt><trkpt lat="45.7590152" lon="9.2152615"><ele>312.0</ele><time>2026-03-29T14:24:47.838Z</time></trkpt><trkpt lat="45.7590794" lon="9.215487"><ele>314.0</ele><time>2026-03-29T14:24:48.836Z</time></trkpt><trkpt lat="45.7591508" lon="9.2157152"><ele>317.33333333333337</ele><time>2026-03-29T14:24:49.833Z</time></trkpt><trkpt lat="45.7592152" lon="9.2159461"><ele>320.6666666666667</ele><time>2026-03-29T14:24:50.835Z</time></trkpt><trkpt lat="45.759263" lon="9.2161474"><ele>324.0</ele><time>2026-03-29T14:24:51.84Z</time></trkpt><trkpt lat="45.7593136" lon="9.2163368"><ele>323.5</ele><time>2026-03-29T14:24:52.831Z</time></trkpt><trkpt lat="45.7593427" lon="9.2165351"><ele>323.0</ele><time>2026-03-29T14:24:53.838Z</time></trkpt><trkpt lat="45.7593637" lon="9.2167554"><ele>322.5</ele><time>2026-03-29T14:24:54.832Z</time></trkpt><trkpt lat="45.7593745" lon="9.2169713"><ele>322.0</ele><time>2026-03-29T14:24:55.828Z</time></trkpt><trkpt lat="45.7593764" lon="9.2172148"><ele>326.0</ele><time>2026-03-29T14:24:56.839Z</time></trkpt><trkpt lat="45.7593589" lon="9.2174633"><ele>330.0</ele><time>2026-03-29T14:24:57.839Z</time></trkpt><trkpt lat="45.7593412" lon="9.2177355"><ele>334.0</ele><time>2026-03-29T14:24:58.825Z</time></trkpt><trkpt lat="45.7593284" lon="9.2180035"><ele>335.0</ele><time>2026-03-29T14:24:59.844Z</time></trkpt><trkpt lat="45.7593118" lon="9.2183346"><ele>336.0</ele><time>2026-03-29T14:25:00.836Z</time></trkpt><trkpt lat="45.7592706" lon="9.2186376"><ele>337.0</ele><time>2026-03-29T14:25:01.837Z</time></trkpt><trkpt lat="45.759245" lon="9.2189161"><ele>338.0</ele><time>2026-03-29T14:25:02.839Z</time></trkpt><trkpt lat="45.7592315" lon="9.2191874"><ele>339.0</ele><time>2026-03-29T14:25:03.831Z</time></trkpt><trkpt lat="45.7592187" lon="9.2194697"><ele>340.0</ele><time>2026-03-29T14:25:04.84Z</time></trkpt><trkpt lat="45.7592003" lon="9.219714"><ele>339.3333333333333</ele><time>2026-03-29T14:25:05.833Z</time></trkpt><trkpt lat="45.7591784" lon="9.2199797"><ele>338.6666666666667</ele><time>2026-03-29T14:25:06.831Z</time></trkpt><trkpt lat="45.7591264" lon="9.2202217"><ele>338.0</ele><time>2026-03-29T14:25:07.829Z</time></trkpt><trkpt lat="45.7590269" lon="9.2204132"><ele>338.0</ele><time>2026-03-29T14:25:08.833Z</time></trkpt><trkpt lat="45.7589307" lon="9.2205952"><ele>338.0</ele><time>2026-03-29T14:25:09.828Z</time></trkpt><trkpt lat="45.75884" lon="9.2208023"><ele>338.0</ele><time>2026-03-29T14:25:10.84Z</time></trkpt><trkpt lat="45.7587361" lon="9.2210173"><ele>337.33333333333337</ele><time>2026-03-29T14:25:11.826Z</time></trkpt><trkpt lat="45.7586402" lon="9.2212272"><ele>336.6666666666667</ele><time>2026-03-29T14:25:12.835Z</time></trkpt><trkpt lat="45.7585447" lon="9.2214304"><ele>336.0</ele><time>2026-03-29T14:25:13.834Z</time></trkpt><trkpt lat="45.7584499" lon="9.2216263"><ele>335.6666666666667</ele><time>2026-03-29T14:25:14.843Z</time></trkpt><trkpt lat="45.758362" lon="9.2218208"><ele>335.33333333333337</ele><time>2026-03-29T14:25:15.83Z</time></trkpt><trkpt lat="45.7582756" lon="9.2220245"><ele>335.0</ele><time>2026-03-29T14:25:16.841Z</time></trkpt><trkpt lat="45.758194" lon="9.2222501"><ele>334.0</ele><time>2026-03-29T14:25:17.857Z</time></trkpt><trkpt lat="45.7581256" lon="9.2224757"><ele>333.0</ele><time>2026-03-29T14:25:18.843Z</time></trkpt><trkpt lat="45.75806" lon="9.2227299"><ele>332.0</ele><time>2026-03-29T14:25:19.846Z</time></trkpt><trkpt lat="45.7580019" lon="9.2229788"><ele>330.0</ele><time>2026-03-29T14:25:20.834Z</time></trkpt><trkpt lat="45.7579499" lon="9.2232097"><ele>328.0</ele><time>2026-03-29T14:25:21.836Z</time></trkpt><trkpt lat="45.7579111" lon="9.2234466"><ele>326.0</ele><time>2026-03-29T14:25:22.838Z</time></trkpt><trkpt lat="45.7578778" lon="9.2236774"><ele>326.0</ele><time>2026-03-29T14:25:23.837Z</time></trkpt><trkpt lat="45.7578635" lon="9.2239123"><ele>326.0</ele><time>2026-03-29T14:25:24.835Z</time></trkpt><trkpt lat="45.7578715" lon="9.2241792"><ele>326.0</ele><time>2026-03-29T14:25:25.84Z</time></trkpt><trkpt lat="45.7578893" lon="9.224457"><ele>325.0</ele><time>2026-03-29T14:25:26.836Z</time></trkpt><trkpt lat="45.7578985" lon="9.2247098"><ele>324.0</ele><time>2026-03-29T14:25:27.84Z</time></trkpt><trkpt lat="45.7578893" lon="9.2249335"><ele>323.0</ele><time>2026-03-29T14:25:28.832Z</time></trkpt><trkpt lat="45.7578441" lon="9.2251664"><ele>323.0</ele><time>2026-03-29T14:25:29.839Z</time></trkpt><trkpt lat="45.7577966" lon="9.2253531"><ele>323.0</ele><time>2026-03-29T14:25:30.821Z</time></trkpt><trkpt lat="45.7577319" lon="9.2255413"><ele>323.0</ele><time>2026-03-29T14:25:31.826Z</time></trkpt><trkpt lat="45.7576867" lon="9.2257658"><ele>323.0</ele><time>2026-03-29T14:25:32.812Z</time></trkpt><trkpt lat="45.7577034" lon="9.2259863"><ele>323.6666666666667</ele><time>2026-03-29T14:25:33.809Z</time></trkpt><trkpt lat="45.7575591" lon="9.2261999"><ele>324.3333333333333</ele><time>2026-03-29T14:25:34.808Z</time></trkpt><trkpt lat="45.757391" lon="9.2263616"><ele>325.0</ele><time>2026-03-29T14:25:35.827Z</time></trkpt><trkpt lat="45.7572142" lon="9.2265208"><ele>325.0</ele><time>2026-03-29T14:25:36.821Z</time></trkpt><trkpt lat="45.7570767" lon="9.2266845"><ele>325.0</ele><time>2026-03-29T14:25:37.822Z</time></trkpt><trkpt lat="45.7569647" lon="9.2269041"><ele>325.0</ele><time>2026-03-29T14:25:38.832Z</time></trkpt><trkpt lat="45.7568653" lon="9.2271293"><ele>326.66666666666663</ele><time>2026-03-29T14:25:39.825Z</time></trkpt><trkpt lat="45.7567895" lon="9.2273674"><ele>328.3333333333333</ele><time>2026-03-29T14:25:40.832Z</time></trkpt><trkpt lat="45.7567414" lon="9.2276003"><ele>330.0</ele><time>2026-03-29T14:25:41.83Z</time></trkpt><trkpt lat="45.7567068" lon="9.2278228"><ele>330.0</ele><time>2026-03-29T14:25:42.833Z</time></trkpt><trkpt lat="45.7566833" lon="9.2280551"><ele>330.0</ele><time>2026-03-29T14:25:43.838Z</time></trkpt><trkpt lat="45.7566714" lon="9.2282849"><ele>330.0</ele><time>2026-03-29T14:25:44.841Z</time></trkpt><trkpt lat="45.7566749" lon="9.228516"><ele>329.6666666666667</ele><time>2026-03-29T14:25:45.837Z</time></trkpt><trkpt lat="45.7566903" lon="9.2287442"><ele>329.33333333333337</ele><time>2026-03-29T14:25:46.832Z</time></trkpt><trkpt lat="45.7567021" lon="9.2289848"><ele>329.0</ele><time>2026-03-29T14:25:47.839Z</time></trkpt><trkpt lat="45.7567178" lon="9.2292204"><ele>328.25</ele><time>2026-03-29T14:25:48.838Z</time></trkpt><trkpt lat="45.7567216" lon="9.2294298"><ele>327.5</ele><time>2026-03-29T14:25:49.843Z</time></trkpt><trkpt lat="45.75673" lon="9.2296196"><ele>326.75</ele><time>2026-03-29T14:25:50.839Z</time></trkpt><trkpt lat="45.7567365" lon="9.2298076"><ele>326.0</ele><time>2026-03-29T14:25:51.84Z</time></trkpt><trkpt lat="45.7567405" lon="9.229984"><ele>326.0</ele><time>2026-03-29T14:25:52.835Z</time></trkpt><trkpt lat="45.7567357" lon="9.2301667"><ele>326.0</ele><time>2026-03-29T14:25:53.848Z</time></trkpt><trkpt lat="45.756738" lon="9.2303613"><ele>326.0</ele><time>2026-03-29T14:25:54.834Z</time></trkpt><trkpt lat="45.7567373" lon="9.2305528"><ele>326.0</ele><time>2026-03-29T14:25:55.844Z</time></trkpt><trkpt lat="45.7567372" lon="9.230753"><ele>325.6666666666667</ele><time>2026-03-29T14:25:56.84Z</time></trkpt><trkpt lat="45.7567386" lon="9.2309919"><ele>325.3333333333333</ele><time>2026-03-29T14:25:57.834Z</time></trkpt><trkpt lat="45.7567576" lon="9.2312385"><ele>325.0</ele><time>2026-03-29T14:25:58.838Z</time></trkpt><trkpt lat="45.7567739" lon="9.2315109"><ele>324.3333333333333</ele><time>2026-03-29T14:25:59.848Z</time></trkpt><trkpt lat="45.756781" lon="9.2317581"><ele>323.6666666666667</ele><time>2026-03-29T14:26:00.838Z</time></trkpt><trkpt lat="45.75679" lon="9.2319951"><ele>323.0</ele><time>2026-03-29T14:26:01.856Z</time></trkpt><trkpt lat="45.7567973" lon="9.2322241"><ele>322.0</ele><time>2026-03-29T14:26:02.844Z</time></trkpt><trkpt lat="45.7568058" lon="9.2324529"><ele>321.0</ele><time>2026-03-29T14:26:03.84Z</time></trkpt><trkpt lat="45.7568266" lon="9.2327068"><ele>320.0</ele><time>2026-03-29T14:26:04.844Z</time></trkpt><trkpt lat="45.7568421" lon="9.2329708"><ele>319.6666666666667</ele><time>2026-03-29T14:26:05.843Z</time></trkpt><trkpt lat="45.7568601" lon="9.2332217"><ele>319.3333333333333</ele><time>2026-03-29T14:26:06.843Z</time></trkpt><trkpt lat="45.7568729" lon="9.2334363"><ele>319.0</ele><time>2026-03-29T14:26:07.84Z</time></trkpt><trkpt lat="45.7568866" lon="9.2336258"><ele>318.5</ele><time>2026-03-29T14:26:08.842Z</time></trkpt><trkpt lat="45.7568939" lon="9.2338104"><ele>318.0</ele><time>2026-03-29T14:26:09.831Z</time></trkpt><trkpt lat="45.7569298" lon="9.2339976"><ele>317.5</ele><time>2026-03-29T14:26:10.838Z</time></trkpt><trkpt lat="45.7570012" lon="9.2341719"><ele>317.0</ele><time>2026-03-29T14:26:11.832Z</time></trkpt><trkpt lat="45.7571158" lon="9.2343788"><ele>316.6666666666667</ele><time>2026-03-29T14:26:12.831Z</time></trkpt><trkpt lat="45.757238" lon="9.2346042"><ele>316.3333333333333</ele><time>2026-03-29T14:26:13.835Z</time></trkpt><trkpt lat="45.757348" lon="9.2348472"><ele>316.0</ele><time>2026-03-29T14:26:14.844Z</time></trkpt><trkpt lat="45.7574228" lon="9.2350469"><ele>314.3333333333333</ele><time>2026-03-29T14:26:15.823Z</time></trkpt><trkpt lat="45.7575108" lon="9.2352612"><ele>312.6666666666667</ele><time>2026-03-29T14:26:16.835Z</time></trkpt><trkpt lat="45.7576049" lon="9.2354458"><ele>311.0</ele><time>2026-03-29T14:26:17.833Z</time></trkpt><trkpt lat="45.7576858" lon="9.2356137"><ele>311.25</ele><time>2026-03-29T14:26:18.829Z</time></trkpt><trkpt lat="45.7577626" lon="9.2357763"><ele>311.5</ele><time>2026-03-29T14:26:19.84Z</time></trkpt><trkpt lat="45.7578302" lon="9.23593"><ele>311.75</ele><time>2026-03-29T14:26:20.846Z</time></trkpt><trkpt lat="45.7578968" lon="9.2361013"><ele>312.0</ele><time>2026-03-29T14:26:21.832Z</time></trkpt><trkpt lat="45.7579643" lon="9.2362624"><ele>312.0</ele><time>2026-03-29T14:26:22.859Z</time></trkpt><trkpt lat="45.7580197" lon="9.2364266"><ele>312.0</ele><time>2026-03-29T14:26:23.842Z</time></trkpt><trkpt lat="45.7580711" lon="9.2366011"><ele>312.0</ele><time>2026-03-29T14:26:24.83Z</time></trkpt><trkpt lat="45.7581046" lon="9.2368016"><ele>312.0</ele><time>2026-03-29T14:26:25.839Z</time></trkpt><trkpt lat="45.7581148" lon="9.2369792"><ele>311.6</ele><time>2026-03-29T14:26:26.835Z</time></trkpt><trkpt lat="45.7581061" lon="9.2371333"><ele>311.2</ele><time>2026-03-29T14:26:27.842Z</time></trkpt><trkpt lat="45.7580924" lon="9.2372478"><ele>310.8</ele><time>2026-03-29T14:26:28.836Z</time></trkpt><trkpt lat="45.758083" lon="9.2373405"><ele>310.4</ele><time>2026-03-29T14:26:29.841Z</time></trkpt><trkpt lat="45.7580406" lon="9.2374918"><ele>310.0</ele><time>2026-03-29T14:26:31.837Z</time></trkpt><trkpt lat="45.7579837" lon="9.237613"><ele>310.2</ele><time>2026-03-29T14:26:33.827Z</time></trkpt><trkpt lat="45.7579191" lon="9.2377418"><ele>310.4</ele><time>2026-03-29T14:26:35.833Z</time></trkpt><trkpt lat="45.7578384" lon="9.2378705"><ele>310.6</ele><time>2026-03-29T14:26:37.833Z</time></trkpt><trkpt lat="45.7577853" lon="9.2379348"><ele>310.8</ele><time>2026-03-29T14:26:38.836Z</time></trkpt><trkpt lat="45.7577198" lon="9.2379953"><ele>311.0</ele><time>2026-03-29T14:26:39.833Z</time></trkpt><trkpt lat="45.757647" lon="9.2380575"><ele>311.0</ele><time>2026-03-29T14:26:40.836Z</time></trkpt><trkpt lat="45.7575724" lon="9.2381343"><ele>311.0</ele><time>2026-03-29T14:26:41.845Z</time></trkpt><trkpt lat="45.7574899" lon="9.2382116"><ele>311.0</ele><time>2026-03-29T14:26:42.83Z</time></trkpt><trkpt lat="45.7574049" lon="9.2382838"><ele>311.0</ele><time>2026-03-29T14:26:43.839Z</time></trkpt><trkpt lat="45.7573289" lon="9.2383559"><ele>311.0</ele><time>2026-03-29T14:26:44.843Z</time></trkpt><trkpt lat="45.7572712" lon="9.2384074"><ele>311.0</ele><time>2026-03-29T14:26:45.826Z</time></trkpt><trkpt lat="45.7571811" lon="9.2384742"><ele>310.0</ele><time>2026-03-29T14:26:47.83Z</time></trkpt><trkpt lat="45.7571167" lon="9.2385363"><ele>309.0</ele><time>2026-03-29T14:26:50.849Z</time></trkpt><trkpt lat="45.7570437" lon="9.2386087"><ele>308.0</ele><time>2026-03-29T14:26:58.835Z</time></trkpt><trkpt lat="45.7569636" lon="9.2386682"><ele>307.0</ele><time>2026-03-29T14:27:00.872Z</time></trkpt><trkpt lat="45.756879" lon="9.2387425"><ele>306.0</ele><time>2026-03-29T14:27:02.855Z</time></trkpt><trkpt lat="45.7567954" lon="9.2388162"><ele>306.0</ele><time>2026-03-29T14:27:04.836Z</time></trkpt><trkpt lat="45.7567343" lon="9.2388652"><ele>306.0</ele><time>2026-03-29T14:27:05.84Z</time></trkpt><trkpt lat="45.7566593" lon="9.2389258"><ele>306.0</ele><time>2026-03-29T14:27:06.838Z</time></trkpt><trkpt lat="45.75658" lon="9.2390096"><ele>306.0</ele><time>2026-03-29T14:27:07.829Z</time></trkpt><trkpt lat="45.7564888" lon="9.2391124"><ele>306.0</ele><time>2026-03-29T14:27:08.84Z</time></trkpt><trkpt lat="45.7563852" lon="9.2392062"><ele>303.75</ele><time>2026-03-29T14:27:09.829Z</time></trkpt><trkpt lat="45.7562862" lon="9.2392908"><ele>301.5</ele><time>2026-03-29T14:27:10.839Z</time></trkpt><trkpt lat="45.7561862" lon="9.2393679"><ele>299.25</ele><time>2026-03-29T14:27:11.836Z</time></trkpt><trkpt lat="45.756083" lon="9.2394641"><ele>297.0</ele><time>2026-03-29T14:27:12.836Z</time></trkpt><trkpt lat="45.7559766" lon="9.239565"><ele>297.0</ele><time>2026-03-29T14:27:13.834Z</time></trkpt><trkpt lat="45.7558779" lon="9.2396622"><ele>297.0</ele><time>2026-03-29T14:27:14.84Z</time></trkpt><trkpt lat="45.7557818" lon="9.2397597"><ele>297.0</ele><time>2026-03-29T14:27:15.832Z</time></trkpt><trkpt lat="45.7556901" lon="9.239871"><ele>297.0</ele><time>2026-03-29T14:27:16.837Z</time></trkpt><trkpt lat="45.7556031" lon="9.2399782"><ele>296.0</ele><time>2026-03-29T14:27:17.827Z</time></trkpt><trkpt lat="45.7555173" lon="9.24008"><ele>295.0</ele><time>2026-03-29T14:27:18.833Z</time></trkpt><trkpt lat="45.7554274" lon="9.2401877"><ele>294.0</ele><time>2026-03-29T14:27:19.835Z</time></trkpt><trkpt lat="45.7553308" lon="9.2402991"><ele>293.0</ele><time>2026-03-29T14:27:20.835Z</time></trkpt><trkpt lat="45.7552287" lon="9.2404147"><ele>292.0</ele><time>2026-03-29T14:27:21.83Z</time></trkpt><trkpt lat="45.7551238" lon="9.240539"><ele>291.0</ele><time>2026-03-29T14:27:22.832Z</time></trkpt><trkpt lat="45.7550145" lon="9.2406774"><ele>290.0</ele><time>2026-03-29T14:27:23.853Z</time></trkpt><trkpt lat="45.7548908" lon="9.2408353"><ele>289.0</ele><time>2026-03-29T14:27:24.832Z</time></trkpt><trkpt lat="45.754776" lon="9.2409725"><ele>289.0</ele><time>2026-03-29T14:27:25.829Z</time></trkpt><trkpt lat="45.7546768" lon="9.2410954"><ele>289.0</ele><time>2026-03-29T14:27:26.835Z</time></trkpt><trkpt lat="45.7545764" lon="9.2412343"><ele>289.0</ele><time>2026-03-29T14:27:27.838Z</time></trkpt><trkpt lat="45.7544708" lon="9.2413753"><ele>289.0</ele><time>2026-03-29T14:27:28.828Z</time></trkpt><trkpt lat="45.7543635" lon="9.2414911"><ele>287.75</ele><time>2026-03-29T14:27:29.84Z</time></trkpt><trkpt lat="45.7542622" lon="9.2416126"><ele>286.5</ele><time>2026-03-29T14:27:30.829Z</time></trkpt><trkpt lat="45.7541558" lon="9.2417449"><ele>285.25</ele><time>2026-03-29T14:27:31.836Z</time></trkpt><trkpt lat="45.7540447" lon="9.2418611"><ele>284.0</ele><time>2026-03-29T14:27:32.834Z</time></trkpt><trkpt lat="45.7539366" lon="9.2419847"><ele>284.0</ele><time>2026-03-29T14:27:33.832Z</time></trkpt><trkpt lat="45.7538257" lon="9.2421189"><ele>284.0</ele><time>2026-03-29T14:27:34.836Z</time></trkpt><trkpt lat="45.7537117" lon="9.2422528"><ele>284.0</ele><time>2026-03-29T14:27:35.848Z</time></trkpt><trkpt lat="45.7535925" lon="9.2423827"><ele>284.0</ele><time>2026-03-29T14:27:36.834Z</time></trkpt><trkpt lat="45.7534813" lon="9.2425013"><ele>280.6666666666667</ele><time>2026-03-29T14:27:37.837Z</time></trkpt><trkpt lat="45.7533623" lon="9.2426431"><ele>277.3333333333333</ele><time>2026-03-29T14:27:38.844Z</time></trkpt><trkpt lat="45.7532432" lon="9.2427848"><ele>274.0</ele><time>2026-03-29T14:27:39.835Z</time></trkpt><trkpt lat="45.7531021" lon="9.2429482"><ele>272.3333333333333</ele><time>2026-03-29T14:27:40.831Z</time></trkpt><trkpt lat="45.7529592" lon="9.2431331"><ele>270.6666666666667</ele><time>2026-03-29T14:27:41.844Z</time></trkpt><trkpt lat="45.7528089" lon="9.2433234"><ele>269.0</ele><time>2026-03-29T14:27:42.83Z</time></trkpt><trkpt lat="45.752654" lon="9.2435146"><ele>269.0</ele><time>2026-03-29T14:27:43.836Z</time></trkpt><trkpt lat="45.7524846" lon="9.2436994"><ele>269.0</ele><time>2026-03-29T14:27:44.846Z</time></trkpt><trkpt lat="45.7523309" lon="9.2438812"><ele>269.0</ele><time>2026-03-29T14:27:45.827Z</time></trkpt><trkpt lat="45.7521904" lon="9.2440326"><ele>268.6666666666667</ele><time>2026-03-29T14:27:46.834Z</time></trkpt><trkpt lat="45.7520783" lon="9.2441402"><ele>268.3333333333333</ele><time>2026-03-29T14:27:47.828Z</time></trkpt><trkpt lat="45.7519712" lon="9.2442831"><ele>268.0</ele><time>2026-03-29T14:27:48.83Z</time></trkpt><trkpt lat="45.7518265" lon="9.2444365"><ele>268.0</ele><time>2026-03-29T14:27:49.833Z</time></trkpt><trkpt lat="45.7516905" lon="9.244589"><ele>268.0</ele><time>2026-03-29T14:27:50.833Z</time></trkpt><trkpt lat="45.7515706" lon="9.244749"><ele>268.0</ele><time>2026-03-29T14:27:51.825Z</time></trkpt><trkpt lat="45.7514682" lon="9.244878"><ele>267.75</ele><time>2026-03-29T14:27:52.833Z</time></trkpt><trkpt lat="45.751363" lon="9.2450031"><ele>267.5</ele><time>2026-03-29T14:27:53.83Z</time></trkpt><trkpt lat="45.7512721" lon="9.2451191"><ele>267.25</ele><time>2026-03-29T14:27:54.828Z</time></trkpt><trkpt lat="45.7511931" lon="9.2452356"><ele>267.0</ele><time>2026-03-29T14:27:55.831Z</time></trkpt><trkpt lat="45.7511308" lon="9.2453486"><ele>267.0</ele><time>2026-03-29T14:27:56.834Z</time></trkpt><trkpt lat="45.751067" lon="9.2454909"><ele>267.0</ele><time>2026-03-29T14:27:57.824Z</time></trkpt><trkpt lat="45.7510098" lon="9.245633"><ele>267.0</ele><time>2026-03-29T14:27:58.834Z</time></trkpt><trkpt lat="45.7509609" lon="9.2457811"><ele>267.0</ele><time>2026-03-29T14:27:59.831Z</time></trkpt><trkpt lat="45.7509119" lon="9.245931"><ele>267.0</ele><time>2026-03-29T14:28:00.829Z</time></trkpt><trkpt lat="45.7508699" lon="9.2460816"><ele>267.0</ele><time>2026-03-29T14:28:01.836Z</time></trkpt><trkpt lat="45.750838" lon="9.2462373"><ele>267.0</ele><time>2026-03-29T14:28:02.829Z</time></trkpt><trkpt lat="45.7508172" lon="9.2464071"><ele>267.0</ele><time>2026-03-29T14:28:03.835Z</time></trkpt><trkpt lat="45.7508166" lon="9.246585"><ele>266.5</ele><time>2026-03-29T14:28:04.836Z</time></trkpt><trkpt lat="45.7508297" lon="9.2467693"><ele>266.0</ele><time>2026-03-29T14:28:05.837Z</time></trkpt><trkpt lat="45.7508544" lon="9.2469602"><ele>265.5</ele><time>2026-03-29T14:28:06.831Z</time></trkpt><trkpt lat="45.7508938" lon="9.2471856"><ele>265.0</ele><time>2026-03-29T14:28:07.84Z</time></trkpt><trkpt lat="45.7509697" lon="9.2474613"><ele>265.66666666666663</ele><time>2026-03-29T14:28:08.825Z</time></trkpt><trkpt lat="45.7510194" lon="9.2477584"><ele>266.3333333333333</ele><time>2026-03-29T14:28:09.836Z</time></trkpt><trkpt lat="45.7510442" lon="9.2480384"><ele>267.0</ele><time>2026-03-29T14:28:10.834Z</time></trkpt><trkpt lat="45.7510509" lon="9.2482681"><ele>267.0</ele><time>2026-03-29T14:28:11.839Z</time></trkpt><trkpt lat="45.7510604" lon="9.248478"><ele>267.0</ele><time>2026-03-29T14:28:12.827Z</time></trkpt><trkpt lat="45.75108" lon="9.248685"><ele>267.0</ele><time>2026-03-29T14:28:13.84Z</time></trkpt><trkpt lat="45.75111" lon="9.2488747"><ele>267.0</ele><time>2026-03-29T14:28:14.836Z</time></trkpt><trkpt lat="45.7511217" lon="9.2490869"><ele>265.0</ele><time>2026-03-29T14:28:15.844Z</time></trkpt><trkpt lat="45.7511392" lon="9.2492789"><ele>263.0</ele><time>2026-03-29T14:28:16.838Z</time></trkpt><trkpt lat="45.7511501" lon="9.2494939"><ele>261.0</ele><time>2026-03-29T14:28:17.838Z</time></trkpt><trkpt lat="45.7511739" lon="9.2496918"><ele>259.0</ele><time>2026-03-29T14:28:18.843Z</time></trkpt><trkpt lat="45.7512032" lon="9.2498811"><ele>257.25</ele><time>2026-03-29T14:28:19.838Z</time></trkpt><trkpt lat="45.751221" lon="9.250067"><ele>255.5</ele><time>2026-03-29T14:28:20.843Z</time></trkpt><trkpt lat="45.7512258" lon="9.2502566"><ele>253.75</ele><time>2026-03-29T14:28:21.839Z</time></trkpt><trkpt lat="45.7512441" lon="9.2504574"><ele>252.0</ele><time>2026-03-29T14:28:22.841Z</time></trkpt><trkpt lat="45.7512594" lon="9.2506781"><ele>250.25</ele><time>2026-03-29T14:28:23.843Z</time></trkpt><trkpt lat="45.7512646" lon="9.2508952"><ele>248.5</ele><time>2026-03-29T14:28:24.834Z</time></trkpt><trkpt lat="45.7512582" lon="9.251101"><ele>246.75</ele><time>2026-03-29T14:28:25.842Z</time></trkpt><trkpt lat="45.7512493" lon="9.2513097"><ele>245.0</ele><time>2026-03-29T14:28:26.835Z</time></trkpt><trkpt lat="45.7512413" lon="9.251526"><ele>244.25</ele><time>2026-03-29T14:28:27.841Z</time></trkpt><trkpt lat="45.7512437" lon="9.2517349"><ele>243.5</ele><time>2026-03-29T14:28:28.837Z</time></trkpt><trkpt lat="45.7512387" lon="9.251951"><ele>242.75</ele><time>2026-03-29T14:28:29.838Z</time></trkpt><trkpt lat="45.7512409" lon="9.2521576"><ele>242.0</ele><time>2026-03-29T14:28:30.841Z</time></trkpt><trkpt lat="45.7512493" lon="9.2523782"><ele>242.0</ele><time>2026-03-29T14:28:31.839Z</time></trkpt><trkpt lat="45.7512466" lon="9.2526136"><ele>242.0</ele><time>2026-03-29T14:28:32.841Z</time></trkpt><trkpt lat="45.7512504" lon="9.2528497"><ele>242.0</ele><time>2026-03-29T14:28:33.835Z</time></trkpt><trkpt lat="45.7512533" lon="9.2530752"><ele>242.0</ele><time>2026-03-29T14:28:34.842Z</time></trkpt><trkpt lat="45.7512506" lon="9.2533024"><ele>242.0</ele><time>2026-03-29T14:28:35.845Z</time></trkpt><trkpt lat="45.7512342" lon="9.2535247"><ele>242.0</ele><time>2026-03-29T14:28:36.839Z</time></trkpt><trkpt lat="45.7512373" lon="9.2537184"><ele>242.0</ele><time>2026-03-29T14:28:37.839Z</time></trkpt><trkpt lat="45.7512335" lon="9.2539253"><ele>242.0</ele><time>2026-03-29T14:28:38.841Z</time></trkpt><trkpt lat="45.7512303" lon="9.2541297"><ele>242.0</ele><time>2026-03-29T14:28:39.838Z</time></trkpt><trkpt lat="45.7512217" lon="9.2543231"><ele>242.0</ele><time>2026-03-29T14:28:40.837Z</time></trkpt><trkpt lat="45.7512311" lon="9.2545132"><ele>241.75</ele><time>2026-03-29T14:28:41.841Z</time></trkpt><trkpt lat="45.7512323" lon="9.2547101"><ele>241.5</ele><time>2026-03-29T14:28:42.837Z</time></trkpt><trkpt lat="45.751237" lon="9.2548726"><ele>241.25</ele><time>2026-03-29T14:28:43.836Z</time></trkpt><trkpt lat="45.7512333" lon="9.25505"><ele>241.0</ele><time>2026-03-29T14:28:44.841Z</time></trkpt><trkpt lat="45.7512355" lon="9.2552262"><ele>240.75</ele><time>2026-03-29T14:28:45.841Z</time></trkpt><trkpt lat="45.751235" lon="9.2554017"><ele>240.5</ele><time>2026-03-29T14:28:46.841Z</time></trkpt><trkpt lat="45.7512359" lon="9.2555836"><ele>240.25</ele><time>2026-03-29T14:28:47.843Z</time></trkpt><trkpt lat="45.7512288" lon="9.2557879"><ele>240.0</ele><time>2026-03-29T14:28:48.839Z</time></trkpt><trkpt lat="45.751228" lon="9.2559837"><ele>240.0</ele><time>2026-03-29T14:28:49.837Z</time></trkpt><trkpt lat="45.7512223" lon="9.2561576"><ele>240.0</ele><time>2026-03-29T14:28:50.841Z</time></trkpt><trkpt lat="45.7511998" lon="9.256319"><ele>240.0</ele><time>2026-03-29T14:28:51.834Z</time></trkpt><trkpt lat="45.7511685" lon="9.2564827"><ele>240.0</ele><time>2026-03-29T14:28:52.834Z</time></trkpt><trkpt lat="45.7511162" lon="9.2566433"><ele>240.25</ele><time>2026-03-29T14:28:53.839Z</time></trkpt><trkpt lat="45.7510507" lon="9.2568036"><ele>240.5</ele><time>2026-03-29T14:28:54.858Z</time></trkpt><trkpt lat="45.7509789" lon="9.2569557"><ele>240.75</ele><time>2026-03-29T14:28:55.838Z</time></trkpt><trkpt lat="45.7509138" lon="9.2571051"><ele>241.0</ele><time>2026-03-29T14:28:56.84Z</time></trkpt><trkpt lat="45.7508493" lon="9.2572424"><ele>241.60000000000002</ele><time>2026-03-29T14:28:57.827Z</time></trkpt><trkpt lat="45.7507796" lon="9.2573732"><ele>242.20000000000002</ele><time>2026-03-29T14:28:58.834Z</time></trkpt><trkpt lat="45.7507118" lon="9.2574972"><ele>242.79999999999998</ele><time>2026-03-29T14:28:59.839Z</time></trkpt><trkpt lat="45.7506513" lon="9.2576158"><ele>243.39999999999998</ele><time>2026-03-29T14:29:00.839Z</time></trkpt><trkpt lat="45.7505955" lon="9.2577229"><ele>244.0</ele><time>2026-03-29T14:29:01.832Z</time></trkpt><trkpt lat="45.7505458" lon="9.2578167"><ele>243.99999999999997</ele><time>2026-03-29T14:29:02.835Z</time></trkpt><trkpt lat="45.7504946" lon="9.2578923"><ele>244.0</ele><time>2026-03-29T14:29:03.83Z</time></trkpt><trkpt lat="45.7504412" lon="9.2579488"><ele>243.99999999999997</ele><time>2026-03-29T14:29:04.841Z</time></trkpt><trkpt lat="45.7503778" lon="9.2580045"><ele>243.99999999999997</ele><time>2026-03-29T14:29:05.833Z</time></trkpt><trkpt lat="45.7503076" lon="9.258051"><ele>244.0</ele><time>2026-03-29T14:29:06.837Z</time></trkpt><trkpt lat="45.7502454" lon="9.2581061"><ele>243.99999999999997</ele><time>2026-03-29T14:29:07.83Z</time></trkpt><trkpt lat="45.7502131" lon="9.2581859"><ele>243.99999999999997</ele><time>2026-03-29T14:29:08.832Z</time></trkpt><trkpt lat="45.7502019" lon="9.2582916"><ele>243.79999999999998</ele><time>2026-03-29T14:29:09.821Z</time></trkpt><trkpt lat="45.7501974" lon="9.2584179"><ele>243.59999999999997</ele><time>2026-03-29T14:29:10.829Z</time></trkpt><trkpt lat="45.7501784" lon="9.2585489"><ele>243.4</ele><time>2026-03-29T14:29:11.83Z</time></trkpt><trkpt lat="45.7501496" lon="9.2586839"><ele>243.2</ele><time>2026-03-29T14:29:12.82Z</time></trkpt><trkpt lat="45.7501114" lon="9.2588366"><ele>243.0</ele><time>2026-03-29T14:29:13.832Z</time></trkpt><trkpt lat="45.7500725" lon="9.2590071"><ele>244.25</ele><time>2026-03-29T14:29:14.832Z</time></trkpt><trkpt lat="45.7500237" lon="9.2591911"><ele>245.5</ele><time>2026-03-29T14:29:15.824Z</time></trkpt><trkpt lat="45.7499655" lon="9.2593703"><ele>246.75</ele><time>2026-03-29T14:29:16.837Z</time></trkpt><trkpt lat="45.7498751" lon="9.2595372"><ele>248.0</ele><time>2026-03-29T14:29:17.833Z</time></trkpt><trkpt lat="45.7498029" lon="9.2596808"><ele>250.5</ele><time>2026-03-29T14:29:18.828Z</time></trkpt><trkpt lat="45.7497292" lon="9.2598239"><ele>253.0</ele><time>2026-03-29T14:29:19.834Z</time></trkpt><trkpt lat="45.7496394" lon="9.2599633"><ele>255.5</ele><time>2026-03-29T14:29:20.833Z</time></trkpt><trkpt lat="45.7495542" lon="9.2600839"><ele>258.0</ele><time>2026-03-29T14:29:21.825Z</time></trkpt><trkpt lat="45.749472" lon="9.2601993"><ele>258.0</ele><time>2026-03-29T14:29:22.837Z</time></trkpt><trkpt lat="45.7493821" lon="9.2603092"><ele>258.0</ele><time>2026-03-29T14:29:23.833Z</time></trkpt><trkpt lat="45.7492829" lon="9.2604129"><ele>258.0</ele><time>2026-03-29T14:29:24.821Z</time></trkpt><trkpt lat="45.7491751" lon="9.2605214"><ele>258.0</ele><time>2026-03-29T14:29:25.833Z</time></trkpt><trkpt lat="45.7490558" lon="9.2606291"><ele>257.75</ele><time>2026-03-29T14:29:26.83Z</time></trkpt><trkpt lat="45.7489269" lon="9.2607426"><ele>257.5</ele><time>2026-03-29T14:29:27.829Z</time></trkpt><trkpt lat="45.7488088" lon="9.2608725"><ele>257.25</ele><time>2026-03-29T14:29:28.84Z</time></trkpt><trkpt lat="45.7487162" lon="9.261018"><ele>257.0</ele><time>2026-03-29T14:29:29.826Z</time></trkpt><trkpt lat="45.7486543" lon="9.261164"><ele>257.0</ele><time>2026-03-29T14:29:30.831Z</time></trkpt><trkpt lat="45.7485979" lon="9.2612979"><ele>257.0</ele><time>2026-03-29T14:29:31.829Z</time></trkpt><trkpt lat="45.7485657" lon="9.2614167"><ele>257.0</ele><time>2026-03-29T14:29:32.825Z</time></trkpt><trkpt lat="45.7485374" lon="9.2615274"><ele>257.0</ele><time>2026-03-29T14:29:33.834Z</time></trkpt><trkpt lat="45.7485237" lon="9.2616287"><ele>257.0</ele><time>2026-03-29T14:29:34.833Z</time></trkpt><trkpt lat="45.7485191" lon="9.2617225"><ele>257.0</ele><time>2026-03-29T14:29:35.831Z</time></trkpt><trkpt lat="45.7485205" lon="9.2618351"><ele>257.0</ele><time>2026-03-29T14:29:37.835Z</time></trkpt><trkpt lat="45.7485082" lon="9.261937"><ele>257.0</ele><time>2026-03-29T14:29:50.855Z</time></trkpt><trkpt lat="45.7484904" lon="9.2620472"><ele>257.0</ele><time>2026-03-29T14:29:53.847Z</time></trkpt><trkpt lat="45.7484616" lon="9.2622353"><ele>257.0</ele><time>2026-03-29T14:29:55.834Z</time></trkpt><trkpt lat="45.74848" lon="9.2623544"><ele>257.0</ele><time>2026-03-29T14:29:56.838Z</time></trkpt><trkpt lat="45.748538" lon="9.2624782"><ele>258.0</ele><time>2026-03-29T14:29:57.838Z</time></trkpt><trkpt lat="45.7486096" lon="9.2626229"><ele>259.0</ele><time>2026-03-29T14:29:58.84Z</time></trkpt><trkpt lat="45.7486751" lon="9.2627968"><ele>260.0</ele><time>2026-03-29T14:29:59.834Z</time></trkpt><trkpt lat="45.7487385" lon="9.2629799"><ele>261.0</ele><time>2026-03-29T14:30:00.836Z</time></trkpt><trkpt lat="45.7487987" lon="9.2632026"><ele>261.0</ele><time>2026-03-29T14:30:01.835Z</time></trkpt><trkpt lat="45.7488698" lon="9.2634761"><ele>261.0</ele><time>2026-03-29T14:30:02.826Z</time></trkpt><trkpt lat="45.7489752" lon="9.2637251"><ele>261.0</ele><time>2026-03-29T14:30:03.81Z</time></trkpt><trkpt lat="45.7490702" lon="9.2639921"><ele>260.75</ele><time>2026-03-29T14:30:04.825Z</time></trkpt><trkpt lat="45.7491373" lon="9.2641818"><ele>260.5</ele><time>2026-03-29T14:30:05.819Z</time></trkpt><trkpt lat="45.7491954" lon="9.2643174"><ele>260.25</ele><time>2026-03-29T14:30:06.825Z</time></trkpt><trkpt lat="45.749241" lon="9.2644459"><ele>260.0</ele><time>2026-03-29T14:30:07.821Z</time></trkpt><trkpt lat="45.7492935" lon="9.2646215"><ele>261.0</ele><time>2026-03-29T14:30:08.819Z</time></trkpt><trkpt lat="45.7493203" lon="9.2648526"><ele>262.0</ele><time>2026-03-29T14:30:09.821Z</time></trkpt><trkpt lat="45.7493904" lon="9.2650413"><ele>263.0</ele><time>2026-03-29T14:30:10.827Z</time></trkpt><trkpt lat="45.7494847" lon="9.2652197"><ele>263.0</ele><time>2026-03-29T14:30:11.828Z</time></trkpt><trkpt lat="45.7495468" lon="9.2654326"><ele>263.0</ele><time>2026-03-29T14:30:12.827Z</time></trkpt><trkpt lat="45.7495605" lon="9.2656275"><ele>263.0</ele><time>2026-03-29T14:30:13.829Z</time></trkpt><trkpt lat="45.749537" lon="9.2658156"><ele>263.0</ele><time>2026-03-29T14:30:14.823Z</time></trkpt><trkpt lat="45.7495073" lon="9.2659683"><ele>264.0</ele><time>2026-03-29T14:30:15.822Z</time></trkpt><trkpt lat="45.7494849" lon="9.2661515"><ele>265.0</ele><time>2026-03-29T14:30:16.826Z</time></trkpt><trkpt lat="45.7494625" lon="9.2663344"><ele>266.0</ele><time>2026-03-29T14:30:17.833Z</time></trkpt><trkpt lat="45.7494313" lon="9.266549"><ele>267.0</ele><time>2026-03-29T14:30:18.849Z</time></trkpt><trkpt lat="45.7493866" lon="9.2667349"><ele>268.6666666666667</ele><time>2026-03-29T14:30:19.847Z</time></trkpt><trkpt lat="45.7493454" lon="9.2669224"><ele>270.33333333333337</ele><time>2026-03-29T14:30:20.828Z</time></trkpt><trkpt lat="45.749314" lon="9.2671444"><ele>272.0</ele><time>2026-03-29T14:30:21.825Z</time></trkpt><trkpt lat="45.749275" lon="9.2673719"><ele>272.0</ele><time>2026-03-29T14:30:22.826Z</time></trkpt><trkpt lat="45.7492554" lon="9.2676132"><ele>272.0</ele><time>2026-03-29T14:30:23.831Z</time></trkpt><trkpt lat="45.7492292" lon="9.2678604"><ele>272.0</ele><time>2026-03-29T14:30:24.828Z</time></trkpt><trkpt lat="45.7491857" lon="9.2681113"><ele>272.33333333333337</ele><time>2026-03-29T14:30:25.827Z</time></trkpt><trkpt lat="45.749134" lon="9.2683359"><ele>272.6666666666667</ele><time>2026-03-29T14:30:26.837Z</time></trkpt><trkpt lat="45.7490828" lon="9.268572"><ele>273.0</ele><time>2026-03-29T14:30:27.827Z</time></trkpt><trkpt lat="45.749021" lon="9.2688104"><ele>273.6666666666667</ele><time>2026-03-29T14:30:28.831Z</time></trkpt><trkpt lat="45.7489634" lon="9.2690587"><ele>274.33333333333337</ele><time>2026-03-29T14:30:29.83Z</time></trkpt><trkpt lat="45.7489064" lon="9.2693122"><ele>275.0</ele><time>2026-03-29T14:30:30.833Z</time></trkpt><trkpt lat="45.7488407" lon="9.2695777"><ele>276.0</ele><time>2026-03-29T14:30:31.832Z</time></trkpt><trkpt lat="45.7487781" lon="9.269851"><ele>277.0</ele><time>2026-03-29T14:30:32.835Z</time></trkpt><trkpt lat="45.7487135" lon="9.2701408"><ele>278.0</ele><time>2026-03-29T14:30:33.83Z</time></trkpt><trkpt lat="45.7486534" lon="9.2704286"><ele>278.0</ele><time>2026-03-29T14:30:34.837Z</time></trkpt><trkpt lat="45.7485866" lon="9.2707165"><ele>278.0</ele><time>2026-03-29T14:30:35.835Z</time></trkpt><trkpt lat="45.7485171" lon="9.2709951"><ele>278.0</ele><time>2026-03-29T14:30:36.831Z</time></trkpt><trkpt lat="45.7484543" lon="9.2712519"><ele>278.6666666666667</ele><time>2026-03-29T14:30:37.83Z</time></trkpt><trkpt lat="45.7483933" lon="9.2715098"><ele>279.3333333333333</ele><time>2026-03-29T14:30:38.835Z</time></trkpt><trkpt lat="45.7483357" lon="9.2717283"><ele>280.0</ele><time>2026-03-29T14:30:39.823Z</time></trkpt><trkpt lat="45.7483034" lon="9.2719411"><ele>280.0</ele><time>2026-03-29T14:30:40.827Z</time></trkpt><trkpt lat="45.7482756" lon="9.2721393"><ele>280.0</ele><time>2026-03-29T14:30:41.833Z</time></trkpt><trkpt lat="45.7482507" lon="9.2723052"><ele>280.0</ele><time>2026-03-29T14:30:42.826Z</time></trkpt><trkpt lat="45.7482308" lon="9.2724438"><ele>280.0</ele><time>2026-03-29T14:30:43.834Z</time></trkpt><trkpt lat="45.748188" lon="9.2725514"><ele>280.0</ele><time>2026-03-29T14:30:44.826Z</time></trkpt><trkpt lat="45.7481351" lon="9.2726457"><ele>280.0</ele><time>2026-03-29T14:30:45.832Z</time></trkpt><trkpt lat="45.7481082" lon="9.2727712"><ele>280.0</ele><time>2026-03-29T14:30:46.83Z</time></trkpt><trkpt lat="45.7481069" lon="9.2729114"><ele>280.0</ele><time>2026-03-29T14:30:47.831Z</time></trkpt><trkpt lat="45.7481259" lon="9.2730573"><ele>280.0</ele><time>2026-03-29T14:30:48.826Z</time></trkpt><trkpt lat="45.748142" lon="9.2732384"><ele>280.0</ele><time>2026-03-29T14:30:49.83Z</time></trkpt><trkpt lat="45.748133" lon="9.2734477"><ele>280.0</ele><time>2026-03-29T14:30:50.825Z</time></trkpt><trkpt lat="45.7481176" lon="9.2736626"><ele>280.0</ele><time>2026-03-29T14:30:51.825Z</time></trkpt><trkpt lat="45.748089" lon="9.2738918"><ele>280.0</ele><time>2026-03-29T14:30:52.834Z</time></trkpt><trkpt lat="45.7480936" lon="9.2741044"><ele>279.3333333333333</ele><time>2026-03-29T14:30:53.831Z</time></trkpt><trkpt lat="45.748081" lon="9.274333"><ele>278.6666666666667</ele><time>2026-03-29T14:30:54.831Z</time></trkpt><trkpt lat="45.7480748" lon="9.2745671"><ele>278.0</ele><time>2026-03-29T14:30:55.825Z</time></trkpt><trkpt lat="45.7480467" lon="9.2747849"><ele>277.6666666666667</ele><time>2026-03-29T14:30:56.83Z</time></trkpt><trkpt lat="45.7480205" lon="9.2750228"><ele>277.3333333333333</ele><time>2026-03-29T14:30:57.829Z</time></trkpt><trkpt lat="45.7480007" lon="9.2752904"><ele>277.0</ele><time>2026-03-29T14:30:58.83Z</time></trkpt><trkpt lat="45.7479707" lon="9.2755511"><ele>277.0</ele><time>2026-03-29T14:30:59.835Z</time></trkpt><trkpt lat="45.7479391" lon="9.2758208"><ele>277.0</ele><time>2026-03-29T14:31:00.839Z</time></trkpt><trkpt lat="45.7479197" lon="9.2760856"><ele>277.0</ele><time>2026-03-29T14:31:01.837Z</time></trkpt><trkpt lat="45.7478993" lon="9.276362"><ele>277.0</ele><time>2026-03-29T14:31:02.834Z</time></trkpt><trkpt lat="45.747884" lon="9.2766413"><ele>277.0</ele><time>2026-03-29T14:31:03.828Z</time></trkpt><trkpt lat="45.7478934" lon="9.2769101"><ele>277.0</ele><time>2026-03-29T14:31:04.833Z</time></trkpt><trkpt lat="45.7479221" lon="9.2771932"><ele>277.66666666666663</ele><time>2026-03-29T14:31:05.829Z</time></trkpt><trkpt lat="45.7479741" lon="9.2774927"><ele>278.3333333333333</ele><time>2026-03-29T14:31:06.834Z</time></trkpt><trkpt lat="45.7480133" lon="9.2777555"><ele>279.0</ele><time>2026-03-29T14:31:07.829Z</time></trkpt><trkpt lat="45.748061" lon="9.2780528"><ele>279.0</ele><time>2026-03-29T14:31:08.83Z</time></trkpt><trkpt lat="45.7481055" lon="9.2783511"><ele>279.0</ele><time>2026-03-29T14:31:09.839Z</time></trkpt><trkpt lat="45.7481629" lon="9.278652"><ele>279.0</ele><time>2026-03-29T14:31:10.837Z</time></trkpt><trkpt lat="45.7482337" lon="9.2789446"><ele>279.6666666666667</ele><time>2026-03-29T14:31:11.836Z</time></trkpt><trkpt lat="45.7482852" lon="9.2792242"><ele>280.33333333333337</ele><time>2026-03-29T14:31:12.832Z</time></trkpt><trkpt lat="45.7483142" lon="9.2795051"><ele>281.0</ele><time>2026-03-29T14:31:13.832Z</time></trkpt><trkpt lat="45.7483679" lon="9.2797751"><ele>281.33333333333337</ele><time>2026-03-29T14:31:14.838Z</time></trkpt><trkpt lat="45.7484127" lon="9.2800133"><ele>281.6666666666667</ele><time>2026-03-29T14:31:15.828Z</time></trkpt><trkpt lat="45.7484468" lon="9.2802283"><ele>282.0</ele><time>2026-03-29T14:31:16.833Z</time></trkpt><trkpt lat="45.7484859" lon="9.280417"><ele>282.3333333333333</ele><time>2026-03-29T14:31:17.838Z</time></trkpt><trkpt lat="45.7485364" lon="9.2806145"><ele>282.66666666666663</ele><time>2026-03-29T14:31:18.832Z</time></trkpt><trkpt lat="45.7485844" lon="9.2808272"><ele>283.0</ele><time>2026-03-29T14:31:19.834Z</time></trkpt><trkpt lat="45.7486277" lon="9.2810285"><ele>282.5</ele><time>2026-03-29T14:31:20.837Z</time></trkpt><trkpt lat="45.7486602" lon="9.2812331"><ele>282.0</ele><time>2026-03-29T14:31:21.831Z</time></trkpt><trkpt lat="45.7486955" lon="9.2814361"><ele>281.5</ele><time>2026-03-29T14:31:22.833Z</time></trkpt><trkpt lat="45.7487282" lon="9.2816278"><ele>281.0</ele><time>2026-03-29T14:31:23.836Z</time></trkpt><trkpt lat="45.748762" lon="9.2818161"><ele>281.0</ele><time>2026-03-29T14:31:24.832Z</time></trkpt><trkpt lat="45.7488032" lon="9.2819994"><ele>281.0</ele><time>2026-03-29T14:31:25.83Z</time></trkpt><trkpt lat="45.748841" lon="9.2821819"><ele>281.0</ele><time>2026-03-29T14:31:26.84Z</time></trkpt><trkpt lat="45.7488798" lon="9.2823699"><ele>281.0</ele><time>2026-03-29T14:31:27.832Z</time></trkpt><trkpt lat="45.7489081" lon="9.2825461"><ele>281.0</ele><time>2026-03-29T14:31:28.834Z</time></trkpt><trkpt lat="45.7489401" lon="9.2827162"><ele>281.0</ele><time>2026-03-29T14:31:29.838Z</time></trkpt><trkpt lat="45.7489752" lon="9.2828953"><ele>281.0</ele><time>2026-03-29T14:31:30.832Z</time></trkpt><trkpt lat="45.7490018" lon="9.283054"><ele>281.0</ele><time>2026-03-29T14:31:31.839Z</time></trkpt><trkpt lat="45.7490274" lon="9.2832245"><ele>281.0</ele><time>2026-03-29T14:31:32.833Z</time></trkpt><trkpt lat="45.7490593" lon="9.2834093"><ele>281.0</ele><time>2026-03-29T14:31:33.83Z</time></trkpt><trkpt lat="45.7490979" lon="9.2836034"><ele>281.0</ele><time>2026-03-29T14:31:34.835Z</time></trkpt><trkpt lat="45.7491297" lon="9.2837912"><ele>281.0</ele><time>2026-03-29T14:31:35.831Z</time></trkpt><trkpt lat="45.7491755" lon="9.2839962"><ele>281.0</ele><time>2026-03-29T14:31:36.835Z</time></trkpt><trkpt lat="45.7492275" lon="9.2841961"><ele>281.0</ele><time>2026-03-29T14:31:37.838Z</time></trkpt><trkpt lat="45.7492973" lon="9.2843733"><ele>281.0</ele><time>2026-03-29T14:31:38.834Z</time></trkpt><trkpt lat="45.7493817" lon="9.2845629"><ele>281.0</ele><time>2026-03-29T14:31:39.837Z</time></trkpt><trkpt lat="45.7494567" lon="9.2847667"><ele>282.0</ele><time>2026-03-29T14:31:40.835Z</time></trkpt><trkpt lat="45.749542" lon="9.2849416"><ele>283.0</ele><time>2026-03-29T14:31:41.829Z</time></trkpt><trkpt lat="45.7496387" lon="9.2851304"><ele>284.0</ele><time>2026-03-29T14:31:42.826Z</time></trkpt><trkpt lat="45.7497544" lon="9.2853436"><ele>284.0</ele><time>2026-03-29T14:31:43.83Z</time></trkpt><trkpt lat="45.7498811" lon="9.2855922"><ele>284.0</ele><time>2026-03-29T14:31:44.833Z</time></trkpt><trkpt lat="45.7500331" lon="9.2858232"><ele>284.0</ele><time>2026-03-29T14:31:45.835Z</time></trkpt><trkpt lat="45.7501927" lon="9.2860648"><ele>285.6666666666667</ele><time>2026-03-29T14:31:46.834Z</time></trkpt><trkpt lat="45.7503294" lon="9.2862867"><ele>287.3333333333333</ele><time>2026-03-29T14:31:47.833Z</time></trkpt><trkpt lat="45.7504556" lon="9.286495"><ele>289.0</ele><time>2026-03-29T14:31:48.851Z</time></trkpt><trkpt lat="45.7505781" lon="9.2866868"><ele>289.0</ele><time>2026-03-29T14:31:49.835Z</time></trkpt><trkpt lat="45.750711" lon="9.2868789"><ele>289.0</ele><time>2026-03-29T14:31:50.831Z</time></trkpt><trkpt lat="45.7508279" lon="9.287072"><ele>289.0</ele><time>2026-03-29T14:31:51.833Z</time></trkpt><trkpt lat="45.750946" lon="9.2872455"><ele>292.3333333333333</ele><time>2026-03-29T14:31:52.826Z</time></trkpt><trkpt lat="45.751073" lon="9.2874326"><ele>295.6666666666667</ele><time>2026-03-29T14:31:53.834Z</time></trkpt><trkpt lat="45.7511937" lon="9.2876172"><ele>299.0</ele><time>2026-03-29T14:31:54.824Z</time></trkpt><trkpt lat="45.7512976" lon="9.2877973"><ele>299.0</ele><time>2026-03-29T14:31:55.837Z</time></trkpt><trkpt lat="45.7513991" lon="9.2879661"><ele>299.0</ele><time>2026-03-29T14:31:56.835Z</time></trkpt><trkpt lat="45.751492" lon="9.28813"><ele>299.0</ele><time>2026-03-29T14:31:57.825Z</time></trkpt><trkpt lat="45.7515979" lon="9.2882833"><ele>300.25</ele><time>2026-03-29T14:31:58.826Z</time></trkpt><trkpt lat="45.7516875" lon="9.2884333"><ele>301.5</ele><time>2026-03-29T14:31:59.829Z</time></trkpt><trkpt lat="45.7517858" lon="9.2885887"><ele>302.75</ele><time>2026-03-29T14:32:00.833Z</time></trkpt><trkpt lat="45.7518856" lon="9.2887482"><ele>304.0</ele><time>2026-03-29T14:32:01.83Z</time></trkpt><trkpt lat="45.7519852" lon="9.2888997"><ele>301.66666666666663</ele><time>2026-03-29T14:32:02.831Z</time></trkpt><trkpt lat="45.7520895" lon="9.2890613"><ele>299.3333333333333</ele><time>2026-03-29T14:32:03.824Z</time></trkpt><trkpt lat="45.7522026" lon="9.2892257"><ele>297.0</ele><time>2026-03-29T14:32:04.828Z</time></trkpt><trkpt lat="45.7522829" lon="9.2893973"><ele>297.0</ele><time>2026-03-29T14:32:05.83Z</time></trkpt><trkpt lat="45.7523234" lon="9.2895524"><ele>297.0</ele><time>2026-03-29T14:32:06.832Z</time></trkpt><trkpt lat="45.7523746" lon="9.2897342"><ele>297.0</ele><time>2026-03-29T14:32:07.829Z</time></trkpt><trkpt lat="45.7524161" lon="9.2899194"><ele>297.0</ele><time>2026-03-29T14:32:08.84Z</time></trkpt><trkpt lat="45.7524431" lon="9.2900744"><ele>296.4</ele><time>2026-03-29T14:32:09.828Z</time></trkpt><trkpt lat="45.7524544" lon="9.2902361"><ele>295.79999999999995</ele><time>2026-03-29T14:32:10.836Z</time></trkpt><trkpt lat="45.7524498" lon="9.290389"><ele>295.2</ele><time>2026-03-29T14:32:11.832Z</time></trkpt><trkpt lat="45.7524436" lon="9.2905466"><ele>294.59999999999997</ele><time>2026-03-29T14:32:12.837Z</time></trkpt><trkpt lat="45.7524386" lon="9.2906971"><ele>294.0</ele><time>2026-03-29T14:32:13.832Z</time></trkpt><trkpt lat="45.7524226" lon="9.2908333"><ele>293.8333333333333</ele><time>2026-03-29T14:32:14.838Z</time></trkpt><trkpt lat="45.7524057" lon="9.290956"><ele>293.6666666666667</ele><time>2026-03-29T14:32:15.826Z</time></trkpt><trkpt lat="45.7523853" lon="9.2910641"><ele>293.5</ele><time>2026-03-29T14:32:16.838Z</time></trkpt><trkpt lat="45.7523608" lon="9.2911651"><ele>293.33333333333337</ele><time>2026-03-29T14:32:17.834Z</time></trkpt><trkpt lat="45.7523358" lon="9.291266"><ele>293.1666666666667</ele><time>2026-03-29T14:32:18.827Z</time></trkpt><trkpt lat="45.7523084" lon="9.2913974"><ele>293.0</ele><time>2026-03-29T14:32:19.84Z</time></trkpt><trkpt lat="45.7522969" lon="9.2915525"><ele>293.4</ele><time>2026-03-29T14:32:20.837Z</time></trkpt><trkpt lat="45.7523036" lon="9.291715"><ele>293.8</ele><time>2026-03-29T14:32:21.825Z</time></trkpt><trkpt lat="45.7523082" lon="9.2918729"><ele>294.2</ele><time>2026-03-29T14:32:22.841Z</time></trkpt><trkpt lat="45.7523026" lon="9.2920292"><ele>294.6</ele><time>2026-03-29T14:32:23.833Z</time></trkpt><trkpt lat="45.7523125" lon="9.2921852"><ele>295.0</ele><time>2026-03-29T14:32:24.827Z</time></trkpt><trkpt lat="45.7523481" lon="9.2923439"><ele>295.0</ele><time>2026-03-29T14:32:25.835Z</time></trkpt><trkpt lat="45.7524011" lon="9.2925047"><ele>295.0</ele><time>2026-03-29T14:32:26.832Z</time></trkpt><trkpt lat="45.7524567" lon="9.2926796"><ele>295.0</ele><time>2026-03-29T14:32:27.821Z</time></trkpt><trkpt lat="45.7525003" lon="9.2928763"><ele>295.0</ele><time>2026-03-29T14:32:28.832Z</time></trkpt><trkpt lat="45.7525291" lon="9.2930988"><ele>294.75</ele><time>2026-03-29T14:32:29.834Z</time></trkpt><trkpt lat="45.7525321" lon="9.2932551"><ele>294.5</ele><time>2026-03-29T14:32:30.83Z</time></trkpt><trkpt lat="45.7525302" lon="9.2934396"><ele>294.25</ele><time>2026-03-29T14:32:31.834Z</time></trkpt><trkpt lat="45.7525235" lon="9.2936302"><ele>294.0</ele><time>2026-03-29T14:32:32.828Z</time></trkpt><trkpt lat="45.7525404" lon="9.2938124"><ele>293.8</ele><time>2026-03-29T14:32:33.834Z</time></trkpt><trkpt lat="45.7525438" lon="9.293983"><ele>293.59999999999997</ele><time>2026-03-29T14:32:34.833Z</time></trkpt><trkpt lat="45.7525375" lon="9.2941311"><ele>293.4</ele><time>2026-03-29T14:32:35.831Z</time></trkpt><trkpt lat="45.7525428" lon="9.2942686"><ele>293.2</ele><time>2026-03-29T14:32:36.829Z</time></trkpt><trkpt lat="45.7525501" lon="9.2943954"><ele>293.0</ele><time>2026-03-29T14:32:37.834Z</time></trkpt><trkpt lat="45.7525595" lon="9.2945203"><ele>293.0</ele><time>2026-03-29T14:32:38.831Z</time></trkpt><trkpt lat="45.7525569" lon="9.2946425"><ele>293.0</ele><time>2026-03-29T14:32:39.835Z</time></trkpt><trkpt lat="45.7525381" lon="9.2947775"><ele>293.0</ele><time>2026-03-29T14:32:40.835Z</time></trkpt><trkpt lat="45.7525219" lon="9.29493"><ele>293.0</ele><time>2026-03-29T14:32:41.825Z</time></trkpt><trkpt lat="45.7525449" lon="9.2950905"><ele>293.0</ele><time>2026-03-29T14:32:42.827Z</time></trkpt><trkpt lat="45.7525853" lon="9.2952583"><ele>293.33333333333337</ele><time>2026-03-29T14:32:43.828Z</time></trkpt><trkpt lat="45.7526137" lon="9.2954435"><ele>293.6666666666667</ele><time>2026-03-29T14:32:44.838Z</time></trkpt><trkpt lat="45.7526344" lon="9.2956551"><ele>294.0</ele><time>2026-03-29T14:32:45.827Z</time></trkpt><trkpt lat="45.7526529" lon="9.2958986"><ele>294.0</ele><time>2026-03-29T14:32:46.829Z</time></trkpt><trkpt lat="45.7526328" lon="9.2960961"><ele>294.0</ele><time>2026-03-29T14:32:47.829Z</time></trkpt><trkpt lat="45.752644" lon="9.2962758"><ele>294.0</ele><time>2026-03-29T14:32:48.824Z</time></trkpt><trkpt lat="45.7526477" lon="9.2964648"><ele>294.0</ele><time>2026-03-29T14:32:49.828Z</time></trkpt><trkpt lat="45.7526629" lon="9.2966631"><ele>294.25</ele><time>2026-03-29T14:32:50.83Z</time></trkpt><trkpt lat="45.752684" lon="9.2968466"><ele>294.5</ele><time>2026-03-29T14:32:51.818Z</time></trkpt><trkpt lat="45.7526884" lon="9.2970478"><ele>294.75</ele><time>2026-03-29T14:32:52.818Z</time></trkpt><trkpt lat="45.7526873" lon="9.2972554"><ele>295.0</ele><time>2026-03-29T14:32:53.821Z</time></trkpt><trkpt lat="45.7527042" lon="9.2974774"><ele>295.0</ele><time>2026-03-29T14:32:54.812Z</time></trkpt><trkpt lat="45.7526971" lon="9.2977201"><ele>295.0</ele><time>2026-03-29T14:32:55.822Z</time></trkpt><trkpt lat="45.7527107" lon="9.2979903"><ele>295.0</ele><time>2026-03-29T14:32:56.821Z</time></trkpt><trkpt lat="45.7527137" lon="9.2982726"><ele>297.3333333333333</ele><time>2026-03-29T14:32:57.816Z</time></trkpt><trkpt lat="45.752712" lon="9.2985235"><ele>299.6666666666667</ele><time>2026-03-29T14:32:58.829Z</time></trkpt><trkpt lat="45.7527198" lon="9.2987679"><ele>302.0</ele><time>2026-03-29T14:32:59.827Z</time></trkpt><trkpt lat="45.7527426" lon="9.2990159"><ele>303.0</ele><time>2026-03-29T14:33:00.827Z</time></trkpt><trkpt lat="45.7527572" lon="9.2992418"><ele>304.0</ele><time>2026-03-29T14:33:01.825Z</time></trkpt><trkpt lat="45.7527769" lon="9.2994758"><ele>305.0</ele><time>2026-03-29T14:33:02.829Z</time></trkpt><trkpt lat="45.7527775" lon="9.2997198"><ele>306.6666666666667</ele><time>2026-03-29T14:33:03.812Z</time></trkpt><trkpt lat="45.7527856" lon="9.2999344"><ele>308.3333333333333</ele><time>2026-03-29T14:33:04.826Z</time></trkpt><trkpt lat="45.7527758" lon="9.3001435"><ele>310.0</ele><time>2026-03-29T14:33:05.826Z</time></trkpt><trkpt lat="45.7527767" lon="9.3003744"><ele>311.66666666666663</ele><time>2026-03-29T14:33:06.814Z</time></trkpt><trkpt lat="45.7527845" lon="9.300615"><ele>313.3333333333333</ele><time>2026-03-29T14:33:07.827Z</time></trkpt><trkpt lat="45.7527813" lon="9.3008387"><ele>315.0</ele><time>2026-03-29T14:33:08.825Z</time></trkpt><trkpt lat="45.7527661" lon="9.3010818"><ele>315.0</ele><time>2026-03-29T14:33:09.82Z</time></trkpt><trkpt lat="45.752743" lon="9.3013219"><ele>315.0</ele><time>2026-03-29T14:33:10.826Z</time></trkpt><trkpt lat="45.7527123" lon="9.301553"><ele>315.0</ele><time>2026-03-29T14:33:11.83Z</time></trkpt><trkpt lat="45.7526604" lon="9.3017846"><ele>316.6666666666667</ele><time>2026-03-29T14:33:12.823Z</time></trkpt><trkpt lat="45.7526043" lon="9.302012"><ele>318.33333333333337</ele><time>2026-03-29T14:33:13.832Z</time></trkpt><trkpt lat="45.7525286" lon="9.3022046"><ele>320.0</ele><time>2026-03-29T14:33:14.828Z</time></trkpt><trkpt lat="45.752455" lon="9.3024085"><ele>321.6666666666667</ele><time>2026-03-29T14:33:15.821Z</time></trkpt><trkpt lat="45.7523726" lon="9.3025968"><ele>323.3333333333333</ele><time>2026-03-29T14:33:16.827Z</time></trkpt><trkpt lat="45.7523259" lon="9.3028055"><ele>325.0</ele><time>2026-03-29T14:33:17.828Z</time></trkpt><trkpt lat="45.7523097" lon="9.3030198"><ele>326.3333333333333</ele><time>2026-03-29T14:33:18.814Z</time></trkpt><trkpt lat="45.7523081" lon="9.3032277"><ele>327.6666666666667</ele><time>2026-03-29T14:33:19.824Z</time></trkpt><trkpt lat="45.7523399" lon="9.3034457"><ele>329.0</ele><time>2026-03-29T14:33:20.821Z</time></trkpt><trkpt lat="45.7523922" lon="9.3036502"><ele>329.0</ele><time>2026-03-29T14:33:21.815Z</time></trkpt><trkpt lat="45.7524688" lon="9.3038446"><ele>329.0</ele><time>2026-03-29T14:33:22.825Z</time></trkpt><trkpt lat="45.7525639" lon="9.3040187"><ele>329.0</ele><time>2026-03-29T14:33:23.818Z</time></trkpt><trkpt lat="45.7526682" lon="9.3041523"><ele>331.33333333333337</ele><time>2026-03-29T14:33:24.815Z</time></trkpt><trkpt lat="45.7527762" lon="9.3042733"><ele>333.6666666666667</ele><time>2026-03-29T14:33:25.829Z</time></trkpt><trkpt lat="45.7529033" lon="9.3043961"><ele>336.0</ele><time>2026-03-29T14:33:26.829Z</time></trkpt><trkpt lat="45.75305" lon="9.3045346"><ele>336.0</ele><time>2026-03-29T14:33:27.823Z</time></trkpt><trkpt lat="45.7531964" lon="9.30466"><ele>336.0</ele><time>2026-03-29T14:33:28.822Z</time></trkpt><trkpt lat="45.7533172" lon="9.3048056"><ele>336.0</ele><time>2026-03-29T14:33:29.823Z</time></trkpt><trkpt lat="45.7534514" lon="9.3049329"><ele>335.3333333333333</ele><time>2026-03-29T14:33:30.824Z</time></trkpt><trkpt lat="45.753595" lon="9.3050858"><ele>334.66666666666663</ele><time>2026-03-29T14:33:31.827Z</time></trkpt><trkpt lat="45.753754" lon="9.3052348"><ele>334.0</ele><time>2026-03-29T14:33:32.829Z</time></trkpt><trkpt lat="45.7539193" lon="9.3053629"><ele>334.0</ele><time>2026-03-29T14:33:33.824Z</time></trkpt><trkpt lat="45.7540865" lon="9.3055318"><ele>334.0</ele><time>2026-03-29T14:33:34.837Z</time></trkpt><trkpt lat="45.7542446" lon="9.3057102"><ele>334.0</ele><time>2026-03-29T14:33:35.842Z</time></trkpt><trkpt lat="45.7543958" lon="9.3058868"><ele>334.3333333333333</ele><time>2026-03-29T14:33:36.836Z</time></trkpt><trkpt lat="45.754546" lon="9.3060571"><ele>334.6666666666667</ele><time>2026-03-29T14:33:37.833Z</time></trkpt><trkpt lat="45.7546972" lon="9.3061985"><ele>335.0</ele><time>2026-03-29T14:33:38.864Z</time></trkpt><trkpt lat="45.7548228" lon="9.3063444"><ele>335.75</ele><time>2026-03-29T14:33:39.865Z</time></trkpt><trkpt lat="45.7549353" lon="9.3064888"><ele>336.5</ele><time>2026-03-29T14:33:40.836Z</time></trkpt><trkpt lat="45.755042" lon="9.3066463"><ele>337.25</ele><time>2026-03-29T14:33:41.836Z</time></trkpt><trkpt lat="45.7551206" lon="9.3068103"><ele>338.0</ele><time>2026-03-29T14:33:42.834Z</time></trkpt><trkpt lat="45.7551826" lon="9.3070039"><ele>339.0</ele><time>2026-03-29T14:33:43.837Z</time></trkpt><trkpt lat="45.7552303" lon="9.3072126"><ele>340.0</ele><time>2026-03-29T14:33:44.843Z</time></trkpt><trkpt lat="45.7552727" lon="9.3074133"><ele>341.0</ele><time>2026-03-29T14:33:45.834Z</time></trkpt><trkpt lat="45.7552953" lon="9.3076391"><ele>341.0</ele><time>2026-03-29T14:33:46.831Z</time></trkpt><trkpt lat="45.7553282" lon="9.3078644"><ele>341.0</ele><time>2026-03-29T14:33:47.843Z</time></trkpt><trkpt lat="45.7553363" lon="9.3080712"><ele>341.0</ele><time>2026-03-29T14:33:48.833Z</time></trkpt><trkpt lat="45.7553333" lon="9.3082541"><ele>341.0</ele><time>2026-03-29T14:33:49.838Z</time></trkpt><trkpt lat="45.7553177" lon="9.3084438"><ele>341.6666666666667</ele><time>2026-03-29T14:33:50.831Z</time></trkpt><trkpt lat="45.7552866" lon="9.3086442"><ele>342.3333333333333</ele><time>2026-03-29T14:33:51.823Z</time></trkpt><trkpt lat="45.755245" lon="9.3088612"><ele>343.0</ele><time>2026-03-29T14:33:52.828Z</time></trkpt><trkpt lat="45.7552186" lon="9.3090945"><ele>345.0</ele><time>2026-03-29T14:33:53.826Z</time></trkpt><trkpt lat="45.7551763" lon="9.3093406"><ele>347.0</ele><time>2026-03-29T14:33:54.845Z</time></trkpt><trkpt lat="45.7551136" lon="9.3096059"><ele>349.0</ele><time>2026-03-29T14:33:55.837Z</time></trkpt><trkpt lat="45.7550324" lon="9.3098798"><ele>349.0</ele><time>2026-03-29T14:33:56.827Z</time></trkpt><trkpt lat="45.7549637" lon="9.3101354"><ele>349.0</ele><time>2026-03-29T14:33:57.832Z</time></trkpt><trkpt lat="45.7548923" lon="9.3103743"><ele>349.0</ele><time>2026-03-29T14:33:58.836Z</time></trkpt><trkpt lat="45.7548296" lon="9.310614"><ele>349.0</ele><time>2026-03-29T14:33:59.831Z</time></trkpt><trkpt lat="45.754761" lon="9.3108733"><ele>349.0</ele><time>2026-03-29T14:34:00.833Z</time></trkpt><trkpt lat="45.7546921" lon="9.3111175"><ele>349.0</ele><time>2026-03-29T14:34:01.839Z</time></trkpt><trkpt lat="45.754624" lon="9.3113468"><ele>348.66666666666663</ele><time>2026-03-29T14:34:02.831Z</time></trkpt><trkpt lat="45.7545576" lon="9.3115735"><ele>348.3333333333333</ele><time>2026-03-29T14:34:03.839Z</time></trkpt><trkpt lat="45.7544975" lon="9.3117909"><ele>348.0</ele><time>2026-03-29T14:34:04.838Z</time></trkpt><trkpt lat="45.7544358" lon="9.312013"><ele>347.3333333333333</ele><time>2026-03-29T14:34:05.847Z</time></trkpt><trkpt lat="45.7543716" lon="9.3122436"><ele>346.66666666666663</ele><time>2026-03-29T14:34:06.831Z</time></trkpt><trkpt lat="45.7543171" lon="9.3124749"><ele>346.0</ele><time>2026-03-29T14:34:07.84Z</time></trkpt><trkpt lat="45.7542582" lon="9.3126932"><ele>346.0</ele><time>2026-03-29T14:34:08.834Z</time></trkpt><trkpt lat="45.7541966" lon="9.3129277"><ele>346.0</ele><time>2026-03-29T14:34:09.839Z</time></trkpt><trkpt lat="45.754138" lon="9.3131713"><ele>346.0</ele><time>2026-03-29T14:34:10.837Z</time></trkpt><trkpt lat="45.7540846" lon="9.3133993"><ele>346.0</ele><time>2026-03-29T14:34:11.834Z</time></trkpt><trkpt lat="45.7540322" lon="9.3136048"><ele>346.0</ele><time>2026-03-29T14:34:12.834Z</time></trkpt><trkpt lat="45.7539679" lon="9.3138117"><ele>346.0</ele><time>2026-03-29T14:34:13.827Z</time></trkpt><trkpt lat="45.7539107" lon="9.3140052"><ele>345.66666666666663</ele><time>2026-03-29T14:34:14.846Z</time></trkpt><trkpt lat="45.7538515" lon="9.3142145"><ele>345.3333333333333</ele><time>2026-03-29T14:34:15.837Z</time></trkpt><trkpt lat="45.753808" lon="9.314425"><ele>345.0</ele><time>2026-03-29T14:34:16.823Z</time></trkpt><trkpt lat="45.7537557" lon="9.3146241"><ele>345.0</ele><time>2026-03-29T14:34:17.838Z</time></trkpt><trkpt lat="45.7536887" lon="9.3148243"><ele>345.0</ele><time>2026-03-29T14:34:18.834Z</time></trkpt><trkpt lat="45.7536232" lon="9.3150254"><ele>345.0</ele><time>2026-03-29T14:34:19.834Z</time></trkpt><trkpt lat="45.7535808" lon="9.315219"><ele>345.0</ele><time>2026-03-29T14:34:20.835Z</time></trkpt><trkpt lat="45.7535272" lon="9.3154019"><ele>345.0</ele><time>2026-03-29T14:34:21.839Z</time></trkpt><trkpt lat="45.7534704" lon="9.315591"><ele>345.0</ele><time>2026-03-29T14:34:22.831Z</time></trkpt><trkpt lat="45.753419" lon="9.3157962"><ele>345.0</ele><time>2026-03-29T14:34:23.837Z</time></trkpt><trkpt lat="45.7533764" lon="9.3160261"><ele>345.0</ele><time>2026-03-29T14:34:24.83Z</time></trkpt><trkpt lat="45.7533309" lon="9.3162384"><ele>345.0</ele><time>2026-03-29T14:34:25.844Z</time></trkpt><trkpt lat="45.7532691" lon="9.3164497"><ele>345.0</ele><time>2026-03-29T14:34:26.832Z</time></trkpt><trkpt lat="45.7532157" lon="9.3166534"><ele>345.3333333333333</ele><time>2026-03-29T14:34:27.834Z</time></trkpt><trkpt lat="45.7531559" lon="9.3168863"><ele>345.66666666666663</ele><time>2026-03-29T14:34:28.833Z</time></trkpt><trkpt lat="45.7530964" lon="9.3171194"><ele>346.0</ele><time>2026-03-29T14:34:29.841Z</time></trkpt><trkpt lat="45.7530309" lon="9.3173418"><ele>346.0</ele><time>2026-03-29T14:34:30.829Z</time></trkpt><trkpt lat="45.7529742" lon="9.3175743"><ele>346.0</ele><time>2026-03-29T14:34:31.837Z</time></trkpt><trkpt lat="45.7529073" lon="9.3177835"><ele>346.0</ele><time>2026-03-29T14:34:32.838Z</time></trkpt><trkpt lat="45.7528485" lon="9.3179837"><ele>345.75</ele><time>2026-03-29T14:34:33.835Z</time></trkpt><trkpt lat="45.7528023" lon="9.3181704"><ele>345.5</ele><time>2026-03-29T14:34:34.833Z</time></trkpt><trkpt lat="45.7527641" lon="9.3183441"><ele>345.25</ele><time>2026-03-29T14:34:35.834Z</time></trkpt><trkpt lat="45.7527273" lon="9.3184909"><ele>345.0</ele><time>2026-03-29T14:34:36.837Z</time></trkpt><trkpt lat="45.7526926" lon="9.31865"><ele>344.6</ele><time>2026-03-29T14:34:37.836Z</time></trkpt><trkpt lat="45.7526434" lon="9.3187859"><ele>344.2</ele><time>2026-03-29T14:34:38.829Z</time></trkpt><trkpt lat="45.7526019" lon="9.3189112"><ele>343.79999999999995</ele><time>2026-03-29T14:34:39.842Z</time></trkpt><trkpt lat="45.7525628" lon="9.3190295"><ele>343.4</ele><time>2026-03-29T14:34:40.826Z</time></trkpt><trkpt lat="45.7525166" lon="9.3191413"><ele>343.0</ele><time>2026-03-29T14:34:41.838Z</time></trkpt><trkpt lat="45.7524596" lon="9.3192491"><ele>343.79999999999995</ele><time>2026-03-29T14:34:42.836Z</time></trkpt><trkpt lat="45.7523963" lon="9.3193567"><ele>344.6</ele><time>2026-03-29T14:34:43.842Z</time></trkpt><trkpt lat="45.7523296" lon="9.3194693"><ele>345.4</ele><time>2026-03-29T14:34:44.838Z</time></trkpt><trkpt lat="45.7522595" lon="9.3195743"><ele>346.20000000000005</ele><time>2026-03-29T14:34:45.841Z</time></trkpt><trkpt lat="45.7521871" lon="9.3196733"><ele>347.0</ele><time>2026-03-29T14:34:46.834Z</time></trkpt><trkpt lat="45.7521289" lon="9.3197642"><ele>347.0</ele><time>2026-03-29T14:34:47.832Z</time></trkpt><trkpt lat="45.7520954" lon="9.3198566"><ele>347.0</ele><time>2026-03-29T14:34:48.83Z</time></trkpt><trkpt lat="45.7520941" lon="9.3199636"><ele>347.0</ele><time>2026-03-29T14:34:49.831Z</time></trkpt><trkpt lat="45.7521262" lon="9.3200789"><ele>347.0</ele><time>2026-03-29T14:34:50.827Z</time></trkpt><trkpt lat="45.7521645" lon="9.3202071"><ele>347.0</ele><time>2026-03-29T14:34:51.831Z</time></trkpt><trkpt lat="45.7521926" lon="9.3203493"><ele>347.0</ele><time>2026-03-29T14:34:52.825Z</time></trkpt><trkpt lat="45.752189" lon="9.3205042"><ele>347.5</ele><time>2026-03-29T14:34:53.833Z</time></trkpt><trkpt lat="45.7521521" lon="9.3206755"><ele>348.0</ele><time>2026-03-29T14:34:54.835Z</time></trkpt><trkpt lat="45.752115" lon="9.3208353"><ele>348.5</ele><time>2026-03-29T14:34:55.836Z</time></trkpt><trkpt lat="45.7520758" lon="9.3209995"><ele>349.0</ele><time>2026-03-29T14:34:56.838Z</time></trkpt><trkpt lat="45.7520293" lon="9.3211856"><ele>349.0</ele><time>2026-03-29T14:34:57.837Z</time></trkpt><trkpt lat="45.7519768" lon="9.3213806"><ele>349.0</ele><time>2026-03-29T14:34:58.835Z</time></trkpt><trkpt lat="45.7519012" lon="9.321576"><ele>349.0</ele><time>2026-03-29T14:34:59.833Z</time></trkpt><trkpt lat="45.751848" lon="9.3217544"><ele>349.0</ele><time>2026-03-29T14:35:00.835Z</time></trkpt><trkpt lat="45.751797" lon="9.3219233"><ele>348.5</ele><time>2026-03-29T14:35:01.835Z</time></trkpt><trkpt lat="45.7517431" lon="9.3220904"><ele>348.0</ele><time>2026-03-29T14:35:02.835Z</time></trkpt><trkpt lat="45.7516956" lon="9.3222811"><ele>347.5</ele><time>2026-03-29T14:35:03.838Z</time></trkpt><trkpt lat="45.7516425" lon="9.3224753"><ele>347.0</ele><time>2026-03-29T14:35:04.836Z</time></trkpt><trkpt lat="45.75158" lon="9.3227045"><ele>347.0</ele><time>2026-03-29T14:35:05.842Z</time></trkpt><trkpt lat="45.7515117" lon="9.3229534"><ele>347.0</ele><time>2026-03-29T14:35:06.838Z</time></trkpt><trkpt lat="45.7514221" lon="9.3232121"><ele>347.0</ele><time>2026-03-29T14:35:07.836Z</time></trkpt><trkpt lat="45.7513491" lon="9.3234713"><ele>347.0</ele><time>2026-03-29T14:35:08.835Z</time></trkpt><trkpt lat="45.7512754" lon="9.3237585"><ele>347.0</ele><time>2026-03-29T14:35:09.842Z</time></trkpt><trkpt lat="45.7512043" lon="9.3240403"><ele>347.0</ele><time>2026-03-29T14:35:10.834Z</time></trkpt><trkpt lat="45.7511361" lon="9.3243229"><ele>347.0</ele><time>2026-03-29T14:35:11.842Z</time></trkpt><trkpt lat="45.7510689" lon="9.3246114"><ele>347.0</ele><time>2026-03-29T14:35:12.835Z</time></trkpt><trkpt lat="45.7509951" lon="9.3248923"><ele>347.0</ele><time>2026-03-29T14:35:13.835Z</time></trkpt><trkpt lat="45.7509167" lon="9.3251828"><ele>347.6666666666667</ele><time>2026-03-29T14:35:14.839Z</time></trkpt><trkpt lat="45.750853" lon="9.3254643"><ele>348.3333333333333</ele><time>2026-03-29T14:35:15.837Z</time></trkpt><trkpt lat="45.7507752" lon="9.3257221"><ele>349.0</ele><time>2026-03-29T14:35:16.833Z</time></trkpt><trkpt lat="45.7507052" lon="9.3259715"><ele>349.0</ele><time>2026-03-29T14:35:17.834Z</time></trkpt><trkpt lat="45.750648" lon="9.3262232"><ele>349.0</ele><time>2026-03-29T14:35:18.839Z</time></trkpt><trkpt lat="45.7505908" lon="9.326471"><ele>349.0</ele><time>2026-03-29T14:35:19.833Z</time></trkpt><trkpt lat="45.7505333" lon="9.3266988"><ele>349.0</ele><time>2026-03-29T14:35:20.827Z</time></trkpt><trkpt lat="45.7504765" lon="9.3268957"><ele>349.0</ele><time>2026-03-29T14:35:21.84Z</time></trkpt><trkpt lat="45.7504205" lon="9.3270886"><ele>349.0</ele><time>2026-03-29T14:35:22.829Z</time></trkpt><trkpt lat="45.7503748" lon="9.3272663"><ele>349.0</ele><time>2026-03-29T14:35:23.84Z</time></trkpt><trkpt lat="45.7503289" lon="9.3274183"><ele>349.75</ele><time>2026-03-29T14:35:24.829Z</time></trkpt><trkpt lat="45.7502512" lon="9.3275668"><ele>350.5</ele><time>2026-03-29T14:35:25.826Z</time></trkpt><trkpt lat="45.7502086" lon="9.3277295"><ele>351.25</ele><time>2026-03-29T14:35:26.822Z</time></trkpt><trkpt lat="45.7501286" lon="9.3278645"><ele>352.0</ele><time>2026-03-29T14:35:27.828Z</time></trkpt><trkpt lat="45.750017" lon="9.327999"><ele>352.75</ele><time>2026-03-29T14:35:28.814Z</time></trkpt><trkpt lat="45.7499166" lon="9.3280934"><ele>353.5</ele><time>2026-03-29T14:35:29.827Z</time></trkpt><trkpt lat="45.7498185" lon="9.3281912"><ele>354.25</ele><time>2026-03-29T14:35:30.821Z</time></trkpt><trkpt lat="45.7497424" lon="9.328318"><ele>355.0</ele><time>2026-03-29T14:35:31.816Z</time></trkpt><trkpt lat="45.7496864" lon="9.3284306"><ele>355.0</ele><time>2026-03-29T14:35:32.828Z</time></trkpt><trkpt lat="45.7496354" lon="9.3285125"><ele>355.0</ele><time>2026-03-29T14:35:33.827Z</time></trkpt><trkpt lat="45.7495779" lon="9.3285689"><ele>355.0</ele><time>2026-03-29T14:35:34.813Z</time></trkpt><trkpt lat="45.7495042" lon="9.328577"><ele>355.0</ele><time>2026-03-29T14:35:35.823Z</time></trkpt><trkpt lat="45.7494174" lon="9.3285592"><ele>355.0</ele><time>2026-03-29T14:35:36.824Z</time></trkpt><trkpt lat="45.7493134" lon="9.3285213"><ele>355.0</ele><time>2026-03-29T14:35:37.826Z</time></trkpt><trkpt lat="45.7491849" lon="9.3284592"><ele>357.3333333333333</ele><time>2026-03-29T14:35:38.834Z</time></trkpt><trkpt lat="45.7490435" lon="9.3283982"><ele>359.6666666666667</ele><time>2026-03-29T14:35:39.834Z</time></trkpt><trkpt lat="45.7488991" lon="9.3283448"><ele>362.0</ele><time>2026-03-29T14:35:40.83Z</time></trkpt><trkpt lat="45.7487282" lon="9.3282372"><ele>362.0</ele><time>2026-03-29T14:35:41.835Z</time></trkpt><trkpt lat="45.7485554" lon="9.3281544"><ele>362.0</ele><time>2026-03-29T14:35:42.836Z</time></trkpt><trkpt lat="45.7484176" lon="9.3280825"><ele>362.0</ele><time>2026-03-29T14:35:43.826Z</time></trkpt><trkpt lat="45.748301" lon="9.3280192"><ele>363.20000000000005</ele><time>2026-03-29T14:35:44.835Z</time></trkpt><trkpt lat="45.7482047" lon="9.3279563"><ele>364.4</ele><time>2026-03-29T14:35:45.829Z</time></trkpt><trkpt lat="45.7480826" lon="9.3278927"><ele>365.6</ele><time>2026-03-29T14:35:47.825Z</time></trkpt><trkpt lat="45.7479935" lon="9.3278546"><ele>366.79999999999995</ele><time>2026-03-29T14:35:48.827Z</time></trkpt><trkpt lat="45.7478879" lon="9.3278084"><ele>368.0</ele><time>2026-03-29T14:35:49.826Z</time></trkpt><trkpt lat="45.7477604" lon="9.3277285"><ele>369.6666666666667</ele><time>2026-03-29T14:35:50.829Z</time></trkpt><trkpt lat="45.7476168" lon="9.3276435"><ele>371.3333333333333</ele><time>2026-03-29T14:35:51.83Z</time></trkpt><trkpt lat="45.7474564" lon="9.3275704"><ele>373.0</ele><time>2026-03-29T14:35:52.824Z</time></trkpt><trkpt lat="45.7472884" lon="9.3274811"><ele>373.0</ele><time>2026-03-29T14:35:53.834Z</time></trkpt><trkpt lat="45.7471689" lon="9.3274085"><ele>373.0</ele><time>2026-03-29T14:35:54.831Z</time></trkpt><trkpt lat="45.7470597" lon="9.3273203"><ele>373.0</ele><time>2026-03-29T14:35:55.833Z</time></trkpt><trkpt lat="45.7469448" lon="9.3271887"><ele>373.0</ele><time>2026-03-29T14:35:56.837Z</time></trkpt><trkpt lat="45.7468122" lon="9.3269997"><ele>373.66666666666663</ele><time>2026-03-29T14:35:57.826Z</time></trkpt><trkpt lat="45.7467174" lon="9.3268445"><ele>374.3333333333333</ele><time>2026-03-29T14:35:58.838Z</time></trkpt><trkpt lat="45.7466117" lon="9.3266641"><ele>375.0</ele><time>2026-03-29T14:35:59.831Z</time></trkpt><trkpt lat="45.7465153" lon="9.326476"><ele>375.5</ele><time>2026-03-29T14:36:00.828Z</time></trkpt><trkpt lat="45.7464243" lon="9.3263182"><ele>376.0</ele><time>2026-03-29T14:36:01.822Z</time></trkpt><trkpt lat="45.7463525" lon="9.3261743"><ele>376.5</ele><time>2026-03-29T14:36:02.822Z</time></trkpt><trkpt lat="45.7462592" lon="9.3260204"><ele>377.0</ele><time>2026-03-29T14:36:03.836Z</time></trkpt><trkpt lat="45.7461764" lon="9.3258923"><ele>377.0</ele><time>2026-03-29T14:36:04.823Z</time></trkpt><trkpt lat="45.7460981" lon="9.3257547"><ele>377.0</ele><time>2026-03-29T14:36:05.832Z</time></trkpt><trkpt lat="45.7460453" lon="9.3255854"><ele>377.0</ele><time>2026-03-29T14:36:06.827Z</time></trkpt><trkpt lat="45.7460154" lon="9.3254148"><ele>377.0</ele><time>2026-03-29T14:36:07.818Z</time></trkpt><trkpt lat="45.7460058" lon="9.3252719"><ele>376.6</ele><time>2026-03-29T14:36:08.823Z</time></trkpt><trkpt lat="45.7460507" lon="9.32517"><ele>376.20000000000005</ele><time>2026-03-29T14:36:09.824Z</time></trkpt><trkpt lat="45.7461513" lon="9.3251091"><ele>375.8</ele><time>2026-03-29T14:36:11.83Z</time></trkpt><trkpt lat="45.7462656" lon="9.3250548"><ele>375.4</ele><time>2026-03-29T14:36:13.82Z</time></trkpt><trkpt lat="45.74634" lon="9.3250012"><ele>375.0</ele><time>2026-03-29T14:36:14.828Z</time></trkpt><trkpt lat="45.7463966" lon="9.3249089"><ele>375.0</ele><time>2026-03-29T14:36:15.824Z</time></trkpt><trkpt lat="45.7464076" lon="9.3247966"><ele>375.0</ele><time>2026-03-29T14:36:16.824Z</time></trkpt><trkpt lat="45.7463707" lon="9.324689"><ele>375.0</ele><time>2026-03-29T14:36:17.827Z</time></trkpt><trkpt lat="45.7462881" lon="9.3245874"><ele>375.0</ele><time>2026-03-29T14:36:18.827Z</time></trkpt><trkpt lat="45.7461777" lon="9.3244666"><ele>375.0</ele><time>2026-03-29T14:36:19.816Z</time></trkpt><trkpt lat="45.7460476" lon="9.3243238"><ele>373.3333333333333</ele><time>2026-03-29T14:36:20.825Z</time></trkpt><trkpt lat="45.7458581" lon="9.3241497"><ele>371.66666666666663</ele><time>2026-03-29T14:36:21.825Z</time></trkpt><trkpt lat="45.7457136" lon="9.3240027"><ele>370.0</ele><time>2026-03-29T14:36:22.818Z</time></trkpt><trkpt lat="45.7455625" lon="9.3238482"><ele>370.0</ele><time>2026-03-29T14:36:23.821Z</time></trkpt><trkpt lat="45.7454149" lon="9.3237066"><ele>370.0</ele><time>2026-03-29T14:36:24.822Z</time></trkpt><trkpt lat="45.7452833" lon="9.3235643"><ele>370.0</ele><time>2026-03-29T14:36:25.825Z</time></trkpt><trkpt lat="45.7451589" lon="9.3234192"><ele>372.25</ele><time>2026-03-29T14:36:26.83Z</time></trkpt><trkpt lat="45.7450264" lon="9.3232884"><ele>374.5</ele><time>2026-03-29T14:36:27.824Z</time></trkpt><trkpt lat="45.744901" lon="9.3231781"><ele>376.75</ele><time>2026-03-29T14:36:28.819Z</time></trkpt><trkpt lat="45.7447955" lon="9.3230745"><ele>379.0</ele><time>2026-03-29T14:36:29.826Z</time></trkpt><trkpt lat="45.7446803" lon="9.3229475"><ele>379.0</ele><time>2026-03-29T14:36:30.821Z</time></trkpt><trkpt lat="45.744565" lon="9.3228371"><ele>379.0</ele><time>2026-03-29T14:36:31.817Z</time></trkpt><trkpt lat="45.7444359" lon="9.322735"><ele>379.0</ele><time>2026-03-29T14:36:32.818Z</time></trkpt><trkpt lat="45.7443086" lon="9.322617"><ele>379.0</ele><time>2026-03-29T14:36:33.83Z</time></trkpt><trkpt lat="45.7441768" lon="9.322509"><ele>379.0</ele><time>2026-03-29T14:36:34.826Z</time></trkpt><trkpt lat="45.7440777" lon="9.3224014"><ele>379.0</ele><time>2026-03-29T14:36:35.825Z</time></trkpt><trkpt lat="45.7439841" lon="9.3223211"><ele>379.0</ele><time>2026-03-29T14:36:36.819Z</time></trkpt><trkpt lat="45.7438755" lon="9.322218"><ele>379.0</ele><time>2026-03-29T14:36:37.815Z</time></trkpt><trkpt lat="45.7437926" lon="9.3221241"><ele>377.79999999999995</ele><time>2026-03-29T14:36:38.827Z</time></trkpt><trkpt lat="45.7437258" lon="9.3220063"><ele>376.59999999999997</ele><time>2026-03-29T14:36:39.829Z</time></trkpt><trkpt lat="45.743666" lon="9.3218842"><ele>375.4</ele><time>2026-03-29T14:36:40.823Z</time></trkpt><trkpt lat="45.7436051" lon="9.3217552"><ele>374.2</ele><time>2026-03-29T14:36:41.828Z</time></trkpt><trkpt lat="45.7435498" lon="9.3216324"><ele>373.0</ele><time>2026-03-29T14:36:42.827Z</time></trkpt><trkpt lat="45.7434974" lon="9.3215215"><ele>373.0</ele><time>2026-03-29T14:36:43.828Z</time></trkpt><trkpt lat="45.7434453" lon="9.3214174"><ele>373.0</ele><time>2026-03-29T14:36:44.832Z</time></trkpt><trkpt lat="45.743396" lon="9.3213214"><ele>373.0</ele><time>2026-03-29T14:36:45.829Z</time></trkpt><trkpt lat="45.7433534" lon="9.3212321"><ele>373.0</ele><time>2026-03-29T14:36:46.83Z</time></trkpt><trkpt lat="45.7433084" lon="9.3211536"><ele>373.0</ele><time>2026-03-29T14:36:47.83Z</time></trkpt><trkpt lat="45.7432557" lon="9.3210798"><ele>373.0</ele><time>2026-03-29T14:36:48.833Z</time></trkpt><trkpt lat="45.7431935" lon="9.3210103"><ele>372.2</ele><time>2026-03-29T14:36:49.828Z</time></trkpt><trkpt lat="45.7431379" lon="9.3209422"><ele>371.4</ele><time>2026-03-29T14:36:50.836Z</time></trkpt><trkpt lat="45.7430567" lon="9.320822"><ele>370.59999999999997</ele><time>2026-03-29T14:36:52.844Z</time></trkpt><trkpt lat="45.7429865" lon="9.3206887"><ele>369.79999999999995</ele><time>2026-03-29T14:36:54.836Z</time></trkpt><trkpt lat="45.7429289" lon="9.3206462"><ele>369.0</ele><time>2026-03-29T14:36:55.85Z</time></trkpt><trkpt lat="45.7428064" lon="9.3206757"><ele>369.0</ele><time>2026-03-29T14:36:57.831Z</time></trkpt><trkpt lat="45.7427261" lon="9.3207174"><ele>369.0</ele><time>2026-03-29T14:36:58.825Z</time></trkpt><trkpt lat="45.7426341" lon="9.3207276"><ele>369.0</ele><time>2026-03-29T14:36:59.828Z</time></trkpt><trkpt lat="45.7425421" lon="9.3207138"><ele>369.0</ele><time>2026-03-29T14:37:00.836Z</time></trkpt><trkpt lat="45.7424322" lon="9.3206917"><ele>369.0</ele><time>2026-03-29T14:37:01.834Z</time></trkpt><trkpt lat="45.7423195" lon="9.3206704"><ele>369.0</ele><time>2026-03-29T14:37:02.832Z</time></trkpt><trkpt lat="45.7422031" lon="9.3206533"><ele>369.0</ele><time>2026-03-29T14:37:03.838Z</time></trkpt><trkpt lat="45.7420718" lon="9.3206415"><ele>369.0</ele><time>2026-03-29T14:37:04.835Z</time></trkpt><trkpt lat="45.7419321" lon="9.3206324"><ele>369.0</ele><time>2026-03-29T14:37:05.833Z</time></trkpt><trkpt lat="45.7417698" lon="9.3206199"><ele>369.0</ele><time>2026-03-29T14:37:06.837Z</time></trkpt><trkpt lat="45.741595" lon="9.3206113"><ele>369.0</ele><time>2026-03-29T14:37:07.833Z</time></trkpt><trkpt lat="45.7414537" lon="9.320601"><ele>369.0</ele><time>2026-03-29T14:37:08.826Z</time></trkpt><trkpt lat="45.7413241" lon="9.3205868"><ele>369.0</ele><time>2026-03-29T14:37:09.84Z</time></trkpt><trkpt lat="45.7411744" lon="9.3205743"><ele>368.75</ele><time>2026-03-29T14:37:10.838Z</time></trkpt><trkpt lat="45.7410406" lon="9.3205565"><ele>368.5</ele><time>2026-03-29T14:37:11.84Z</time></trkpt><trkpt lat="45.7409038" lon="9.3205225"><ele>368.25</ele><time>2026-03-29T14:37:12.861Z</time></trkpt><trkpt lat="45.7407782" lon="9.3204884"><ele>368.0</ele><time>2026-03-29T14:37:13.833Z</time></trkpt><trkpt lat="45.740672" lon="9.3204865"><ele>368.0</ele><time>2026-03-29T14:37:14.835Z</time></trkpt><trkpt lat="45.7405733" lon="9.3204941"><ele>368.0</ele><time>2026-03-29T14:37:15.843Z</time></trkpt><trkpt lat="45.7404854" lon="9.3204866"><ele>368.0</ele><time>2026-03-29T14:37:16.823Z</time></trkpt><trkpt lat="45.7404093" lon="9.3204703"><ele>368.0</ele><time>2026-03-29T14:37:17.836Z</time></trkpt><trkpt lat="45.740313" lon="9.3204358"><ele>368.0</ele><time>2026-03-29T14:37:19.821Z</time></trkpt><trkpt lat="45.740219" lon="9.3204083"><ele>368.75</ele><time>2026-03-29T14:37:23.837Z</time></trkpt><trkpt lat="45.7401571" lon="9.3203903"><ele>369.5</ele><time>2026-03-29T14:37:24.831Z</time></trkpt><trkpt lat="45.7400091" lon="9.320411"><ele>370.25</ele><time>2026-03-29T14:37:26.835Z</time></trkpt><trkpt lat="45.7398967" lon="9.3204823"><ele>371.0</ele><time>2026-03-29T14:37:27.83Z</time></trkpt><trkpt lat="45.739763" lon="9.3205216"><ele>371.0</ele><time>2026-03-29T14:37:28.827Z</time></trkpt><trkpt lat="45.7396223" lon="9.3205411"><ele>371.0</ele><time>2026-03-29T14:37:29.832Z</time></trkpt><trkpt lat="45.73947" lon="9.32058"><ele>371.0</ele><time>2026-03-29T14:37:30.835Z</time></trkpt><trkpt lat="45.7392787" lon="9.3206282"><ele>372.33333333333337</ele><time>2026-03-29T14:37:31.831Z</time></trkpt><trkpt lat="45.7390965" lon="9.3206634"><ele>373.6666666666667</ele><time>2026-03-29T14:37:32.861Z</time></trkpt><trkpt lat="45.7389327" lon="9.3206835"><ele>375.0</ele><time>2026-03-29T14:37:33.835Z</time></trkpt><trkpt lat="45.7387671" lon="9.320694"><ele>375.0</ele><time>2026-03-29T14:37:34.851Z</time></trkpt><trkpt lat="45.7386197" lon="9.3206912"><ele>375.0</ele><time>2026-03-29T14:37:35.854Z</time></trkpt><trkpt lat="45.7384774" lon="9.3206723"><ele>375.0</ele><time>2026-03-29T14:37:36.835Z</time></trkpt><trkpt lat="45.7383422" lon="9.3206102"><ele>375.0</ele><time>2026-03-29T14:37:37.826Z</time></trkpt><trkpt lat="45.7381883" lon="9.3205273"><ele>374.0</ele><time>2026-03-29T14:37:38.838Z</time></trkpt><trkpt lat="45.7380309" lon="9.3204167"><ele>373.0</ele><time>2026-03-29T14:37:39.839Z</time></trkpt><trkpt lat="45.7378713" lon="9.3202981"><ele>372.0</ele><time>2026-03-29T14:37:40.827Z</time></trkpt><trkpt lat="45.7377187" lon="9.320193"><ele>374.5</ele><time>2026-03-29T14:37:41.84Z</time></trkpt><trkpt lat="45.7375869" lon="9.3201032"><ele>377.0</ele><time>2026-03-29T14:37:42.838Z</time></trkpt><trkpt lat="45.7374608" lon="9.3200055"><ele>379.5</ele><time>2026-03-29T14:37:43.83Z</time></trkpt><trkpt lat="45.7373281" lon="9.319903"><ele>382.0</ele><time>2026-03-29T14:37:44.836Z</time></trkpt><trkpt lat="45.7371834" lon="9.3197903"><ele>379.66666666666663</ele><time>2026-03-29T14:37:45.838Z</time></trkpt><trkpt lat="45.7370004" lon="9.3196589"><ele>377.3333333333333</ele><time>2026-03-29T14:37:46.828Z</time></trkpt><trkpt lat="45.7368177" lon="9.3195286"><ele>375.0</ele><time>2026-03-29T14:37:47.836Z</time></trkpt><trkpt lat="45.7366478" lon="9.3193923"><ele>375.0</ele><time>2026-03-29T14:37:48.858Z</time></trkpt><trkpt lat="45.7364999" lon="9.3192875"><ele>375.0</ele><time>2026-03-29T14:37:49.825Z</time></trkpt><trkpt lat="45.7363646" lon="9.3191958"><ele>375.0</ele><time>2026-03-29T14:37:50.82Z</time></trkpt><trkpt lat="45.7362407" lon="9.3191172"><ele>375.0</ele><time>2026-03-29T14:37:51.83Z</time></trkpt><trkpt lat="45.7361255" lon="9.3190829"><ele>375.0</ele><time>2026-03-29T14:37:52.818Z</time></trkpt><trkpt lat="45.7359895" lon="9.3190406"><ele>375.0</ele><time>2026-03-29T14:37:53.833Z</time></trkpt><trkpt lat="45.7358522" lon="9.3189954"><ele>375.0</ele><time>2026-03-29T14:37:54.829Z</time></trkpt><trkpt lat="45.7357331" lon="9.318963"><ele>375.8</ele><time>2026-03-29T14:37:55.817Z</time></trkpt><trkpt lat="45.7356204" lon="9.3189326"><ele>376.6</ele><time>2026-03-29T14:37:56.827Z</time></trkpt><trkpt lat="45.7355252" lon="9.3188982"><ele>377.4</ele><time>2026-03-29T14:37:57.817Z</time></trkpt><trkpt lat="45.73543" lon="9.3188763"><ele>378.2</ele><time>2026-03-29T14:37:58.822Z</time></trkpt><trkpt lat="45.7353381" lon="9.3188426"><ele>379.0</ele><time>2026-03-29T14:37:59.822Z</time></trkpt><trkpt lat="45.7352483" lon="9.3188021"><ele>379.5</ele><time>2026-03-29T14:38:00.823Z</time></trkpt><trkpt lat="45.7351639" lon="9.3187602"><ele>380.0</ele><time>2026-03-29T14:38:01.826Z</time></trkpt><trkpt lat="45.7351019" lon="9.3187131"><ele>380.5</ele><time>2026-03-29T14:38:02.824Z</time></trkpt><trkpt lat="45.7349959" lon="9.3186076"><ele>381.0</ele><time>2026-03-29T14:38:04.827Z</time></trkpt><trkpt lat="45.7349358" lon="9.3185554"><ele>381.5</ele><time>2026-03-29T14:38:05.826Z</time></trkpt><trkpt lat="45.7348653" lon="9.3185097"><ele>382.0</ele><time>2026-03-29T14:38:06.83Z</time></trkpt><trkpt lat="45.734791" lon="9.318459"><ele>382.0</ele><time>2026-03-29T14:38:07.82Z</time></trkpt><trkpt lat="45.7347268" lon="9.3183837"><ele>382.0</ele><time>2026-03-29T14:38:08.847Z</time></trkpt><trkpt lat="45.7346579" lon="9.318293"><ele>382.0</ele><time>2026-03-29T14:38:09.828Z</time></trkpt><trkpt lat="45.7345867" lon="9.3182001"><ele>382.0</ele><time>2026-03-29T14:38:10.818Z</time></trkpt><trkpt lat="45.7345282" lon="9.3180929"><ele>382.0</ele><time>2026-03-29T14:38:11.83Z</time></trkpt><trkpt lat="45.7344779" lon="9.3179639"><ele>381.8</ele><time>2026-03-29T14:38:12.829Z</time></trkpt><trkpt lat="45.7344345" lon="9.3178207"><ele>381.6</ele><time>2026-03-29T14:38:13.822Z</time></trkpt><trkpt lat="45.7343868" lon="9.3176721"><ele>381.40000000000003</ele><time>2026-03-29T14:38:14.832Z</time></trkpt><trkpt lat="45.7343305" lon="9.3175323"><ele>381.20000000000005</ele><time>2026-03-29T14:38:15.829Z</time></trkpt><trkpt lat="45.7342714" lon="9.3173936"><ele>381.0</ele><time>2026-03-29T14:38:16.83Z</time></trkpt><trkpt lat="45.7342085" lon="9.3172647"><ele>381.75</ele><time>2026-03-29T14:38:17.828Z</time></trkpt><trkpt lat="45.7341349" lon="9.3171427"><ele>382.5</ele><time>2026-03-29T14:38:18.83Z</time></trkpt><trkpt lat="45.7340461" lon="9.3170219"><ele>383.25</ele><time>2026-03-29T14:38:19.828Z</time></trkpt><trkpt lat="45.7339407" lon="9.3169"><ele>384.0</ele><time>2026-03-29T14:38:20.828Z</time></trkpt><trkpt lat="45.7338237" lon="9.316776"><ele>384.0</ele><time>2026-03-29T14:38:21.83Z</time></trkpt><trkpt lat="45.7336959" lon="9.3166369"><ele>384.0</ele><time>2026-03-29T14:38:22.826Z</time></trkpt><trkpt lat="45.7335477" lon="9.3164984"><ele>384.0</ele><time>2026-03-29T14:38:23.903Z</time></trkpt><trkpt lat="45.733388" lon="9.3163502"><ele>383.5</ele><time>2026-03-29T14:38:24.827Z</time></trkpt><trkpt lat="45.7332524" lon="9.316197"><ele>383.0</ele><time>2026-03-29T14:38:25.821Z</time></trkpt><trkpt lat="45.7331439" lon="9.3160672"><ele>382.5</ele><time>2026-03-29T14:38:26.826Z</time></trkpt><trkpt lat="45.733051" lon="9.3159761"><ele>382.0</ele><time>2026-03-29T14:38:27.828Z</time></trkpt><trkpt lat="45.73294" lon="9.3159075"><ele>382.0</ele><time>2026-03-29T14:38:28.822Z</time></trkpt><trkpt lat="45.7328013" lon="9.3158432"><ele>382.0</ele><time>2026-03-29T14:38:29.831Z</time></trkpt><trkpt lat="45.7326716" lon="9.3158192"><ele>382.0</ele><time>2026-03-29T14:38:30.834Z</time></trkpt><trkpt lat="45.732557" lon="9.3158409"><ele>382.0</ele><time>2026-03-29T14:38:31.824Z</time></trkpt><trkpt lat="45.7324432" lon="9.3158615"><ele>382.5</ele><time>2026-03-29T14:38:32.831Z</time></trkpt><trkpt lat="45.7323377" lon="9.3159117"><ele>383.0</ele><time>2026-03-29T14:38:33.832Z</time></trkpt><trkpt lat="45.7322376" lon="9.315972"><ele>383.5</ele><time>2026-03-29T14:38:34.823Z</time></trkpt><trkpt lat="45.7321419" lon="9.3160553"><ele>384.0</ele><time>2026-03-29T14:38:35.83Z</time></trkpt><trkpt lat="45.732049" lon="9.3161624"><ele>384.0</ele><time>2026-03-29T14:38:36.828Z</time></trkpt><trkpt lat="45.7319497" lon="9.3162982"><ele>384.0</ele><time>2026-03-29T14:38:37.819Z</time></trkpt><trkpt lat="45.731834" lon="9.3164681"><ele>384.0</ele><time>2026-03-29T14:38:38.821Z</time></trkpt><trkpt lat="45.7316484" lon="9.316661"><ele>384.66666666666663</ele><time>2026-03-29T14:38:39.829Z</time></trkpt><trkpt lat="45.7314737" lon="9.3168439"><ele>385.3333333333333</ele><time>2026-03-29T14:38:40.822Z</time></trkpt><trkpt lat="45.731306" lon="9.3170099"><ele>386.0</ele><time>2026-03-29T14:38:41.825Z</time></trkpt><trkpt lat="45.7311509" lon="9.3171852"><ele>385.66666666666663</ele><time>2026-03-29T14:38:42.831Z</time></trkpt><trkpt lat="45.7310143" lon="9.3173736"><ele>385.33333333333337</ele><time>2026-03-29T14:38:43.821Z</time></trkpt><trkpt lat="45.7309014" lon="9.3175611"><ele>385.0</ele><time>2026-03-29T14:38:44.827Z</time></trkpt><trkpt lat="45.730806" lon="9.3177484"><ele>385.0</ele><time>2026-03-29T14:38:45.826Z</time></trkpt><trkpt lat="45.7306979" lon="9.317928"><ele>385.0</ele><time>2026-03-29T14:38:46.819Z</time></trkpt><trkpt lat="45.7305639" lon="9.3180151"><ele>385.0</ele><time>2026-03-29T14:38:47.825Z</time></trkpt><trkpt lat="45.7304081" lon="9.3180465"><ele>385.0</ele><time>2026-03-29T14:38:48.817Z</time></trkpt><trkpt lat="45.7302718" lon="9.3180538"><ele>385.0</ele><time>2026-03-29T14:38:49.82Z</time></trkpt><trkpt lat="45.7301105" lon="9.3179829"><ele>385.0</ele><time>2026-03-29T14:38:50.826Z</time></trkpt><trkpt lat="45.7299497" lon="9.3178691"><ele>383.6666666666667</ele><time>2026-03-29T14:38:51.82Z</time></trkpt><trkpt lat="45.7297882" lon="9.317748"><ele>382.33333333333337</ele><time>2026-03-29T14:38:52.816Z</time></trkpt><trkpt lat="45.7296169" lon="9.3176199"><ele>381.0</ele><time>2026-03-29T14:38:53.825Z</time></trkpt><trkpt lat="45.7294438" lon="9.3175216"><ele>383.0</ele><time>2026-03-29T14:38:54.821Z</time></trkpt><trkpt lat="45.7292716" lon="9.3174025"><ele>385.0</ele><time>2026-03-29T14:38:55.829Z</time></trkpt><trkpt lat="45.7291149" lon="9.3172888"><ele>387.0</ele><time>2026-03-29T14:38:56.831Z</time></trkpt><trkpt lat="45.7289612" lon="9.3171688"><ele>384.3333333333333</ele><time>2026-03-29T14:38:57.831Z</time></trkpt><trkpt lat="45.7288154" lon="9.3170539"><ele>381.66666666666663</ele><time>2026-03-29T14:38:58.829Z</time></trkpt><trkpt lat="45.7286466" lon="9.3169301"><ele>379.0</ele><time>2026-03-29T14:38:59.836Z</time></trkpt><trkpt lat="45.7284817" lon="9.3168074"><ele>379.0</ele><time>2026-03-29T14:39:00.857Z</time></trkpt><trkpt lat="45.7282964" lon="9.316686"><ele>379.0</ele><time>2026-03-29T14:39:01.85Z</time></trkpt><trkpt lat="45.7281058" lon="9.3165829"><ele>379.0</ele><time>2026-03-29T14:39:02.837Z</time></trkpt><trkpt lat="45.7279118" lon="9.3164788"><ele>379.0</ele><time>2026-03-29T14:39:03.83Z</time></trkpt><trkpt lat="45.7277352" lon="9.3164115"><ele>379.0</ele><time>2026-03-29T14:39:04.819Z</time></trkpt><trkpt lat="45.7275385" lon="9.3163639"><ele>379.0</ele><time>2026-03-29T14:39:05.836Z</time></trkpt><trkpt lat="45.727335" lon="9.3163064"><ele>376.0</ele><time>2026-03-29T14:39:06.822Z</time></trkpt><trkpt lat="45.7271326" lon="9.3162595"><ele>373.0</ele><time>2026-03-29T14:39:07.821Z</time></trkpt><trkpt lat="45.7269299" lon="9.3162664"><ele>370.0</ele><time>2026-03-29T14:39:08.825Z</time></trkpt><trkpt lat="45.7267336" lon="9.3162708"><ele>369.3333333333333</ele><time>2026-03-29T14:39:09.831Z</time></trkpt><trkpt lat="45.7265426" lon="9.3162924"><ele>368.6666666666667</ele><time>2026-03-29T14:39:10.82Z</time></trkpt><trkpt lat="45.7263499" lon="9.3163829"><ele>368.0</ele><time>2026-03-29T14:39:11.832Z</time></trkpt><trkpt lat="45.7261516" lon="9.3164701"><ele>369.6666666666667</ele><time>2026-03-29T14:39:12.828Z</time></trkpt><trkpt lat="45.7259695" lon="9.316544"><ele>371.3333333333333</ele><time>2026-03-29T14:39:13.824Z</time></trkpt><trkpt lat="45.7257834" lon="9.3166201"><ele>373.0</ele><time>2026-03-29T14:39:14.824Z</time></trkpt><trkpt lat="45.725613" lon="9.3167083"><ele>373.0</ele><time>2026-03-29T14:39:15.827Z</time></trkpt><trkpt lat="45.7254414" lon="9.3167847"><ele>373.0</ele><time>2026-03-29T14:39:16.819Z</time></trkpt><trkpt lat="45.7252874" lon="9.3168579"><ele>373.0</ele><time>2026-03-29T14:39:17.824Z</time></trkpt><trkpt lat="45.725126" lon="9.3169219"><ele>371.75</ele><time>2026-03-29T14:39:18.826Z</time></trkpt><trkpt lat="45.7249747" lon="9.3169841"><ele>370.5</ele><time>2026-03-29T14:39:19.823Z</time></trkpt><trkpt lat="45.7248435" lon="9.3170187"><ele>369.25</ele><time>2026-03-29T14:39:20.829Z</time></trkpt><trkpt lat="45.7246952" lon="9.3170354"><ele>368.0</ele><time>2026-03-29T14:39:21.827Z</time></trkpt><trkpt lat="45.7245214" lon="9.3170324"><ele>366.33333333333337</ele><time>2026-03-29T14:39:22.825Z</time></trkpt><trkpt lat="45.7243453" lon="9.3169937"><ele>364.6666666666667</ele><time>2026-03-29T14:39:23.837Z</time></trkpt><trkpt lat="45.7241761" lon="9.3169602"><ele>363.0</ele><time>2026-03-29T14:39:24.837Z</time></trkpt><trkpt lat="45.7239972" lon="9.3169369"><ele>363.0</ele><time>2026-03-29T14:39:25.827Z</time></trkpt><trkpt lat="45.7238147" lon="9.3169088"><ele>363.0</ele><time>2026-03-29T14:39:26.838Z</time></trkpt><trkpt lat="45.723634" lon="9.3168748"><ele>363.0</ele><time>2026-03-29T14:39:27.833Z</time></trkpt><trkpt lat="45.7234691" lon="9.3168401"><ele>364.3333333333333</ele><time>2026-03-29T14:39:28.825Z</time></trkpt><trkpt lat="45.7232935" lon="9.3168115"><ele>365.66666666666663</ele><time>2026-03-29T14:39:29.834Z</time></trkpt><trkpt lat="45.7231214" lon="9.3168067"><ele>367.0</ele><time>2026-03-29T14:39:30.836Z</time></trkpt><trkpt lat="45.7229347" lon="9.3167895"><ele>367.0</ele><time>2026-03-29T14:39:31.825Z</time></trkpt><trkpt lat="45.7227551" lon="9.3167818"><ele>367.0</ele><time>2026-03-29T14:39:32.833Z</time></trkpt><trkpt lat="45.7225724" lon="9.3167574"><ele>367.0</ele><time>2026-03-29T14:39:33.833Z</time></trkpt><trkpt lat="45.7223549" lon="9.3167272"><ele>366.0</ele><time>2026-03-29T14:39:34.84Z</time></trkpt><trkpt lat="45.7221403" lon="9.3167165"><ele>365.0</ele><time>2026-03-29T14:39:35.836Z</time></trkpt><trkpt lat="45.7219429" lon="9.3167403"><ele>364.0</ele><time>2026-03-29T14:39:36.838Z</time></trkpt><trkpt lat="45.7217528" lon="9.3167677"><ele>363.66666666666663</ele><time>2026-03-29T14:39:37.832Z</time></trkpt><trkpt lat="45.721549" lon="9.3168102"><ele>363.3333333333333</ele><time>2026-03-29T14:39:38.835Z</time></trkpt><trkpt lat="45.7213529" lon="9.3168668"><ele>363.0</ele><time>2026-03-29T14:39:39.836Z</time></trkpt><trkpt lat="45.721168" lon="9.3169165"><ele>363.6666666666667</ele><time>2026-03-29T14:39:40.834Z</time></trkpt><trkpt lat="45.7209902" lon="9.3169702"><ele>364.33333333333337</ele><time>2026-03-29T14:39:41.835Z</time></trkpt><trkpt lat="45.720801" lon="9.3170173"><ele>365.0</ele><time>2026-03-29T14:39:42.838Z</time></trkpt><trkpt lat="45.7206296" lon="9.3170936"><ele>365.0</ele><time>2026-03-29T14:39:43.829Z</time></trkpt><trkpt lat="45.7204675" lon="9.3171589"><ele>365.0</ele><time>2026-03-29T14:39:44.848Z</time></trkpt><trkpt lat="45.7202887" lon="9.3171973"><ele>365.0</ele><time>2026-03-29T14:39:45.844Z</time></trkpt><trkpt lat="45.7201121" lon="9.3172357"><ele>368.5</ele><time>2026-03-29T14:39:46.834Z</time></trkpt><trkpt lat="45.7199774" lon="9.3172983"><ele>372.0</ele><time>2026-03-29T14:39:47.839Z</time></trkpt><trkpt lat="45.719829" lon="9.3173353"><ele>375.5</ele><time>2026-03-29T14:39:48.834Z</time></trkpt><trkpt lat="45.7197093" lon="9.3173851"><ele>379.0</ele><time>2026-03-29T14:39:49.83Z</time></trkpt><trkpt lat="45.7196219" lon="9.3174074"><ele>379.0</ele><time>2026-03-29T14:39:50.833Z</time></trkpt><trkpt lat="45.7195458" lon="9.3173782"><ele>379.0</ele><time>2026-03-29T14:39:51.834Z</time></trkpt><trkpt lat="45.7194663" lon="9.3173126"><ele>379.0</ele><time>2026-03-29T14:39:52.827Z</time></trkpt><trkpt lat="45.7193831" lon="9.3172637"><ele>379.0</ele><time>2026-03-29T14:39:53.837Z</time></trkpt><trkpt lat="45.7192952" lon="9.3172824"><ele>379.0</ele><time>2026-03-29T14:39:54.832Z</time></trkpt><trkpt lat="45.7192182" lon="9.3173505"><ele>379.0</ele><time>2026-03-29T14:39:55.826Z</time></trkpt><trkpt lat="45.7191548" lon="9.3174525"><ele>379.0</ele><time>2026-03-29T14:39:56.831Z</time></trkpt><trkpt lat="45.7190777" lon="9.3175334"><ele>379.0</ele><time>2026-03-29T14:39:57.832Z</time></trkpt><trkpt lat="45.7189903" lon="9.3175709"><ele>379.0</ele><time>2026-03-29T14:39:58.821Z</time></trkpt><trkpt lat="45.7188819" lon="9.3175541"><ele>379.0</ele><time>2026-03-29T14:39:59.833Z</time></trkpt><trkpt lat="45.7187756" lon="9.317541"><ele>379.0</ele><time>2026-03-29T14:40:00.832Z</time></trkpt><trkpt lat="45.7186726" lon="9.3175415"><ele>378.79999999999995</ele><time>2026-03-29T14:40:01.828Z</time></trkpt><trkpt lat="45.71856" lon="9.3175433"><ele>378.59999999999997</ele><time>2026-03-29T14:40:02.827Z</time></trkpt><trkpt lat="45.7184517" lon="9.3175577"><ele>378.4</ele><time>2026-03-29T14:40:03.832Z</time></trkpt><trkpt lat="45.7183533" lon="9.3175916"><ele>378.2</ele><time>2026-03-29T14:40:04.827Z</time></trkpt><trkpt lat="45.7182529" lon="9.317631"><ele>378.0</ele><time>2026-03-29T14:40:05.83Z</time></trkpt><trkpt lat="45.7181472" lon="9.3176875"><ele>378.0</ele><time>2026-03-29T14:40:06.831Z</time></trkpt><trkpt lat="45.7180424" lon="9.3177596"><ele>378.0</ele><time>2026-03-29T14:40:07.829Z</time></trkpt><trkpt lat="45.7179421" lon="9.3178406"><ele>378.0</ele><time>2026-03-29T14:40:08.839Z</time></trkpt><trkpt lat="45.7178449" lon="9.317928"><ele>378.0</ele><time>2026-03-29T14:40:09.841Z</time></trkpt><trkpt lat="45.7177557" lon="9.3180208"><ele>377.0</ele><time>2026-03-29T14:40:10.834Z</time></trkpt><trkpt lat="45.7176685" lon="9.3181126"><ele>376.0</ele><time>2026-03-29T14:40:11.841Z</time></trkpt><trkpt lat="45.7175888" lon="9.3181851"><ele>375.0</ele><time>2026-03-29T14:40:12.839Z</time></trkpt><trkpt lat="45.7175196" lon="9.3182546"><ele>374.0</ele><time>2026-03-29T14:40:13.831Z</time></trkpt><trkpt lat="45.7174428" lon="9.3183106"><ele>373.0</ele><time>2026-03-29T14:40:14.839Z</time></trkpt><trkpt lat="45.7173535" lon="9.318354"><ele>373.0</ele><time>2026-03-29T14:40:15.838Z</time></trkpt><trkpt lat="45.7172519" lon="9.3183852"><ele>373.0</ele><time>2026-03-29T14:40:16.838Z</time></trkpt><trkpt lat="45.7171393" lon="9.3184104"><ele>373.0</ele><time>2026-03-29T14:40:17.841Z</time></trkpt><trkpt lat="45.7170191" lon="9.3184169"><ele>373.0</ele><time>2026-03-29T14:40:18.84Z</time></trkpt><trkpt lat="45.7168876" lon="9.3184153"><ele>373.5</ele><time>2026-03-29T14:40:19.833Z</time></trkpt><trkpt lat="45.7167473" lon="9.318407"><ele>374.0</ele><time>2026-03-29T14:40:20.84Z</time></trkpt><trkpt lat="45.7165956" lon="9.3183785"><ele>374.5</ele><time>2026-03-29T14:40:21.841Z</time></trkpt><trkpt lat="45.716443" lon="9.3183781"><ele>375.0</ele><time>2026-03-29T14:40:22.844Z</time></trkpt><trkpt lat="45.7162916" lon="9.3183891"><ele>375.0</ele><time>2026-03-29T14:40:23.843Z</time></trkpt><trkpt lat="45.7161494" lon="9.3183964"><ele>375.0</ele><time>2026-03-29T14:40:24.837Z</time></trkpt><trkpt lat="45.716016" lon="9.3184193"><ele>375.0</ele><time>2026-03-29T14:40:25.835Z</time></trkpt><trkpt lat="45.7158692" lon="9.3184326"><ele>375.0</ele><time>2026-03-29T14:40:26.841Z</time></trkpt><trkpt lat="45.7157375" lon="9.3184301"><ele>375.25</ele><time>2026-03-29T14:40:27.837Z</time></trkpt><trkpt lat="45.7156025" lon="9.3184417"><ele>375.5</ele><time>2026-03-29T14:40:28.839Z</time></trkpt><trkpt lat="45.7154653" lon="9.3184567"><ele>375.75</ele><time>2026-03-29T14:40:29.839Z</time></trkpt><trkpt lat="45.7153322" lon="9.318455"><ele>376.0</ele><time>2026-03-29T14:40:30.837Z</time></trkpt><trkpt lat="45.7151892" lon="9.3184684"><ele>376.5</ele><time>2026-03-29T14:40:31.838Z</time></trkpt><trkpt lat="45.7150399" lon="9.318478"><ele>377.0</ele><time>2026-03-29T14:40:32.834Z</time></trkpt><trkpt lat="45.7149055" lon="9.3184763"><ele>377.5</ele><time>2026-03-29T14:40:33.836Z</time></trkpt><trkpt lat="45.7147917" lon="9.3184774"><ele>378.0</ele><time>2026-03-29T14:40:34.833Z</time></trkpt><trkpt lat="45.7146881" lon="9.3184713"><ele>378.0</ele><time>2026-03-29T14:40:35.835Z</time></trkpt><trkpt lat="45.7145792" lon="9.3184821"><ele>378.0</ele><time>2026-03-29T14:40:36.841Z</time></trkpt><trkpt lat="45.7144912" lon="9.3184881"><ele>378.0</ele><time>2026-03-29T14:40:37.831Z</time></trkpt><trkpt lat="45.7144189" lon="9.3184911"><ele>378.0</ele><time>2026-03-29T14:40:38.835Z</time></trkpt><trkpt lat="45.7143353" lon="9.3185017"><ele>378.0</ele><time>2026-03-29T14:40:39.833Z</time></trkpt><trkpt lat="45.7142617" lon="9.3184951"><ele>378.0</ele><time>2026-03-29T14:40:40.834Z</time></trkpt><trkpt lat="45.7141599" lon="9.3184646"><ele>378.75</ele><time>2026-03-29T14:40:42.832Z</time></trkpt><trkpt lat="45.7140664" lon="9.3184186"><ele>379.5</ele><time>2026-03-29T14:40:47.835Z</time></trkpt><trkpt lat="45.7139176" lon="9.3184329"><ele>380.25</ele><time>2026-03-29T14:40:49.822Z</time></trkpt><trkpt lat="45.7138013" lon="9.3184921"><ele>381.0</ele><time>2026-03-29T14:40:50.826Z</time></trkpt><trkpt lat="45.7136707" lon="9.3185378"><ele>381.5</ele><time>2026-03-29T14:40:51.827Z</time></trkpt><trkpt lat="45.7135318" lon="9.3185508"><ele>382.0</ele><time>2026-03-29T14:40:52.816Z</time></trkpt><trkpt lat="45.7133882" lon="9.3185699"><ele>382.5</ele><time>2026-03-29T14:40:53.822Z</time></trkpt><trkpt lat="45.7132404" lon="9.3185854"><ele>383.0</ele><time>2026-03-29T14:40:54.823Z</time></trkpt><trkpt lat="45.713053" lon="9.3185639"><ele>383.0</ele><time>2026-03-29T14:40:55.817Z</time></trkpt><trkpt lat="45.7128913" lon="9.3185665"><ele>383.0</ele><time>2026-03-29T14:40:56.831Z</time></trkpt><trkpt lat="45.7127325" lon="9.3185689"><ele>383.0</ele><time>2026-03-29T14:40:57.825Z</time></trkpt><trkpt lat="45.7125826" lon="9.3185409"><ele>382.6666666666667</ele><time>2026-03-29T14:40:58.819Z</time></trkpt><trkpt lat="45.7124244" lon="9.3184978"><ele>382.3333333333333</ele><time>2026-03-29T14:40:59.829Z</time></trkpt><trkpt lat="45.7122828" lon="9.318454"><ele>382.0</ele><time>2026-03-29T14:41:00.826Z</time></trkpt><trkpt lat="45.712143" lon="9.3184044"><ele>382.0</ele><time>2026-03-29T14:41:01.817Z</time></trkpt><trkpt lat="45.711998" lon="9.3183512"><ele>382.0</ele><time>2026-03-29T14:41:02.825Z</time></trkpt><trkpt lat="45.7118405" lon="9.3182777"><ele>382.0</ele><time>2026-03-29T14:41:03.826Z</time></trkpt><trkpt lat="45.7116649" lon="9.3181985"><ele>380.66666666666663</ele><time>2026-03-29T14:41:04.823Z</time></trkpt><trkpt lat="45.7114985" lon="9.3181354"><ele>379.3333333333333</ele><time>2026-03-29T14:41:05.904Z</time></trkpt><trkpt lat="45.7113437" lon="9.3180741"><ele>378.0</ele><time>2026-03-29T14:41:06.844Z</time></trkpt><trkpt lat="45.7111922" lon="9.3180238"><ele>379.75</ele><time>2026-03-29T14:41:07.825Z</time></trkpt><trkpt lat="45.711052" lon="9.3180003"><ele>381.5</ele><time>2026-03-29T14:41:08.84Z</time></trkpt><trkpt lat="45.7109166" lon="9.3179468"><ele>383.25</ele><time>2026-03-29T14:41:09.842Z</time></trkpt><trkpt lat="45.7107668" lon="9.3178886"><ele>385.0</ele><time>2026-03-29T14:41:10.82Z</time></trkpt><trkpt lat="45.7106234" lon="9.3178292"><ele>385.0</ele><time>2026-03-29T14:41:11.826Z</time></trkpt><trkpt lat="45.7104807" lon="9.3177696"><ele>385.0</ele><time>2026-03-29T14:41:12.813Z</time></trkpt><trkpt lat="45.7103345" lon="9.3177047"><ele>385.0</ele><time>2026-03-29T14:41:13.833Z</time></trkpt><trkpt lat="45.7102006" lon="9.3176203"><ele>385.0</ele><time>2026-03-29T14:41:14.828Z</time></trkpt><trkpt lat="45.7100647" lon="9.3175406"><ele>384.0</ele><time>2026-03-29T14:41:15.825Z</time></trkpt><trkpt lat="45.7099437" lon="9.3174504"><ele>383.0</ele><time>2026-03-29T14:41:16.825Z</time></trkpt><trkpt lat="45.7097952" lon="9.3173397"><ele>382.0</ele><time>2026-03-29T14:41:17.825Z</time></trkpt><trkpt lat="45.709681" lon="9.3172391"><ele>381.0</ele><time>2026-03-29T14:41:18.827Z</time></trkpt><trkpt lat="45.7095691" lon="9.3171178"><ele>381.0</ele><time>2026-03-29T14:41:19.829Z</time></trkpt><trkpt lat="45.7094737" lon="9.3169675"><ele>381.0</ele><time>2026-03-29T14:41:20.833Z</time></trkpt><trkpt lat="45.7093685" lon="9.3168199"><ele>381.0</ele><time>2026-03-29T14:41:21.827Z</time></trkpt><trkpt lat="45.7093011" lon="9.3166611"><ele>381.0</ele><time>2026-03-29T14:41:22.83Z</time></trkpt><trkpt lat="45.7092415" lon="9.3164923"><ele>381.0</ele><time>2026-03-29T14:41:23.835Z</time></trkpt><trkpt lat="45.7091917" lon="9.3163044"><ele>381.0</ele><time>2026-03-29T14:41:24.822Z</time></trkpt><trkpt lat="45.7091455" lon="9.3161359"><ele>381.0</ele><time>2026-03-29T14:41:25.826Z</time></trkpt><trkpt lat="45.7090822" lon="9.3159703"><ele>381.0</ele><time>2026-03-29T14:41:26.826Z</time></trkpt><trkpt lat="45.7090372" lon="9.3158178"><ele>381.0</ele><time>2026-03-29T14:41:27.822Z</time></trkpt><trkpt lat="45.7089915" lon="9.315674"><ele>381.0</ele><time>2026-03-29T14:41:28.826Z</time></trkpt><trkpt lat="45.7089425" lon="9.3155272"><ele>381.0</ele><time>2026-03-29T14:41:29.825Z</time></trkpt><trkpt lat="45.7089035" lon="9.3153909"><ele>381.0</ele><time>2026-03-29T14:41:30.818Z</time></trkpt><trkpt lat="45.7088635" lon="9.3152595"><ele>381.0</ele><time>2026-03-29T14:41:31.821Z</time></trkpt><trkpt lat="45.7088132" lon="9.3151284"><ele>380.6</ele><time>2026-03-29T14:41:32.821Z</time></trkpt><trkpt lat="45.7087572" lon="9.3150069"><ele>380.20000000000005</ele><time>2026-03-29T14:41:33.823Z</time></trkpt><trkpt lat="45.7086898" lon="9.3149019"><ele>379.79999999999995</ele><time>2026-03-29T14:41:34.82Z</time></trkpt><trkpt lat="45.7086137" lon="9.3148101"><ele>379.4</ele><time>2026-03-29T14:41:35.832Z</time></trkpt><trkpt lat="45.7085337" lon="9.3147254"><ele>379.0</ele><time>2026-03-29T14:41:36.821Z</time></trkpt><trkpt lat="45.7084561" lon="9.3146545"><ele>379.0</ele><time>2026-03-29T14:41:37.827Z</time></trkpt><trkpt lat="45.7083833" lon="9.3145974"><ele>379.0</ele><time>2026-03-29T14:41:38.831Z</time></trkpt><trkpt lat="45.7083194" lon="9.3145451"><ele>379.0</ele><time>2026-03-29T14:41:39.823Z</time></trkpt><trkpt lat="45.7082285" lon="9.3144799"><ele>379.0</ele><time>2026-03-29T14:41:41.826Z</time></trkpt><trkpt lat="45.708159" lon="9.3144279"><ele>379.0</ele><time>2026-03-29T14:41:43.835Z</time></trkpt><trkpt lat="45.708078" lon="9.3143287"><ele>379.0</ele><time>2026-03-29T14:41:45.824Z</time></trkpt><trkpt lat="45.7080307" lon="9.3142595"><ele>379.0</ele><time>2026-03-29T14:41:46.825Z</time></trkpt><trkpt lat="45.7079584" lon="9.3142065"><ele>379.0</ele><time>2026-03-29T14:41:47.827Z</time></trkpt><trkpt lat="45.7078809" lon="9.3141981"><ele>379.0</ele><time>2026-03-29T14:41:48.829Z</time></trkpt><trkpt lat="45.7078157" lon="9.3142319"><ele>379.0</ele><time>2026-03-29T14:41:49.825Z</time></trkpt><trkpt lat="45.707763" lon="9.3143046"><ele>379.0</ele><time>2026-03-29T14:41:50.83Z</time></trkpt><trkpt lat="45.7077317" lon="9.3144081"><ele>379.0</ele><time>2026-03-29T14:41:51.834Z</time></trkpt><trkpt lat="45.7077357" lon="9.3145319"><ele>379.0</ele><time>2026-03-29T14:41:52.838Z</time></trkpt><trkpt lat="45.7077701" lon="9.3146509"><ele>379.0</ele><time>2026-03-29T14:41:53.833Z</time></trkpt><trkpt lat="45.7078216" lon="9.3147603"><ele>379.0</ele><time>2026-03-29T14:41:54.839Z</time></trkpt><trkpt lat="45.7078785" lon="9.3148732"><ele>379.0</ele><time>2026-03-29T14:41:55.829Z</time></trkpt><trkpt lat="45.7079126" lon="9.3150056"><ele>379.0</ele><time>2026-03-29T14:41:56.834Z</time></trkpt><trkpt lat="45.707924" lon="9.3151595"><ele>377.0</ele><time>2026-03-29T14:41:57.834Z</time></trkpt><trkpt lat="45.7079285" lon="9.3153229"><ele>375.0</ele><time>2026-03-29T14:41:58.824Z</time></trkpt><trkpt lat="45.7079214" lon="9.3154937"><ele>373.0</ele><time>2026-03-29T14:41:59.829Z</time></trkpt><trkpt lat="45.7079111" lon="9.3156826"><ele>371.0</ele><time>2026-03-29T14:42:00.831Z</time></trkpt><trkpt lat="45.7079008" lon="9.3158643"><ele>370.4</ele><time>2026-03-29T14:42:01.839Z</time></trkpt><trkpt lat="45.7078917" lon="9.3160184"><ele>369.8</ele><time>2026-03-29T14:42:02.828Z</time></trkpt><trkpt lat="45.7078781" lon="9.3161671"><ele>369.2</ele><time>2026-03-29T14:42:03.836Z</time></trkpt><trkpt lat="45.7078633" lon="9.3163234"><ele>368.59999999999997</ele><time>2026-03-29T14:42:04.827Z</time></trkpt><trkpt lat="45.7078545" lon="9.3164946"><ele>368.0</ele><time>2026-03-29T14:42:05.838Z</time></trkpt><trkpt lat="45.7078546" lon="9.3166902"><ele>367.6666666666667</ele><time>2026-03-29T14:42:06.83Z</time></trkpt><trkpt lat="45.7078559" lon="9.3169182"><ele>367.3333333333333</ele><time>2026-03-29T14:42:07.819Z</time></trkpt><trkpt lat="45.7078477" lon="9.3171887"><ele>367.0</ele><time>2026-03-29T14:42:08.832Z</time></trkpt><trkpt lat="45.7078301" lon="9.3174479"><ele>366.3333333333333</ele><time>2026-03-29T14:42:09.834Z</time></trkpt><trkpt lat="45.7078167" lon="9.3177128"><ele>365.6666666666667</ele><time>2026-03-29T14:42:10.827Z</time></trkpt><trkpt lat="45.707797" lon="9.3179862"><ele>365.0</ele><time>2026-03-29T14:42:11.831Z</time></trkpt><trkpt lat="45.7078038" lon="9.3182454"><ele>364.33333333333337</ele><time>2026-03-29T14:42:12.829Z</time></trkpt><trkpt lat="45.7078299" lon="9.3185346"><ele>363.6666666666667</ele><time>2026-03-29T14:42:13.83Z</time></trkpt><trkpt lat="45.7078801" lon="9.3187674"><ele>363.0</ele><time>2026-03-29T14:42:14.837Z</time></trkpt><trkpt lat="45.7079492" lon="9.3190015"><ele>361.6666666666667</ele><time>2026-03-29T14:42:15.836Z</time></trkpt><trkpt lat="45.7080272" lon="9.3192322"><ele>360.33333333333337</ele><time>2026-03-29T14:42:16.836Z</time></trkpt><trkpt lat="45.7081012" lon="9.3194706"><ele>359.0</ele><time>2026-03-29T14:42:17.836Z</time></trkpt><trkpt lat="45.7081719" lon="9.3197019"><ele>357.33333333333337</ele><time>2026-03-29T14:42:18.831Z</time></trkpt><trkpt lat="45.7082599" lon="9.3199415"><ele>355.6666666666667</ele><time>2026-03-29T14:42:19.83Z</time></trkpt><trkpt lat="45.7083516" lon="9.3201709"><ele>354.0</ele><time>2026-03-29T14:42:20.827Z</time></trkpt><trkpt lat="45.7084403" lon="9.3204026"><ele>353.6666666666667</ele><time>2026-03-29T14:42:21.828Z</time></trkpt><trkpt lat="45.70851" lon="9.3206293"><ele>353.33333333333337</ele><time>2026-03-29T14:42:22.826Z</time></trkpt><trkpt lat="45.7085793" lon="9.3208568"><ele>353.0</ele><time>2026-03-29T14:42:23.829Z</time></trkpt><trkpt lat="45.7086529" lon="9.3210664"><ele>352.33333333333337</ele><time>2026-03-29T14:42:24.827Z</time></trkpt><trkpt lat="45.7087229" lon="9.3213177"><ele>351.6666666666667</ele><time>2026-03-29T14:42:25.829Z</time></trkpt><trkpt lat="45.7087985" lon="9.3215331"><ele>351.0</ele><time>2026-03-29T14:42:26.83Z</time></trkpt><trkpt lat="45.7088799" lon="9.321741"><ele>351.0</ele><time>2026-03-29T14:42:27.83Z</time></trkpt><trkpt lat="45.7089517" lon="9.3219668"><ele>351.0</ele><time>2026-03-29T14:42:28.828Z</time></trkpt><trkpt lat="45.7090255" lon="9.3221641"><ele>351.0</ele><time>2026-03-29T14:42:29.835Z</time></trkpt><trkpt lat="45.7090919" lon="9.3223627"><ele>350.0</ele><time>2026-03-29T14:42:30.829Z</time></trkpt><trkpt lat="45.7091302" lon="9.3225802"><ele>349.0</ele><time>2026-03-29T14:42:31.828Z</time></trkpt><trkpt lat="45.7091664" lon="9.3228095"><ele>348.0</ele><time>2026-03-29T14:42:32.823Z</time></trkpt><trkpt lat="45.7091799" lon="9.3230363"><ele>346.3333333333333</ele><time>2026-03-29T14:42:33.828Z</time></trkpt><trkpt lat="45.7091919" lon="9.3232617"><ele>344.66666666666663</ele><time>2026-03-29T14:42:34.82Z</time></trkpt><trkpt lat="45.7091781" lon="9.3235017"><ele>343.0</ele><time>2026-03-29T14:42:35.827Z</time></trkpt><trkpt lat="45.70915" lon="9.323727"><ele>341.3333333333333</ele><time>2026-03-29T14:42:36.832Z</time></trkpt><trkpt lat="45.7091076" lon="9.3239553"><ele>339.6666666666667</ele><time>2026-03-29T14:42:37.82Z</time></trkpt><trkpt lat="45.709062" lon="9.3241683"><ele>338.0</ele><time>2026-03-29T14:42:38.828Z</time></trkpt><trkpt lat="45.7090119" lon="9.3243681"><ele>338.0</ele><time>2026-03-29T14:42:39.827Z</time></trkpt><trkpt lat="45.7089469" lon="9.3245725"><ele>338.0</ele><time>2026-03-29T14:42:40.82Z</time></trkpt><trkpt lat="45.708899" lon="9.3247601"><ele>338.0</ele><time>2026-03-29T14:42:41.825Z</time></trkpt><trkpt lat="45.7088486" lon="9.3249448"><ele>338.0</ele><time>2026-03-29T14:42:42.823Z</time></trkpt><trkpt lat="45.7088009" lon="9.3251249"><ele>336.5</ele><time>2026-03-29T14:42:43.829Z</time></trkpt><trkpt lat="45.7087538" lon="9.3252994"><ele>335.0</ele><time>2026-03-29T14:42:44.833Z</time></trkpt><trkpt lat="45.7086964" lon="9.3254759"><ele>333.5</ele><time>2026-03-29T14:42:45.826Z</time></trkpt><trkpt lat="45.7086419" lon="9.3256735"><ele>332.0</ele><time>2026-03-29T14:42:46.826Z</time></trkpt><trkpt lat="45.7085884" lon="9.3258645"><ele>332.0</ele><time>2026-03-29T14:42:47.831Z</time></trkpt><trkpt lat="45.7085403" lon="9.3260638"><ele>332.0</ele><time>2026-03-29T14:42:48.828Z</time></trkpt><trkpt lat="45.708494" lon="9.3262632"><ele>332.0</ele><time>2026-03-29T14:42:49.83Z</time></trkpt><trkpt lat="45.7084409" lon="9.326491"><ele>330.75</ele><time>2026-03-29T14:42:50.832Z</time></trkpt><trkpt lat="45.7083866" lon="9.3266959"><ele>329.5</ele><time>2026-03-29T14:42:51.827Z</time></trkpt><trkpt lat="45.7083355" lon="9.3268838"><ele>328.25</ele><time>2026-03-29T14:42:52.831Z</time></trkpt><trkpt lat="45.7082892" lon="9.3270755"><ele>327.0</ele><time>2026-03-29T14:42:53.831Z</time></trkpt><trkpt lat="45.708242" lon="9.3272572"><ele>325.75</ele><time>2026-03-29T14:42:54.828Z</time></trkpt><trkpt lat="45.7081995" lon="9.3274554"><ele>324.5</ele><time>2026-03-29T14:42:55.83Z</time></trkpt><trkpt lat="45.7081583" lon="9.3276377"><ele>323.25</ele><time>2026-03-29T14:42:56.827Z</time></trkpt><trkpt lat="45.7081178" lon="9.3277867"><ele>322.0</ele><time>2026-03-29T14:42:57.829Z</time></trkpt><trkpt lat="45.7080853" lon="9.3279377"><ele>319.75</ele><time>2026-03-29T14:42:58.832Z</time></trkpt><trkpt lat="45.7080515" lon="9.3280829"><ele>317.5</ele><time>2026-03-29T14:42:59.837Z</time></trkpt><trkpt lat="45.7080236" lon="9.3282406"><ele>315.25</ele><time>2026-03-29T14:43:00.831Z</time></trkpt><trkpt lat="45.7079789" lon="9.3284361"><ele>313.0</ele><time>2026-03-29T14:43:01.828Z</time></trkpt><trkpt lat="45.7079295" lon="9.3286388"><ele>313.0</ele><time>2026-03-29T14:43:02.827Z</time></trkpt><trkpt lat="45.7078615" lon="9.3288425"><ele>313.0</ele><time>2026-03-29T14:43:03.826Z</time></trkpt><trkpt lat="45.7077614" lon="9.3290467"><ele>313.0</ele><time>2026-03-29T14:43:04.824Z</time></trkpt><trkpt lat="45.7076817" lon="9.329237"><ele>313.75</ele><time>2026-03-29T14:43:05.823Z</time></trkpt><trkpt lat="45.7075946" lon="9.3293936"><ele>314.5</ele><time>2026-03-29T14:43:06.828Z</time></trkpt><trkpt lat="45.7075175" lon="9.3295519"><ele>315.25</ele><time>2026-03-29T14:43:07.819Z</time></trkpt><trkpt lat="45.7074419" lon="9.3296859"><ele>316.0</ele><time>2026-03-29T14:43:08.83Z</time></trkpt><trkpt lat="45.7073549" lon="9.3297794"><ele>314.6</ele><time>2026-03-29T14:43:09.826Z</time></trkpt><trkpt lat="45.7072492" lon="9.329853"><ele>313.20000000000005</ele><time>2026-03-29T14:43:10.829Z</time></trkpt><trkpt lat="45.7071539" lon="9.3299187"><ele>311.79999999999995</ele><time>2026-03-29T14:43:11.824Z</time></trkpt><trkpt lat="45.7070547" lon="9.3299552"><ele>310.4</ele><time>2026-03-29T14:43:12.823Z</time></trkpt><trkpt lat="45.7069877" lon="9.3299929"><ele>309.0</ele><time>2026-03-29T14:43:13.823Z</time></trkpt><trkpt lat="45.7069345" lon="9.3300669"><ele>309.0</ele><time>2026-03-29T14:43:14.831Z</time></trkpt><trkpt lat="45.7069016" lon="9.3301859"><ele>309.0</ele><time>2026-03-29T14:43:15.827Z</time></trkpt><trkpt lat="45.7068558" lon="9.3303131"><ele>309.0</ele><time>2026-03-29T14:43:16.815Z</time></trkpt><trkpt lat="45.7067732" lon="9.3304232"><ele>309.0</ele><time>2026-03-29T14:43:17.831Z</time></trkpt><trkpt lat="45.7066801" lon="9.3305447"><ele>309.0</ele><time>2026-03-29T14:43:18.832Z</time></trkpt><trkpt lat="45.7065959" lon="9.3306965"><ele>309.0</ele><time>2026-03-29T14:43:19.825Z</time></trkpt><trkpt lat="45.7065015" lon="9.3308503"><ele>309.0</ele><time>2026-03-29T14:43:20.828Z</time></trkpt><trkpt lat="45.7063786" lon="9.3309934"><ele>309.0</ele><time>2026-03-29T14:43:21.828Z</time></trkpt><trkpt lat="45.7062785" lon="9.3311372"><ele>309.0</ele><time>2026-03-29T14:43:22.82Z</time></trkpt><trkpt lat="45.706171" lon="9.3312958"><ele>310.0</ele><time>2026-03-29T14:43:23.828Z</time></trkpt><trkpt lat="45.7060777" lon="9.3314608"><ele>311.0</ele><time>2026-03-29T14:43:24.826Z</time></trkpt><trkpt lat="45.7059905" lon="9.3316078"><ele>312.0</ele><time>2026-03-29T14:43:25.827Z</time></trkpt><trkpt lat="45.7059089" lon="9.3317763"><ele>313.0</ele><time>2026-03-29T14:43:26.825Z</time></trkpt><trkpt lat="45.7058568" lon="9.3319801"><ele>313.0</ele><time>2026-03-29T14:43:27.826Z</time></trkpt><trkpt lat="45.7058027" lon="9.3321701"><ele>313.0</ele><time>2026-03-29T14:43:28.818Z</time></trkpt><trkpt lat="45.7057518" lon="9.3323789"><ele>313.0</ele><time>2026-03-29T14:43:29.824Z</time></trkpt><trkpt lat="45.7057173" lon="9.332612"><ele>311.3333333333333</ele><time>2026-03-29T14:43:30.826Z</time></trkpt><trkpt lat="45.7057012" lon="9.3328424"><ele>309.6666666666667</ele><time>2026-03-29T14:43:31.818Z</time></trkpt><trkpt lat="45.7056973" lon="9.3331024"><ele>308.0</ele><time>2026-03-29T14:43:32.824Z</time></trkpt><trkpt lat="45.7057011" lon="9.3333917"><ele>306.33333333333337</ele><time>2026-03-29T14:43:33.822Z</time></trkpt><trkpt lat="45.7056955" lon="9.3336998"><ele>304.6666666666667</ele><time>2026-03-29T14:43:34.821Z</time></trkpt><trkpt lat="45.7056948" lon="9.3340075"><ele>303.0</ele><time>2026-03-29T14:43:35.824Z</time></trkpt><trkpt lat="45.7056849" lon="9.3342939"><ele>301.6666666666667</ele><time>2026-03-29T14:43:36.825Z</time></trkpt><trkpt lat="45.7056795" lon="9.3345859"><ele>300.33333333333337</ele><time>2026-03-29T14:43:37.82Z</time></trkpt><trkpt lat="45.7056803" lon="9.3348518"><ele>299.0</ele><time>2026-03-29T14:43:38.823Z</time></trkpt><trkpt lat="45.7056867" lon="9.3351158"><ele>298.33333333333337</ele><time>2026-03-29T14:43:39.825Z</time></trkpt><trkpt lat="45.7056799" lon="9.3353686"><ele>297.6666666666667</ele><time>2026-03-29T14:43:40.817Z</time></trkpt><trkpt lat="45.7056749" lon="9.3355876"><ele>297.0</ele><time>2026-03-29T14:43:41.828Z</time></trkpt><trkpt lat="45.7056771" lon="9.3357869"><ele>296.75</ele><time>2026-03-29T14:43:42.824Z</time></trkpt><trkpt lat="45.7056666" lon="9.3359902"><ele>296.5</ele><time>2026-03-29T14:43:43.821Z</time></trkpt><trkpt lat="45.7056546" lon="9.3361811"><ele>296.25</ele><time>2026-03-29T14:43:44.829Z</time></trkpt><trkpt lat="45.705635" lon="9.3363734"><ele>296.0</ele><time>2026-03-29T14:43:45.822Z</time></trkpt><trkpt lat="45.7056005" lon="9.3365647"><ele>296.0</ele><time>2026-03-29T14:43:46.821Z</time></trkpt><trkpt lat="45.7055544" lon="9.3367511"><ele>296.0</ele><time>2026-03-29T14:43:47.828Z</time></trkpt><trkpt lat="45.7055172" lon="9.3369195"><ele>296.0</ele><time>2026-03-29T14:43:48.827Z</time></trkpt><trkpt lat="45.7054835" lon="9.3371045"><ele>296.0</ele><time>2026-03-29T14:43:49.826Z</time></trkpt><trkpt lat="45.7054724" lon="9.3373079"><ele>296.0</ele><time>2026-03-29T14:43:50.826Z</time></trkpt><trkpt lat="45.7054853" lon="9.3374938"><ele>296.0</ele><time>2026-03-29T14:43:51.825Z</time></trkpt><trkpt lat="45.7055081" lon="9.3376992"><ele>296.0</ele><time>2026-03-29T14:43:52.826Z</time></trkpt><trkpt lat="45.705555" lon="9.3378916"><ele>296.0</ele><time>2026-03-29T14:43:53.826Z</time></trkpt><trkpt lat="45.7055977" lon="9.3380881"><ele>297.0</ele><time>2026-03-29T14:43:54.822Z</time></trkpt><trkpt lat="45.7056343" lon="9.3383208"><ele>298.0</ele><time>2026-03-29T14:43:55.824Z</time></trkpt><trkpt lat="45.7056597" lon="9.3385477"><ele>299.0</ele><time>2026-03-29T14:43:56.83Z</time></trkpt><trkpt lat="45.7056696" lon="9.3387794"><ele>298.6666666666667</ele><time>2026-03-29T14:43:57.82Z</time></trkpt><trkpt lat="45.7056764" lon="9.3390298"><ele>298.3333333333333</ele><time>2026-03-29T14:43:58.827Z</time></trkpt><trkpt lat="45.7056819" lon="9.3392578"><ele>298.0</ele><time>2026-03-29T14:43:59.83Z</time></trkpt><trkpt lat="45.7056845" lon="9.3395061"><ele>298.0</ele><time>2026-03-29T14:44:00.826Z</time></trkpt><trkpt lat="45.7056858" lon="9.3397614"><ele>298.0</ele><time>2026-03-29T14:44:01.833Z</time></trkpt><trkpt lat="45.7056812" lon="9.3400216"><ele>298.0</ele><time>2026-03-29T14:44:02.827Z</time></trkpt><trkpt lat="45.7056891" lon="9.340282"><ele>299.0</ele><time>2026-03-29T14:44:03.828Z</time></trkpt><trkpt lat="45.7056901" lon="9.3405521"><ele>300.0</ele><time>2026-03-29T14:44:04.829Z</time></trkpt><trkpt lat="45.7056914" lon="9.3407842"><ele>301.0</ele><time>2026-03-29T14:44:05.829Z</time></trkpt><trkpt lat="45.705682" lon="9.3410191"><ele>301.0</ele><time>2026-03-29T14:44:06.825Z</time></trkpt><trkpt lat="45.7056817" lon="9.3412521"><ele>301.0</ele><time>2026-03-29T14:44:07.829Z</time></trkpt><trkpt lat="45.7056806" lon="9.3414676"><ele>301.0</ele><time>2026-03-29T14:44:08.83Z</time></trkpt><trkpt lat="45.7056882" lon="9.3416826"><ele>301.25</ele><time>2026-03-29T14:44:09.83Z</time></trkpt><trkpt lat="45.705687" lon="9.3418985"><ele>301.5</ele><time>2026-03-29T14:44:10.826Z</time></trkpt><trkpt lat="45.7056757" lon="9.3421062"><ele>301.75</ele><time>2026-03-29T14:44:11.826Z</time></trkpt><trkpt lat="45.7056572" lon="9.3422991"><ele>302.0</ele><time>2026-03-29T14:44:12.828Z</time></trkpt><trkpt lat="45.7056233" lon="9.3424932"><ele>302.75</ele><time>2026-03-29T14:44:13.826Z</time></trkpt><trkpt lat="45.7055656" lon="9.3426843"><ele>303.5</ele><time>2026-03-29T14:44:14.835Z</time></trkpt><trkpt lat="45.7054977" lon="9.3428698"><ele>304.25</ele><time>2026-03-29T14:44:15.826Z</time></trkpt><trkpt lat="45.7054313" lon="9.3430685"><ele>305.0</ele><time>2026-03-29T14:44:16.825Z</time></trkpt><trkpt lat="45.7053585" lon="9.3432496"><ele>305.0</ele><time>2026-03-29T14:44:17.829Z</time></trkpt><trkpt lat="45.7052716" lon="9.3434319"><ele>305.0</ele><time>2026-03-29T14:44:18.827Z</time></trkpt><trkpt lat="45.7051793" lon="9.3436101"><ele>305.0</ele><time>2026-03-29T14:44:19.831Z</time></trkpt><trkpt lat="45.7050934" lon="9.3437686"><ele>305.0</ele><time>2026-03-29T14:44:20.832Z</time></trkpt><trkpt lat="45.7050184" lon="9.3439009"><ele>305.25</ele><time>2026-03-29T14:44:21.825Z</time></trkpt><trkpt lat="45.7049306" lon="9.3440536"><ele>305.5</ele><time>2026-03-29T14:44:22.827Z</time></trkpt><trkpt lat="45.7048578" lon="9.3442053"><ele>305.75</ele><time>2026-03-29T14:44:23.824Z</time></trkpt><trkpt lat="45.704776" lon="9.3443565"><ele>306.0</ele><time>2026-03-29T14:44:24.827Z</time></trkpt><trkpt lat="45.7047019" lon="9.3445066"><ele>306.0</ele><time>2026-03-29T14:44:25.827Z</time></trkpt><trkpt lat="45.7046339" lon="9.3446422"><ele>306.0</ele><time>2026-03-29T14:44:26.83Z</time></trkpt><trkpt lat="45.7045789" lon="9.3447523"><ele>306.0</ele><time>2026-03-29T14:44:27.828Z</time></trkpt><trkpt lat="45.7045166" lon="9.344867"><ele>306.0</ele><time>2026-03-29T14:44:28.83Z</time></trkpt><trkpt lat="45.7044546" lon="9.3449774"><ele>306.0</ele><time>2026-03-29T14:44:29.829Z</time></trkpt><trkpt lat="45.704385" lon="9.3450602"><ele>305.3333333333333</ele><time>2026-03-29T14:44:30.829Z</time></trkpt><trkpt lat="45.7043091" lon="9.3451014"><ele>304.6666666666667</ele><time>2026-03-29T14:44:31.827Z</time></trkpt><trkpt lat="45.7042319" lon="9.3451211"><ele>304.0</ele><time>2026-03-29T14:44:32.826Z</time></trkpt><trkpt lat="45.7041734" lon="9.3451606"><ele>303.33333333333337</ele><time>2026-03-29T14:44:33.827Z</time></trkpt><trkpt lat="45.7041523" lon="9.3453313"><ele>302.6666666666667</ele><time>2026-03-29T14:44:35.827Z</time></trkpt><trkpt lat="45.7041622" lon="9.3454352"><ele>302.0</ele><time>2026-03-29T14:44:36.824Z</time></trkpt><trkpt lat="45.7041467" lon="9.3455527"><ele>301.75</ele><time>2026-03-29T14:44:37.825Z</time></trkpt><trkpt lat="45.7041049" lon="9.3456739"><ele>301.5</ele><time>2026-03-29T14:44:38.827Z</time></trkpt><trkpt lat="45.704038" lon="9.3458079"><ele>301.25</ele><time>2026-03-29T14:44:39.832Z</time></trkpt><trkpt lat="45.7039649" lon="9.3459437"><ele>301.0</ele><time>2026-03-29T14:44:40.82Z</time></trkpt><trkpt lat="45.703889" lon="9.3460946"><ele>301.0</ele><time>2026-03-29T14:44:41.825Z</time></trkpt><trkpt lat="45.7038202" lon="9.3462748"><ele>301.0</ele><time>2026-03-29T14:44:42.83Z</time></trkpt><trkpt lat="45.7037554" lon="9.3464751"><ele>301.0</ele><time>2026-03-29T14:44:43.822Z</time></trkpt><trkpt lat="45.7037004" lon="9.3466798"><ele>299.66666666666663</ele><time>2026-03-29T14:44:44.827Z</time></trkpt><trkpt lat="45.7036576" lon="9.3468827"><ele>298.3333333333333</ele><time>2026-03-29T14:44:45.822Z</time></trkpt><trkpt lat="45.7036046" lon="9.3471159"><ele>297.0</ele><time>2026-03-29T14:44:46.823Z</time></trkpt><trkpt lat="45.7035539" lon="9.3473407"><ele>297.0</ele><time>2026-03-29T14:44:47.827Z</time></trkpt><trkpt lat="45.7035007" lon="9.3475537"><ele>297.0</ele><time>2026-03-29T14:44:48.823Z</time></trkpt><trkpt lat="45.7034597" lon="9.3477622"><ele>297.0</ele><time>2026-03-29T14:44:49.821Z</time></trkpt><trkpt lat="45.703416" lon="9.347977"><ele>296.0</ele><time>2026-03-29T14:44:50.828Z</time></trkpt><trkpt lat="45.7033672" lon="9.3481848"><ele>295.0</ele><time>2026-03-29T14:44:51.824Z</time></trkpt><trkpt lat="45.703327" lon="9.3484128"><ele>294.0</ele><time>2026-03-29T14:44:52.827Z</time></trkpt><trkpt lat="45.7033095" lon="9.3486521"><ele>293.6666666666667</ele><time>2026-03-29T14:44:53.832Z</time></trkpt><trkpt lat="45.7033175" lon="9.3488794"><ele>293.33333333333337</ele><time>2026-03-29T14:44:54.823Z</time></trkpt><trkpt lat="45.7033555" lon="9.3491462"><ele>293.0</ele><time>2026-03-29T14:44:55.828Z</time></trkpt><trkpt lat="45.7033742" lon="9.3494008"><ele>293.0</ele><time>2026-03-29T14:44:56.828Z</time></trkpt><trkpt lat="45.7034009" lon="9.3496408"><ele>293.0</ele><time>2026-03-29T14:44:57.826Z</time></trkpt><trkpt lat="45.7034194" lon="9.3499017"><ele>293.0</ele><time>2026-03-29T14:44:58.83Z</time></trkpt><trkpt lat="45.7034318" lon="9.3501444"><ele>292.33333333333337</ele><time>2026-03-29T14:44:59.832Z</time></trkpt><trkpt lat="45.7034457" lon="9.3503908"><ele>291.6666666666667</ele><time>2026-03-29T14:45:00.823Z</time></trkpt><trkpt lat="45.7034563" lon="9.3506186"><ele>291.0</ele><time>2026-03-29T14:45:01.825Z</time></trkpt><trkpt lat="45.7034807" lon="9.3508215"><ele>291.0</ele><time>2026-03-29T14:45:02.824Z</time></trkpt><trkpt lat="45.7035057" lon="9.3510146"><ele>291.0</ele><time>2026-03-29T14:45:03.824Z</time></trkpt><trkpt lat="45.7035311" lon="9.3512355"><ele>291.0</ele><time>2026-03-29T14:45:04.819Z</time></trkpt><trkpt lat="45.7035358" lon="9.3514382"><ele>291.0</ele><time>2026-03-29T14:45:05.822Z</time></trkpt><trkpt lat="45.7035367" lon="9.3516288"><ele>290.3333333333333</ele><time>2026-03-29T14:45:06.814Z</time></trkpt><trkpt lat="45.7035074" lon="9.3518517"><ele>289.66666666666663</ele><time>2026-03-29T14:45:07.817Z</time></trkpt><trkpt lat="45.7034666" lon="9.3520507"><ele>289.0</ele><time>2026-03-29T14:45:08.816Z</time></trkpt><trkpt lat="45.7034079" lon="9.3522686"><ele>289.0</ele><time>2026-03-29T14:45:09.818Z</time></trkpt><trkpt lat="45.7033144" lon="9.3524959"><ele>289.0</ele><time>2026-03-29T14:45:10.814Z</time></trkpt><trkpt lat="45.7032229" lon="9.3527"><ele>289.0</ele><time>2026-03-29T14:45:11.821Z</time></trkpt><trkpt lat="45.703143" lon="9.3529115"><ele>286.5</ele><time>2026-03-29T14:45:12.824Z</time></trkpt><trkpt lat="45.7030593" lon="9.3531202"><ele>284.0</ele><time>2026-03-29T14:45:13.814Z</time></trkpt><trkpt lat="45.7029906" lon="9.3532957"><ele>281.5</ele><time>2026-03-29T14:45:14.821Z</time></trkpt><trkpt lat="45.702922" lon="9.3534634"><ele>279.0</ele><time>2026-03-29T14:45:15.822Z</time></trkpt><trkpt lat="45.7028736" lon="9.3536586"><ele>279.0</ele><time>2026-03-29T14:45:16.816Z</time></trkpt><trkpt lat="45.7028288" lon="9.353865"><ele>279.0</ele><time>2026-03-29T14:45:17.823Z</time></trkpt><trkpt lat="45.7028032" lon="9.3540687"><ele>279.0</ele><time>2026-03-29T14:45:18.824Z</time></trkpt><trkpt lat="45.7027974" lon="9.3542812"><ele>279.0</ele><time>2026-03-29T14:45:19.818Z</time></trkpt><trkpt lat="45.7028213" lon="9.3544946"><ele>279.0</ele><time>2026-03-29T14:45:20.824Z</time></trkpt><trkpt lat="45.7028526" lon="9.3546761"><ele>279.0</ele><time>2026-03-29T14:45:21.822Z</time></trkpt><trkpt lat="45.7028673" lon="9.354854"><ele>279.0</ele><time>2026-03-29T14:45:22.822Z</time></trkpt><trkpt lat="45.7028858" lon="9.3550255"><ele>279.0</ele><time>2026-03-29T14:45:23.826Z</time></trkpt><trkpt lat="45.7028936" lon="9.3551683"><ele>279.0</ele><time>2026-03-29T14:45:24.823Z</time></trkpt><trkpt lat="45.7028851" lon="9.3552964"><ele>279.0</ele><time>2026-03-29T14:45:25.82Z</time></trkpt><trkpt lat="45.7028605" lon="9.3554224"><ele>279.0</ele><time>2026-03-29T14:45:26.826Z</time></trkpt><trkpt lat="45.7028212" lon="9.3555471"><ele>279.0</ele><time>2026-03-29T14:45:27.821Z</time></trkpt><trkpt lat="45.7027803" lon="9.3556741"><ele>279.0</ele><time>2026-03-29T14:45:28.82Z</time></trkpt><trkpt lat="45.7027608" lon="9.3558113"><ele>278.8</ele><time>2026-03-29T14:45:29.823Z</time></trkpt><trkpt lat="45.7027632" lon="9.3559649"><ele>278.59999999999997</ele><time>2026-03-29T14:45:30.822Z</time></trkpt><trkpt lat="45.7027684" lon="9.3561335"><ele>278.4</ele><time>2026-03-29T14:45:31.825Z</time></trkpt><trkpt lat="45.7027545" lon="9.3562932"><ele>278.2</ele><time>2026-03-29T14:45:32.82Z</time></trkpt><trkpt lat="45.7027188" lon="9.3564439"><ele>278.0</ele><time>2026-03-29T14:45:33.824Z</time></trkpt><trkpt lat="45.7026614" lon="9.356584"><ele>276.25</ele><time>2026-03-29T14:45:34.822Z</time></trkpt><trkpt lat="45.7025846" lon="9.3567182"><ele>274.5</ele><time>2026-03-29T14:45:35.825Z</time></trkpt><trkpt lat="45.7025077" lon="9.3568542"><ele>272.75</ele><time>2026-03-29T14:45:36.825Z</time></trkpt><trkpt lat="45.7024375" lon="9.3569865"><ele>271.0</ele><time>2026-03-29T14:45:37.819Z</time></trkpt><trkpt lat="45.7023701" lon="9.3571118"><ele>270.66666666666663</ele><time>2026-03-29T14:45:38.82Z</time></trkpt><trkpt lat="45.702315" lon="9.3572197"><ele>270.3333333333333</ele><time>2026-03-29T14:45:39.818Z</time></trkpt><trkpt lat="45.7022643" lon="9.3573159"><ele>270.0</ele><time>2026-03-29T14:45:40.817Z</time></trkpt><trkpt lat="45.702214" lon="9.3574026"><ele>269.6666666666667</ele><time>2026-03-29T14:45:41.818Z</time></trkpt><trkpt lat="45.702164" lon="9.3575091"><ele>269.33333333333337</ele><time>2026-03-29T14:45:42.818Z</time></trkpt><trkpt lat="45.702105" lon="9.3576256"><ele>269.0</ele><time>2026-03-29T14:45:43.813Z</time></trkpt><trkpt lat="45.7020384" lon="9.3577564"><ele>269.0</ele><time>2026-03-29T14:45:44.819Z</time></trkpt><trkpt lat="45.7019707" lon="9.3578957"><ele>269.0</ele><time>2026-03-29T14:45:45.815Z</time></trkpt><trkpt lat="45.7018975" lon="9.3580416"><ele>269.0</ele><time>2026-03-29T14:45:46.819Z</time></trkpt><trkpt lat="45.7018224" lon="9.3581845"><ele>269.0</ele><time>2026-03-29T14:45:47.814Z</time></trkpt><trkpt lat="45.7017409" lon="9.3583276"><ele>267.75</ele><time>2026-03-29T14:45:48.821Z</time></trkpt><trkpt lat="45.7016477" lon="9.3584657"><ele>266.5</ele><time>2026-03-29T14:45:49.816Z</time></trkpt><trkpt lat="45.701552" lon="9.3585854"><ele>265.25</ele><time>2026-03-29T14:45:50.824Z</time></trkpt><trkpt lat="45.7014451" lon="9.3586995"><ele>264.0</ele><time>2026-03-29T14:45:51.827Z</time></trkpt><trkpt lat="45.7013304" lon="9.3588022"><ele>264.5</ele><time>2026-03-29T14:45:52.827Z</time></trkpt><trkpt lat="45.701209" lon="9.3589067"><ele>265.0</ele><time>2026-03-29T14:45:53.821Z</time></trkpt><trkpt lat="45.7010761" lon="9.359018"><ele>265.5</ele><time>2026-03-29T14:45:54.824Z</time></trkpt><trkpt lat="45.7009418" lon="9.3591194"><ele>266.0</ele><time>2026-03-29T14:45:55.82Z</time></trkpt><trkpt lat="45.7008015" lon="9.3592327"><ele>266.5</ele><time>2026-03-29T14:45:56.827Z</time></trkpt><trkpt lat="45.7006735" lon="9.3593596"><ele>267.0</ele><time>2026-03-29T14:45:57.823Z</time></trkpt><trkpt lat="45.7005595" lon="9.3594945"><ele>267.5</ele><time>2026-03-29T14:45:58.825Z</time></trkpt><trkpt lat="45.7004497" lon="9.3596196"><ele>268.0</ele><time>2026-03-29T14:45:59.831Z</time></trkpt><trkpt lat="45.700347" lon="9.3597234"><ele>267.5</ele><time>2026-03-29T14:46:00.83Z</time></trkpt><trkpt lat="45.7002547" lon="9.3598189"><ele>267.0</ele><time>2026-03-29T14:46:01.824Z</time></trkpt><trkpt lat="45.7001426" lon="9.3599047"><ele>266.5</ele><time>2026-03-29T14:46:02.829Z</time></trkpt><trkpt lat="45.7000346" lon="9.3599699"><ele>266.0</ele><time>2026-03-29T14:46:03.827Z</time></trkpt><trkpt lat="45.6999418" lon="9.3600537"><ele>266.0</ele><time>2026-03-29T14:46:04.818Z</time></trkpt><trkpt lat="45.6998877" lon="9.3601969"><ele>266.0</ele><time>2026-03-29T14:46:05.823Z</time></trkpt><trkpt lat="45.699855" lon="9.3603485"><ele>266.0</ele><time>2026-03-29T14:46:06.826Z</time></trkpt><trkpt lat="45.6998191" lon="9.3605064"><ele>266.0</ele><time>2026-03-29T14:46:07.815Z</time></trkpt><trkpt lat="45.6997617" lon="9.36066"><ele>266.0</ele><time>2026-03-29T14:46:08.821Z</time></trkpt><trkpt lat="45.699677" lon="9.3608032"><ele>266.0</ele><time>2026-03-29T14:46:09.826Z</time></trkpt><trkpt lat="45.6995723" lon="9.3609511"><ele>266.0</ele><time>2026-03-29T14:46:10.828Z</time></trkpt><trkpt lat="45.6994548" lon="9.3610869"><ele>266.0</ele><time>2026-03-29T14:46:11.826Z</time></trkpt><trkpt lat="45.6993478" lon="9.3612192"><ele>266.0</ele><time>2026-03-29T14:46:12.826Z</time></trkpt><trkpt lat="45.6992388" lon="9.3613643"><ele>266.0</ele><time>2026-03-29T14:46:13.818Z</time></trkpt><trkpt lat="45.6991465" lon="9.3615058"><ele>266.0</ele><time>2026-03-29T14:46:14.828Z</time></trkpt><trkpt lat="45.6990349" lon="9.3616334"><ele>266.0</ele><time>2026-03-29T14:46:15.826Z</time></trkpt><trkpt lat="45.6989312" lon="9.3617758"><ele>265.75</ele><time>2026-03-29T14:46:16.82Z</time></trkpt><trkpt lat="45.6988112" lon="9.3619138"><ele>265.5</ele><time>2026-03-29T14:46:17.825Z</time></trkpt><trkpt lat="45.6986997" lon="9.362061"><ele>265.25</ele><time>2026-03-29T14:46:18.829Z</time></trkpt><trkpt lat="45.6985972" lon="9.3621865"><ele>265.0</ele><time>2026-03-29T14:46:19.825Z</time></trkpt><trkpt lat="45.6984762" lon="9.3623281"><ele>265.0</ele><time>2026-03-29T14:46:20.829Z</time></trkpt><trkpt lat="45.6983561" lon="9.3624764"><ele>265.0</ele><time>2026-03-29T14:46:21.83Z</time></trkpt><trkpt lat="45.6982386" lon="9.3626224"><ele>265.0</ele><time>2026-03-29T14:46:22.827Z</time></trkpt><trkpt lat="45.6981188" lon="9.3627764"><ele>265.0</ele><time>2026-03-29T14:46:23.832Z</time></trkpt><trkpt lat="45.6979946" lon="9.3629252"><ele>265.0</ele><time>2026-03-29T14:46:24.831Z</time></trkpt><trkpt lat="45.6978717" lon="9.3630824"><ele>265.0</ele><time>2026-03-29T14:46:25.824Z</time></trkpt><trkpt lat="45.6977542" lon="9.3632388"><ele>263.0</ele><time>2026-03-29T14:46:26.834Z</time></trkpt><trkpt lat="45.6976393" lon="9.3634006"><ele>261.0</ele><time>2026-03-29T14:46:27.83Z</time></trkpt><trkpt lat="45.6975239" lon="9.3635402"><ele>259.0</ele><time>2026-03-29T14:46:28.826Z</time></trkpt><trkpt lat="45.6974246" lon="9.3636803"><ele>259.0</ele><time>2026-03-29T14:46:29.834Z</time></trkpt><trkpt lat="45.6973127" lon="9.3638235"><ele>259.0</ele><time>2026-03-29T14:46:30.832Z</time></trkpt><trkpt lat="45.6972046" lon="9.3639521"><ele>259.0</ele><time>2026-03-29T14:46:31.829Z</time></trkpt><trkpt lat="45.697096" lon="9.3640901"><ele>259.0</ele><time>2026-03-29T14:46:32.834Z</time></trkpt><trkpt lat="45.6969903" lon="9.3642357"><ele>259.25</ele><time>2026-03-29T14:46:33.83Z</time></trkpt><trkpt lat="45.696886" lon="9.3643571"><ele>259.5</ele><time>2026-03-29T14:46:34.824Z</time></trkpt><trkpt lat="45.6967763" lon="9.3644862"><ele>259.75</ele><time>2026-03-29T14:46:35.827Z</time></trkpt><trkpt lat="45.6966809" lon="9.3646004"><ele>260.0</ele><time>2026-03-29T14:46:36.829Z</time></trkpt><trkpt lat="45.696608" lon="9.3647029"><ele>260.33333333333337</ele><time>2026-03-29T14:46:37.824Z</time></trkpt><trkpt lat="45.696559" lon="9.3648008"><ele>260.6666666666667</ele><time>2026-03-29T14:46:38.83Z</time></trkpt><trkpt lat="45.696508" lon="9.3648765"><ele>261.0</ele><time>2026-03-29T14:46:39.827Z</time></trkpt><trkpt lat="45.6964407" lon="9.3649126"><ele>261.3333333333333</ele><time>2026-03-29T14:46:41.827Z</time></trkpt><trkpt lat="45.6963501" lon="9.3648856"><ele>261.66666666666663</ele><time>2026-03-29T14:46:43.834Z</time></trkpt><trkpt lat="45.6962854" lon="9.3648363"><ele>262.0</ele><time>2026-03-29T14:46:44.825Z</time></trkpt><trkpt lat="45.6962135" lon="9.3647672"><ele>261.6</ele><time>2026-03-29T14:46:45.831Z</time></trkpt><trkpt lat="45.6961355" lon="9.3646917"><ele>261.2</ele><time>2026-03-29T14:46:46.825Z</time></trkpt><trkpt lat="45.6960537" lon="9.36461"><ele>260.8</ele><time>2026-03-29T14:46:47.834Z</time></trkpt><trkpt lat="45.6959693" lon="9.364528"><ele>260.4</ele><time>2026-03-29T14:46:48.83Z</time></trkpt><trkpt lat="45.6958874" lon="9.3644362"><ele>260.0</ele><time>2026-03-29T14:46:49.825Z</time></trkpt><trkpt lat="45.6957953" lon="9.3643432"><ele>259.4</ele><time>2026-03-29T14:46:50.829Z</time></trkpt><trkpt lat="45.6956952" lon="9.3642683"><ele>258.8</ele><time>2026-03-29T14:46:51.828Z</time></trkpt><trkpt lat="45.6955955" lon="9.3642385"><ele>258.2</ele><time>2026-03-29T14:46:52.822Z</time></trkpt><trkpt lat="45.6955002" lon="9.3642546"><ele>257.6</ele><time>2026-03-29T14:46:53.823Z</time></trkpt><trkpt lat="45.6954157" lon="9.3643091"><ele>257.0</ele><time>2026-03-29T14:46:54.83Z</time></trkpt><trkpt lat="45.6953421" lon="9.3644083"><ele>257.0</ele><time>2026-03-29T14:46:55.817Z</time></trkpt><trkpt lat="45.6952822" lon="9.3645304"><ele>257.0</ele><time>2026-03-29T14:46:56.828Z</time></trkpt><trkpt lat="45.6952342" lon="9.3646764"><ele>257.0</ele><time>2026-03-29T14:46:57.826Z</time></trkpt><trkpt lat="45.6951903" lon="9.3648322"><ele>257.0</ele><time>2026-03-29T14:46:58.818Z</time></trkpt><trkpt lat="45.6951462" lon="9.3649973"><ele>256.75</ele><time>2026-03-29T14:46:59.829Z</time></trkpt><trkpt lat="45.6950991" lon="9.3651665"><ele>256.5</ele><time>2026-03-29T14:47:00.826Z</time></trkpt><trkpt lat="45.6950539" lon="9.3653328"><ele>256.25</ele><time>2026-03-29T14:47:01.82Z</time></trkpt><trkpt lat="45.6950114" lon="9.3654871"><ele>256.0</ele><time>2026-03-29T14:47:02.821Z</time></trkpt><trkpt lat="45.694968" lon="9.3656159"><ele>257.0</ele><time>2026-03-29T14:47:03.823Z</time></trkpt><trkpt lat="45.6949172" lon="9.3657246"><ele>258.0</ele><time>2026-03-29T14:47:04.813Z</time></trkpt><trkpt lat="45.694857" lon="9.3658125"><ele>259.0</ele><time>2026-03-29T14:47:05.822Z</time></trkpt><trkpt lat="45.6947819" lon="9.365879"><ele>260.0</ele><time>2026-03-29T14:47:06.82Z</time></trkpt><trkpt lat="45.6946896" lon="9.3659198"><ele>261.0</ele><time>2026-03-29T14:47:07.814Z</time></trkpt><trkpt lat="45.6945901" lon="9.3659422"><ele>261.0</ele><time>2026-03-29T14:47:08.822Z</time></trkpt><trkpt lat="45.6944685" lon="9.365941"><ele>261.0</ele><time>2026-03-29T14:47:09.818Z</time></trkpt><trkpt lat="45.69434" lon="9.3659179"><ele>261.0</ele><time>2026-03-29T14:47:10.819Z</time></trkpt><trkpt lat="45.6942156" lon="9.3659019"><ele>261.0</ele><time>2026-03-29T14:47:11.831Z</time></trkpt><trkpt lat="45.6940966" lon="9.365891"><ele>260.6</ele><time>2026-03-29T14:47:12.828Z</time></trkpt><trkpt lat="45.6939769" lon="9.365876"><ele>260.20000000000005</ele><time>2026-03-29T14:47:13.824Z</time></trkpt><trkpt lat="45.6938754" lon="9.3658624"><ele>259.79999999999995</ele><time>2026-03-29T14:47:14.833Z</time></trkpt><trkpt lat="45.693788" lon="9.3658502"><ele>259.4</ele><time>2026-03-29T14:47:15.829Z</time></trkpt><trkpt lat="45.6936889" lon="9.365852"><ele>259.0</ele><time>2026-03-29T14:47:16.819Z</time></trkpt><trkpt lat="45.6935687" lon="9.3658589"><ele>258.3333333333333</ele><time>2026-03-29T14:47:17.83Z</time></trkpt><trkpt lat="45.693421" lon="9.3658567"><ele>257.6666666666667</ele><time>2026-03-29T14:47:18.825Z</time></trkpt><trkpt lat="45.6932403" lon="9.3658326"><ele>257.0</ele><time>2026-03-29T14:47:19.821Z</time></trkpt><trkpt lat="45.6930521" lon="9.3658299"><ele>257.0</ele><time>2026-03-29T14:47:20.834Z</time></trkpt><trkpt lat="45.6928547" lon="9.3658158"><ele>257.0</ele><time>2026-03-29T14:47:21.827Z</time></trkpt><trkpt lat="45.6926465" lon="9.3658004"><ele>257.0</ele><time>2026-03-29T14:47:22.831Z</time></trkpt><trkpt lat="45.6924479" lon="9.3657824"><ele>257.0</ele><time>2026-03-29T14:47:23.831Z</time></trkpt><trkpt lat="45.6922321" lon="9.3657561"><ele>257.0</ele><time>2026-03-29T14:47:24.831Z</time></trkpt><trkpt lat="45.6920128" lon="9.3657344"><ele>257.0</ele><time>2026-03-29T14:47:25.828Z</time></trkpt><trkpt lat="45.691798" lon="9.3657114"><ele>255.33333333333334</ele><time>2026-03-29T14:47:26.833Z</time></trkpt><trkpt lat="45.6915845" lon="9.3656954"><ele>253.66666666666669</ele><time>2026-03-29T14:47:27.828Z</time></trkpt><trkpt lat="45.6913588" lon="9.3656847"><ele>252.0</ele><time>2026-03-29T14:47:28.823Z</time></trkpt><trkpt lat="45.6911359" lon="9.3656762"><ele>251.33333333333331</ele><time>2026-03-29T14:47:29.834Z</time></trkpt><trkpt lat="45.6909086" lon="9.3656676"><ele>250.66666666666666</ele><time>2026-03-29T14:47:30.831Z</time></trkpt><trkpt lat="45.6906912" lon="9.3656568"><ele>250.0</ele><time>2026-03-29T14:47:31.827Z</time></trkpt><trkpt lat="45.6904714" lon="9.3656441"><ele>250.0</ele><time>2026-03-29T14:47:32.831Z</time></trkpt><trkpt lat="45.6902631" lon="9.365626"><ele>250.0</ele><time>2026-03-29T14:47:33.833Z</time></trkpt><trkpt lat="45.6900463" lon="9.3656084"><ele>250.0</ele><time>2026-03-29T14:47:34.826Z</time></trkpt><trkpt lat="45.6898304" lon="9.365592"><ele>249.66666666666666</ele><time>2026-03-29T14:47:35.829Z</time></trkpt><trkpt lat="45.689622" lon="9.365579"><ele>249.33333333333331</ele><time>2026-03-29T14:47:36.833Z</time></trkpt><trkpt lat="45.68941" lon="9.365569"><ele>249.0</ele><time>2026-03-29T14:47:37.822Z</time></trkpt><trkpt lat="45.689206" lon="9.365559"><ele>249.0</ele><time>2026-03-29T14:47:38.835Z</time></trkpt><trkpt lat="45.6890089" lon="9.365553"><ele>249.0</ele><time>2026-03-29T14:47:39.839Z</time></trkpt><trkpt lat="45.6888052" lon="9.3655324"><ele>249.0</ele><time>2026-03-29T14:47:40.838Z</time></trkpt><trkpt lat="45.6886101" lon="9.3655231"><ele>248.33333333333331</ele><time>2026-03-29T14:47:41.835Z</time></trkpt><trkpt lat="45.6884023" lon="9.3655098"><ele>247.66666666666666</ele><time>2026-03-29T14:47:42.838Z</time></trkpt><trkpt lat="45.6881989" lon="9.3654994"><ele>247.0</ele><time>2026-03-29T14:47:43.831Z</time></trkpt><trkpt lat="45.6880141" lon="9.3655352"><ele>247.0</ele><time>2026-03-29T14:47:44.835Z</time></trkpt><trkpt lat="45.6878415" lon="9.365617"><ele>247.0</ele><time>2026-03-29T14:47:45.835Z</time></trkpt><trkpt lat="45.6876644" lon="9.3657285"><ele>247.0</ele><time>2026-03-29T14:47:46.822Z</time></trkpt><trkpt lat="45.6874938" lon="9.3658597"><ele>246.66666666666666</ele><time>2026-03-29T14:47:47.835Z</time></trkpt><trkpt lat="45.6873322" lon="9.3659891"><ele>246.33333333333331</ele><time>2026-03-29T14:47:48.834Z</time></trkpt><trkpt lat="45.6871828" lon="9.3661233"><ele>246.0</ele><time>2026-03-29T14:47:49.827Z</time></trkpt><trkpt lat="45.6870306" lon="9.3662385"><ele>245.33333333333331</ele><time>2026-03-29T14:47:50.835Z</time></trkpt><trkpt lat="45.6868871" lon="9.3663639"><ele>244.66666666666666</ele><time>2026-03-29T14:47:51.834Z</time></trkpt><trkpt lat="45.6867427" lon="9.3664879"><ele>244.0</ele><time>2026-03-29T14:47:52.829Z</time></trkpt><trkpt lat="45.6866148" lon="9.3666015"><ele>244.0</ele><time>2026-03-29T14:47:53.835Z</time></trkpt><trkpt lat="45.6864973" lon="9.3666827"><ele>244.0</ele><time>2026-03-29T14:47:54.832Z</time></trkpt><trkpt lat="45.6863853" lon="9.3667397"><ele>244.0</ele><time>2026-03-29T14:47:55.835Z</time></trkpt><trkpt lat="45.6862838" lon="9.3667871"><ele>244.0</ele><time>2026-03-29T14:47:56.837Z</time></trkpt><trkpt lat="45.6861755" lon="9.3668319"><ele>243.2</ele><time>2026-03-29T14:47:57.837Z</time></trkpt><trkpt lat="45.6860885" lon="9.3668303"><ele>242.39999999999998</ele><time>2026-03-29T14:47:58.832Z</time></trkpt><trkpt lat="45.6859934" lon="9.3668017"><ele>241.6</ele><time>2026-03-29T14:47:59.838Z</time></trkpt><trkpt lat="45.6858981" lon="9.3667439"><ele>240.8</ele><time>2026-03-29T14:48:00.838Z</time></trkpt><trkpt lat="45.6857985" lon="9.3666595"><ele>240.0</ele><time>2026-03-29T14:48:01.836Z</time></trkpt><trkpt lat="45.6856927" lon="9.3665824"><ele>240.0</ele><time>2026-03-29T14:48:02.836Z</time></trkpt><trkpt lat="45.6855724" lon="9.3665062"><ele>240.0</ele><time>2026-03-29T14:48:03.834Z</time></trkpt><trkpt lat="45.6854484" lon="9.3664245"><ele>240.0</ele><time>2026-03-29T14:48:04.828Z</time></trkpt><trkpt lat="45.6853108" lon="9.36635"><ele>240.0</ele><time>2026-03-29T14:48:05.833Z</time></trkpt><trkpt lat="45.6851528" lon="9.3662946"><ele>244.0</ele><time>2026-03-29T14:48:06.836Z</time></trkpt><trkpt lat="45.6850035" lon="9.3662246"><ele>248.0</ele><time>2026-03-29T14:48:07.829Z</time></trkpt><trkpt lat="45.6848601" lon="9.3661363"><ele>252.0</ele><time>2026-03-29T14:48:08.831Z</time></trkpt><trkpt lat="45.6847173" lon="9.3660409"><ele>252.0</ele><time>2026-03-29T14:48:09.837Z</time></trkpt><trkpt lat="45.6845625" lon="9.3659743"><ele>252.0</ele><time>2026-03-29T14:48:10.823Z</time></trkpt><trkpt lat="45.684383" lon="9.3659033"><ele>252.0</ele><time>2026-03-29T14:48:11.832Z</time></trkpt><trkpt lat="45.6842151" lon="9.365845"><ele>250.33333333333331</ele><time>2026-03-29T14:48:12.829Z</time></trkpt><trkpt lat="45.6840529" lon="9.3657942"><ele>248.66666666666666</ele><time>2026-03-29T14:48:13.828Z</time></trkpt><trkpt lat="45.6838944" lon="9.3657454"><ele>247.0</ele><time>2026-03-29T14:48:14.837Z</time></trkpt><trkpt lat="45.683729" lon="9.3656827"><ele>246.0</ele><time>2026-03-29T14:48:15.832Z</time></trkpt><trkpt lat="45.6835695" lon="9.3656292"><ele>245.0</ele><time>2026-03-29T14:48:16.83Z</time></trkpt><trkpt lat="45.6833981" lon="9.3655916"><ele>244.0</ele><time>2026-03-29T14:48:17.834Z</time></trkpt><trkpt lat="45.6832404" lon="9.3655477"><ele>246.33333333333331</ele><time>2026-03-29T14:48:18.834Z</time></trkpt><trkpt lat="45.6830789" lon="9.3654817"><ele>248.66666666666669</ele><time>2026-03-29T14:48:19.826Z</time></trkpt><trkpt lat="45.6829214" lon="9.3654098"><ele>251.0</ele><time>2026-03-29T14:48:20.833Z</time></trkpt><trkpt lat="45.6827574" lon="9.3653196"><ele>251.0</ele><time>2026-03-29T14:48:21.832Z</time></trkpt><trkpt lat="45.6825894" lon="9.3652583"><ele>251.0</ele><time>2026-03-29T14:48:22.823Z</time></trkpt><trkpt lat="45.6824347" lon="9.3652511"><ele>251.0</ele><time>2026-03-29T14:48:23.828Z</time></trkpt><trkpt lat="45.6822633" lon="9.3652687"><ele>251.0</ele><time>2026-03-29T14:48:24.83Z</time></trkpt><trkpt lat="45.6820928" lon="9.3653135"><ele>251.0</ele><time>2026-03-29T14:48:25.825Z</time></trkpt><trkpt lat="45.6819142" lon="9.3653356"><ele>251.0</ele><time>2026-03-29T14:48:26.83Z</time></trkpt><trkpt lat="45.6817452" lon="9.3653404"><ele>253.0</ele><time>2026-03-29T14:48:27.828Z</time></trkpt><trkpt lat="45.6815657" lon="9.3653715"><ele>255.0</ele><time>2026-03-29T14:48:28.817Z</time></trkpt><trkpt lat="45.6813933" lon="9.3653696"><ele>257.0</ele><time>2026-03-29T14:48:29.825Z</time></trkpt><trkpt lat="45.681218" lon="9.3653413"><ele>256.0</ele><time>2026-03-29T14:48:30.822Z</time></trkpt><trkpt lat="45.6810377" lon="9.3653335"><ele>255.0</ele><time>2026-03-29T14:48:31.823Z</time></trkpt><trkpt lat="45.6808678" lon="9.3653146"><ele>254.0</ele><time>2026-03-29T14:48:32.828Z</time></trkpt><trkpt lat="45.6807047" lon="9.3653412"><ele>254.0</ele><time>2026-03-29T14:48:33.827Z</time></trkpt><trkpt lat="45.6805465" lon="9.365375"><ele>254.0</ele><time>2026-03-29T14:48:34.822Z</time></trkpt><trkpt lat="45.68039" lon="9.3653937"><ele>254.0</ele><time>2026-03-29T14:48:35.823Z</time></trkpt><trkpt lat="45.680228" lon="9.3654275"><ele>253.0</ele><time>2026-03-29T14:48:36.845Z</time></trkpt><trkpt lat="45.6800755" lon="9.365496"><ele>252.0</ele><time>2026-03-29T14:48:37.808Z</time></trkpt><trkpt lat="45.6799361" lon="9.3655923"><ele>251.0</ele><time>2026-03-29T14:48:38.976Z</time></trkpt><trkpt lat="45.6796159" lon="9.3657715"><ele>251.0</ele><time>2026-03-29T14:48:40.816Z</time></trkpt><trkpt lat="45.6794546" lon="9.3658532"><ele>251.0</ele><time>2026-03-29T14:48:41.826Z</time></trkpt><trkpt lat="45.6792884" lon="9.3659321"><ele>251.0</ele><time>2026-03-29T14:48:42.82Z</time></trkpt><trkpt lat="45.6791356" lon="9.366056"><ele>253.33333333333334</ele><time>2026-03-29T14:48:43.824Z</time></trkpt><trkpt lat="45.6789709" lon="9.3661663"><ele>255.66666666666669</ele><time>2026-03-29T14:48:44.829Z</time></trkpt><trkpt lat="45.6788261" lon="9.3662779"><ele>258.0</ele><time>2026-03-29T14:48:45.817Z</time></trkpt><trkpt lat="45.6786761" lon="9.3663857"><ele>254.75</ele><time>2026-03-29T14:48:46.817Z</time></trkpt><trkpt lat="45.6785417" lon="9.3664496"><ele>251.5</ele><time>2026-03-29T14:48:47.819Z</time></trkpt><trkpt lat="45.6784027" lon="9.3664629"><ele>248.25</ele><time>2026-03-29T14:48:48.83Z</time></trkpt><trkpt lat="45.6782403" lon="9.3664632"><ele>245.0</ele><time>2026-03-29T14:48:49.821Z</time></trkpt><trkpt lat="45.6780741" lon="9.366427"><ele>245.0</ele><time>2026-03-29T14:48:50.823Z</time></trkpt><trkpt lat="45.6778926" lon="9.3663849"><ele>245.0</ele><time>2026-03-29T14:48:51.823Z</time></trkpt><trkpt lat="45.6777399" lon="9.3663318"><ele>245.0</ele><time>2026-03-29T14:48:52.822Z</time></trkpt><trkpt lat="45.6775745" lon="9.366308"><ele>246.25</ele><time>2026-03-29T14:48:53.825Z</time></trkpt><trkpt lat="45.677425" lon="9.3663065"><ele>247.5</ele><time>2026-03-29T14:48:54.821Z</time></trkpt><trkpt lat="45.6772846" lon="9.3663325"><ele>248.75</ele><time>2026-03-29T14:48:55.813Z</time></trkpt><trkpt lat="45.6771361" lon="9.3664052"><ele>250.0</ele><time>2026-03-29T14:48:56.826Z</time></trkpt><trkpt lat="45.6769772" lon="9.3664762"><ele>246.33333333333331</ele><time>2026-03-29T14:48:57.821Z</time></trkpt><trkpt lat="45.6768297" lon="9.366569"><ele>242.66666666666669</ele><time>2026-03-29T14:48:58.82Z</time></trkpt><trkpt lat="45.6766892" lon="9.3666435"><ele>239.0</ele><time>2026-03-29T14:48:59.824Z</time></trkpt><trkpt lat="45.6765534" lon="9.3666839"><ele>239.0</ele><time>2026-03-29T14:49:00.83Z</time></trkpt><trkpt lat="45.6764017" lon="9.3667"><ele>239.0</ele><time>2026-03-29T14:49:01.824Z</time></trkpt><trkpt lat="45.6762557" lon="9.3666539"><ele>239.0</ele><time>2026-03-29T14:49:02.827Z</time></trkpt><trkpt lat="45.6760997" lon="9.3665678"><ele>238.33333333333334</ele><time>2026-03-29T14:49:03.828Z</time></trkpt><trkpt lat="45.6759395" lon="9.3664762"><ele>237.66666666666669</ele><time>2026-03-29T14:49:04.814Z</time></trkpt><trkpt lat="45.6757806" lon="9.3663745"><ele>237.0</ele><time>2026-03-29T14:49:05.829Z</time></trkpt><trkpt lat="45.6756072" lon="9.3662762"><ele>239.0</ele><time>2026-03-29T14:49:06.832Z</time></trkpt><trkpt lat="45.6754325" lon="9.3661969"><ele>241.0</ele><time>2026-03-29T14:49:07.825Z</time></trkpt><trkpt lat="45.6752728" lon="9.3661249"><ele>243.0</ele><time>2026-03-29T14:49:08.834Z</time></trkpt><trkpt lat="45.6750978" lon="9.3660656"><ele>243.0</ele><time>2026-03-29T14:49:09.83Z</time></trkpt><trkpt lat="45.6749198" lon="9.3660194"><ele>243.0</ele><time>2026-03-29T14:49:10.831Z</time></trkpt><trkpt lat="45.6747536" lon="9.3660018"><ele>243.0</ele><time>2026-03-29T14:49:11.83Z</time></trkpt><trkpt lat="45.6745812" lon="9.3659783"><ele>242.33333333333331</ele><time>2026-03-29T14:49:12.823Z</time></trkpt><trkpt lat="45.6743999" lon="9.3659713"><ele>241.66666666666666</ele><time>2026-03-29T14:49:13.829Z</time></trkpt><trkpt lat="45.6742322" lon="9.3659593"><ele>241.0</ele><time>2026-03-29T14:49:14.832Z</time></trkpt><trkpt lat="45.6740803" lon="9.3659339"><ele>241.0</ele><time>2026-03-29T14:49:15.824Z</time></trkpt><trkpt lat="45.6739265" lon="9.3659339"><ele>241.0</ele><time>2026-03-29T14:49:16.83Z</time></trkpt><trkpt lat="45.6737809" lon="9.3659303"><ele>241.0</ele><time>2026-03-29T14:49:17.83Z</time></trkpt><trkpt lat="45.6736342" lon="9.3659458"><ele>241.0</ele><time>2026-03-29T14:49:18.824Z</time></trkpt><trkpt lat="45.6734953" lon="9.365967"><ele>239.75</ele><time>2026-03-29T14:49:19.836Z</time></trkpt><trkpt lat="45.6733571" lon="9.3660072"><ele>238.5</ele><time>2026-03-29T14:49:20.834Z</time></trkpt><trkpt lat="45.6732266" lon="9.3660711"><ele>237.25</ele><time>2026-03-29T14:49:21.828Z</time></trkpt><trkpt lat="45.6731232" lon="9.3661161"><ele>236.0</ele><time>2026-03-29T14:49:22.832Z</time></trkpt><trkpt lat="45.673036" lon="9.3661414"><ele>236.00000000000003</ele><time>2026-03-29T14:49:23.831Z</time></trkpt><trkpt lat="45.672955" lon="9.3661423"><ele>236.0</ele><time>2026-03-29T14:49:24.82Z</time></trkpt><trkpt lat="45.6728804" lon="9.3660962"><ele>236.0</ele><time>2026-03-29T14:49:25.831Z</time></trkpt><trkpt lat="45.6728095" lon="9.3660362"><ele>236.0</ele><time>2026-03-29T14:49:26.829Z</time></trkpt><trkpt lat="45.6727384" lon="9.3660148"><ele>236.00000000000003</ele><time>2026-03-29T14:49:27.824Z</time></trkpt><trkpt lat="45.6726579" lon="9.3660834"><ele>236.0</ele><time>2026-03-29T14:49:28.832Z</time></trkpt><trkpt lat="45.6725714" lon="9.3661522"><ele>235.0</ele><time>2026-03-29T14:49:29.828Z</time></trkpt><trkpt lat="45.6724662" lon="9.3662216"><ele>234.0</ele><time>2026-03-29T14:49:30.826Z</time></trkpt><trkpt lat="45.6723508" lon="9.3663029"><ele>233.0</ele><time>2026-03-29T14:49:31.841Z</time></trkpt><trkpt lat="45.672231" lon="9.3663934"><ele>232.0</ele><time>2026-03-29T14:49:32.834Z</time></trkpt><trkpt lat="45.6721032" lon="9.3664807"><ele>232.0</ele><time>2026-03-29T14:49:33.828Z</time></trkpt><trkpt lat="45.6719718" lon="9.3665803"><ele>232.0</ele><time>2026-03-29T14:49:34.835Z</time></trkpt><trkpt lat="45.6718239" lon="9.3666736"><ele>232.0</ele><time>2026-03-29T14:49:35.832Z</time></trkpt><trkpt lat="45.6716683" lon="9.3667687"><ele>231.0</ele><time>2026-03-29T14:49:36.827Z</time></trkpt><trkpt lat="45.6715123" lon="9.3668608"><ele>230.0</ele><time>2026-03-29T14:49:37.836Z</time></trkpt><trkpt lat="45.67137" lon="9.3669577"><ele>229.0</ele><time>2026-03-29T14:49:38.833Z</time></trkpt><trkpt lat="45.6712213" lon="9.3670768"><ele>228.75</ele><time>2026-03-29T14:49:39.829Z</time></trkpt><trkpt lat="45.6710867" lon="9.3671899"><ele>228.5</ele><time>2026-03-29T14:49:40.833Z</time></trkpt><trkpt lat="45.6709721" lon="9.3672994"><ele>228.25</ele><time>2026-03-29T14:49:41.835Z</time></trkpt><trkpt lat="45.6708625" lon="9.3674096"><ele>228.0</ele><time>2026-03-29T14:49:42.826Z</time></trkpt><trkpt lat="45.6707624" lon="9.3675149"><ele>228.5</ele><time>2026-03-29T14:49:43.833Z</time></trkpt><trkpt lat="45.6706586" lon="9.3676073"><ele>229.0</ele><time>2026-03-29T14:49:44.832Z</time></trkpt><trkpt lat="45.6705533" lon="9.3676964"><ele>229.5</ele><time>2026-03-29T14:49:45.826Z</time></trkpt><trkpt lat="45.6704622" lon="9.3677886"><ele>230.0</ele><time>2026-03-29T14:49:46.835Z</time></trkpt><trkpt lat="45.670386" lon="9.3678781"><ele>230.00000000000003</ele><time>2026-03-29T14:49:47.832Z</time></trkpt><trkpt lat="45.6703012" lon="9.3679797"><ele>230.0</ele><time>2026-03-29T14:49:48.828Z</time></trkpt><trkpt lat="45.6702264" lon="9.3680602"><ele>230.0</ele><time>2026-03-29T14:49:49.836Z</time></trkpt><trkpt lat="45.6701591" lon="9.3681314"><ele>230.0</ele><time>2026-03-29T14:49:50.831Z</time></trkpt><trkpt lat="45.6701075" lon="9.3681944"><ele>230.00000000000003</ele><time>2026-03-29T14:49:51.83Z</time></trkpt><trkpt lat="45.6700486" lon="9.3682583"><ele>230.0</ele><time>2026-03-29T14:49:53.838Z</time></trkpt><trkpt lat="45.6699717" lon="9.3683373"><ele>230.2</ele><time>2026-03-29T14:49:57.841Z</time></trkpt><trkpt lat="45.6698818" lon="9.3684557"><ele>230.4</ele><time>2026-03-29T14:49:59.832Z</time></trkpt><trkpt lat="45.6698099" lon="9.368594"><ele>230.60000000000002</ele><time>2026-03-29T14:50:01.836Z</time></trkpt><trkpt lat="45.6697675" lon="9.3686802"><ele>230.8</ele><time>2026-03-29T14:50:02.828Z</time></trkpt><trkpt lat="45.669723" lon="9.3687735"><ele>231.0</ele><time>2026-03-29T14:50:03.828Z</time></trkpt><trkpt lat="45.669687" lon="9.3688539"><ele>231.5</ele><time>2026-03-29T14:50:04.831Z</time></trkpt><trkpt lat="45.6696539" lon="9.3689416"><ele>232.0</ele><time>2026-03-29T14:50:05.829Z</time></trkpt><trkpt lat="45.6696232" lon="9.3690308"><ele>232.5</ele><time>2026-03-29T14:50:06.822Z</time></trkpt><trkpt lat="45.6695899" lon="9.3691251"><ele>233.0</ele><time>2026-03-29T14:50:07.829Z</time></trkpt><trkpt lat="45.6695511" lon="9.3692183"><ele>233.5</ele><time>2026-03-29T14:50:08.827Z</time></trkpt><trkpt lat="45.6694928" lon="9.3692961"><ele>234.0</ele><time>2026-03-29T14:50:09.815Z</time></trkpt><trkpt lat="45.6694167" lon="9.3693454"><ele>234.0</ele><time>2026-03-29T14:50:10.822Z</time></trkpt><trkpt lat="45.6693327" lon="9.3693681"><ele>233.99999999999997</ele><time>2026-03-29T14:50:11.823Z</time></trkpt><trkpt lat="45.6692414" lon="9.3693719"><ele>233.99999999999997</ele><time>2026-03-29T14:50:12.822Z</time></trkpt><trkpt lat="45.6691471" lon="9.3693579"><ele>234.0</ele><time>2026-03-29T14:50:13.825Z</time></trkpt><trkpt lat="45.6690459" lon="9.3693431"><ele>234.0</ele><time>2026-03-29T14:50:14.826Z</time></trkpt><trkpt lat="45.6689446" lon="9.3693318"><ele>234.0</ele><time>2026-03-29T14:50:15.822Z</time></trkpt><trkpt lat="45.6688363" lon="9.3693109"><ele>234.0</ele><time>2026-03-29T14:50:16.826Z</time></trkpt><trkpt lat="45.6687255" lon="9.369296"><ele>234.0</ele><time>2026-03-29T14:50:17.825Z</time></trkpt><trkpt lat="45.6686044" lon="9.3692827"><ele>234.0</ele><time>2026-03-29T14:50:18.819Z</time></trkpt><trkpt lat="45.6684865" lon="9.3692778"><ele>234.0</ele><time>2026-03-29T14:50:19.828Z</time></trkpt><trkpt lat="45.6683707" lon="9.3692929"><ele>234.0</ele><time>2026-03-29T14:50:20.833Z</time></trkpt><trkpt lat="45.6682561" lon="9.3693431"><ele>234.0</ele><time>2026-03-29T14:50:21.831Z</time></trkpt><trkpt lat="45.6681509" lon="9.3694165"><ele>234.0</ele><time>2026-03-29T14:50:22.84Z</time></trkpt><trkpt lat="45.6680581" lon="9.3694962"><ele>234.0</ele><time>2026-03-29T14:50:23.842Z</time></trkpt><trkpt lat="45.6679677" lon="9.3695768"><ele>233.99999999999997</ele><time>2026-03-29T14:50:24.836Z</time></trkpt><trkpt lat="45.6678702" lon="9.3696452"><ele>233.99999999999997</ele><time>2026-03-29T14:50:25.844Z</time></trkpt><trkpt lat="45.6677737" lon="9.3696969"><ele>234.0</ele><time>2026-03-29T14:50:26.842Z</time></trkpt><trkpt lat="45.6676796" lon="9.3697312"><ele>234.0</ele><time>2026-03-29T14:50:27.832Z</time></trkpt><trkpt lat="45.6675809" lon="9.369721"><ele>233.75</ele><time>2026-03-29T14:50:28.843Z</time></trkpt><trkpt lat="45.6674774" lon="9.3696851"><ele>233.5</ele><time>2026-03-29T14:50:29.836Z</time></trkpt><trkpt lat="45.6673606" lon="9.3696335"><ele>233.25</ele><time>2026-03-29T14:50:30.825Z</time></trkpt><trkpt lat="45.6672145" lon="9.36956"><ele>233.0</ele><time>2026-03-29T14:50:31.821Z</time></trkpt><trkpt lat="45.6670415" lon="9.3694659"><ele>233.66666666666669</ele><time>2026-03-29T14:50:32.822Z</time></trkpt><trkpt lat="45.6668404" lon="9.3693235"><ele>234.33333333333331</ele><time>2026-03-29T14:50:33.814Z</time></trkpt><trkpt lat="45.6666518" lon="9.3692123"><ele>235.0</ele><time>2026-03-29T14:50:34.824Z</time></trkpt><trkpt lat="45.6664753" lon="9.3691358"><ele>235.0</ele><time>2026-03-29T14:50:35.822Z</time></trkpt><trkpt lat="45.6663058" lon="9.3690533"><ele>235.0</ele><time>2026-03-29T14:50:36.817Z</time></trkpt><trkpt lat="45.6661498" lon="9.3689829"><ele>235.0</ele><time>2026-03-29T14:50:37.83Z</time></trkpt><trkpt lat="45.6659946" lon="9.3689373"><ele>235.33333333333331</ele><time>2026-03-29T14:50:38.819Z</time></trkpt><trkpt lat="45.6658382" lon="9.3689171"><ele>235.66666666666669</ele><time>2026-03-29T14:50:39.823Z</time></trkpt><trkpt lat="45.6656664" lon="9.3689608"><ele>236.0</ele><time>2026-03-29T14:50:40.824Z</time></trkpt><trkpt lat="45.6654919" lon="9.3690296"><ele>236.0</ele><time>2026-03-29T14:50:41.824Z</time></trkpt><trkpt lat="45.665316" lon="9.369092"><ele>236.0</ele><time>2026-03-29T14:50:42.822Z</time></trkpt><trkpt lat="45.6651279" lon="9.3691548"><ele>236.0</ele><time>2026-03-29T14:50:43.823Z</time></trkpt><trkpt lat="45.664925" lon="9.3691796"><ele>234.66666666666669</ele><time>2026-03-29T14:50:44.83Z</time></trkpt><trkpt lat="45.6647093" lon="9.3691823"><ele>233.33333333333331</ele><time>2026-03-29T14:50:45.821Z</time></trkpt><trkpt lat="45.6644807" lon="9.3692014"><ele>232.0</ele><time>2026-03-29T14:50:46.818Z</time></trkpt><trkpt lat="45.6642545" lon="9.369226"><ele>231.5</ele><time>2026-03-29T14:50:47.827Z</time></trkpt><trkpt lat="45.6640232" lon="9.3692386"><ele>231.0</ele><time>2026-03-29T14:50:48.82Z</time></trkpt><trkpt lat="45.6637893" lon="9.3692702"><ele>228.5</ele><time>2026-03-29T14:50:49.824Z</time></trkpt><trkpt lat="45.6635576" lon="9.3692838"><ele>226.0</ele><time>2026-03-29T14:50:50.831Z</time></trkpt><trkpt lat="45.663329" lon="9.3693005"><ele>226.0</ele><time>2026-03-29T14:50:51.827Z</time></trkpt><trkpt lat="45.6631091" lon="9.3693439"><ele>226.0</ele><time>2026-03-29T14:50:52.83Z</time></trkpt><trkpt lat="45.6628881" lon="9.3693782"><ele>226.0</ele><time>2026-03-29T14:50:53.831Z</time></trkpt><trkpt lat="45.662671" lon="9.3694258"><ele>225.33333333333331</ele><time>2026-03-29T14:50:54.832Z</time></trkpt><trkpt lat="45.662475" lon="9.3694689"><ele>224.66666666666669</ele><time>2026-03-29T14:50:55.829Z</time></trkpt><trkpt lat="45.6622677" lon="9.3694688"><ele>224.0</ele><time>2026-03-29T14:50:56.832Z</time></trkpt><trkpt lat="45.6620669" lon="9.3694413"><ele>225.0</ele><time>2026-03-29T14:50:57.829Z</time></trkpt><trkpt lat="45.6618625" lon="9.3693811"><ele>226.0</ele><time>2026-03-29T14:50:58.838Z</time></trkpt><trkpt lat="45.6616652" lon="9.3692929"><ele>227.0</ele><time>2026-03-29T14:50:59.831Z</time></trkpt><trkpt lat="45.6614682" lon="9.369205"><ele>227.0</ele><time>2026-03-29T14:51:00.825Z</time></trkpt><trkpt lat="45.6613022" lon="9.3691298"><ele>227.0</ele><time>2026-03-29T14:51:01.834Z</time></trkpt><trkpt lat="45.6611301" lon="9.3690735"><ele>227.0</ele><time>2026-03-29T14:51:02.831Z</time></trkpt><trkpt lat="45.6609596" lon="9.3690387"><ele>227.66666666666669</ele><time>2026-03-29T14:51:03.824Z</time></trkpt><trkpt lat="45.6607792" lon="9.3690314"><ele>228.33333333333331</ele><time>2026-03-29T14:51:04.825Z</time></trkpt><trkpt lat="45.6605923" lon="9.3690498"><ele>229.0</ele><time>2026-03-29T14:51:05.831Z</time></trkpt><trkpt lat="45.6603974" lon="9.3690773"><ele>228.33333333333331</ele><time>2026-03-29T14:51:06.831Z</time></trkpt><trkpt lat="45.6602022" lon="9.3691184"><ele>227.66666666666669</ele><time>2026-03-29T14:51:07.827Z</time></trkpt><trkpt lat="45.6600042" lon="9.3691603"><ele>227.0</ele><time>2026-03-29T14:51:08.833Z</time></trkpt><trkpt lat="45.659816" lon="9.369199"><ele>227.0</ele><time>2026-03-29T14:51:09.829Z</time></trkpt><trkpt lat="45.659636" lon="9.3692492"><ele>227.0</ele><time>2026-03-29T14:51:10.83Z</time></trkpt><trkpt lat="45.6594696" lon="9.3692875"><ele>227.0</ele><time>2026-03-29T14:51:11.832Z</time></trkpt><trkpt lat="45.6592987" lon="9.3693132"><ele>226.66666666666669</ele><time>2026-03-29T14:51:12.83Z</time></trkpt><trkpt lat="45.6591369" lon="9.3693301"><ele>226.33333333333331</ele><time>2026-03-29T14:51:13.83Z</time></trkpt><trkpt lat="45.6589843" lon="9.3692992"><ele>226.0</ele><time>2026-03-29T14:51:14.834Z</time></trkpt><trkpt lat="45.6588355" lon="9.3692347"><ele>226.0</ele><time>2026-03-29T14:51:15.828Z</time></trkpt><trkpt lat="45.6586867" lon="9.3691537"><ele>226.0</ele><time>2026-03-29T14:51:16.832Z</time></trkpt><trkpt lat="45.6585311" lon="9.3690483"><ele>226.0</ele><time>2026-03-29T14:51:17.836Z</time></trkpt><trkpt lat="45.6583803" lon="9.3689497"><ele>224.66666666666666</ele><time>2026-03-29T14:51:18.827Z</time></trkpt><trkpt lat="45.6582152" lon="9.3688666"><ele>223.33333333333331</ele><time>2026-03-29T14:51:19.83Z</time></trkpt><trkpt lat="45.6580553" lon="9.3687739"><ele>222.0</ele><time>2026-03-29T14:51:20.835Z</time></trkpt><trkpt lat="45.6578966" lon="9.3686717"><ele>221.66666666666669</ele><time>2026-03-29T14:51:21.824Z</time></trkpt><trkpt lat="45.6577395" lon="9.3685754"><ele>221.33333333333334</ele><time>2026-03-29T14:51:22.834Z</time></trkpt><trkpt lat="45.6575959" lon="9.3684846"><ele>221.0</ele><time>2026-03-29T14:51:23.83Z</time></trkpt><trkpt lat="45.6574527" lon="9.3684014"><ele>221.0</ele><time>2026-03-29T14:51:24.831Z</time></trkpt><trkpt lat="45.6573102" lon="9.3683162"><ele>221.0</ele><time>2026-03-29T14:51:25.831Z</time></trkpt><trkpt lat="45.6571755" lon="9.3682285"><ele>221.0</ele><time>2026-03-29T14:51:26.83Z</time></trkpt><trkpt lat="45.6570374" lon="9.3681395"><ele>221.25</ele><time>2026-03-29T14:51:27.827Z</time></trkpt><trkpt lat="45.6568989" lon="9.3680637"><ele>221.5</ele><time>2026-03-29T14:51:28.83Z</time></trkpt><trkpt lat="45.6567656" lon="9.3679877"><ele>221.75</ele><time>2026-03-29T14:51:29.833Z</time></trkpt><trkpt lat="45.6566307" lon="9.3679257"><ele>222.0</ele><time>2026-03-29T14:51:30.826Z</time></trkpt><trkpt lat="45.6564939" lon="9.367863"><ele>221.0</ele><time>2026-03-29T14:51:31.839Z</time></trkpt><trkpt lat="45.6563391" lon="9.3678096"><ele>220.0</ele><time>2026-03-29T14:51:32.834Z</time></trkpt><trkpt lat="45.6561986" lon="9.3677606"><ele>219.0</ele><time>2026-03-29T14:51:33.832Z</time></trkpt><trkpt lat="45.6560574" lon="9.3676972"><ele>219.0</ele><time>2026-03-29T14:51:34.841Z</time></trkpt><trkpt lat="45.6559232" lon="9.3676412"><ele>219.0</ele><time>2026-03-29T14:51:35.836Z</time></trkpt><trkpt lat="45.6558062" lon="9.3676077"><ele>219.0</ele><time>2026-03-29T14:51:36.83Z</time></trkpt><trkpt lat="45.6556907" lon="9.3675631"><ele>219.0</ele><time>2026-03-29T14:51:37.838Z</time></trkpt><trkpt lat="45.6555703" lon="9.3675237"><ele>219.0</ele><time>2026-03-29T14:51:38.841Z</time></trkpt><trkpt lat="45.6554422" lon="9.3674856"><ele>219.0</ele><time>2026-03-29T14:51:39.83Z</time></trkpt><trkpt lat="45.655319" lon="9.3674333"><ele>219.0</ele><time>2026-03-29T14:51:40.835Z</time></trkpt><trkpt lat="45.6551951" lon="9.3673786"><ele>219.0</ele><time>2026-03-29T14:51:41.835Z</time></trkpt><trkpt lat="45.6550681" lon="9.3673294"><ele>219.0</ele><time>2026-03-29T14:51:42.825Z</time></trkpt><trkpt lat="45.6549371" lon="9.3672784"><ele>219.0</ele><time>2026-03-29T14:51:43.84Z</time></trkpt><trkpt lat="45.654808" lon="9.3672343"><ele>219.0</ele><time>2026-03-29T14:51:44.838Z</time></trkpt><trkpt lat="45.6546884" lon="9.3671885"><ele>219.0</ele><time>2026-03-29T14:51:45.824Z</time></trkpt><trkpt lat="45.6545804" lon="9.3671519"><ele>219.0</ele><time>2026-03-29T14:51:46.83Z</time></trkpt><trkpt lat="45.6544916" lon="9.3671218"><ele>219.0</ele><time>2026-03-29T14:51:47.834Z</time></trkpt><trkpt lat="45.6544126" lon="9.3670939"><ele>219.0</ele><time>2026-03-29T14:51:48.827Z</time></trkpt><trkpt lat="45.6543338" lon="9.3670672"><ele>219.0</ele><time>2026-03-29T14:51:49.835Z</time></trkpt><trkpt lat="45.6542583" lon="9.3670394"><ele>219.0</ele><time>2026-03-29T14:51:50.83Z</time></trkpt><trkpt lat="45.6541836" lon="9.3670094"><ele>219.0</ele><time>2026-03-29T14:51:51.824Z</time></trkpt><trkpt lat="45.6541114" lon="9.3669842"><ele>219.16666666666666</ele><time>2026-03-29T14:51:52.838Z</time></trkpt><trkpt lat="45.6540417" lon="9.3669568"><ele>219.33333333333331</ele><time>2026-03-29T14:51:53.832Z</time></trkpt><trkpt lat="45.6539683" lon="9.366925"><ele>219.5</ele><time>2026-03-29T14:51:54.828Z</time></trkpt><trkpt lat="45.6538969" lon="9.3668744"><ele>219.66666666666666</ele><time>2026-03-29T14:51:55.83Z</time></trkpt><trkpt lat="45.653841" lon="9.3667897"><ele>219.83333333333331</ele><time>2026-03-29T14:51:56.823Z</time></trkpt><trkpt lat="45.6538033" lon="9.3666938"><ele>220.0</ele><time>2026-03-29T14:51:57.826Z</time></trkpt><trkpt lat="45.6537684" lon="9.3666065"><ele>219.99999999999997</ele><time>2026-03-29T14:51:58.835Z</time></trkpt><trkpt lat="45.6537095" lon="9.3665466"><ele>220.0</ele><time>2026-03-29T14:51:59.843Z</time></trkpt><trkpt lat="45.653637" lon="9.3665402"><ele>220.0</ele><time>2026-03-29T14:52:00.827Z</time></trkpt><trkpt lat="45.653569" lon="9.3665891"><ele>220.0</ele><time>2026-03-29T14:52:01.83Z</time></trkpt><trkpt lat="45.653522" lon="9.366675"><ele>219.99999999999997</ele><time>2026-03-29T14:52:02.834Z</time></trkpt><trkpt lat="45.6535166" lon="9.3667929"><ele>220.0</ele><time>2026-03-29T14:52:03.823Z</time></trkpt><trkpt lat="45.6535382" lon="9.3669228"><ele>219.75</ele><time>2026-03-29T14:52:04.823Z</time></trkpt><trkpt lat="45.6535822" lon="9.3670572"><ele>219.5</ele><time>2026-03-29T14:52:05.833Z</time></trkpt><trkpt lat="45.6536257" lon="9.3672042"><ele>219.25</ele><time>2026-03-29T14:52:06.824Z</time></trkpt><trkpt lat="45.6536594" lon="9.3673727"><ele>219.0</ele><time>2026-03-29T14:52:07.829Z</time></trkpt><trkpt lat="45.6536973" lon="9.3675519"><ele>219.5</ele><time>2026-03-29T14:52:08.83Z</time></trkpt><trkpt lat="45.653743" lon="9.3677361"><ele>220.0</ele><time>2026-03-29T14:52:09.824Z</time></trkpt><trkpt lat="45.6537893" lon="9.3679105"><ele>220.5</ele><time>2026-03-29T14:52:10.832Z</time></trkpt><trkpt lat="45.6538349" lon="9.3680725"><ele>221.0</ele><time>2026-03-29T14:52:11.827Z</time></trkpt><trkpt lat="45.6538767" lon="9.3682275"><ele>221.20000000000002</ele><time>2026-03-29T14:52:12.821Z</time></trkpt><trkpt lat="45.6539182" lon="9.3683753"><ele>221.40000000000003</ele><time>2026-03-29T14:52:13.829Z</time></trkpt><trkpt lat="45.653959" lon="9.3685168"><ele>221.6</ele><time>2026-03-29T14:52:14.831Z</time></trkpt><trkpt lat="45.6539971" lon="9.3686641"><ele>221.8</ele><time>2026-03-29T14:52:15.82Z</time></trkpt><trkpt lat="45.6540391" lon="9.368813"><ele>222.0</ele><time>2026-03-29T14:52:16.829Z</time></trkpt><trkpt lat="45.6540808" lon="9.368974"><ele>222.5</ele><time>2026-03-29T14:52:17.829Z</time></trkpt><trkpt lat="45.6541216" lon="9.3691449"><ele>223.0</ele><time>2026-03-29T14:52:18.823Z</time></trkpt><trkpt lat="45.6541552" lon="9.3693158"><ele>223.5</ele><time>2026-03-29T14:52:19.829Z</time></trkpt><trkpt lat="45.6541747" lon="9.3694704"><ele>224.0</ele><time>2026-03-29T14:52:20.822Z</time></trkpt><trkpt lat="45.6541668" lon="9.3696056"><ele>223.2</ele><time>2026-03-29T14:52:21.818Z</time></trkpt><trkpt lat="45.6541348" lon="9.3697151"><ele>222.39999999999998</ele><time>2026-03-29T14:52:22.828Z</time></trkpt><trkpt lat="45.6540787" lon="9.3698069"><ele>221.6</ele><time>2026-03-29T14:52:23.83Z</time></trkpt><trkpt lat="45.6540025" lon="9.3698589"><ele>220.8</ele><time>2026-03-29T14:52:24.819Z</time></trkpt><trkpt lat="45.6539093" lon="9.3698625"><ele>220.0</ele><time>2026-03-29T14:52:25.83Z</time></trkpt><trkpt lat="45.6537993" lon="9.3698092"><ele>220.0</ele><time>2026-03-29T14:52:26.836Z</time></trkpt><trkpt lat="45.6536705" lon="9.3697291"><ele>220.0</ele><time>2026-03-29T14:52:27.825Z</time></trkpt><trkpt lat="45.6535336" lon="9.3696466"><ele>220.0</ele><time>2026-03-29T14:52:28.837Z</time></trkpt><trkpt lat="45.653397" lon="9.3695737"><ele>220.0</ele><time>2026-03-29T14:52:29.83Z</time></trkpt><trkpt lat="45.6532445" lon="9.3694982"><ele>220.0</ele><time>2026-03-29T14:52:30.824Z</time></trkpt><trkpt lat="45.6531158" lon="9.3694397"><ele>220.0</ele><time>2026-03-29T14:52:31.835Z</time></trkpt><trkpt lat="45.6529835" lon="9.3693781"><ele>220.0</ele><time>2026-03-29T14:52:32.831Z</time></trkpt><trkpt lat="45.6528516" lon="9.3693333"><ele>220.0</ele><time>2026-03-29T14:52:33.824Z</time></trkpt><trkpt lat="45.6527192" lon="9.3692838"><ele>220.0</ele><time>2026-03-29T14:52:34.836Z</time></trkpt><trkpt lat="45.6525829" lon="9.3692116"><ele>220.0</ele><time>2026-03-29T14:52:35.83Z</time></trkpt><trkpt lat="45.6524244" lon="9.3691658"><ele>220.0</ele><time>2026-03-29T14:52:36.827Z</time></trkpt><trkpt lat="45.6522721" lon="9.3690876"><ele>220.0</ele><time>2026-03-29T14:52:37.833Z</time></trkpt><trkpt lat="45.6521021" lon="9.3690152"><ele>220.0</ele><time>2026-03-29T14:52:38.826Z</time></trkpt><trkpt lat="45.6519362" lon="9.3689535"><ele>220.0</ele><time>2026-03-29T14:52:39.827Z</time></trkpt><trkpt lat="45.6517713" lon="9.368901"><ele>220.0</ele><time>2026-03-29T14:52:40.835Z</time></trkpt><trkpt lat="45.6515997" lon="9.3688424"><ele>220.0</ele><time>2026-03-29T14:52:41.833Z</time></trkpt><trkpt lat="45.6514507" lon="9.368784"><ele>220.0</ele><time>2026-03-29T14:52:42.832Z</time></trkpt><trkpt lat="45.6513077" lon="9.3687285"><ele>220.0</ele><time>2026-03-29T14:52:43.833Z</time></trkpt><trkpt lat="45.6511598" lon="9.3686829"><ele>220.0</ele><time>2026-03-29T14:52:44.829Z</time></trkpt><trkpt lat="45.6510036" lon="9.3686342"><ele>220.0</ele><time>2026-03-29T14:52:45.828Z</time></trkpt><trkpt lat="45.650854" lon="9.3685789"><ele>220.0</ele><time>2026-03-29T14:52:46.826Z</time></trkpt><trkpt lat="45.6507058" lon="9.3685378"><ele>220.0</ele><time>2026-03-29T14:52:47.83Z</time></trkpt><trkpt lat="45.6505567" lon="9.3684795"><ele>220.0</ele><time>2026-03-29T14:52:48.824Z</time></trkpt><trkpt lat="45.6504178" lon="9.3684406"><ele>220.0</ele><time>2026-03-29T14:52:49.83Z</time></trkpt><trkpt lat="45.6502861" lon="9.3684066"><ele>219.25</ele><time>2026-03-29T14:52:50.828Z</time></trkpt><trkpt lat="45.6501379" lon="9.3683378"><ele>218.5</ele><time>2026-03-29T14:52:51.83Z</time></trkpt><trkpt lat="45.649999" lon="9.3682751"><ele>217.75</ele><time>2026-03-29T14:52:52.829Z</time></trkpt><trkpt lat="45.6498628" lon="9.368217"><ele>217.0</ele><time>2026-03-29T14:52:53.831Z</time></trkpt><trkpt lat="45.6497285" lon="9.3681787"><ele>217.0</ele><time>2026-03-29T14:52:54.83Z</time></trkpt><trkpt lat="45.6495906" lon="9.3681237"><ele>217.0</ele><time>2026-03-29T14:52:55.827Z</time></trkpt><trkpt lat="45.649462" lon="9.3680736"><ele>217.0</ele><time>2026-03-29T14:52:56.834Z</time></trkpt><trkpt lat="45.6493318" lon="9.3680226"><ele>217.0</ele><time>2026-03-29T14:52:57.839Z</time></trkpt><trkpt lat="45.6491978" lon="9.3679821"><ele>216.66666666666666</ele><time>2026-03-29T14:52:58.836Z</time></trkpt><trkpt lat="45.6490472" lon="9.3679308"><ele>216.33333333333331</ele><time>2026-03-29T14:52:59.835Z</time></trkpt><trkpt lat="45.6488997" lon="9.3678722"><ele>216.0</ele><time>2026-03-29T14:53:00.833Z</time></trkpt><trkpt lat="45.6487471" lon="9.3678043"><ele>216.66666666666669</ele><time>2026-03-29T14:53:01.83Z</time></trkpt><trkpt lat="45.6486038" lon="9.3677526"><ele>217.33333333333334</ele><time>2026-03-29T14:53:02.834Z</time></trkpt><trkpt lat="45.6484555" lon="9.3677095"><ele>218.0</ele><time>2026-03-29T14:53:03.83Z</time></trkpt><trkpt lat="45.64828" lon="9.3676551"><ele>218.0</ele><time>2026-03-29T14:53:04.836Z</time></trkpt><trkpt lat="45.6481345" lon="9.3676006"><ele>218.0</ele><time>2026-03-29T14:53:05.835Z</time></trkpt><trkpt lat="45.648004" lon="9.3675561"><ele>218.0</ele><time>2026-03-29T14:53:06.827Z</time></trkpt><trkpt lat="45.647872" lon="9.3675059"><ele>218.0</ele><time>2026-03-29T14:53:07.836Z</time></trkpt><trkpt lat="45.6477453" lon="9.3674516"><ele>218.25</ele><time>2026-03-29T14:53:08.831Z</time></trkpt><trkpt lat="45.6476305" lon="9.3674036"><ele>218.5</ele><time>2026-03-29T14:53:09.834Z</time></trkpt><trkpt lat="45.6475106" lon="9.3673729"><ele>218.75</ele><time>2026-03-29T14:53:10.835Z</time></trkpt><trkpt lat="45.6473946" lon="9.367333"><ele>219.0</ele><time>2026-03-29T14:53:11.835Z</time></trkpt><trkpt lat="45.6472763" lon="9.3672867"><ele>219.0</ele><time>2026-03-29T14:53:12.828Z</time></trkpt><trkpt lat="45.6471386" lon="9.3672427"><ele>219.0</ele><time>2026-03-29T14:53:13.835Z</time></trkpt><trkpt lat="45.6469882" lon="9.3671869"><ele>219.0</ele><time>2026-03-29T14:53:14.832Z</time></trkpt><trkpt lat="45.6468264" lon="9.3671204"><ele>219.33333333333331</ele><time>2026-03-29T14:53:15.835Z</time></trkpt><trkpt lat="45.6466516" lon="9.3670582"><ele>219.66666666666666</ele><time>2026-03-29T14:53:16.832Z</time></trkpt><trkpt lat="45.6464724" lon="9.3669944"><ele>220.0</ele><time>2026-03-29T14:53:17.841Z</time></trkpt><trkpt lat="45.6462897" lon="9.366924"><ele>218.33333333333331</ele><time>2026-03-29T14:53:18.831Z</time></trkpt><trkpt lat="45.6461014" lon="9.3668606"><ele>216.66666666666669</ele><time>2026-03-29T14:53:19.834Z</time></trkpt><trkpt lat="45.6459193" lon="9.3667898"><ele>215.0</ele><time>2026-03-29T14:53:20.837Z</time></trkpt><trkpt lat="45.6457395" lon="9.3667316"><ele>215.0</ele><time>2026-03-29T14:53:21.832Z</time></trkpt><trkpt lat="45.6455556" lon="9.3666567"><ele>215.0</ele><time>2026-03-29T14:53:22.839Z</time></trkpt><trkpt lat="45.6453897" lon="9.3665866"><ele>215.0</ele><time>2026-03-29T14:53:23.833Z</time></trkpt><trkpt lat="45.6452299" lon="9.3665244"><ele>214.66666666666669</ele><time>2026-03-29T14:53:24.827Z</time></trkpt><trkpt lat="45.6450674" lon="9.3664748"><ele>214.33333333333331</ele><time>2026-03-29T14:53:25.836Z</time></trkpt><trkpt lat="45.6449115" lon="9.3664111"><ele>214.0</ele><time>2026-03-29T14:53:26.831Z</time></trkpt><trkpt lat="45.6447551" lon="9.3663536"><ele>215.0</ele><time>2026-03-29T14:53:27.828Z</time></trkpt><trkpt lat="45.6445756" lon="9.3662907"><ele>216.0</ele><time>2026-03-29T14:53:28.831Z</time></trkpt><trkpt lat="45.6443891" lon="9.3662227"><ele>217.0</ele><time>2026-03-29T14:53:29.836Z</time></trkpt><trkpt lat="45.6442057" lon="9.3661567"><ele>217.66666666666666</ele><time>2026-03-29T14:53:30.825Z</time></trkpt><trkpt lat="45.6440264" lon="9.3660973"><ele>218.33333333333331</ele><time>2026-03-29T14:53:31.831Z</time></trkpt><trkpt lat="45.6438455" lon="9.3660286"><ele>219.0</ele><time>2026-03-29T14:53:32.831Z</time></trkpt><trkpt lat="45.6436557" lon="9.3659666"><ele>218.0</ele><time>2026-03-29T14:53:33.833Z</time></trkpt><trkpt lat="45.6434797" lon="9.3658949"><ele>217.0</ele><time>2026-03-29T14:53:34.828Z</time></trkpt><trkpt lat="45.6432944" lon="9.3658239"><ele>216.0</ele><time>2026-03-29T14:53:35.832Z</time></trkpt><trkpt lat="45.6431094" lon="9.3657379"><ele>216.0</ele><time>2026-03-29T14:53:36.828Z</time></trkpt><trkpt lat="45.6429343" lon="9.3656751"><ele>216.0</ele><time>2026-03-29T14:53:37.829Z</time></trkpt><trkpt lat="45.6427453" lon="9.3656105"><ele>216.0</ele><time>2026-03-29T14:53:38.838Z</time></trkpt><trkpt lat="45.6425537" lon="9.3655297"><ele>216.0</ele><time>2026-03-29T14:53:39.833Z</time></trkpt><trkpt lat="45.6423769" lon="9.3654608"><ele>216.0</ele><time>2026-03-29T14:53:40.833Z</time></trkpt><trkpt lat="45.6422076" lon="9.3653806"><ele>216.0</ele><time>2026-03-29T14:53:41.831Z</time></trkpt><trkpt lat="45.6420354" lon="9.3653157"><ele>215.66666666666669</ele><time>2026-03-29T14:53:42.827Z</time></trkpt><trkpt lat="45.6418464" lon="9.3652407"><ele>215.33333333333334</ele><time>2026-03-29T14:53:43.83Z</time></trkpt><trkpt lat="45.6416564" lon="9.3651862"><ele>215.0</ele><time>2026-03-29T14:53:44.832Z</time></trkpt><trkpt lat="45.6414741" lon="9.3651403"><ele>215.0</ele><time>2026-03-29T14:53:45.829Z</time></trkpt><trkpt lat="45.6412915" lon="9.3650799"><ele>215.0</ele><time>2026-03-29T14:53:46.825Z</time></trkpt><trkpt lat="45.641119" lon="9.365014"><ele>215.0</ele><time>2026-03-29T14:53:47.838Z</time></trkpt><trkpt lat="45.6409441" lon="9.3649413"><ele>214.0</ele><time>2026-03-29T14:53:48.83Z</time></trkpt><trkpt lat="45.6407689" lon="9.3648772"><ele>213.0</ele><time>2026-03-29T14:53:49.831Z</time></trkpt><trkpt lat="45.6405946" lon="9.3648188"><ele>212.0</ele><time>2026-03-29T14:53:50.834Z</time></trkpt><trkpt lat="45.6404098" lon="9.3647507"><ele>212.0</ele><time>2026-03-29T14:53:51.824Z</time></trkpt><trkpt lat="45.6402197" lon="9.3647013"><ele>212.0</ele><time>2026-03-29T14:53:52.831Z</time></trkpt><trkpt lat="45.6400332" lon="9.3646629"><ele>212.0</ele><time>2026-03-29T14:53:53.836Z</time></trkpt><trkpt lat="45.6398364" lon="9.3645989"><ele>212.0</ele><time>2026-03-29T14:53:54.833Z</time></trkpt><trkpt lat="45.6396279" lon="9.364526"><ele>212.0</ele><time>2026-03-29T14:53:55.832Z</time></trkpt><trkpt lat="45.639426" lon="9.3644519"><ele>212.0</ele><time>2026-03-29T14:53:56.833Z</time></trkpt><trkpt lat="45.639227" lon="9.3643834"><ele>211.5</ele><time>2026-03-29T14:53:57.836Z</time></trkpt><trkpt lat="45.6390081" lon="9.3643036"><ele>211.0</ele><time>2026-03-29T14:53:58.829Z</time></trkpt><trkpt lat="45.6387919" lon="9.3642172"><ele>211.33333333333331</ele><time>2026-03-29T14:53:59.835Z</time></trkpt><trkpt lat="45.6385842" lon="9.3641401"><ele>211.66666666666669</ele><time>2026-03-29T14:54:00.834Z</time></trkpt><trkpt lat="45.6383658" lon="9.3640761"><ele>212.0</ele><time>2026-03-29T14:54:01.831Z</time></trkpt><trkpt lat="45.6381618" lon="9.3640014"><ele>212.0</ele><time>2026-03-29T14:54:02.836Z</time></trkpt><trkpt lat="45.6379544" lon="9.363929"><ele>212.0</ele><time>2026-03-29T14:54:03.829Z</time></trkpt><trkpt lat="45.6377423" lon="9.3638699"><ele>212.0</ele><time>2026-03-29T14:54:04.833Z</time></trkpt><trkpt lat="45.6375317" lon="9.3638185"><ele>212.0</ele><time>2026-03-29T14:54:05.836Z</time></trkpt><trkpt lat="45.6373265" lon="9.3637664"><ele>212.0</ele><time>2026-03-29T14:54:06.832Z</time></trkpt><trkpt lat="45.6371273" lon="9.363726"><ele>212.0</ele><time>2026-03-29T14:54:07.835Z</time></trkpt><trkpt lat="45.6369121" lon="9.3636817"><ele>211.66666666666669</ele><time>2026-03-29T14:54:08.837Z</time></trkpt><trkpt lat="45.6367017" lon="9.3636262"><ele>211.33333333333331</ele><time>2026-03-29T14:54:09.835Z</time></trkpt><trkpt lat="45.6364971" lon="9.3635725"><ele>211.0</ele><time>2026-03-29T14:54:10.834Z</time></trkpt><trkpt lat="45.6362934" lon="9.3635271"><ele>211.0</ele><time>2026-03-29T14:54:11.837Z</time></trkpt><trkpt lat="45.6360839" lon="9.3634772"><ele>211.0</ele><time>2026-03-29T14:54:12.834Z</time></trkpt><trkpt lat="45.6358817" lon="9.3634367"><ele>211.0</ele><time>2026-03-29T14:54:13.834Z</time></trkpt><trkpt lat="45.6356723" lon="9.3633882"><ele>211.0</ele><time>2026-03-29T14:54:14.837Z</time></trkpt><trkpt lat="45.6354539" lon="9.3633412"><ele>211.0</ele><time>2026-03-29T14:54:15.834Z</time></trkpt><trkpt lat="45.6352476" lon="9.3633037"><ele>211.0</ele><time>2026-03-29T14:54:16.835Z</time></trkpt><trkpt lat="45.63503" lon="9.3632628"><ele>211.0</ele><time>2026-03-29T14:54:17.834Z</time></trkpt><trkpt lat="45.6348148" lon="9.363211"><ele>211.0</ele><time>2026-03-29T14:54:18.831Z</time></trkpt><trkpt lat="45.6346086" lon="9.3631708"><ele>211.0</ele><time>2026-03-29T14:54:19.833Z</time></trkpt><trkpt lat="45.6343965" lon="9.3631304"><ele>211.0</ele><time>2026-03-29T14:54:20.832Z</time></trkpt><trkpt lat="45.634191" lon="9.3630902"><ele>211.0</ele><time>2026-03-29T14:54:21.828Z</time></trkpt><trkpt lat="45.6339768" lon="9.3630534"><ele>211.0</ele><time>2026-03-29T14:54:22.837Z</time></trkpt><trkpt lat="45.6337663" lon="9.3630121"><ele>210.66666666666666</ele><time>2026-03-29T14:54:23.832Z</time></trkpt><trkpt lat="45.6335463" lon="9.3629645"><ele>210.33333333333331</ele><time>2026-03-29T14:54:24.821Z</time></trkpt><trkpt lat="45.6333382" lon="9.3629113"><ele>210.0</ele><time>2026-03-29T14:54:25.833Z</time></trkpt><trkpt lat="45.6331135" lon="9.3628732"><ele>210.0</ele><time>2026-03-29T14:54:26.836Z</time></trkpt><trkpt lat="45.6329115" lon="9.3628298"><ele>210.0</ele><time>2026-03-29T14:54:27.834Z</time></trkpt><trkpt lat="45.6326874" lon="9.3627943"><ele>210.0</ele><time>2026-03-29T14:54:28.834Z</time></trkpt><trkpt lat="45.6324703" lon="9.3627568"><ele>210.0</ele><time>2026-03-29T14:54:29.84Z</time></trkpt><trkpt lat="45.6322501" lon="9.3627178"><ele>210.0</ele><time>2026-03-29T14:54:30.831Z</time></trkpt><trkpt lat="45.6320271" lon="9.3626701"><ele>210.0</ele><time>2026-03-29T14:54:31.832Z</time></trkpt><trkpt lat="45.6317965" lon="9.3626192"><ele>209.66666666666669</ele><time>2026-03-29T14:54:32.84Z</time></trkpt><trkpt lat="45.6315778" lon="9.3625741"><ele>209.33333333333334</ele><time>2026-03-29T14:54:33.837Z</time></trkpt><trkpt lat="45.6313523" lon="9.3625495"><ele>209.0</ele><time>2026-03-29T14:54:34.835Z</time></trkpt><trkpt lat="45.6311293" lon="9.3625015"><ele>209.0</ele><time>2026-03-29T14:54:35.837Z</time></trkpt><trkpt lat="45.6309114" lon="9.3624522"><ele>209.0</ele><time>2026-03-29T14:54:36.831Z</time></trkpt><trkpt lat="45.6306728" lon="9.3624097"><ele>209.0</ele><time>2026-03-29T14:54:37.832Z</time></trkpt><trkpt lat="45.6304373" lon="9.3623735"><ele>209.0</ele><time>2026-03-29T14:54:38.838Z</time></trkpt><trkpt lat="45.6302056" lon="9.36233"><ele>207.5</ele><time>2026-03-29T14:54:39.83Z</time></trkpt><trkpt lat="45.6299629" lon="9.3622845"><ele>206.0</ele><time>2026-03-29T14:54:40.831Z</time></trkpt><trkpt lat="45.6297316" lon="9.3622349"><ele>207.5</ele><time>2026-03-29T14:54:41.836Z</time></trkpt><trkpt lat="45.6295009" lon="9.3621871"><ele>209.0</ele><time>2026-03-29T14:54:42.834Z</time></trkpt><trkpt lat="45.6292653" lon="9.3621413"><ele>209.0</ele><time>2026-03-29T14:54:43.84Z</time></trkpt><trkpt lat="45.6290247" lon="9.3620915"><ele>209.0</ele><time>2026-03-29T14:54:44.838Z</time></trkpt><trkpt lat="45.6287926" lon="9.3620507"><ele>208.5</ele><time>2026-03-29T14:54:45.836Z</time></trkpt><trkpt lat="45.628555" lon="9.3620112"><ele>208.0</ele><time>2026-03-29T14:54:46.836Z</time></trkpt><trkpt lat="45.6283188" lon="9.3619626"><ele>208.0</ele><time>2026-03-29T14:54:47.838Z</time></trkpt><trkpt lat="45.6280722" lon="9.3619021"><ele>208.0</ele><time>2026-03-29T14:54:48.835Z</time></trkpt><trkpt lat="45.6278326" lon="9.3618549"><ele>207.0</ele><time>2026-03-29T14:54:49.839Z</time></trkpt><trkpt lat="45.6275974" lon="9.3618073"><ele>206.0</ele><time>2026-03-29T14:54:50.838Z</time></trkpt><trkpt lat="45.6273623" lon="9.3617526"><ele>206.0</ele><time>2026-03-29T14:54:51.834Z</time></trkpt><trkpt lat="45.6271304" lon="9.361711"><ele>206.0</ele><time>2026-03-29T14:54:52.838Z</time></trkpt><trkpt lat="45.6268984" lon="9.3616677"><ele>204.5</ele><time>2026-03-29T14:54:53.836Z</time></trkpt><trkpt lat="45.6266563" lon="9.3616134"><ele>203.0</ele><time>2026-03-29T14:54:54.833Z</time></trkpt><trkpt lat="45.6264245" lon="9.361564"><ele>203.0</ele><time>2026-03-29T14:54:55.836Z</time></trkpt><trkpt lat="45.626214" lon="9.3615174"><ele>203.0</ele><time>2026-03-29T14:54:56.839Z</time></trkpt><trkpt lat="45.626005" lon="9.3614681"><ele>203.0</ele><time>2026-03-29T14:54:57.833Z</time></trkpt><trkpt lat="45.6257889" lon="9.361442"><ele>203.0</ele><time>2026-03-29T14:54:58.835Z</time></trkpt><trkpt lat="45.6255823" lon="9.361398"><ele>203.0</ele><time>2026-03-29T14:54:59.84Z</time></trkpt><trkpt lat="45.6253688" lon="9.3613583"><ele>203.0</ele><time>2026-03-29T14:55:00.836Z</time></trkpt><trkpt lat="45.6251513" lon="9.361321"><ele>202.33333333333334</ele><time>2026-03-29T14:55:01.836Z</time></trkpt><trkpt lat="45.624937" lon="9.361281"><ele>201.66666666666669</ele><time>2026-03-29T14:55:02.842Z</time></trkpt><trkpt lat="45.6247241" lon="9.3612378"><ele>201.0</ele><time>2026-03-29T14:55:03.834Z</time></trkpt><trkpt lat="45.6245266" lon="9.3612043"><ele>200.33333333333331</ele><time>2026-03-29T14:55:04.831Z</time></trkpt><trkpt lat="45.6243127" lon="9.3611492"><ele>199.66666666666666</ele><time>2026-03-29T14:55:05.837Z</time></trkpt><trkpt lat="45.624106" lon="9.3611037"><ele>199.0</ele><time>2026-03-29T14:55:06.828Z</time></trkpt><trkpt lat="45.6239065" lon="9.3610575"><ele>199.0</ele><time>2026-03-29T14:55:07.83Z</time></trkpt><trkpt lat="45.6237084" lon="9.3610114"><ele>199.0</ele><time>2026-03-29T14:55:08.832Z</time></trkpt><trkpt lat="45.6235057" lon="9.3609657"><ele>199.0</ele><time>2026-03-29T14:55:09.834Z</time></trkpt><trkpt lat="45.623298" lon="9.3609252"><ele>199.0</ele><time>2026-03-29T14:55:10.838Z</time></trkpt><trkpt lat="45.6230849" lon="9.3608918"><ele>199.0</ele><time>2026-03-29T14:55:11.834Z</time></trkpt><trkpt lat="45.6228755" lon="9.3608424"><ele>199.0</ele><time>2026-03-29T14:55:12.837Z</time></trkpt><trkpt lat="45.6226827" lon="9.3607999"><ele>198.0</ele><time>2026-03-29T14:55:13.835Z</time></trkpt><trkpt lat="45.6224803" lon="9.3607426"><ele>197.0</ele><time>2026-03-29T14:55:14.841Z</time></trkpt><trkpt lat="45.6222984" lon="9.3607068"><ele>196.0</ele><time>2026-03-29T14:55:15.834Z</time></trkpt><trkpt lat="45.6221082" lon="9.3606818"><ele>195.33333333333331</ele><time>2026-03-29T14:55:16.834Z</time></trkpt><trkpt lat="45.6219122" lon="9.3606366"><ele>194.66666666666669</ele><time>2026-03-29T14:55:17.836Z</time></trkpt><trkpt lat="45.6217159" lon="9.3605845"><ele>194.0</ele><time>2026-03-29T14:55:18.836Z</time></trkpt><trkpt lat="45.6215327" lon="9.360546"><ele>194.0</ele><time>2026-03-29T14:55:19.828Z</time></trkpt><trkpt lat="45.6213432" lon="9.3604929"><ele>194.0</ele><time>2026-03-29T14:55:20.836Z</time></trkpt><trkpt lat="45.6211577" lon="9.3604277"><ele>194.0</ele><time>2026-03-29T14:55:21.829Z</time></trkpt><trkpt lat="45.6209852" lon="9.3603992"><ele>194.0</ele><time>2026-03-29T14:55:22.83Z</time></trkpt><trkpt lat="45.6207918" lon="9.3603441"><ele>194.0</ele><time>2026-03-29T14:55:23.837Z</time></trkpt><trkpt lat="45.6206084" lon="9.3602976"><ele>194.0</ele><time>2026-03-29T14:55:24.834Z</time></trkpt><trkpt lat="45.6204243" lon="9.3602601"><ele>193.0</ele><time>2026-03-29T14:55:25.838Z</time></trkpt><trkpt lat="45.6202381" lon="9.3602203"><ele>192.0</ele><time>2026-03-29T14:55:26.837Z</time></trkpt><trkpt lat="45.6200684" lon="9.3601955"><ele>191.0</ele><time>2026-03-29T14:55:27.828Z</time></trkpt><trkpt lat="45.6198872" lon="9.3601762"><ele>191.0</ele><time>2026-03-29T14:55:28.836Z</time></trkpt><trkpt lat="45.6197104" lon="9.3601373"><ele>191.0</ele><time>2026-03-29T14:55:29.835Z</time></trkpt><trkpt lat="45.6195409" lon="9.3600778"><ele>191.0</ele><time>2026-03-29T14:55:30.834Z</time></trkpt><trkpt lat="45.6193664" lon="9.3600407"><ele>191.33333333333331</ele><time>2026-03-29T14:55:31.839Z</time></trkpt><trkpt lat="45.6192084" lon="9.3599967"><ele>191.66666666666666</ele><time>2026-03-29T14:55:32.842Z</time></trkpt><trkpt lat="45.619057" lon="9.3599767"><ele>192.0</ele><time>2026-03-29T14:55:33.835Z</time></trkpt><trkpt lat="45.6188999" lon="9.3599524"><ele>192.0</ele><time>2026-03-29T14:55:34.837Z</time></trkpt><trkpt lat="45.6187428" lon="9.3599215"><ele>192.0</ele><time>2026-03-29T14:55:35.84Z</time></trkpt><trkpt lat="45.6185878" lon="9.3598981"><ele>192.0</ele><time>2026-03-29T14:55:36.828Z</time></trkpt><trkpt lat="45.6184378" lon="9.3598639"><ele>192.5</ele><time>2026-03-29T14:55:37.834Z</time></trkpt><trkpt lat="45.6182826" lon="9.3598277"><ele>193.0</ele><time>2026-03-29T14:55:38.837Z</time></trkpt><trkpt lat="45.6181255" lon="9.3598029"><ele>193.5</ele><time>2026-03-29T14:55:39.836Z</time></trkpt><trkpt lat="45.6180009" lon="9.359777"><ele>194.0</ele><time>2026-03-29T14:55:40.827Z</time></trkpt><trkpt lat="45.617887" lon="9.3597423"><ele>193.83333333333334</ele><time>2026-03-29T14:55:41.834Z</time></trkpt><trkpt lat="45.6177943" lon="9.3597204"><ele>193.66666666666669</ele><time>2026-03-29T14:55:42.833Z</time></trkpt><trkpt lat="45.6177073" lon="9.359702"><ele>193.5</ele><time>2026-03-29T14:55:43.833Z</time></trkpt><trkpt lat="45.6176364" lon="9.3596832"><ele>193.33333333333331</ele><time>2026-03-29T14:55:44.839Z</time></trkpt><trkpt lat="45.6175278" lon="9.3596722"><ele>193.16666666666666</ele><time>2026-03-29T14:55:46.837Z</time></trkpt><trkpt lat="45.617459" lon="9.3596564"><ele>193.0</ele><time>2026-03-29T14:55:48.846Z</time></trkpt><trkpt lat="45.6173645" lon="9.3596352"><ele>192.99999999999997</ele><time>2026-03-29T14:55:50.835Z</time></trkpt><trkpt lat="45.6173011" lon="9.3596349"><ele>193.0</ele><time>2026-03-29T14:55:51.832Z</time></trkpt><trkpt lat="45.6172353" lon="9.3596857"><ele>193.0</ele><time>2026-03-29T14:55:52.829Z</time></trkpt><trkpt lat="45.6171785" lon="9.359781"><ele>193.0</ele><time>2026-03-29T14:55:53.833Z</time></trkpt><trkpt lat="45.617158" lon="9.3599217"><ele>192.99999999999997</ele><time>2026-03-29T14:55:54.829Z</time></trkpt><trkpt lat="45.6171701" lon="9.3600552"><ele>193.0</ele><time>2026-03-29T14:55:55.829Z</time></trkpt><trkpt lat="45.6172009" lon="9.3601925"><ele>193.8</ele><time>2026-03-29T14:55:56.829Z</time></trkpt><trkpt lat="45.6172127" lon="9.3603321"><ele>194.60000000000002</ele><time>2026-03-29T14:55:57.828Z</time></trkpt><trkpt lat="45.6172112" lon="9.3604825"><ele>195.39999999999998</ele><time>2026-03-29T14:55:58.831Z</time></trkpt><trkpt lat="45.6172018" lon="9.360634"><ele>196.2</ele><time>2026-03-29T14:55:59.827Z</time></trkpt><trkpt lat="45.6171831" lon="9.3607946"><ele>197.0</ele><time>2026-03-29T14:56:00.827Z</time></trkpt><trkpt lat="45.6171715" lon="9.3609328"><ele>197.00000000000003</ele><time>2026-03-29T14:56:01.822Z</time></trkpt><trkpt lat="45.6171681" lon="9.3610501"><ele>197.0</ele><time>2026-03-29T14:56:02.831Z</time></trkpt><trkpt lat="45.6171518" lon="9.3611458"><ele>197.0</ele><time>2026-03-29T14:56:03.822Z</time></trkpt><trkpt lat="45.6171065" lon="9.3612363"><ele>197.0</ele><time>2026-03-29T14:56:05.83Z</time></trkpt><trkpt lat="45.6170114" lon="9.3611958"><ele>197.00000000000003</ele><time>2026-03-29T14:56:07.83Z</time></trkpt><trkpt lat="45.6169543" lon="9.3611573"><ele>197.0</ele><time>2026-03-29T14:56:08.834Z</time></trkpt><trkpt lat="45.6168834" lon="9.3611311"><ele>196.2</ele><time>2026-03-29T14:56:09.822Z</time></trkpt><trkpt lat="45.6168072" lon="9.3610989"><ele>195.39999999999998</ele><time>2026-03-29T14:56:10.831Z</time></trkpt><trkpt lat="45.6167108" lon="9.3610523"><ele>194.60000000000002</ele><time>2026-03-29T14:56:11.835Z</time></trkpt><trkpt lat="45.6166103" lon="9.3610174"><ele>193.8</ele><time>2026-03-29T14:56:12.834Z</time></trkpt><trkpt lat="45.6165074" lon="9.3609818"><ele>193.0</ele><time>2026-03-29T14:56:13.832Z</time></trkpt><trkpt lat="45.6164072" lon="9.3609503"><ele>193.0</ele><time>2026-03-29T14:56:14.837Z</time></trkpt><trkpt lat="45.6163054" lon="9.360921"><ele>193.0</ele><time>2026-03-29T14:56:15.827Z</time></trkpt><trkpt lat="45.6162058" lon="9.3608967"><ele>193.0</ele><time>2026-03-29T14:56:16.832Z</time></trkpt><trkpt lat="45.6161092" lon="9.3608807"><ele>193.0</ele><time>2026-03-29T14:56:17.834Z</time></trkpt><trkpt lat="45.6160153" lon="9.3608801"><ele>193.0</ele><time>2026-03-29T14:56:18.825Z</time></trkpt><trkpt lat="45.6159244" lon="9.3609013"><ele>191.0</ele><time>2026-03-29T14:56:19.833Z</time></trkpt><trkpt lat="45.6158352" lon="9.3609253"><ele>191.0</ele><time>2026-03-29T14:56:20.833Z</time></trkpt><trkpt lat="45.6157484" lon="9.3609303"><ele>191.0</ele><time>2026-03-29T14:56:21.826Z</time></trkpt><trkpt lat="45.6156693" lon="9.3609147"><ele>191.0</ele><time>2026-03-29T14:56:22.842Z</time></trkpt><trkpt lat="45.6155999" lon="9.3609021"><ele>191.0</ele><time>2026-03-29T14:56:23.831Z</time></trkpt><trkpt lat="45.615496" lon="9.3608975"><ele>191.0</ele><time>2026-03-29T14:56:25.837Z</time></trkpt></trkseg></trk></gpx>